<?xml version="1.0" encoding="UTF-8" standalone="no" ?>
<gpx xmlns="http://www.topografix.com/GPX/1/1" xmlns:xsi="http://www.w3.org/2001/XMLSchema-instance" xsi:schemaLocation="http://www.topografix.com/GPX/1/1 http://www.topografix.com/GPX/1/1/gpx.xsd" version="1.1" creator="VisuGPX - https://www.visugpx.com">
  <metadata>
    <name>2014-06-21 - Tour de la Vallée, 1ère partie</name>
    <desc><![CDATA[2014-06-21 - Tour de la Vallée, 1ère partie]]></desc>
  </metadata>
  <trk>
    <name><![CDATA[Tracé actuel: 21 JUIN 2014 14:23]]></name>
    <trkseg>
      <trkpt lat="47.83057" lon="7.07977">
        <ele>363.04</ele>
        <time>2014-06-21T12:23:55Z</time>
      </trkpt>
      <trkpt lat="47.83058" lon="7.07969">
        <ele>359.19</ele>
        <time>2014-06-21T12:24:55Z</time>
      </trkpt>
      <trkpt lat="47.83058" lon="7.07968">
        <ele>361.11</ele>
        <time>2014-06-21T12:24:56Z</time>
      </trkpt>
      <trkpt lat="47.83058" lon="7.07967">
        <ele>367.36</ele>
        <time>2014-06-21T12:24:57Z</time>
      </trkpt>
      <trkpt lat="47.83058" lon="7.07967">
        <ele>360.15</ele>
        <time>2014-06-21T12:24:59Z</time>
      </trkpt>
      <trkpt lat="47.83057" lon="7.07967">
        <ele>363.52</ele>
        <time>2014-06-21T12:25:00Z</time>
      </trkpt>
      <trkpt lat="47.83055" lon="7.07968">
        <ele>367.84</ele>
        <time>2014-06-21T12:25:12Z</time>
      </trkpt>
      <trkpt lat="47.83055" lon="7.07968">
        <ele>362.55</ele>
        <time>2014-06-21T12:25:13Z</time>
      </trkpt>
      <trkpt lat="47.83055" lon="7.07968">
        <ele>364.48</ele>
        <time>2014-06-21T12:25:16Z</time>
      </trkpt>
      <trkpt lat="47.83055" lon="7.07968">
        <ele>359.19</ele>
        <time>2014-06-21T12:25:20Z</time>
      </trkpt>
      <trkpt lat="47.83055" lon="7.07968">
        <ele>360.63</ele>
        <time>2014-06-21T12:25:21Z</time>
      </trkpt>
      <trkpt lat="47.83055" lon="7.07968">
        <ele>364</ele>
        <time>2014-06-21T12:25:25Z</time>
      </trkpt>
      <trkpt lat="47.83055" lon="7.07968">
        <ele>364.48</ele>
        <time>2014-06-21T12:25:44Z</time>
      </trkpt>
      <trkpt lat="47.83055" lon="7.07968">
        <ele>361.11</ele>
        <time>2014-06-21T12:25:46Z</time>
      </trkpt>
      <trkpt lat="47.83055" lon="7.07968">
        <ele>364.96</ele>
        <time>2014-06-21T12:25:48Z</time>
      </trkpt>
      <trkpt lat="47.83055" lon="7.07968">
        <ele>361.59</ele>
        <time>2014-06-21T12:25:55Z</time>
      </trkpt>
      <trkpt lat="47.83055" lon="7.07968">
        <ele>365.44</ele>
        <time>2014-06-21T12:26:20Z</time>
      </trkpt>
      <trkpt lat="47.83055" lon="7.07968">
        <ele>357.27</ele>
        <time>2014-06-21T12:26:22Z</time>
      </trkpt>
      <trkpt lat="47.83055" lon="7.07968">
        <ele>362.07</ele>
        <time>2014-06-21T12:26:23Z</time>
      </trkpt>
      <trkpt lat="47.83055" lon="7.07968">
        <ele>366.4</ele>
        <time>2014-06-21T12:26:34Z</time>
      </trkpt>
      <trkpt lat="47.83055" lon="7.07968">
        <ele>362.07</ele>
        <time>2014-06-21T12:26:35Z</time>
      </trkpt>
      <trkpt lat="47.83054" lon="7.07969">
        <ele>361.59</ele>
        <time>2014-06-21T12:26:55Z</time>
      </trkpt>
      <trkpt lat="47.83054" lon="7.0797">
        <ele>364.48</ele>
        <time>2014-06-21T12:26:56Z</time>
      </trkpt>
      <trkpt lat="47.83054" lon="7.0797">
        <ele>362.07</ele>
        <time>2014-06-21T12:26:57Z</time>
      </trkpt>
      <trkpt lat="47.83054" lon="7.0797">
        <ele>363.52</ele>
        <time>2014-06-21T12:27:07Z</time>
      </trkpt>
      <trkpt lat="47.83054" lon="7.0797">
        <ele>362.07</ele>
        <time>2014-06-21T12:27:09Z</time>
      </trkpt>
      <trkpt lat="47.83054" lon="7.0797">
        <ele>361.11</ele>
        <time>2014-06-21T12:27:29Z</time>
      </trkpt>
      <trkpt lat="47.83053" lon="7.07969">
        <ele>364.48</ele>
        <time>2014-06-21T12:27:47Z</time>
      </trkpt>
      <trkpt lat="47.83053" lon="7.07969">
        <ele>361.59</ele>
        <time>2014-06-21T12:28:18Z</time>
      </trkpt>
      <trkpt lat="47.83053" lon="7.07969">
        <ele>367.36</ele>
        <time>2014-06-21T12:29:17Z</time>
      </trkpt>
      <trkpt lat="47.83053" lon="7.07969">
        <ele>364</ele>
        <time>2014-06-21T12:29:18Z</time>
      </trkpt>
      <trkpt lat="47.83052" lon="7.07969">
        <ele>362.55</ele>
        <time>2014-06-21T12:29:20Z</time>
      </trkpt>
      <trkpt lat="47.83047" lon="7.07972">
        <ele>364</ele>
        <time>2014-06-21T12:29:35Z</time>
      </trkpt>
      <trkpt lat="47.83047" lon="7.07972">
        <ele>360.15</ele>
        <time>2014-06-21T12:29:37Z</time>
      </trkpt>
      <trkpt lat="47.83047" lon="7.07972">
        <ele>365.92</ele>
        <time>2014-06-21T12:29:38Z</time>
      </trkpt>
      <trkpt lat="47.83047" lon="7.07972">
        <ele>362.55</ele>
        <time>2014-06-21T12:29:47Z</time>
      </trkpt>
      <trkpt lat="47.83047" lon="7.07972">
        <ele>363.04</ele>
        <time>2014-06-21T12:30:01Z</time>
      </trkpt>
      <trkpt lat="47.83051" lon="7.07972">
        <ele>362.55</ele>
        <time>2014-06-21T12:30:23Z</time>
      </trkpt>
      <trkpt lat="47.83051" lon="7.07972">
        <ele>365.44</ele>
        <time>2014-06-21T12:30:24Z</time>
      </trkpt>
      <trkpt lat="47.83051" lon="7.07975">
        <ele>362.55</ele>
        <time>2014-06-21T12:30:29Z</time>
      </trkpt>
      <trkpt lat="47.83052" lon="7.07981">
        <ele>361.11</ele>
        <time>2014-06-21T12:30:35Z</time>
      </trkpt>
      <trkpt lat="47.83052" lon="7.07986">
        <ele>364.48</ele>
        <time>2014-06-21T12:30:38Z</time>
      </trkpt>
      <trkpt lat="47.83053" lon="7.07991">
        <ele>364.48</ele>
        <time>2014-06-21T12:30:42Z</time>
      </trkpt>
      <trkpt lat="47.83054" lon="7.08001">
        <ele>361.59</ele>
        <time>2014-06-21T12:30:51Z</time>
      </trkpt>
      <trkpt lat="47.83053" lon="7.08006">
        <ele>366.4</ele>
        <time>2014-06-21T12:30:56Z</time>
      </trkpt>
      <trkpt lat="47.83053" lon="7.08007">
        <ele>362.55</ele>
        <time>2014-06-21T12:30:57Z</time>
      </trkpt>
      <trkpt lat="47.83054" lon="7.08008">
        <ele>362.55</ele>
        <time>2014-06-21T12:30:58Z</time>
      </trkpt>
      <trkpt lat="47.83055" lon="7.08011">
        <ele>363.52</ele>
        <time>2014-06-21T12:31:00Z</time>
      </trkpt>
      <trkpt lat="47.83061" lon="7.08022">
        <ele>361.11</ele>
        <time>2014-06-21T12:31:08Z</time>
      </trkpt>
      <trkpt lat="47.83063" lon="7.08027">
        <ele>364.96</ele>
        <time>2014-06-21T12:31:12Z</time>
      </trkpt>
      <trkpt lat="47.83064" lon="7.08028">
        <ele>362.07</ele>
        <time>2014-06-21T12:31:13Z</time>
      </trkpt>
      <trkpt lat="47.83065" lon="7.08031">
        <ele>365.44</ele>
        <time>2014-06-21T12:31:15Z</time>
      </trkpt>
      <trkpt lat="47.83066" lon="7.08039">
        <ele>362.55</ele>
        <time>2014-06-21T12:31:20Z</time>
      </trkpt>
      <trkpt lat="47.83068" lon="7.08055">
        <ele>362.07</ele>
        <time>2014-06-21T12:31:35Z</time>
      </trkpt>
      <trkpt lat="47.83066" lon="7.08057">
        <ele>361.59</ele>
        <time>2014-06-21T12:31:37Z</time>
      </trkpt>
      <trkpt lat="47.83063" lon="7.08061">
        <ele>359.19</ele>
        <time>2014-06-21T12:31:40Z</time>
      </trkpt>
      <trkpt lat="47.8306" lon="7.08063">
        <ele>363.52</ele>
        <time>2014-06-21T12:31:42Z</time>
      </trkpt>
      <trkpt lat="47.83059" lon="7.08065">
        <ele>359.67</ele>
        <time>2014-06-21T12:31:44Z</time>
      </trkpt>
      <trkpt lat="47.83058" lon="7.08066">
        <ele>364</ele>
        <time>2014-06-21T12:31:45Z</time>
      </trkpt>
      <trkpt lat="47.83058" lon="7.08067">
        <ele>359.67</ele>
        <time>2014-06-21T12:31:46Z</time>
      </trkpt>
      <trkpt lat="47.83057" lon="7.08068">
        <ele>363.04</ele>
        <time>2014-06-21T12:31:47Z</time>
      </trkpt>
      <trkpt lat="47.83054" lon="7.08076">
        <ele>360.15</ele>
        <time>2014-06-21T12:31:53Z</time>
      </trkpt>
      <trkpt lat="47.83052" lon="7.08078">
        <ele>364</ele>
        <time>2014-06-21T12:31:55Z</time>
      </trkpt>
      <trkpt lat="47.83051" lon="7.08079">
        <ele>359.67</ele>
        <time>2014-06-21T12:31:56Z</time>
      </trkpt>
      <trkpt lat="47.8305" lon="7.0808">
        <ele>361.11</ele>
        <time>2014-06-21T12:31:57Z</time>
      </trkpt>
      <trkpt lat="47.83044" lon="7.08089">
        <ele>361.59</ele>
        <time>2014-06-21T12:32:05Z</time>
      </trkpt>
      <trkpt lat="47.83042" lon="7.08091">
        <ele>365.44</ele>
        <time>2014-06-21T12:32:07Z</time>
      </trkpt>
      <trkpt lat="47.83041" lon="7.08092">
        <ele>358.71</ele>
        <time>2014-06-21T12:32:09Z</time>
      </trkpt>
      <trkpt lat="47.8304" lon="7.08093">
        <ele>363.04</ele>
        <time>2014-06-21T12:32:10Z</time>
      </trkpt>
      <trkpt lat="47.83039" lon="7.08094">
        <ele>365.92</ele>
        <time>2014-06-21T12:32:11Z</time>
      </trkpt>
      <trkpt lat="47.83038" lon="7.08095">
        <ele>364</ele>
        <time>2014-06-21T12:32:12Z</time>
      </trkpt>
      <trkpt lat="47.83037" lon="7.08096">
        <ele>361.11</ele>
        <time>2014-06-21T12:32:13Z</time>
      </trkpt>
      <trkpt lat="47.83035" lon="7.08097">
        <ele>363.04</ele>
        <time>2014-06-21T12:32:15Z</time>
      </trkpt>
      <trkpt lat="47.83028" lon="7.08102">
        <ele>358.71</ele>
        <time>2014-06-21T12:32:19Z</time>
      </trkpt>
      <trkpt lat="47.83026" lon="7.08102">
        <ele>360.63</ele>
        <time>2014-06-21T12:32:20Z</time>
      </trkpt>
      <trkpt lat="47.83025" lon="7.08102">
        <ele>364.48</ele>
        <time>2014-06-21T12:32:21Z</time>
      </trkpt>
      <trkpt lat="47.83023" lon="7.08105">
        <ele>360.15</ele>
        <time>2014-06-21T12:32:24Z</time>
      </trkpt>
      <trkpt lat="47.83022" lon="7.08107">
        <ele>360.15</ele>
        <time>2014-06-21T12:32:25Z</time>
      </trkpt>
      <trkpt lat="47.83021" lon="7.0811">
        <ele>365.92</ele>
        <time>2014-06-21T12:32:26Z</time>
      </trkpt>
      <trkpt lat="47.83021" lon="7.08112">
        <ele>363.52</ele>
        <time>2014-06-21T12:32:27Z</time>
      </trkpt>
      <trkpt lat="47.8302" lon="7.08113">
        <ele>360.63</ele>
        <time>2014-06-21T12:32:28Z</time>
      </trkpt>
      <trkpt lat="47.83019" lon="7.08115">
        <ele>361.11</ele>
        <time>2014-06-21T12:32:29Z</time>
      </trkpt>
      <trkpt lat="47.83019" lon="7.08118">
        <ele>365.44</ele>
        <time>2014-06-21T12:32:31Z</time>
      </trkpt>
      <trkpt lat="47.83019" lon="7.08119">
        <ele>363.52</ele>
        <time>2014-06-21T12:32:32Z</time>
      </trkpt>
      <trkpt lat="47.83019" lon="7.08122">
        <ele>361.59</ele>
        <time>2014-06-21T12:32:34Z</time>
      </trkpt>
      <trkpt lat="47.8302" lon="7.08127">
        <ele>363.04</ele>
        <time>2014-06-21T12:32:37Z</time>
      </trkpt>
      <trkpt lat="47.8302" lon="7.08129">
        <ele>359.67</ele>
        <time>2014-06-21T12:32:38Z</time>
      </trkpt>
      <trkpt lat="47.8302" lon="7.0813">
        <ele>362.07</ele>
        <time>2014-06-21T12:32:39Z</time>
      </trkpt>
      <trkpt lat="47.83021" lon="7.08134">
        <ele>363.52</ele>
        <time>2014-06-21T12:32:41Z</time>
      </trkpt>
      <trkpt lat="47.83022" lon="7.0814">
        <ele>360.15</ele>
        <time>2014-06-21T12:32:44Z</time>
      </trkpt>
      <trkpt lat="47.83023" lon="7.08144">
        <ele>364.96</ele>
        <time>2014-06-21T12:32:46Z</time>
      </trkpt>
      <trkpt lat="47.83023" lon="7.08146">
        <ele>364</ele>
        <time>2014-06-21T12:32:47Z</time>
      </trkpt>
      <trkpt lat="47.83023" lon="7.08149">
        <ele>360.63</ele>
        <time>2014-06-21T12:32:49Z</time>
      </trkpt>
      <trkpt lat="47.83024" lon="7.08153">
        <ele>364.48</ele>
        <time>2014-06-21T12:32:51Z</time>
      </trkpt>
      <trkpt lat="47.83026" lon="7.08161">
        <ele>361.11</ele>
        <time>2014-06-21T12:32:54Z</time>
      </trkpt>
      <trkpt lat="47.83027" lon="7.08165">
        <ele>359.67</ele>
        <time>2014-06-21T12:32:56Z</time>
      </trkpt>
      <trkpt lat="47.83029" lon="7.08168">
        <ele>365.92</ele>
        <time>2014-06-21T12:32:58Z</time>
      </trkpt>
      <trkpt lat="47.83031" lon="7.08177">
        <ele>361.59</ele>
        <time>2014-06-21T12:33:02Z</time>
      </trkpt>
      <trkpt lat="47.83032" lon="7.08183">
        <ele>365.92</ele>
        <time>2014-06-21T12:33:05Z</time>
      </trkpt>
      <trkpt lat="47.83033" lon="7.08185">
        <ele>365.92</ele>
        <time>2014-06-21T12:33:06Z</time>
      </trkpt>
      <trkpt lat="47.83034" lon="7.08188">
        <ele>356.79</ele>
        <time>2014-06-21T12:33:08Z</time>
      </trkpt>
      <trkpt lat="47.83035" lon="7.0819">
        <ele>359.19</ele>
        <time>2014-06-21T12:33:09Z</time>
      </trkpt>
      <trkpt lat="47.83036" lon="7.08194">
        <ele>364.48</ele>
        <time>2014-06-21T12:33:11Z</time>
      </trkpt>
      <trkpt lat="47.83036" lon="7.08197">
        <ele>364.96</ele>
        <time>2014-06-21T12:33:13Z</time>
      </trkpt>
      <trkpt lat="47.83037" lon="7.08199">
        <ele>358.71</ele>
        <time>2014-06-21T12:33:14Z</time>
      </trkpt>
      <trkpt lat="47.83037" lon="7.08201">
        <ele>359.67</ele>
        <time>2014-06-21T12:33:15Z</time>
      </trkpt>
      <trkpt lat="47.83038" lon="7.08202">
        <ele>363.52</ele>
        <time>2014-06-21T12:33:16Z</time>
      </trkpt>
      <trkpt lat="47.83038" lon="7.08206">
        <ele>368.8</ele>
        <time>2014-06-21T12:33:18Z</time>
      </trkpt>
      <trkpt lat="47.83039" lon="7.08208">
        <ele>363.52</ele>
        <time>2014-06-21T12:33:19Z</time>
      </trkpt>
      <trkpt lat="47.83039" lon="7.08209">
        <ele>357.75</ele>
        <time>2014-06-21T12:33:20Z</time>
      </trkpt>
      <trkpt lat="47.83039" lon="7.0821">
        <ele>362.55</ele>
        <time>2014-06-21T12:33:21Z</time>
      </trkpt>
      <trkpt lat="47.83038" lon="7.08214">
        <ele>364.48</ele>
        <time>2014-06-21T12:33:23Z</time>
      </trkpt>
      <trkpt lat="47.83039" lon="7.08231">
        <ele>363.52</ele>
        <time>2014-06-21T12:33:30Z</time>
      </trkpt>
      <trkpt lat="47.8304" lon="7.08241">
        <ele>364.48</ele>
        <time>2014-06-21T12:33:35Z</time>
      </trkpt>
      <trkpt lat="47.83041" lon="7.08247">
        <ele>367.36</ele>
        <time>2014-06-21T12:33:38Z</time>
      </trkpt>
      <trkpt lat="47.83042" lon="7.08253">
        <ele>361.59</ele>
        <time>2014-06-21T12:33:41Z</time>
      </trkpt>
      <trkpt lat="47.83042" lon="7.08257">
        <ele>360.63</ele>
        <time>2014-06-21T12:33:43Z</time>
      </trkpt>
      <trkpt lat="47.83042" lon="7.0826">
        <ele>366.4</ele>
        <time>2014-06-21T12:33:45Z</time>
      </trkpt>
      <trkpt lat="47.83042" lon="7.08262">
        <ele>366.4</ele>
        <time>2014-06-21T12:33:46Z</time>
      </trkpt>
      <trkpt lat="47.83042" lon="7.08266">
        <ele>362.55</ele>
        <time>2014-06-21T12:33:48Z</time>
      </trkpt>
      <trkpt lat="47.83042" lon="7.08271">
        <ele>365.92</ele>
        <time>2014-06-21T12:33:51Z</time>
      </trkpt>
      <trkpt lat="47.83042" lon="7.08272">
        <ele>364.48</ele>
        <time>2014-06-21T12:33:52Z</time>
      </trkpt>
      <trkpt lat="47.83042" lon="7.08277">
        <ele>359.67</ele>
        <time>2014-06-21T12:33:55Z</time>
      </trkpt>
      <trkpt lat="47.83041" lon="7.08279">
        <ele>361.11</ele>
        <time>2014-06-21T12:33:56Z</time>
      </trkpt>
      <trkpt lat="47.83041" lon="7.08282">
        <ele>364</ele>
        <time>2014-06-21T12:33:58Z</time>
      </trkpt>
      <trkpt lat="47.8304" lon="7.08289">
        <ele>359.19</ele>
        <time>2014-06-21T12:34:02Z</time>
      </trkpt>
      <trkpt lat="47.8304" lon="7.0829">
        <ele>362.07</ele>
        <time>2014-06-21T12:34:03Z</time>
      </trkpt>
      <trkpt lat="47.83039" lon="7.08294">
        <ele>362.07</ele>
        <time>2014-06-21T12:34:05Z</time>
      </trkpt>
      <trkpt lat="47.83039" lon="7.08303">
        <ele>361.59</ele>
        <time>2014-06-21T12:34:10Z</time>
      </trkpt>
      <trkpt lat="47.83039" lon="7.08304">
        <ele>363.04</ele>
        <time>2014-06-21T12:34:11Z</time>
      </trkpt>
      <trkpt lat="47.83037" lon="7.08316">
        <ele>366.4</ele>
        <time>2014-06-21T12:34:18Z</time>
      </trkpt>
      <trkpt lat="47.83037" lon="7.0832">
        <ele>367.36</ele>
        <time>2014-06-21T12:34:20Z</time>
      </trkpt>
      <trkpt lat="47.83036" lon="7.08322">
        <ele>364</ele>
        <time>2014-06-21T12:34:21Z</time>
      </trkpt>
      <trkpt lat="47.83036" lon="7.08329">
        <ele>365.92</ele>
        <time>2014-06-21T12:34:25Z</time>
      </trkpt>
      <trkpt lat="47.83033" lon="7.08338">
        <ele>363.04</ele>
        <time>2014-06-21T12:34:30Z</time>
      </trkpt>
      <trkpt lat="47.83033" lon="7.08341">
        <ele>367.84</ele>
        <time>2014-06-21T12:34:32Z</time>
      </trkpt>
      <trkpt lat="47.83032" lon="7.08343">
        <ele>368.32</ele>
        <time>2014-06-21T12:34:33Z</time>
      </trkpt>
      <trkpt lat="47.83032" lon="7.08347">
        <ele>362.55</ele>
        <time>2014-06-21T12:34:35Z</time>
      </trkpt>
      <trkpt lat="47.83031" lon="7.08349">
        <ele>363.52</ele>
        <time>2014-06-21T12:34:36Z</time>
      </trkpt>
      <trkpt lat="47.8303" lon="7.08352">
        <ele>367.84</ele>
        <time>2014-06-21T12:34:38Z</time>
      </trkpt>
      <trkpt lat="47.8303" lon="7.08353">
        <ele>367.84</ele>
        <time>2014-06-21T12:34:39Z</time>
      </trkpt>
      <trkpt lat="47.8303" lon="7.08355">
        <ele>364.48</ele>
        <time>2014-06-21T12:34:40Z</time>
      </trkpt>
      <trkpt lat="47.83029" lon="7.08361">
        <ele>368.8</ele>
        <time>2014-06-21T12:34:43Z</time>
      </trkpt>
      <trkpt lat="47.83029" lon="7.08363">
        <ele>366.4</ele>
        <time>2014-06-21T12:34:44Z</time>
      </trkpt>
      <trkpt lat="47.83029" lon="7.08365">
        <ele>362.55</ele>
        <time>2014-06-21T12:34:45Z</time>
      </trkpt>
      <trkpt lat="47.83028" lon="7.08367">
        <ele>367.84</ele>
        <time>2014-06-21T12:34:46Z</time>
      </trkpt>
      <trkpt lat="47.83027" lon="7.08371">
        <ele>369.28</ele>
        <time>2014-06-21T12:34:48Z</time>
      </trkpt>
      <trkpt lat="47.83027" lon="7.08373">
        <ele>364.96</ele>
        <time>2014-06-21T12:34:49Z</time>
      </trkpt>
      <trkpt lat="47.83026" lon="7.08375">
        <ele>369.28</ele>
        <time>2014-06-21T12:34:51Z</time>
      </trkpt>
      <trkpt lat="47.83023" lon="7.0838">
        <ele>366.4</ele>
        <time>2014-06-21T12:34:55Z</time>
      </trkpt>
      <trkpt lat="47.83023" lon="7.08381">
        <ele>370.73</ele>
        <time>2014-06-21T12:34:56Z</time>
      </trkpt>
      <trkpt lat="47.83022" lon="7.08383">
        <ele>366.4</ele>
        <time>2014-06-21T12:34:57Z</time>
      </trkpt>
      <trkpt lat="47.83021" lon="7.0839">
        <ele>371.69</ele>
        <time>2014-06-21T12:35:01Z</time>
      </trkpt>
      <trkpt lat="47.83021" lon="7.08392">
        <ele>366.88</ele>
        <time>2014-06-21T12:35:02Z</time>
      </trkpt>
      <trkpt lat="47.83021" lon="7.08394">
        <ele>366.88</ele>
        <time>2014-06-21T12:35:03Z</time>
      </trkpt>
      <trkpt lat="47.8302" lon="7.08398">
        <ele>370.24</ele>
        <time>2014-06-21T12:35:05Z</time>
      </trkpt>
      <trkpt lat="47.8302" lon="7.08399">
        <ele>369.28</ele>
        <time>2014-06-21T12:35:06Z</time>
      </trkpt>
      <trkpt lat="47.8302" lon="7.08405">
        <ele>372.65</ele>
        <time>2014-06-21T12:35:09Z</time>
      </trkpt>
      <trkpt lat="47.83019" lon="7.08407">
        <ele>372.17</ele>
        <time>2014-06-21T12:35:10Z</time>
      </trkpt>
      <trkpt lat="47.83019" lon="7.08409">
        <ele>368.8</ele>
        <time>2014-06-21T12:35:11Z</time>
      </trkpt>
      <trkpt lat="47.83018" lon="7.0841">
        <ele>369.28</ele>
        <time>2014-06-21T12:35:12Z</time>
      </trkpt>
      <trkpt lat="47.83017" lon="7.08415">
        <ele>370.73</ele>
        <time>2014-06-21T12:35:14Z</time>
      </trkpt>
      <trkpt lat="47.83018" lon="7.08437">
        <ele>374.09</ele>
        <time>2014-06-21T12:35:26Z</time>
      </trkpt>
      <trkpt lat="47.83018" lon="7.08439">
        <ele>372.17</ele>
        <time>2014-06-21T12:35:27Z</time>
      </trkpt>
      <trkpt lat="47.83019" lon="7.08443">
        <ele>369.76</ele>
        <time>2014-06-21T12:35:29Z</time>
      </trkpt>
      <trkpt lat="47.83019" lon="7.08444">
        <ele>373.13</ele>
        <time>2014-06-21T12:35:30Z</time>
      </trkpt>
      <trkpt lat="47.8302" lon="7.08451">
        <ele>369.28</ele>
        <time>2014-06-21T12:35:34Z</time>
      </trkpt>
      <trkpt lat="47.8302" lon="7.08453">
        <ele>373.61</ele>
        <time>2014-06-21T12:35:35Z</time>
      </trkpt>
      <trkpt lat="47.8302" lon="7.08458">
        <ele>375.53</ele>
        <time>2014-06-21T12:35:38Z</time>
      </trkpt>
      <trkpt lat="47.8302" lon="7.0846">
        <ele>371.69</ele>
        <time>2014-06-21T12:35:39Z</time>
      </trkpt>
      <trkpt lat="47.8302" lon="7.08462">
        <ele>367.36</ele>
        <time>2014-06-21T12:35:40Z</time>
      </trkpt>
      <trkpt lat="47.8302" lon="7.08464">
        <ele>369.28</ele>
        <time>2014-06-21T12:35:41Z</time>
      </trkpt>
      <trkpt lat="47.83021" lon="7.08467">
        <ele>376.49</ele>
        <time>2014-06-21T12:35:43Z</time>
      </trkpt>
      <trkpt lat="47.83022" lon="7.08473">
        <ele>371.69</ele>
        <time>2014-06-21T12:35:46Z</time>
      </trkpt>
      <trkpt lat="47.83022" lon="7.08474">
        <ele>371.69</ele>
        <time>2014-06-21T12:35:47Z</time>
      </trkpt>
      <trkpt lat="47.83023" lon="7.08477">
        <ele>375.53</ele>
        <time>2014-06-21T12:35:49Z</time>
      </trkpt>
      <trkpt lat="47.83025" lon="7.08482">
        <ele>371.21</ele>
        <time>2014-06-21T12:35:52Z</time>
      </trkpt>
      <trkpt lat="47.83027" lon="7.08485">
        <ele>374.57</ele>
        <time>2014-06-21T12:35:54Z</time>
      </trkpt>
      <trkpt lat="47.83034" lon="7.08512">
        <ele>379.86</ele>
        <time>2014-06-21T12:36:09Z</time>
      </trkpt>
      <trkpt lat="47.83035" lon="7.08514">
        <ele>379.38</ele>
        <time>2014-06-21T12:36:10Z</time>
      </trkpt>
      <trkpt lat="47.83035" lon="7.08516">
        <ele>376.01</ele>
        <time>2014-06-21T12:36:11Z</time>
      </trkpt>
      <trkpt lat="47.83036" lon="7.08519">
        <ele>375.53</ele>
        <time>2014-06-21T12:36:13Z</time>
      </trkpt>
      <trkpt lat="47.83037" lon="7.08522">
        <ele>379.38</ele>
        <time>2014-06-21T12:36:15Z</time>
      </trkpt>
      <trkpt lat="47.83037" lon="7.08524">
        <ele>378.42</ele>
        <time>2014-06-21T12:36:16Z</time>
      </trkpt>
      <trkpt lat="47.83038" lon="7.08525">
        <ele>374.57</ele>
        <time>2014-06-21T12:36:17Z</time>
      </trkpt>
      <trkpt lat="47.83039" lon="7.08528">
        <ele>379.38</ele>
        <time>2014-06-21T12:36:19Z</time>
      </trkpt>
      <trkpt lat="47.8304" lon="7.08533">
        <ele>376.49</ele>
        <time>2014-06-21T12:36:22Z</time>
      </trkpt>
      <trkpt lat="47.8304" lon="7.08535">
        <ele>373.13</ele>
        <time>2014-06-21T12:36:23Z</time>
      </trkpt>
      <trkpt lat="47.8304" lon="7.08537">
        <ele>375.53</ele>
        <time>2014-06-21T12:36:24Z</time>
      </trkpt>
      <trkpt lat="47.8304" lon="7.08539">
        <ele>378.9</ele>
        <time>2014-06-21T12:36:25Z</time>
      </trkpt>
      <trkpt lat="47.8304" lon="7.08541">
        <ele>381.3</ele>
        <time>2014-06-21T12:36:26Z</time>
      </trkpt>
      <trkpt lat="47.83042" lon="7.08549">
        <ele>378.9</ele>
        <time>2014-06-21T12:36:31Z</time>
      </trkpt>
      <trkpt lat="47.83042" lon="7.08555">
        <ele>376.97</ele>
        <time>2014-06-21T12:36:34Z</time>
      </trkpt>
      <trkpt lat="47.83043" lon="7.08557">
        <ele>380.34</ele>
        <time>2014-06-21T12:36:35Z</time>
      </trkpt>
      <trkpt lat="47.83043" lon="7.08558">
        <ele>377.45</ele>
        <time>2014-06-21T12:36:36Z</time>
      </trkpt>
      <trkpt lat="47.83043" lon="7.08563">
        <ele>375.53</ele>
        <time>2014-06-21T12:36:39Z</time>
      </trkpt>
      <trkpt lat="47.83043" lon="7.08565">
        <ele>380.34</ele>
        <time>2014-06-21T12:36:40Z</time>
      </trkpt>
      <trkpt lat="47.83044" lon="7.08572">
        <ele>378.42</ele>
        <time>2014-06-21T12:36:44Z</time>
      </trkpt>
      <trkpt lat="47.83045" lon="7.08576">
        <ele>380.82</ele>
        <time>2014-06-21T12:36:46Z</time>
      </trkpt>
      <trkpt lat="47.83045" lon="7.08579">
        <ele>376.01</ele>
        <time>2014-06-21T12:36:48Z</time>
      </trkpt>
      <trkpt lat="47.83045" lon="7.08581">
        <ele>376.01</ele>
        <time>2014-06-21T12:36:49Z</time>
      </trkpt>
      <trkpt lat="47.83046" lon="7.08583">
        <ele>381.78</ele>
        <time>2014-06-21T12:36:50Z</time>
      </trkpt>
      <trkpt lat="47.83046" lon="7.08585">
        <ele>378.42</ele>
        <time>2014-06-21T12:36:51Z</time>
      </trkpt>
      <trkpt lat="47.83047" lon="7.08591">
        <ele>383.22</ele>
        <time>2014-06-21T12:36:55Z</time>
      </trkpt>
      <trkpt lat="47.83047" lon="7.08593">
        <ele>378.9</ele>
        <time>2014-06-21T12:36:56Z</time>
      </trkpt>
      <trkpt lat="47.83048" lon="7.08597">
        <ele>378.42</ele>
        <time>2014-06-21T12:36:58Z</time>
      </trkpt>
      <trkpt lat="47.83049" lon="7.086">
        <ele>382.74</ele>
        <time>2014-06-21T12:37:00Z</time>
      </trkpt>
      <trkpt lat="47.83049" lon="7.08602">
        <ele>381.78</ele>
        <time>2014-06-21T12:37:01Z</time>
      </trkpt>
      <trkpt lat="47.83049" lon="7.08604">
        <ele>376.97</ele>
        <time>2014-06-21T12:37:02Z</time>
      </trkpt>
      <trkpt lat="47.83049" lon="7.08605">
        <ele>382.26</ele>
        <time>2014-06-21T12:37:03Z</time>
      </trkpt>
      <trkpt lat="47.8305" lon="7.08607">
        <ele>385.15</ele>
        <time>2014-06-21T12:37:04Z</time>
      </trkpt>
      <trkpt lat="47.8305" lon="7.08608">
        <ele>384.18</ele>
        <time>2014-06-21T12:37:05Z</time>
      </trkpt>
      <trkpt lat="47.8305" lon="7.08609">
        <ele>377.94</ele>
        <time>2014-06-21T12:37:06Z</time>
      </trkpt>
      <trkpt lat="47.8305" lon="7.08611">
        <ele>378.9</ele>
        <time>2014-06-21T12:37:07Z</time>
      </trkpt>
      <trkpt lat="47.8305" lon="7.08615">
        <ele>385.63</ele>
        <time>2014-06-21T12:37:09Z</time>
      </trkpt>
      <trkpt lat="47.83051" lon="7.08617">
        <ele>382.26</ele>
        <time>2014-06-21T12:37:10Z</time>
      </trkpt>
      <trkpt lat="47.83051" lon="7.08619">
        <ele>378.9</ele>
        <time>2014-06-21T12:37:11Z</time>
      </trkpt>
      <trkpt lat="47.83051" lon="7.08621">
        <ele>380.34</ele>
        <time>2014-06-21T12:37:12Z</time>
      </trkpt>
      <trkpt lat="47.83051" lon="7.08623">
        <ele>383.22</ele>
        <time>2014-06-21T12:37:13Z</time>
      </trkpt>
      <trkpt lat="47.83051" lon="7.08624">
        <ele>386.59</ele>
        <time>2014-06-21T12:37:14Z</time>
      </trkpt>
      <trkpt lat="47.83052" lon="7.08625">
        <ele>383.22</ele>
        <time>2014-06-21T12:37:15Z</time>
      </trkpt>
      <trkpt lat="47.83052" lon="7.08627">
        <ele>379.38</ele>
        <time>2014-06-21T12:37:16Z</time>
      </trkpt>
      <trkpt lat="47.83052" lon="7.08629">
        <ele>380.82</ele>
        <time>2014-06-21T12:37:17Z</time>
      </trkpt>
      <trkpt lat="47.83053" lon="7.08631">
        <ele>386.11</ele>
        <time>2014-06-21T12:37:18Z</time>
      </trkpt>
      <trkpt lat="47.83054" lon="7.08636">
        <ele>380.34</ele>
        <time>2014-06-21T12:37:21Z</time>
      </trkpt>
      <trkpt lat="47.83054" lon="7.08638">
        <ele>381.78</ele>
        <time>2014-06-21T12:37:22Z</time>
      </trkpt>
      <trkpt lat="47.83054" lon="7.08641">
        <ele>387.55</ele>
        <time>2014-06-21T12:37:24Z</time>
      </trkpt>
      <trkpt lat="47.83054" lon="7.08643">
        <ele>385.63</ele>
        <time>2014-06-21T12:37:25Z</time>
      </trkpt>
      <trkpt lat="47.83054" lon="7.08647">
        <ele>380.82</ele>
        <time>2014-06-21T12:37:27Z</time>
      </trkpt>
      <trkpt lat="47.83055" lon="7.08651">
        <ele>388.03</ele>
        <time>2014-06-21T12:37:29Z</time>
      </trkpt>
      <trkpt lat="47.83055" lon="7.08653">
        <ele>387.55</ele>
        <time>2014-06-21T12:37:30Z</time>
      </trkpt>
      <trkpt lat="47.83055" lon="7.08656">
        <ele>380.82</ele>
        <time>2014-06-21T12:37:32Z</time>
      </trkpt>
      <trkpt lat="47.83055" lon="7.08657">
        <ele>386.59</ele>
        <time>2014-06-21T12:37:33Z</time>
      </trkpt>
      <trkpt lat="47.83055" lon="7.0866">
        <ele>389.95</ele>
        <time>2014-06-21T12:37:35Z</time>
      </trkpt>
      <trkpt lat="47.83056" lon="7.08662">
        <ele>385.15</ele>
        <time>2014-06-21T12:37:36Z</time>
      </trkpt>
      <trkpt lat="47.83056" lon="7.08663">
        <ele>381.78</ele>
        <time>2014-06-21T12:37:37Z</time>
      </trkpt>
      <trkpt lat="47.83056" lon="7.08665">
        <ele>385.63</ele>
        <time>2014-06-21T12:37:38Z</time>
      </trkpt>
      <trkpt lat="47.83056" lon="7.08667">
        <ele>389.47</ele>
        <time>2014-06-21T12:37:39Z</time>
      </trkpt>
      <trkpt lat="47.83057" lon="7.08673">
        <ele>382.74</ele>
        <time>2014-06-21T12:37:42Z</time>
      </trkpt>
      <trkpt lat="47.83058" lon="7.08675">
        <ele>384.18</ele>
        <time>2014-06-21T12:37:43Z</time>
      </trkpt>
      <trkpt lat="47.83059" lon="7.08676">
        <ele>390.43</ele>
        <time>2014-06-21T12:37:44Z</time>
      </trkpt>
      <trkpt lat="47.83059" lon="7.08682">
        <ele>386.11</ele>
        <time>2014-06-21T12:37:47Z</time>
      </trkpt>
      <trkpt lat="47.8306" lon="7.08687">
        <ele>390.91</ele>
        <time>2014-06-21T12:37:50Z</time>
      </trkpt>
      <trkpt lat="47.8306" lon="7.08691">
        <ele>383.7</ele>
        <time>2014-06-21T12:37:53Z</time>
      </trkpt>
      <trkpt lat="47.8306" lon="7.08693">
        <ele>386.11</ele>
        <time>2014-06-21T12:37:54Z</time>
      </trkpt>
      <trkpt lat="47.83061" lon="7.087">
        <ele>386.11</ele>
        <time>2014-06-21T12:37:58Z</time>
      </trkpt>
      <trkpt lat="47.83061" lon="7.08702">
        <ele>388.03</ele>
        <time>2014-06-21T12:37:59Z</time>
      </trkpt>
      <trkpt lat="47.83061" lon="7.08704">
        <ele>392.36</ele>
        <time>2014-06-21T12:38:00Z</time>
      </trkpt>
      <trkpt lat="47.83061" lon="7.08707">
        <ele>388.03</ele>
        <time>2014-06-21T12:38:02Z</time>
      </trkpt>
      <trkpt lat="47.83062" lon="7.08712">
        <ele>393.32</ele>
        <time>2014-06-21T12:38:05Z</time>
      </trkpt>
      <trkpt lat="47.83062" lon="7.08713">
        <ele>390.43</ele>
        <time>2014-06-21T12:38:06Z</time>
      </trkpt>
      <trkpt lat="47.83061" lon="7.08716">
        <ele>389.47</ele>
        <time>2014-06-21T12:38:08Z</time>
      </trkpt>
      <trkpt lat="47.8306" lon="7.08719">
        <ele>392.36</ele>
        <time>2014-06-21T12:38:10Z</time>
      </trkpt>
      <trkpt lat="47.8306" lon="7.0872">
        <ele>388.99</ele>
        <time>2014-06-21T12:38:11Z</time>
      </trkpt>
      <trkpt lat="47.8306" lon="7.08721">
        <ele>392.36</ele>
        <time>2014-06-21T12:38:12Z</time>
      </trkpt>
      <trkpt lat="47.8306" lon="7.08726">
        <ele>388.99</ele>
        <time>2014-06-21T12:38:15Z</time>
      </trkpt>
      <trkpt lat="47.8306" lon="7.08729">
        <ele>392.84</ele>
        <time>2014-06-21T12:38:17Z</time>
      </trkpt>
      <trkpt lat="47.8306" lon="7.08732">
        <ele>388.51</ele>
        <time>2014-06-21T12:38:19Z</time>
      </trkpt>
      <trkpt lat="47.8306" lon="7.08733">
        <ele>390.91</ele>
        <time>2014-06-21T12:38:20Z</time>
      </trkpt>
      <trkpt lat="47.83059" lon="7.08737">
        <ele>395.72</ele>
        <time>2014-06-21T12:38:22Z</time>
      </trkpt>
      <trkpt lat="47.8306" lon="7.08739">
        <ele>391.87</ele>
        <time>2014-06-21T12:38:23Z</time>
      </trkpt>
      <trkpt lat="47.8306" lon="7.0874">
        <ele>388.03</ele>
        <time>2014-06-21T12:38:24Z</time>
      </trkpt>
      <trkpt lat="47.8306" lon="7.08743">
        <ele>390.91</ele>
        <time>2014-06-21T12:38:25Z</time>
      </trkpt>
      <trkpt lat="47.8306" lon="7.08745">
        <ele>394.28</ele>
        <time>2014-06-21T12:38:26Z</time>
      </trkpt>
      <trkpt lat="47.8306" lon="7.08753">
        <ele>389.95</ele>
        <time>2014-06-21T12:38:30Z</time>
      </trkpt>
      <trkpt lat="47.8306" lon="7.08759">
        <ele>396.68</ele>
        <time>2014-06-21T12:38:33Z</time>
      </trkpt>
      <trkpt lat="47.8306" lon="7.0876">
        <ele>393.32</ele>
        <time>2014-06-21T12:38:34Z</time>
      </trkpt>
      <trkpt lat="47.8306" lon="7.08762">
        <ele>390.43</ele>
        <time>2014-06-21T12:38:35Z</time>
      </trkpt>
      <trkpt lat="47.8306" lon="7.08763">
        <ele>391.39</ele>
        <time>2014-06-21T12:38:36Z</time>
      </trkpt>
      <trkpt lat="47.8306" lon="7.08766">
        <ele>397.64</ele>
        <time>2014-06-21T12:38:38Z</time>
      </trkpt>
      <trkpt lat="47.83059" lon="7.08768">
        <ele>394.76</ele>
        <time>2014-06-21T12:38:39Z</time>
      </trkpt>
      <trkpt lat="47.83059" lon="7.08771">
        <ele>390.91</ele>
        <time>2014-06-21T12:38:41Z</time>
      </trkpt>
      <trkpt lat="47.83059" lon="7.08773">
        <ele>397.16</ele>
        <time>2014-06-21T12:38:42Z</time>
      </trkpt>
      <trkpt lat="47.83059" lon="7.08774">
        <ele>396.2</ele>
        <time>2014-06-21T12:38:43Z</time>
      </trkpt>
      <trkpt lat="47.8306" lon="7.08778">
        <ele>391.39</ele>
        <time>2014-06-21T12:38:45Z</time>
      </trkpt>
      <trkpt lat="47.8306" lon="7.08779">
        <ele>391.87</ele>
        <time>2014-06-21T12:38:46Z</time>
      </trkpt>
      <trkpt lat="47.8306" lon="7.08781">
        <ele>396.68</ele>
        <time>2014-06-21T12:38:47Z</time>
      </trkpt>
      <trkpt lat="47.8306" lon="7.08783">
        <ele>395.72</ele>
        <time>2014-06-21T12:38:48Z</time>
      </trkpt>
      <trkpt lat="47.8306" lon="7.08788">
        <ele>391.87</ele>
        <time>2014-06-21T12:38:51Z</time>
      </trkpt>
      <trkpt lat="47.83059" lon="7.08793">
        <ele>393.8</ele>
        <time>2014-06-21T12:38:54Z</time>
      </trkpt>
      <trkpt lat="47.83059" lon="7.08795">
        <ele>398.12</ele>
        <time>2014-06-21T12:38:55Z</time>
      </trkpt>
      <trkpt lat="47.83058" lon="7.08796">
        <ele>398.12</ele>
        <time>2014-06-21T12:38:56Z</time>
      </trkpt>
      <trkpt lat="47.83058" lon="7.088">
        <ele>392.36</ele>
        <time>2014-06-21T12:38:58Z</time>
      </trkpt>
      <trkpt lat="47.83058" lon="7.08803">
        <ele>396.2</ele>
        <time>2014-06-21T12:38:59Z</time>
      </trkpt>
      <trkpt lat="47.83058" lon="7.08809">
        <ele>400.05</ele>
        <time>2014-06-21T12:39:03Z</time>
      </trkpt>
      <trkpt lat="47.83058" lon="7.08811">
        <ele>399.57</ele>
        <time>2014-06-21T12:39:04Z</time>
      </trkpt>
      <trkpt lat="47.83059" lon="7.08817">
        <ele>394.28</ele>
        <time>2014-06-21T12:39:07Z</time>
      </trkpt>
      <trkpt lat="47.83059" lon="7.08819">
        <ele>396.2</ele>
        <time>2014-06-21T12:39:08Z</time>
      </trkpt>
      <trkpt lat="47.83059" lon="7.08821">
        <ele>401.97</ele>
        <time>2014-06-21T12:39:09Z</time>
      </trkpt>
      <trkpt lat="47.83059" lon="7.08827">
        <ele>397.64</ele>
        <time>2014-06-21T12:39:12Z</time>
      </trkpt>
      <trkpt lat="47.83058" lon="7.08838">
        <ele>399.57</ele>
        <time>2014-06-21T12:39:18Z</time>
      </trkpt>
      <trkpt lat="47.83059" lon="7.0884">
        <ele>399.57</ele>
        <time>2014-06-21T12:39:19Z</time>
      </trkpt>
      <trkpt lat="47.8306" lon="7.08844">
        <ele>394.76</ele>
        <time>2014-06-21T12:39:21Z</time>
      </trkpt>
      <trkpt lat="47.8306" lon="7.08846">
        <ele>398.12</ele>
        <time>2014-06-21T12:39:22Z</time>
      </trkpt>
      <trkpt lat="47.83061" lon="7.0885">
        <ele>401.97</ele>
        <time>2014-06-21T12:39:24Z</time>
      </trkpt>
      <trkpt lat="47.83061" lon="7.08856">
        <ele>396.2</ele>
        <time>2014-06-21T12:39:27Z</time>
      </trkpt>
      <trkpt lat="47.83061" lon="7.08858">
        <ele>400.53</ele>
        <time>2014-06-21T12:39:28Z</time>
      </trkpt>
      <trkpt lat="47.83061" lon="7.08862">
        <ele>403.41</ele>
        <time>2014-06-21T12:39:30Z</time>
      </trkpt>
      <trkpt lat="47.83062" lon="7.08865">
        <ele>401.97</ele>
        <time>2014-06-21T12:39:31Z</time>
      </trkpt>
      <trkpt lat="47.83061" lon="7.08866">
        <ele>397.16</ele>
        <time>2014-06-21T12:39:32Z</time>
      </trkpt>
      <trkpt lat="47.83062" lon="7.08868">
        <ele>397.16</ele>
        <time>2014-06-21T12:39:33Z</time>
      </trkpt>
      <trkpt lat="47.83061" lon="7.0887">
        <ele>402.93</ele>
        <time>2014-06-21T12:39:34Z</time>
      </trkpt>
      <trkpt lat="47.83061" lon="7.08872">
        <ele>402.93</ele>
        <time>2014-06-21T12:39:35Z</time>
      </trkpt>
      <trkpt lat="47.83061" lon="7.08874">
        <ele>406.29</ele>
        <time>2014-06-21T12:39:36Z</time>
      </trkpt>
      <trkpt lat="47.8306" lon="7.08876">
        <ele>401.49</ele>
        <time>2014-06-21T12:39:37Z</time>
      </trkpt>
      <trkpt lat="47.83061" lon="7.0888">
        <ele>399.08</ele>
        <time>2014-06-21T12:39:39Z</time>
      </trkpt>
      <trkpt lat="47.83061" lon="7.08881">
        <ele>403.89</ele>
        <time>2014-06-21T12:39:40Z</time>
      </trkpt>
      <trkpt lat="47.83061" lon="7.08884">
        <ele>400.05</ele>
        <time>2014-06-21T12:39:42Z</time>
      </trkpt>
      <trkpt lat="47.83061" lon="7.08889">
        <ele>404.85</ele>
        <time>2014-06-21T12:39:45Z</time>
      </trkpt>
      <trkpt lat="47.83062" lon="7.0889">
        <ele>403.41</ele>
        <time>2014-06-21T12:39:46Z</time>
      </trkpt>
      <trkpt lat="47.83062" lon="7.08893">
        <ele>401.49</ele>
        <time>2014-06-21T12:39:48Z</time>
      </trkpt>
      <trkpt lat="47.83062" lon="7.08897">
        <ele>405.81</ele>
        <time>2014-06-21T12:39:50Z</time>
      </trkpt>
      <trkpt lat="47.83062" lon="7.089">
        <ele>399.57</ele>
        <time>2014-06-21T12:39:52Z</time>
      </trkpt>
      <trkpt lat="47.83062" lon="7.08902">
        <ele>406.29</ele>
        <time>2014-06-21T12:39:53Z</time>
      </trkpt>
      <trkpt lat="47.83062" lon="7.08904">
        <ele>401.49</ele>
        <time>2014-06-21T12:39:54Z</time>
      </trkpt>
      <trkpt lat="47.83062" lon="7.08906">
        <ele>405.33</ele>
        <time>2014-06-21T12:39:55Z</time>
      </trkpt>
      <trkpt lat="47.83063" lon="7.08908">
        <ele>401.01</ele>
        <time>2014-06-21T12:39:56Z</time>
      </trkpt>
      <trkpt lat="47.83063" lon="7.08911">
        <ele>404.85</ele>
        <time>2014-06-21T12:39:58Z</time>
      </trkpt>
      <trkpt lat="47.83063" lon="7.08913">
        <ele>401.49</ele>
        <time>2014-06-21T12:40:01Z</time>
      </trkpt>
      <trkpt lat="47.83062" lon="7.08915">
        <ele>409.18</ele>
        <time>2014-06-21T12:40:03Z</time>
      </trkpt>
      <trkpt lat="47.83061" lon="7.08916">
        <ele>404.37</ele>
        <time>2014-06-21T12:40:04Z</time>
      </trkpt>
      <trkpt lat="47.8306" lon="7.08921">
        <ele>407.74</ele>
        <time>2014-06-21T12:40:08Z</time>
      </trkpt>
      <trkpt lat="47.8306" lon="7.08922">
        <ele>402.45</ele>
        <time>2014-06-21T12:40:09Z</time>
      </trkpt>
      <trkpt lat="47.8306" lon="7.08924">
        <ele>401.97</ele>
        <time>2014-06-21T12:40:10Z</time>
      </trkpt>
      <trkpt lat="47.8306" lon="7.08926">
        <ele>406.77</ele>
        <time>2014-06-21T12:40:12Z</time>
      </trkpt>
      <trkpt lat="47.8306" lon="7.0893">
        <ele>402.45</ele>
        <time>2014-06-21T12:40:14Z</time>
      </trkpt>
      <trkpt lat="47.83061" lon="7.08937">
        <ele>408.7</ele>
        <time>2014-06-21T12:40:17Z</time>
      </trkpt>
      <trkpt lat="47.83063" lon="7.0894">
        <ele>406.29</ele>
        <time>2014-06-21T12:40:18Z</time>
      </trkpt>
      <trkpt lat="47.83063" lon="7.08941">
        <ele>402.45</ele>
        <time>2014-06-21T12:40:19Z</time>
      </trkpt>
      <trkpt lat="47.83064" lon="7.08942">
        <ele>404.37</ele>
        <time>2014-06-21T12:40:20Z</time>
      </trkpt>
      <trkpt lat="47.83065" lon="7.08946">
        <ele>411.1</ele>
        <time>2014-06-21T12:40:22Z</time>
      </trkpt>
      <trkpt lat="47.83065" lon="7.08948">
        <ele>406.29</ele>
        <time>2014-06-21T12:40:23Z</time>
      </trkpt>
      <trkpt lat="47.83064" lon="7.08953">
        <ele>402.45</ele>
        <time>2014-06-21T12:40:25Z</time>
      </trkpt>
      <trkpt lat="47.83064" lon="7.08955">
        <ele>408.22</ele>
        <time>2014-06-21T12:40:26Z</time>
      </trkpt>
      <trkpt lat="47.83063" lon="7.08956">
        <ele>408.22</ele>
        <time>2014-06-21T12:40:27Z</time>
      </trkpt>
      <trkpt lat="47.83062" lon="7.0896">
        <ele>402.45</ele>
        <time>2014-06-21T12:40:29Z</time>
      </trkpt>
      <trkpt lat="47.83062" lon="7.08961">
        <ele>403.89</ele>
        <time>2014-06-21T12:40:30Z</time>
      </trkpt>
      <trkpt lat="47.83061" lon="7.08963">
        <ele>411.58</ele>
        <time>2014-06-21T12:40:32Z</time>
      </trkpt>
      <trkpt lat="47.83061" lon="7.08965">
        <ele>410.14</ele>
        <time>2014-06-21T12:40:33Z</time>
      </trkpt>
      <trkpt lat="47.8306" lon="7.08968">
        <ele>405.33</ele>
        <time>2014-06-21T12:40:35Z</time>
      </trkpt>
      <trkpt lat="47.83059" lon="7.08974">
        <ele>409.18</ele>
        <time>2014-06-21T12:40:38Z</time>
      </trkpt>
      <trkpt lat="47.83059" lon="7.0898">
        <ele>404.37</ele>
        <time>2014-06-21T12:40:42Z</time>
      </trkpt>
      <trkpt lat="47.83058" lon="7.08981">
        <ele>406.29</ele>
        <time>2014-06-21T12:40:43Z</time>
      </trkpt>
      <trkpt lat="47.83058" lon="7.08983">
        <ele>410.14</ele>
        <time>2014-06-21T12:40:45Z</time>
      </trkpt>
      <trkpt lat="47.83056" lon="7.08987">
        <ele>406.77</ele>
        <time>2014-06-21T12:40:48Z</time>
      </trkpt>
      <trkpt lat="47.83055" lon="7.08988">
        <ele>410.62</ele>
        <time>2014-06-21T12:40:49Z</time>
      </trkpt>
      <trkpt lat="47.83055" lon="7.08989">
        <ele>406.77</ele>
        <time>2014-06-21T12:40:50Z</time>
      </trkpt>
      <trkpt lat="47.83055" lon="7.0899">
        <ele>411.58</ele>
        <time>2014-06-21T12:40:51Z</time>
      </trkpt>
      <trkpt lat="47.83054" lon="7.08992">
        <ele>407.26</ele>
        <time>2014-06-21T12:40:53Z</time>
      </trkpt>
      <trkpt lat="47.83053" lon="7.08996">
        <ele>410.62</ele>
        <time>2014-06-21T12:40:56Z</time>
      </trkpt>
      <trkpt lat="47.83053" lon="7.08998">
        <ele>413.5</ele>
        <time>2014-06-21T12:40:58Z</time>
      </trkpt>
      <trkpt lat="47.83053" lon="7.08999">
        <ele>407.26</ele>
        <time>2014-06-21T12:40:59Z</time>
      </trkpt>
      <trkpt lat="47.83053" lon="7.09">
        <ele>412.54</ele>
        <time>2014-06-21T12:41:00Z</time>
      </trkpt>
      <trkpt lat="47.83053" lon="7.09007">
        <ele>415.91</ele>
        <time>2014-06-21T12:41:04Z</time>
      </trkpt>
      <trkpt lat="47.83053" lon="7.09009">
        <ele>411.58</ele>
        <time>2014-06-21T12:41:05Z</time>
      </trkpt>
      <trkpt lat="47.83053" lon="7.09011">
        <ele>413.02</ele>
        <time>2014-06-21T12:41:06Z</time>
      </trkpt>
      <trkpt lat="47.83052" lon="7.09012">
        <ele>409.66</ele>
        <time>2014-06-21T12:41:07Z</time>
      </trkpt>
      <trkpt lat="47.83052" lon="7.09016">
        <ele>417.35</ele>
        <time>2014-06-21T12:41:09Z</time>
      </trkpt>
      <trkpt lat="47.83052" lon="7.09017">
        <ele>414.47</ele>
        <time>2014-06-21T12:41:10Z</time>
      </trkpt>
      <trkpt lat="47.83053" lon="7.0902">
        <ele>417.35</ele>
        <time>2014-06-21T12:41:11Z</time>
      </trkpt>
      <trkpt lat="47.83053" lon="7.09024">
        <ele>410.14</ele>
        <time>2014-06-21T12:41:12Z</time>
      </trkpt>
      <trkpt lat="47.83054" lon="7.09027">
        <ele>413.5</ele>
        <time>2014-06-21T12:41:13Z</time>
      </trkpt>
      <trkpt lat="47.83057" lon="7.0904">
        <ele>416.39</ele>
        <time>2014-06-21T12:41:19Z</time>
      </trkpt>
      <trkpt lat="47.83057" lon="7.09041">
        <ele>411.1</ele>
        <time>2014-06-21T12:41:20Z</time>
      </trkpt>
      <trkpt lat="47.83057" lon="7.09043">
        <ele>414.47</ele>
        <time>2014-06-21T12:41:21Z</time>
      </trkpt>
      <trkpt lat="47.83057" lon="7.09045">
        <ele>418.31</ele>
        <time>2014-06-21T12:41:23Z</time>
      </trkpt>
      <trkpt lat="47.83057" lon="7.09047">
        <ele>411.58</ele>
        <time>2014-06-21T12:41:24Z</time>
      </trkpt>
      <trkpt lat="47.83057" lon="7.09049">
        <ele>416.87</ele>
        <time>2014-06-21T12:41:26Z</time>
      </trkpt>
      <trkpt lat="47.83057" lon="7.0905">
        <ele>420.71</ele>
        <time>2014-06-21T12:41:28Z</time>
      </trkpt>
      <trkpt lat="47.83058" lon="7.09051">
        <ele>413.5</ele>
        <time>2014-06-21T12:41:29Z</time>
      </trkpt>
      <trkpt lat="47.83058" lon="7.09052">
        <ele>420.71</ele>
        <time>2014-06-21T12:41:32Z</time>
      </trkpt>
      <trkpt lat="47.83059" lon="7.09053">
        <ele>417.83</ele>
        <time>2014-06-21T12:41:33Z</time>
      </trkpt>
      <trkpt lat="47.83059" lon="7.09053">
        <ele>413.98</ele>
        <time>2014-06-21T12:41:34Z</time>
      </trkpt>
      <trkpt lat="47.83059" lon="7.09053">
        <ele>414.47</ele>
        <time>2014-06-21T12:41:35Z</time>
      </trkpt>
      <trkpt lat="47.8306" lon="7.09055">
        <ele>419.75</ele>
        <time>2014-06-21T12:41:36Z</time>
      </trkpt>
      <trkpt lat="47.83055" lon="7.09057">
        <ele>413.5</ele>
        <time>2014-06-21T12:41:40Z</time>
      </trkpt>
      <trkpt lat="47.83053" lon="7.09056">
        <ele>411.1</ele>
        <time>2014-06-21T12:41:42Z</time>
      </trkpt>
      <trkpt lat="47.83051" lon="7.09055">
        <ele>414.47</ele>
        <time>2014-06-21T12:41:44Z</time>
      </trkpt>
      <trkpt lat="47.83051" lon="7.09055">
        <ele>419.75</ele>
        <time>2014-06-21T12:41:45Z</time>
      </trkpt>
      <trkpt lat="47.8305" lon="7.09054">
        <ele>418.79</ele>
        <time>2014-06-21T12:41:46Z</time>
      </trkpt>
      <trkpt lat="47.83048" lon="7.09052">
        <ele>417.83</ele>
        <time>2014-06-21T12:41:48Z</time>
      </trkpt>
      <trkpt lat="47.83046" lon="7.09049">
        <ele>421.19</ele>
        <time>2014-06-21T12:41:51Z</time>
      </trkpt>
      <trkpt lat="47.83045" lon="7.09047">
        <ele>417.35</ele>
        <time>2014-06-21T12:41:53Z</time>
      </trkpt>
      <trkpt lat="47.83044" lon="7.09046">
        <ele>417.83</ele>
        <time>2014-06-21T12:41:54Z</time>
      </trkpt>
      <trkpt lat="47.83042" lon="7.09042">
        <ele>421.68</ele>
        <time>2014-06-21T12:41:58Z</time>
      </trkpt>
      <trkpt lat="47.83041" lon="7.0904">
        <ele>421.68</ele>
        <time>2014-06-21T12:41:59Z</time>
      </trkpt>
      <trkpt lat="47.83038" lon="7.09035">
        <ele>418.31</ele>
        <time>2014-06-21T12:42:03Z</time>
      </trkpt>
      <trkpt lat="47.83034" lon="7.09033">
        <ele>414.47</ele>
        <time>2014-06-21T12:42:05Z</time>
      </trkpt>
      <trkpt lat="47.83032" lon="7.09031">
        <ele>419.27</ele>
        <time>2014-06-21T12:42:06Z</time>
      </trkpt>
      <trkpt lat="47.83031" lon="7.0903">
        <ele>419.27</ele>
        <time>2014-06-21T12:42:07Z</time>
      </trkpt>
      <trkpt lat="47.83029" lon="7.09028">
        <ele>420.71</ele>
        <time>2014-06-21T12:42:10Z</time>
      </trkpt>
      <trkpt lat="47.83026" lon="7.09025">
        <ele>420.23</ele>
        <time>2014-06-21T12:42:15Z</time>
      </trkpt>
      <trkpt lat="47.83025" lon="7.09023">
        <ele>415.91</ele>
        <time>2014-06-21T12:42:17Z</time>
      </trkpt>
      <trkpt lat="47.83024" lon="7.09021">
        <ele>420.71</ele>
        <time>2014-06-21T12:42:20Z</time>
      </trkpt>
      <trkpt lat="47.83025" lon="7.09019">
        <ele>421.68</ele>
        <time>2014-06-21T12:42:22Z</time>
      </trkpt>
      <trkpt lat="47.83025" lon="7.09014">
        <ele>416.87</ele>
        <time>2014-06-21T12:42:25Z</time>
      </trkpt>
      <trkpt lat="47.83025" lon="7.09011">
        <ele>416.87</ele>
        <time>2014-06-21T12:42:26Z</time>
      </trkpt>
      <trkpt lat="47.83025" lon="7.09009">
        <ele>419.75</ele>
        <time>2014-06-21T12:42:27Z</time>
      </trkpt>
      <trkpt lat="47.83024" lon="7.09008">
        <ele>419.27</ele>
        <time>2014-06-21T12:42:28Z</time>
      </trkpt>
      <trkpt lat="47.83024" lon="7.09008">
        <ele>424.08</ele>
        <time>2014-06-21T12:42:30Z</time>
      </trkpt>
      <trkpt lat="47.83024" lon="7.09007">
        <ele>423.6</ele>
        <time>2014-06-21T12:42:31Z</time>
      </trkpt>
      <trkpt lat="47.83023" lon="7.09005">
        <ele>421.68</ele>
        <time>2014-06-21T12:42:33Z</time>
      </trkpt>
      <trkpt lat="47.83024" lon="7.09001">
        <ele>424.56</ele>
        <time>2014-06-21T12:42:37Z</time>
      </trkpt>
      <trkpt lat="47.83025" lon="7.08998">
        <ele>421.19</ele>
        <time>2014-06-21T12:42:40Z</time>
      </trkpt>
      <trkpt lat="47.83025" lon="7.08996">
        <ele>425.04</ele>
        <time>2014-06-21T12:42:42Z</time>
      </trkpt>
      <trkpt lat="47.83026" lon="7.08994">
        <ele>424.56</ele>
        <time>2014-06-21T12:42:44Z</time>
      </trkpt>
      <trkpt lat="47.83028" lon="7.08992">
        <ele>420.71</ele>
        <time>2014-06-21T12:42:46Z</time>
      </trkpt>
      <trkpt lat="47.83029" lon="7.08991">
        <ele>423.12</ele>
        <time>2014-06-21T12:42:47Z</time>
      </trkpt>
      <trkpt lat="47.8303" lon="7.08988">
        <ele>427.92</ele>
        <time>2014-06-21T12:42:49Z</time>
      </trkpt>
      <trkpt lat="47.8303" lon="7.08986">
        <ele>426.96</ele>
        <time>2014-06-21T12:42:50Z</time>
      </trkpt>
      <trkpt lat="47.83032" lon="7.0898">
        <ele>423.12</ele>
        <time>2014-06-21T12:42:53Z</time>
      </trkpt>
      <trkpt lat="47.83032" lon="7.08978">
        <ele>424.56</ele>
        <time>2014-06-21T12:42:54Z</time>
      </trkpt>
      <trkpt lat="47.83033" lon="7.08967">
        <ele>428.89</ele>
        <time>2014-06-21T12:42:58Z</time>
      </trkpt>
      <trkpt lat="47.83032" lon="7.08966">
        <ele>427.44</ele>
        <time>2014-06-21T12:42:59Z</time>
      </trkpt>
      <trkpt lat="47.83028" lon="7.08966">
        <ele>422.64</ele>
        <time>2014-06-21T12:43:01Z</time>
      </trkpt>
      <trkpt lat="47.83027" lon="7.08965">
        <ele>419.27</ele>
        <time>2014-06-21T12:43:02Z</time>
      </trkpt>
      <trkpt lat="47.83023" lon="7.08958">
        <ele>427.44</ele>
        <time>2014-06-21T12:43:05Z</time>
      </trkpt>
      <trkpt lat="47.8302" lon="7.08954">
        <ele>423.6</ele>
        <time>2014-06-21T12:43:08Z</time>
      </trkpt>
      <trkpt lat="47.83019" lon="7.08953">
        <ele>420.23</ele>
        <time>2014-06-21T12:43:09Z</time>
      </trkpt>
      <trkpt lat="47.83017" lon="7.08949">
        <ele>425.52</ele>
        <time>2014-06-21T12:43:12Z</time>
      </trkpt>
      <trkpt lat="47.83015" lon="7.08946">
        <ele>427.44</ele>
        <time>2014-06-21T12:43:14Z</time>
      </trkpt>
      <trkpt lat="47.83008" lon="7.08929">
        <ele>430.81</ele>
        <time>2014-06-21T12:43:23Z</time>
      </trkpt>
      <trkpt lat="47.83003" lon="7.08919">
        <ele>427.44</ele>
        <time>2014-06-21T12:43:30Z</time>
      </trkpt>
      <trkpt lat="47.83002" lon="7.08917">
        <ele>429.37</ele>
        <time>2014-06-21T12:43:31Z</time>
      </trkpt>
      <trkpt lat="47.83" lon="7.08909">
        <ele>429.85</ele>
        <time>2014-06-21T12:43:36Z</time>
      </trkpt>
      <trkpt lat="47.82999" lon="7.08893">
        <ele>432.73</ele>
        <time>2014-06-21T12:43:45Z</time>
      </trkpt>
      <trkpt lat="47.82998" lon="7.0889">
        <ele>427.92</ele>
        <time>2014-06-21T12:43:46Z</time>
      </trkpt>
      <trkpt lat="47.82998" lon="7.08888">
        <ele>431.29</ele>
        <time>2014-06-21T12:43:47Z</time>
      </trkpt>
      <trkpt lat="47.82999" lon="7.08885">
        <ele>434.65</ele>
        <time>2014-06-21T12:43:48Z</time>
      </trkpt>
      <trkpt lat="47.82998" lon="7.08884">
        <ele>430.33</ele>
        <time>2014-06-21T12:43:49Z</time>
      </trkpt>
      <trkpt lat="47.82997" lon="7.0888">
        <ele>435.13</ele>
        <time>2014-06-21T12:43:52Z</time>
      </trkpt>
      <trkpt lat="47.82997" lon="7.08879">
        <ele>433.21</ele>
        <time>2014-06-21T12:43:53Z</time>
      </trkpt>
      <trkpt lat="47.82996" lon="7.08877">
        <ele>429.37</ele>
        <time>2014-06-21T12:43:54Z</time>
      </trkpt>
      <trkpt lat="47.82996" lon="7.08876">
        <ele>431.29</ele>
        <time>2014-06-21T12:43:55Z</time>
      </trkpt>
      <trkpt lat="47.82997" lon="7.08873">
        <ele>436.1</ele>
        <time>2014-06-21T12:43:57Z</time>
      </trkpt>
      <trkpt lat="47.82997" lon="7.08872">
        <ele>426.48</ele>
        <time>2014-06-21T12:43:58Z</time>
      </trkpt>
      <trkpt lat="47.82996" lon="7.0887">
        <ele>431.77</ele>
        <time>2014-06-21T12:43:59Z</time>
      </trkpt>
      <trkpt lat="47.82996" lon="7.08867">
        <ele>436.1</ele>
        <time>2014-06-21T12:44:01Z</time>
      </trkpt>
      <trkpt lat="47.82997" lon="7.08864">
        <ele>436.1</ele>
        <time>2014-06-21T12:44:02Z</time>
      </trkpt>
      <trkpt lat="47.82997" lon="7.08862">
        <ele>427.92</ele>
        <time>2014-06-21T12:44:03Z</time>
      </trkpt>
      <trkpt lat="47.82997" lon="7.0886">
        <ele>432.25</ele>
        <time>2014-06-21T12:44:04Z</time>
      </trkpt>
      <trkpt lat="47.82997" lon="7.08859">
        <ele>435.61</ele>
        <time>2014-06-21T12:44:05Z</time>
      </trkpt>
      <trkpt lat="47.82998" lon="7.08857">
        <ele>435.13</ele>
        <time>2014-06-21T12:44:06Z</time>
      </trkpt>
      <trkpt lat="47.82999" lon="7.08854">
        <ele>430.33</ele>
        <time>2014-06-21T12:44:08Z</time>
      </trkpt>
      <trkpt lat="47.83001" lon="7.08851">
        <ele>435.13</ele>
        <time>2014-06-21T12:44:10Z</time>
      </trkpt>
      <trkpt lat="47.83001" lon="7.08849">
        <ele>431.77</ele>
        <time>2014-06-21T12:44:12Z</time>
      </trkpt>
      <trkpt lat="47.83002" lon="7.08846">
        <ele>435.13</ele>
        <time>2014-06-21T12:44:14Z</time>
      </trkpt>
      <trkpt lat="47.83003" lon="7.08843">
        <ele>437.06</ele>
        <time>2014-06-21T12:44:16Z</time>
      </trkpt>
      <trkpt lat="47.83003" lon="7.08841">
        <ele>431.29</ele>
        <time>2014-06-21T12:44:17Z</time>
      </trkpt>
      <trkpt lat="47.83003" lon="7.0884">
        <ele>431.29</ele>
        <time>2014-06-21T12:44:18Z</time>
      </trkpt>
      <trkpt lat="47.83003" lon="7.08838">
        <ele>435.61</ele>
        <time>2014-06-21T12:44:19Z</time>
      </trkpt>
      <trkpt lat="47.83002" lon="7.08834">
        <ele>439.46</ele>
        <time>2014-06-21T12:44:21Z</time>
      </trkpt>
      <trkpt lat="47.83001" lon="7.08829">
        <ele>432.73</ele>
        <time>2014-06-21T12:44:23Z</time>
      </trkpt>
      <trkpt lat="47.83" lon="7.08826">
        <ele>436.58</ele>
        <time>2014-06-21T12:44:24Z</time>
      </trkpt>
      <trkpt lat="47.82995" lon="7.08816">
        <ele>439.94</ele>
        <time>2014-06-21T12:44:30Z</time>
      </trkpt>
      <trkpt lat="47.82994" lon="7.08812">
        <ele>436.58</ele>
        <time>2014-06-21T12:44:32Z</time>
      </trkpt>
      <trkpt lat="47.82993" lon="7.08811">
        <ele>440.42</ele>
        <time>2014-06-21T12:44:34Z</time>
      </trkpt>
      <trkpt lat="47.82992" lon="7.08809">
        <ele>436.58</ele>
        <time>2014-06-21T12:44:36Z</time>
      </trkpt>
      <trkpt lat="47.82988" lon="7.08804">
        <ele>439.94</ele>
        <time>2014-06-21T12:44:41Z</time>
      </trkpt>
      <trkpt lat="47.82988" lon="7.08804">
        <ele>434.65</ele>
        <time>2014-06-21T12:44:42Z</time>
      </trkpt>
      <trkpt lat="47.82988" lon="7.08804">
        <ele>439.46</ele>
        <time>2014-06-21T12:44:43Z</time>
      </trkpt>
      <trkpt lat="47.82988" lon="7.08803">
        <ele>439.94</ele>
        <time>2014-06-21T12:44:45Z</time>
      </trkpt>
      <trkpt lat="47.82987" lon="7.08799">
        <ele>435.13</ele>
        <time>2014-06-21T12:44:46Z</time>
      </trkpt>
      <trkpt lat="47.82986" lon="7.08796">
        <ele>440.42</ele>
        <time>2014-06-21T12:44:47Z</time>
      </trkpt>
      <trkpt lat="47.82984" lon="7.08794">
        <ele>444.27</ele>
        <time>2014-06-21T12:44:48Z</time>
      </trkpt>
      <trkpt lat="47.82982" lon="7.08792">
        <ele>440.42</ele>
        <time>2014-06-21T12:44:49Z</time>
      </trkpt>
      <trkpt lat="47.8298" lon="7.08783">
        <ele>444.27</ele>
        <time>2014-06-21T12:44:53Z</time>
      </trkpt>
      <trkpt lat="47.82979" lon="7.08782">
        <ele>441.38</ele>
        <time>2014-06-21T12:44:54Z</time>
      </trkpt>
      <trkpt lat="47.82976" lon="7.08764">
        <ele>445.23</ele>
        <time>2014-06-21T12:45:04Z</time>
      </trkpt>
      <trkpt lat="47.82974" lon="7.08763">
        <ele>439.46</ele>
        <time>2014-06-21T12:45:05Z</time>
      </trkpt>
      <trkpt lat="47.82969" lon="7.08758">
        <ele>443.79</ele>
        <time>2014-06-21T12:45:08Z</time>
      </trkpt>
      <trkpt lat="47.82968" lon="7.08758">
        <ele>443.79</ele>
        <time>2014-06-21T12:45:09Z</time>
      </trkpt>
      <trkpt lat="47.82967" lon="7.08757">
        <ele>440.42</ele>
        <time>2014-06-21T12:45:10Z</time>
      </trkpt>
      <trkpt lat="47.82963" lon="7.08753">
        <ele>443.79</ele>
        <time>2014-06-21T12:45:13Z</time>
      </trkpt>
      <trkpt lat="47.82959" lon="7.0875">
        <ele>439.46</ele>
        <time>2014-06-21T12:45:15Z</time>
      </trkpt>
      <trkpt lat="47.82954" lon="7.08746">
        <ele>443.31</ele>
        <time>2014-06-21T12:45:17Z</time>
      </trkpt>
      <trkpt lat="47.82952" lon="7.08742">
        <ele>444.75</ele>
        <time>2014-06-21T12:45:19Z</time>
      </trkpt>
      <trkpt lat="47.82951" lon="7.08741">
        <ele>438.98</ele>
        <time>2014-06-21T12:45:20Z</time>
      </trkpt>
      <trkpt lat="47.8295" lon="7.0874">
        <ele>442.34</ele>
        <time>2014-06-21T12:45:21Z</time>
      </trkpt>
      <trkpt lat="47.82947" lon="7.08739">
        <ele>445.71</ele>
        <time>2014-06-21T12:45:23Z</time>
      </trkpt>
      <trkpt lat="47.82945" lon="7.08739">
        <ele>440.42</ele>
        <time>2014-06-21T12:45:25Z</time>
      </trkpt>
      <trkpt lat="47.82944" lon="7.08738">
        <ele>443.79</ele>
        <time>2014-06-21T12:45:26Z</time>
      </trkpt>
      <trkpt lat="47.82944" lon="7.08737">
        <ele>448.11</ele>
        <time>2014-06-21T12:45:27Z</time>
      </trkpt>
      <trkpt lat="47.82944" lon="7.08735">
        <ele>446.19</ele>
        <time>2014-06-21T12:45:28Z</time>
      </trkpt>
      <trkpt lat="47.82943" lon="7.08734">
        <ele>442.82</ele>
        <time>2014-06-21T12:45:29Z</time>
      </trkpt>
      <trkpt lat="47.82943" lon="7.08731">
        <ele>446.19</ele>
        <time>2014-06-21T12:45:31Z</time>
      </trkpt>
      <trkpt lat="47.82942" lon="7.08728">
        <ele>449.07</ele>
        <time>2014-06-21T12:45:33Z</time>
      </trkpt>
      <trkpt lat="47.82942" lon="7.08728">
        <ele>443.31</ele>
        <time>2014-06-21T12:45:34Z</time>
      </trkpt>
      <trkpt lat="47.82941" lon="7.08726">
        <ele>448.11</ele>
        <time>2014-06-21T12:45:36Z</time>
      </trkpt>
      <trkpt lat="47.82941" lon="7.08726">
        <ele>451.48</ele>
        <time>2014-06-21T12:45:37Z</time>
      </trkpt>
      <trkpt lat="47.8294" lon="7.08723">
        <ele>448.11</ele>
        <time>2014-06-21T12:45:38Z</time>
      </trkpt>
      <trkpt lat="47.8293" lon="7.08718">
        <ele>444.75</ele>
        <time>2014-06-21T12:45:43Z</time>
      </trkpt>
      <trkpt lat="47.82929" lon="7.08718">
        <ele>450.03</ele>
        <time>2014-06-21T12:45:44Z</time>
      </trkpt>
      <trkpt lat="47.82927" lon="7.08718">
        <ele>451</ele>
        <time>2014-06-21T12:45:46Z</time>
      </trkpt>
      <trkpt lat="47.82921" lon="7.08727">
        <ele>452.44</ele>
        <time>2014-06-21T12:45:51Z</time>
      </trkpt>
      <trkpt lat="47.82917" lon="7.08732">
        <ele>448.59</ele>
        <time>2014-06-21T12:45:54Z</time>
      </trkpt>
      <trkpt lat="47.82916" lon="7.08734">
        <ele>449.55</ele>
        <time>2014-06-21T12:45:55Z</time>
      </trkpt>
      <trkpt lat="47.82916" lon="7.08737">
        <ele>451.48</ele>
        <time>2014-06-21T12:45:58Z</time>
      </trkpt>
      <trkpt lat="47.82914" lon="7.08745">
        <ele>454.36</ele>
        <time>2014-06-21T12:46:07Z</time>
      </trkpt>
      <trkpt lat="47.82913" lon="7.08746">
        <ele>454.36</ele>
        <time>2014-06-21T12:46:08Z</time>
      </trkpt>
      <trkpt lat="47.82912" lon="7.08747">
        <ele>450.03</ele>
        <time>2014-06-21T12:46:09Z</time>
      </trkpt>
      <trkpt lat="47.8291" lon="7.08747">
        <ele>450.52</ele>
        <time>2014-06-21T12:46:10Z</time>
      </trkpt>
      <trkpt lat="47.82906" lon="7.08751">
        <ele>454.36</ele>
        <time>2014-06-21T12:46:13Z</time>
      </trkpt>
      <trkpt lat="47.82903" lon="7.08753">
        <ele>451.96</ele>
        <time>2014-06-21T12:46:16Z</time>
      </trkpt>
      <trkpt lat="47.82903" lon="7.08754">
        <ele>451.48</ele>
        <time>2014-06-21T12:46:17Z</time>
      </trkpt>
      <trkpt lat="47.829" lon="7.08758">
        <ele>454.36</ele>
        <time>2014-06-21T12:46:20Z</time>
      </trkpt>
      <trkpt lat="47.82899" lon="7.08759">
        <ele>457.72</ele>
        <time>2014-06-21T12:46:24Z</time>
      </trkpt>
      <trkpt lat="47.82899" lon="7.08758">
        <ele>455.32</ele>
        <time>2014-06-21T12:46:25Z</time>
      </trkpt>
      <trkpt lat="47.82899" lon="7.08758">
        <ele>452.44</ele>
        <time>2014-06-21T12:46:26Z</time>
      </trkpt>
      <trkpt lat="47.82899" lon="7.08758">
        <ele>452.92</ele>
        <time>2014-06-21T12:46:27Z</time>
      </trkpt>
      <trkpt lat="47.82897" lon="7.08756">
        <ele>457.24</ele>
        <time>2014-06-21T12:46:30Z</time>
      </trkpt>
      <trkpt lat="47.82895" lon="7.08755">
        <ele>453.4</ele>
        <time>2014-06-21T12:46:32Z</time>
      </trkpt>
      <trkpt lat="47.82893" lon="7.08754">
        <ele>457.24</ele>
        <time>2014-06-21T12:46:34Z</time>
      </trkpt>
      <trkpt lat="47.82893" lon="7.08753">
        <ele>456.76</ele>
        <time>2014-06-21T12:46:35Z</time>
      </trkpt>
      <trkpt lat="47.82892" lon="7.08753">
        <ele>453.4</ele>
        <time>2014-06-21T12:46:37Z</time>
      </trkpt>
      <trkpt lat="47.82892" lon="7.08753">
        <ele>458.21</ele>
        <time>2014-06-21T12:46:38Z</time>
      </trkpt>
      <trkpt lat="47.82891" lon="7.08752">
        <ele>453.88</ele>
        <time>2014-06-21T12:46:39Z</time>
      </trkpt>
      <trkpt lat="47.82882" lon="7.08755">
        <ele>458.69</ele>
        <time>2014-06-21T12:46:46Z</time>
      </trkpt>
      <trkpt lat="47.82881" lon="7.08756">
        <ele>455.32</ele>
        <time>2014-06-21T12:46:47Z</time>
      </trkpt>
      <trkpt lat="47.82877" lon="7.08757">
        <ele>457.24</ele>
        <time>2014-06-21T12:46:50Z</time>
      </trkpt>
      <trkpt lat="47.82875" lon="7.08759">
        <ele>451</ele>
        <time>2014-06-21T12:46:52Z</time>
      </trkpt>
      <trkpt lat="47.82874" lon="7.08759">
        <ele>455.32</ele>
        <time>2014-06-21T12:46:53Z</time>
      </trkpt>
      <trkpt lat="47.82871" lon="7.08759">
        <ele>459.17</ele>
        <time>2014-06-21T12:46:54Z</time>
      </trkpt>
      <trkpt lat="47.82865" lon="7.08758">
        <ele>453.4</ele>
        <time>2014-06-21T12:46:57Z</time>
      </trkpt>
      <trkpt lat="47.82855" lon="7.08758">
        <ele>454.36</ele>
        <time>2014-06-21T12:47:02Z</time>
      </trkpt>
      <trkpt lat="47.82853" lon="7.08758">
        <ele>460.13</ele>
        <time>2014-06-21T12:47:03Z</time>
      </trkpt>
      <trkpt lat="47.82845" lon="7.0876">
        <ele>459.65</ele>
        <time>2014-06-21T12:47:11Z</time>
      </trkpt>
      <trkpt lat="47.82843" lon="7.0876">
        <ele>461.57</ele>
        <time>2014-06-21T12:47:13Z</time>
      </trkpt>
      <trkpt lat="47.82833" lon="7.08758">
        <ele>456.28</ele>
        <time>2014-06-21T12:47:23Z</time>
      </trkpt>
      <trkpt lat="47.82832" lon="7.08756">
        <ele>461.09</ele>
        <time>2014-06-21T12:47:24Z</time>
      </trkpt>
      <trkpt lat="47.82831" lon="7.08755">
        <ele>464.93</ele>
        <time>2014-06-21T12:47:26Z</time>
      </trkpt>
      <trkpt lat="47.8283" lon="7.08754">
        <ele>457.24</ele>
        <time>2014-06-21T12:47:27Z</time>
      </trkpt>
      <trkpt lat="47.82829" lon="7.08754">
        <ele>460.61</ele>
        <time>2014-06-21T12:47:28Z</time>
      </trkpt>
      <trkpt lat="47.82828" lon="7.08753">
        <ele>466.38</ele>
        <time>2014-06-21T12:47:30Z</time>
      </trkpt>
      <trkpt lat="47.82827" lon="7.08752">
        <ele>462.53</ele>
        <time>2014-06-21T12:47:31Z</time>
      </trkpt>
      <trkpt lat="47.82827" lon="7.08751">
        <ele>459.17</ele>
        <time>2014-06-21T12:47:32Z</time>
      </trkpt>
      <trkpt lat="47.82826" lon="7.0875">
        <ele>462.53</ele>
        <time>2014-06-21T12:47:33Z</time>
      </trkpt>
      <trkpt lat="47.82824" lon="7.08749">
        <ele>465.9</ele>
        <time>2014-06-21T12:47:34Z</time>
      </trkpt>
      <trkpt lat="47.82822" lon="7.08746">
        <ele>458.69</ele>
        <time>2014-06-21T12:47:37Z</time>
      </trkpt>
      <trkpt lat="47.82822" lon="7.08745">
        <ele>462.05</ele>
        <time>2014-06-21T12:47:38Z</time>
      </trkpt>
      <trkpt lat="47.82822" lon="7.08744">
        <ele>466.86</ele>
        <time>2014-06-21T12:47:39Z</time>
      </trkpt>
      <trkpt lat="47.82822" lon="7.08743">
        <ele>465.9</ele>
        <time>2014-06-21T12:47:40Z</time>
      </trkpt>
      <trkpt lat="47.82821" lon="7.08743">
        <ele>470.22</ele>
        <time>2014-06-21T12:47:41Z</time>
      </trkpt>
      <trkpt lat="47.82821" lon="7.08743">
        <ele>465.9</ele>
        <time>2014-06-21T12:47:42Z</time>
      </trkpt>
      <trkpt lat="47.82821" lon="7.08742">
        <ele>460.61</ele>
        <time>2014-06-21T12:47:43Z</time>
      </trkpt>
      <trkpt lat="47.8282" lon="7.0874">
        <ele>465.42</ele>
        <time>2014-06-21T12:47:45Z</time>
      </trkpt>
      <trkpt lat="47.82819" lon="7.08738">
        <ele>465.9</ele>
        <time>2014-06-21T12:47:46Z</time>
      </trkpt>
      <trkpt lat="47.82818" lon="7.08736">
        <ele>469.26</ele>
        <time>2014-06-21T12:47:47Z</time>
      </trkpt>
      <trkpt lat="47.82818" lon="7.08735">
        <ele>464.45</ele>
        <time>2014-06-21T12:47:48Z</time>
      </trkpt>
      <trkpt lat="47.82815" lon="7.08731">
        <ele>468.3</ele>
        <time>2014-06-21T12:47:52Z</time>
      </trkpt>
      <trkpt lat="47.82813" lon="7.0873">
        <ele>466.86</ele>
        <time>2014-06-21T12:47:53Z</time>
      </trkpt>
      <trkpt lat="47.82812" lon="7.0873">
        <ele>462.05</ele>
        <time>2014-06-21T12:47:54Z</time>
      </trkpt>
      <trkpt lat="47.82811" lon="7.08729">
        <ele>463.49</ele>
        <time>2014-06-21T12:47:55Z</time>
      </trkpt>
      <trkpt lat="47.82811" lon="7.08728">
        <ele>467.82</ele>
        <time>2014-06-21T12:47:56Z</time>
      </trkpt>
      <trkpt lat="47.82808" lon="7.08727">
        <ele>463.01</ele>
        <time>2014-06-21T12:48:00Z</time>
      </trkpt>
      <trkpt lat="47.82806" lon="7.08728">
        <ele>463.97</ele>
        <time>2014-06-21T12:48:01Z</time>
      </trkpt>
      <trkpt lat="47.82804" lon="7.08729">
        <ele>466.86</ele>
        <time>2014-06-21T12:48:02Z</time>
      </trkpt>
      <trkpt lat="47.82801" lon="7.08728">
        <ele>470.7</ele>
        <time>2014-06-21T12:48:04Z</time>
      </trkpt>
      <trkpt lat="47.828" lon="7.08728">
        <ele>467.34</ele>
        <time>2014-06-21T12:48:05Z</time>
      </trkpt>
      <trkpt lat="47.82798" lon="7.08729">
        <ele>464.45</ele>
        <time>2014-06-21T12:48:06Z</time>
      </trkpt>
      <trkpt lat="47.82797" lon="7.08728">
        <ele>465.9</ele>
        <time>2014-06-21T12:48:07Z</time>
      </trkpt>
      <trkpt lat="47.82793" lon="7.08726">
        <ele>471.66</ele>
        <time>2014-06-21T12:48:09Z</time>
      </trkpt>
      <trkpt lat="47.82789" lon="7.08723">
        <ele>465.9</ele>
        <time>2014-06-21T12:48:12Z</time>
      </trkpt>
      <trkpt lat="47.82787" lon="7.08724">
        <ele>468.78</ele>
        <time>2014-06-21T12:48:13Z</time>
      </trkpt>
      <trkpt lat="47.82782" lon="7.08726">
        <ele>470.7</ele>
        <time>2014-06-21T12:48:17Z</time>
      </trkpt>
      <trkpt lat="47.82781" lon="7.08726">
        <ele>467.34</ele>
        <time>2014-06-21T12:48:18Z</time>
      </trkpt>
      <trkpt lat="47.8278" lon="7.08726">
        <ele>469.26</ele>
        <time>2014-06-21T12:48:19Z</time>
      </trkpt>
      <trkpt lat="47.82775" lon="7.08725">
        <ele>471.66</ele>
        <time>2014-06-21T12:48:22Z</time>
      </trkpt>
      <trkpt lat="47.82766" lon="7.08723">
        <ele>469.26</ele>
        <time>2014-06-21T12:48:27Z</time>
      </trkpt>
      <trkpt lat="47.82759" lon="7.08726">
        <ele>475.03</ele>
        <time>2014-06-21T12:48:32Z</time>
      </trkpt>
      <trkpt lat="47.82757" lon="7.08728">
        <ele>471.66</ele>
        <time>2014-06-21T12:48:34Z</time>
      </trkpt>
      <trkpt lat="47.82756" lon="7.0873">
        <ele>469.26</ele>
        <time>2014-06-21T12:48:36Z</time>
      </trkpt>
      <trkpt lat="47.82755" lon="7.08734">
        <ele>473.59</ele>
        <time>2014-06-21T12:48:38Z</time>
      </trkpt>
      <trkpt lat="47.82754" lon="7.08737">
        <ele>470.7</ele>
        <time>2014-06-21T12:48:40Z</time>
      </trkpt>
      <trkpt lat="47.82753" lon="7.0874">
        <ele>475.03</ele>
        <time>2014-06-21T12:48:42Z</time>
      </trkpt>
      <trkpt lat="47.82751" lon="7.08749">
        <ele>470.7</ele>
        <time>2014-06-21T12:48:47Z</time>
      </trkpt>
      <trkpt lat="47.8275" lon="7.08753">
        <ele>475.03</ele>
        <time>2014-06-21T12:48:49Z</time>
      </trkpt>
      <trkpt lat="47.8275" lon="7.08756">
        <ele>476.95</ele>
        <time>2014-06-21T12:48:51Z</time>
      </trkpt>
      <trkpt lat="47.8275" lon="7.08758">
        <ele>473.59</ele>
        <time>2014-06-21T12:48:52Z</time>
      </trkpt>
      <trkpt lat="47.82749" lon="7.08759">
        <ele>468.78</ele>
        <time>2014-06-21T12:48:53Z</time>
      </trkpt>
      <trkpt lat="47.82749" lon="7.08761">
        <ele>471.66</ele>
        <time>2014-06-21T12:48:54Z</time>
      </trkpt>
      <trkpt lat="47.82749" lon="7.08762">
        <ele>475.03</ele>
        <time>2014-06-21T12:48:55Z</time>
      </trkpt>
      <trkpt lat="47.82749" lon="7.08764">
        <ele>475.99</ele>
        <time>2014-06-21T12:48:56Z</time>
      </trkpt>
      <trkpt lat="47.82749" lon="7.08765">
        <ele>472.14</ele>
        <time>2014-06-21T12:48:58Z</time>
      </trkpt>
      <trkpt lat="47.82749" lon="7.08766">
        <ele>472.14</ele>
        <time>2014-06-21T12:48:59Z</time>
      </trkpt>
      <trkpt lat="47.82749" lon="7.08768">
        <ele>475.51</ele>
        <time>2014-06-21T12:49:00Z</time>
      </trkpt>
      <trkpt lat="47.82749" lon="7.08769">
        <ele>479.35</ele>
        <time>2014-06-21T12:49:01Z</time>
      </trkpt>
      <trkpt lat="47.82749" lon="7.08769">
        <ele>478.87</ele>
        <time>2014-06-21T12:49:02Z</time>
      </trkpt>
      <trkpt lat="47.82748" lon="7.0877">
        <ele>472.14</ele>
        <time>2014-06-21T12:49:04Z</time>
      </trkpt>
      <trkpt lat="47.82748" lon="7.08771">
        <ele>473.11</ele>
        <time>2014-06-21T12:49:05Z</time>
      </trkpt>
      <trkpt lat="47.82748" lon="7.08771">
        <ele>477.91</ele>
        <time>2014-06-21T12:49:06Z</time>
      </trkpt>
      <trkpt lat="47.82747" lon="7.08772">
        <ele>479.84</ele>
        <time>2014-06-21T12:49:08Z</time>
      </trkpt>
      <trkpt lat="47.82747" lon="7.08773">
        <ele>475.99</ele>
        <time>2014-06-21T12:49:09Z</time>
      </trkpt>
      <trkpt lat="47.82746" lon="7.08775">
        <ele>472.63</ele>
        <time>2014-06-21T12:49:10Z</time>
      </trkpt>
      <trkpt lat="47.82746" lon="7.08776">
        <ele>476.47</ele>
        <time>2014-06-21T12:49:11Z</time>
      </trkpt>
      <trkpt lat="47.82742" lon="7.08782">
        <ele>472.63</ele>
        <time>2014-06-21T12:49:17Z</time>
      </trkpt>
      <trkpt lat="47.82742" lon="7.08783">
        <ele>476.95</ele>
        <time>2014-06-21T12:49:18Z</time>
      </trkpt>
      <trkpt lat="47.82741" lon="7.08784">
        <ele>480.8</ele>
        <time>2014-06-21T12:49:20Z</time>
      </trkpt>
      <trkpt lat="47.82741" lon="7.08785">
        <ele>480.8</ele>
        <time>2014-06-21T12:49:21Z</time>
      </trkpt>
      <trkpt lat="47.82741" lon="7.08786">
        <ele>475.51</ele>
        <time>2014-06-21T12:49:22Z</time>
      </trkpt>
      <trkpt lat="47.8274" lon="7.08787">
        <ele>475.99</ele>
        <time>2014-06-21T12:49:23Z</time>
      </trkpt>
      <trkpt lat="47.8274" lon="7.08787">
        <ele>478.87</ele>
        <time>2014-06-21T12:49:24Z</time>
      </trkpt>
      <trkpt lat="47.82739" lon="7.08788">
        <ele>482.72</ele>
        <time>2014-06-21T12:49:25Z</time>
      </trkpt>
      <trkpt lat="47.82738" lon="7.08789">
        <ele>482.72</ele>
        <time>2014-06-21T12:49:26Z</time>
      </trkpt>
      <trkpt lat="47.82736" lon="7.08791">
        <ele>477.43</ele>
        <time>2014-06-21T12:49:28Z</time>
      </trkpt>
      <trkpt lat="47.82734" lon="7.08794">
        <ele>478.87</ele>
        <time>2014-06-21T12:49:31Z</time>
      </trkpt>
      <trkpt lat="47.82733" lon="7.08794">
        <ele>483.2</ele>
        <time>2014-06-21T12:49:32Z</time>
      </trkpt>
      <trkpt lat="47.82732" lon="7.08793">
        <ele>481.76</ele>
        <time>2014-06-21T12:49:33Z</time>
      </trkpt>
      <trkpt lat="47.82731" lon="7.08794">
        <ele>476.95</ele>
        <time>2014-06-21T12:49:34Z</time>
      </trkpt>
      <trkpt lat="47.82731" lon="7.08794">
        <ele>476.95</ele>
        <time>2014-06-21T12:49:35Z</time>
      </trkpt>
      <trkpt lat="47.8273" lon="7.08795">
        <ele>480.32</ele>
        <time>2014-06-21T12:49:37Z</time>
      </trkpt>
      <trkpt lat="47.82726" lon="7.08797">
        <ele>484.64</ele>
        <time>2014-06-21T12:49:39Z</time>
      </trkpt>
      <trkpt lat="47.82724" lon="7.08799">
        <ele>478.87</ele>
        <time>2014-06-21T12:49:40Z</time>
      </trkpt>
      <trkpt lat="47.82722" lon="7.08799">
        <ele>476.47</ele>
        <time>2014-06-21T12:49:41Z</time>
      </trkpt>
      <trkpt lat="47.82718" lon="7.08801">
        <ele>483.68</ele>
        <time>2014-06-21T12:49:44Z</time>
      </trkpt>
      <trkpt lat="47.82717" lon="7.08802">
        <ele>482.72</ele>
        <time>2014-06-21T12:49:45Z</time>
      </trkpt>
      <trkpt lat="47.82713" lon="7.08803">
        <ele>482.24</ele>
        <time>2014-06-21T12:49:49Z</time>
      </trkpt>
      <trkpt lat="47.82707" lon="7.08804">
        <ele>486.56</ele>
        <time>2014-06-21T12:49:54Z</time>
      </trkpt>
      <trkpt lat="47.82706" lon="7.08804">
        <ele>482.24</ele>
        <time>2014-06-21T12:49:55Z</time>
      </trkpt>
      <trkpt lat="47.82705" lon="7.08804">
        <ele>485.12</ele>
        <time>2014-06-21T12:49:56Z</time>
      </trkpt>
      <trkpt lat="47.82704" lon="7.08804">
        <ele>480.32</ele>
        <time>2014-06-21T12:49:57Z</time>
      </trkpt>
      <trkpt lat="47.827" lon="7.08803">
        <ele>483.68</ele>
        <time>2014-06-21T12:50:00Z</time>
      </trkpt>
      <trkpt lat="47.82696" lon="7.08804">
        <ele>487.53</ele>
        <time>2014-06-21T12:50:03Z</time>
      </trkpt>
      <trkpt lat="47.82694" lon="7.08806">
        <ele>481.28</ele>
        <time>2014-06-21T12:50:05Z</time>
      </trkpt>
      <trkpt lat="47.82691" lon="7.0881">
        <ele>485.12</ele>
        <time>2014-06-21T12:50:07Z</time>
      </trkpt>
      <trkpt lat="47.82687" lon="7.08813">
        <ele>490.41</ele>
        <time>2014-06-21T12:50:09Z</time>
      </trkpt>
      <trkpt lat="47.82683" lon="7.08815">
        <ele>485.12</ele>
        <time>2014-06-21T12:50:11Z</time>
      </trkpt>
      <trkpt lat="47.82682" lon="7.08815">
        <ele>484.16</ele>
        <time>2014-06-21T12:50:12Z</time>
      </trkpt>
      <trkpt lat="47.82679" lon="7.0882">
        <ele>485.6</ele>
        <time>2014-06-21T12:50:14Z</time>
      </trkpt>
      <trkpt lat="47.82678" lon="7.08824">
        <ele>486.56</ele>
        <time>2014-06-21T12:50:16Z</time>
      </trkpt>
      <trkpt lat="47.82678" lon="7.08827">
        <ele>489.45</ele>
        <time>2014-06-21T12:50:17Z</time>
      </trkpt>
      <trkpt lat="47.82676" lon="7.08829">
        <ele>488.01</ele>
        <time>2014-06-21T12:50:18Z</time>
      </trkpt>
      <trkpt lat="47.82675" lon="7.08831">
        <ele>483.2</ele>
        <time>2014-06-21T12:50:19Z</time>
      </trkpt>
      <trkpt lat="47.82674" lon="7.08832">
        <ele>487.05</ele>
        <time>2014-06-21T12:50:20Z</time>
      </trkpt>
      <trkpt lat="47.82672" lon="7.08838">
        <ele>490.89</ele>
        <time>2014-06-21T12:50:24Z</time>
      </trkpt>
      <trkpt lat="47.82671" lon="7.0884">
        <ele>490.41</ele>
        <time>2014-06-21T12:50:26Z</time>
      </trkpt>
      <trkpt lat="47.82665" lon="7.08845">
        <ele>492.33</ele>
        <time>2014-06-21T12:50:31Z</time>
      </trkpt>
      <trkpt lat="47.82662" lon="7.08849">
        <ele>488.49</ele>
        <time>2014-06-21T12:50:34Z</time>
      </trkpt>
      <trkpt lat="47.82661" lon="7.0885">
        <ele>490.41</ele>
        <time>2014-06-21T12:50:35Z</time>
      </trkpt>
      <trkpt lat="47.8266" lon="7.08853">
        <ele>494.74</ele>
        <time>2014-06-21T12:50:37Z</time>
      </trkpt>
      <trkpt lat="47.8266" lon="7.08855">
        <ele>490.89</ele>
        <time>2014-06-21T12:50:38Z</time>
      </trkpt>
      <trkpt lat="47.82659" lon="7.08861">
        <ele>493.29</ele>
        <time>2014-06-21T12:50:42Z</time>
      </trkpt>
      <trkpt lat="47.82655" lon="7.08875">
        <ele>488.49</ele>
        <time>2014-06-21T12:50:51Z</time>
      </trkpt>
      <trkpt lat="47.82654" lon="7.08876">
        <ele>489.93</ele>
        <time>2014-06-21T12:50:52Z</time>
      </trkpt>
      <trkpt lat="47.82653" lon="7.08877">
        <ele>496.66</ele>
        <time>2014-06-21T12:50:54Z</time>
      </trkpt>
      <trkpt lat="47.82653" lon="7.08878">
        <ele>489.93</ele>
        <time>2014-06-21T12:50:55Z</time>
      </trkpt>
      <trkpt lat="47.82653" lon="7.08879">
        <ele>486.56</ele>
        <time>2014-06-21T12:50:56Z</time>
      </trkpt>
      <trkpt lat="47.82653" lon="7.0888">
        <ele>493.77</ele>
        <time>2014-06-21T12:50:57Z</time>
      </trkpt>
      <trkpt lat="47.82652" lon="7.08882">
        <ele>494.26</ele>
        <time>2014-06-21T12:50:58Z</time>
      </trkpt>
      <trkpt lat="47.82651" lon="7.08887">
        <ele>488.97</ele>
        <time>2014-06-21T12:51:01Z</time>
      </trkpt>
      <trkpt lat="47.8265" lon="7.08889">
        <ele>495.22</ele>
        <time>2014-06-21T12:51:02Z</time>
      </trkpt>
      <trkpt lat="47.8265" lon="7.08892">
        <ele>498.58</ele>
        <time>2014-06-21T12:51:04Z</time>
      </trkpt>
      <trkpt lat="47.8265" lon="7.08893">
        <ele>490.41</ele>
        <time>2014-06-21T12:51:05Z</time>
      </trkpt>
      <trkpt lat="47.8265" lon="7.08894">
        <ele>491.37</ele>
        <time>2014-06-21T12:51:06Z</time>
      </trkpt>
      <trkpt lat="47.8265" lon="7.08894">
        <ele>496.66</ele>
        <time>2014-06-21T12:51:07Z</time>
      </trkpt>
      <trkpt lat="47.82649" lon="7.08899">
        <ele>491.37</ele>
        <time>2014-06-21T12:51:10Z</time>
      </trkpt>
      <trkpt lat="47.82648" lon="7.08901">
        <ele>493.77</ele>
        <time>2014-06-21T12:51:11Z</time>
      </trkpt>
      <trkpt lat="47.82648" lon="7.08902">
        <ele>498.1</ele>
        <time>2014-06-21T12:51:12Z</time>
      </trkpt>
      <trkpt lat="47.82646" lon="7.08906">
        <ele>491.85</ele>
        <time>2014-06-21T12:51:15Z</time>
      </trkpt>
      <trkpt lat="47.82645" lon="7.0891">
        <ele>495.22</ele>
        <time>2014-06-21T12:51:17Z</time>
      </trkpt>
      <trkpt lat="47.82645" lon="7.08913">
        <ele>500.5</ele>
        <time>2014-06-21T12:51:18Z</time>
      </trkpt>
      <trkpt lat="47.82644" lon="7.0892">
        <ele>492.81</ele>
        <time>2014-06-21T12:51:21Z</time>
      </trkpt>
      <trkpt lat="47.82644" lon="7.08923">
        <ele>492.81</ele>
        <time>2014-06-21T12:51:22Z</time>
      </trkpt>
      <trkpt lat="47.82644" lon="7.08924">
        <ele>497.14</ele>
        <time>2014-06-21T12:51:23Z</time>
      </trkpt>
      <trkpt lat="47.82642" lon="7.08931">
        <ele>493.29</ele>
        <time>2014-06-21T12:51:27Z</time>
      </trkpt>
      <trkpt lat="47.82641" lon="7.08932">
        <ele>494.74</ele>
        <time>2014-06-21T12:51:28Z</time>
      </trkpt>
      <trkpt lat="47.82641" lon="7.08933">
        <ele>498.58</ele>
        <time>2014-06-21T12:51:29Z</time>
      </trkpt>
      <trkpt lat="47.82639" lon="7.08937">
        <ele>493.77</ele>
        <time>2014-06-21T12:51:32Z</time>
      </trkpt>
      <trkpt lat="47.82639" lon="7.08939">
        <ele>497.14</ele>
        <time>2014-06-21T12:51:33Z</time>
      </trkpt>
      <trkpt lat="47.82638" lon="7.08943">
        <ele>500.98</ele>
        <time>2014-06-21T12:51:35Z</time>
      </trkpt>
      <trkpt lat="47.82638" lon="7.08944">
        <ele>500.5</ele>
        <time>2014-06-21T12:51:36Z</time>
      </trkpt>
      <trkpt lat="47.82638" lon="7.08944">
        <ele>494.26</ele>
        <time>2014-06-21T12:51:37Z</time>
      </trkpt>
      <trkpt lat="47.82637" lon="7.08945">
        <ele>495.22</ele>
        <time>2014-06-21T12:51:38Z</time>
      </trkpt>
      <trkpt lat="47.82637" lon="7.08945">
        <ele>499.06</ele>
        <time>2014-06-21T12:51:39Z</time>
      </trkpt>
      <trkpt lat="47.82637" lon="7.08945">
        <ele>503.87</ele>
        <time>2014-06-21T12:51:40Z</time>
      </trkpt>
      <trkpt lat="47.82636" lon="7.08946">
        <ele>502.43</ele>
        <time>2014-06-21T12:51:41Z</time>
      </trkpt>
      <trkpt lat="47.82636" lon="7.08947">
        <ele>494.26</ele>
        <time>2014-06-21T12:51:43Z</time>
      </trkpt>
      <trkpt lat="47.82635" lon="7.08948">
        <ele>498.58</ele>
        <time>2014-06-21T12:51:44Z</time>
      </trkpt>
      <trkpt lat="47.82634" lon="7.0895">
        <ele>502.91</ele>
        <time>2014-06-21T12:51:46Z</time>
      </trkpt>
      <trkpt lat="47.82633" lon="7.08951">
        <ele>501.95</ele>
        <time>2014-06-21T12:51:47Z</time>
      </trkpt>
      <trkpt lat="47.82632" lon="7.08952">
        <ele>496.66</ele>
        <time>2014-06-21T12:51:48Z</time>
      </trkpt>
      <trkpt lat="47.82632" lon="7.08953">
        <ele>497.62</ele>
        <time>2014-06-21T12:51:49Z</time>
      </trkpt>
      <trkpt lat="47.82631" lon="7.08954">
        <ele>502.91</ele>
        <time>2014-06-21T12:51:50Z</time>
      </trkpt>
      <trkpt lat="47.8263" lon="7.08958">
        <ele>498.58</ele>
        <time>2014-06-21T12:51:53Z</time>
      </trkpt>
      <trkpt lat="47.82629" lon="7.08965">
        <ele>503.39</ele>
        <time>2014-06-21T12:51:56Z</time>
      </trkpt>
      <trkpt lat="47.82629" lon="7.08967">
        <ele>498.58</ele>
        <time>2014-06-21T12:51:59Z</time>
      </trkpt>
      <trkpt lat="47.82629" lon="7.08969">
        <ele>500.02</ele>
        <time>2014-06-21T12:52:00Z</time>
      </trkpt>
      <trkpt lat="47.82629" lon="7.08973">
        <ele>505.79</ele>
        <time>2014-06-21T12:52:02Z</time>
      </trkpt>
      <trkpt lat="47.82628" lon="7.08976">
        <ele>498.58</ele>
        <time>2014-06-21T12:52:05Z</time>
      </trkpt>
      <trkpt lat="47.82628" lon="7.08978">
        <ele>499.54</ele>
        <time>2014-06-21T12:52:06Z</time>
      </trkpt>
      <trkpt lat="47.82627" lon="7.0898">
        <ele>502.91</ele>
        <time>2014-06-21T12:52:07Z</time>
      </trkpt>
      <trkpt lat="47.82626" lon="7.08981">
        <ele>505.79</ele>
        <time>2014-06-21T12:52:08Z</time>
      </trkpt>
      <trkpt lat="47.82625" lon="7.08986">
        <ele>501.95</ele>
        <time>2014-06-21T12:52:12Z</time>
      </trkpt>
      <trkpt lat="47.82624" lon="7.08987">
        <ele>502.43</ele>
        <time>2014-06-21T12:52:13Z</time>
      </trkpt>
      <trkpt lat="47.82622" lon="7.0899">
        <ele>503.87</ele>
        <time>2014-06-21T12:52:15Z</time>
      </trkpt>
      <trkpt lat="47.82621" lon="7.08991">
        <ele>507.71</ele>
        <time>2014-06-21T12:52:16Z</time>
      </trkpt>
      <trkpt lat="47.8262" lon="7.08992">
        <ele>504.35</ele>
        <time>2014-06-21T12:52:17Z</time>
      </trkpt>
      <trkpt lat="47.8262" lon="7.08993">
        <ele>500.02</ele>
        <time>2014-06-21T12:52:18Z</time>
      </trkpt>
      <trkpt lat="47.82619" lon="7.08994">
        <ele>503.87</ele>
        <time>2014-06-21T12:52:19Z</time>
      </trkpt>
      <trkpt lat="47.82619" lon="7.08997">
        <ele>508.19</ele>
        <time>2014-06-21T12:52:21Z</time>
      </trkpt>
      <trkpt lat="47.82618" lon="7.08999">
        <ele>503.87</ele>
        <time>2014-06-21T12:52:23Z</time>
      </trkpt>
      <trkpt lat="47.82615" lon="7.09008">
        <ele>507.23</ele>
        <time>2014-06-21T12:52:26Z</time>
      </trkpt>
      <trkpt lat="47.82612" lon="7.09016">
        <ele>503.39</ele>
        <time>2014-06-21T12:52:30Z</time>
      </trkpt>
      <trkpt lat="47.82609" lon="7.09021">
        <ele>509.64</ele>
        <time>2014-06-21T12:52:33Z</time>
      </trkpt>
      <trkpt lat="47.82609" lon="7.09024">
        <ele>505.31</ele>
        <time>2014-06-21T12:52:35Z</time>
      </trkpt>
      <trkpt lat="47.82608" lon="7.09026">
        <ele>504.35</ele>
        <time>2014-06-21T12:52:37Z</time>
      </trkpt>
      <trkpt lat="47.82608" lon="7.09027">
        <ele>511.56</ele>
        <time>2014-06-21T12:52:38Z</time>
      </trkpt>
      <trkpt lat="47.82607" lon="7.09027">
        <ele>509.16</ele>
        <time>2014-06-21T12:52:39Z</time>
      </trkpt>
      <trkpt lat="47.82607" lon="7.09029">
        <ele>505.31</ele>
        <time>2014-06-21T12:52:40Z</time>
      </trkpt>
      <trkpt lat="47.82606" lon="7.09029">
        <ele>507.71</ele>
        <time>2014-06-21T12:52:41Z</time>
      </trkpt>
      <trkpt lat="47.82605" lon="7.09031">
        <ele>511.08</ele>
        <time>2014-06-21T12:52:42Z</time>
      </trkpt>
      <trkpt lat="47.82603" lon="7.09032">
        <ele>510.6</ele>
        <time>2014-06-21T12:52:43Z</time>
      </trkpt>
      <trkpt lat="47.82603" lon="7.09035">
        <ele>507.23</ele>
        <time>2014-06-21T12:52:45Z</time>
      </trkpt>
      <trkpt lat="47.82601" lon="7.09038">
        <ele>511.56</ele>
        <time>2014-06-21T12:52:48Z</time>
      </trkpt>
      <trkpt lat="47.82601" lon="7.09039">
        <ele>511.08</ele>
        <time>2014-06-21T12:52:49Z</time>
      </trkpt>
      <trkpt lat="47.826" lon="7.0904">
        <ele>506.27</ele>
        <time>2014-06-21T12:52:51Z</time>
      </trkpt>
      <trkpt lat="47.826" lon="7.09041">
        <ele>512.52</ele>
        <time>2014-06-21T12:52:53Z</time>
      </trkpt>
      <trkpt lat="47.826" lon="7.09041">
        <ele>512.04</ele>
        <time>2014-06-21T12:52:54Z</time>
      </trkpt>
      <trkpt lat="47.82599" lon="7.09042">
        <ele>508.67</ele>
        <time>2014-06-21T12:52:56Z</time>
      </trkpt>
      <trkpt lat="47.82597" lon="7.09043">
        <ele>508.67</ele>
        <time>2014-06-21T12:52:57Z</time>
      </trkpt>
      <trkpt lat="47.82595" lon="7.09045">
        <ele>511.56</ele>
        <time>2014-06-21T12:52:59Z</time>
      </trkpt>
      <trkpt lat="47.82592" lon="7.09049">
        <ele>507.23</ele>
        <time>2014-06-21T12:53:01Z</time>
      </trkpt>
      <trkpt lat="47.8259" lon="7.09051">
        <ele>511.56</ele>
        <time>2014-06-21T12:53:02Z</time>
      </trkpt>
      <trkpt lat="47.82586" lon="7.09057">
        <ele>508.19</ele>
        <time>2014-06-21T12:53:06Z</time>
      </trkpt>
      <trkpt lat="47.82585" lon="7.0906">
        <ele>514.44</ele>
        <time>2014-06-21T12:53:08Z</time>
      </trkpt>
      <trkpt lat="47.82583" lon="7.09066">
        <ele>506.27</ele>
        <time>2014-06-21T12:53:11Z</time>
      </trkpt>
      <trkpt lat="47.82582" lon="7.09067">
        <ele>511.08</ele>
        <time>2014-06-21T12:53:12Z</time>
      </trkpt>
      <trkpt lat="47.82581" lon="7.09068">
        <ele>515.4</ele>
        <time>2014-06-21T12:53:13Z</time>
      </trkpt>
      <trkpt lat="47.82579" lon="7.09071">
        <ele>517.33</ele>
        <time>2014-06-21T12:53:15Z</time>
      </trkpt>
      <trkpt lat="47.82578" lon="7.09072">
        <ele>512.04</ele>
        <time>2014-06-21T12:53:16Z</time>
      </trkpt>
      <trkpt lat="47.82577" lon="7.09074">
        <ele>507.23</ele>
        <time>2014-06-21T12:53:17Z</time>
      </trkpt>
      <trkpt lat="47.82576" lon="7.09076">
        <ele>508.19</ele>
        <time>2014-06-21T12:53:18Z</time>
      </trkpt>
      <trkpt lat="47.82576" lon="7.09077">
        <ele>515.88</ele>
        <time>2014-06-21T12:53:19Z</time>
      </trkpt>
      <trkpt lat="47.82575" lon="7.09079">
        <ele>515.4</ele>
        <time>2014-06-21T12:53:20Z</time>
      </trkpt>
      <trkpt lat="47.82572" lon="7.09082">
        <ele>517.33</ele>
        <time>2014-06-21T12:53:24Z</time>
      </trkpt>
      <trkpt lat="47.82569" lon="7.0909">
        <ele>513.96</ele>
        <time>2014-06-21T12:53:28Z</time>
      </trkpt>
      <trkpt lat="47.82569" lon="7.09092">
        <ele>514.92</ele>
        <time>2014-06-21T12:53:29Z</time>
      </trkpt>
      <trkpt lat="47.82568" lon="7.09093">
        <ele>518.29</ele>
        <time>2014-06-21T12:53:30Z</time>
      </trkpt>
      <trkpt lat="47.82566" lon="7.09095">
        <ele>521.17</ele>
        <time>2014-06-21T12:53:32Z</time>
      </trkpt>
      <trkpt lat="47.82565" lon="7.09096">
        <ele>519.73</ele>
        <time>2014-06-21T12:53:33Z</time>
      </trkpt>
      <trkpt lat="47.82564" lon="7.09097">
        <ele>516.37</ele>
        <time>2014-06-21T12:53:34Z</time>
      </trkpt>
      <trkpt lat="47.82564" lon="7.09098">
        <ele>518.29</ele>
        <time>2014-06-21T12:53:35Z</time>
      </trkpt>
      <trkpt lat="47.82562" lon="7.091">
        <ele>513.96</ele>
        <time>2014-06-21T12:53:37Z</time>
      </trkpt>
      <trkpt lat="47.82559" lon="7.09106">
        <ele>518.29</ele>
        <time>2014-06-21T12:53:42Z</time>
      </trkpt>
      <trkpt lat="47.82559" lon="7.09109">
        <ele>522.61</ele>
        <time>2014-06-21T12:53:44Z</time>
      </trkpt>
      <trkpt lat="47.82558" lon="7.09112">
        <ele>519.73</ele>
        <time>2014-06-21T12:53:45Z</time>
      </trkpt>
      <trkpt lat="47.82556" lon="7.09116">
        <ele>524.06</ele>
        <time>2014-06-21T12:53:47Z</time>
      </trkpt>
      <trkpt lat="47.82554" lon="7.09122">
        <ele>525.02</ele>
        <time>2014-06-21T12:53:49Z</time>
      </trkpt>
      <trkpt lat="47.8255" lon="7.09128">
        <ele>521.17</ele>
        <time>2014-06-21T12:53:52Z</time>
      </trkpt>
      <trkpt lat="47.82546" lon="7.09137">
        <ele>525.02</ele>
        <time>2014-06-21T12:53:57Z</time>
      </trkpt>
      <trkpt lat="47.82541" lon="7.09145">
        <ele>519.25</ele>
        <time>2014-06-21T12:54:02Z</time>
      </trkpt>
      <trkpt lat="47.82541" lon="7.09149">
        <ele>524.54</ele>
        <time>2014-06-21T12:54:04Z</time>
      </trkpt>
      <trkpt lat="47.82541" lon="7.0915">
        <ele>524.06</ele>
        <time>2014-06-21T12:54:05Z</time>
      </trkpt>
      <trkpt lat="47.82542" lon="7.09153">
        <ele>524.54</ele>
        <time>2014-06-21T12:54:06Z</time>
      </trkpt>
      <trkpt lat="47.82544" lon="7.09157">
        <ele>524.54</ele>
        <time>2014-06-21T12:54:08Z</time>
      </trkpt>
      <trkpt lat="47.82545" lon="7.09167">
        <ele>529.82</ele>
        <time>2014-06-21T12:54:13Z</time>
      </trkpt>
      <trkpt lat="47.82546" lon="7.09169">
        <ele>529.34</ele>
        <time>2014-06-21T12:54:14Z</time>
      </trkpt>
      <trkpt lat="47.82547" lon="7.09173">
        <ele>523.09</ele>
        <time>2014-06-21T12:54:16Z</time>
      </trkpt>
      <trkpt lat="47.82548" lon="7.09175">
        <ele>524.06</ele>
        <time>2014-06-21T12:54:17Z</time>
      </trkpt>
      <trkpt lat="47.82549" lon="7.09176">
        <ele>520.21</ele>
        <time>2014-06-21T12:54:18Z</time>
      </trkpt>
      <trkpt lat="47.8255" lon="7.09178">
        <ele>521.17</ele>
        <time>2014-06-21T12:54:19Z</time>
      </trkpt>
      <trkpt lat="47.82552" lon="7.09181">
        <ele>526.94</ele>
        <time>2014-06-21T12:54:21Z</time>
      </trkpt>
      <trkpt lat="47.82553" lon="7.09181">
        <ele>524.06</ele>
        <time>2014-06-21T12:54:22Z</time>
      </trkpt>
      <trkpt lat="47.82555" lon="7.09184">
        <ele>526.46</ele>
        <time>2014-06-21T12:54:25Z</time>
      </trkpt>
      <trkpt lat="47.82556" lon="7.09185">
        <ele>528.38</ele>
        <time>2014-06-21T12:54:27Z</time>
      </trkpt>
      <trkpt lat="47.82566" lon="7.09195">
        <ele>529.82</ele>
        <time>2014-06-21T12:54:36Z</time>
      </trkpt>
      <trkpt lat="47.82571" lon="7.09201">
        <ele>530.79</ele>
        <time>2014-06-21T12:54:41Z</time>
      </trkpt>
      <trkpt lat="47.82572" lon="7.09203">
        <ele>530.79</ele>
        <time>2014-06-21T12:54:42Z</time>
      </trkpt>
      <trkpt lat="47.82573" lon="7.09204">
        <ele>527.42</ele>
        <time>2014-06-21T12:54:43Z</time>
      </trkpt>
      <trkpt lat="47.82573" lon="7.09205">
        <ele>527.42</ele>
        <time>2014-06-21T12:54:44Z</time>
      </trkpt>
      <trkpt lat="47.82574" lon="7.09206">
        <ele>523.09</ele>
        <time>2014-06-21T12:54:45Z</time>
      </trkpt>
      <trkpt lat="47.82575" lon="7.09207">
        <ele>523.58</ele>
        <time>2014-06-21T12:54:46Z</time>
      </trkpt>
      <trkpt lat="47.82578" lon="7.09213">
        <ele>527.9</ele>
        <time>2014-06-21T12:54:50Z</time>
      </trkpt>
      <trkpt lat="47.82578" lon="7.09214">
        <ele>531.75</ele>
        <time>2014-06-21T12:54:51Z</time>
      </trkpt>
      <trkpt lat="47.82579" lon="7.09215">
        <ele>530.79</ele>
        <time>2014-06-21T12:54:52Z</time>
      </trkpt>
      <trkpt lat="47.82583" lon="7.09223">
        <ele>526.46</ele>
        <time>2014-06-21T12:54:56Z</time>
      </trkpt>
      <trkpt lat="47.82586" lon="7.09234">
        <ele>529.82</ele>
        <time>2014-06-21T12:55:02Z</time>
      </trkpt>
      <trkpt lat="47.82586" lon="7.09236">
        <ele>529.82</ele>
        <time>2014-06-21T12:55:03Z</time>
      </trkpt>
      <trkpt lat="47.82587" lon="7.09242">
        <ele>530.79</ele>
        <time>2014-06-21T12:55:08Z</time>
      </trkpt>
      <trkpt lat="47.82589" lon="7.09245">
        <ele>535.11</ele>
        <time>2014-06-21T12:55:10Z</time>
      </trkpt>
      <trkpt lat="47.82589" lon="7.09247">
        <ele>531.75</ele>
        <time>2014-06-21T12:55:11Z</time>
      </trkpt>
      <trkpt lat="47.82591" lon="7.0926">
        <ele>527.9</ele>
        <time>2014-06-21T12:55:17Z</time>
      </trkpt>
      <trkpt lat="47.82593" lon="7.09268">
        <ele>532.23</ele>
        <time>2014-06-21T12:55:22Z</time>
      </trkpt>
      <trkpt lat="47.82593" lon="7.0927">
        <ele>532.71</ele>
        <time>2014-06-21T12:55:23Z</time>
      </trkpt>
      <trkpt lat="47.82595" lon="7.09275">
        <ele>536.55</ele>
        <time>2014-06-21T12:55:27Z</time>
      </trkpt>
      <trkpt lat="47.82597" lon="7.09288">
        <ele>530.3</ele>
        <time>2014-06-21T12:55:33Z</time>
      </trkpt>
      <trkpt lat="47.82597" lon="7.09291">
        <ele>530.3</ele>
        <time>2014-06-21T12:55:34Z</time>
      </trkpt>
      <trkpt lat="47.82598" lon="7.09294">
        <ele>526.46</ele>
        <time>2014-06-21T12:55:36Z</time>
      </trkpt>
      <trkpt lat="47.82598" lon="7.09296">
        <ele>527.42</ele>
        <time>2014-06-21T12:55:37Z</time>
      </trkpt>
      <trkpt lat="47.82599" lon="7.09301">
        <ele>531.27</ele>
        <time>2014-06-21T12:55:39Z</time>
      </trkpt>
      <trkpt lat="47.826" lon="7.09305">
        <ele>534.15</ele>
        <time>2014-06-21T12:55:41Z</time>
      </trkpt>
      <trkpt lat="47.82603" lon="7.09321">
        <ele>537.03</ele>
        <time>2014-06-21T12:55:48Z</time>
      </trkpt>
      <trkpt lat="47.82604" lon="7.09323">
        <ele>533.67</ele>
        <time>2014-06-21T12:55:49Z</time>
      </trkpt>
      <trkpt lat="47.82605" lon="7.09331">
        <ele>537.51</ele>
        <time>2014-06-21T12:55:53Z</time>
      </trkpt>
      <trkpt lat="47.82605" lon="7.09332">
        <ele>537.03</ele>
        <time>2014-06-21T12:55:54Z</time>
      </trkpt>
      <trkpt lat="47.82605" lon="7.09336">
        <ele>538.96</ele>
        <time>2014-06-21T12:55:56Z</time>
      </trkpt>
      <trkpt lat="47.82605" lon="7.09338">
        <ele>538.48</ele>
        <time>2014-06-21T12:55:57Z</time>
      </trkpt>
      <trkpt lat="47.82606" lon="7.09347">
        <ele>537.51</ele>
        <time>2014-06-21T12:56:02Z</time>
      </trkpt>
      <trkpt lat="47.82608" lon="7.09353">
        <ele>534.63</ele>
        <time>2014-06-21T12:56:04Z</time>
      </trkpt>
      <trkpt lat="47.8261" lon="7.09359">
        <ele>538.48</ele>
        <time>2014-06-21T12:56:06Z</time>
      </trkpt>
      <trkpt lat="47.82611" lon="7.09367">
        <ele>541.36</ele>
        <time>2014-06-21T12:56:10Z</time>
      </trkpt>
      <trkpt lat="47.82612" lon="7.09368">
        <ele>533.19</ele>
        <time>2014-06-21T12:56:11Z</time>
      </trkpt>
      <trkpt lat="47.82613" lon="7.09381">
        <ele>537.99</ele>
        <time>2014-06-21T12:56:17Z</time>
      </trkpt>
      <trkpt lat="47.82613" lon="7.09383">
        <ele>537.03</ele>
        <time>2014-06-21T12:56:18Z</time>
      </trkpt>
      <trkpt lat="47.82615" lon="7.0939">
        <ele>536.55</ele>
        <time>2014-06-21T12:56:22Z</time>
      </trkpt>
      <trkpt lat="47.82616" lon="7.09392">
        <ele>538.48</ele>
        <time>2014-06-21T12:56:23Z</time>
      </trkpt>
      <trkpt lat="47.82618" lon="7.09402">
        <ele>538.96</ele>
        <time>2014-06-21T12:56:28Z</time>
      </trkpt>
      <trkpt lat="47.82618" lon="7.09405">
        <ele>540.4</ele>
        <time>2014-06-21T12:56:30Z</time>
      </trkpt>
      <trkpt lat="47.82618" lon="7.09406">
        <ele>540.88</ele>
        <time>2014-06-21T12:56:31Z</time>
      </trkpt>
      <trkpt lat="47.8262" lon="7.09411">
        <ele>543.28</ele>
        <time>2014-06-21T12:56:34Z</time>
      </trkpt>
      <trkpt lat="47.8262" lon="7.09419">
        <ele>540.4</ele>
        <time>2014-06-21T12:56:38Z</time>
      </trkpt>
      <trkpt lat="47.82621" lon="7.09421">
        <ele>540.4</ele>
        <time>2014-06-21T12:56:39Z</time>
      </trkpt>
      <trkpt lat="47.82627" lon="7.09445">
        <ele>536.55</ele>
        <time>2014-06-21T12:56:51Z</time>
      </trkpt>
      <trkpt lat="47.82628" lon="7.09447">
        <ele>538.48</ele>
        <time>2014-06-21T12:56:52Z</time>
      </trkpt>
      <trkpt lat="47.82631" lon="7.09454">
        <ele>540.88</ele>
        <time>2014-06-21T12:56:55Z</time>
      </trkpt>
      <trkpt lat="47.82632" lon="7.09456">
        <ele>538.96</ele>
        <time>2014-06-21T12:56:56Z</time>
      </trkpt>
      <trkpt lat="47.82635" lon="7.09468">
        <ele>543.28</ele>
        <time>2014-06-21T12:57:03Z</time>
      </trkpt>
      <trkpt lat="47.82636" lon="7.09472">
        <ele>544.72</ele>
        <time>2014-06-21T12:57:05Z</time>
      </trkpt>
      <trkpt lat="47.82638" lon="7.09479">
        <ele>546.17</ele>
        <time>2014-06-21T12:57:09Z</time>
      </trkpt>
      <trkpt lat="47.82643" lon="7.09493">
        <ele>548.09</ele>
        <time>2014-06-21T12:57:16Z</time>
      </trkpt>
      <trkpt lat="47.82643" lon="7.09497">
        <ele>544.72</ele>
        <time>2014-06-21T12:57:18Z</time>
      </trkpt>
      <trkpt lat="47.82646" lon="7.09504">
        <ele>545.69</ele>
        <time>2014-06-21T12:57:22Z</time>
      </trkpt>
      <trkpt lat="47.82647" lon="7.09508">
        <ele>549.53</ele>
        <time>2014-06-21T12:57:24Z</time>
      </trkpt>
      <trkpt lat="47.82648" lon="7.0951">
        <ele>548.57</ele>
        <time>2014-06-21T12:57:25Z</time>
      </trkpt>
      <trkpt lat="47.82651" lon="7.09515">
        <ele>545.69</ele>
        <time>2014-06-21T12:57:28Z</time>
      </trkpt>
      <trkpt lat="47.82652" lon="7.09519">
        <ele>549.53</ele>
        <time>2014-06-21T12:57:30Z</time>
      </trkpt>
      <trkpt lat="47.82653" lon="7.09521">
        <ele>546.65</ele>
        <time>2014-06-21T12:57:31Z</time>
      </trkpt>
      <trkpt lat="47.82656" lon="7.09527">
        <ele>550.01</ele>
        <time>2014-06-21T12:57:34Z</time>
      </trkpt>
      <trkpt lat="47.82659" lon="7.09538">
        <ele>545.69</ele>
        <time>2014-06-21T12:57:40Z</time>
      </trkpt>
      <trkpt lat="47.82661" lon="7.09543">
        <ele>548.57</ele>
        <time>2014-06-21T12:57:43Z</time>
      </trkpt>
      <trkpt lat="47.82664" lon="7.09549">
        <ele>550.49</ele>
        <time>2014-06-21T12:57:46Z</time>
      </trkpt>
      <trkpt lat="47.82667" lon="7.09557">
        <ele>544.24</ele>
        <time>2014-06-21T12:57:50Z</time>
      </trkpt>
      <trkpt lat="47.82668" lon="7.0956">
        <ele>543.76</ele>
        <time>2014-06-21T12:57:52Z</time>
      </trkpt>
      <trkpt lat="47.8267" lon="7.09565">
        <ele>548.09</ele>
        <time>2014-06-21T12:57:55Z</time>
      </trkpt>
      <trkpt lat="47.82671" lon="7.09567">
        <ele>546.65</ele>
        <time>2014-06-21T12:57:56Z</time>
      </trkpt>
      <trkpt lat="47.82672" lon="7.09578">
        <ele>544.24</ele>
        <time>2014-06-21T12:58:01Z</time>
      </trkpt>
      <trkpt lat="47.82675" lon="7.09582">
        <ele>542.8</ele>
        <time>2014-06-21T12:58:03Z</time>
      </trkpt>
      <trkpt lat="47.82678" lon="7.09588">
        <ele>549.05</ele>
        <time>2014-06-21T12:58:06Z</time>
      </trkpt>
      <trkpt lat="47.82679" lon="7.09589">
        <ele>549.05</ele>
        <time>2014-06-21T12:58:07Z</time>
      </trkpt>
      <trkpt lat="47.8268" lon="7.09595">
        <ele>547.61</ele>
        <time>2014-06-21T12:58:12Z</time>
      </trkpt>
      <trkpt lat="47.82682" lon="7.096">
        <ele>549.05</ele>
        <time>2014-06-21T12:58:15Z</time>
      </trkpt>
      <trkpt lat="47.82695" lon="7.09627">
        <ele>550.97</ele>
        <time>2014-06-21T12:58:29Z</time>
      </trkpt>
      <trkpt lat="47.82699" lon="7.09636">
        <ele>550.97</ele>
        <time>2014-06-21T12:58:36Z</time>
      </trkpt>
      <trkpt lat="47.827" lon="7.0964">
        <ele>547.61</ele>
        <time>2014-06-21T12:58:38Z</time>
      </trkpt>
      <trkpt lat="47.82699" lon="7.09642">
        <ele>551.45</ele>
        <time>2014-06-21T12:58:39Z</time>
      </trkpt>
      <trkpt lat="47.82699" lon="7.09644">
        <ele>550.49</ele>
        <time>2014-06-21T12:58:40Z</time>
      </trkpt>
      <trkpt lat="47.82699" lon="7.0965">
        <ele>552.9</ele>
        <time>2014-06-21T12:58:42Z</time>
      </trkpt>
      <trkpt lat="47.82699" lon="7.09655">
        <ele>555.3</ele>
        <time>2014-06-21T12:58:44Z</time>
      </trkpt>
      <trkpt lat="47.82701" lon="7.09684">
        <ele>556.26</ele>
        <time>2014-06-21T12:58:58Z</time>
      </trkpt>
      <trkpt lat="47.82701" lon="7.09688">
        <ele>557.22</ele>
        <time>2014-06-21T12:59:00Z</time>
      </trkpt>
      <trkpt lat="47.82702" lon="7.09694">
        <ele>555.78</ele>
        <time>2014-06-21T12:59:04Z</time>
      </trkpt>
      <trkpt lat="47.82703" lon="7.09701">
        <ele>555.3</ele>
        <time>2014-06-21T12:59:08Z</time>
      </trkpt>
      <trkpt lat="47.82714" lon="7.09735">
        <ele>554.82</ele>
        <time>2014-06-21T12:59:24Z</time>
      </trkpt>
      <trkpt lat="47.82715" lon="7.0974">
        <ele>551.45</ele>
        <time>2014-06-21T12:59:28Z</time>
      </trkpt>
      <trkpt lat="47.8272" lon="7.09752">
        <ele>557.7</ele>
        <time>2014-06-21T12:59:34Z</time>
      </trkpt>
      <trkpt lat="47.82723" lon="7.09761">
        <ele>552.41</ele>
        <time>2014-06-21T12:59:39Z</time>
      </trkpt>
      <trkpt lat="47.82723" lon="7.09763">
        <ele>552.9</ele>
        <time>2014-06-21T12:59:40Z</time>
      </trkpt>
      <trkpt lat="47.82725" lon="7.09771">
        <ele>554.82</ele>
        <time>2014-06-21T12:59:44Z</time>
      </trkpt>
      <trkpt lat="47.82726" lon="7.09776">
        <ele>559.14</ele>
        <time>2014-06-21T12:59:46Z</time>
      </trkpt>
      <trkpt lat="47.82729" lon="7.09782">
        <ele>562.51</ele>
        <time>2014-06-21T12:59:49Z</time>
      </trkpt>
      <trkpt lat="47.82737" lon="7.09801">
        <ele>561.55</ele>
        <time>2014-06-21T13:00:00Z</time>
      </trkpt>
      <trkpt lat="47.82739" lon="7.09817">
        <ele>557.7</ele>
        <time>2014-06-21T13:00:09Z</time>
      </trkpt>
      <trkpt lat="47.82739" lon="7.09827">
        <ele>559.14</ele>
        <time>2014-06-21T13:00:13Z</time>
      </trkpt>
      <trkpt lat="47.8274" lon="7.09838">
        <ele>556.26</ele>
        <time>2014-06-21T13:00:18Z</time>
      </trkpt>
      <trkpt lat="47.82738" lon="7.09846">
        <ele>562.03</ele>
        <time>2014-06-21T13:00:23Z</time>
      </trkpt>
      <trkpt lat="47.82738" lon="7.09847">
        <ele>560.59</ele>
        <time>2014-06-21T13:00:24Z</time>
      </trkpt>
      <trkpt lat="47.82738" lon="7.09849">
        <ele>560.59</ele>
        <time>2014-06-21T13:00:25Z</time>
      </trkpt>
      <trkpt lat="47.82736" lon="7.09857">
        <ele>555.3</ele>
        <time>2014-06-21T13:00:30Z</time>
      </trkpt>
      <trkpt lat="47.82736" lon="7.09858">
        <ele>558.18</ele>
        <time>2014-06-21T13:00:31Z</time>
      </trkpt>
      <trkpt lat="47.82734" lon="7.09862">
        <ele>563.47</ele>
        <time>2014-06-21T13:00:34Z</time>
      </trkpt>
      <trkpt lat="47.82734" lon="7.09864">
        <ele>561.07</ele>
        <time>2014-06-21T13:00:35Z</time>
      </trkpt>
      <trkpt lat="47.82734" lon="7.09867">
        <ele>564.91</ele>
        <time>2014-06-21T13:00:37Z</time>
      </trkpt>
      <trkpt lat="47.82728" lon="7.09873">
        <ele>567.8</ele>
        <time>2014-06-21T13:00:44Z</time>
      </trkpt>
      <trkpt lat="47.82724" lon="7.09886">
        <ele>568.76</ele>
        <time>2014-06-21T13:00:51Z</time>
      </trkpt>
      <trkpt lat="47.82712" lon="7.09916">
        <ele>567.8</ele>
        <time>2014-06-21T13:01:08Z</time>
      </trkpt>
      <trkpt lat="47.8271" lon="7.09918">
        <ele>567.8</ele>
        <time>2014-06-21T13:01:09Z</time>
      </trkpt>
      <trkpt lat="47.82707" lon="7.09922">
        <ele>563.95</ele>
        <time>2014-06-21T13:01:11Z</time>
      </trkpt>
      <trkpt lat="47.82706" lon="7.09925">
        <ele>564.43</ele>
        <time>2014-06-21T13:01:12Z</time>
      </trkpt>
      <trkpt lat="47.82705" lon="7.09926">
        <ele>568.76</ele>
        <time>2014-06-21T13:01:13Z</time>
      </trkpt>
      <trkpt lat="47.82704" lon="7.09929">
        <ele>568.76</ele>
        <time>2014-06-21T13:01:14Z</time>
      </trkpt>
      <trkpt lat="47.82702" lon="7.09936">
        <ele>562.99</ele>
        <time>2014-06-21T13:01:18Z</time>
      </trkpt>
      <trkpt lat="47.82698" lon="7.09948">
        <ele>567.32</ele>
        <time>2014-06-21T13:01:24Z</time>
      </trkpt>
      <trkpt lat="47.82698" lon="7.09953">
        <ele>569.24</ele>
        <time>2014-06-21T13:01:27Z</time>
      </trkpt>
      <trkpt lat="47.82694" lon="7.09966">
        <ele>572.6</ele>
        <time>2014-06-21T13:01:33Z</time>
      </trkpt>
      <trkpt lat="47.82691" lon="7.09986">
        <ele>574.04</ele>
        <time>2014-06-21T13:01:42Z</time>
      </trkpt>
      <trkpt lat="47.82681" lon="7.10018">
        <ele>575.97</ele>
        <time>2014-06-21T13:01:57Z</time>
      </trkpt>
      <trkpt lat="47.8268" lon="7.10021">
        <ele>574.53</ele>
        <time>2014-06-21T13:01:59Z</time>
      </trkpt>
      <trkpt lat="47.82677" lon="7.10031">
        <ele>570.68</ele>
        <time>2014-06-21T13:02:06Z</time>
      </trkpt>
      <trkpt lat="47.82677" lon="7.10034">
        <ele>574.04</ele>
        <time>2014-06-21T13:02:08Z</time>
      </trkpt>
      <trkpt lat="47.82677" lon="7.10044">
        <ele>570.2</ele>
        <time>2014-06-21T13:02:12Z</time>
      </trkpt>
      <trkpt lat="47.82676" lon="7.10046">
        <ele>573.56</ele>
        <time>2014-06-21T13:02:13Z</time>
      </trkpt>
      <trkpt lat="47.82671" lon="7.10062">
        <ele>567.8</ele>
        <time>2014-06-21T13:02:22Z</time>
      </trkpt>
      <trkpt lat="47.8267" lon="7.10064">
        <ele>572.6</ele>
        <time>2014-06-21T13:02:23Z</time>
      </trkpt>
      <trkpt lat="47.82669" lon="7.10067">
        <ele>574.53</ele>
        <time>2014-06-21T13:02:25Z</time>
      </trkpt>
      <trkpt lat="47.82668" lon="7.10071">
        <ele>578.85</ele>
        <time>2014-06-21T13:02:28Z</time>
      </trkpt>
      <trkpt lat="47.82663" lon="7.10087">
        <ele>577.89</ele>
        <time>2014-06-21T13:02:38Z</time>
      </trkpt>
      <trkpt lat="47.82662" lon="7.10089">
        <ele>579.33</ele>
        <time>2014-06-21T13:02:40Z</time>
      </trkpt>
      <trkpt lat="47.8266" lon="7.10095">
        <ele>576.93</ele>
        <time>2014-06-21T13:02:44Z</time>
      </trkpt>
      <trkpt lat="47.82658" lon="7.10106">
        <ele>573.56</ele>
        <time>2014-06-21T13:02:49Z</time>
      </trkpt>
      <trkpt lat="47.82657" lon="7.10108">
        <ele>573.56</ele>
        <time>2014-06-21T13:02:50Z</time>
      </trkpt>
      <trkpt lat="47.82656" lon="7.1011">
        <ele>577.89</ele>
        <time>2014-06-21T13:02:52Z</time>
      </trkpt>
      <trkpt lat="47.82655" lon="7.10115">
        <ele>574.53</ele>
        <time>2014-06-21T13:02:54Z</time>
      </trkpt>
      <trkpt lat="47.82654" lon="7.1012">
        <ele>578.37</ele>
        <time>2014-06-21T13:02:56Z</time>
      </trkpt>
      <trkpt lat="47.82652" lon="7.10131">
        <ele>581.73</ele>
        <time>2014-06-21T13:03:01Z</time>
      </trkpt>
      <trkpt lat="47.82652" lon="7.10134">
        <ele>581.73</ele>
        <time>2014-06-21T13:03:02Z</time>
      </trkpt>
      <trkpt lat="47.82646" lon="7.1015">
        <ele>581.25</ele>
        <time>2014-06-21T13:03:08Z</time>
      </trkpt>
      <trkpt lat="47.82644" lon="7.10158">
        <ele>575.49</ele>
        <time>2014-06-21T13:03:13Z</time>
      </trkpt>
      <trkpt lat="47.82643" lon="7.10161">
        <ele>579.81</ele>
        <time>2014-06-21T13:03:15Z</time>
      </trkpt>
      <trkpt lat="47.82642" lon="7.10173">
        <ele>583.66</ele>
        <time>2014-06-21T13:03:21Z</time>
      </trkpt>
      <trkpt lat="47.82642" lon="7.10176">
        <ele>581.73</ele>
        <time>2014-06-21T13:03:22Z</time>
      </trkpt>
      <trkpt lat="47.82638" lon="7.10201">
        <ele>584.14</ele>
        <time>2014-06-21T13:03:36Z</time>
      </trkpt>
      <trkpt lat="47.82638" lon="7.10204">
        <ele>587.98</ele>
        <time>2014-06-21T13:03:38Z</time>
      </trkpt>
      <trkpt lat="47.82632" lon="7.10223">
        <ele>587.98</ele>
        <time>2014-06-21T13:03:47Z</time>
      </trkpt>
      <trkpt lat="47.82628" lon="7.10244">
        <ele>584.62</ele>
        <time>2014-06-21T13:03:55Z</time>
      </trkpt>
      <trkpt lat="47.82627" lon="7.10251">
        <ele>584.62</ele>
        <time>2014-06-21T13:03:59Z</time>
      </trkpt>
      <trkpt lat="47.82625" lon="7.10259">
        <ele>587.5</ele>
        <time>2014-06-21T13:04:03Z</time>
      </trkpt>
      <trkpt lat="47.82618" lon="7.10288">
        <ele>582.7</ele>
        <time>2014-06-21T13:04:15Z</time>
      </trkpt>
      <trkpt lat="47.82616" lon="7.10297">
        <ele>586.06</ele>
        <time>2014-06-21T13:04:19Z</time>
      </trkpt>
      <trkpt lat="47.82614" lon="7.10305">
        <ele>589.91</ele>
        <time>2014-06-21T13:04:23Z</time>
      </trkpt>
      <trkpt lat="47.82613" lon="7.10308">
        <ele>590.87</ele>
        <time>2014-06-21T13:04:24Z</time>
      </trkpt>
      <trkpt lat="47.82612" lon="7.10313">
        <ele>591.83</ele>
        <time>2014-06-21T13:04:27Z</time>
      </trkpt>
      <trkpt lat="47.8261" lon="7.10321">
        <ele>588.95</ele>
        <time>2014-06-21T13:04:30Z</time>
      </trkpt>
      <trkpt lat="47.8261" lon="7.10326">
        <ele>585.58</ele>
        <time>2014-06-21T13:04:32Z</time>
      </trkpt>
      <trkpt lat="47.82609" lon="7.10328">
        <ele>585.58</ele>
        <time>2014-06-21T13:04:33Z</time>
      </trkpt>
      <trkpt lat="47.82607" lon="7.10336">
        <ele>586.06</ele>
        <time>2014-06-21T13:04:37Z</time>
      </trkpt>
      <trkpt lat="47.82608" lon="7.1034">
        <ele>588.95</ele>
        <time>2014-06-21T13:04:39Z</time>
      </trkpt>
      <trkpt lat="47.82608" lon="7.10346">
        <ele>589.43</ele>
        <time>2014-06-21T13:04:41Z</time>
      </trkpt>
      <trkpt lat="47.82608" lon="7.10349">
        <ele>590.87</ele>
        <time>2014-06-21T13:04:42Z</time>
      </trkpt>
      <trkpt lat="47.82605" lon="7.10361">
        <ele>591.83</ele>
        <time>2014-06-21T13:04:46Z</time>
      </trkpt>
      <trkpt lat="47.82601" lon="7.10368">
        <ele>587.98</ele>
        <time>2014-06-21T13:04:49Z</time>
      </trkpt>
      <trkpt lat="47.82601" lon="7.10369">
        <ele>587.98</ele>
        <time>2014-06-21T13:04:50Z</time>
      </trkpt>
      <trkpt lat="47.82594" lon="7.10375">
        <ele>592.79</ele>
        <time>2014-06-21T13:04:55Z</time>
      </trkpt>
      <trkpt lat="47.82593" lon="7.10375">
        <ele>589.43</ele>
        <time>2014-06-21T13:04:56Z</time>
      </trkpt>
      <trkpt lat="47.82589" lon="7.10378">
        <ele>584.62</ele>
        <time>2014-06-21T13:05:00Z</time>
      </trkpt>
      <trkpt lat="47.82588" lon="7.1038">
        <ele>586.54</ele>
        <time>2014-06-21T13:05:01Z</time>
      </trkpt>
      <trkpt lat="47.82587" lon="7.10382">
        <ele>583.18</ele>
        <time>2014-06-21T13:05:03Z</time>
      </trkpt>
      <trkpt lat="47.82587" lon="7.10384">
        <ele>585.1</ele>
        <time>2014-06-21T13:05:05Z</time>
      </trkpt>
      <trkpt lat="47.82588" lon="7.10392">
        <ele>587.98</ele>
        <time>2014-06-21T13:05:08Z</time>
      </trkpt>
      <trkpt lat="47.82588" lon="7.10394">
        <ele>587.02</ele>
        <time>2014-06-21T13:05:09Z</time>
      </trkpt>
      <trkpt lat="47.82591" lon="7.104">
        <ele>590.39</ele>
        <time>2014-06-21T13:05:15Z</time>
      </trkpt>
      <trkpt lat="47.82591" lon="7.104">
        <ele>585.1</ele>
        <time>2014-06-21T13:05:16Z</time>
      </trkpt>
      <trkpt lat="47.82591" lon="7.10401">
        <ele>588.46</ele>
        <time>2014-06-21T13:05:17Z</time>
      </trkpt>
      <trkpt lat="47.8259" lon="7.10404">
        <ele>582.7</ele>
        <time>2014-06-21T13:05:21Z</time>
      </trkpt>
      <trkpt lat="47.82589" lon="7.10405">
        <ele>586.06</ele>
        <time>2014-06-21T13:05:22Z</time>
      </trkpt>
      <trkpt lat="47.82589" lon="7.10406">
        <ele>589.43</ele>
        <time>2014-06-21T13:05:23Z</time>
      </trkpt>
      <trkpt lat="47.82588" lon="7.10408">
        <ele>587.5</ele>
        <time>2014-06-21T13:05:24Z</time>
      </trkpt>
      <trkpt lat="47.82581" lon="7.10412">
        <ele>588.46</ele>
        <time>2014-06-21T13:05:31Z</time>
      </trkpt>
      <trkpt lat="47.82581" lon="7.10413">
        <ele>585.1</ele>
        <time>2014-06-21T13:05:32Z</time>
      </trkpt>
      <trkpt lat="47.8258" lon="7.10413">
        <ele>586.54</ele>
        <time>2014-06-21T13:05:33Z</time>
      </trkpt>
      <trkpt lat="47.82579" lon="7.10413">
        <ele>581.73</ele>
        <time>2014-06-21T13:05:34Z</time>
      </trkpt>
      <trkpt lat="47.82579" lon="7.10413">
        <ele>586.54</ele>
        <time>2014-06-21T13:05:35Z</time>
      </trkpt>
      <trkpt lat="47.82576" lon="7.1042">
        <ele>585.1</ele>
        <time>2014-06-21T13:05:38Z</time>
      </trkpt>
      <trkpt lat="47.82573" lon="7.10422">
        <ele>584.62</ele>
        <time>2014-06-21T13:05:40Z</time>
      </trkpt>
      <trkpt lat="47.8257" lon="7.10426">
        <ele>583.66</ele>
        <time>2014-06-21T13:05:43Z</time>
      </trkpt>
      <trkpt lat="47.82563" lon="7.10429">
        <ele>578.85</ele>
        <time>2014-06-21T13:05:51Z</time>
      </trkpt>
      <trkpt lat="47.82562" lon="7.1043">
        <ele>584.62</ele>
        <time>2014-06-21T13:05:52Z</time>
      </trkpt>
      <trkpt lat="47.82561" lon="7.1043">
        <ele>583.66</ele>
        <time>2014-06-21T13:05:53Z</time>
      </trkpt>
      <trkpt lat="47.82553" lon="7.10434">
        <ele>580.29</ele>
        <time>2014-06-21T13:06:00Z</time>
      </trkpt>
      <trkpt lat="47.8255" lon="7.10437">
        <ele>575.49</ele>
        <time>2014-06-21T13:06:03Z</time>
      </trkpt>
      <trkpt lat="47.82549" lon="7.10437">
        <ele>575.49</ele>
        <time>2014-06-21T13:06:04Z</time>
      </trkpt>
      <trkpt lat="47.82545" lon="7.10437">
        <ele>579.33</ele>
        <time>2014-06-21T13:06:07Z</time>
      </trkpt>
      <trkpt lat="47.82544" lon="7.10438">
        <ele>583.18</ele>
        <time>2014-06-21T13:06:09Z</time>
      </trkpt>
      <trkpt lat="47.82541" lon="7.10439">
        <ele>577.41</ele>
        <time>2014-06-21T13:06:11Z</time>
      </trkpt>
      <trkpt lat="47.8254" lon="7.10439">
        <ele>574.53</ele>
        <time>2014-06-21T13:06:12Z</time>
      </trkpt>
      <trkpt lat="47.82538" lon="7.1044">
        <ele>574.53</ele>
        <time>2014-06-21T13:06:13Z</time>
      </trkpt>
      <trkpt lat="47.82533" lon="7.1044">
        <ele>576.93</ele>
        <time>2014-06-21T13:06:17Z</time>
      </trkpt>
      <trkpt lat="47.82529" lon="7.10442">
        <ele>573.56</ele>
        <time>2014-06-21T13:06:21Z</time>
      </trkpt>
      <trkpt lat="47.82524" lon="7.10445">
        <ele>577.41</ele>
        <time>2014-06-21T13:06:26Z</time>
      </trkpt>
      <trkpt lat="47.82521" lon="7.10447">
        <ele>571.64</ele>
        <time>2014-06-21T13:06:29Z</time>
      </trkpt>
      <trkpt lat="47.8252" lon="7.10447">
        <ele>567.8</ele>
        <time>2014-06-21T13:06:30Z</time>
      </trkpt>
      <trkpt lat="47.82519" lon="7.10447">
        <ele>570.68</ele>
        <time>2014-06-21T13:06:31Z</time>
      </trkpt>
      <trkpt lat="47.82518" lon="7.10449">
        <ele>574.53</ele>
        <time>2014-06-21T13:06:32Z</time>
      </trkpt>
      <trkpt lat="47.82514" lon="7.10452">
        <ele>569.24</ele>
        <time>2014-06-21T13:06:35Z</time>
      </trkpt>
      <trkpt lat="47.82513" lon="7.10453">
        <ele>565.87</ele>
        <time>2014-06-21T13:06:36Z</time>
      </trkpt>
      <trkpt lat="47.82513" lon="7.10454">
        <ele>565.39</ele>
        <time>2014-06-21T13:06:37Z</time>
      </trkpt>
      <trkpt lat="47.82512" lon="7.10455">
        <ele>569.24</ele>
        <time>2014-06-21T13:06:38Z</time>
      </trkpt>
      <trkpt lat="47.82511" lon="7.10457">
        <ele>573.56</ele>
        <time>2014-06-21T13:06:39Z</time>
      </trkpt>
      <trkpt lat="47.8251" lon="7.10457">
        <ele>573.56</ele>
        <time>2014-06-21T13:06:40Z</time>
      </trkpt>
      <trkpt lat="47.82508" lon="7.1046">
        <ele>565.87</ele>
        <time>2014-06-21T13:06:43Z</time>
      </trkpt>
      <trkpt lat="47.82508" lon="7.10461">
        <ele>565.87</ele>
        <time>2014-06-21T13:06:44Z</time>
      </trkpt>
      <trkpt lat="47.82507" lon="7.10464">
        <ele>569.72</ele>
        <time>2014-06-21T13:06:46Z</time>
      </trkpt>
      <trkpt lat="47.82504" lon="7.1047">
        <ele>568.28</ele>
        <time>2014-06-21T13:06:50Z</time>
      </trkpt>
      <trkpt lat="47.82501" lon="7.10475">
        <ele>563.47</ele>
        <time>2014-06-21T13:06:52Z</time>
      </trkpt>
      <trkpt lat="47.82499" lon="7.1048">
        <ele>566.83</ele>
        <time>2014-06-21T13:06:55Z</time>
      </trkpt>
      <trkpt lat="47.82498" lon="7.10483">
        <ele>570.2</ele>
        <time>2014-06-21T13:06:57Z</time>
      </trkpt>
      <trkpt lat="47.82493" lon="7.10492">
        <ele>566.83</ele>
        <time>2014-06-21T13:07:01Z</time>
      </trkpt>
      <trkpt lat="47.8249" lon="7.10497">
        <ele>563.47</ele>
        <time>2014-06-21T13:07:03Z</time>
      </trkpt>
      <trkpt lat="47.82489" lon="7.10498">
        <ele>564.43</ele>
        <time>2014-06-21T13:07:04Z</time>
      </trkpt>
      <trkpt lat="47.82488" lon="7.10501">
        <ele>560.59</ele>
        <time>2014-06-21T13:07:05Z</time>
      </trkpt>
      <trkpt lat="47.82487" lon="7.10503">
        <ele>562.03</ele>
        <time>2014-06-21T13:07:06Z</time>
      </trkpt>
      <trkpt lat="47.82486" lon="7.10508">
        <ele>558.18</ele>
        <time>2014-06-21T13:07:09Z</time>
      </trkpt>
      <trkpt lat="47.82485" lon="7.10509">
        <ele>564.43</ele>
        <time>2014-06-21T13:07:10Z</time>
      </trkpt>
      <trkpt lat="47.82484" lon="7.1051">
        <ele>560.59</ele>
        <time>2014-06-21T13:07:11Z</time>
      </trkpt>
      <trkpt lat="47.82482" lon="7.10516">
        <ele>564.91</ele>
        <time>2014-06-21T13:07:16Z</time>
      </trkpt>
      <trkpt lat="47.82482" lon="7.10519">
        <ele>565.39</ele>
        <time>2014-06-21T13:07:18Z</time>
      </trkpt>
      <trkpt lat="47.8248" lon="7.10524">
        <ele>558.66</ele>
        <time>2014-06-21T13:07:23Z</time>
      </trkpt>
      <trkpt lat="47.8248" lon="7.10524">
        <ele>555.78</ele>
        <time>2014-06-21T13:07:24Z</time>
      </trkpt>
      <trkpt lat="47.8248" lon="7.10524">
        <ele>555.78</ele>
        <time>2014-06-21T13:07:25Z</time>
      </trkpt>
      <trkpt lat="47.82473" lon="7.10552">
        <ele>559.14</ele>
        <time>2014-06-21T13:07:41Z</time>
      </trkpt>
      <trkpt lat="47.82472" lon="7.10557">
        <ele>553.86</ele>
        <time>2014-06-21T13:07:44Z</time>
      </trkpt>
      <trkpt lat="47.8247" lon="7.10566">
        <ele>558.18</ele>
        <time>2014-06-21T13:07:47Z</time>
      </trkpt>
      <trkpt lat="47.82469" lon="7.10568">
        <ele>557.22</ele>
        <time>2014-06-21T13:07:48Z</time>
      </trkpt>
      <trkpt lat="47.82466" lon="7.10579">
        <ele>553.86</ele>
        <time>2014-06-21T13:07:53Z</time>
      </trkpt>
      <trkpt lat="47.82466" lon="7.10582">
        <ele>552.41</ele>
        <time>2014-06-21T13:07:55Z</time>
      </trkpt>
      <trkpt lat="47.82466" lon="7.10584">
        <ele>549.05</ele>
        <time>2014-06-21T13:07:56Z</time>
      </trkpt>
      <trkpt lat="47.82466" lon="7.10584">
        <ele>549.05</ele>
        <time>2014-06-21T13:07:57Z</time>
      </trkpt>
      <trkpt lat="47.82462" lon="7.10589">
        <ele>545.69</ele>
        <time>2014-06-21T13:08:00Z</time>
      </trkpt>
      <trkpt lat="47.82459" lon="7.10593">
        <ele>549.05</ele>
        <time>2014-06-21T13:08:04Z</time>
      </trkpt>
      <trkpt lat="47.82454" lon="7.10595">
        <ele>552.9</ele>
        <time>2014-06-21T13:08:10Z</time>
      </trkpt>
      <trkpt lat="47.82454" lon="7.10595">
        <ele>549.05</ele>
        <time>2014-06-21T13:08:11Z</time>
      </trkpt>
      <trkpt lat="47.82454" lon="7.10595">
        <ele>548.09</ele>
        <time>2014-06-21T13:08:13Z</time>
      </trkpt>
      <trkpt lat="47.82453" lon="7.10595">
        <ele>553.38</ele>
        <time>2014-06-21T13:08:23Z</time>
      </trkpt>
      <trkpt lat="47.82451" lon="7.10597">
        <ele>548.09</ele>
        <time>2014-06-21T13:08:25Z</time>
      </trkpt>
      <trkpt lat="47.82449" lon="7.10597">
        <ele>545.2</ele>
        <time>2014-06-21T13:08:30Z</time>
      </trkpt>
      <trkpt lat="47.82448" lon="7.10598">
        <ele>545.69</ele>
        <time>2014-06-21T13:08:31Z</time>
      </trkpt>
      <trkpt lat="47.82447" lon="7.106">
        <ele>550.01</ele>
        <time>2014-06-21T13:08:32Z</time>
      </trkpt>
      <trkpt lat="47.82446" lon="7.10602">
        <ele>549.53</ele>
        <time>2014-06-21T13:08:33Z</time>
      </trkpt>
      <trkpt lat="47.82444" lon="7.10605">
        <ele>543.76</ele>
        <time>2014-06-21T13:08:35Z</time>
      </trkpt>
      <trkpt lat="47.82442" lon="7.10606">
        <ele>547.61</ele>
        <time>2014-06-21T13:08:36Z</time>
      </trkpt>
      <trkpt lat="47.8244" lon="7.10608">
        <ele>542.32</ele>
        <time>2014-06-21T13:08:41Z</time>
      </trkpt>
      <trkpt lat="47.82439" lon="7.10608">
        <ele>545.69</ele>
        <time>2014-06-21T13:08:42Z</time>
      </trkpt>
      <trkpt lat="47.82439" lon="7.10608">
        <ele>541.36</ele>
        <time>2014-06-21T13:08:49Z</time>
      </trkpt>
      <trkpt lat="47.82439" lon="7.10608">
        <ele>545.69</ele>
        <time>2014-06-21T13:08:50Z</time>
      </trkpt>
      <trkpt lat="47.82439" lon="7.10608">
        <ele>541.84</ele>
        <time>2014-06-21T13:08:53Z</time>
      </trkpt>
      <trkpt lat="47.82439" lon="7.10608">
        <ele>545.69</ele>
        <time>2014-06-21T13:08:57Z</time>
      </trkpt>
      <trkpt lat="47.82439" lon="7.10608">
        <ele>546.17</ele>
        <time>2014-06-21T13:08:58Z</time>
      </trkpt>
      <trkpt lat="47.82439" lon="7.10608">
        <ele>538.96</ele>
        <time>2014-06-21T13:09:00Z</time>
      </trkpt>
      <trkpt lat="47.82438" lon="7.10608">
        <ele>541.84</ele>
        <time>2014-06-21T13:09:01Z</time>
      </trkpt>
      <trkpt lat="47.82436" lon="7.10609">
        <ele>546.17</ele>
        <time>2014-06-21T13:09:07Z</time>
      </trkpt>
      <trkpt lat="47.82434" lon="7.10612">
        <ele>545.2</ele>
        <time>2014-06-21T13:09:08Z</time>
      </trkpt>
      <trkpt lat="47.82433" lon="7.10617">
        <ele>540.4</ele>
        <time>2014-06-21T13:09:10Z</time>
      </trkpt>
      <trkpt lat="47.82433" lon="7.10619">
        <ele>535.59</ele>
        <time>2014-06-21T13:09:11Z</time>
      </trkpt>
      <trkpt lat="47.82434" lon="7.10618">
        <ele>535.59</ele>
        <time>2014-06-21T13:09:12Z</time>
      </trkpt>
      <trkpt lat="47.82436" lon="7.10618">
        <ele>540.88</ele>
        <time>2014-06-21T13:09:13Z</time>
      </trkpt>
      <trkpt lat="47.82437" lon="7.10618">
        <ele>545.69</ele>
        <time>2014-06-21T13:09:14Z</time>
      </trkpt>
      <trkpt lat="47.82439" lon="7.10619">
        <ele>540.88</ele>
        <time>2014-06-21T13:09:15Z</time>
      </trkpt>
      <trkpt lat="47.8244" lon="7.1062">
        <ele>537.51</ele>
        <time>2014-06-21T13:09:16Z</time>
      </trkpt>
      <trkpt lat="47.82441" lon="7.1062">
        <ele>533.67</ele>
        <time>2014-06-21T13:09:18Z</time>
      </trkpt>
      <trkpt lat="47.82441" lon="7.1062">
        <ele>537.03</ele>
        <time>2014-06-21T13:09:20Z</time>
      </trkpt>
      <trkpt lat="47.82441" lon="7.1062">
        <ele>533.19</ele>
        <time>2014-06-21T13:09:21Z</time>
      </trkpt>
      <trkpt lat="47.8244" lon="7.10621">
        <ele>537.51</ele>
        <time>2014-06-21T13:09:25Z</time>
      </trkpt>
      <trkpt lat="47.82434" lon="7.10626">
        <ele>533.67</ele>
        <time>2014-06-21T13:09:32Z</time>
      </trkpt>
      <trkpt lat="47.8243" lon="7.10629">
        <ele>537.51</ele>
        <time>2014-06-21T13:09:36Z</time>
      </trkpt>
      <trkpt lat="47.82427" lon="7.10631">
        <ele>531.27</ele>
        <time>2014-06-21T13:09:39Z</time>
      </trkpt>
      <trkpt lat="47.82427" lon="7.10631">
        <ele>532.71</ele>
        <time>2014-06-21T13:09:40Z</time>
      </trkpt>
      <trkpt lat="47.82425" lon="7.10632">
        <ele>537.03</ele>
        <time>2014-06-21T13:09:42Z</time>
      </trkpt>
      <trkpt lat="47.82423" lon="7.10633">
        <ele>530.79</ele>
        <time>2014-06-21T13:09:44Z</time>
      </trkpt>
      <trkpt lat="47.82423" lon="7.10633">
        <ele>535.11</ele>
        <time>2014-06-21T13:09:46Z</time>
      </trkpt>
      <trkpt lat="47.82423" lon="7.10633">
        <ele>533.19</ele>
        <time>2014-06-21T13:09:47Z</time>
      </trkpt>
      <trkpt lat="47.82421" lon="7.10634">
        <ele>526.94</ele>
        <time>2014-06-21T13:09:50Z</time>
      </trkpt>
      <trkpt lat="47.82421" lon="7.10634">
        <ele>528.86</ele>
        <time>2014-06-21T13:09:51Z</time>
      </trkpt>
      <trkpt lat="47.8242" lon="7.10635">
        <ele>525.5</ele>
        <time>2014-06-21T13:09:54Z</time>
      </trkpt>
      <trkpt lat="47.82419" lon="7.10635">
        <ele>531.27</ele>
        <time>2014-06-21T13:09:56Z</time>
      </trkpt>
      <trkpt lat="47.82417" lon="7.10635">
        <ele>530.3</ele>
        <time>2014-06-21T13:09:57Z</time>
      </trkpt>
      <trkpt lat="47.82416" lon="7.10634">
        <ele>526.46</ele>
        <time>2014-06-21T13:09:58Z</time>
      </trkpt>
      <trkpt lat="47.8241" lon="7.10633">
        <ele>529.82</ele>
        <time>2014-06-21T13:10:02Z</time>
      </trkpt>
      <trkpt lat="47.82407" lon="7.10633">
        <ele>526.46</ele>
        <time>2014-06-21T13:10:04Z</time>
      </trkpt>
      <trkpt lat="47.82406" lon="7.10633">
        <ele>525.98</ele>
        <time>2014-06-21T13:10:05Z</time>
      </trkpt>
      <trkpt lat="47.82402" lon="7.10635">
        <ele>524.54</ele>
        <time>2014-06-21T13:10:10Z</time>
      </trkpt>
      <trkpt lat="47.824" lon="7.10636">
        <ele>527.42</ele>
        <time>2014-06-21T13:10:12Z</time>
      </trkpt>
      <trkpt lat="47.824" lon="7.10636">
        <ele>523.58</ele>
        <time>2014-06-21T13:10:14Z</time>
      </trkpt>
      <trkpt lat="47.824" lon="7.10636">
        <ele>518.77</ele>
        <time>2014-06-21T13:10:15Z</time>
      </trkpt>
      <trkpt lat="47.824" lon="7.10636">
        <ele>518.77</ele>
        <time>2014-06-21T13:10:16Z</time>
      </trkpt>
      <trkpt lat="47.82399" lon="7.10639">
        <ele>522.13</ele>
        <time>2014-06-21T13:10:18Z</time>
      </trkpt>
      <trkpt lat="47.82398" lon="7.1064">
        <ele>525.98</ele>
        <time>2014-06-21T13:10:19Z</time>
      </trkpt>
      <trkpt lat="47.82393" lon="7.10643">
        <ele>520.69</ele>
        <time>2014-06-21T13:10:22Z</time>
      </trkpt>
      <trkpt lat="47.82391" lon="7.10645">
        <ele>516.85</ele>
        <time>2014-06-21T13:10:23Z</time>
      </trkpt>
      <trkpt lat="47.82385" lon="7.10654">
        <ele>514.92</ele>
        <time>2014-06-21T13:10:26Z</time>
      </trkpt>
      <trkpt lat="47.82376" lon="7.10661">
        <ele>515.88</ele>
        <time>2014-06-21T13:10:30Z</time>
      </trkpt>
      <trkpt lat="47.82374" lon="7.10663">
        <ele>520.69</ele>
        <time>2014-06-21T13:10:31Z</time>
      </trkpt>
      <trkpt lat="47.82372" lon="7.10664">
        <ele>518.29</ele>
        <time>2014-06-21T13:10:32Z</time>
      </trkpt>
      <trkpt lat="47.82369" lon="7.10667">
        <ele>522.13</ele>
        <time>2014-06-21T13:10:34Z</time>
      </trkpt>
      <trkpt lat="47.82364" lon="7.10673">
        <ele>516.85</ele>
        <time>2014-06-21T13:10:38Z</time>
      </trkpt>
      <trkpt lat="47.82363" lon="7.10674">
        <ele>513.48</ele>
        <time>2014-06-21T13:10:39Z</time>
      </trkpt>
      <trkpt lat="47.8236" lon="7.10676">
        <ele>511.56</ele>
        <time>2014-06-21T13:10:41Z</time>
      </trkpt>
      <trkpt lat="47.82359" lon="7.10677">
        <ele>515.4</ele>
        <time>2014-06-21T13:10:42Z</time>
      </trkpt>
      <trkpt lat="47.82357" lon="7.10678">
        <ele>520.21</ele>
        <time>2014-06-21T13:10:44Z</time>
      </trkpt>
      <trkpt lat="47.82357" lon="7.10679">
        <ele>520.21</ele>
        <time>2014-06-21T13:10:45Z</time>
      </trkpt>
      <trkpt lat="47.82355" lon="7.10683">
        <ele>514.44</ele>
        <time>2014-06-21T13:10:47Z</time>
      </trkpt>
      <trkpt lat="47.82353" lon="7.10685">
        <ele>511.56</ele>
        <time>2014-06-21T13:10:48Z</time>
      </trkpt>
      <trkpt lat="47.82351" lon="7.1069">
        <ele>510.6</ele>
        <time>2014-06-21T13:10:50Z</time>
      </trkpt>
      <trkpt lat="47.8235" lon="7.10694">
        <ele>515.4</ele>
        <time>2014-06-21T13:10:52Z</time>
      </trkpt>
      <trkpt lat="47.82345" lon="7.107">
        <ele>519.25</ele>
        <time>2014-06-21T13:10:56Z</time>
      </trkpt>
      <trkpt lat="47.82345" lon="7.10701">
        <ele>517.33</ele>
        <time>2014-06-21T13:10:57Z</time>
      </trkpt>
      <trkpt lat="47.82344" lon="7.10702">
        <ele>513.96</ele>
        <time>2014-06-21T13:10:58Z</time>
      </trkpt>
      <trkpt lat="47.82343" lon="7.10703">
        <ele>509.64</ele>
        <time>2014-06-21T13:10:59Z</time>
      </trkpt>
      <trkpt lat="47.8234" lon="7.10705">
        <ele>505.79</ele>
        <time>2014-06-21T13:11:01Z</time>
      </trkpt>
      <trkpt lat="47.82339" lon="7.10707">
        <ele>510.12</ele>
        <time>2014-06-21T13:11:02Z</time>
      </trkpt>
      <trkpt lat="47.82338" lon="7.10707">
        <ele>514.92</ele>
        <time>2014-06-21T13:11:03Z</time>
      </trkpt>
      <trkpt lat="47.82337" lon="7.10709">
        <ele>514.44</ele>
        <time>2014-06-21T13:11:04Z</time>
      </trkpt>
      <trkpt lat="47.82333" lon="7.10712">
        <ele>513</ele>
        <time>2014-06-21T13:11:08Z</time>
      </trkpt>
      <trkpt lat="47.82331" lon="7.10715">
        <ele>511.08</ele>
        <time>2014-06-21T13:11:11Z</time>
      </trkpt>
      <trkpt lat="47.8233" lon="7.10717">
        <ele>507.23</ele>
        <time>2014-06-21T13:11:12Z</time>
      </trkpt>
      <trkpt lat="47.82328" lon="7.10719">
        <ele>502.91</ele>
        <time>2014-06-21T13:11:14Z</time>
      </trkpt>
      <trkpt lat="47.82327" lon="7.1072">
        <ele>504.35</ele>
        <time>2014-06-21T13:11:15Z</time>
      </trkpt>
      <trkpt lat="47.82324" lon="7.10722">
        <ele>505.31</ele>
        <time>2014-06-21T13:11:17Z</time>
      </trkpt>
      <trkpt lat="47.82319" lon="7.10728">
        <ele>505.79</ele>
        <time>2014-06-21T13:11:22Z</time>
      </trkpt>
      <trkpt lat="47.82317" lon="7.1073">
        <ele>509.64</ele>
        <time>2014-06-21T13:11:25Z</time>
      </trkpt>
      <trkpt lat="47.82316" lon="7.10731">
        <ele>509.16</ele>
        <time>2014-06-21T13:11:26Z</time>
      </trkpt>
      <trkpt lat="47.82316" lon="7.10731">
        <ele>505.79</ele>
        <time>2014-06-21T13:11:27Z</time>
      </trkpt>
      <trkpt lat="47.82315" lon="7.10732">
        <ele>507.71</ele>
        <time>2014-06-21T13:11:28Z</time>
      </trkpt>
      <trkpt lat="47.82311" lon="7.10736">
        <ele>500.02</ele>
        <time>2014-06-21T13:11:32Z</time>
      </trkpt>
      <trkpt lat="47.82307" lon="7.10742">
        <ele>496.66</ele>
        <time>2014-06-21T13:11:36Z</time>
      </trkpt>
      <trkpt lat="47.82306" lon="7.10742">
        <ele>496.66</ele>
        <time>2014-06-21T13:11:37Z</time>
      </trkpt>
      <trkpt lat="47.82304" lon="7.10743">
        <ele>502.91</ele>
        <time>2014-06-21T13:11:38Z</time>
      </trkpt>
      <trkpt lat="47.82303" lon="7.10743">
        <ele>506.75</ele>
        <time>2014-06-21T13:11:39Z</time>
      </trkpt>
      <trkpt lat="47.82302" lon="7.10742">
        <ele>503.87</ele>
        <time>2014-06-21T13:11:40Z</time>
      </trkpt>
      <trkpt lat="47.82297" lon="7.10744">
        <ele>500.98</ele>
        <time>2014-06-21T13:11:44Z</time>
      </trkpt>
      <trkpt lat="47.82297" lon="7.10744">
        <ele>497.14</ele>
        <time>2014-06-21T13:11:45Z</time>
      </trkpt>
      <trkpt lat="47.8229" lon="7.10747">
        <ele>493.29</ele>
        <time>2014-06-21T13:11:51Z</time>
      </trkpt>
      <trkpt lat="47.8229" lon="7.10747">
        <ele>494.26</ele>
        <time>2014-06-21T13:11:52Z</time>
      </trkpt>
      <trkpt lat="47.82289" lon="7.10746">
        <ele>499.06</ele>
        <time>2014-06-21T13:11:54Z</time>
      </trkpt>
      <trkpt lat="47.82288" lon="7.10746">
        <ele>495.7</ele>
        <time>2014-06-21T13:11:55Z</time>
      </trkpt>
      <trkpt lat="47.82287" lon="7.10744">
        <ele>490.89</ele>
        <time>2014-06-21T13:11:57Z</time>
      </trkpt>
      <trkpt lat="47.82286" lon="7.10743">
        <ele>492.33</ele>
        <time>2014-06-21T13:11:58Z</time>
      </trkpt>
      <trkpt lat="47.82284" lon="7.10738">
        <ele>497.62</ele>
        <time>2014-06-21T13:12:01Z</time>
      </trkpt>
      <trkpt lat="47.82282" lon="7.10737">
        <ele>498.58</ele>
        <time>2014-06-21T13:12:04Z</time>
      </trkpt>
      <trkpt lat="47.82281" lon="7.10738">
        <ele>491.37</ele>
        <time>2014-06-21T13:12:05Z</time>
      </trkpt>
      <trkpt lat="47.82279" lon="7.1074">
        <ele>488.01</ele>
        <time>2014-06-21T13:12:07Z</time>
      </trkpt>
      <trkpt lat="47.82278" lon="7.1074">
        <ele>488.01</ele>
        <time>2014-06-21T13:12:08Z</time>
      </trkpt>
      <trkpt lat="47.82276" lon="7.10741">
        <ele>493.29</ele>
        <time>2014-06-21T13:12:10Z</time>
      </trkpt>
      <trkpt lat="47.82275" lon="7.10741">
        <ele>494.74</ele>
        <time>2014-06-21T13:12:12Z</time>
      </trkpt>
      <trkpt lat="47.82273" lon="7.1074">
        <ele>492.81</ele>
        <time>2014-06-21T13:12:15Z</time>
      </trkpt>
      <trkpt lat="47.8227" lon="7.1074">
        <ele>488.49</ele>
        <time>2014-06-21T13:12:18Z</time>
      </trkpt>
      <trkpt lat="47.82265" lon="7.10743">
        <ele>492.81</ele>
        <time>2014-06-21T13:12:23Z</time>
      </trkpt>
      <trkpt lat="47.82264" lon="7.10743">
        <ele>492.33</ele>
        <time>2014-06-21T13:12:24Z</time>
      </trkpt>
      <trkpt lat="47.8226" lon="7.10746">
        <ele>488.97</ele>
        <time>2014-06-21T13:12:27Z</time>
      </trkpt>
      <trkpt lat="47.82259" lon="7.10747">
        <ele>490.41</ele>
        <time>2014-06-21T13:12:28Z</time>
      </trkpt>
      <trkpt lat="47.82257" lon="7.1075">
        <ele>487.05</ele>
        <time>2014-06-21T13:12:29Z</time>
      </trkpt>
      <trkpt lat="47.82255" lon="7.10752">
        <ele>487.05</ele>
        <time>2014-06-21T13:12:30Z</time>
      </trkpt>
      <trkpt lat="47.82253" lon="7.10755">
        <ele>483.68</ele>
        <time>2014-06-21T13:12:32Z</time>
      </trkpt>
      <trkpt lat="47.82253" lon="7.10757">
        <ele>484.64</ele>
        <time>2014-06-21T13:12:33Z</time>
      </trkpt>
      <trkpt lat="47.8225" lon="7.10761">
        <ele>486.08</ele>
        <time>2014-06-21T13:12:35Z</time>
      </trkpt>
      <trkpt lat="47.82247" lon="7.10766">
        <ele>487.05</ele>
        <time>2014-06-21T13:12:37Z</time>
      </trkpt>
      <trkpt lat="47.82245" lon="7.1077">
        <ele>482.72</ele>
        <time>2014-06-21T13:12:40Z</time>
      </trkpt>
      <trkpt lat="47.82244" lon="7.1077">
        <ele>481.76</ele>
        <time>2014-06-21T13:12:42Z</time>
      </trkpt>
      <trkpt lat="47.82242" lon="7.10771">
        <ele>487.53</ele>
        <time>2014-06-21T13:12:45Z</time>
      </trkpt>
      <trkpt lat="47.82242" lon="7.10771">
        <ele>487.05</ele>
        <time>2014-06-21T13:12:46Z</time>
      </trkpt>
      <trkpt lat="47.82242" lon="7.10771">
        <ele>486.08</ele>
        <time>2014-06-21T13:12:48Z</time>
      </trkpt>
      <trkpt lat="47.8224" lon="7.10775">
        <ele>481.28</ele>
        <time>2014-06-21T13:12:51Z</time>
      </trkpt>
      <trkpt lat="47.82239" lon="7.10777">
        <ele>476.47</ele>
        <time>2014-06-21T13:12:52Z</time>
      </trkpt>
      <trkpt lat="47.82237" lon="7.1078">
        <ele>476.95</ele>
        <time>2014-06-21T13:12:53Z</time>
      </trkpt>
      <trkpt lat="47.82233" lon="7.10785">
        <ele>473.59</ele>
        <time>2014-06-21T13:12:55Z</time>
      </trkpt>
      <trkpt lat="47.82226" lon="7.10795">
        <ele>479.35</ele>
        <time>2014-06-21T13:13:01Z</time>
      </trkpt>
      <trkpt lat="47.82221" lon="7.10809">
        <ele>473.59</ele>
        <time>2014-06-21T13:13:08Z</time>
      </trkpt>
      <trkpt lat="47.82221" lon="7.10809">
        <ele>475.03</ele>
        <time>2014-06-21T13:13:09Z</time>
      </trkpt>
      <trkpt lat="47.82218" lon="7.10812">
        <ele>471.18</ele>
        <time>2014-06-21T13:13:12Z</time>
      </trkpt>
      <trkpt lat="47.82217" lon="7.10813">
        <ele>470.22</ele>
        <time>2014-06-21T13:13:14Z</time>
      </trkpt>
      <trkpt lat="47.82209" lon="7.10823">
        <ele>466.86</ele>
        <time>2014-06-21T13:13:23Z</time>
      </trkpt>
      <trkpt lat="47.82205" lon="7.10825">
        <ele>472.14</ele>
        <time>2014-06-21T13:13:27Z</time>
      </trkpt>
      <trkpt lat="47.82203" lon="7.10826">
        <ele>475.99</ele>
        <time>2014-06-21T13:13:29Z</time>
      </trkpt>
      <trkpt lat="47.82198" lon="7.10832">
        <ele>470.22</ele>
        <time>2014-06-21T13:13:34Z</time>
      </trkpt>
      <trkpt lat="47.82197" lon="7.10833">
        <ele>469.74</ele>
        <time>2014-06-21T13:13:35Z</time>
      </trkpt>
      <trkpt lat="47.82196" lon="7.10836">
        <ele>465.9</ele>
        <time>2014-06-21T13:13:37Z</time>
      </trkpt>
      <trkpt lat="47.82195" lon="7.10837">
        <ele>466.86</ele>
        <time>2014-06-21T13:13:38Z</time>
      </trkpt>
      <trkpt lat="47.8219" lon="7.10839">
        <ele>463.97</ele>
        <time>2014-06-21T13:13:42Z</time>
      </trkpt>
      <trkpt lat="47.82189" lon="7.10839">
        <ele>464.45</ele>
        <time>2014-06-21T13:13:43Z</time>
      </trkpt>
      <trkpt lat="47.82188" lon="7.1084">
        <ele>469.26</ele>
        <time>2014-06-21T13:13:44Z</time>
      </trkpt>
      <trkpt lat="47.82187" lon="7.10842">
        <ele>464.93</ele>
        <time>2014-06-21T13:13:45Z</time>
      </trkpt>
      <trkpt lat="47.82184" lon="7.10846">
        <ele>467.34</ele>
        <time>2014-06-21T13:13:48Z</time>
      </trkpt>
      <trkpt lat="47.82183" lon="7.10847">
        <ele>471.18</ele>
        <time>2014-06-21T13:13:50Z</time>
      </trkpt>
      <trkpt lat="47.82182" lon="7.10847">
        <ele>467.82</ele>
        <time>2014-06-21T13:13:51Z</time>
      </trkpt>
      <trkpt lat="47.82178" lon="7.10848">
        <ele>467.82</ele>
        <time>2014-06-21T13:13:55Z</time>
      </trkpt>
      <trkpt lat="47.82177" lon="7.10849">
        <ele>464.45</ele>
        <time>2014-06-21T13:13:56Z</time>
      </trkpt>
      <trkpt lat="47.82176" lon="7.1085">
        <ele>461.09</ele>
        <time>2014-06-21T13:13:57Z</time>
      </trkpt>
      <trkpt lat="47.82175" lon="7.1085">
        <ele>462.05</ele>
        <time>2014-06-21T13:13:58Z</time>
      </trkpt>
      <trkpt lat="47.82172" lon="7.10851">
        <ele>466.38</ele>
        <time>2014-06-21T13:14:00Z</time>
      </trkpt>
      <trkpt lat="47.82171" lon="7.10852">
        <ele>462.53</ele>
        <time>2014-06-21T13:14:01Z</time>
      </trkpt>
      <trkpt lat="47.82166" lon="7.10853">
        <ele>459.65</ele>
        <time>2014-06-21T13:14:05Z</time>
      </trkpt>
      <trkpt lat="47.82162" lon="7.10856">
        <ele>463.01</ele>
        <time>2014-06-21T13:14:09Z</time>
      </trkpt>
      <trkpt lat="47.82159" lon="7.10858">
        <ele>461.09</ele>
        <time>2014-06-21T13:14:12Z</time>
      </trkpt>
      <trkpt lat="47.82158" lon="7.10859">
        <ele>457.24</ele>
        <time>2014-06-21T13:14:13Z</time>
      </trkpt>
      <trkpt lat="47.82155" lon="7.10859">
        <ele>452.92</ele>
        <time>2014-06-21T13:14:15Z</time>
      </trkpt>
      <trkpt lat="47.82154" lon="7.10859">
        <ele>456.28</ele>
        <time>2014-06-21T13:14:16Z</time>
      </trkpt>
      <trkpt lat="47.82151" lon="7.10861">
        <ele>458.21</ele>
        <time>2014-06-21T13:14:19Z</time>
      </trkpt>
      <trkpt lat="47.82147" lon="7.10867">
        <ele>453.4</ele>
        <time>2014-06-21T13:14:23Z</time>
      </trkpt>
      <trkpt lat="47.82146" lon="7.10868">
        <ele>456.76</ele>
        <time>2014-06-21T13:14:24Z</time>
      </trkpt>
      <trkpt lat="47.82144" lon="7.10871">
        <ele>460.61</ele>
        <time>2014-06-21T13:14:26Z</time>
      </trkpt>
      <trkpt lat="47.8214" lon="7.10876">
        <ele>455.8</ele>
        <time>2014-06-21T13:14:30Z</time>
      </trkpt>
      <trkpt lat="47.82137" lon="7.10878">
        <ele>452.44</ele>
        <time>2014-06-21T13:14:32Z</time>
      </trkpt>
      <trkpt lat="47.82133" lon="7.10882">
        <ele>453.88</ele>
        <time>2014-06-21T13:14:37Z</time>
      </trkpt>
      <trkpt lat="47.8213" lon="7.10883">
        <ele>458.21</ele>
        <time>2014-06-21T13:14:39Z</time>
      </trkpt>
      <trkpt lat="47.82124" lon="7.10886">
        <ele>451</ele>
        <time>2014-06-21T13:14:43Z</time>
      </trkpt>
      <trkpt lat="47.82123" lon="7.10887">
        <ele>449.07</ele>
        <time>2014-06-21T13:14:46Z</time>
      </trkpt>
      <trkpt lat="47.82122" lon="7.10886">
        <ele>451</ele>
        <time>2014-06-21T13:14:48Z</time>
      </trkpt>
      <trkpt lat="47.82122" lon="7.10886">
        <ele>457.24</ele>
        <time>2014-06-21T13:14:50Z</time>
      </trkpt>
      <trkpt lat="47.82121" lon="7.10886">
        <ele>455.8</ele>
        <time>2014-06-21T13:14:51Z</time>
      </trkpt>
      <trkpt lat="47.82119" lon="7.10887">
        <ele>451.48</ele>
        <time>2014-06-21T13:14:53Z</time>
      </trkpt>
      <trkpt lat="47.82118" lon="7.10888">
        <ele>448.11</ele>
        <time>2014-06-21T13:14:54Z</time>
      </trkpt>
      <trkpt lat="47.82117" lon="7.10888">
        <ele>451</ele>
        <time>2014-06-21T13:14:55Z</time>
      </trkpt>
      <trkpt lat="47.82114" lon="7.10891">
        <ele>447.15</ele>
        <time>2014-06-21T13:14:58Z</time>
      </trkpt>
      <trkpt lat="47.82112" lon="7.10892">
        <ele>450.52</ele>
        <time>2014-06-21T13:15:01Z</time>
      </trkpt>
      <trkpt lat="47.82111" lon="7.10893">
        <ele>453.4</ele>
        <time>2014-06-21T13:15:02Z</time>
      </trkpt>
      <trkpt lat="47.82109" lon="7.10894">
        <ele>453.4</ele>
        <time>2014-06-21T13:15:03Z</time>
      </trkpt>
      <trkpt lat="47.82105" lon="7.10895">
        <ele>448.59</ele>
        <time>2014-06-21T13:15:06Z</time>
      </trkpt>
      <trkpt lat="47.82103" lon="7.10896">
        <ele>450.52</ele>
        <time>2014-06-21T13:15:07Z</time>
      </trkpt>
      <trkpt lat="47.82101" lon="7.10896">
        <ele>446.19</ele>
        <time>2014-06-21T13:15:09Z</time>
      </trkpt>
      <trkpt lat="47.82099" lon="7.10896">
        <ele>442.82</ele>
        <time>2014-06-21T13:15:10Z</time>
      </trkpt>
      <trkpt lat="47.82096" lon="7.10896">
        <ele>439.46</ele>
        <time>2014-06-21T13:15:13Z</time>
      </trkpt>
      <trkpt lat="47.82095" lon="7.10897">
        <ele>442.82</ele>
        <time>2014-06-21T13:15:14Z</time>
      </trkpt>
      <trkpt lat="47.82093" lon="7.10896">
        <ele>447.15</ele>
        <time>2014-06-21T13:15:16Z</time>
      </trkpt>
      <trkpt lat="47.82087" lon="7.10893">
        <ele>442.82</ele>
        <time>2014-06-21T13:15:21Z</time>
      </trkpt>
      <trkpt lat="47.82086" lon="7.10892">
        <ele>438.98</ele>
        <time>2014-06-21T13:15:22Z</time>
      </trkpt>
      <trkpt lat="47.82083" lon="7.10892">
        <ele>444.27</ele>
        <time>2014-06-21T13:15:25Z</time>
      </trkpt>
      <trkpt lat="47.82082" lon="7.10891">
        <ele>448.11</ele>
        <time>2014-06-21T13:15:26Z</time>
      </trkpt>
      <trkpt lat="47.82081" lon="7.10891">
        <ele>447.15</ele>
        <time>2014-06-21T13:15:27Z</time>
      </trkpt>
      <trkpt lat="47.82078" lon="7.1089">
        <ele>442.82</ele>
        <time>2014-06-21T13:15:30Z</time>
      </trkpt>
      <trkpt lat="47.82077" lon="7.1089">
        <ele>438.5</ele>
        <time>2014-06-21T13:15:31Z</time>
      </trkpt>
      <trkpt lat="47.82074" lon="7.10891">
        <ele>442.82</ele>
        <time>2014-06-21T13:15:33Z</time>
      </trkpt>
      <trkpt lat="47.82073" lon="7.10891">
        <ele>440.9</ele>
        <time>2014-06-21T13:15:34Z</time>
      </trkpt>
      <trkpt lat="47.82067" lon="7.10892">
        <ele>437.06</ele>
        <time>2014-06-21T13:15:38Z</time>
      </trkpt>
      <trkpt lat="47.82065" lon="7.10891">
        <ele>435.13</ele>
        <time>2014-06-21T13:15:40Z</time>
      </trkpt>
      <trkpt lat="47.82062" lon="7.1089">
        <ele>439.46</ele>
        <time>2014-06-21T13:15:42Z</time>
      </trkpt>
      <trkpt lat="47.8206" lon="7.1089">
        <ele>440.42</ele>
        <time>2014-06-21T13:15:44Z</time>
      </trkpt>
      <trkpt lat="47.82056" lon="7.10885">
        <ele>436.1</ele>
        <time>2014-06-21T13:15:51Z</time>
      </trkpt>
      <trkpt lat="47.82055" lon="7.10884">
        <ele>430.33</ele>
        <time>2014-06-21T13:15:52Z</time>
      </trkpt>
      <trkpt lat="47.82054" lon="7.10883">
        <ele>429.85</ele>
        <time>2014-06-21T13:15:54Z</time>
      </trkpt>
      <trkpt lat="47.82054" lon="7.10882">
        <ele>433.21</ele>
        <time>2014-06-21T13:15:55Z</time>
      </trkpt>
      <trkpt lat="47.82053" lon="7.1088">
        <ele>429.37</ele>
        <time>2014-06-21T13:15:56Z</time>
      </trkpt>
      <trkpt lat="47.82052" lon="7.10879">
        <ele>433.69</ele>
        <time>2014-06-21T13:15:57Z</time>
      </trkpt>
      <trkpt lat="47.82049" lon="7.10877">
        <ele>437.54</ele>
        <time>2014-06-21T13:15:59Z</time>
      </trkpt>
      <trkpt lat="47.82046" lon="7.10876">
        <ele>431.77</ele>
        <time>2014-06-21T13:16:01Z</time>
      </trkpt>
      <trkpt lat="47.82045" lon="7.10875">
        <ele>425.04</ele>
        <time>2014-06-21T13:16:02Z</time>
      </trkpt>
      <trkpt lat="47.82044" lon="7.10874">
        <ele>421.19</ele>
        <time>2014-06-21T13:16:03Z</time>
      </trkpt>
      <trkpt lat="47.82043" lon="7.10874">
        <ele>426</ele>
        <time>2014-06-21T13:16:04Z</time>
      </trkpt>
      <trkpt lat="47.82042" lon="7.10873">
        <ele>434.65</ele>
        <time>2014-06-21T13:16:05Z</time>
      </trkpt>
      <trkpt lat="47.82042" lon="7.10872">
        <ele>433.69</ele>
        <time>2014-06-21T13:16:06Z</time>
      </trkpt>
      <trkpt lat="47.8204" lon="7.10868">
        <ele>422.16</ele>
        <time>2014-06-21T13:16:08Z</time>
      </trkpt>
      <trkpt lat="47.8204" lon="7.10866">
        <ele>426</ele>
        <time>2014-06-21T13:16:09Z</time>
      </trkpt>
      <trkpt lat="47.82039" lon="7.10864">
        <ele>428.89</ele>
        <time>2014-06-21T13:16:10Z</time>
      </trkpt>
      <trkpt lat="47.82037" lon="7.10862">
        <ele>432.73</ele>
        <time>2014-06-21T13:16:11Z</time>
      </trkpt>
      <trkpt lat="47.82035" lon="7.10861">
        <ele>428.89</ele>
        <time>2014-06-21T13:16:12Z</time>
      </trkpt>
      <trkpt lat="47.82034" lon="7.10859">
        <ele>424.08</ele>
        <time>2014-06-21T13:16:13Z</time>
      </trkpt>
      <trkpt lat="47.8203" lon="7.10857">
        <ele>428.89</ele>
        <time>2014-06-21T13:16:16Z</time>
      </trkpt>
      <trkpt lat="47.82025" lon="7.10855">
        <ele>425.04</ele>
        <time>2014-06-21T13:16:19Z</time>
      </trkpt>
      <trkpt lat="47.82024" lon="7.10855">
        <ele>422.16</ele>
        <time>2014-06-21T13:16:20Z</time>
      </trkpt>
      <trkpt lat="47.8202" lon="7.10854">
        <ele>428.89</ele>
        <time>2014-06-21T13:16:23Z</time>
      </trkpt>
      <trkpt lat="47.82016" lon="7.10854">
        <ele>426.96</ele>
        <time>2014-06-21T13:16:25Z</time>
      </trkpt>
      <trkpt lat="47.82014" lon="7.10854">
        <ele>426.96</ele>
        <time>2014-06-21T13:16:26Z</time>
      </trkpt>
      <trkpt lat="47.82012" lon="7.10852">
        <ele>422.16</ele>
        <time>2014-06-21T13:16:28Z</time>
      </trkpt>
      <trkpt lat="47.8201" lon="7.10853">
        <ele>423.6</ele>
        <time>2014-06-21T13:16:29Z</time>
      </trkpt>
      <trkpt lat="47.82004" lon="7.10853">
        <ele>419.27</ele>
        <time>2014-06-21T13:16:33Z</time>
      </trkpt>
      <trkpt lat="47.82002" lon="7.10854">
        <ele>414.95</ele>
        <time>2014-06-21T13:16:34Z</time>
      </trkpt>
      <trkpt lat="47.82" lon="7.10856">
        <ele>415.91</ele>
        <time>2014-06-21T13:16:35Z</time>
      </trkpt>
      <trkpt lat="47.81998" lon="7.10857">
        <ele>419.27</ele>
        <time>2014-06-21T13:16:36Z</time>
      </trkpt>
      <trkpt lat="47.81996" lon="7.10859">
        <ele>423.6</ele>
        <time>2014-06-21T13:16:37Z</time>
      </trkpt>
      <trkpt lat="47.81995" lon="7.1086">
        <ele>423.12</ele>
        <time>2014-06-21T13:16:38Z</time>
      </trkpt>
      <trkpt lat="47.81994" lon="7.10861">
        <ele>417.35</ele>
        <time>2014-06-21T13:16:39Z</time>
      </trkpt>
      <trkpt lat="47.81991" lon="7.10862">
        <ele>413.5</ele>
        <time>2014-06-21T13:16:41Z</time>
      </trkpt>
      <trkpt lat="47.81988" lon="7.10864">
        <ele>421.19</ele>
        <time>2014-06-21T13:16:44Z</time>
      </trkpt>
      <trkpt lat="47.81987" lon="7.10864">
        <ele>422.16</ele>
        <time>2014-06-21T13:16:46Z</time>
      </trkpt>
      <trkpt lat="47.81985" lon="7.10864">
        <ele>414.95</ele>
        <time>2014-06-21T13:16:48Z</time>
      </trkpt>
      <trkpt lat="47.81982" lon="7.10866">
        <ele>410.62</ele>
        <time>2014-06-21T13:16:51Z</time>
      </trkpt>
      <trkpt lat="47.81981" lon="7.10866">
        <ele>416.39</ele>
        <time>2014-06-21T13:16:52Z</time>
      </trkpt>
      <trkpt lat="47.8198" lon="7.10867">
        <ele>419.75</ele>
        <time>2014-06-21T13:16:53Z</time>
      </trkpt>
      <trkpt lat="47.81978" lon="7.10868">
        <ele>418.79</ele>
        <time>2014-06-21T13:16:54Z</time>
      </trkpt>
      <trkpt lat="47.81977" lon="7.10868">
        <ele>414.95</ele>
        <time>2014-06-21T13:16:55Z</time>
      </trkpt>
      <trkpt lat="47.81976" lon="7.10869">
        <ele>409.66</ele>
        <time>2014-06-21T13:16:56Z</time>
      </trkpt>
      <trkpt lat="47.81974" lon="7.1087">
        <ele>407.74</ele>
        <time>2014-06-21T13:16:58Z</time>
      </trkpt>
      <trkpt lat="47.81971" lon="7.1087">
        <ele>411.58</ele>
        <time>2014-06-21T13:17:00Z</time>
      </trkpt>
      <trkpt lat="47.8197" lon="7.1087">
        <ele>417.35</ele>
        <time>2014-06-21T13:17:02Z</time>
      </trkpt>
      <trkpt lat="47.81968" lon="7.10869">
        <ele>413.98</ele>
        <time>2014-06-21T13:17:03Z</time>
      </trkpt>
      <trkpt lat="47.81967" lon="7.10869">
        <ele>417.35</ele>
        <time>2014-06-21T13:17:04Z</time>
      </trkpt>
      <trkpt lat="47.81964" lon="7.1087">
        <ele>413.5</ele>
        <time>2014-06-21T13:17:06Z</time>
      </trkpt>
      <trkpt lat="47.8196" lon="7.10872">
        <ele>412.06</ele>
        <time>2014-06-21T13:17:08Z</time>
      </trkpt>
      <trkpt lat="47.81953" lon="7.10875">
        <ele>408.22</ele>
        <time>2014-06-21T13:17:13Z</time>
      </trkpt>
      <trkpt lat="47.8195" lon="7.10875">
        <ele>402.93</ele>
        <time>2014-06-21T13:17:15Z</time>
      </trkpt>
      <trkpt lat="47.81946" lon="7.10874">
        <ele>405.81</ele>
        <time>2014-06-21T13:17:18Z</time>
      </trkpt>
      <trkpt lat="47.81943" lon="7.10874">
        <ele>409.18</ele>
        <time>2014-06-21T13:17:21Z</time>
      </trkpt>
      <trkpt lat="47.81932" lon="7.10876">
        <ele>405.81</ele>
        <time>2014-06-21T13:17:29Z</time>
      </trkpt>
      <trkpt lat="47.81929" lon="7.10876">
        <ele>401.01</ele>
        <time>2014-06-21T13:17:32Z</time>
      </trkpt>
      <trkpt lat="47.81929" lon="7.10875">
        <ele>401.01</ele>
        <time>2014-06-21T13:17:33Z</time>
      </trkpt>
      <trkpt lat="47.81923" lon="7.10873">
        <ele>405.81</ele>
        <time>2014-06-21T13:17:38Z</time>
      </trkpt>
      <trkpt lat="47.81916" lon="7.10873">
        <ele>399.57</ele>
        <time>2014-06-21T13:17:43Z</time>
      </trkpt>
      <trkpt lat="47.81914" lon="7.10873">
        <ele>396.68</ele>
        <time>2014-06-21T13:17:44Z</time>
      </trkpt>
      <trkpt lat="47.81912" lon="7.10873">
        <ele>399.57</ele>
        <time>2014-06-21T13:17:45Z</time>
      </trkpt>
      <trkpt lat="47.81907" lon="7.10873">
        <ele>404.37</ele>
        <time>2014-06-21T13:17:48Z</time>
      </trkpt>
      <trkpt lat="47.81905" lon="7.10873">
        <ele>403.41</ele>
        <time>2014-06-21T13:17:49Z</time>
      </trkpt>
      <trkpt lat="47.81898" lon="7.1087">
        <ele>399.57</ele>
        <time>2014-06-21T13:17:54Z</time>
      </trkpt>
      <trkpt lat="47.81896" lon="7.10869">
        <ele>396.2</ele>
        <time>2014-06-21T13:17:56Z</time>
      </trkpt>
      <trkpt lat="47.81893" lon="7.10869">
        <ele>392.84</ele>
        <time>2014-06-21T13:17:58Z</time>
      </trkpt>
      <trkpt lat="47.81892" lon="7.10869">
        <ele>392.36</ele>
        <time>2014-06-21T13:17:59Z</time>
      </trkpt>
      <trkpt lat="47.8189" lon="7.10867">
        <ele>396.2</ele>
        <time>2014-06-21T13:18:01Z</time>
      </trkpt>
      <trkpt lat="47.81889" lon="7.10867">
        <ele>394.76</ele>
        <time>2014-06-21T13:18:02Z</time>
      </trkpt>
      <trkpt lat="47.81887" lon="7.10862">
        <ele>399.57</ele>
        <time>2014-06-21T13:18:07Z</time>
      </trkpt>
      <trkpt lat="47.81878" lon="7.10856">
        <ele>395.72</ele>
        <time>2014-06-21T13:18:14Z</time>
      </trkpt>
      <trkpt lat="47.81876" lon="7.10855">
        <ele>396.68</ele>
        <time>2014-06-21T13:18:15Z</time>
      </trkpt>
      <trkpt lat="47.81873" lon="7.10853">
        <ele>391.39</ele>
        <time>2014-06-21T13:18:17Z</time>
      </trkpt>
      <trkpt lat="47.81872" lon="7.10853">
        <ele>388.03</ele>
        <time>2014-06-21T13:18:18Z</time>
      </trkpt>
      <trkpt lat="47.8187" lon="7.10851">
        <ele>386.59</ele>
        <time>2014-06-21T13:18:20Z</time>
      </trkpt>
      <trkpt lat="47.81866" lon="7.10846">
        <ele>391.87</ele>
        <time>2014-06-21T13:18:24Z</time>
      </trkpt>
      <trkpt lat="47.81865" lon="7.10846">
        <ele>395.24</ele>
        <time>2014-06-21T13:18:25Z</time>
      </trkpt>
      <trkpt lat="47.81861" lon="7.10842">
        <ele>391.39</ele>
        <time>2014-06-21T13:18:29Z</time>
      </trkpt>
      <trkpt lat="47.81851" lon="7.10838">
        <ele>384.18</ele>
        <time>2014-06-21T13:18:36Z</time>
      </trkpt>
      <trkpt lat="47.81848" lon="7.10837">
        <ele>378.9</ele>
        <time>2014-06-21T13:18:38Z</time>
      </trkpt>
      <trkpt lat="47.81847" lon="7.10837">
        <ele>383.22</ele>
        <time>2014-06-21T13:18:39Z</time>
      </trkpt>
      <trkpt lat="47.81841" lon="7.10835">
        <ele>389.47</ele>
        <time>2014-06-21T13:18:42Z</time>
      </trkpt>
      <trkpt lat="47.81837" lon="7.10833">
        <ele>390.91</ele>
        <time>2014-06-21T13:18:44Z</time>
      </trkpt>
      <trkpt lat="47.81836" lon="7.10832">
        <ele>387.55</ele>
        <time>2014-06-21T13:18:45Z</time>
      </trkpt>
      <trkpt lat="47.81834" lon="7.10831">
        <ele>389.47</ele>
        <time>2014-06-21T13:18:46Z</time>
      </trkpt>
      <trkpt lat="47.81833" lon="7.1083">
        <ele>384.18</ele>
        <time>2014-06-21T13:18:47Z</time>
      </trkpt>
      <trkpt lat="47.8183" lon="7.1083">
        <ele>383.22</ele>
        <time>2014-06-21T13:18:49Z</time>
      </trkpt>
      <trkpt lat="47.81829" lon="7.10829">
        <ele>386.11</ele>
        <time>2014-06-21T13:18:50Z</time>
      </trkpt>
      <trkpt lat="47.81826" lon="7.10828">
        <ele>387.55</ele>
        <time>2014-06-21T13:18:52Z</time>
      </trkpt>
      <trkpt lat="47.81819" lon="7.10825">
        <ele>382.74</ele>
        <time>2014-06-21T13:18:56Z</time>
      </trkpt>
      <trkpt lat="47.81817" lon="7.10823">
        <ele>378.9</ele>
        <time>2014-06-21T13:18:57Z</time>
      </trkpt>
      <trkpt lat="47.81813" lon="7.10821">
        <ele>383.7</ele>
        <time>2014-06-21T13:18:59Z</time>
      </trkpt>
      <trkpt lat="47.81811" lon="7.10821">
        <ele>388.03</ele>
        <time>2014-06-21T13:19:00Z</time>
      </trkpt>
      <trkpt lat="47.8181" lon="7.1082">
        <ele>388.03</ele>
        <time>2014-06-21T13:19:01Z</time>
      </trkpt>
      <trkpt lat="47.81808" lon="7.10818">
        <ele>382.74</ele>
        <time>2014-06-21T13:19:03Z</time>
      </trkpt>
      <trkpt lat="47.81806" lon="7.10817">
        <ele>379.38</ele>
        <time>2014-06-21T13:19:04Z</time>
      </trkpt>
      <trkpt lat="47.81804" lon="7.10816">
        <ele>375.05</ele>
        <time>2014-06-21T13:19:06Z</time>
      </trkpt>
      <trkpt lat="47.81803" lon="7.10814">
        <ele>378.9</ele>
        <time>2014-06-21T13:19:07Z</time>
      </trkpt>
      <trkpt lat="47.818" lon="7.10813">
        <ele>386.59</ele>
        <time>2014-06-21T13:19:09Z</time>
      </trkpt>
      <trkpt lat="47.81798" lon="7.10812">
        <ele>386.59</ele>
        <time>2014-06-21T13:19:10Z</time>
      </trkpt>
      <trkpt lat="47.81792" lon="7.10807">
        <ele>382.74</ele>
        <time>2014-06-21T13:19:15Z</time>
      </trkpt>
      <trkpt lat="47.8179" lon="7.10806">
        <ele>379.38</ele>
        <time>2014-06-21T13:19:16Z</time>
      </trkpt>
      <trkpt lat="47.81788" lon="7.10804">
        <ele>376.97</ele>
        <time>2014-06-21T13:19:18Z</time>
      </trkpt>
      <trkpt lat="47.81787" lon="7.10803">
        <ele>374.09</ele>
        <time>2014-06-21T13:19:19Z</time>
      </trkpt>
      <trkpt lat="47.81781" lon="7.108">
        <ele>379.38</ele>
        <time>2014-06-21T13:19:23Z</time>
      </trkpt>
      <trkpt lat="47.81778" lon="7.10798">
        <ele>373.61</ele>
        <time>2014-06-21T13:19:25Z</time>
      </trkpt>
      <trkpt lat="47.81774" lon="7.10797">
        <ele>380.82</ele>
        <time>2014-06-21T13:19:28Z</time>
      </trkpt>
      <trkpt lat="47.81771" lon="7.10797">
        <ele>383.7</ele>
        <time>2014-06-21T13:19:30Z</time>
      </trkpt>
      <trkpt lat="47.81768" lon="7.10797">
        <ele>377.45</ele>
        <time>2014-06-21T13:19:32Z</time>
      </trkpt>
      <trkpt lat="47.81765" lon="7.10798">
        <ele>373.13</ele>
        <time>2014-06-21T13:19:33Z</time>
      </trkpt>
      <trkpt lat="47.81762" lon="7.10799">
        <ele>374.09</ele>
        <time>2014-06-21T13:19:34Z</time>
      </trkpt>
      <trkpt lat="47.81759" lon="7.10798">
        <ele>380.82</ele>
        <time>2014-06-21T13:19:36Z</time>
      </trkpt>
      <trkpt lat="47.81757" lon="7.10798">
        <ele>380.34</ele>
        <time>2014-06-21T13:19:37Z</time>
      </trkpt>
      <trkpt lat="47.81754" lon="7.10797">
        <ele>375.05</ele>
        <time>2014-06-21T13:19:39Z</time>
      </trkpt>
      <trkpt lat="47.81751" lon="7.10795">
        <ele>374.09</ele>
        <time>2014-06-21T13:19:41Z</time>
      </trkpt>
      <trkpt lat="47.81746" lon="7.10792">
        <ele>378.42</ele>
        <time>2014-06-21T13:19:44Z</time>
      </trkpt>
      <trkpt lat="47.81742" lon="7.1079">
        <ele>375.05</ele>
        <time>2014-06-21T13:19:46Z</time>
      </trkpt>
      <trkpt lat="47.81737" lon="7.10789">
        <ele>371.69</ele>
        <time>2014-06-21T13:19:49Z</time>
      </trkpt>
      <trkpt lat="47.81736" lon="7.10789">
        <ele>375.53</ele>
        <time>2014-06-21T13:19:50Z</time>
      </trkpt>
      <trkpt lat="47.81732" lon="7.1079">
        <ele>378.42</ele>
        <time>2014-06-21T13:19:52Z</time>
      </trkpt>
      <trkpt lat="47.81726" lon="7.10789">
        <ele>372.65</ele>
        <time>2014-06-21T13:19:56Z</time>
      </trkpt>
      <trkpt lat="47.81721" lon="7.10783">
        <ele>376.01</ele>
        <time>2014-06-21T13:20:00Z</time>
      </trkpt>
      <trkpt lat="47.81718" lon="7.10781">
        <ele>377.94</ele>
        <time>2014-06-21T13:20:02Z</time>
      </trkpt>
      <trkpt lat="47.81712" lon="7.1078">
        <ele>369.28</ele>
        <time>2014-06-21T13:20:05Z</time>
      </trkpt>
      <trkpt lat="47.81711" lon="7.10779">
        <ele>370.24</ele>
        <time>2014-06-21T13:20:06Z</time>
      </trkpt>
      <trkpt lat="47.81709" lon="7.10779">
        <ele>373.61</ele>
        <time>2014-06-21T13:20:07Z</time>
      </trkpt>
      <trkpt lat="47.81706" lon="7.10778">
        <ele>377.94</ele>
        <time>2014-06-21T13:20:09Z</time>
      </trkpt>
      <trkpt lat="47.81705" lon="7.10778">
        <ele>373.61</ele>
        <time>2014-06-21T13:20:10Z</time>
      </trkpt>
      <trkpt lat="47.817" lon="7.1078">
        <ele>369.76</ele>
        <time>2014-06-21T13:20:13Z</time>
      </trkpt>
      <trkpt lat="47.81695" lon="7.10778">
        <ele>376.49</ele>
        <time>2014-06-21T13:20:16Z</time>
      </trkpt>
      <trkpt lat="47.81693" lon="7.10778">
        <ele>376.01</ele>
        <time>2014-06-21T13:20:17Z</time>
      </trkpt>
      <trkpt lat="47.81691" lon="7.10776">
        <ele>373.13</ele>
        <time>2014-06-21T13:20:18Z</time>
      </trkpt>
      <trkpt lat="47.81689" lon="7.10775">
        <ele>373.13</ele>
        <time>2014-06-21T13:20:19Z</time>
      </trkpt>
      <trkpt lat="47.81687" lon="7.10773">
        <ele>369.76</ele>
        <time>2014-06-21T13:20:20Z</time>
      </trkpt>
      <trkpt lat="47.81686" lon="7.10771">
        <ele>371.69</ele>
        <time>2014-06-21T13:20:21Z</time>
      </trkpt>
      <trkpt lat="47.81684" lon="7.10769">
        <ele>376.49</ele>
        <time>2014-06-21T13:20:22Z</time>
      </trkpt>
      <trkpt lat="47.81683" lon="7.10768">
        <ele>375.05</ele>
        <time>2014-06-21T13:20:23Z</time>
      </trkpt>
      <trkpt lat="47.81682" lon="7.10767">
        <ele>371.69</ele>
        <time>2014-06-21T13:20:24Z</time>
      </trkpt>
      <trkpt lat="47.8168" lon="7.10766">
        <ele>374.09</ele>
        <time>2014-06-21T13:20:25Z</time>
      </trkpt>
      <trkpt lat="47.81679" lon="7.10765">
        <ele>367.84</ele>
        <time>2014-06-21T13:20:26Z</time>
      </trkpt>
      <trkpt lat="47.81678" lon="7.10763">
        <ele>369.28</ele>
        <time>2014-06-21T13:20:27Z</time>
      </trkpt>
      <trkpt lat="47.81678" lon="7.1076">
        <ele>376.01</ele>
        <time>2014-06-21T13:20:28Z</time>
      </trkpt>
      <trkpt lat="47.81677" lon="7.10758">
        <ele>373.61</ele>
        <time>2014-06-21T13:20:29Z</time>
      </trkpt>
      <trkpt lat="47.81673" lon="7.10756">
        <ele>369.76</ele>
        <time>2014-06-21T13:20:32Z</time>
      </trkpt>
      <trkpt lat="47.8167" lon="7.10755">
        <ele>375.05</ele>
        <time>2014-06-21T13:20:34Z</time>
      </trkpt>
      <trkpt lat="47.81668" lon="7.10753">
        <ele>374.09</ele>
        <time>2014-06-21T13:20:35Z</time>
      </trkpt>
      <trkpt lat="47.81664" lon="7.10748">
        <ele>369.28</ele>
        <time>2014-06-21T13:20:38Z</time>
      </trkpt>
      <trkpt lat="47.81663" lon="7.10747">
        <ele>365.92</ele>
        <time>2014-06-21T13:20:39Z</time>
      </trkpt>
      <trkpt lat="47.81661" lon="7.10746">
        <ele>371.69</ele>
        <time>2014-06-21T13:20:40Z</time>
      </trkpt>
      <trkpt lat="47.81658" lon="7.10743">
        <ele>375.05</ele>
        <time>2014-06-21T13:20:42Z</time>
      </trkpt>
      <trkpt lat="47.81655" lon="7.1074">
        <ele>368.8</ele>
        <time>2014-06-21T13:20:44Z</time>
      </trkpt>
      <trkpt lat="47.8165" lon="7.10736">
        <ele>370.24</ele>
        <time>2014-06-21T13:20:47Z</time>
      </trkpt>
      <trkpt lat="47.81649" lon="7.10734">
        <ele>374.57</ele>
        <time>2014-06-21T13:20:48Z</time>
      </trkpt>
      <trkpt lat="47.81647" lon="7.10732">
        <ele>372.65</ele>
        <time>2014-06-21T13:20:49Z</time>
      </trkpt>
      <trkpt lat="47.81646" lon="7.10731">
        <ele>368.32</ele>
        <time>2014-06-21T13:20:50Z</time>
      </trkpt>
      <trkpt lat="47.81642" lon="7.10725">
        <ele>371.69</ele>
        <time>2014-06-21T13:20:54Z</time>
      </trkpt>
      <trkpt lat="47.81639" lon="7.1072">
        <ele>366.4</ele>
        <time>2014-06-21T13:20:57Z</time>
      </trkpt>
      <trkpt lat="47.81636" lon="7.10714">
        <ele>371.21</ele>
        <time>2014-06-21T13:21:01Z</time>
      </trkpt>
      <trkpt lat="47.81633" lon="7.10711">
        <ele>367.84</ele>
        <time>2014-06-21T13:21:03Z</time>
      </trkpt>
      <trkpt lat="47.81632" lon="7.10709">
        <ele>362.55</ele>
        <time>2014-06-21T13:21:04Z</time>
      </trkpt>
      <trkpt lat="47.8163" lon="7.10708">
        <ele>365.92</ele>
        <time>2014-06-21T13:21:05Z</time>
      </trkpt>
      <trkpt lat="47.81629" lon="7.10707">
        <ele>369.28</ele>
        <time>2014-06-21T13:21:06Z</time>
      </trkpt>
      <trkpt lat="47.81625" lon="7.10703">
        <ele>364.48</ele>
        <time>2014-06-21T13:21:09Z</time>
      </trkpt>
      <trkpt lat="47.81622" lon="7.10699">
        <ele>363.52</ele>
        <time>2014-06-21T13:21:11Z</time>
      </trkpt>
      <trkpt lat="47.81621" lon="7.10697">
        <ele>369.28</ele>
        <time>2014-06-21T13:21:12Z</time>
      </trkpt>
      <trkpt lat="47.81614" lon="7.1069">
        <ele>364.48</ele>
        <time>2014-06-21T13:21:16Z</time>
      </trkpt>
      <trkpt lat="47.81613" lon="7.10688">
        <ele>362.55</ele>
        <time>2014-06-21T13:21:17Z</time>
      </trkpt>
      <trkpt lat="47.81611" lon="7.10681">
        <ele>370.73</ele>
        <time>2014-06-21T13:21:20Z</time>
      </trkpt>
      <trkpt lat="47.8161" lon="7.1068">
        <ele>371.21</ele>
        <time>2014-06-21T13:21:21Z</time>
      </trkpt>
      <trkpt lat="47.81608" lon="7.10677">
        <ele>365.44</ele>
        <time>2014-06-21T13:21:23Z</time>
      </trkpt>
      <trkpt lat="47.81603" lon="7.10667">
        <ele>370.73</ele>
        <time>2014-06-21T13:21:28Z</time>
      </trkpt>
      <trkpt lat="47.81603" lon="7.10664">
        <ele>369.76</ele>
        <time>2014-06-21T13:21:29Z</time>
      </trkpt>
      <trkpt lat="47.81601" lon="7.10663">
        <ele>366.88</ele>
        <time>2014-06-21T13:21:30Z</time>
      </trkpt>
      <trkpt lat="47.816" lon="7.10661">
        <ele>368.8</ele>
        <time>2014-06-21T13:21:31Z</time>
      </trkpt>
      <trkpt lat="47.81599" lon="7.10659">
        <ele>364</ele>
        <time>2014-06-21T13:21:32Z</time>
      </trkpt>
      <trkpt lat="47.81597" lon="7.10655">
        <ele>367.36</ele>
        <time>2014-06-21T13:21:34Z</time>
      </trkpt>
      <trkpt lat="47.81594" lon="7.10652">
        <ele>367.84</ele>
        <time>2014-06-21T13:21:36Z</time>
      </trkpt>
      <trkpt lat="47.81591" lon="7.10647">
        <ele>363.04</ele>
        <time>2014-06-21T13:21:39Z</time>
      </trkpt>
      <trkpt lat="47.81587" lon="7.10642">
        <ele>366.4</ele>
        <time>2014-06-21T13:21:43Z</time>
      </trkpt>
      <trkpt lat="47.81579" lon="7.10633">
        <ele>361.59</ele>
        <time>2014-06-21T13:21:50Z</time>
      </trkpt>
      <trkpt lat="47.81573" lon="7.10626">
        <ele>364.48</ele>
        <time>2014-06-21T13:21:54Z</time>
      </trkpt>
      <trkpt lat="47.81572" lon="7.10625">
        <ele>369.76</ele>
        <time>2014-06-21T13:21:55Z</time>
      </trkpt>
      <trkpt lat="47.81571" lon="7.10623">
        <ele>365.44</ele>
        <time>2014-06-21T13:21:56Z</time>
      </trkpt>
      <trkpt lat="47.81569" lon="7.10622">
        <ele>361.11</ele>
        <time>2014-06-21T13:21:57Z</time>
      </trkpt>
      <trkpt lat="47.81568" lon="7.1062">
        <ele>362.55</ele>
        <time>2014-06-21T13:21:58Z</time>
      </trkpt>
      <trkpt lat="47.81566" lon="7.10617">
        <ele>366.4</ele>
        <time>2014-06-21T13:22:00Z</time>
      </trkpt>
      <trkpt lat="47.81563" lon="7.1061">
        <ele>361.59</ele>
        <time>2014-06-21T13:22:03Z</time>
      </trkpt>
      <trkpt lat="47.81561" lon="7.10608">
        <ele>363.52</ele>
        <time>2014-06-21T13:22:04Z</time>
      </trkpt>
      <trkpt lat="47.8156" lon="7.10606">
        <ele>359.67</ele>
        <time>2014-06-21T13:22:05Z</time>
      </trkpt>
      <trkpt lat="47.81558" lon="7.10603">
        <ele>366.4</ele>
        <time>2014-06-21T13:22:07Z</time>
      </trkpt>
      <trkpt lat="47.81553" lon="7.10597">
        <ele>363.04</ele>
        <time>2014-06-21T13:22:11Z</time>
      </trkpt>
      <trkpt lat="47.81552" lon="7.10597">
        <ele>359.19</ele>
        <time>2014-06-21T13:22:12Z</time>
      </trkpt>
      <trkpt lat="47.81551" lon="7.10595">
        <ele>360.63</ele>
        <time>2014-06-21T13:22:13Z</time>
      </trkpt>
      <trkpt lat="47.8155" lon="7.10593">
        <ele>366.4</ele>
        <time>2014-06-21T13:22:14Z</time>
      </trkpt>
      <trkpt lat="47.81549" lon="7.10591">
        <ele>365.44</ele>
        <time>2014-06-21T13:22:15Z</time>
      </trkpt>
      <trkpt lat="47.81546" lon="7.10586">
        <ele>360.15</ele>
        <time>2014-06-21T13:22:18Z</time>
      </trkpt>
      <trkpt lat="47.81545" lon="7.10583">
        <ele>359.19</ele>
        <time>2014-06-21T13:22:20Z</time>
      </trkpt>
      <trkpt lat="47.81543" lon="7.10581">
        <ele>362.55</ele>
        <time>2014-06-21T13:22:21Z</time>
      </trkpt>
      <trkpt lat="47.81542" lon="7.1058">
        <ele>367.84</ele>
        <time>2014-06-21T13:22:22Z</time>
      </trkpt>
      <trkpt lat="47.81541" lon="7.10578">
        <ele>365.92</ele>
        <time>2014-06-21T13:22:23Z</time>
      </trkpt>
      <trkpt lat="47.81538" lon="7.10575">
        <ele>360.15</ele>
        <time>2014-06-21T13:22:25Z</time>
      </trkpt>
      <trkpt lat="47.81535" lon="7.10573">
        <ele>358.23</ele>
        <time>2014-06-21T13:22:27Z</time>
      </trkpt>
      <trkpt lat="47.81534" lon="7.10572">
        <ele>363.04</ele>
        <time>2014-06-21T13:22:28Z</time>
      </trkpt>
      <trkpt lat="47.8153" lon="7.10569">
        <ele>364</ele>
        <time>2014-06-21T13:22:30Z</time>
      </trkpt>
      <trkpt lat="47.81529" lon="7.10568">
        <ele>358.71</ele>
        <time>2014-06-21T13:22:31Z</time>
      </trkpt>
      <trkpt lat="47.81525" lon="7.10563">
        <ele>364</ele>
        <time>2014-06-21T13:22:34Z</time>
      </trkpt>
      <trkpt lat="47.81524" lon="7.1056">
        <ele>364</ele>
        <time>2014-06-21T13:22:35Z</time>
      </trkpt>
      <trkpt lat="47.81523" lon="7.10558">
        <ele>360.63</ele>
        <time>2014-06-21T13:22:36Z</time>
      </trkpt>
      <trkpt lat="47.81523" lon="7.10556">
        <ele>356.31</ele>
        <time>2014-06-21T13:22:37Z</time>
      </trkpt>
      <trkpt lat="47.81522" lon="7.10554">
        <ele>358.23</ele>
        <time>2014-06-21T13:22:38Z</time>
      </trkpt>
      <trkpt lat="47.81521" lon="7.1055">
        <ele>363.52</ele>
        <time>2014-06-21T13:22:40Z</time>
      </trkpt>
      <trkpt lat="47.8152" lon="7.10548">
        <ele>363.52</ele>
        <time>2014-06-21T13:22:41Z</time>
      </trkpt>
      <trkpt lat="47.81519" lon="7.10546">
        <ele>356.31</ele>
        <time>2014-06-21T13:22:42Z</time>
      </trkpt>
      <trkpt lat="47.81517" lon="7.10544">
        <ele>356.79</ele>
        <time>2014-06-21T13:22:43Z</time>
      </trkpt>
      <trkpt lat="47.81514" lon="7.10539">
        <ele>363.52</ele>
        <time>2014-06-21T13:22:46Z</time>
      </trkpt>
      <trkpt lat="47.81513" lon="7.10537">
        <ele>361.59</ele>
        <time>2014-06-21T13:22:47Z</time>
      </trkpt>
      <trkpt lat="47.81511" lon="7.10533">
        <ele>355.83</ele>
        <time>2014-06-21T13:22:49Z</time>
      </trkpt>
      <trkpt lat="47.81508" lon="7.1053">
        <ele>361.59</ele>
        <time>2014-06-21T13:22:51Z</time>
      </trkpt>
      <trkpt lat="47.81504" lon="7.10526">
        <ele>357.27</ele>
        <time>2014-06-21T13:22:54Z</time>
      </trkpt>
      <trkpt lat="47.81501" lon="7.10524">
        <ele>355.34</ele>
        <time>2014-06-21T13:22:56Z</time>
      </trkpt>
      <trkpt lat="47.815" lon="7.10523">
        <ele>361.59</ele>
        <time>2014-06-21T13:22:57Z</time>
      </trkpt>
      <trkpt lat="47.81499" lon="7.10522">
        <ele>361.11</ele>
        <time>2014-06-21T13:22:58Z</time>
      </trkpt>
      <trkpt lat="47.81498" lon="7.1052">
        <ele>356.79</ele>
        <time>2014-06-21T13:22:59Z</time>
      </trkpt>
      <trkpt lat="47.81495" lon="7.10518">
        <ele>353.9</ele>
        <time>2014-06-21T13:23:01Z</time>
      </trkpt>
      <trkpt lat="47.81493" lon="7.10517">
        <ele>358.23</ele>
        <time>2014-06-21T13:23:02Z</time>
      </trkpt>
      <trkpt lat="47.81492" lon="7.10516">
        <ele>362.07</ele>
        <time>2014-06-21T13:23:03Z</time>
      </trkpt>
      <trkpt lat="47.8149" lon="7.10515">
        <ele>362.55</ele>
        <time>2014-06-21T13:23:04Z</time>
      </trkpt>
      <trkpt lat="47.81487" lon="7.10514">
        <ele>355.34</ele>
        <time>2014-06-21T13:23:06Z</time>
      </trkpt>
      <trkpt lat="47.81485" lon="7.10512">
        <ele>355.83</ele>
        <time>2014-06-21T13:23:08Z</time>
      </trkpt>
      <trkpt lat="47.81483" lon="7.10508">
        <ele>360.63</ele>
        <time>2014-06-21T13:23:10Z</time>
      </trkpt>
      <trkpt lat="47.81478" lon="7.10505">
        <ele>351.98</ele>
        <time>2014-06-21T13:23:13Z</time>
      </trkpt>
      <trkpt lat="47.81476" lon="7.10505">
        <ele>355.83</ele>
        <time>2014-06-21T13:23:14Z</time>
      </trkpt>
      <trkpt lat="47.81474" lon="7.10504">
        <ele>361.11</ele>
        <time>2014-06-21T13:23:15Z</time>
      </trkpt>
      <trkpt lat="47.81472" lon="7.10504">
        <ele>358.71</ele>
        <time>2014-06-21T13:23:16Z</time>
      </trkpt>
      <trkpt lat="47.81471" lon="7.10503">
        <ele>355.83</ele>
        <time>2014-06-21T13:23:17Z</time>
      </trkpt>
      <trkpt lat="47.81463" lon="7.10502">
        <ele>358.23</ele>
        <time>2014-06-21T13:23:21Z</time>
      </trkpt>
      <trkpt lat="47.81461" lon="7.10501">
        <ele>362.07</ele>
        <time>2014-06-21T13:23:22Z</time>
      </trkpt>
      <trkpt lat="47.81455" lon="7.10499">
        <ele>351.98</ele>
        <time>2014-06-21T13:23:25Z</time>
      </trkpt>
      <trkpt lat="47.81454" lon="7.10499">
        <ele>351.98</ele>
        <time>2014-06-21T13:23:26Z</time>
      </trkpt>
      <trkpt lat="47.81452" lon="7.10499">
        <ele>357.75</ele>
        <time>2014-06-21T13:23:27Z</time>
      </trkpt>
      <trkpt lat="47.81445" lon="7.105">
        <ele>352.46</ele>
        <time>2014-06-21T13:23:30Z</time>
      </trkpt>
      <trkpt lat="47.81441" lon="7.10501">
        <ele>355.83</ele>
        <time>2014-06-21T13:23:32Z</time>
      </trkpt>
      <trkpt lat="47.81438" lon="7.105">
        <ele>359.67</ele>
        <time>2014-06-21T13:23:33Z</time>
      </trkpt>
      <trkpt lat="47.81436" lon="7.105">
        <ele>357.75</ele>
        <time>2014-06-21T13:23:34Z</time>
      </trkpt>
      <trkpt lat="47.81435" lon="7.10499">
        <ele>353.42</ele>
        <time>2014-06-21T13:23:35Z</time>
      </trkpt>
      <trkpt lat="47.81431" lon="7.10496">
        <ele>353.42</ele>
        <time>2014-06-21T13:23:38Z</time>
      </trkpt>
      <trkpt lat="47.81428" lon="7.10495">
        <ele>351.5</ele>
        <time>2014-06-21T13:23:40Z</time>
      </trkpt>
      <trkpt lat="47.81427" lon="7.10494">
        <ele>351.5</ele>
        <time>2014-06-21T13:23:41Z</time>
      </trkpt>
      <trkpt lat="47.81426" lon="7.10494">
        <ele>351.02</ele>
        <time>2014-06-21T13:23:42Z</time>
      </trkpt>
      <trkpt lat="47.81423" lon="7.1049">
        <ele>358.23</ele>
        <time>2014-06-21T13:23:44Z</time>
      </trkpt>
      <trkpt lat="47.81422" lon="7.10488">
        <ele>352.46</ele>
        <time>2014-06-21T13:23:45Z</time>
      </trkpt>
      <trkpt lat="47.8142" lon="7.10487">
        <ele>352.46</ele>
        <time>2014-06-21T13:23:46Z</time>
      </trkpt>
      <trkpt lat="47.81421" lon="7.10475">
        <ele>358.71</ele>
        <time>2014-06-21T13:23:50Z</time>
      </trkpt>
      <trkpt lat="47.81421" lon="7.10473">
        <ele>355.34</ele>
        <time>2014-06-21T13:23:51Z</time>
      </trkpt>
      <trkpt lat="47.8142" lon="7.1047">
        <ele>349.1</ele>
        <time>2014-06-21T13:23:53Z</time>
      </trkpt>
      <trkpt lat="47.8142" lon="7.10468">
        <ele>351.02</ele>
        <time>2014-06-21T13:23:54Z</time>
      </trkpt>
      <trkpt lat="47.81418" lon="7.10466">
        <ele>353.9</ele>
        <time>2014-06-21T13:23:56Z</time>
      </trkpt>
      <trkpt lat="47.81417" lon="7.10464">
        <ele>358.71</ele>
        <time>2014-06-21T13:23:57Z</time>
      </trkpt>
      <trkpt lat="47.81416" lon="7.10463">
        <ele>355.83</ele>
        <time>2014-06-21T13:23:58Z</time>
      </trkpt>
      <trkpt lat="47.81411" lon="7.1046">
        <ele>350.54</ele>
        <time>2014-06-21T13:24:01Z</time>
      </trkpt>
      <trkpt lat="47.81406" lon="7.10457">
        <ele>357.27</ele>
        <time>2014-06-21T13:24:04Z</time>
      </trkpt>
      <trkpt lat="47.81404" lon="7.10456">
        <ele>356.31</ele>
        <time>2014-06-21T13:24:05Z</time>
      </trkpt>
      <trkpt lat="47.81401" lon="7.10454">
        <ele>351.02</ele>
        <time>2014-06-21T13:24:07Z</time>
      </trkpt>
      <trkpt lat="47.81396" lon="7.10453">
        <ele>354.38</ele>
        <time>2014-06-21T13:24:10Z</time>
      </trkpt>
      <trkpt lat="47.8139" lon="7.10451">
        <ele>348.13</ele>
        <time>2014-06-21T13:24:14Z</time>
      </trkpt>
      <trkpt lat="47.81388" lon="7.1045">
        <ele>349.1</ele>
        <time>2014-06-21T13:24:15Z</time>
      </trkpt>
      <trkpt lat="47.81385" lon="7.10449">
        <ele>352.94</ele>
        <time>2014-06-21T13:24:17Z</time>
      </trkpt>
      <trkpt lat="47.81379" lon="7.10447">
        <ele>348.62</ele>
        <time>2014-06-21T13:24:21Z</time>
      </trkpt>
      <trkpt lat="47.81378" lon="7.10446">
        <ele>351.98</ele>
        <time>2014-06-21T13:24:22Z</time>
      </trkpt>
      <trkpt lat="47.81371" lon="7.10439">
        <ele>348.13</ele>
        <time>2014-06-21T13:24:27Z</time>
      </trkpt>
      <trkpt lat="47.81369" lon="7.10439">
        <ele>351.02</ele>
        <time>2014-06-21T13:24:28Z</time>
      </trkpt>
      <trkpt lat="47.81367" lon="7.10436">
        <ele>354.38</ele>
        <time>2014-06-21T13:24:30Z</time>
      </trkpt>
      <trkpt lat="47.81365" lon="7.10433">
        <ele>354.38</ele>
        <time>2014-06-21T13:24:32Z</time>
      </trkpt>
      <trkpt lat="47.8136" lon="7.10433">
        <ele>346.21</ele>
        <time>2014-06-21T13:24:35Z</time>
      </trkpt>
      <trkpt lat="47.81358" lon="7.10432">
        <ele>346.21</ele>
        <time>2014-06-21T13:24:36Z</time>
      </trkpt>
      <trkpt lat="47.81356" lon="7.10432">
        <ele>350.06</ele>
        <time>2014-06-21T13:24:37Z</time>
      </trkpt>
      <trkpt lat="47.81355" lon="7.10432">
        <ele>355.34</ele>
        <time>2014-06-21T13:24:38Z</time>
      </trkpt>
      <trkpt lat="47.81351" lon="7.10433">
        <ele>351.02</ele>
        <time>2014-06-21T13:24:40Z</time>
      </trkpt>
      <trkpt lat="47.81349" lon="7.10435">
        <ele>347.17</ele>
        <time>2014-06-21T13:24:41Z</time>
      </trkpt>
      <trkpt lat="47.81343" lon="7.1044">
        <ele>353.9</ele>
        <time>2014-06-21T13:24:44Z</time>
      </trkpt>
      <trkpt lat="47.81341" lon="7.10443">
        <ele>353.42</ele>
        <time>2014-06-21T13:24:45Z</time>
      </trkpt>
      <trkpt lat="47.81339" lon="7.10443">
        <ele>349.58</ele>
        <time>2014-06-21T13:24:46Z</time>
      </trkpt>
      <trkpt lat="47.81338" lon="7.10445">
        <ele>346.69</ele>
        <time>2014-06-21T13:24:47Z</time>
      </trkpt>
      <trkpt lat="47.81336" lon="7.10446">
        <ele>346.21</ele>
        <time>2014-06-21T13:24:48Z</time>
      </trkpt>
      <trkpt lat="47.81335" lon="7.10447">
        <ele>350.06</ele>
        <time>2014-06-21T13:24:49Z</time>
      </trkpt>
      <trkpt lat="47.81334" lon="7.10448">
        <ele>354.38</ele>
        <time>2014-06-21T13:24:50Z</time>
      </trkpt>
      <trkpt lat="47.81332" lon="7.10449">
        <ele>351.5</ele>
        <time>2014-06-21T13:24:51Z</time>
      </trkpt>
      <trkpt lat="47.81331" lon="7.10451">
        <ele>348.13</ele>
        <time>2014-06-21T13:24:52Z</time>
      </trkpt>
      <trkpt lat="47.81329" lon="7.10452">
        <ele>348.13</ele>
        <time>2014-06-21T13:24:53Z</time>
      </trkpt>
      <trkpt lat="47.81326" lon="7.10455">
        <ele>344.77</ele>
        <time>2014-06-21T13:24:55Z</time>
      </trkpt>
      <trkpt lat="47.81326" lon="7.10457">
        <ele>351.02</ele>
        <time>2014-06-21T13:24:56Z</time>
      </trkpt>
      <trkpt lat="47.81323" lon="7.1046">
        <ele>351.5</ele>
        <time>2014-06-21T13:24:58Z</time>
      </trkpt>
      <trkpt lat="47.81322" lon="7.10462">
        <ele>347.65</ele>
        <time>2014-06-21T13:24:59Z</time>
      </trkpt>
      <trkpt lat="47.8132" lon="7.10464">
        <ele>348.62</ele>
        <time>2014-06-21T13:25:00Z</time>
      </trkpt>
      <trkpt lat="47.81319" lon="7.10466">
        <ele>344.29</ele>
        <time>2014-06-21T13:25:01Z</time>
      </trkpt>
      <trkpt lat="47.81318" lon="7.10468">
        <ele>346.21</ele>
        <time>2014-06-21T13:25:02Z</time>
      </trkpt>
      <trkpt lat="47.81317" lon="7.1047">
        <ele>351.5</ele>
        <time>2014-06-21T13:25:03Z</time>
      </trkpt>
      <trkpt lat="47.81315" lon="7.10471">
        <ele>349.1</ele>
        <time>2014-06-21T13:25:04Z</time>
      </trkpt>
      <trkpt lat="47.81312" lon="7.1048">
        <ele>345.25</ele>
        <time>2014-06-21T13:25:07Z</time>
      </trkpt>
      <trkpt lat="47.81307" lon="7.10483">
        <ele>351.98</ele>
        <time>2014-06-21T13:25:10Z</time>
      </trkpt>
      <trkpt lat="47.81306" lon="7.10484">
        <ele>349.58</ele>
        <time>2014-06-21T13:25:11Z</time>
      </trkpt>
      <trkpt lat="47.81305" lon="7.10484">
        <ele>346.69</ele>
        <time>2014-06-21T13:25:12Z</time>
      </trkpt>
      <trkpt lat="47.81301" lon="7.10484">
        <ele>347.17</ele>
        <time>2014-06-21T13:25:16Z</time>
      </trkpt>
      <trkpt lat="47.81299" lon="7.10485">
        <ele>350.06</ele>
        <time>2014-06-21T13:25:18Z</time>
      </trkpt>
      <trkpt lat="47.81298" lon="7.10486">
        <ele>346.21</ele>
        <time>2014-06-21T13:25:19Z</time>
      </trkpt>
      <trkpt lat="47.81297" lon="7.10487">
        <ele>342.37</ele>
        <time>2014-06-21T13:25:20Z</time>
      </trkpt>
      <trkpt lat="47.81295" lon="7.10488">
        <ele>343.33</ele>
        <time>2014-06-21T13:25:21Z</time>
      </trkpt>
      <trkpt lat="47.81292" lon="7.10488">
        <ele>347.65</ele>
        <time>2014-06-21T13:25:23Z</time>
      </trkpt>
      <trkpt lat="47.81287" lon="7.10489">
        <ele>349.1</ele>
        <time>2014-06-21T13:25:25Z</time>
      </trkpt>
      <trkpt lat="47.81284" lon="7.10489">
        <ele>345.25</ele>
        <time>2014-06-21T13:25:26Z</time>
      </trkpt>
      <trkpt lat="47.8128" lon="7.1049">
        <ele>341.89</ele>
        <time>2014-06-21T13:25:28Z</time>
      </trkpt>
      <trkpt lat="47.81279" lon="7.1049">
        <ele>345.25</ele>
        <time>2014-06-21T13:25:29Z</time>
      </trkpt>
      <trkpt lat="47.81275" lon="7.10491">
        <ele>350.06</ele>
        <time>2014-06-21T13:25:31Z</time>
      </trkpt>
      <trkpt lat="47.81273" lon="7.10492">
        <ele>348.62</ele>
        <time>2014-06-21T13:25:32Z</time>
      </trkpt>
      <trkpt lat="47.81271" lon="7.10492">
        <ele>343.33</ele>
        <time>2014-06-21T13:25:33Z</time>
      </trkpt>
      <trkpt lat="47.8127" lon="7.10491">
        <ele>343.33</ele>
        <time>2014-06-21T13:25:34Z</time>
      </trkpt>
      <trkpt lat="47.81267" lon="7.10491">
        <ele>347.65</ele>
        <time>2014-06-21T13:25:36Z</time>
      </trkpt>
      <trkpt lat="47.81265" lon="7.1049">
        <ele>347.65</ele>
        <time>2014-06-21T13:25:37Z</time>
      </trkpt>
      <trkpt lat="47.81262" lon="7.1049">
        <ele>343.81</ele>
        <time>2014-06-21T13:25:39Z</time>
      </trkpt>
      <trkpt lat="47.8126" lon="7.1049">
        <ele>343.81</ele>
        <time>2014-06-21T13:25:40Z</time>
      </trkpt>
      <trkpt lat="47.81255" lon="7.10487">
        <ele>346.69</ele>
        <time>2014-06-21T13:25:43Z</time>
      </trkpt>
      <trkpt lat="47.81253" lon="7.10484">
        <ele>347.65</ele>
        <time>2014-06-21T13:25:45Z</time>
      </trkpt>
      <trkpt lat="47.8125" lon="7.10481">
        <ele>342.85</ele>
        <time>2014-06-21T13:25:47Z</time>
      </trkpt>
      <trkpt lat="47.81249" lon="7.1048">
        <ele>342.37</ele>
        <time>2014-06-21T13:25:48Z</time>
      </trkpt>
      <trkpt lat="47.81247" lon="7.10476">
        <ele>348.62</ele>
        <time>2014-06-21T13:25:50Z</time>
      </trkpt>
      <trkpt lat="47.81246" lon="7.10474">
        <ele>347.65</ele>
        <time>2014-06-21T13:25:51Z</time>
      </trkpt>
      <trkpt lat="47.81243" lon="7.10471">
        <ele>341.89</ele>
        <time>2014-06-21T13:25:53Z</time>
      </trkpt>
      <trkpt lat="47.81242" lon="7.10469">
        <ele>341.89</ele>
        <time>2014-06-21T13:25:54Z</time>
      </trkpt>
      <trkpt lat="47.81238" lon="7.10464">
        <ele>347.17</ele>
        <time>2014-06-21T13:25:58Z</time>
      </trkpt>
      <trkpt lat="47.81236" lon="7.1046">
        <ele>349.58</ele>
        <time>2014-06-21T13:26:00Z</time>
      </trkpt>
      <trkpt lat="47.81232" lon="7.10459">
        <ele>345.73</ele>
        <time>2014-06-21T13:26:02Z</time>
      </trkpt>
      <trkpt lat="47.8123" lon="7.1046">
        <ele>342.37</ele>
        <time>2014-06-21T13:26:03Z</time>
      </trkpt>
      <trkpt lat="47.81228" lon="7.1046">
        <ele>343.81</ele>
        <time>2014-06-21T13:26:04Z</time>
      </trkpt>
      <trkpt lat="47.8122" lon="7.10462">
        <ele>347.65</ele>
        <time>2014-06-21T13:26:07Z</time>
      </trkpt>
      <trkpt lat="47.81198" lon="7.10464">
        <ele>346.69</ele>
        <time>2014-06-21T13:26:22Z</time>
      </trkpt>
      <trkpt lat="47.81197" lon="7.10464">
        <ele>346.69</ele>
        <time>2014-06-21T13:26:23Z</time>
      </trkpt>
      <trkpt lat="47.8119" lon="7.10462">
        <ele>342.85</ele>
        <time>2014-06-21T13:26:27Z</time>
      </trkpt>
      <trkpt lat="47.81189" lon="7.10462">
        <ele>346.21</ele>
        <time>2014-06-21T13:26:28Z</time>
      </trkpt>
      <trkpt lat="47.81179" lon="7.10458">
        <ele>346.21</ele>
        <time>2014-06-21T13:26:36Z</time>
      </trkpt>
      <trkpt lat="47.81173" lon="7.10453">
        <ele>343.33</ele>
        <time>2014-06-21T13:26:41Z</time>
      </trkpt>
      <trkpt lat="47.81172" lon="7.10452">
        <ele>345.25</ele>
        <time>2014-06-21T13:26:42Z</time>
      </trkpt>
      <trkpt lat="47.81165" lon="7.10438">
        <ele>341.89</ele>
        <time>2014-06-21T13:26:51Z</time>
      </trkpt>
      <trkpt lat="47.81165" lon="7.10437">
        <ele>341.89</ele>
        <time>2014-06-21T13:26:52Z</time>
      </trkpt>
      <trkpt lat="47.81163" lon="7.10433">
        <ele>346.21</ele>
        <time>2014-06-21T13:26:54Z</time>
      </trkpt>
      <trkpt lat="47.8116" lon="7.10429">
        <ele>349.58</ele>
        <time>2014-06-21T13:26:56Z</time>
      </trkpt>
      <trkpt lat="47.81158" lon="7.10425">
        <ele>344.29</ele>
        <time>2014-06-21T13:26:58Z</time>
      </trkpt>
      <trkpt lat="47.81158" lon="7.1042">
        <ele>342.37</ele>
        <time>2014-06-21T13:27:00Z</time>
      </trkpt>
      <trkpt lat="47.81158" lon="7.10411">
        <ele>349.58</ele>
        <time>2014-06-21T13:27:03Z</time>
      </trkpt>
      <trkpt lat="47.81157" lon="7.10409">
        <ele>349.58</ele>
        <time>2014-06-21T13:27:04Z</time>
      </trkpt>
      <trkpt lat="47.81156" lon="7.10405">
        <ele>348.13</ele>
        <time>2014-06-21T13:27:06Z</time>
      </trkpt>
      <trkpt lat="47.81155" lon="7.10402">
        <ele>344.29</ele>
        <time>2014-06-21T13:27:07Z</time>
      </trkpt>
      <trkpt lat="47.81154" lon="7.10398">
        <ele>340.92</ele>
        <time>2014-06-21T13:27:09Z</time>
      </trkpt>
      <trkpt lat="47.81152" lon="7.10395">
        <ele>347.65</ele>
        <time>2014-06-21T13:27:11Z</time>
      </trkpt>
      <trkpt lat="47.81152" lon="7.10393">
        <ele>347.65</ele>
        <time>2014-06-21T13:27:12Z</time>
      </trkpt>
      <trkpt lat="47.81152" lon="7.10383">
        <ele>342.37</ele>
        <time>2014-06-21T13:27:16Z</time>
      </trkpt>
      <trkpt lat="47.81151" lon="7.10379">
        <ele>341.41</ele>
        <time>2014-06-21T13:27:18Z</time>
      </trkpt>
      <trkpt lat="47.8115" lon="7.10377">
        <ele>344.77</ele>
        <time>2014-06-21T13:27:19Z</time>
      </trkpt>
      <trkpt lat="47.81149" lon="7.10373">
        <ele>348.13</ele>
        <time>2014-06-21T13:27:21Z</time>
      </trkpt>
      <trkpt lat="47.81148" lon="7.10371">
        <ele>344.29</ele>
        <time>2014-06-21T13:27:23Z</time>
      </trkpt>
      <trkpt lat="47.81147" lon="7.10366">
        <ele>340.92</ele>
        <time>2014-06-21T13:27:25Z</time>
      </trkpt>
      <trkpt lat="47.81146" lon="7.10362">
        <ele>341.89</ele>
        <time>2014-06-21T13:27:26Z</time>
      </trkpt>
      <trkpt lat="47.81145" lon="7.10359">
        <ele>346.69</ele>
        <time>2014-06-21T13:27:27Z</time>
      </trkpt>
      <trkpt lat="47.81139" lon="7.10346">
        <ele>342.37</ele>
        <time>2014-06-21T13:27:32Z</time>
      </trkpt>
      <trkpt lat="47.81135" lon="7.10341">
        <ele>347.17</ele>
        <time>2014-06-21T13:27:35Z</time>
      </trkpt>
      <trkpt lat="47.81131" lon="7.10334">
        <ele>340.44</ele>
        <time>2014-06-21T13:27:39Z</time>
      </trkpt>
      <trkpt lat="47.8113" lon="7.10332">
        <ele>344.29</ele>
        <time>2014-06-21T13:27:40Z</time>
      </trkpt>
      <trkpt lat="47.81129" lon="7.10331">
        <ele>348.13</ele>
        <time>2014-06-21T13:27:41Z</time>
      </trkpt>
      <trkpt lat="47.81127" lon="7.10328">
        <ele>344.29</ele>
        <time>2014-06-21T13:27:43Z</time>
      </trkpt>
      <trkpt lat="47.81126" lon="7.10327">
        <ele>345.25</ele>
        <time>2014-06-21T13:27:44Z</time>
      </trkpt>
      <trkpt lat="47.8112" lon="7.10322">
        <ele>351.5</ele>
        <time>2014-06-21T13:27:48Z</time>
      </trkpt>
      <trkpt lat="47.81119" lon="7.1032">
        <ele>346.69</ele>
        <time>2014-06-21T13:27:49Z</time>
      </trkpt>
      <trkpt lat="47.81115" lon="7.10317">
        <ele>343.33</ele>
        <time>2014-06-21T13:27:52Z</time>
      </trkpt>
      <trkpt lat="47.81112" lon="7.10314">
        <ele>346.21</ele>
        <time>2014-06-21T13:27:55Z</time>
      </trkpt>
      <trkpt lat="47.81108" lon="7.10313">
        <ele>348.62</ele>
        <time>2014-06-21T13:27:57Z</time>
      </trkpt>
      <trkpt lat="47.81095" lon="7.10304">
        <ele>343.81</ele>
        <time>2014-06-21T13:28:07Z</time>
      </trkpt>
      <trkpt lat="47.81094" lon="7.10303">
        <ele>344.29</ele>
        <time>2014-06-21T13:28:08Z</time>
      </trkpt>
      <trkpt lat="47.81089" lon="7.10298">
        <ele>345.25</ele>
        <time>2014-06-21T13:28:13Z</time>
      </trkpt>
      <trkpt lat="47.81082" lon="7.10291">
        <ele>344.29</ele>
        <time>2014-06-21T13:28:18Z</time>
      </trkpt>
      <trkpt lat="47.81075" lon="7.10276">
        <ele>344.29</ele>
        <time>2014-06-21T13:28:27Z</time>
      </trkpt>
      <trkpt lat="47.81072" lon="7.10271">
        <ele>347.65</ele>
        <time>2014-06-21T13:28:31Z</time>
      </trkpt>
      <trkpt lat="47.81071" lon="7.10269">
        <ele>348.13</ele>
        <time>2014-06-21T13:28:32Z</time>
      </trkpt>
      <trkpt lat="47.8107" lon="7.10267">
        <ele>344.77</ele>
        <time>2014-06-21T13:28:34Z</time>
      </trkpt>
      <trkpt lat="47.81067" lon="7.10263">
        <ele>340.92</ele>
        <time>2014-06-21T13:28:37Z</time>
      </trkpt>
      <trkpt lat="47.81066" lon="7.10262">
        <ele>341.41</ele>
        <time>2014-06-21T13:28:38Z</time>
      </trkpt>
      <trkpt lat="47.81064" lon="7.1026">
        <ele>347.17</ele>
        <time>2014-06-21T13:28:39Z</time>
      </trkpt>
      <trkpt lat="47.8106" lon="7.10257">
        <ele>351.02</ele>
        <time>2014-06-21T13:28:41Z</time>
      </trkpt>
      <trkpt lat="47.81058" lon="7.10256">
        <ele>351.02</ele>
        <time>2014-06-21T13:28:42Z</time>
      </trkpt>
      <trkpt lat="47.81055" lon="7.10254">
        <ele>347.65</ele>
        <time>2014-06-21T13:28:44Z</time>
      </trkpt>
      <trkpt lat="47.81048" lon="7.10249">
        <ele>345.73</ele>
        <time>2014-06-21T13:28:48Z</time>
      </trkpt>
      <trkpt lat="47.81045" lon="7.10247">
        <ele>342.85</ele>
        <time>2014-06-21T13:28:50Z</time>
      </trkpt>
      <trkpt lat="47.8104" lon="7.10244">
        <ele>347.65</ele>
        <time>2014-06-21T13:28:53Z</time>
      </trkpt>
      <trkpt lat="47.81033" lon="7.10237">
        <ele>345.73</ele>
        <time>2014-06-21T13:29:01Z</time>
      </trkpt>
      <trkpt lat="47.81028" lon="7.10236">
        <ele>347.65</ele>
        <time>2014-06-21T13:29:07Z</time>
      </trkpt>
      <trkpt lat="47.81022" lon="7.10232">
        <ele>347.17</ele>
        <time>2014-06-21T13:29:11Z</time>
      </trkpt>
      <trkpt lat="47.81014" lon="7.10213">
        <ele>344.29</ele>
        <time>2014-06-21T13:29:22Z</time>
      </trkpt>
      <trkpt lat="47.81013" lon="7.10211">
        <ele>341.41</ele>
        <time>2014-06-21T13:29:23Z</time>
      </trkpt>
      <trkpt lat="47.81008" lon="7.10206">
        <ele>344.77</ele>
        <time>2014-06-21T13:29:27Z</time>
      </trkpt>
      <trkpt lat="47.81007" lon="7.10206">
        <ele>344.77</ele>
        <time>2014-06-21T13:29:28Z</time>
      </trkpt>
      <trkpt lat="47.81004" lon="7.10205">
        <ele>346.21</ele>
        <time>2014-06-21T13:29:30Z</time>
      </trkpt>
      <trkpt lat="47.80998" lon="7.10203">
        <ele>345.73</ele>
        <time>2014-06-21T13:29:33Z</time>
      </trkpt>
      <trkpt lat="47.80996" lon="7.10197">
        <ele>347.17</ele>
        <time>2014-06-21T13:29:37Z</time>
      </trkpt>
      <trkpt lat="47.80996" lon="7.10196">
        <ele>342.85</ele>
        <time>2014-06-21T13:29:38Z</time>
      </trkpt>
      <trkpt lat="47.80996" lon="7.10195">
        <ele>348.13</ele>
        <time>2014-06-21T13:29:39Z</time>
      </trkpt>
      <trkpt lat="47.80991" lon="7.10187">
        <ele>349.58</ele>
        <time>2014-06-21T13:29:44Z</time>
      </trkpt>
      <trkpt lat="47.80988" lon="7.10184">
        <ele>345.25</ele>
        <time>2014-06-21T13:29:46Z</time>
      </trkpt>
      <trkpt lat="47.80986" lon="7.10183">
        <ele>342.37</ele>
        <time>2014-06-21T13:29:47Z</time>
      </trkpt>
      <trkpt lat="47.8098" lon="7.10184">
        <ele>347.17</ele>
        <time>2014-06-21T13:29:50Z</time>
      </trkpt>
      <trkpt lat="47.80979" lon="7.10186">
        <ele>348.62</ele>
        <time>2014-06-21T13:29:51Z</time>
      </trkpt>
      <trkpt lat="47.80973" lon="7.10193">
        <ele>347.65</ele>
        <time>2014-06-21T13:29:55Z</time>
      </trkpt>
      <trkpt lat="47.80972" lon="7.10194">
        <ele>344.29</ele>
        <time>2014-06-21T13:29:56Z</time>
      </trkpt>
      <trkpt lat="47.8097" lon="7.10194">
        <ele>350.06</ele>
        <time>2014-06-21T13:29:59Z</time>
      </trkpt>
      <trkpt lat="47.80967" lon="7.10193">
        <ele>346.69</ele>
        <time>2014-06-21T13:30:01Z</time>
      </trkpt>
      <trkpt lat="47.80967" lon="7.10192">
        <ele>348.62</ele>
        <time>2014-06-21T13:30:02Z</time>
      </trkpt>
      <trkpt lat="47.80966" lon="7.10192">
        <ele>347.17</ele>
        <time>2014-06-21T13:30:03Z</time>
      </trkpt>
      <trkpt lat="47.80969" lon="7.10184">
        <ele>350.06</ele>
        <time>2014-06-21T13:30:07Z</time>
      </trkpt>
      <trkpt lat="47.80972" lon="7.10178">
        <ele>351.02</ele>
        <time>2014-06-21T13:30:10Z</time>
      </trkpt>
      <trkpt lat="47.80974" lon="7.10166">
        <ele>347.17</ele>
        <time>2014-06-21T13:30:16Z</time>
      </trkpt>
      <trkpt lat="47.80975" lon="7.10138">
        <ele>347.65</ele>
        <time>2014-06-21T13:30:30Z</time>
      </trkpt>
      <trkpt lat="47.80971" lon="7.10123">
        <ele>350.54</ele>
        <time>2014-06-21T13:30:37Z</time>
      </trkpt>
      <trkpt lat="47.80971" lon="7.10118">
        <ele>346.69</ele>
        <time>2014-06-21T13:30:40Z</time>
      </trkpt>
      <trkpt lat="47.80972" lon="7.10114">
        <ele>344.77</ele>
        <time>2014-06-21T13:30:42Z</time>
      </trkpt>
      <trkpt lat="47.80972" lon="7.1011">
        <ele>350.54</ele>
        <time>2014-06-21T13:30:44Z</time>
      </trkpt>
      <trkpt lat="47.80972" lon="7.10107">
        <ele>351.5</ele>
        <time>2014-06-21T13:30:46Z</time>
      </trkpt>
      <trkpt lat="47.80971" lon="7.10107">
        <ele>346.21</ele>
        <time>2014-06-21T13:30:47Z</time>
      </trkpt>
      <trkpt lat="47.80969" lon="7.10107">
        <ele>351.5</ele>
        <time>2014-06-21T13:30:48Z</time>
      </trkpt>
      <trkpt lat="47.80969" lon="7.10106">
        <ele>347.17</ele>
        <time>2014-06-21T13:30:50Z</time>
      </trkpt>
      <trkpt lat="47.80968" lon="7.10106">
        <ele>346.21</ele>
        <time>2014-06-21T13:30:52Z</time>
      </trkpt>
      <trkpt lat="47.80968" lon="7.10105">
        <ele>351.02</ele>
        <time>2014-06-21T13:30:54Z</time>
      </trkpt>
      <trkpt lat="47.80968" lon="7.101">
        <ele>351.02</ele>
        <time>2014-06-21T13:31:01Z</time>
      </trkpt>
      <trkpt lat="47.8097" lon="7.10091">
        <ele>347.65</ele>
        <time>2014-06-21T13:31:06Z</time>
      </trkpt>
      <trkpt lat="47.80972" lon="7.10085">
        <ele>351.02</ele>
        <time>2014-06-21T13:31:09Z</time>
      </trkpt>
      <trkpt lat="47.80973" lon="7.10081">
        <ele>351.02</ele>
        <time>2014-06-21T13:31:11Z</time>
      </trkpt>
      <trkpt lat="47.80975" lon="7.10066">
        <ele>353.9</ele>
        <time>2014-06-21T13:31:18Z</time>
      </trkpt>
      <trkpt lat="47.80974" lon="7.10062">
        <ele>350.54</ele>
        <time>2014-06-21T13:31:20Z</time>
      </trkpt>
      <trkpt lat="47.80971" lon="7.10058">
        <ele>356.31</ele>
        <time>2014-06-21T13:31:23Z</time>
      </trkpt>
      <trkpt lat="47.80955" lon="7.10039">
        <ele>352.94</ele>
        <time>2014-06-21T13:31:39Z</time>
      </trkpt>
      <trkpt lat="47.80953" lon="7.10037">
        <ele>354.86</ele>
        <time>2014-06-21T13:31:41Z</time>
      </trkpt>
      <trkpt lat="47.80952" lon="7.10037">
        <ele>359.19</ele>
        <time>2014-06-21T13:31:42Z</time>
      </trkpt>
      <trkpt lat="47.80951" lon="7.10036">
        <ele>357.75</ele>
        <time>2014-06-21T13:31:43Z</time>
      </trkpt>
      <trkpt lat="47.80946" lon="7.1003">
        <ele>357.75</ele>
        <time>2014-06-21T13:31:50Z</time>
      </trkpt>
      <trkpt lat="47.80945" lon="7.10028">
        <ele>361.59</ele>
        <time>2014-06-21T13:31:52Z</time>
      </trkpt>
      <trkpt lat="47.80943" lon="7.10028">
        <ele>355.34</ele>
        <time>2014-06-21T13:31:54Z</time>
      </trkpt>
      <trkpt lat="47.80942" lon="7.10027">
        <ele>356.31</ele>
        <time>2014-06-21T13:31:55Z</time>
      </trkpt>
      <trkpt lat="47.80942" lon="7.10026">
        <ele>361.59</ele>
        <time>2014-06-21T13:31:56Z</time>
      </trkpt>
      <trkpt lat="47.80941" lon="7.10024">
        <ele>364.48</ele>
        <time>2014-06-21T13:31:57Z</time>
      </trkpt>
      <trkpt lat="47.8094" lon="7.10023">
        <ele>362.55</ele>
        <time>2014-06-21T13:31:58Z</time>
      </trkpt>
      <trkpt lat="47.80939" lon="7.10022">
        <ele>359.67</ele>
        <time>2014-06-21T13:31:59Z</time>
      </trkpt>
      <trkpt lat="47.80937" lon="7.1002">
        <ele>358.23</ele>
        <time>2014-06-21T13:32:01Z</time>
      </trkpt>
      <trkpt lat="47.80936" lon="7.10017">
        <ele>364</ele>
        <time>2014-06-21T13:32:03Z</time>
      </trkpt>
      <trkpt lat="47.80933" lon="7.10014">
        <ele>360.15</ele>
        <time>2014-06-21T13:32:06Z</time>
      </trkpt>
      <trkpt lat="47.8093" lon="7.10012">
        <ele>365.92</ele>
        <time>2014-06-21T13:32:09Z</time>
      </trkpt>
      <trkpt lat="47.80929" lon="7.10011">
        <ele>362.55</ele>
        <time>2014-06-21T13:32:10Z</time>
      </trkpt>
      <trkpt lat="47.80926" lon="7.10006">
        <ele>365.92</ele>
        <time>2014-06-21T13:32:14Z</time>
      </trkpt>
      <trkpt lat="47.80925" lon="7.10005">
        <ele>362.55</ele>
        <time>2014-06-21T13:32:15Z</time>
      </trkpt>
      <trkpt lat="47.80924" lon="7.10004">
        <ele>363.04</ele>
        <time>2014-06-21T13:32:16Z</time>
      </trkpt>
      <trkpt lat="47.80922" lon="7.10003">
        <ele>370.24</ele>
        <time>2014-06-21T13:32:18Z</time>
      </trkpt>
      <trkpt lat="47.80921" lon="7.10002">
        <ele>364</ele>
        <time>2014-06-21T13:32:19Z</time>
      </trkpt>
      <trkpt lat="47.80918" lon="7.1">
        <ele>370.24</ele>
        <time>2014-06-21T13:32:22Z</time>
      </trkpt>
      <trkpt lat="47.80917" lon="7.09999">
        <ele>369.28</ele>
        <time>2014-06-21T13:32:23Z</time>
      </trkpt>
      <trkpt lat="47.80916" lon="7.09999">
        <ele>361.59</ele>
        <time>2014-06-21T13:32:24Z</time>
      </trkpt>
      <trkpt lat="47.80916" lon="7.09998">
        <ele>363.52</ele>
        <time>2014-06-21T13:32:25Z</time>
      </trkpt>
      <trkpt lat="47.80915" lon="7.09996">
        <ele>371.69</ele>
        <time>2014-06-21T13:32:27Z</time>
      </trkpt>
      <trkpt lat="47.80913" lon="7.09995">
        <ele>365.44</ele>
        <time>2014-06-21T13:32:29Z</time>
      </trkpt>
      <trkpt lat="47.80912" lon="7.09994">
        <ele>369.28</ele>
        <time>2014-06-21T13:32:31Z</time>
      </trkpt>
      <trkpt lat="47.80911" lon="7.09994">
        <ele>372.65</ele>
        <time>2014-06-21T13:32:32Z</time>
      </trkpt>
      <trkpt lat="47.8091" lon="7.09993">
        <ele>366.4</ele>
        <time>2014-06-21T13:32:34Z</time>
      </trkpt>
      <trkpt lat="47.80909" lon="7.09993">
        <ele>365.92</ele>
        <time>2014-06-21T13:32:35Z</time>
      </trkpt>
      <trkpt lat="47.80908" lon="7.09992">
        <ele>370.24</ele>
        <time>2014-06-21T13:32:36Z</time>
      </trkpt>
      <trkpt lat="47.80907" lon="7.09991">
        <ele>375.53</ele>
        <time>2014-06-21T13:32:37Z</time>
      </trkpt>
      <trkpt lat="47.80906" lon="7.0999">
        <ele>373.61</ele>
        <time>2014-06-21T13:32:38Z</time>
      </trkpt>
      <trkpt lat="47.80905" lon="7.0999">
        <ele>367.84</ele>
        <time>2014-06-21T13:32:39Z</time>
      </trkpt>
      <trkpt lat="47.80903" lon="7.0999">
        <ele>367.84</ele>
        <time>2014-06-21T13:32:40Z</time>
      </trkpt>
      <trkpt lat="47.80902" lon="7.09989">
        <ele>371.21</ele>
        <time>2014-06-21T13:32:41Z</time>
      </trkpt>
      <trkpt lat="47.80901" lon="7.09988">
        <ele>374.57</ele>
        <time>2014-06-21T13:32:42Z</time>
      </trkpt>
      <trkpt lat="47.809" lon="7.09987">
        <ele>374.57</ele>
        <time>2014-06-21T13:32:43Z</time>
      </trkpt>
      <trkpt lat="47.80898" lon="7.09984">
        <ele>370.24</ele>
        <time>2014-06-21T13:32:45Z</time>
      </trkpt>
      <trkpt lat="47.80896" lon="7.0998">
        <ele>374.57</ele>
        <time>2014-06-21T13:32:47Z</time>
      </trkpt>
      <trkpt lat="47.80894" lon="7.09978">
        <ele>369.76</ele>
        <time>2014-06-21T13:32:49Z</time>
      </trkpt>
      <trkpt lat="47.80892" lon="7.09975">
        <ele>373.13</ele>
        <time>2014-06-21T13:32:52Z</time>
      </trkpt>
      <trkpt lat="47.8089" lon="7.09974">
        <ele>376.97</ele>
        <time>2014-06-21T13:32:54Z</time>
      </trkpt>
      <trkpt lat="47.80889" lon="7.09972">
        <ele>369.76</ele>
        <time>2014-06-21T13:32:55Z</time>
      </trkpt>
      <trkpt lat="47.80888" lon="7.09972">
        <ele>370.73</ele>
        <time>2014-06-21T13:32:56Z</time>
      </trkpt>
      <trkpt lat="47.80886" lon="7.0997">
        <ele>376.97</ele>
        <time>2014-06-21T13:32:58Z</time>
      </trkpt>
      <trkpt lat="47.80883" lon="7.09966">
        <ele>371.69</ele>
        <time>2014-06-21T13:33:01Z</time>
      </trkpt>
      <trkpt lat="47.80882" lon="7.09966">
        <ele>373.13</ele>
        <time>2014-06-21T13:33:02Z</time>
      </trkpt>
      <trkpt lat="47.80879" lon="7.09965">
        <ele>378.42</ele>
        <time>2014-06-21T13:33:04Z</time>
      </trkpt>
      <trkpt lat="47.80877" lon="7.09964">
        <ele>373.61</ele>
        <time>2014-06-21T13:33:06Z</time>
      </trkpt>
      <trkpt lat="47.80876" lon="7.09963">
        <ele>373.61</ele>
        <time>2014-06-21T13:33:07Z</time>
      </trkpt>
      <trkpt lat="47.80874" lon="7.09962">
        <ele>381.3</ele>
        <time>2014-06-21T13:33:09Z</time>
      </trkpt>
      <trkpt lat="47.80871" lon="7.09961">
        <ele>373.61</ele>
        <time>2014-06-21T13:33:11Z</time>
      </trkpt>
      <trkpt lat="47.8087" lon="7.09961">
        <ele>376.97</ele>
        <time>2014-06-21T13:33:12Z</time>
      </trkpt>
      <trkpt lat="47.80868" lon="7.09961">
        <ele>373.61</ele>
        <time>2014-06-21T13:33:13Z</time>
      </trkpt>
      <trkpt lat="47.80866" lon="7.09961">
        <ele>376.97</ele>
        <time>2014-06-21T13:33:14Z</time>
      </trkpt>
      <trkpt lat="47.80865" lon="7.09961">
        <ele>372.17</ele>
        <time>2014-06-21T13:33:15Z</time>
      </trkpt>
      <trkpt lat="47.80864" lon="7.09961">
        <ele>378.42</ele>
        <time>2014-06-21T13:33:16Z</time>
      </trkpt>
      <trkpt lat="47.80863" lon="7.0996">
        <ele>373.61</ele>
        <time>2014-06-21T13:33:17Z</time>
      </trkpt>
      <trkpt lat="47.80861" lon="7.09955">
        <ele>375.53</ele>
        <time>2014-06-21T13:33:20Z</time>
      </trkpt>
      <trkpt lat="47.8086" lon="7.09952">
        <ele>378.9</ele>
        <time>2014-06-21T13:33:24Z</time>
      </trkpt>
      <trkpt lat="47.8086" lon="7.09951">
        <ele>375.53</ele>
        <time>2014-06-21T13:33:25Z</time>
      </trkpt>
      <trkpt lat="47.80858" lon="7.09948">
        <ele>383.7</ele>
        <time>2014-06-21T13:33:28Z</time>
      </trkpt>
      <trkpt lat="47.80858" lon="7.09948">
        <ele>383.7</ele>
        <time>2014-06-21T13:33:29Z</time>
      </trkpt>
      <trkpt lat="47.80857" lon="7.09947">
        <ele>374.57</ele>
        <time>2014-06-21T13:33:30Z</time>
      </trkpt>
      <trkpt lat="47.80856" lon="7.09946">
        <ele>376.49</ele>
        <time>2014-06-21T13:33:31Z</time>
      </trkpt>
      <trkpt lat="47.80855" lon="7.09944">
        <ele>388.99</ele>
        <time>2014-06-21T13:33:33Z</time>
      </trkpt>
      <trkpt lat="47.80854" lon="7.09944">
        <ele>381.3</ele>
        <time>2014-06-21T13:33:34Z</time>
      </trkpt>
      <trkpt lat="47.80852" lon="7.0994">
        <ele>384.18</ele>
        <time>2014-06-21T13:33:37Z</time>
      </trkpt>
      <trkpt lat="47.80851" lon="7.09938">
        <ele>388.51</ele>
        <time>2014-06-21T13:33:38Z</time>
      </trkpt>
      <trkpt lat="47.8085" lon="7.09937">
        <ele>382.26</ele>
        <time>2014-06-21T13:33:39Z</time>
      </trkpt>
      <trkpt lat="47.80844" lon="7.09928">
        <ele>380.82</ele>
        <time>2014-06-21T13:33:46Z</time>
      </trkpt>
      <trkpt lat="47.80842" lon="7.09925">
        <ele>379.86</ele>
        <time>2014-06-21T13:33:48Z</time>
      </trkpt>
      <trkpt lat="47.8084" lon="7.09923">
        <ele>383.22</ele>
        <time>2014-06-21T13:33:50Z</time>
      </trkpt>
      <trkpt lat="47.80837" lon="7.09918">
        <ele>379.86</ele>
        <time>2014-06-21T13:33:54Z</time>
      </trkpt>
      <trkpt lat="47.80834" lon="7.09917">
        <ele>377.45</ele>
        <time>2014-06-21T13:33:55Z</time>
      </trkpt>
      <trkpt lat="47.80831" lon="7.09912">
        <ele>382.26</ele>
        <time>2014-06-21T13:33:58Z</time>
      </trkpt>
      <trkpt lat="47.80829" lon="7.0991">
        <ele>383.7</ele>
        <time>2014-06-21T13:34:00Z</time>
      </trkpt>
      <trkpt lat="47.80828" lon="7.09909">
        <ele>387.07</ele>
        <time>2014-06-21T13:34:01Z</time>
      </trkpt>
      <trkpt lat="47.80828" lon="7.09908">
        <ele>382.74</ele>
        <time>2014-06-21T13:34:02Z</time>
      </trkpt>
      <trkpt lat="47.80826" lon="7.09907">
        <ele>385.63</ele>
        <time>2014-06-21T13:34:04Z</time>
      </trkpt>
      <trkpt lat="47.80824" lon="7.09904">
        <ele>381.3</ele>
        <time>2014-06-21T13:34:06Z</time>
      </trkpt>
      <trkpt lat="47.80821" lon="7.09903">
        <ele>380.34</ele>
        <time>2014-06-21T13:34:08Z</time>
      </trkpt>
      <trkpt lat="47.80819" lon="7.09901">
        <ele>387.55</ele>
        <time>2014-06-21T13:34:11Z</time>
      </trkpt>
      <trkpt lat="47.80816" lon="7.09899">
        <ele>390.91</ele>
        <time>2014-06-21T13:34:13Z</time>
      </trkpt>
      <trkpt lat="47.80813" lon="7.09899">
        <ele>378.9</ele>
        <time>2014-06-21T13:34:15Z</time>
      </trkpt>
      <trkpt lat="47.80811" lon="7.09898">
        <ele>378.9</ele>
        <time>2014-06-21T13:34:16Z</time>
      </trkpt>
      <trkpt lat="47.8081" lon="7.09898">
        <ele>381.3</ele>
        <time>2014-06-21T13:34:17Z</time>
      </trkpt>
      <trkpt lat="47.80807" lon="7.09897">
        <ele>386.11</ele>
        <time>2014-06-21T13:34:19Z</time>
      </trkpt>
      <trkpt lat="47.80801" lon="7.09895">
        <ele>381.3</ele>
        <time>2014-06-21T13:34:23Z</time>
      </trkpt>
      <trkpt lat="47.80798" lon="7.09895">
        <ele>384.66</ele>
        <time>2014-06-21T13:34:25Z</time>
      </trkpt>
      <trkpt lat="47.80796" lon="7.09895">
        <ele>384.66</ele>
        <time>2014-06-21T13:34:26Z</time>
      </trkpt>
      <trkpt lat="47.80784" lon="7.0989">
        <ele>388.03</ele>
        <time>2014-06-21T13:34:35Z</time>
      </trkpt>
      <trkpt lat="47.80782" lon="7.09887">
        <ele>385.15</ele>
        <time>2014-06-21T13:34:39Z</time>
      </trkpt>
      <trkpt lat="47.80779" lon="7.09886">
        <ele>388.99</ele>
        <time>2014-06-21T13:34:41Z</time>
      </trkpt>
      <trkpt lat="47.80777" lon="7.09886">
        <ele>385.63</ele>
        <time>2014-06-21T13:34:42Z</time>
      </trkpt>
      <trkpt lat="47.80769" lon="7.09879">
        <ele>389.95</ele>
        <time>2014-06-21T13:34:49Z</time>
      </trkpt>
      <trkpt lat="47.80768" lon="7.09878">
        <ele>392.84</ele>
        <time>2014-06-21T13:34:50Z</time>
      </trkpt>
      <trkpt lat="47.80767" lon="7.09877">
        <ele>392.84</ele>
        <time>2014-06-21T13:34:51Z</time>
      </trkpt>
      <trkpt lat="47.80766" lon="7.09876">
        <ele>386.11</ele>
        <time>2014-06-21T13:34:53Z</time>
      </trkpt>
      <trkpt lat="47.80765" lon="7.09876">
        <ele>382.74</ele>
        <time>2014-06-21T13:34:54Z</time>
      </trkpt>
      <trkpt lat="47.80765" lon="7.09875">
        <ele>382.74</ele>
        <time>2014-06-21T13:34:55Z</time>
      </trkpt>
      <trkpt lat="47.80764" lon="7.09875">
        <ele>386.59</ele>
        <time>2014-06-21T13:34:56Z</time>
      </trkpt>
      <trkpt lat="47.80762" lon="7.09873">
        <ele>390.91</ele>
        <time>2014-06-21T13:34:58Z</time>
      </trkpt>
      <trkpt lat="47.80758" lon="7.09869">
        <ele>390.43</ele>
        <time>2014-06-21T13:35:01Z</time>
      </trkpt>
      <trkpt lat="47.80756" lon="7.09866">
        <ele>392.36</ele>
        <time>2014-06-21T13:35:03Z</time>
      </trkpt>
      <trkpt lat="47.80752" lon="7.09863">
        <ele>386.59</ele>
        <time>2014-06-21T13:35:05Z</time>
      </trkpt>
      <trkpt lat="47.8075" lon="7.09861">
        <ele>390.43</ele>
        <time>2014-06-21T13:35:06Z</time>
      </trkpt>
      <trkpt lat="47.80746" lon="7.09858">
        <ele>386.11</ele>
        <time>2014-06-21T13:35:09Z</time>
      </trkpt>
      <trkpt lat="47.80742" lon="7.0985">
        <ele>387.55</ele>
        <time>2014-06-21T13:35:13Z</time>
      </trkpt>
      <trkpt lat="47.80739" lon="7.09844">
        <ele>388.51</ele>
        <time>2014-06-21T13:35:17Z</time>
      </trkpt>
      <trkpt lat="47.80735" lon="7.09838">
        <ele>394.28</ele>
        <time>2014-06-21T13:35:21Z</time>
      </trkpt>
      <trkpt lat="47.80735" lon="7.09837">
        <ele>389.95</ele>
        <time>2014-06-21T13:35:22Z</time>
      </trkpt>
      <trkpt lat="47.80733" lon="7.09828">
        <ele>393.32</ele>
        <time>2014-06-21T13:35:26Z</time>
      </trkpt>
      <trkpt lat="47.80733" lon="7.09823">
        <ele>389.47</ele>
        <time>2014-06-21T13:35:29Z</time>
      </trkpt>
      <trkpt lat="47.80732" lon="7.09821">
        <ele>392.84</ele>
        <time>2014-06-21T13:35:30Z</time>
      </trkpt>
      <trkpt lat="47.80732" lon="7.09817">
        <ele>388.51</ele>
        <time>2014-06-21T13:35:32Z</time>
      </trkpt>
      <trkpt lat="47.80729" lon="7.0981">
        <ele>391.39</ele>
        <time>2014-06-21T13:35:36Z</time>
      </trkpt>
      <trkpt lat="47.80729" lon="7.09808">
        <ele>390.91</ele>
        <time>2014-06-21T13:35:37Z</time>
      </trkpt>
      <trkpt lat="47.80728" lon="7.09806">
        <ele>394.76</ele>
        <time>2014-06-21T13:35:38Z</time>
      </trkpt>
      <trkpt lat="47.80727" lon="7.09804">
        <ele>394.28</ele>
        <time>2014-06-21T13:35:39Z</time>
      </trkpt>
      <trkpt lat="47.80725" lon="7.09802">
        <ele>397.64</ele>
        <time>2014-06-21T13:35:41Z</time>
      </trkpt>
      <trkpt lat="47.80725" lon="7.09801">
        <ele>394.28</ele>
        <time>2014-06-21T13:35:42Z</time>
      </trkpt>
      <trkpt lat="47.80722" lon="7.09788">
        <ele>390.43</ele>
        <time>2014-06-21T13:35:49Z</time>
      </trkpt>
      <trkpt lat="47.80721" lon="7.09783">
        <ele>393.8</ele>
        <time>2014-06-21T13:35:52Z</time>
      </trkpt>
      <trkpt lat="47.8072" lon="7.09779">
        <ele>398.12</ele>
        <time>2014-06-21T13:35:55Z</time>
      </trkpt>
      <trkpt lat="47.8072" lon="7.09771">
        <ele>398.12</ele>
        <time>2014-06-21T13:35:59Z</time>
      </trkpt>
      <trkpt lat="47.80719" lon="7.09769">
        <ele>393.32</ele>
        <time>2014-06-21T13:36:00Z</time>
      </trkpt>
      <trkpt lat="47.8072" lon="7.09767">
        <ele>393.8</ele>
        <time>2014-06-21T13:36:01Z</time>
      </trkpt>
      <trkpt lat="47.80718" lon="7.09758">
        <ele>398.6</ele>
        <time>2014-06-21T13:36:06Z</time>
      </trkpt>
      <trkpt lat="47.80717" lon="7.09754">
        <ele>394.28</ele>
        <time>2014-06-21T13:36:09Z</time>
      </trkpt>
      <trkpt lat="47.80716" lon="7.09753">
        <ele>395.24</ele>
        <time>2014-06-21T13:36:10Z</time>
      </trkpt>
      <trkpt lat="47.80716" lon="7.09752">
        <ele>399.08</ele>
        <time>2014-06-21T13:36:11Z</time>
      </trkpt>
      <trkpt lat="47.80711" lon="7.09743">
        <ele>394.76</ele>
        <time>2014-06-21T13:36:19Z</time>
      </trkpt>
      <trkpt lat="47.80711" lon="7.09741">
        <ele>396.68</ele>
        <time>2014-06-21T13:36:20Z</time>
      </trkpt>
      <trkpt lat="47.80711" lon="7.0974">
        <ele>400.05</ele>
        <time>2014-06-21T13:36:21Z</time>
      </trkpt>
      <trkpt lat="47.80711" lon="7.09738">
        <ele>394.28</ele>
        <time>2014-06-21T13:36:22Z</time>
      </trkpt>
      <trkpt lat="47.80711" lon="7.09736">
        <ele>402.93</ele>
        <time>2014-06-21T13:36:24Z</time>
      </trkpt>
      <trkpt lat="47.80711" lon="7.09735">
        <ele>397.64</ele>
        <time>2014-06-21T13:36:25Z</time>
      </trkpt>
      <trkpt lat="47.8071" lon="7.09731">
        <ele>405.33</ele>
        <time>2014-06-21T13:36:28Z</time>
      </trkpt>
      <trkpt lat="47.8071" lon="7.09729">
        <ele>398.6</ele>
        <time>2014-06-21T13:36:29Z</time>
      </trkpt>
      <trkpt lat="47.8071" lon="7.09728">
        <ele>402.45</ele>
        <time>2014-06-21T13:36:30Z</time>
      </trkpt>
      <trkpt lat="47.80708" lon="7.09726">
        <ele>398.12</ele>
        <time>2014-06-21T13:36:33Z</time>
      </trkpt>
      <trkpt lat="47.80707" lon="7.09724">
        <ele>406.29</ele>
        <time>2014-06-21T13:36:34Z</time>
      </trkpt>
      <trkpt lat="47.80707" lon="7.09723">
        <ele>397.16</ele>
        <time>2014-06-21T13:36:35Z</time>
      </trkpt>
      <trkpt lat="47.80706" lon="7.09722">
        <ele>403.89</ele>
        <time>2014-06-21T13:36:36Z</time>
      </trkpt>
      <trkpt lat="47.80704" lon="7.09719">
        <ele>400.05</ele>
        <time>2014-06-21T13:36:39Z</time>
      </trkpt>
      <trkpt lat="47.80703" lon="7.09718">
        <ele>408.7</ele>
        <time>2014-06-21T13:36:40Z</time>
      </trkpt>
      <trkpt lat="47.80703" lon="7.09716">
        <ele>399.08</ele>
        <time>2014-06-21T13:36:41Z</time>
      </trkpt>
      <trkpt lat="47.80702" lon="7.09715">
        <ele>405.33</ele>
        <time>2014-06-21T13:36:42Z</time>
      </trkpt>
      <trkpt lat="47.80702" lon="7.09714">
        <ele>400.05</ele>
        <time>2014-06-21T13:36:43Z</time>
      </trkpt>
      <trkpt lat="47.80701" lon="7.09711">
        <ele>407.74</ele>
        <time>2014-06-21T13:36:46Z</time>
      </trkpt>
      <trkpt lat="47.80701" lon="7.0971">
        <ele>401.01</ele>
        <time>2014-06-21T13:36:47Z</time>
      </trkpt>
      <trkpt lat="47.807" lon="7.09709">
        <ele>408.22</ele>
        <time>2014-06-21T13:36:49Z</time>
      </trkpt>
      <trkpt lat="47.807" lon="7.09708">
        <ele>401.97</ele>
        <time>2014-06-21T13:36:50Z</time>
      </trkpt>
      <trkpt lat="47.807" lon="7.09707">
        <ele>407.26</ele>
        <time>2014-06-21T13:36:51Z</time>
      </trkpt>
      <trkpt lat="47.807" lon="7.09705">
        <ele>400.05</ele>
        <time>2014-06-21T13:36:52Z</time>
      </trkpt>
      <trkpt lat="47.80699" lon="7.09703">
        <ele>405.33</ele>
        <time>2014-06-21T13:36:54Z</time>
      </trkpt>
      <trkpt lat="47.80699" lon="7.09701">
        <ele>401.97</ele>
        <time>2014-06-21T13:36:55Z</time>
      </trkpt>
      <trkpt lat="47.80699" lon="7.097">
        <ele>403.89</ele>
        <time>2014-06-21T13:36:56Z</time>
      </trkpt>
      <trkpt lat="47.80698" lon="7.09697">
        <ele>407.74</ele>
        <time>2014-06-21T13:36:58Z</time>
      </trkpt>
      <trkpt lat="47.80697" lon="7.09696">
        <ele>402.45</ele>
        <time>2014-06-21T13:36:59Z</time>
      </trkpt>
      <trkpt lat="47.80697" lon="7.09688">
        <ele>406.77</ele>
        <time>2014-06-21T13:37:03Z</time>
      </trkpt>
      <trkpt lat="47.80697" lon="7.09686">
        <ele>405.81</ele>
        <time>2014-06-21T13:37:04Z</time>
      </trkpt>
      <trkpt lat="47.80697" lon="7.09684">
        <ele>409.66</ele>
        <time>2014-06-21T13:37:05Z</time>
      </trkpt>
      <trkpt lat="47.80698" lon="7.09681">
        <ele>406.29</ele>
        <time>2014-06-21T13:37:06Z</time>
      </trkpt>
      <trkpt lat="47.80698" lon="7.09679">
        <ele>402.45</ele>
        <time>2014-06-21T13:37:07Z</time>
      </trkpt>
      <trkpt lat="47.80698" lon="7.09677">
        <ele>403.41</ele>
        <time>2014-06-21T13:37:08Z</time>
      </trkpt>
      <trkpt lat="47.80698" lon="7.09672">
        <ele>407.26</ele>
        <time>2014-06-21T13:37:11Z</time>
      </trkpt>
      <trkpt lat="47.80698" lon="7.0967">
        <ele>406.29</ele>
        <time>2014-06-21T13:37:12Z</time>
      </trkpt>
      <trkpt lat="47.80694" lon="7.09661">
        <ele>407.26</ele>
        <time>2014-06-21T13:37:16Z</time>
      </trkpt>
      <trkpt lat="47.80691" lon="7.09641">
        <ele>410.62</ele>
        <time>2014-06-21T13:37:26Z</time>
      </trkpt>
      <trkpt lat="47.80691" lon="7.09637">
        <ele>410.14</ele>
        <time>2014-06-21T13:37:28Z</time>
      </trkpt>
      <trkpt lat="47.80687" lon="7.09616">
        <ele>411.1</ele>
        <time>2014-06-21T13:37:40Z</time>
      </trkpt>
      <trkpt lat="47.80683" lon="7.09596">
        <ele>413.02</ele>
        <time>2014-06-21T13:37:48Z</time>
      </trkpt>
      <trkpt lat="47.80683" lon="7.09588">
        <ele>407.26</ele>
        <time>2014-06-21T13:37:51Z</time>
      </trkpt>
      <trkpt lat="47.80683" lon="7.09572">
        <ele>411.58</ele>
        <time>2014-06-21T13:37:58Z</time>
      </trkpt>
      <trkpt lat="47.80683" lon="7.0957">
        <ele>407.74</ele>
        <time>2014-06-21T13:37:59Z</time>
      </trkpt>
      <trkpt lat="47.80683" lon="7.09563">
        <ele>413.98</ele>
        <time>2014-06-21T13:38:02Z</time>
      </trkpt>
      <trkpt lat="47.80681" lon="7.09561">
        <ele>410.62</ele>
        <time>2014-06-21T13:38:03Z</time>
      </trkpt>
      <trkpt lat="47.80677" lon="7.09549">
        <ele>408.7</ele>
        <time>2014-06-21T13:38:09Z</time>
      </trkpt>
      <trkpt lat="47.80673" lon="7.0954">
        <ele>406.77</ele>
        <time>2014-06-21T13:38:13Z</time>
      </trkpt>
      <trkpt lat="47.80673" lon="7.09526">
        <ele>413.02</ele>
        <time>2014-06-21T13:38:22Z</time>
      </trkpt>
      <trkpt lat="47.80673" lon="7.09525">
        <ele>407.74</ele>
        <time>2014-06-21T13:38:23Z</time>
      </trkpt>
      <trkpt lat="47.80673" lon="7.09523">
        <ele>413.02</ele>
        <time>2014-06-21T13:38:24Z</time>
      </trkpt>
      <trkpt lat="47.80673" lon="7.09516">
        <ele>413.5</ele>
        <time>2014-06-21T13:38:30Z</time>
      </trkpt>
      <trkpt lat="47.80673" lon="7.09508">
        <ele>414.47</ele>
        <time>2014-06-21T13:38:35Z</time>
      </trkpt>
      <trkpt lat="47.80674" lon="7.095">
        <ele>407.74</ele>
        <time>2014-06-21T13:38:39Z</time>
      </trkpt>
      <trkpt lat="47.80674" lon="7.09498">
        <ele>408.22</ele>
        <time>2014-06-21T13:38:40Z</time>
      </trkpt>
      <trkpt lat="47.80674" lon="7.09493">
        <ele>409.18</ele>
        <time>2014-06-21T13:38:42Z</time>
      </trkpt>
      <trkpt lat="47.80675" lon="7.09489">
        <ele>413.5</ele>
        <time>2014-06-21T13:38:44Z</time>
      </trkpt>
      <trkpt lat="47.80675" lon="7.09487">
        <ele>416.87</ele>
        <time>2014-06-21T13:38:45Z</time>
      </trkpt>
      <trkpt lat="47.80675" lon="7.09485">
        <ele>415.91</ele>
        <time>2014-06-21T13:38:46Z</time>
      </trkpt>
      <trkpt lat="47.80675" lon="7.09484">
        <ele>413.5</ele>
        <time>2014-06-21T13:38:47Z</time>
      </trkpt>
      <trkpt lat="47.80674" lon="7.09481">
        <ele>413.02</ele>
        <time>2014-06-21T13:38:49Z</time>
      </trkpt>
      <trkpt lat="47.80674" lon="7.09478">
        <ele>415.91</ele>
        <time>2014-06-21T13:38:51Z</time>
      </trkpt>
      <trkpt lat="47.80675" lon="7.09472">
        <ele>411.58</ele>
        <time>2014-06-21T13:38:55Z</time>
      </trkpt>
      <trkpt lat="47.80678" lon="7.09463">
        <ele>418.79</ele>
        <time>2014-06-21T13:39:02Z</time>
      </trkpt>
      <trkpt lat="47.80679" lon="7.09462">
        <ele>417.35</ele>
        <time>2014-06-21T13:39:03Z</time>
      </trkpt>
      <trkpt lat="47.8068" lon="7.09459">
        <ele>415.91</ele>
        <time>2014-06-21T13:39:05Z</time>
      </trkpt>
      <trkpt lat="47.80682" lon="7.09455">
        <ele>417.35</ele>
        <time>2014-06-21T13:39:07Z</time>
      </trkpt>
      <trkpt lat="47.80686" lon="7.0944">
        <ele>415.43</ele>
        <time>2014-06-21T13:39:13Z</time>
      </trkpt>
      <trkpt lat="47.80686" lon="7.09437">
        <ele>419.27</ele>
        <time>2014-06-21T13:39:14Z</time>
      </trkpt>
      <trkpt lat="47.80686" lon="7.09429">
        <ele>415.91</ele>
        <time>2014-06-21T13:39:18Z</time>
      </trkpt>
      <trkpt lat="47.80686" lon="7.09428">
        <ele>420.71</ele>
        <time>2014-06-21T13:39:19Z</time>
      </trkpt>
      <trkpt lat="47.80686" lon="7.09426">
        <ele>421.19</ele>
        <time>2014-06-21T13:39:20Z</time>
      </trkpt>
      <trkpt lat="47.80685" lon="7.09422">
        <ele>417.83</ele>
        <time>2014-06-21T13:39:23Z</time>
      </trkpt>
      <trkpt lat="47.80685" lon="7.09418">
        <ele>421.19</ele>
        <time>2014-06-21T13:39:26Z</time>
      </trkpt>
      <trkpt lat="47.80686" lon="7.09414">
        <ele>423.12</ele>
        <time>2014-06-21T13:39:29Z</time>
      </trkpt>
      <trkpt lat="47.80686" lon="7.09412">
        <ele>418.79</ele>
        <time>2014-06-21T13:39:30Z</time>
      </trkpt>
      <trkpt lat="47.80686" lon="7.09411">
        <ele>419.75</ele>
        <time>2014-06-21T13:39:31Z</time>
      </trkpt>
      <trkpt lat="47.80688" lon="7.09406">
        <ele>424.08</ele>
        <time>2014-06-21T13:39:34Z</time>
      </trkpt>
      <trkpt lat="47.80689" lon="7.09406">
        <ele>421.68</ele>
        <time>2014-06-21T13:39:35Z</time>
      </trkpt>
      <trkpt lat="47.80689" lon="7.09401">
        <ele>416.39</ele>
        <time>2014-06-21T13:39:38Z</time>
      </trkpt>
      <trkpt lat="47.8069" lon="7.094">
        <ele>416.87</ele>
        <time>2014-06-21T13:39:39Z</time>
      </trkpt>
      <trkpt lat="47.8069" lon="7.09399">
        <ele>421.68</ele>
        <time>2014-06-21T13:39:40Z</time>
      </trkpt>
      <trkpt lat="47.80691" lon="7.09398">
        <ele>425.04</ele>
        <time>2014-06-21T13:39:41Z</time>
      </trkpt>
      <trkpt lat="47.80693" lon="7.09395">
        <ele>418.79</ele>
        <time>2014-06-21T13:39:43Z</time>
      </trkpt>
      <trkpt lat="47.80695" lon="7.09389">
        <ele>424.08</ele>
        <time>2014-06-21T13:39:46Z</time>
      </trkpt>
      <trkpt lat="47.80695" lon="7.09388">
        <ele>427.92</ele>
        <time>2014-06-21T13:39:47Z</time>
      </trkpt>
      <trkpt lat="47.80695" lon="7.09386">
        <ele>424.08</ele>
        <time>2014-06-21T13:39:48Z</time>
      </trkpt>
      <trkpt lat="47.80696" lon="7.09385">
        <ele>419.27</ele>
        <time>2014-06-21T13:39:49Z</time>
      </trkpt>
      <trkpt lat="47.80697" lon="7.09382">
        <ele>426.48</ele>
        <time>2014-06-21T13:39:52Z</time>
      </trkpt>
      <trkpt lat="47.80699" lon="7.09378">
        <ele>420.71</ele>
        <time>2014-06-21T13:39:54Z</time>
      </trkpt>
      <trkpt lat="47.80699" lon="7.09377">
        <ele>421.19</ele>
        <time>2014-06-21T13:39:55Z</time>
      </trkpt>
      <trkpt lat="47.807" lon="7.09374">
        <ele>425.04</ele>
        <time>2014-06-21T13:39:56Z</time>
      </trkpt>
      <trkpt lat="47.807" lon="7.09372">
        <ele>427.92</ele>
        <time>2014-06-21T13:39:57Z</time>
      </trkpt>
      <trkpt lat="47.80701" lon="7.0937">
        <ele>426.48</ele>
        <time>2014-06-21T13:39:58Z</time>
      </trkpt>
      <trkpt lat="47.80702" lon="7.09368">
        <ele>422.16</ele>
        <time>2014-06-21T13:39:59Z</time>
      </trkpt>
      <trkpt lat="47.80702" lon="7.09364">
        <ele>420.23</ele>
        <time>2014-06-21T13:40:01Z</time>
      </trkpt>
      <trkpt lat="47.80703" lon="7.0936">
        <ele>424.08</ele>
        <time>2014-06-21T13:40:02Z</time>
      </trkpt>
      <trkpt lat="47.80704" lon="7.09355">
        <ele>428.4</ele>
        <time>2014-06-21T13:40:04Z</time>
      </trkpt>
      <trkpt lat="47.80704" lon="7.09352">
        <ele>423.6</ele>
        <time>2014-06-21T13:40:06Z</time>
      </trkpt>
      <trkpt lat="47.80704" lon="7.09344">
        <ele>427.44</ele>
        <time>2014-06-21T13:40:10Z</time>
      </trkpt>
      <trkpt lat="47.80704" lon="7.09341">
        <ele>424.08</ele>
        <time>2014-06-21T13:40:12Z</time>
      </trkpt>
      <trkpt lat="47.80705" lon="7.09339">
        <ele>422.64</ele>
        <time>2014-06-21T13:40:14Z</time>
      </trkpt>
      <trkpt lat="47.80706" lon="7.09338">
        <ele>426</ele>
        <time>2014-06-21T13:40:15Z</time>
      </trkpt>
      <trkpt lat="47.80706" lon="7.09334">
        <ele>431.29</ele>
        <time>2014-06-21T13:40:17Z</time>
      </trkpt>
      <trkpt lat="47.80707" lon="7.09332">
        <ele>424.56</ele>
        <time>2014-06-21T13:40:18Z</time>
      </trkpt>
      <trkpt lat="47.80708" lon="7.09328">
        <ele>423.6</ele>
        <time>2014-06-21T13:40:20Z</time>
      </trkpt>
      <trkpt lat="47.80709" lon="7.09325">
        <ele>427.92</ele>
        <time>2014-06-21T13:40:22Z</time>
      </trkpt>
      <trkpt lat="47.80709" lon="7.09324">
        <ele>428.89</ele>
        <time>2014-06-21T13:40:23Z</time>
      </trkpt>
      <trkpt lat="47.8071" lon="7.09321">
        <ele>422.16</ele>
        <time>2014-06-21T13:40:25Z</time>
      </trkpt>
      <trkpt lat="47.80711" lon="7.0932">
        <ele>424.08</ele>
        <time>2014-06-21T13:40:26Z</time>
      </trkpt>
      <trkpt lat="47.80712" lon="7.09318">
        <ele>427.44</ele>
        <time>2014-06-21T13:40:27Z</time>
      </trkpt>
      <trkpt lat="47.80713" lon="7.09314">
        <ele>429.85</ele>
        <time>2014-06-21T13:40:30Z</time>
      </trkpt>
      <trkpt lat="47.80714" lon="7.09312">
        <ele>424.08</ele>
        <time>2014-06-21T13:40:31Z</time>
      </trkpt>
      <trkpt lat="47.80714" lon="7.09311">
        <ele>428.89</ele>
        <time>2014-06-21T13:40:32Z</time>
      </trkpt>
      <trkpt lat="47.80714" lon="7.09307">
        <ele>433.21</ele>
        <time>2014-06-21T13:40:36Z</time>
      </trkpt>
      <trkpt lat="47.80715" lon="7.09306">
        <ele>429.85</ele>
        <time>2014-06-21T13:40:37Z</time>
      </trkpt>
      <trkpt lat="47.80716" lon="7.09304">
        <ele>436.1</ele>
        <time>2014-06-21T13:40:38Z</time>
      </trkpt>
      <trkpt lat="47.80716" lon="7.09303">
        <ele>432.73</ele>
        <time>2014-06-21T13:40:39Z</time>
      </trkpt>
      <trkpt lat="47.80717" lon="7.09302">
        <ele>428.89</ele>
        <time>2014-06-21T13:40:40Z</time>
      </trkpt>
      <trkpt lat="47.80718" lon="7.093">
        <ele>431.77</ele>
        <time>2014-06-21T13:40:41Z</time>
      </trkpt>
      <trkpt lat="47.80722" lon="7.09269">
        <ele>431.29</ele>
        <time>2014-06-21T13:40:57Z</time>
      </trkpt>
      <trkpt lat="47.80723" lon="7.09265">
        <ele>427.44</ele>
        <time>2014-06-21T13:41:00Z</time>
      </trkpt>
      <trkpt lat="47.80727" lon="7.09256">
        <ele>432.25</ele>
        <time>2014-06-21T13:41:03Z</time>
      </trkpt>
      <trkpt lat="47.80729" lon="7.09253">
        <ele>435.61</ele>
        <time>2014-06-21T13:41:05Z</time>
      </trkpt>
      <trkpt lat="47.8073" lon="7.09251">
        <ele>434.17</ele>
        <time>2014-06-21T13:41:06Z</time>
      </trkpt>
      <trkpt lat="47.80731" lon="7.09248">
        <ele>432.73</ele>
        <time>2014-06-21T13:41:08Z</time>
      </trkpt>
      <trkpt lat="47.80736" lon="7.09231">
        <ele>429.37</ele>
        <time>2014-06-21T13:41:16Z</time>
      </trkpt>
      <trkpt lat="47.80738" lon="7.09221">
        <ele>431.77</ele>
        <time>2014-06-21T13:41:23Z</time>
      </trkpt>
      <trkpt lat="47.80738" lon="7.09219">
        <ele>435.13</ele>
        <time>2014-06-21T13:41:24Z</time>
      </trkpt>
      <trkpt lat="47.80744" lon="7.09201">
        <ele>429.37</ele>
        <time>2014-06-21T13:41:34Z</time>
      </trkpt>
      <trkpt lat="47.80745" lon="7.09199">
        <ele>430.81</ele>
        <time>2014-06-21T13:41:35Z</time>
      </trkpt>
      <trkpt lat="47.80752" lon="7.09179">
        <ele>428.4</ele>
        <time>2014-06-21T13:41:47Z</time>
      </trkpt>
      <trkpt lat="47.80753" lon="7.09175">
        <ele>432.25</ele>
        <time>2014-06-21T13:41:49Z</time>
      </trkpt>
      <trkpt lat="47.80754" lon="7.09173">
        <ele>431.77</ele>
        <time>2014-06-21T13:41:50Z</time>
      </trkpt>
      <trkpt lat="47.80759" lon="7.09167">
        <ele>435.13</ele>
        <time>2014-06-21T13:41:54Z</time>
      </trkpt>
      <trkpt lat="47.8076" lon="7.09165">
        <ele>435.13</ele>
        <time>2014-06-21T13:41:55Z</time>
      </trkpt>
      <trkpt lat="47.80766" lon="7.09158">
        <ele>429.85</ele>
        <time>2014-06-21T13:42:00Z</time>
      </trkpt>
      <trkpt lat="47.80768" lon="7.09155">
        <ele>436.1</ele>
        <time>2014-06-21T13:42:02Z</time>
      </trkpt>
      <trkpt lat="47.80768" lon="7.09154">
        <ele>436.1</ele>
        <time>2014-06-21T13:42:03Z</time>
      </trkpt>
      <trkpt lat="47.80769" lon="7.09152">
        <ele>432.73</ele>
        <time>2014-06-21T13:42:06Z</time>
      </trkpt>
      <trkpt lat="47.8077" lon="7.09151">
        <ele>429.37</ele>
        <time>2014-06-21T13:42:07Z</time>
      </trkpt>
      <trkpt lat="47.80771" lon="7.0915">
        <ele>431.29</ele>
        <time>2014-06-21T13:42:08Z</time>
      </trkpt>
      <trkpt lat="47.80771" lon="7.09149">
        <ele>435.13</ele>
        <time>2014-06-21T13:42:09Z</time>
      </trkpt>
      <trkpt lat="47.80772" lon="7.09147">
        <ele>439.46</ele>
        <time>2014-06-21T13:42:10Z</time>
      </trkpt>
      <trkpt lat="47.80773" lon="7.09145">
        <ele>438.98</ele>
        <time>2014-06-21T13:42:11Z</time>
      </trkpt>
      <trkpt lat="47.80773" lon="7.09144">
        <ele>434.65</ele>
        <time>2014-06-21T13:42:12Z</time>
      </trkpt>
      <trkpt lat="47.80775" lon="7.09141">
        <ele>439.46</ele>
        <time>2014-06-21T13:42:15Z</time>
      </trkpt>
      <trkpt lat="47.80776" lon="7.0914">
        <ele>438.98</ele>
        <time>2014-06-21T13:42:16Z</time>
      </trkpt>
      <trkpt lat="47.80786" lon="7.09119">
        <ele>435.61</ele>
        <time>2014-06-21T13:42:31Z</time>
      </trkpt>
      <trkpt lat="47.80787" lon="7.09118">
        <ele>440.42</ele>
        <time>2014-06-21T13:42:34Z</time>
      </trkpt>
      <trkpt lat="47.80787" lon="7.09116">
        <ele>439.46</ele>
        <time>2014-06-21T13:42:35Z</time>
      </trkpt>
      <trkpt lat="47.80787" lon="7.09116">
        <ele>436.58</ele>
        <time>2014-06-21T13:42:38Z</time>
      </trkpt>
      <trkpt lat="47.80789" lon="7.09112">
        <ele>435.13</ele>
        <time>2014-06-21T13:42:40Z</time>
      </trkpt>
      <trkpt lat="47.80789" lon="7.0911">
        <ele>438.98</ele>
        <time>2014-06-21T13:42:41Z</time>
      </trkpt>
      <trkpt lat="47.80791" lon="7.09106">
        <ele>440.9</ele>
        <time>2014-06-21T13:42:43Z</time>
      </trkpt>
      <trkpt lat="47.80793" lon="7.09102">
        <ele>436.1</ele>
        <time>2014-06-21T13:42:46Z</time>
      </trkpt>
      <trkpt lat="47.80797" lon="7.09096">
        <ele>440.9</ele>
        <time>2014-06-21T13:42:50Z</time>
      </trkpt>
      <trkpt lat="47.80799" lon="7.09095">
        <ele>443.79</ele>
        <time>2014-06-21T13:42:51Z</time>
      </trkpt>
      <trkpt lat="47.808" lon="7.09093">
        <ele>442.82</ele>
        <time>2014-06-21T13:42:52Z</time>
      </trkpt>
      <trkpt lat="47.80803" lon="7.09088">
        <ele>441.38</ele>
        <time>2014-06-21T13:42:55Z</time>
      </trkpt>
      <trkpt lat="47.80808" lon="7.09082">
        <ele>442.82</ele>
        <time>2014-06-21T13:42:59Z</time>
      </trkpt>
      <trkpt lat="47.8081" lon="7.09078">
        <ele>445.23</ele>
        <time>2014-06-21T13:43:01Z</time>
      </trkpt>
      <trkpt lat="47.80813" lon="7.09074">
        <ele>438.02</ele>
        <time>2014-06-21T13:43:03Z</time>
      </trkpt>
      <trkpt lat="47.80814" lon="7.09072">
        <ele>444.75</ele>
        <time>2014-06-21T13:43:04Z</time>
      </trkpt>
      <trkpt lat="47.80815" lon="7.0907">
        <ele>438.5</ele>
        <time>2014-06-21T13:43:05Z</time>
      </trkpt>
      <trkpt lat="47.80816" lon="7.09068">
        <ele>443.79</ele>
        <time>2014-06-21T13:43:06Z</time>
      </trkpt>
      <trkpt lat="47.80817" lon="7.09068">
        <ele>440.42</ele>
        <time>2014-06-21T13:43:08Z</time>
      </trkpt>
      <trkpt lat="47.80817" lon="7.09068">
        <ele>445.23</ele>
        <time>2014-06-21T13:43:09Z</time>
      </trkpt>
      <trkpt lat="47.80818" lon="7.09067">
        <ele>451</ele>
        <time>2014-06-21T13:43:10Z</time>
      </trkpt>
      <trkpt lat="47.80818" lon="7.09067">
        <ele>443.79</ele>
        <time>2014-06-21T13:43:11Z</time>
      </trkpt>
      <trkpt lat="47.8082" lon="7.09066">
        <ele>448.11</ele>
        <time>2014-06-21T13:43:13Z</time>
      </trkpt>
      <trkpt lat="47.80821" lon="7.09064">
        <ele>443.31</ele>
        <time>2014-06-21T13:43:15Z</time>
      </trkpt>
      <trkpt lat="47.80823" lon="7.09063">
        <ele>446.19</ele>
        <time>2014-06-21T13:43:16Z</time>
      </trkpt>
      <trkpt lat="47.80824" lon="7.09061">
        <ele>447.15</ele>
        <time>2014-06-21T13:43:18Z</time>
      </trkpt>
      <trkpt lat="47.80829" lon="7.09057">
        <ele>450.52</ele>
        <time>2014-06-21T13:43:22Z</time>
      </trkpt>
      <trkpt lat="47.8083" lon="7.09055">
        <ele>445.23</ele>
        <time>2014-06-21T13:43:23Z</time>
      </trkpt>
      <trkpt lat="47.80831" lon="7.09054">
        <ele>448.59</ele>
        <time>2014-06-21T13:43:24Z</time>
      </trkpt>
      <trkpt lat="47.80832" lon="7.09051">
        <ele>444.27</ele>
        <time>2014-06-21T13:43:26Z</time>
      </trkpt>
      <trkpt lat="47.80833" lon="7.09048">
        <ele>445.23</ele>
        <time>2014-06-21T13:43:27Z</time>
      </trkpt>
      <trkpt lat="47.80834" lon="7.09045">
        <ele>449.07</ele>
        <time>2014-06-21T13:43:29Z</time>
      </trkpt>
      <trkpt lat="47.80835" lon="7.09043">
        <ele>440.9</ele>
        <time>2014-06-21T13:43:31Z</time>
      </trkpt>
      <trkpt lat="47.80835" lon="7.09042">
        <ele>447.15</ele>
        <time>2014-06-21T13:43:32Z</time>
      </trkpt>
      <trkpt lat="47.80836" lon="7.09042">
        <ele>451</ele>
        <time>2014-06-21T13:43:33Z</time>
      </trkpt>
      <trkpt lat="47.80837" lon="7.09041">
        <ele>449.55</ele>
        <time>2014-06-21T13:43:34Z</time>
      </trkpt>
      <trkpt lat="47.80839" lon="7.09039">
        <ele>445.71</ele>
        <time>2014-06-21T13:43:36Z</time>
      </trkpt>
      <trkpt lat="47.8084" lon="7.09038">
        <ele>450.52</ele>
        <time>2014-06-21T13:43:37Z</time>
      </trkpt>
      <trkpt lat="47.80841" lon="7.09036">
        <ele>454.36</ele>
        <time>2014-06-21T13:43:38Z</time>
      </trkpt>
      <trkpt lat="47.80842" lon="7.09034">
        <ele>446.67</ele>
        <time>2014-06-21T13:43:39Z</time>
      </trkpt>
      <trkpt lat="47.80843" lon="7.09032">
        <ele>450.52</ele>
        <time>2014-06-21T13:43:40Z</time>
      </trkpt>
      <trkpt lat="47.80844" lon="7.0903">
        <ele>455.32</ele>
        <time>2014-06-21T13:43:41Z</time>
      </trkpt>
      <trkpt lat="47.80844" lon="7.09029">
        <ele>453.88</ele>
        <time>2014-06-21T13:43:42Z</time>
      </trkpt>
      <trkpt lat="47.80844" lon="7.09028">
        <ele>450.52</ele>
        <time>2014-06-21T13:43:43Z</time>
      </trkpt>
      <trkpt lat="47.80845" lon="7.09027">
        <ele>452.92</ele>
        <time>2014-06-21T13:43:44Z</time>
      </trkpt>
      <trkpt lat="47.80848" lon="7.09022">
        <ele>450.52</ele>
        <time>2014-06-21T13:43:47Z</time>
      </trkpt>
      <trkpt lat="47.80851" lon="7.09013">
        <ele>454.36</ele>
        <time>2014-06-21T13:43:56Z</time>
      </trkpt>
      <trkpt lat="47.80851" lon="7.09013">
        <ele>451.48</ele>
        <time>2014-06-21T13:43:57Z</time>
      </trkpt>
      <trkpt lat="47.80851" lon="7.09013">
        <ele>454.36</ele>
        <time>2014-06-21T13:43:59Z</time>
      </trkpt>
      <trkpt lat="47.80851" lon="7.09013">
        <ele>461.09</ele>
        <time>2014-06-21T13:44:00Z</time>
      </trkpt>
      <trkpt lat="47.80851" lon="7.09013">
        <ele>450.52</ele>
        <time>2014-06-21T13:44:01Z</time>
      </trkpt>
      <trkpt lat="47.80851" lon="7.09013">
        <ele>452.44</ele>
        <time>2014-06-21T13:44:02Z</time>
      </trkpt>
      <trkpt lat="47.80851" lon="7.09013">
        <ele>457.24</ele>
        <time>2014-06-21T13:44:03Z</time>
      </trkpt>
      <trkpt lat="47.80851" lon="7.09013">
        <ele>460.61</ele>
        <time>2014-06-21T13:44:04Z</time>
      </trkpt>
      <trkpt lat="47.80851" lon="7.09013">
        <ele>455.8</ele>
        <time>2014-06-21T13:44:05Z</time>
      </trkpt>
      <trkpt lat="47.80851" lon="7.09013">
        <ele>462.05</ele>
        <time>2014-06-21T13:44:08Z</time>
      </trkpt>
      <trkpt lat="47.80851" lon="7.09013">
        <ele>461.09</ele>
        <time>2014-06-21T13:44:09Z</time>
      </trkpt>
      <trkpt lat="47.80851" lon="7.09013">
        <ele>453.88</ele>
        <time>2014-06-21T13:44:10Z</time>
      </trkpt>
      <trkpt lat="47.80851" lon="7.09013">
        <ele>458.21</ele>
        <time>2014-06-21T13:44:11Z</time>
      </trkpt>
      <trkpt lat="47.80851" lon="7.09013">
        <ele>461.57</ele>
        <time>2014-06-21T13:44:12Z</time>
      </trkpt>
      <trkpt lat="47.80855" lon="7.09008">
        <ele>457.72</ele>
        <time>2014-06-21T13:44:14Z</time>
      </trkpt>
      <trkpt lat="47.80863" lon="7.08996">
        <ele>462.53</ele>
        <time>2014-06-21T13:44:23Z</time>
      </trkpt>
      <trkpt lat="47.80863" lon="7.08996">
        <ele>458.21</ele>
        <time>2014-06-21T13:44:24Z</time>
      </trkpt>
      <trkpt lat="47.80867" lon="7.08994">
        <ele>464.45</ele>
        <time>2014-06-21T13:44:28Z</time>
      </trkpt>
      <trkpt lat="47.80868" lon="7.08992">
        <ele>464.45</ele>
        <time>2014-06-21T13:44:29Z</time>
      </trkpt>
      <trkpt lat="47.8087" lon="7.0899">
        <ele>461.09</ele>
        <time>2014-06-21T13:44:30Z</time>
      </trkpt>
      <trkpt lat="47.80872" lon="7.08983">
        <ele>465.42</ele>
        <time>2014-06-21T13:44:34Z</time>
      </trkpt>
      <trkpt lat="47.80872" lon="7.08983">
        <ele>468.78</ele>
        <time>2014-06-21T13:44:35Z</time>
      </trkpt>
      <trkpt lat="47.80872" lon="7.08983">
        <ele>463.01</ele>
        <time>2014-06-21T13:44:36Z</time>
      </trkpt>
      <trkpt lat="47.80872" lon="7.08983">
        <ele>459.17</ele>
        <time>2014-06-21T13:44:38Z</time>
      </trkpt>
      <trkpt lat="47.80872" lon="7.08983">
        <ele>462.53</ele>
        <time>2014-06-21T13:44:39Z</time>
      </trkpt>
      <trkpt lat="47.80872" lon="7.08983">
        <ele>467.34</ele>
        <time>2014-06-21T13:44:40Z</time>
      </trkpt>
      <trkpt lat="47.80872" lon="7.08983">
        <ele>465.9</ele>
        <time>2014-06-21T13:44:41Z</time>
      </trkpt>
      <trkpt lat="47.80875" lon="7.08979">
        <ele>462.05</ele>
        <time>2014-06-21T13:44:43Z</time>
      </trkpt>
      <trkpt lat="47.8088" lon="7.08973">
        <ele>465.9</ele>
        <time>2014-06-21T13:44:47Z</time>
      </trkpt>
      <trkpt lat="47.80884" lon="7.08969">
        <ele>469.26</ele>
        <time>2014-06-21T13:44:49Z</time>
      </trkpt>
      <trkpt lat="47.80886" lon="7.08967">
        <ele>465.9</ele>
        <time>2014-06-21T13:44:50Z</time>
      </trkpt>
      <trkpt lat="47.80888" lon="7.08965">
        <ele>460.13</ele>
        <time>2014-06-21T13:44:51Z</time>
      </trkpt>
      <trkpt lat="47.80891" lon="7.08963">
        <ele>458.69</ele>
        <time>2014-06-21T13:44:53Z</time>
      </trkpt>
      <trkpt lat="47.80894" lon="7.08961">
        <ele>463.49</ele>
        <time>2014-06-21T13:44:56Z</time>
      </trkpt>
      <trkpt lat="47.80896" lon="7.0896">
        <ele>462.53</ele>
        <time>2014-06-21T13:44:57Z</time>
      </trkpt>
      <trkpt lat="47.809" lon="7.08956">
        <ele>454.84</ele>
        <time>2014-06-21T13:45:01Z</time>
      </trkpt>
      <trkpt lat="47.80901" lon="7.08956">
        <ele>457.24</ele>
        <time>2014-06-21T13:45:02Z</time>
      </trkpt>
      <trkpt lat="47.80902" lon="7.08955">
        <ele>460.61</ele>
        <time>2014-06-21T13:45:03Z</time>
      </trkpt>
      <trkpt lat="47.80903" lon="7.08954">
        <ele>460.61</ele>
        <time>2014-06-21T13:45:04Z</time>
      </trkpt>
      <trkpt lat="47.80905" lon="7.08955">
        <ele>464.93</ele>
        <time>2014-06-21T13:45:07Z</time>
      </trkpt>
      <trkpt lat="47.80909" lon="7.08953">
        <ele>467.82</ele>
        <time>2014-06-21T13:45:10Z</time>
      </trkpt>
      <trkpt lat="47.80916" lon="7.0895">
        <ele>471.66</ele>
        <time>2014-06-21T13:45:15Z</time>
      </trkpt>
      <trkpt lat="47.8092" lon="7.08948">
        <ele>467.82</ele>
        <time>2014-06-21T13:45:19Z</time>
      </trkpt>
      <trkpt lat="47.80922" lon="7.08947">
        <ele>470.7</ele>
        <time>2014-06-21T13:45:21Z</time>
      </trkpt>
      <trkpt lat="47.8093" lon="7.08942">
        <ele>475.03</ele>
        <time>2014-06-21T13:45:26Z</time>
      </trkpt>
      <trkpt lat="47.80931" lon="7.08941">
        <ele>474.55</ele>
        <time>2014-06-21T13:45:27Z</time>
      </trkpt>
      <trkpt lat="47.80931" lon="7.0894">
        <ele>471.18</ele>
        <time>2014-06-21T13:45:28Z</time>
      </trkpt>
      <trkpt lat="47.80932" lon="7.0894">
        <ele>462.05</ele>
        <time>2014-06-21T13:45:29Z</time>
      </trkpt>
      <trkpt lat="47.80933" lon="7.0894">
        <ele>463.01</ele>
        <time>2014-06-21T13:45:30Z</time>
      </trkpt>
      <trkpt lat="47.80937" lon="7.08938">
        <ele>465.42</ele>
        <time>2014-06-21T13:45:33Z</time>
      </trkpt>
      <trkpt lat="47.80938" lon="7.08937">
        <ele>471.18</ele>
        <time>2014-06-21T13:45:34Z</time>
      </trkpt>
      <trkpt lat="47.80941" lon="7.08934">
        <ele>474.07</ele>
        <time>2014-06-21T13:45:37Z</time>
      </trkpt>
      <trkpt lat="47.80944" lon="7.08935">
        <ele>476.95</ele>
        <time>2014-06-21T13:45:39Z</time>
      </trkpt>
      <trkpt lat="47.80945" lon="7.08937">
        <ele>471.18</ele>
        <time>2014-06-21T13:45:41Z</time>
      </trkpt>
      <trkpt lat="47.80948" lon="7.08937">
        <ele>473.11</ele>
        <time>2014-06-21T13:45:44Z</time>
      </trkpt>
      <trkpt lat="47.8095" lon="7.08938">
        <ele>482.72</ele>
        <time>2014-06-21T13:45:45Z</time>
      </trkpt>
      <trkpt lat="47.80952" lon="7.08939">
        <ele>476.95</ele>
        <time>2014-06-21T13:45:46Z</time>
      </trkpt>
      <trkpt lat="47.80954" lon="7.08939">
        <ele>472.63</ele>
        <time>2014-06-21T13:45:47Z</time>
      </trkpt>
      <trkpt lat="47.80956" lon="7.0894">
        <ele>475.03</ele>
        <time>2014-06-21T13:45:48Z</time>
      </trkpt>
      <trkpt lat="47.80958" lon="7.0894">
        <ele>471.18</ele>
        <time>2014-06-21T13:45:49Z</time>
      </trkpt>
      <trkpt lat="47.80961" lon="7.08942">
        <ele>474.55</ele>
        <time>2014-06-21T13:45:51Z</time>
      </trkpt>
      <trkpt lat="47.80962" lon="7.08943">
        <ele>479.35</ele>
        <time>2014-06-21T13:45:52Z</time>
      </trkpt>
      <trkpt lat="47.80963" lon="7.08945">
        <ele>477.43</ele>
        <time>2014-06-21T13:45:53Z</time>
      </trkpt>
      <trkpt lat="47.80965" lon="7.08948">
        <ele>470.7</ele>
        <time>2014-06-21T13:45:56Z</time>
      </trkpt>
      <trkpt lat="47.80967" lon="7.08952">
        <ele>474.07</ele>
        <time>2014-06-21T13:45:58Z</time>
      </trkpt>
      <trkpt lat="47.80967" lon="7.08954">
        <ele>472.63</ele>
        <time>2014-06-21T13:45:59Z</time>
      </trkpt>
      <trkpt lat="47.80968" lon="7.08956">
        <ele>478.87</ele>
        <time>2014-06-21T13:46:01Z</time>
      </trkpt>
      <trkpt lat="47.80969" lon="7.08958">
        <ele>475.99</ele>
        <time>2014-06-21T13:46:02Z</time>
      </trkpt>
      <trkpt lat="47.80969" lon="7.08958">
        <ele>480.8</ele>
        <time>2014-06-21T13:46:03Z</time>
      </trkpt>
      <trkpt lat="47.8097" lon="7.08959">
        <ele>480.8</ele>
        <time>2014-06-21T13:46:04Z</time>
      </trkpt>
      <trkpt lat="47.80975" lon="7.0896">
        <ele>476.95</ele>
        <time>2014-06-21T13:46:07Z</time>
      </trkpt>
      <trkpt lat="47.80978" lon="7.0896">
        <ele>477.91</ele>
        <time>2014-06-21T13:46:09Z</time>
      </trkpt>
      <trkpt lat="47.80983" lon="7.0896">
        <ele>472.14</ele>
        <time>2014-06-21T13:46:13Z</time>
      </trkpt>
      <trkpt lat="47.80984" lon="7.0896">
        <ele>474.55</ele>
        <time>2014-06-21T13:46:14Z</time>
      </trkpt>
      <trkpt lat="47.80985" lon="7.08959">
        <ele>470.7</ele>
        <time>2014-06-21T13:46:15Z</time>
      </trkpt>
      <trkpt lat="47.80986" lon="7.08958">
        <ele>476.47</ele>
        <time>2014-06-21T13:46:17Z</time>
      </trkpt>
      <trkpt lat="47.80987" lon="7.08958">
        <ele>475.03</ele>
        <time>2014-06-21T13:46:18Z</time>
      </trkpt>
      <trkpt lat="47.80988" lon="7.08957">
        <ele>480.32</ele>
        <time>2014-06-21T13:46:19Z</time>
      </trkpt>
      <trkpt lat="47.80989" lon="7.08955">
        <ele>475.51</ele>
        <time>2014-06-21T13:46:21Z</time>
      </trkpt>
      <trkpt lat="47.8099" lon="7.08953">
        <ele>478.87</ele>
        <time>2014-06-21T13:46:22Z</time>
      </trkpt>
      <trkpt lat="47.80993" lon="7.08948">
        <ele>483.2</ele>
        <time>2014-06-21T13:46:28Z</time>
      </trkpt>
      <trkpt lat="47.80994" lon="7.08947">
        <ele>479.84</ele>
        <time>2014-06-21T13:46:29Z</time>
      </trkpt>
      <trkpt lat="47.80994" lon="7.08945">
        <ele>484.16</ele>
        <time>2014-06-21T13:46:31Z</time>
      </trkpt>
      <trkpt lat="47.80998" lon="7.08942">
        <ele>486.08</ele>
        <time>2014-06-21T13:46:36Z</time>
      </trkpt>
      <trkpt lat="47.80999" lon="7.0894">
        <ele>481.28</ele>
        <time>2014-06-21T13:46:37Z</time>
      </trkpt>
      <trkpt lat="47.80999" lon="7.08939">
        <ele>481.76</ele>
        <time>2014-06-21T13:46:38Z</time>
      </trkpt>
      <trkpt lat="47.81002" lon="7.08935">
        <ele>476.47</ele>
        <time>2014-06-21T13:46:41Z</time>
      </trkpt>
      <trkpt lat="47.81007" lon="7.0893">
        <ele>481.76</ele>
        <time>2014-06-21T13:46:44Z</time>
      </trkpt>
      <trkpt lat="47.81008" lon="7.08929">
        <ele>480.8</ele>
        <time>2014-06-21T13:46:45Z</time>
      </trkpt>
      <trkpt lat="47.81027" lon="7.08907">
        <ele>484.16</ele>
        <time>2014-06-21T13:46:57Z</time>
      </trkpt>
      <trkpt lat="47.81029" lon="7.08906">
        <ele>487.53</ele>
        <time>2014-06-21T13:46:58Z</time>
      </trkpt>
      <trkpt lat="47.8103" lon="7.08904">
        <ele>487.53</ele>
        <time>2014-06-21T13:46:59Z</time>
      </trkpt>
      <trkpt lat="47.81032" lon="7.08896">
        <ele>482.72</ele>
        <time>2014-06-21T13:47:03Z</time>
      </trkpt>
      <trkpt lat="47.81034" lon="7.08891">
        <ele>485.12</ele>
        <time>2014-06-21T13:47:06Z</time>
      </trkpt>
      <trkpt lat="47.81035" lon="7.08889">
        <ele>478.87</ele>
        <time>2014-06-21T13:47:07Z</time>
      </trkpt>
      <trkpt lat="47.81036" lon="7.08887">
        <ele>479.84</ele>
        <time>2014-06-21T13:47:08Z</time>
      </trkpt>
      <trkpt lat="47.81037" lon="7.08883">
        <ele>483.68</ele>
        <time>2014-06-21T13:47:10Z</time>
      </trkpt>
      <trkpt lat="47.81043" lon="7.0887">
        <ele>483.2</ele>
        <time>2014-06-21T13:47:16Z</time>
      </trkpt>
      <trkpt lat="47.81043" lon="7.08868">
        <ele>486.56</ele>
        <time>2014-06-21T13:47:18Z</time>
      </trkpt>
      <trkpt lat="47.81043" lon="7.08866">
        <ele>481.76</ele>
        <time>2014-06-21T13:47:19Z</time>
      </trkpt>
      <trkpt lat="47.81043" lon="7.08862">
        <ele>484.64</ele>
        <time>2014-06-21T13:47:22Z</time>
      </trkpt>
      <trkpt lat="47.81043" lon="7.08857">
        <ele>487.53</ele>
        <time>2014-06-21T13:47:24Z</time>
      </trkpt>
      <trkpt lat="47.81042" lon="7.08854">
        <ele>486.56</ele>
        <time>2014-06-21T13:47:25Z</time>
      </trkpt>
      <trkpt lat="47.81044" lon="7.08842">
        <ele>482.72</ele>
        <time>2014-06-21T13:47:30Z</time>
      </trkpt>
      <trkpt lat="47.81044" lon="7.08839">
        <ele>481.76</ele>
        <time>2014-06-21T13:47:31Z</time>
      </trkpt>
      <trkpt lat="47.81046" lon="7.08831">
        <ele>486.56</ele>
        <time>2014-06-21T13:47:35Z</time>
      </trkpt>
      <trkpt lat="47.81047" lon="7.08827">
        <ele>489.93</ele>
        <time>2014-06-21T13:47:37Z</time>
      </trkpt>
      <trkpt lat="47.81047" lon="7.08826">
        <ele>489.93</ele>
        <time>2014-06-21T13:47:38Z</time>
      </trkpt>
      <trkpt lat="47.81047" lon="7.08825">
        <ele>486.56</ele>
        <time>2014-06-21T13:47:39Z</time>
      </trkpt>
      <trkpt lat="47.81047" lon="7.08824">
        <ele>488.49</ele>
        <time>2014-06-21T13:47:40Z</time>
      </trkpt>
      <trkpt lat="47.81048" lon="7.08821">
        <ele>484.16</ele>
        <time>2014-06-21T13:47:43Z</time>
      </trkpt>
      <trkpt lat="47.81052" lon="7.08811">
        <ele>488.97</ele>
        <time>2014-06-21T13:47:47Z</time>
      </trkpt>
      <trkpt lat="47.81055" lon="7.08803">
        <ele>487.05</ele>
        <time>2014-06-21T13:47:50Z</time>
      </trkpt>
      <trkpt lat="47.81061" lon="7.08791">
        <ele>484.64</ele>
        <time>2014-06-21T13:47:55Z</time>
      </trkpt>
      <trkpt lat="47.81061" lon="7.08789">
        <ele>488.49</ele>
        <time>2014-06-21T13:47:56Z</time>
      </trkpt>
      <trkpt lat="47.81065" lon="7.08778">
        <ele>484.64</ele>
        <time>2014-06-21T13:48:00Z</time>
      </trkpt>
      <trkpt lat="47.81066" lon="7.08776">
        <ele>485.12</ele>
        <time>2014-06-21T13:48:01Z</time>
      </trkpt>
      <trkpt lat="47.81066" lon="7.08765">
        <ele>489.45</ele>
        <time>2014-06-21T13:48:07Z</time>
      </trkpt>
      <trkpt lat="47.81069" lon="7.08754">
        <ele>485.6</ele>
        <time>2014-06-21T13:48:12Z</time>
      </trkpt>
      <trkpt lat="47.81069" lon="7.0875">
        <ele>483.2</ele>
        <time>2014-06-21T13:48:14Z</time>
      </trkpt>
      <trkpt lat="47.81071" lon="7.08744">
        <ele>490.41</ele>
        <time>2014-06-21T13:48:17Z</time>
      </trkpt>
      <trkpt lat="47.81074" lon="7.08734">
        <ele>484.64</ele>
        <time>2014-06-21T13:48:21Z</time>
      </trkpt>
      <trkpt lat="47.81075" lon="7.08732">
        <ele>484.16</ele>
        <time>2014-06-21T13:48:22Z</time>
      </trkpt>
      <trkpt lat="47.81076" lon="7.08724">
        <ele>486.56</ele>
        <time>2014-06-21T13:48:25Z</time>
      </trkpt>
      <trkpt lat="47.81082" lon="7.08711">
        <ele>491.37</ele>
        <time>2014-06-21T13:48:31Z</time>
      </trkpt>
      <trkpt lat="47.81083" lon="7.08705">
        <ele>487.53</ele>
        <time>2014-06-21T13:48:35Z</time>
      </trkpt>
      <trkpt lat="47.81083" lon="7.08704">
        <ele>482.24</ele>
        <time>2014-06-21T13:48:36Z</time>
      </trkpt>
      <trkpt lat="47.81083" lon="7.08702">
        <ele>484.64</ele>
        <time>2014-06-21T13:48:37Z</time>
      </trkpt>
      <trkpt lat="47.81083" lon="7.08698">
        <ele>487.53</ele>
        <time>2014-06-21T13:48:39Z</time>
      </trkpt>
      <trkpt lat="47.81083" lon="7.08696">
        <ele>490.41</ele>
        <time>2014-06-21T13:48:40Z</time>
      </trkpt>
      <trkpt lat="47.81084" lon="7.08691">
        <ele>492.81</ele>
        <time>2014-06-21T13:48:42Z</time>
      </trkpt>
      <trkpt lat="47.81085" lon="7.08689">
        <ele>488.49</ele>
        <time>2014-06-21T13:48:43Z</time>
      </trkpt>
      <trkpt lat="47.81087" lon="7.08684">
        <ele>487.05</ele>
        <time>2014-06-21T13:48:45Z</time>
      </trkpt>
      <trkpt lat="47.81088" lon="7.08678">
        <ele>491.37</ele>
        <time>2014-06-21T13:48:47Z</time>
      </trkpt>
      <trkpt lat="47.81088" lon="7.08676">
        <ele>489.45</ele>
        <time>2014-06-21T13:48:48Z</time>
      </trkpt>
      <trkpt lat="47.81089" lon="7.0867">
        <ele>493.77</ele>
        <time>2014-06-21T13:48:51Z</time>
      </trkpt>
      <trkpt lat="47.81091" lon="7.08651">
        <ele>489.93</ele>
        <time>2014-06-21T13:49:01Z</time>
      </trkpt>
      <trkpt lat="47.81091" lon="7.0865">
        <ele>490.41</ele>
        <time>2014-06-21T13:49:02Z</time>
      </trkpt>
      <trkpt lat="47.81091" lon="7.08648">
        <ele>491.37</ele>
        <time>2014-06-21T13:49:03Z</time>
      </trkpt>
      <trkpt lat="47.81094" lon="7.08625">
        <ele>495.7</ele>
        <time>2014-06-21T13:49:15Z</time>
      </trkpt>
      <trkpt lat="47.81094" lon="7.08624">
        <ele>495.22</ele>
        <time>2014-06-21T13:49:16Z</time>
      </trkpt>
      <trkpt lat="47.81094" lon="7.08622">
        <ele>497.62</ele>
        <time>2014-06-21T13:49:17Z</time>
      </trkpt>
      <trkpt lat="47.81093" lon="7.08607">
        <ele>493.29</ele>
        <time>2014-06-21T13:49:26Z</time>
      </trkpt>
      <trkpt lat="47.81093" lon="7.08605">
        <ele>488.97</ele>
        <time>2014-06-21T13:49:27Z</time>
      </trkpt>
      <trkpt lat="47.81093" lon="7.08604">
        <ele>490.41</ele>
        <time>2014-06-21T13:49:28Z</time>
      </trkpt>
      <trkpt lat="47.81094" lon="7.08602">
        <ele>494.74</ele>
        <time>2014-06-21T13:49:29Z</time>
      </trkpt>
      <trkpt lat="47.81095" lon="7.08599">
        <ele>500.02</ele>
        <time>2014-06-21T13:49:31Z</time>
      </trkpt>
      <trkpt lat="47.81095" lon="7.08597">
        <ele>498.1</ele>
        <time>2014-06-21T13:49:32Z</time>
      </trkpt>
      <trkpt lat="47.81095" lon="7.08596">
        <ele>493.77</ele>
        <time>2014-06-21T13:49:33Z</time>
      </trkpt>
      <trkpt lat="47.81094" lon="7.08593">
        <ele>498.1</ele>
        <time>2014-06-21T13:49:35Z</time>
      </trkpt>
      <trkpt lat="47.81094" lon="7.08592">
        <ele>494.74</ele>
        <time>2014-06-21T13:49:36Z</time>
      </trkpt>
      <trkpt lat="47.81094" lon="7.08591">
        <ele>499.54</ele>
        <time>2014-06-21T13:49:37Z</time>
      </trkpt>
      <trkpt lat="47.81096" lon="7.08588">
        <ele>500.5</ele>
        <time>2014-06-21T13:49:39Z</time>
      </trkpt>
      <trkpt lat="47.81097" lon="7.08584">
        <ele>505.31</ele>
        <time>2014-06-21T13:49:42Z</time>
      </trkpt>
      <trkpt lat="47.81099" lon="7.08579">
        <ele>502.91</ele>
        <time>2014-06-21T13:49:45Z</time>
      </trkpt>
      <trkpt lat="47.81099" lon="7.08578">
        <ele>499.54</ele>
        <time>2014-06-21T13:49:46Z</time>
      </trkpt>
      <trkpt lat="47.811" lon="7.08574">
        <ele>495.7</ele>
        <time>2014-06-21T13:49:48Z</time>
      </trkpt>
      <trkpt lat="47.81101" lon="7.08571">
        <ele>499.54</ele>
        <time>2014-06-21T13:49:50Z</time>
      </trkpt>
      <trkpt lat="47.81102" lon="7.08569">
        <ele>502.91</ele>
        <time>2014-06-21T13:49:51Z</time>
      </trkpt>
      <trkpt lat="47.81102" lon="7.08567">
        <ele>501.46</ele>
        <time>2014-06-21T13:49:52Z</time>
      </trkpt>
      <trkpt lat="47.81101" lon="7.08565">
        <ele>504.35</ele>
        <time>2014-06-21T13:49:53Z</time>
      </trkpt>
      <trkpt lat="47.81101" lon="7.08562">
        <ele>500.98</ele>
        <time>2014-06-21T13:49:55Z</time>
      </trkpt>
      <trkpt lat="47.81102" lon="7.0856">
        <ele>501.46</ele>
        <time>2014-06-21T13:49:56Z</time>
      </trkpt>
      <trkpt lat="47.81103" lon="7.08558">
        <ele>496.66</ele>
        <time>2014-06-21T13:49:57Z</time>
      </trkpt>
      <trkpt lat="47.81104" lon="7.08556">
        <ele>501.95</ele>
        <time>2014-06-21T13:49:58Z</time>
      </trkpt>
      <trkpt lat="47.81108" lon="7.08548">
        <ele>502.91</ele>
        <time>2014-06-21T13:50:02Z</time>
      </trkpt>
      <trkpt lat="47.81108" lon="7.08544">
        <ele>506.27</ele>
        <time>2014-06-21T13:50:05Z</time>
      </trkpt>
      <trkpt lat="47.81108" lon="7.08543">
        <ele>502.91</ele>
        <time>2014-06-21T13:50:07Z</time>
      </trkpt>
      <trkpt lat="47.81108" lon="7.08541">
        <ele>510.12</ele>
        <time>2014-06-21T13:50:08Z</time>
      </trkpt>
      <trkpt lat="47.81108" lon="7.08539">
        <ele>501.95</ele>
        <time>2014-06-21T13:50:10Z</time>
      </trkpt>
      <trkpt lat="47.81108" lon="7.08538">
        <ele>503.39</ele>
        <time>2014-06-21T13:50:11Z</time>
      </trkpt>
      <trkpt lat="47.8111" lon="7.08533">
        <ele>508.67</ele>
        <time>2014-06-21T13:50:14Z</time>
      </trkpt>
      <trkpt lat="47.81111" lon="7.08529">
        <ele>512.04</ele>
        <time>2014-06-21T13:50:16Z</time>
      </trkpt>
      <trkpt lat="47.81111" lon="7.08528">
        <ele>507.71</ele>
        <time>2014-06-21T13:50:17Z</time>
      </trkpt>
      <trkpt lat="47.81112" lon="7.08524">
        <ele>502.43</ele>
        <time>2014-06-21T13:50:19Z</time>
      </trkpt>
      <trkpt lat="47.81112" lon="7.08523">
        <ele>504.83</ele>
        <time>2014-06-21T13:50:20Z</time>
      </trkpt>
      <trkpt lat="47.81111" lon="7.08521">
        <ele>510.6</ele>
        <time>2014-06-21T13:50:22Z</time>
      </trkpt>
      <trkpt lat="47.81112" lon="7.08518">
        <ele>502.43</ele>
        <time>2014-06-21T13:50:25Z</time>
      </trkpt>
      <trkpt lat="47.81113" lon="7.08509">
        <ele>511.08</ele>
        <time>2014-06-21T13:50:29Z</time>
      </trkpt>
      <trkpt lat="47.81114" lon="7.08507">
        <ele>511.08</ele>
        <time>2014-06-21T13:50:30Z</time>
      </trkpt>
      <trkpt lat="47.81115" lon="7.08504">
        <ele>503.87</ele>
        <time>2014-06-21T13:50:32Z</time>
      </trkpt>
      <trkpt lat="47.81115" lon="7.08496">
        <ele>505.79</ele>
        <time>2014-06-21T13:50:36Z</time>
      </trkpt>
      <trkpt lat="47.81114" lon="7.08491">
        <ele>511.08</ele>
        <time>2014-06-21T13:50:39Z</time>
      </trkpt>
      <trkpt lat="47.81108" lon="7.08479">
        <ele>506.75</ele>
        <time>2014-06-21T13:50:45Z</time>
      </trkpt>
      <trkpt lat="47.81106" lon="7.08471">
        <ele>509.64</ele>
        <time>2014-06-21T13:50:49Z</time>
      </trkpt>
      <trkpt lat="47.81105" lon="7.0847">
        <ele>513</ele>
        <time>2014-06-21T13:50:50Z</time>
      </trkpt>
      <trkpt lat="47.81104" lon="7.08457">
        <ele>512.04</ele>
        <time>2014-06-21T13:50:57Z</time>
      </trkpt>
      <trkpt lat="47.81105" lon="7.08439">
        <ele>516.85</ele>
        <time>2014-06-21T13:51:06Z</time>
      </trkpt>
      <trkpt lat="47.81104" lon="7.08436">
        <ele>520.21</ele>
        <time>2014-06-21T13:51:08Z</time>
      </trkpt>
      <trkpt lat="47.81104" lon="7.08434">
        <ele>516.85</ele>
        <time>2014-06-21T13:51:09Z</time>
      </trkpt>
      <trkpt lat="47.81104" lon="7.08433">
        <ele>512.52</ele>
        <time>2014-06-21T13:51:10Z</time>
      </trkpt>
      <trkpt lat="47.81103" lon="7.08431">
        <ele>509.16</ele>
        <time>2014-06-21T13:51:11Z</time>
      </trkpt>
      <trkpt lat="47.81102" lon="7.08429">
        <ele>511.08</ele>
        <time>2014-06-21T13:51:12Z</time>
      </trkpt>
      <trkpt lat="47.81102" lon="7.08427">
        <ele>516.85</ele>
        <time>2014-06-21T13:51:14Z</time>
      </trkpt>
      <trkpt lat="47.81102" lon="7.08426">
        <ele>516.85</ele>
        <time>2014-06-21T13:51:15Z</time>
      </trkpt>
      <trkpt lat="47.81103" lon="7.0842">
        <ele>513.96</ele>
        <time>2014-06-21T13:51:18Z</time>
      </trkpt>
      <trkpt lat="47.81103" lon="7.08418">
        <ele>515.88</ele>
        <time>2014-06-21T13:51:19Z</time>
      </trkpt>
      <trkpt lat="47.81104" lon="7.08415">
        <ele>510.12</ele>
        <time>2014-06-21T13:51:21Z</time>
      </trkpt>
      <trkpt lat="47.81104" lon="7.08414">
        <ele>513.96</ele>
        <time>2014-06-21T13:51:22Z</time>
      </trkpt>
      <trkpt lat="47.81102" lon="7.0841">
        <ele>519.25</ele>
        <time>2014-06-21T13:51:24Z</time>
      </trkpt>
      <trkpt lat="47.81098" lon="7.08402">
        <ele>524.06</ele>
        <time>2014-06-21T13:51:31Z</time>
      </trkpt>
      <trkpt lat="47.81097" lon="7.08398">
        <ele>525.5</ele>
        <time>2014-06-21T13:51:33Z</time>
      </trkpt>
      <trkpt lat="47.81095" lon="7.08394">
        <ele>523.09</ele>
        <time>2014-06-21T13:51:35Z</time>
      </trkpt>
      <trkpt lat="47.81094" lon="7.08393">
        <ele>515.88</ele>
        <time>2014-06-21T13:51:36Z</time>
      </trkpt>
      <trkpt lat="47.81093" lon="7.08391">
        <ele>518.29</ele>
        <time>2014-06-21T13:51:37Z</time>
      </trkpt>
      <trkpt lat="47.81086" lon="7.08382">
        <ele>517.33</ele>
        <time>2014-06-21T13:51:42Z</time>
      </trkpt>
      <trkpt lat="47.81073" lon="7.0837">
        <ele>517.81</ele>
        <time>2014-06-21T13:51:52Z</time>
      </trkpt>
      <trkpt lat="47.81063" lon="7.08365">
        <ele>524.54</ele>
        <time>2014-06-21T13:52:00Z</time>
      </trkpt>
      <trkpt lat="47.81061" lon="7.08366">
        <ele>519.73</ele>
        <time>2014-06-21T13:52:01Z</time>
      </trkpt>
      <trkpt lat="47.81059" lon="7.08365">
        <ele>523.58</ele>
        <time>2014-06-21T13:52:03Z</time>
      </trkpt>
      <trkpt lat="47.81058" lon="7.08365">
        <ele>523.58</ele>
        <time>2014-06-21T13:52:04Z</time>
      </trkpt>
      <trkpt lat="47.81046" lon="7.08362">
        <ele>519.73</ele>
        <time>2014-06-21T13:52:13Z</time>
      </trkpt>
      <trkpt lat="47.81045" lon="7.08362">
        <ele>520.21</ele>
        <time>2014-06-21T13:52:14Z</time>
      </trkpt>
      <trkpt lat="47.81044" lon="7.08361">
        <ele>519.25</ele>
        <time>2014-06-21T13:52:15Z</time>
      </trkpt>
      <trkpt lat="47.81037" lon="7.08362">
        <ele>521.65</ele>
        <time>2014-06-21T13:52:20Z</time>
      </trkpt>
      <trkpt lat="47.81036" lon="7.08362">
        <ele>523.58</ele>
        <time>2014-06-21T13:52:21Z</time>
      </trkpt>
      <trkpt lat="47.81033" lon="7.08362">
        <ele>518.77</ele>
        <time>2014-06-21T13:52:24Z</time>
      </trkpt>
      <trkpt lat="47.81032" lon="7.08361">
        <ele>523.58</ele>
        <time>2014-06-21T13:52:25Z</time>
      </trkpt>
      <trkpt lat="47.8103" lon="7.08359">
        <ele>519.25</ele>
        <time>2014-06-21T13:52:27Z</time>
      </trkpt>
      <trkpt lat="47.81029" lon="7.08358">
        <ele>521.17</ele>
        <time>2014-06-21T13:52:28Z</time>
      </trkpt>
      <trkpt lat="47.81019" lon="7.08359">
        <ele>520.21</ele>
        <time>2014-06-21T13:52:36Z</time>
      </trkpt>
      <trkpt lat="47.81017" lon="7.08357">
        <ele>517.81</ele>
        <time>2014-06-21T13:52:38Z</time>
      </trkpt>
      <trkpt lat="47.81011" lon="7.08355">
        <ele>521.65</ele>
        <time>2014-06-21T13:52:42Z</time>
      </trkpt>
      <trkpt lat="47.8101" lon="7.08355">
        <ele>524.06</ele>
        <time>2014-06-21T13:52:43Z</time>
      </trkpt>
      <trkpt lat="47.81007" lon="7.08353">
        <ele>519.25</ele>
        <time>2014-06-21T13:52:45Z</time>
      </trkpt>
      <trkpt lat="47.81006" lon="7.08352">
        <ele>519.25</ele>
        <time>2014-06-21T13:52:46Z</time>
      </trkpt>
      <trkpt lat="47.81001" lon="7.08344">
        <ele>520.69</ele>
        <time>2014-06-21T13:52:51Z</time>
      </trkpt>
      <trkpt lat="47.80999" lon="7.08337">
        <ele>522.13</ele>
        <time>2014-06-21T13:52:55Z</time>
      </trkpt>
      <trkpt lat="47.80998" lon="7.08333">
        <ele>525.02</ele>
        <time>2014-06-21T13:52:57Z</time>
      </trkpt>
      <trkpt lat="47.80998" lon="7.08332">
        <ele>521.65</ele>
        <time>2014-06-21T13:52:58Z</time>
      </trkpt>
      <trkpt lat="47.80998" lon="7.0833">
        <ele>523.09</ele>
        <time>2014-06-21T13:52:59Z</time>
      </trkpt>
      <trkpt lat="47.80996" lon="7.08325">
        <ele>517.81</ele>
        <time>2014-06-21T13:53:02Z</time>
      </trkpt>
      <trkpt lat="47.80995" lon="7.08323">
        <ele>517.33</ele>
        <time>2014-06-21T13:53:03Z</time>
      </trkpt>
      <trkpt lat="47.80994" lon="7.08322">
        <ele>521.17</ele>
        <time>2014-06-21T13:53:04Z</time>
      </trkpt>
      <trkpt lat="47.80995" lon="7.08319">
        <ele>521.65</ele>
        <time>2014-06-21T13:53:06Z</time>
      </trkpt>
      <trkpt lat="47.80997" lon="7.08309">
        <ele>525.98</ele>
        <time>2014-06-21T13:53:12Z</time>
      </trkpt>
      <trkpt lat="47.80997" lon="7.08308">
        <ele>525.02</ele>
        <time>2014-06-21T13:53:13Z</time>
      </trkpt>
      <trkpt lat="47.80999" lon="7.08298">
        <ele>521.17</ele>
        <time>2014-06-21T13:53:18Z</time>
      </trkpt>
      <trkpt lat="47.81001" lon="7.08289">
        <ele>522.13</ele>
        <time>2014-06-21T13:53:22Z</time>
      </trkpt>
      <trkpt lat="47.81003" lon="7.08278">
        <ele>525.5</ele>
        <time>2014-06-21T13:53:27Z</time>
      </trkpt>
      <trkpt lat="47.81003" lon="7.08274">
        <ele>527.42</ele>
        <time>2014-06-21T13:53:29Z</time>
      </trkpt>
      <trkpt lat="47.81003" lon="7.08266">
        <ele>521.17</ele>
        <time>2014-06-21T13:53:32Z</time>
      </trkpt>
      <trkpt lat="47.81004" lon="7.08264">
        <ele>522.13</ele>
        <time>2014-06-21T13:53:33Z</time>
      </trkpt>
      <trkpt lat="47.81004" lon="7.0826">
        <ele>525.02</ele>
        <time>2014-06-21T13:53:35Z</time>
      </trkpt>
      <trkpt lat="47.81004" lon="7.08258">
        <ele>525.02</ele>
        <time>2014-06-21T13:53:36Z</time>
      </trkpt>
      <trkpt lat="47.81005" lon="7.08256">
        <ele>527.9</ele>
        <time>2014-06-21T13:53:37Z</time>
      </trkpt>
      <trkpt lat="47.81005" lon="7.08254">
        <ele>527.9</ele>
        <time>2014-06-21T13:53:38Z</time>
      </trkpt>
      <trkpt lat="47.81007" lon="7.08246">
        <ele>524.54</ele>
        <time>2014-06-21T13:53:41Z</time>
      </trkpt>
      <trkpt lat="47.8101" lon="7.08233">
        <ele>527.42</ele>
        <time>2014-06-21T13:53:47Z</time>
      </trkpt>
      <trkpt lat="47.8101" lon="7.08229">
        <ele>528.38</ele>
        <time>2014-06-21T13:53:49Z</time>
      </trkpt>
      <trkpt lat="47.81008" lon="7.08225">
        <ele>525.98</ele>
        <time>2014-06-21T13:53:52Z</time>
      </trkpt>
      <trkpt lat="47.81008" lon="7.08221">
        <ele>522.13</ele>
        <time>2014-06-21T13:53:54Z</time>
      </trkpt>
      <trkpt lat="47.81008" lon="7.08219">
        <ele>523.09</ele>
        <time>2014-06-21T13:53:55Z</time>
      </trkpt>
      <trkpt lat="47.81007" lon="7.08216">
        <ele>526.46</ele>
        <time>2014-06-21T13:53:57Z</time>
      </trkpt>
      <trkpt lat="47.81005" lon="7.08209">
        <ele>523.58</ele>
        <time>2014-06-21T13:54:01Z</time>
      </trkpt>
      <trkpt lat="47.81005" lon="7.08205">
        <ele>523.09</ele>
        <time>2014-06-21T13:54:03Z</time>
      </trkpt>
      <trkpt lat="47.81006" lon="7.08199">
        <ele>526.94</ele>
        <time>2014-06-21T13:54:06Z</time>
      </trkpt>
      <trkpt lat="47.81005" lon="7.08197">
        <ele>527.9</ele>
        <time>2014-06-21T13:54:07Z</time>
      </trkpt>
      <trkpt lat="47.81008" lon="7.08186">
        <ele>525.5</ele>
        <time>2014-06-21T13:54:13Z</time>
      </trkpt>
      <trkpt lat="47.8101" lon="7.08179">
        <ele>523.58</ele>
        <time>2014-06-21T13:54:16Z</time>
      </trkpt>
      <trkpt lat="47.81012" lon="7.08174">
        <ele>527.9</ele>
        <time>2014-06-21T13:54:18Z</time>
      </trkpt>
      <trkpt lat="47.81012" lon="7.08169">
        <ele>529.82</ele>
        <time>2014-06-21T13:54:20Z</time>
      </trkpt>
      <trkpt lat="47.81012" lon="7.08167">
        <ele>529.34</ele>
        <time>2014-06-21T13:54:21Z</time>
      </trkpt>
      <trkpt lat="47.81013" lon="7.08162">
        <ele>522.61</ele>
        <time>2014-06-21T13:54:23Z</time>
      </trkpt>
      <trkpt lat="47.81013" lon="7.0816">
        <ele>525.02</ele>
        <time>2014-06-21T13:54:24Z</time>
      </trkpt>
      <trkpt lat="47.81016" lon="7.08149">
        <ele>528.38</ele>
        <time>2014-06-21T13:54:28Z</time>
      </trkpt>
      <trkpt lat="47.81017" lon="7.08145">
        <ele>530.79</ele>
        <time>2014-06-21T13:54:30Z</time>
      </trkpt>
      <trkpt lat="47.81017" lon="7.08142">
        <ele>527.42</ele>
        <time>2014-06-21T13:54:31Z</time>
      </trkpt>
      <trkpt lat="47.81017" lon="7.08139">
        <ele>528.86</ele>
        <time>2014-06-21T13:54:32Z</time>
      </trkpt>
      <trkpt lat="47.81024" lon="7.08118">
        <ele>530.79</ele>
        <time>2014-06-21T13:54:41Z</time>
      </trkpt>
      <trkpt lat="47.81025" lon="7.08114">
        <ele>526.46</ele>
        <time>2014-06-21T13:54:43Z</time>
      </trkpt>
      <trkpt lat="47.81029" lon="7.08102">
        <ele>526.94</ele>
        <time>2014-06-21T13:54:48Z</time>
      </trkpt>
      <trkpt lat="47.8103" lon="7.08097">
        <ele>530.79</ele>
        <time>2014-06-21T13:54:50Z</time>
      </trkpt>
      <trkpt lat="47.81031" lon="7.0809">
        <ele>525.98</ele>
        <time>2014-06-21T13:54:53Z</time>
      </trkpt>
      <trkpt lat="47.81032" lon="7.08088">
        <ele>527.42</ele>
        <time>2014-06-21T13:54:54Z</time>
      </trkpt>
      <trkpt lat="47.81032" lon="7.08076">
        <ele>530.3</ele>
        <time>2014-06-21T13:54:59Z</time>
      </trkpt>
      <trkpt lat="47.8103" lon="7.08066">
        <ele>525.98</ele>
        <time>2014-06-21T13:55:05Z</time>
      </trkpt>
      <trkpt lat="47.81031" lon="7.08064">
        <ele>525.98</ele>
        <time>2014-06-21T13:55:06Z</time>
      </trkpt>
      <trkpt lat="47.8103" lon="7.08057">
        <ele>527.42</ele>
        <time>2014-06-21T13:55:09Z</time>
      </trkpt>
      <trkpt lat="47.81031" lon="7.08055">
        <ele>530.79</ele>
        <time>2014-06-21T13:55:10Z</time>
      </trkpt>
      <trkpt lat="47.81034" lon="7.08027">
        <ele>526.46</ele>
        <time>2014-06-21T13:55:22Z</time>
      </trkpt>
      <trkpt lat="47.81035" lon="7.08023">
        <ele>533.19</ele>
        <time>2014-06-21T13:55:24Z</time>
      </trkpt>
      <trkpt lat="47.81035" lon="7.08021">
        <ele>533.67</ele>
        <time>2014-06-21T13:55:25Z</time>
      </trkpt>
      <trkpt lat="47.81036" lon="7.07993">
        <ele>529.34</ele>
        <time>2014-06-21T13:55:38Z</time>
      </trkpt>
      <trkpt lat="47.81036" lon="7.0799">
        <ele>530.3</ele>
        <time>2014-06-21T13:55:39Z</time>
      </trkpt>
      <trkpt lat="47.81035" lon="7.0798">
        <ele>534.63</ele>
        <time>2014-06-21T13:55:44Z</time>
      </trkpt>
      <trkpt lat="47.81034" lon="7.07975">
        <ele>537.99</ele>
        <time>2014-06-21T13:55:48Z</time>
      </trkpt>
      <trkpt lat="47.81033" lon="7.07973">
        <ele>537.99</ele>
        <time>2014-06-21T13:55:49Z</time>
      </trkpt>
      <trkpt lat="47.81034" lon="7.07962">
        <ele>534.15</ele>
        <time>2014-06-21T13:55:54Z</time>
      </trkpt>
      <trkpt lat="47.81034" lon="7.07955">
        <ele>532.23</ele>
        <time>2014-06-21T13:55:57Z</time>
      </trkpt>
      <trkpt lat="47.81034" lon="7.07951">
        <ele>535.59</ele>
        <time>2014-06-21T13:55:59Z</time>
      </trkpt>
      <trkpt lat="47.81033" lon="7.07949">
        <ele>531.75</ele>
        <time>2014-06-21T13:56:00Z</time>
      </trkpt>
      <trkpt lat="47.81033" lon="7.07948">
        <ele>535.11</ele>
        <time>2014-06-21T13:56:01Z</time>
      </trkpt>
      <trkpt lat="47.8103" lon="7.07942">
        <ele>537.51</ele>
        <time>2014-06-21T13:56:06Z</time>
      </trkpt>
      <trkpt lat="47.81028" lon="7.07938">
        <ele>540.88</ele>
        <time>2014-06-21T13:56:09Z</time>
      </trkpt>
      <trkpt lat="47.81026" lon="7.07931">
        <ele>537.03</ele>
        <time>2014-06-21T13:56:13Z</time>
      </trkpt>
      <trkpt lat="47.81024" lon="7.07927">
        <ele>535.11</ele>
        <time>2014-06-21T13:56:15Z</time>
      </trkpt>
      <trkpt lat="47.81022" lon="7.07925">
        <ele>534.15</ele>
        <time>2014-06-21T13:56:16Z</time>
      </trkpt>
      <trkpt lat="47.81018" lon="7.07918">
        <ele>537.51</ele>
        <time>2014-06-21T13:56:19Z</time>
      </trkpt>
      <trkpt lat="47.81017" lon="7.07916">
        <ele>537.03</ele>
        <time>2014-06-21T13:56:20Z</time>
      </trkpt>
      <trkpt lat="47.81015" lon="7.07909">
        <ele>541.84</ele>
        <time>2014-06-21T13:56:23Z</time>
      </trkpt>
      <trkpt lat="47.81015" lon="7.07907">
        <ele>542.32</ele>
        <time>2014-06-21T13:56:24Z</time>
      </trkpt>
      <trkpt lat="47.81018" lon="7.07887">
        <ele>537.03</ele>
        <time>2014-06-21T13:56:34Z</time>
      </trkpt>
      <trkpt lat="47.81019" lon="7.07885">
        <ele>537.03</ele>
        <time>2014-06-21T13:56:35Z</time>
      </trkpt>
      <trkpt lat="47.81019" lon="7.07864">
        <ele>539.92</ele>
        <time>2014-06-21T13:56:44Z</time>
      </trkpt>
      <trkpt lat="47.81024" lon="7.07849">
        <ele>536.55</ele>
        <time>2014-06-21T13:56:50Z</time>
      </trkpt>
      <trkpt lat="47.81025" lon="7.07842">
        <ele>539.92</ele>
        <time>2014-06-21T13:56:54Z</time>
      </trkpt>
      <trkpt lat="47.81025" lon="7.07838">
        <ele>543.28</ele>
        <time>2014-06-21T13:56:56Z</time>
      </trkpt>
      <trkpt lat="47.81024" lon="7.07836">
        <ele>542.32</ele>
        <time>2014-06-21T13:56:57Z</time>
      </trkpt>
      <trkpt lat="47.81018" lon="7.07825">
        <ele>546.65</ele>
        <time>2014-06-21T13:57:04Z</time>
      </trkpt>
      <trkpt lat="47.81016" lon="7.07817">
        <ele>543.76</ele>
        <time>2014-06-21T13:57:08Z</time>
      </trkpt>
      <trkpt lat="47.81015" lon="7.07803">
        <ele>540.4</ele>
        <time>2014-06-21T13:57:14Z</time>
      </trkpt>
      <trkpt lat="47.81011" lon="7.07794">
        <ele>546.65</ele>
        <time>2014-06-21T13:57:19Z</time>
      </trkpt>
      <trkpt lat="47.8101" lon="7.07793">
        <ele>546.17</ele>
        <time>2014-06-21T13:57:20Z</time>
      </trkpt>
      <trkpt lat="47.81009" lon="7.07789">
        <ele>543.76</ele>
        <time>2014-06-21T13:57:22Z</time>
      </trkpt>
      <trkpt lat="47.81007" lon="7.07785">
        <ele>542.8</ele>
        <time>2014-06-21T13:57:24Z</time>
      </trkpt>
      <trkpt lat="47.81005" lon="7.07781">
        <ele>539.44</ele>
        <time>2014-06-21T13:57:26Z</time>
      </trkpt>
      <trkpt lat="47.81003" lon="7.07779">
        <ele>542.8</ele>
        <time>2014-06-21T13:57:27Z</time>
      </trkpt>
      <trkpt lat="47.81002" lon="7.07777">
        <ele>546.65</ele>
        <time>2014-06-21T13:57:28Z</time>
      </trkpt>
      <trkpt lat="47.81001" lon="7.07775">
        <ele>545.69</ele>
        <time>2014-06-21T13:57:29Z</time>
      </trkpt>
      <trkpt lat="47.80997" lon="7.07768">
        <ele>543.28</ele>
        <time>2014-06-21T13:57:32Z</time>
      </trkpt>
      <trkpt lat="47.80996" lon="7.07761">
        <ele>541.36</ele>
        <time>2014-06-21T13:57:35Z</time>
      </trkpt>
      <trkpt lat="47.80996" lon="7.07756">
        <ele>546.17</ele>
        <time>2014-06-21T13:57:37Z</time>
      </trkpt>
      <trkpt lat="47.80996" lon="7.07754">
        <ele>545.2</ele>
        <time>2014-06-21T13:57:38Z</time>
      </trkpt>
      <trkpt lat="47.80992" lon="7.07745">
        <ele>540.88</ele>
        <time>2014-06-21T13:57:42Z</time>
      </trkpt>
      <trkpt lat="47.80991" lon="7.07742">
        <ele>541.84</ele>
        <time>2014-06-21T13:57:43Z</time>
      </trkpt>
      <trkpt lat="47.80988" lon="7.07731">
        <ele>547.13</ele>
        <time>2014-06-21T13:57:47Z</time>
      </trkpt>
      <trkpt lat="47.80985" lon="7.07723">
        <ele>541.84</ele>
        <time>2014-06-21T13:57:51Z</time>
      </trkpt>
      <trkpt lat="47.80981" lon="7.07714">
        <ele>546.17</ele>
        <time>2014-06-21T13:57:56Z</time>
      </trkpt>
      <trkpt lat="47.8098" lon="7.0771">
        <ele>541.36</ele>
        <time>2014-06-21T13:57:59Z</time>
      </trkpt>
      <trkpt lat="47.80979" lon="7.07708">
        <ele>544.24</ele>
        <time>2014-06-21T13:58:00Z</time>
      </trkpt>
      <trkpt lat="47.80972" lon="7.07685">
        <ele>540.4</ele>
        <time>2014-06-21T13:58:11Z</time>
      </trkpt>
      <trkpt lat="47.80971" lon="7.07683">
        <ele>545.2</ele>
        <time>2014-06-21T13:58:12Z</time>
      </trkpt>
      <trkpt lat="47.80971" lon="7.07681">
        <ele>544.72</ele>
        <time>2014-06-21T13:58:13Z</time>
      </trkpt>
      <trkpt lat="47.80969" lon="7.0767">
        <ele>540.4</ele>
        <time>2014-06-21T13:58:18Z</time>
      </trkpt>
      <trkpt lat="47.80968" lon="7.07668">
        <ele>540.88</ele>
        <time>2014-06-21T13:58:19Z</time>
      </trkpt>
      <trkpt lat="47.80967" lon="7.07666">
        <ele>543.76</ele>
        <time>2014-06-21T13:58:20Z</time>
      </trkpt>
      <trkpt lat="47.80966" lon="7.07664">
        <ele>543.76</ele>
        <time>2014-06-21T13:58:21Z</time>
      </trkpt>
      <trkpt lat="47.80965" lon="7.07659">
        <ele>548.09</ele>
        <time>2014-06-21T13:58:23Z</time>
      </trkpt>
      <trkpt lat="47.80964" lon="7.07657">
        <ele>543.28</ele>
        <time>2014-06-21T13:58:24Z</time>
      </trkpt>
      <trkpt lat="47.80963" lon="7.07653">
        <ele>541.84</ele>
        <time>2014-06-21T13:58:26Z</time>
      </trkpt>
      <trkpt lat="47.80962" lon="7.07646">
        <ele>545.2</ele>
        <time>2014-06-21T13:58:29Z</time>
      </trkpt>
      <trkpt lat="47.8096" lon="7.07637">
        <ele>544.24</ele>
        <time>2014-06-21T13:58:33Z</time>
      </trkpt>
      <trkpt lat="47.80959" lon="7.0763">
        <ele>541.36</ele>
        <time>2014-06-21T13:58:36Z</time>
      </trkpt>
      <trkpt lat="47.80958" lon="7.07626">
        <ele>545.69</ele>
        <time>2014-06-21T13:58:38Z</time>
      </trkpt>
      <trkpt lat="47.80957" lon="7.07621">
        <ele>546.65</ele>
        <time>2014-06-21T13:58:40Z</time>
      </trkpt>
      <trkpt lat="47.80954" lon="7.07617">
        <ele>541.84</ele>
        <time>2014-06-21T13:58:42Z</time>
      </trkpt>
      <trkpt lat="47.80951" lon="7.07609">
        <ele>545.69</ele>
        <time>2014-06-21T13:58:46Z</time>
      </trkpt>
      <trkpt lat="47.80951" lon="7.07606">
        <ele>546.65</ele>
        <time>2014-06-21T13:58:48Z</time>
      </trkpt>
      <trkpt lat="47.8095" lon="7.07604">
        <ele>542.8</ele>
        <time>2014-06-21T13:58:50Z</time>
      </trkpt>
      <trkpt lat="47.80949" lon="7.07598">
        <ele>540.4</ele>
        <time>2014-06-21T13:58:53Z</time>
      </trkpt>
      <trkpt lat="47.80949" lon="7.07594">
        <ele>545.69</ele>
        <time>2014-06-21T13:58:55Z</time>
      </trkpt>
      <trkpt lat="47.80948" lon="7.07591">
        <ele>546.65</ele>
        <time>2014-06-21T13:58:57Z</time>
      </trkpt>
      <trkpt lat="47.80948" lon="7.07586">
        <ele>541.84</ele>
        <time>2014-06-21T13:59:00Z</time>
      </trkpt>
      <trkpt lat="47.80948" lon="7.07584">
        <ele>542.8</ele>
        <time>2014-06-21T13:59:01Z</time>
      </trkpt>
      <trkpt lat="47.80948" lon="7.07575">
        <ele>544.72</ele>
        <time>2014-06-21T13:59:06Z</time>
      </trkpt>
      <trkpt lat="47.80947" lon="7.07574">
        <ele>548.09</ele>
        <time>2014-06-21T13:59:07Z</time>
      </trkpt>
      <trkpt lat="47.80947" lon="7.07573">
        <ele>547.13</ele>
        <time>2014-06-21T13:59:08Z</time>
      </trkpt>
      <trkpt lat="47.80949" lon="7.07567">
        <ele>542.32</ele>
        <time>2014-06-21T13:59:12Z</time>
      </trkpt>
      <trkpt lat="47.8095" lon="7.07565">
        <ele>541.36</ele>
        <time>2014-06-21T13:59:14Z</time>
      </trkpt>
      <trkpt lat="47.80952" lon="7.0756">
        <ele>543.76</ele>
        <time>2014-06-21T13:59:17Z</time>
      </trkpt>
      <trkpt lat="47.80953" lon="7.07557">
        <ele>547.13</ele>
        <time>2014-06-21T13:59:19Z</time>
      </trkpt>
      <trkpt lat="47.80957" lon="7.07552">
        <ele>543.28</ele>
        <time>2014-06-21T13:59:24Z</time>
      </trkpt>
      <trkpt lat="47.80962" lon="7.07549">
        <ele>546.17</ele>
        <time>2014-06-21T13:59:29Z</time>
      </trkpt>
      <trkpt lat="47.80966" lon="7.0755">
        <ele>540.88</ele>
        <time>2014-06-21T13:59:33Z</time>
      </trkpt>
      <trkpt lat="47.80967" lon="7.0755">
        <ele>542.32</ele>
        <time>2014-06-21T13:59:34Z</time>
      </trkpt>
      <trkpt lat="47.80971" lon="7.07552">
        <ele>545.69</ele>
        <time>2014-06-21T13:59:37Z</time>
      </trkpt>
      <trkpt lat="47.80973" lon="7.07553">
        <ele>546.65</ele>
        <time>2014-06-21T13:59:39Z</time>
      </trkpt>
      <trkpt lat="47.80976" lon="7.07553">
        <ele>542.8</ele>
        <time>2014-06-21T13:59:41Z</time>
      </trkpt>
      <trkpt lat="47.80979" lon="7.07554">
        <ele>541.36</ele>
        <time>2014-06-21T13:59:43Z</time>
      </trkpt>
      <trkpt lat="47.80982" lon="7.07554">
        <ele>542.32</ele>
        <time>2014-06-21T13:59:45Z</time>
      </trkpt>
      <trkpt lat="47.80983" lon="7.07554">
        <ele>545.69</ele>
        <time>2014-06-21T13:59:46Z</time>
      </trkpt>
      <trkpt lat="47.80985" lon="7.07553">
        <ele>545.69</ele>
        <time>2014-06-21T13:59:48Z</time>
      </trkpt>
      <trkpt lat="47.80989" lon="7.07553">
        <ele>540.88</ele>
        <time>2014-06-21T13:59:51Z</time>
      </trkpt>
      <trkpt lat="47.8099" lon="7.07553">
        <ele>542.32</ele>
        <time>2014-06-21T13:59:52Z</time>
      </trkpt>
      <trkpt lat="47.80993" lon="7.07554">
        <ele>547.13</ele>
        <time>2014-06-21T13:59:54Z</time>
      </trkpt>
      <trkpt lat="47.80995" lon="7.07554">
        <ele>546.65</ele>
        <time>2014-06-21T13:59:55Z</time>
      </trkpt>
      <trkpt lat="47.81" lon="7.07555">
        <ele>543.28</ele>
        <time>2014-06-21T13:59:58Z</time>
      </trkpt>
      <trkpt lat="47.81002" lon="7.07555">
        <ele>541.84</ele>
        <time>2014-06-21T13:59:59Z</time>
      </trkpt>
      <trkpt lat="47.8101" lon="7.07557">
        <ele>547.13</ele>
        <time>2014-06-21T14:00:03Z</time>
      </trkpt>
      <trkpt lat="47.81012" lon="7.07557">
        <ele>547.13</ele>
        <time>2014-06-21T14:00:04Z</time>
      </trkpt>
      <trkpt lat="47.81017" lon="7.07558">
        <ele>543.76</ele>
        <time>2014-06-21T14:00:07Z</time>
      </trkpt>
      <trkpt lat="47.8102" lon="7.07559">
        <ele>543.28</ele>
        <time>2014-06-21T14:00:09Z</time>
      </trkpt>
      <trkpt lat="47.81022" lon="7.0756">
        <ele>545.2</ele>
        <time>2014-06-21T14:00:11Z</time>
      </trkpt>
      <trkpt lat="47.81024" lon="7.07561">
        <ele>549.05</ele>
        <time>2014-06-21T14:00:12Z</time>
      </trkpt>
      <trkpt lat="47.81026" lon="7.07562">
        <ele>542.8</ele>
        <time>2014-06-21T14:00:14Z</time>
      </trkpt>
      <trkpt lat="47.81034" lon="7.07561">
        <ele>546.65</ele>
        <time>2014-06-21T14:00:19Z</time>
      </trkpt>
      <trkpt lat="47.8104" lon="7.07562">
        <ele>542.32</ele>
        <time>2014-06-21T14:00:22Z</time>
      </trkpt>
      <trkpt lat="47.81042" lon="7.07563">
        <ele>542.8</ele>
        <time>2014-06-21T14:00:23Z</time>
      </trkpt>
      <trkpt lat="47.81048" lon="7.07562">
        <ele>547.61</ele>
        <time>2014-06-21T14:00:27Z</time>
      </trkpt>
      <trkpt lat="47.81051" lon="7.07562">
        <ele>543.76</ele>
        <time>2014-06-21T14:00:29Z</time>
      </trkpt>
      <trkpt lat="47.81054" lon="7.07563">
        <ele>538.96</ele>
        <time>2014-06-21T14:00:31Z</time>
      </trkpt>
      <trkpt lat="47.81056" lon="7.07564">
        <ele>546.65</ele>
        <time>2014-06-21T14:00:32Z</time>
      </trkpt>
      <trkpt lat="47.81057" lon="7.07565">
        <ele>546.65</ele>
        <time>2014-06-21T14:00:33Z</time>
      </trkpt>
      <trkpt lat="47.81061" lon="7.07565">
        <ele>543.28</ele>
        <time>2014-06-21T14:00:36Z</time>
      </trkpt>
      <trkpt lat="47.81064" lon="7.07565">
        <ele>542.32</ele>
        <time>2014-06-21T14:00:38Z</time>
      </trkpt>
      <trkpt lat="47.81066" lon="7.07565">
        <ele>546.17</ele>
        <time>2014-06-21T14:00:39Z</time>
      </trkpt>
      <trkpt lat="47.81067" lon="7.07565">
        <ele>549.05</ele>
        <time>2014-06-21T14:00:40Z</time>
      </trkpt>
      <trkpt lat="47.81069" lon="7.07566">
        <ele>549.05</ele>
        <time>2014-06-21T14:00:41Z</time>
      </trkpt>
      <trkpt lat="47.81074" lon="7.07567">
        <ele>544.72</ele>
        <time>2014-06-21T14:00:43Z</time>
      </trkpt>
      <trkpt lat="47.81077" lon="7.07568">
        <ele>542.8</ele>
        <time>2014-06-21T14:00:45Z</time>
      </trkpt>
      <trkpt lat="47.81082" lon="7.0757">
        <ele>547.61</ele>
        <time>2014-06-21T14:00:48Z</time>
      </trkpt>
      <trkpt lat="47.81084" lon="7.07571">
        <ele>547.13</ele>
        <time>2014-06-21T14:00:49Z</time>
      </trkpt>
      <trkpt lat="47.81089" lon="7.07571">
        <ele>542.8</ele>
        <time>2014-06-21T14:00:52Z</time>
      </trkpt>
      <trkpt lat="47.81096" lon="7.07571">
        <ele>548.57</ele>
        <time>2014-06-21T14:00:57Z</time>
      </trkpt>
      <trkpt lat="47.81097" lon="7.07571">
        <ele>546.65</ele>
        <time>2014-06-21T14:00:58Z</time>
      </trkpt>
      <trkpt lat="47.811" lon="7.07571">
        <ele>543.28</ele>
        <time>2014-06-21T14:01:00Z</time>
      </trkpt>
      <trkpt lat="47.81105" lon="7.07571">
        <ele>547.13</ele>
        <time>2014-06-21T14:01:04Z</time>
      </trkpt>
      <trkpt lat="47.81112" lon="7.07571">
        <ele>544.24</ele>
        <time>2014-06-21T14:01:09Z</time>
      </trkpt>
      <trkpt lat="47.81114" lon="7.07572">
        <ele>544.24</ele>
        <time>2014-06-21T14:01:10Z</time>
      </trkpt>
      <trkpt lat="47.81119" lon="7.07573">
        <ele>548.57</ele>
        <time>2014-06-21T14:01:13Z</time>
      </trkpt>
      <trkpt lat="47.81125" lon="7.07574">
        <ele>543.76</ele>
        <time>2014-06-21T14:01:17Z</time>
      </trkpt>
      <trkpt lat="47.81126" lon="7.07574">
        <ele>543.76</ele>
        <time>2014-06-21T14:01:18Z</time>
      </trkpt>
      <trkpt lat="47.81128" lon="7.07574">
        <ele>547.13</ele>
        <time>2014-06-21T14:01:20Z</time>
      </trkpt>
      <trkpt lat="47.8113" lon="7.07574">
        <ele>548.57</ele>
        <time>2014-06-21T14:01:22Z</time>
      </trkpt>
      <trkpt lat="47.81133" lon="7.07575">
        <ele>543.76</ele>
        <time>2014-06-21T14:01:24Z</time>
      </trkpt>
      <trkpt lat="47.81137" lon="7.07575">
        <ele>546.65</ele>
        <time>2014-06-21T14:01:27Z</time>
      </trkpt>
      <trkpt lat="47.81144" lon="7.07574">
        <ele>541.84</ele>
        <time>2014-06-21T14:01:32Z</time>
      </trkpt>
      <trkpt lat="47.81145" lon="7.07574">
        <ele>543.76</ele>
        <time>2014-06-21T14:01:33Z</time>
      </trkpt>
      <trkpt lat="47.81148" lon="7.07574">
        <ele>547.13</ele>
        <time>2014-06-21T14:01:35Z</time>
      </trkpt>
      <trkpt lat="47.81159" lon="7.07575">
        <ele>543.76</ele>
        <time>2014-06-21T14:01:43Z</time>
      </trkpt>
      <trkpt lat="47.81163" lon="7.07577">
        <ele>547.61</ele>
        <time>2014-06-21T14:01:46Z</time>
      </trkpt>
      <trkpt lat="47.81165" lon="7.07579">
        <ele>550.01</ele>
        <time>2014-06-21T14:01:48Z</time>
      </trkpt>
      <trkpt lat="47.81167" lon="7.07578">
        <ele>547.61</ele>
        <time>2014-06-21T14:01:50Z</time>
      </trkpt>
      <trkpt lat="47.81169" lon="7.07578">
        <ele>543.28</ele>
        <time>2014-06-21T14:01:52Z</time>
      </trkpt>
      <trkpt lat="47.8117" lon="7.07577">
        <ele>543.76</ele>
        <time>2014-06-21T14:01:53Z</time>
      </trkpt>
      <trkpt lat="47.81175" lon="7.07573">
        <ele>548.09</ele>
        <time>2014-06-21T14:01:57Z</time>
      </trkpt>
      <trkpt lat="47.81176" lon="7.07571">
        <ele>551.93</ele>
        <time>2014-06-21T14:01:58Z</time>
      </trkpt>
      <trkpt lat="47.81177" lon="7.0757">
        <ele>550.97</ele>
        <time>2014-06-21T14:01:59Z</time>
      </trkpt>
      <trkpt lat="47.8118" lon="7.07563">
        <ele>546.17</ele>
        <time>2014-06-21T14:02:02Z</time>
      </trkpt>
      <trkpt lat="47.81181" lon="7.07561">
        <ele>547.13</ele>
        <time>2014-06-21T14:02:03Z</time>
      </trkpt>
      <trkpt lat="47.81183" lon="7.07542">
        <ele>551.93</ele>
        <time>2014-06-21T14:02:11Z</time>
      </trkpt>
      <trkpt lat="47.81183" lon="7.0754">
        <ele>551.93</ele>
        <time>2014-06-21T14:02:12Z</time>
      </trkpt>
      <trkpt lat="47.81182" lon="7.07536">
        <ele>549.53</ele>
        <time>2014-06-21T14:02:14Z</time>
      </trkpt>
      <trkpt lat="47.81185" lon="7.07519">
        <ele>548.57</ele>
        <time>2014-06-21T14:02:20Z</time>
      </trkpt>
      <trkpt lat="47.81182" lon="7.07502">
        <ele>551.93</ele>
        <time>2014-06-21T14:02:27Z</time>
      </trkpt>
      <trkpt lat="47.81181" lon="7.07499">
        <ele>550.97</ele>
        <time>2014-06-21T14:02:28Z</time>
      </trkpt>
      <trkpt lat="47.81181" lon="7.07494">
        <ele>555.3</ele>
        <time>2014-06-21T14:02:30Z</time>
      </trkpt>
      <trkpt lat="47.81181" lon="7.07492">
        <ele>552.41</ele>
        <time>2014-06-21T14:02:31Z</time>
      </trkpt>
      <trkpt lat="47.81178" lon="7.07469">
        <ele>549.05</ele>
        <time>2014-06-21T14:02:41Z</time>
      </trkpt>
      <trkpt lat="47.81177" lon="7.07462">
        <ele>548.09</ele>
        <time>2014-06-21T14:02:44Z</time>
      </trkpt>
      <trkpt lat="47.81175" lon="7.07454">
        <ele>550.49</ele>
        <time>2014-06-21T14:02:47Z</time>
      </trkpt>
      <trkpt lat="47.81174" lon="7.07437">
        <ele>554.34</ele>
        <time>2014-06-21T14:02:54Z</time>
      </trkpt>
      <trkpt lat="47.81166" lon="7.07425">
        <ele>557.7</ele>
        <time>2014-06-21T14:03:02Z</time>
      </trkpt>
      <trkpt lat="47.81165" lon="7.07423">
        <ele>557.7</ele>
        <time>2014-06-21T14:03:03Z</time>
      </trkpt>
      <trkpt lat="47.81159" lon="7.07408">
        <ele>554.82</ele>
        <time>2014-06-21T14:03:13Z</time>
      </trkpt>
      <trkpt lat="47.81153" lon="7.0739">
        <ele>556.74</ele>
        <time>2014-06-21T14:03:24Z</time>
      </trkpt>
      <trkpt lat="47.8115" lon="7.07375">
        <ele>553.86</ele>
        <time>2014-06-21T14:03:30Z</time>
      </trkpt>
      <trkpt lat="47.81148" lon="7.07372">
        <ele>552.9</ele>
        <time>2014-06-21T14:03:32Z</time>
      </trkpt>
      <trkpt lat="47.81147" lon="7.07368">
        <ele>555.3</ele>
        <time>2014-06-21T14:03:34Z</time>
      </trkpt>
      <trkpt lat="47.81142" lon="7.07365">
        <ele>558.66</ele>
        <time>2014-06-21T14:03:37Z</time>
      </trkpt>
      <trkpt lat="47.81134" lon="7.07352">
        <ele>563.47</ele>
        <time>2014-06-21T14:03:44Z</time>
      </trkpt>
      <trkpt lat="47.81133" lon="7.0735">
        <ele>562.03</ele>
        <time>2014-06-21T14:03:45Z</time>
      </trkpt>
      <trkpt lat="47.81132" lon="7.07346">
        <ele>557.7</ele>
        <time>2014-06-21T14:03:47Z</time>
      </trkpt>
      <trkpt lat="47.81131" lon="7.07344">
        <ele>558.66</ele>
        <time>2014-06-21T14:03:48Z</time>
      </trkpt>
      <trkpt lat="47.8113" lon="7.07342">
        <ele>558.18</ele>
        <time>2014-06-21T14:03:49Z</time>
      </trkpt>
      <trkpt lat="47.8113" lon="7.07331">
        <ele>558.18</ele>
        <time>2014-06-21T14:03:54Z</time>
      </trkpt>
      <trkpt lat="47.81129" lon="7.07327">
        <ele>562.99</ele>
        <time>2014-06-21T14:03:56Z</time>
      </trkpt>
      <trkpt lat="47.81129" lon="7.07325">
        <ele>562.51</ele>
        <time>2014-06-21T14:03:57Z</time>
      </trkpt>
      <trkpt lat="47.81127" lon="7.07319">
        <ele>561.55</ele>
        <time>2014-06-21T14:04:01Z</time>
      </trkpt>
      <trkpt lat="47.81126" lon="7.07316">
        <ele>558.66</ele>
        <time>2014-06-21T14:04:03Z</time>
      </trkpt>
      <trkpt lat="47.81127" lon="7.07307">
        <ele>556.74</ele>
        <time>2014-06-21T14:04:07Z</time>
      </trkpt>
      <trkpt lat="47.81126" lon="7.07304">
        <ele>560.59</ele>
        <time>2014-06-21T14:04:09Z</time>
      </trkpt>
      <trkpt lat="47.81126" lon="7.07302">
        <ele>561.07</ele>
        <time>2014-06-21T14:04:10Z</time>
      </trkpt>
      <trkpt lat="47.81126" lon="7.07299">
        <ele>562.03</ele>
        <time>2014-06-21T14:04:12Z</time>
      </trkpt>
      <trkpt lat="47.81126" lon="7.07293">
        <ele>565.87</ele>
        <time>2014-06-21T14:04:15Z</time>
      </trkpt>
      <trkpt lat="47.81126" lon="7.07292">
        <ele>564.43</ele>
        <time>2014-06-21T14:04:16Z</time>
      </trkpt>
      <trkpt lat="47.81126" lon="7.07283">
        <ele>561.55</ele>
        <time>2014-06-21T14:04:21Z</time>
      </trkpt>
      <trkpt lat="47.81126" lon="7.07262">
        <ele>558.66</ele>
        <time>2014-06-21T14:04:30Z</time>
      </trkpt>
      <trkpt lat="47.81125" lon="7.0726">
        <ele>559.62</ele>
        <time>2014-06-21T14:04:31Z</time>
      </trkpt>
      <trkpt lat="47.81123" lon="7.07248">
        <ele>564.43</ele>
        <time>2014-06-21T14:04:37Z</time>
      </trkpt>
      <trkpt lat="47.81123" lon="7.07246">
        <ele>563.95</ele>
        <time>2014-06-21T14:04:38Z</time>
      </trkpt>
      <trkpt lat="47.81119" lon="7.07233">
        <ele>567.8</ele>
        <time>2014-06-21T14:04:44Z</time>
      </trkpt>
      <trkpt lat="47.81119" lon="7.07232">
        <ele>567.8</ele>
        <time>2014-06-21T14:04:45Z</time>
      </trkpt>
      <trkpt lat="47.8112" lon="7.07219">
        <ele>565.39</ele>
        <time>2014-06-21T14:04:52Z</time>
      </trkpt>
      <trkpt lat="47.8112" lon="7.07217">
        <ele>561.55</ele>
        <time>2014-06-21T14:04:53Z</time>
      </trkpt>
      <trkpt lat="47.81121" lon="7.07215">
        <ele>563.95</ele>
        <time>2014-06-21T14:04:54Z</time>
      </trkpt>
      <trkpt lat="47.81122" lon="7.07205">
        <ele>560.59</ele>
        <time>2014-06-21T14:04:59Z</time>
      </trkpt>
      <trkpt lat="47.81122" lon="7.07201">
        <ele>563.95</ele>
        <time>2014-06-21T14:05:01Z</time>
      </trkpt>
      <trkpt lat="47.81122" lon="7.07196">
        <ele>569.24</ele>
        <time>2014-06-21T14:05:03Z</time>
      </trkpt>
      <trkpt lat="47.81121" lon="7.07194">
        <ele>568.28</ele>
        <time>2014-06-21T14:05:04Z</time>
      </trkpt>
      <trkpt lat="47.81119" lon="7.07182">
        <ele>564.43</ele>
        <time>2014-06-21T14:05:10Z</time>
      </trkpt>
      <trkpt lat="47.81119" lon="7.0718">
        <ele>564.43</ele>
        <time>2014-06-21T14:05:11Z</time>
      </trkpt>
      <trkpt lat="47.81119" lon="7.07171">
        <ele>569.72</ele>
        <time>2014-06-21T14:05:16Z</time>
      </trkpt>
      <trkpt lat="47.81118" lon="7.07155">
        <ele>565.87</ele>
        <time>2014-06-21T14:05:23Z</time>
      </trkpt>
      <trkpt lat="47.8112" lon="7.07144">
        <ele>569.72</ele>
        <time>2014-06-21T14:05:29Z</time>
      </trkpt>
      <trkpt lat="47.81121" lon="7.07143">
        <ele>569.72</ele>
        <time>2014-06-21T14:05:30Z</time>
      </trkpt>
      <trkpt lat="47.8112" lon="7.07136">
        <ele>567.8</ele>
        <time>2014-06-21T14:05:35Z</time>
      </trkpt>
      <trkpt lat="47.8112" lon="7.07132">
        <ele>564.43</ele>
        <time>2014-06-21T14:05:37Z</time>
      </trkpt>
      <trkpt lat="47.8112" lon="7.07131">
        <ele>564.43</ele>
        <time>2014-06-21T14:05:38Z</time>
      </trkpt>
      <trkpt lat="47.81121" lon="7.07127">
        <ele>568.28</ele>
        <time>2014-06-21T14:05:40Z</time>
      </trkpt>
      <trkpt lat="47.81122" lon="7.07125">
        <ele>572.6</ele>
        <time>2014-06-21T14:05:41Z</time>
      </trkpt>
      <trkpt lat="47.81122" lon="7.07123">
        <ele>572.6</ele>
        <time>2014-06-21T14:05:42Z</time>
      </trkpt>
      <trkpt lat="47.81122" lon="7.07113">
        <ele>568.76</ele>
        <time>2014-06-21T14:05:47Z</time>
      </trkpt>
      <trkpt lat="47.81123" lon="7.07111">
        <ele>568.76</ele>
        <time>2014-06-21T14:05:48Z</time>
      </trkpt>
      <trkpt lat="47.81125" lon="7.07104">
        <ele>572.6</ele>
        <time>2014-06-21T14:05:51Z</time>
      </trkpt>
      <trkpt lat="47.81126" lon="7.07103">
        <ele>567.8</ele>
        <time>2014-06-21T14:05:52Z</time>
      </trkpt>
      <trkpt lat="47.81126" lon="7.071">
        <ele>571.16</ele>
        <time>2014-06-21T14:05:53Z</time>
      </trkpt>
      <trkpt lat="47.81127" lon="7.07092">
        <ele>574.53</ele>
        <time>2014-06-21T14:05:56Z</time>
      </trkpt>
      <trkpt lat="47.81128" lon="7.07086">
        <ele>570.68</ele>
        <time>2014-06-21T14:05:59Z</time>
      </trkpt>
      <trkpt lat="47.81132" lon="7.07071">
        <ele>572.12</ele>
        <time>2014-06-21T14:06:06Z</time>
      </trkpt>
      <trkpt lat="47.81133" lon="7.07067">
        <ele>574.04</ele>
        <time>2014-06-21T14:06:08Z</time>
      </trkpt>
      <trkpt lat="47.81139" lon="7.07054">
        <ele>572.12</ele>
        <time>2014-06-21T14:06:14Z</time>
      </trkpt>
      <trkpt lat="47.8114" lon="7.0705">
        <ele>569.24</ele>
        <time>2014-06-21T14:06:17Z</time>
      </trkpt>
      <trkpt lat="47.81142" lon="7.07047">
        <ele>575.49</ele>
        <time>2014-06-21T14:06:19Z</time>
      </trkpt>
      <trkpt lat="47.81142" lon="7.07046">
        <ele>575.49</ele>
        <time>2014-06-21T14:06:20Z</time>
      </trkpt>
      <trkpt lat="47.81144" lon="7.07044">
        <ele>576.93</ele>
        <time>2014-06-21T14:06:22Z</time>
      </trkpt>
      <trkpt lat="47.81149" lon="7.07039">
        <ele>573.56</ele>
        <time>2014-06-21T14:06:25Z</time>
      </trkpt>
      <trkpt lat="47.81151" lon="7.07036">
        <ele>572.6</ele>
        <time>2014-06-21T14:06:27Z</time>
      </trkpt>
      <trkpt lat="47.81159" lon="7.07031">
        <ele>575.97</ele>
        <time>2014-06-21T14:06:33Z</time>
      </trkpt>
      <trkpt lat="47.81162" lon="7.0703">
        <ele>576.93</ele>
        <time>2014-06-21T14:06:35Z</time>
      </trkpt>
      <trkpt lat="47.81164" lon="7.0703">
        <ele>578.37</ele>
        <time>2014-06-21T14:06:36Z</time>
      </trkpt>
      <trkpt lat="47.8117" lon="7.07031">
        <ele>574.53</ele>
        <time>2014-06-21T14:06:41Z</time>
      </trkpt>
      <trkpt lat="47.81173" lon="7.07031">
        <ele>573.56</ele>
        <time>2014-06-21T14:06:43Z</time>
      </trkpt>
      <trkpt lat="47.81176" lon="7.07031">
        <ele>575.01</ele>
        <time>2014-06-21T14:06:45Z</time>
      </trkpt>
      <trkpt lat="47.81182" lon="7.07031">
        <ele>575.49</ele>
        <time>2014-06-21T14:06:50Z</time>
      </trkpt>
      <trkpt lat="47.81184" lon="7.0703">
        <ele>580.29</ele>
        <time>2014-06-21T14:06:52Z</time>
      </trkpt>
      <trkpt lat="47.8119" lon="7.07028">
        <ele>575.01</ele>
        <time>2014-06-21T14:06:57Z</time>
      </trkpt>
      <trkpt lat="47.81191" lon="7.07027">
        <ele>575.01</ele>
        <time>2014-06-21T14:06:58Z</time>
      </trkpt>
      <trkpt lat="47.81194" lon="7.07025">
        <ele>580.77</ele>
        <time>2014-06-21T14:07:01Z</time>
      </trkpt>
      <trkpt lat="47.81194" lon="7.07025">
        <ele>578.85</ele>
        <time>2014-06-21T14:07:02Z</time>
      </trkpt>
      <trkpt lat="47.81198" lon="7.07023">
        <ele>582.22</ele>
        <time>2014-06-21T14:07:05Z</time>
      </trkpt>
      <trkpt lat="47.81201" lon="7.0702">
        <ele>578.85</ele>
        <time>2014-06-21T14:07:09Z</time>
      </trkpt>
      <trkpt lat="47.81205" lon="7.07016">
        <ele>575.97</ele>
        <time>2014-06-21T14:07:14Z</time>
      </trkpt>
      <trkpt lat="47.81206" lon="7.07015">
        <ele>577.41</ele>
        <time>2014-06-21T14:07:15Z</time>
      </trkpt>
      <trkpt lat="47.8121" lon="7.07013">
        <ele>580.77</ele>
        <time>2014-06-21T14:07:18Z</time>
      </trkpt>
      <trkpt lat="47.81214" lon="7.0701">
        <ele>580.29</ele>
        <time>2014-06-21T14:07:19Z</time>
      </trkpt>
      <trkpt lat="47.81226" lon="7.06997">
        <ele>576.93</ele>
        <time>2014-06-21T14:07:25Z</time>
      </trkpt>
      <trkpt lat="47.81228" lon="7.06996">
        <ele>577.41</ele>
        <time>2014-06-21T14:07:26Z</time>
      </trkpt>
      <trkpt lat="47.81236" lon="7.06991">
        <ele>579.33</ele>
        <time>2014-06-21T14:07:32Z</time>
      </trkpt>
      <trkpt lat="47.81239" lon="7.0699">
        <ele>582.7</ele>
        <time>2014-06-21T14:07:34Z</time>
      </trkpt>
      <trkpt lat="47.81246" lon="7.06985">
        <ele>583.66</ele>
        <time>2014-06-21T14:07:40Z</time>
      </trkpt>
      <trkpt lat="47.81253" lon="7.06978">
        <ele>579.81</ele>
        <time>2014-06-21T14:07:47Z</time>
      </trkpt>
      <trkpt lat="47.81259" lon="7.06971">
        <ele>584.14</ele>
        <time>2014-06-21T14:07:52Z</time>
      </trkpt>
      <trkpt lat="47.8126" lon="7.0697">
        <ele>580.77</ele>
        <time>2014-06-21T14:07:53Z</time>
      </trkpt>
      <trkpt lat="47.81263" lon="7.06967">
        <ele>585.1</ele>
        <time>2014-06-21T14:07:55Z</time>
      </trkpt>
      <trkpt lat="47.81264" lon="7.06966">
        <ele>584.62</ele>
        <time>2014-06-21T14:07:56Z</time>
      </trkpt>
      <trkpt lat="47.81265" lon="7.06963">
        <ele>587.02</ele>
        <time>2014-06-21T14:07:58Z</time>
      </trkpt>
      <trkpt lat="47.81268" lon="7.06957">
        <ele>582.22</ele>
        <time>2014-06-21T14:08:02Z</time>
      </trkpt>
      <trkpt lat="47.81273" lon="7.06938">
        <ele>586.06</ele>
        <time>2014-06-21T14:08:08Z</time>
      </trkpt>
      <trkpt lat="47.81272" lon="7.06935">
        <ele>585.58</ele>
        <time>2014-06-21T14:08:09Z</time>
      </trkpt>
      <trkpt lat="47.81272" lon="7.06927">
        <ele>588.95</ele>
        <time>2014-06-21T14:08:13Z</time>
      </trkpt>
      <trkpt lat="47.81274" lon="7.06923">
        <ele>586.54</ele>
        <time>2014-06-21T14:08:15Z</time>
      </trkpt>
      <trkpt lat="47.81276" lon="7.06919">
        <ele>584.62</ele>
        <time>2014-06-21T14:08:17Z</time>
      </trkpt>
      <trkpt lat="47.81277" lon="7.06915">
        <ele>581.73</ele>
        <time>2014-06-21T14:08:19Z</time>
      </trkpt>
      <trkpt lat="47.81278" lon="7.06911">
        <ele>587.98</ele>
        <time>2014-06-21T14:08:21Z</time>
      </trkpt>
      <trkpt lat="47.81278" lon="7.06908">
        <ele>585.1</ele>
        <time>2014-06-21T14:08:22Z</time>
      </trkpt>
      <trkpt lat="47.81278" lon="7.06903">
        <ele>588.46</ele>
        <time>2014-06-21T14:08:24Z</time>
      </trkpt>
      <trkpt lat="47.81281" lon="7.06891">
        <ele>584.14</ele>
        <time>2014-06-21T14:08:30Z</time>
      </trkpt>
      <trkpt lat="47.81283" lon="7.06877">
        <ele>588.46</ele>
        <time>2014-06-21T14:08:35Z</time>
      </trkpt>
      <trkpt lat="47.81284" lon="7.06871">
        <ele>589.43</ele>
        <time>2014-06-21T14:08:37Z</time>
      </trkpt>
      <trkpt lat="47.81284" lon="7.06858">
        <ele>585.58</ele>
        <time>2014-06-21T14:08:43Z</time>
      </trkpt>
      <trkpt lat="47.81283" lon="7.06851">
        <ele>588.46</ele>
        <time>2014-06-21T14:08:48Z</time>
      </trkpt>
      <trkpt lat="47.81283" lon="7.06848">
        <ele>590.87</ele>
        <time>2014-06-21T14:08:50Z</time>
      </trkpt>
      <trkpt lat="47.81286" lon="7.0684">
        <ele>587.02</ele>
        <time>2014-06-21T14:08:55Z</time>
      </trkpt>
      <trkpt lat="47.81287" lon="7.06836">
        <ele>585.58</ele>
        <time>2014-06-21T14:08:57Z</time>
      </trkpt>
      <trkpt lat="47.81289" lon="7.0683">
        <ele>587.98</ele>
        <time>2014-06-21T14:09:01Z</time>
      </trkpt>
      <trkpt lat="47.81296" lon="7.0682">
        <ele>589.43</ele>
        <time>2014-06-21T14:09:08Z</time>
      </trkpt>
      <trkpt lat="47.81298" lon="7.06818">
        <ele>592.79</ele>
        <time>2014-06-21T14:09:11Z</time>
      </trkpt>
      <trkpt lat="47.8131" lon="7.06803">
        <ele>594.71</ele>
        <time>2014-06-21T14:09:28Z</time>
      </trkpt>
      <trkpt lat="47.81312" lon="7.06798">
        <ele>590.39</ele>
        <time>2014-06-21T14:09:31Z</time>
      </trkpt>
      <trkpt lat="47.81313" lon="7.06795">
        <ele>588.95</ele>
        <time>2014-06-21T14:09:33Z</time>
      </trkpt>
      <trkpt lat="47.81314" lon="7.06793">
        <ele>593.75</ele>
        <time>2014-06-21T14:09:35Z</time>
      </trkpt>
      <trkpt lat="47.81317" lon="7.06791">
        <ele>595.67</ele>
        <time>2014-06-21T14:09:38Z</time>
      </trkpt>
      <trkpt lat="47.81323" lon="7.06782">
        <ele>592.31</ele>
        <time>2014-06-21T14:09:43Z</time>
      </trkpt>
      <trkpt lat="47.81344" lon="7.06767">
        <ele>596.64</ele>
        <time>2014-06-21T14:09:54Z</time>
      </trkpt>
      <trkpt lat="47.81346" lon="7.06765">
        <ele>595.67</ele>
        <time>2014-06-21T14:09:55Z</time>
      </trkpt>
      <trkpt lat="47.81355" lon="7.06755">
        <ele>594.71</ele>
        <time>2014-06-21T14:10:01Z</time>
      </trkpt>
      <trkpt lat="47.81361" lon="7.06749">
        <ele>592.31</ele>
        <time>2014-06-21T14:10:06Z</time>
      </trkpt>
      <trkpt lat="47.81372" lon="7.06742">
        <ele>593.27</ele>
        <time>2014-06-21T14:10:12Z</time>
      </trkpt>
      <trkpt lat="47.81384" lon="7.06738">
        <ele>598.08</ele>
        <time>2014-06-21T14:10:18Z</time>
      </trkpt>
      <trkpt lat="47.81386" lon="7.06737">
        <ele>597.6</ele>
        <time>2014-06-21T14:10:19Z</time>
      </trkpt>
      <trkpt lat="47.81395" lon="7.06729">
        <ele>595.67</ele>
        <time>2014-06-21T14:10:25Z</time>
      </trkpt>
      <trkpt lat="47.81397" lon="7.06726">
        <ele>594.23</ele>
        <time>2014-06-21T14:10:28Z</time>
      </trkpt>
      <trkpt lat="47.81406" lon="7.06719">
        <ele>598.56</ele>
        <time>2014-06-21T14:10:37Z</time>
      </trkpt>
      <trkpt lat="47.81408" lon="7.06719">
        <ele>600</ele>
        <time>2014-06-21T14:10:39Z</time>
      </trkpt>
      <trkpt lat="47.81413" lon="7.06719">
        <ele>596.15</ele>
        <time>2014-06-21T14:10:45Z</time>
      </trkpt>
      <trkpt lat="47.81424" lon="7.06718">
        <ele>596.15</ele>
        <time>2014-06-21T14:10:52Z</time>
      </trkpt>
      <trkpt lat="47.81426" lon="7.06715">
        <ele>600</ele>
        <time>2014-06-21T14:10:54Z</time>
      </trkpt>
      <trkpt lat="47.81428" lon="7.06713">
        <ele>601.44</ele>
        <time>2014-06-21T14:10:56Z</time>
      </trkpt>
      <trkpt lat="47.81432" lon="7.0671">
        <ele>599.04</ele>
        <time>2014-06-21T14:11:01Z</time>
      </trkpt>
      <trkpt lat="47.81434" lon="7.0671">
        <ele>596.64</ele>
        <time>2014-06-21T14:11:03Z</time>
      </trkpt>
      <trkpt lat="47.81441" lon="7.06705">
        <ele>602.4</ele>
        <time>2014-06-21T14:11:09Z</time>
      </trkpt>
      <trkpt lat="47.81442" lon="7.06704">
        <ele>602.4</ele>
        <time>2014-06-21T14:11:10Z</time>
      </trkpt>
      <trkpt lat="47.81447" lon="7.06702">
        <ele>599.04</ele>
        <time>2014-06-21T14:11:13Z</time>
      </trkpt>
      <trkpt lat="47.81457" lon="7.06702">
        <ele>600</ele>
        <time>2014-06-21T14:11:22Z</time>
      </trkpt>
      <trkpt lat="47.81459" lon="7.06703">
        <ele>602.88</ele>
        <time>2014-06-21T14:11:25Z</time>
      </trkpt>
      <trkpt lat="47.81462" lon="7.06703">
        <ele>597.6</ele>
        <time>2014-06-21T14:11:29Z</time>
      </trkpt>
      <trkpt lat="47.81465" lon="7.06705">
        <ele>601.92</ele>
        <time>2014-06-21T14:11:30Z</time>
      </trkpt>
      <trkpt lat="47.81466" lon="7.06703">
        <ele>600.48</ele>
        <time>2014-06-21T14:11:31Z</time>
      </trkpt>
      <trkpt lat="47.8148" lon="7.06688">
        <ele>601.44</ele>
        <time>2014-06-21T14:11:44Z</time>
      </trkpt>
      <trkpt lat="47.81485" lon="7.06687">
        <ele>599.04</ele>
        <time>2014-06-21T14:11:47Z</time>
      </trkpt>
      <trkpt lat="47.81493" lon="7.06689">
        <ele>603.36</ele>
        <time>2014-06-21T14:11:51Z</time>
      </trkpt>
      <trkpt lat="47.81494" lon="7.0669">
        <ele>603.36</ele>
        <time>2014-06-21T14:11:52Z</time>
      </trkpt>
      <trkpt lat="47.81501" lon="7.06689">
        <ele>600</ele>
        <time>2014-06-21T14:11:57Z</time>
      </trkpt>
      <trkpt lat="47.81504" lon="7.06687">
        <ele>599.52</ele>
        <time>2014-06-21T14:11:59Z</time>
      </trkpt>
      <trkpt lat="47.81509" lon="7.06685">
        <ele>602.88</ele>
        <time>2014-06-21T14:12:03Z</time>
      </trkpt>
      <trkpt lat="47.81511" lon="7.06683">
        <ele>603.85</ele>
        <time>2014-06-21T14:12:05Z</time>
      </trkpt>
      <trkpt lat="47.81513" lon="7.06681">
        <ele>601.92</ele>
        <time>2014-06-21T14:12:07Z</time>
      </trkpt>
      <trkpt lat="47.81518" lon="7.0668">
        <ele>600</ele>
        <time>2014-06-21T14:12:10Z</time>
      </trkpt>
      <trkpt lat="47.81522" lon="7.0668">
        <ele>603.36</ele>
        <time>2014-06-21T14:12:13Z</time>
      </trkpt>
      <trkpt lat="47.81525" lon="7.06679">
        <ele>604.33</ele>
        <time>2014-06-21T14:12:15Z</time>
      </trkpt>
      <trkpt lat="47.81529" lon="7.06678">
        <ele>601.44</ele>
        <time>2014-06-21T14:12:18Z</time>
      </trkpt>
      <trkpt lat="47.81533" lon="7.06676">
        <ele>599.04</ele>
        <time>2014-06-21T14:12:21Z</time>
      </trkpt>
      <trkpt lat="47.81539" lon="7.06671">
        <ele>602.4</ele>
        <time>2014-06-21T14:12:24Z</time>
      </trkpt>
      <trkpt lat="47.81541" lon="7.06669">
        <ele>602.4</ele>
        <time>2014-06-21T14:12:25Z</time>
      </trkpt>
      <trkpt lat="47.81549" lon="7.0666">
        <ele>601.92</ele>
        <time>2014-06-21T14:12:31Z</time>
      </trkpt>
      <trkpt lat="47.81553" lon="7.06652">
        <ele>605.77</ele>
        <time>2014-06-21T14:12:36Z</time>
      </trkpt>
      <trkpt lat="47.81554" lon="7.06646">
        <ele>601.92</ele>
        <time>2014-06-21T14:12:39Z</time>
      </trkpt>
      <trkpt lat="47.81558" lon="7.0664">
        <ele>605.77</ele>
        <time>2014-06-21T14:12:43Z</time>
      </trkpt>
      <trkpt lat="47.81562" lon="7.06633">
        <ele>602.88</ele>
        <time>2014-06-21T14:12:46Z</time>
      </trkpt>
      <trkpt lat="47.81568" lon="7.06614">
        <ele>606.73</ele>
        <time>2014-06-21T14:12:54Z</time>
      </trkpt>
      <trkpt lat="47.81568" lon="7.06608">
        <ele>601.44</ele>
        <time>2014-06-21T14:12:57Z</time>
      </trkpt>
      <trkpt lat="47.81569" lon="7.06606">
        <ele>602.4</ele>
        <time>2014-06-21T14:12:58Z</time>
      </trkpt>
      <trkpt lat="47.81571" lon="7.06595">
        <ele>605.77</ele>
        <time>2014-06-21T14:13:03Z</time>
      </trkpt>
      <trkpt lat="47.81572" lon="7.06586">
        <ele>601.92</ele>
        <time>2014-06-21T14:13:09Z</time>
      </trkpt>
      <trkpt lat="47.81573" lon="7.06576">
        <ele>605.77</ele>
        <time>2014-06-21T14:13:14Z</time>
      </trkpt>
      <trkpt lat="47.81576" lon="7.06571">
        <ele>606.73</ele>
        <time>2014-06-21T14:13:16Z</time>
      </trkpt>
      <trkpt lat="47.81579" lon="7.06561">
        <ele>601.92</ele>
        <time>2014-06-21T14:13:20Z</time>
      </trkpt>
      <trkpt lat="47.81579" lon="7.06559">
        <ele>603.36</ele>
        <time>2014-06-21T14:13:21Z</time>
      </trkpt>
      <trkpt lat="47.8158" lon="7.06556">
        <ele>608.17</ele>
        <time>2014-06-21T14:13:23Z</time>
      </trkpt>
      <trkpt lat="47.8158" lon="7.06556">
        <ele>606.73</ele>
        <time>2014-06-21T14:13:24Z</time>
      </trkpt>
      <trkpt lat="47.81583" lon="7.06548">
        <ele>603.85</ele>
        <time>2014-06-21T14:13:28Z</time>
      </trkpt>
      <trkpt lat="47.81582" lon="7.06543">
        <ele>601.92</ele>
        <time>2014-06-21T14:13:31Z</time>
      </trkpt>
      <trkpt lat="47.81582" lon="7.0654">
        <ele>605.77</ele>
        <time>2014-06-21T14:13:32Z</time>
      </trkpt>
      <trkpt lat="47.8158" lon="7.06525">
        <ele>604.81</ele>
        <time>2014-06-21T14:13:39Z</time>
      </trkpt>
      <trkpt lat="47.8158" lon="7.06516">
        <ele>608.17</ele>
        <time>2014-06-21T14:13:43Z</time>
      </trkpt>
      <trkpt lat="47.8158" lon="7.06514">
        <ele>607.21</ele>
        <time>2014-06-21T14:13:44Z</time>
      </trkpt>
      <trkpt lat="47.81579" lon="7.06506">
        <ele>603.85</ele>
        <time>2014-06-21T14:13:48Z</time>
      </trkpt>
      <trkpt lat="47.81579" lon="7.06501">
        <ele>601.92</ele>
        <time>2014-06-21T14:13:50Z</time>
      </trkpt>
      <trkpt lat="47.81579" lon="7.06494">
        <ele>607.21</ele>
        <time>2014-06-21T14:13:53Z</time>
      </trkpt>
      <trkpt lat="47.8158" lon="7.06486">
        <ele>604.81</ele>
        <time>2014-06-21T14:13:57Z</time>
      </trkpt>
      <trkpt lat="47.81581" lon="7.06484">
        <ele>604.81</ele>
        <time>2014-06-21T14:13:58Z</time>
      </trkpt>
      <trkpt lat="47.81581" lon="7.06477">
        <ele>608.17</ele>
        <time>2014-06-21T14:14:01Z</time>
      </trkpt>
      <trkpt lat="47.81581" lon="7.06462">
        <ele>604.33</ele>
        <time>2014-06-21T14:14:07Z</time>
      </trkpt>
      <trkpt lat="47.81583" lon="7.06452">
        <ele>609.13</ele>
        <time>2014-06-21T14:14:10Z</time>
      </trkpt>
      <trkpt lat="47.81583" lon="7.06448">
        <ele>608.65</ele>
        <time>2014-06-21T14:14:11Z</time>
      </trkpt>
      <trkpt lat="47.81581" lon="7.06433">
        <ele>604.81</ele>
        <time>2014-06-21T14:14:15Z</time>
      </trkpt>
      <trkpt lat="47.81579" lon="7.06427">
        <ele>605.77</ele>
        <time>2014-06-21T14:14:17Z</time>
      </trkpt>
      <trkpt lat="47.81572" lon="7.06411">
        <ele>605.29</ele>
        <time>2014-06-21T14:14:22Z</time>
      </trkpt>
      <trkpt lat="47.81568" lon="7.06406">
        <ele>604.33</ele>
        <time>2014-06-21T14:14:24Z</time>
      </trkpt>
      <trkpt lat="47.81565" lon="7.06401">
        <ele>608.65</ele>
        <time>2014-06-21T14:14:27Z</time>
      </trkpt>
      <trkpt lat="47.8156" lon="7.06393">
        <ele>604.33</ele>
        <time>2014-06-21T14:14:32Z</time>
      </trkpt>
      <trkpt lat="47.81556" lon="7.06386">
        <ele>608.65</ele>
        <time>2014-06-21T14:14:35Z</time>
      </trkpt>
      <trkpt lat="47.81554" lon="7.06377">
        <ele>611.54</ele>
        <time>2014-06-21T14:14:38Z</time>
      </trkpt>
      <trkpt lat="47.8155" lon="7.06367">
        <ele>606.25</ele>
        <time>2014-06-21T14:14:42Z</time>
      </trkpt>
      <trkpt lat="47.81549" lon="7.06361">
        <ele>610.09</ele>
        <time>2014-06-21T14:14:46Z</time>
      </trkpt>
      <trkpt lat="47.81549" lon="7.06356">
        <ele>606.73</ele>
        <time>2014-06-21T14:14:49Z</time>
      </trkpt>
      <trkpt lat="47.81546" lon="7.0635">
        <ele>608.65</ele>
        <time>2014-06-21T14:14:52Z</time>
      </trkpt>
      <trkpt lat="47.81543" lon="7.06342">
        <ele>607.21</ele>
        <time>2014-06-21T14:14:56Z</time>
      </trkpt>
      <trkpt lat="47.81543" lon="7.0634">
        <ele>607.21</ele>
        <time>2014-06-21T14:14:57Z</time>
      </trkpt>
      <trkpt lat="47.81541" lon="7.06332">
        <ele>610.09</ele>
        <time>2014-06-21T14:15:02Z</time>
      </trkpt>
      <trkpt lat="47.81534" lon="7.06316">
        <ele>611.54</ele>
        <time>2014-06-21T14:15:11Z</time>
      </trkpt>
      <trkpt lat="47.81528" lon="7.0631">
        <ele>608.17</ele>
        <time>2014-06-21T14:15:15Z</time>
      </trkpt>
      <trkpt lat="47.81526" lon="7.06305">
        <ele>608.17</ele>
        <time>2014-06-21T14:15:18Z</time>
      </trkpt>
      <trkpt lat="47.81525" lon="7.06302">
        <ele>611.06</ele>
        <time>2014-06-21T14:15:20Z</time>
      </trkpt>
      <trkpt lat="47.81524" lon="7.06293">
        <ele>606.25</ele>
        <time>2014-06-21T14:15:24Z</time>
      </trkpt>
      <trkpt lat="47.81523" lon="7.06292">
        <ele>606.73</ele>
        <time>2014-06-21T14:15:25Z</time>
      </trkpt>
      <trkpt lat="47.81521" lon="7.06289">
        <ele>610.09</ele>
        <time>2014-06-21T14:15:27Z</time>
      </trkpt>
      <trkpt lat="47.8152" lon="7.06286">
        <ele>613.94</ele>
        <time>2014-06-21T14:15:29Z</time>
      </trkpt>
      <trkpt lat="47.81519" lon="7.06284">
        <ele>613.94</ele>
        <time>2014-06-21T14:15:30Z</time>
      </trkpt>
      <trkpt lat="47.81519" lon="7.06277">
        <ele>608.65</ele>
        <time>2014-06-21T14:15:32Z</time>
      </trkpt>
      <trkpt lat="47.81519" lon="7.06269">
        <ele>607.69</ele>
        <time>2014-06-21T14:15:34Z</time>
      </trkpt>
      <trkpt lat="47.81519" lon="7.06265">
        <ele>607.69</ele>
        <time>2014-06-21T14:15:35Z</time>
      </trkpt>
      <trkpt lat="47.81519" lon="7.06259">
        <ele>613.46</ele>
        <time>2014-06-21T14:15:37Z</time>
      </trkpt>
      <trkpt lat="47.81519" lon="7.06257">
        <ele>612.98</ele>
        <time>2014-06-21T14:15:38Z</time>
      </trkpt>
      <trkpt lat="47.81517" lon="7.06254">
        <ele>612.02</ele>
        <time>2014-06-21T14:15:40Z</time>
      </trkpt>
      <trkpt lat="47.81516" lon="7.06249">
        <ele>608.65</ele>
        <time>2014-06-21T14:15:43Z</time>
      </trkpt>
      <trkpt lat="47.81515" lon="7.06248">
        <ele>608.17</ele>
        <time>2014-06-21T14:15:44Z</time>
      </trkpt>
      <trkpt lat="47.81514" lon="7.06243">
        <ele>611.54</ele>
        <time>2014-06-21T14:15:47Z</time>
      </trkpt>
      <trkpt lat="47.81514" lon="7.06233">
        <ele>608.17</ele>
        <time>2014-06-21T14:15:52Z</time>
      </trkpt>
      <trkpt lat="47.81514" lon="7.0622">
        <ele>613.94</ele>
        <time>2014-06-21T14:15:58Z</time>
      </trkpt>
      <trkpt lat="47.81513" lon="7.06218">
        <ele>613.46</ele>
        <time>2014-06-21T14:15:59Z</time>
      </trkpt>
      <trkpt lat="47.81512" lon="7.06211">
        <ele>611.54</ele>
        <time>2014-06-21T14:16:02Z</time>
      </trkpt>
      <trkpt lat="47.81509" lon="7.06203">
        <ele>607.21</ele>
        <time>2014-06-21T14:16:05Z</time>
      </trkpt>
      <trkpt lat="47.81505" lon="7.06196">
        <ele>612.5</ele>
        <time>2014-06-21T14:16:08Z</time>
      </trkpt>
      <trkpt lat="47.81504" lon="7.06193">
        <ele>612.98</ele>
        <time>2014-06-21T14:16:09Z</time>
      </trkpt>
      <trkpt lat="47.81503" lon="7.06185">
        <ele>611.06</ele>
        <time>2014-06-21T14:16:13Z</time>
      </trkpt>
      <trkpt lat="47.81504" lon="7.06181">
        <ele>607.21</ele>
        <time>2014-06-21T14:16:15Z</time>
      </trkpt>
      <trkpt lat="47.81503" lon="7.06178">
        <ele>611.06</ele>
        <time>2014-06-21T14:16:17Z</time>
      </trkpt>
      <trkpt lat="47.81503" lon="7.06167">
        <ele>607.69</ele>
        <time>2014-06-21T14:16:22Z</time>
      </trkpt>
      <trkpt lat="47.81504" lon="7.06165">
        <ele>608.17</ele>
        <time>2014-06-21T14:16:23Z</time>
      </trkpt>
      <trkpt lat="47.81503" lon="7.06159">
        <ele>612.98</ele>
        <time>2014-06-21T14:16:26Z</time>
      </trkpt>
      <trkpt lat="47.81502" lon="7.06158">
        <ele>612.98</ele>
        <time>2014-06-21T14:16:27Z</time>
      </trkpt>
      <trkpt lat="47.81499" lon="7.06151">
        <ele>609.13</ele>
        <time>2014-06-21T14:16:31Z</time>
      </trkpt>
      <trkpt lat="47.81496" lon="7.06147">
        <ele>612.98</ele>
        <time>2014-06-21T14:16:36Z</time>
      </trkpt>
      <trkpt lat="47.81495" lon="7.06146">
        <ele>611.54</ele>
        <time>2014-06-21T14:16:39Z</time>
      </trkpt>
      <trkpt lat="47.81493" lon="7.06144">
        <ele>608.65</ele>
        <time>2014-06-21T14:16:41Z</time>
      </trkpt>
      <trkpt lat="47.81491" lon="7.0614">
        <ele>612.98</ele>
        <time>2014-06-21T14:16:44Z</time>
      </trkpt>
      <trkpt lat="47.8149" lon="7.06131">
        <ele>611.06</ele>
        <time>2014-06-21T14:16:48Z</time>
      </trkpt>
      <trkpt lat="47.81489" lon="7.06129">
        <ele>608.65</ele>
        <time>2014-06-21T14:16:49Z</time>
      </trkpt>
      <trkpt lat="47.81489" lon="7.06126">
        <ele>608.65</ele>
        <time>2014-06-21T14:16:50Z</time>
      </trkpt>
      <trkpt lat="47.81486" lon="7.0612">
        <ele>613.94</ele>
        <time>2014-06-21T14:16:54Z</time>
      </trkpt>
      <trkpt lat="47.81486" lon="7.06119">
        <ele>613.46</ele>
        <time>2014-06-21T14:16:55Z</time>
      </trkpt>
      <trkpt lat="47.81486" lon="7.06115">
        <ele>613.46</ele>
        <time>2014-06-21T14:16:57Z</time>
      </trkpt>
      <trkpt lat="47.81486" lon="7.0611">
        <ele>609.13</ele>
        <time>2014-06-21T14:16:59Z</time>
      </trkpt>
      <trkpt lat="47.81484" lon="7.06099">
        <ele>613.94</ele>
        <time>2014-06-21T14:17:04Z</time>
      </trkpt>
      <trkpt lat="47.81484" lon="7.06098">
        <ele>613.46</ele>
        <time>2014-06-21T14:17:05Z</time>
      </trkpt>
      <trkpt lat="47.81485" lon="7.06094">
        <ele>609.61</ele>
        <time>2014-06-21T14:17:09Z</time>
      </trkpt>
      <trkpt lat="47.81484" lon="7.06081">
        <ele>614.42</ele>
        <time>2014-06-21T14:17:15Z</time>
      </trkpt>
      <trkpt lat="47.81481" lon="7.06067">
        <ele>610.09</ele>
        <time>2014-06-21T14:17:19Z</time>
      </trkpt>
      <trkpt lat="47.81479" lon="7.06064">
        <ele>610.09</ele>
        <time>2014-06-21T14:17:20Z</time>
      </trkpt>
      <trkpt lat="47.81474" lon="7.0605">
        <ele>614.42</ele>
        <time>2014-06-21T14:17:25Z</time>
      </trkpt>
      <trkpt lat="47.81473" lon="7.06048">
        <ele>614.9</ele>
        <time>2014-06-21T14:17:26Z</time>
      </trkpt>
      <trkpt lat="47.81472" lon="7.06042">
        <ele>611.54</ele>
        <time>2014-06-21T14:17:28Z</time>
      </trkpt>
      <trkpt lat="47.81471" lon="7.06034">
        <ele>609.61</ele>
        <time>2014-06-21T14:17:31Z</time>
      </trkpt>
      <trkpt lat="47.81469" lon="7.06018">
        <ele>617.3</ele>
        <time>2014-06-21T14:17:37Z</time>
      </trkpt>
      <trkpt lat="47.8147" lon="7.06014">
        <ele>615.86</ele>
        <time>2014-06-21T14:17:38Z</time>
      </trkpt>
      <trkpt lat="47.8147" lon="7.0601">
        <ele>612.02</ele>
        <time>2014-06-21T14:17:39Z</time>
      </trkpt>
      <trkpt lat="47.8147" lon="7.06007">
        <ele>612.02</ele>
        <time>2014-06-21T14:17:40Z</time>
      </trkpt>
      <trkpt lat="47.81471" lon="7.05994">
        <ele>609.61</ele>
        <time>2014-06-21T14:17:45Z</time>
      </trkpt>
      <trkpt lat="47.8147" lon="7.05988">
        <ele>611.06</ele>
        <time>2014-06-21T14:17:48Z</time>
      </trkpt>
      <trkpt lat="47.81469" lon="7.05985">
        <ele>614.9</ele>
        <time>2014-06-21T14:17:50Z</time>
      </trkpt>
      <trkpt lat="47.81469" lon="7.05982">
        <ele>615.86</ele>
        <time>2014-06-21T14:17:52Z</time>
      </trkpt>
      <trkpt lat="47.81469" lon="7.05979">
        <ele>610.57</ele>
        <time>2014-06-21T14:17:55Z</time>
      </trkpt>
      <trkpt lat="47.81468" lon="7.05977">
        <ele>613.46</ele>
        <time>2014-06-21T14:17:56Z</time>
      </trkpt>
      <trkpt lat="47.81468" lon="7.05977">
        <ele>611.54</ele>
        <time>2014-06-21T14:17:59Z</time>
      </trkpt>
      <trkpt lat="47.81468" lon="7.05977">
        <ele>612.5</ele>
        <time>2014-06-21T14:18:01Z</time>
      </trkpt>
      <trkpt lat="47.81466" lon="7.05971">
        <ele>612.5</ele>
        <time>2014-06-21T14:18:22Z</time>
      </trkpt>
      <trkpt lat="47.81464" lon="7.05969">
        <ele>612.02</ele>
        <time>2014-06-21T14:18:40Z</time>
      </trkpt>
      <trkpt lat="47.81464" lon="7.05969">
        <ele>612.02</ele>
        <time>2014-06-21T14:18:51Z</time>
      </trkpt>
      <trkpt lat="47.81465" lon="7.05968">
        <ele>610.57</ele>
        <time>2014-06-21T14:19:08Z</time>
      </trkpt>
      <trkpt lat="47.81465" lon="7.05968">
        <ele>614.9</ele>
        <time>2014-06-21T14:19:09Z</time>
      </trkpt>
      <trkpt lat="47.81465" lon="7.05968">
        <ele>612.98</ele>
        <time>2014-06-21T14:19:10Z</time>
      </trkpt>
      <trkpt lat="47.81465" lon="7.05968">
        <ele>609.61</ele>
        <time>2014-06-21T14:19:25Z</time>
      </trkpt>
      <trkpt lat="47.81465" lon="7.05968">
        <ele>612.98</ele>
        <time>2014-06-21T14:19:27Z</time>
      </trkpt>
      <trkpt lat="47.81465" lon="7.05966">
        <ele>611.06</ele>
        <time>2014-06-21T14:19:37Z</time>
      </trkpt>
      <trkpt lat="47.81466" lon="7.05965">
        <ele>614.42</ele>
        <time>2014-06-21T14:19:58Z</time>
      </trkpt>
      <trkpt lat="47.81465" lon="7.05963">
        <ele>613.46</ele>
        <time>2014-06-21T14:20:04Z</time>
      </trkpt>
      <trkpt lat="47.81463" lon="7.05961">
        <ele>611.54</ele>
        <time>2014-06-21T14:20:10Z</time>
      </trkpt>
      <trkpt lat="47.81457" lon="7.05952">
        <ele>614.9</ele>
        <time>2014-06-21T14:20:26Z</time>
      </trkpt>
      <trkpt lat="47.81457" lon="7.05952">
        <ele>610.09</ele>
        <time>2014-06-21T14:20:27Z</time>
      </trkpt>
      <trkpt lat="47.81457" lon="7.05952">
        <ele>613.94</ele>
        <time>2014-06-21T14:20:32Z</time>
      </trkpt>
      <trkpt lat="47.81457" lon="7.05952">
        <ele>610.57</ele>
        <time>2014-06-21T14:20:50Z</time>
      </trkpt>
      <trkpt lat="47.81457" lon="7.05952">
        <ele>613.94</ele>
        <time>2014-06-21T14:20:51Z</time>
      </trkpt>
      <trkpt lat="47.81457" lon="7.05952">
        <ele>612.02</ele>
        <time>2014-06-21T14:20:54Z</time>
      </trkpt>
      <trkpt lat="47.81457" lon="7.05952">
        <ele>615.38</ele>
        <time>2014-06-21T14:20:55Z</time>
      </trkpt>
      <trkpt lat="47.81457" lon="7.05951">
        <ele>611.54</ele>
        <time>2014-06-21T14:20:58Z</time>
      </trkpt>
      <trkpt lat="47.81455" lon="7.05949">
        <ele>614.9</ele>
        <time>2014-06-21T14:20:59Z</time>
      </trkpt>
      <trkpt lat="47.81454" lon="7.05948">
        <ele>612.98</ele>
        <time>2014-06-21T14:21:02Z</time>
      </trkpt>
      <trkpt lat="47.81452" lon="7.05941">
        <ele>616.82</ele>
        <time>2014-06-21T14:21:08Z</time>
      </trkpt>
      <trkpt lat="47.81452" lon="7.05941">
        <ele>612.98</ele>
        <time>2014-06-21T14:21:11Z</time>
      </trkpt>
      <trkpt lat="47.81449" lon="7.05934">
        <ele>612.02</ele>
        <time>2014-06-21T14:21:15Z</time>
      </trkpt>
      <trkpt lat="47.81449" lon="7.05915">
        <ele>617.78</ele>
        <time>2014-06-21T14:21:24Z</time>
      </trkpt>
      <trkpt lat="47.81449" lon="7.05913">
        <ele>616.34</ele>
        <time>2014-06-21T14:21:25Z</time>
      </trkpt>
      <trkpt lat="47.81448" lon="7.05902">
        <ele>614.42</ele>
        <time>2014-06-21T14:21:31Z</time>
      </trkpt>
      <trkpt lat="47.81447" lon="7.05897">
        <ele>618.75</ele>
        <time>2014-06-21T14:21:34Z</time>
      </trkpt>
      <trkpt lat="47.81446" lon="7.05895">
        <ele>618.26</ele>
        <time>2014-06-21T14:21:35Z</time>
      </trkpt>
      <trkpt lat="47.81446" lon="7.05893">
        <ele>613.94</ele>
        <time>2014-06-21T14:21:36Z</time>
      </trkpt>
      <trkpt lat="47.81446" lon="7.05891">
        <ele>615.86</ele>
        <time>2014-06-21T14:21:37Z</time>
      </trkpt>
      <trkpt lat="47.81444" lon="7.05886">
        <ele>612.5</ele>
        <time>2014-06-21T14:21:41Z</time>
      </trkpt>
      <trkpt lat="47.81443" lon="7.05884">
        <ele>615.38</ele>
        <time>2014-06-21T14:21:42Z</time>
      </trkpt>
      <trkpt lat="47.81441" lon="7.05881">
        <ele>619.23</ele>
        <time>2014-06-21T14:21:44Z</time>
      </trkpt>
      <trkpt lat="47.81437" lon="7.05876">
        <ele>620.67</ele>
        <time>2014-06-21T14:21:46Z</time>
      </trkpt>
      <trkpt lat="47.81433" lon="7.05871">
        <ele>617.3</ele>
        <time>2014-06-21T14:21:48Z</time>
      </trkpt>
      <trkpt lat="47.81427" lon="7.05864">
        <ele>614.42</ele>
        <time>2014-06-21T14:21:52Z</time>
      </trkpt>
      <trkpt lat="47.81424" lon="7.05858">
        <ele>618.26</ele>
        <time>2014-06-21T14:21:56Z</time>
      </trkpt>
      <trkpt lat="47.81423" lon="7.05856">
        <ele>622.11</ele>
        <time>2014-06-21T14:21:57Z</time>
      </trkpt>
      <trkpt lat="47.81422" lon="7.05854">
        <ele>617.3</ele>
        <time>2014-06-21T14:21:58Z</time>
      </trkpt>
      <trkpt lat="47.8142" lon="7.05851">
        <ele>616.82</ele>
        <time>2014-06-21T14:22:00Z</time>
      </trkpt>
      <trkpt lat="47.81419" lon="7.05847">
        <ele>619.71</ele>
        <time>2014-06-21T14:22:02Z</time>
      </trkpt>
      <trkpt lat="47.8141" lon="7.05829">
        <ele>619.71</ele>
        <time>2014-06-21T14:22:13Z</time>
      </trkpt>
      <trkpt lat="47.814" lon="7.05818">
        <ele>623.55</ele>
        <time>2014-06-21T14:22:25Z</time>
      </trkpt>
      <trkpt lat="47.81399" lon="7.05816">
        <ele>622.11</ele>
        <time>2014-06-21T14:22:26Z</time>
      </trkpt>
      <trkpt lat="47.81394" lon="7.0581">
        <ele>621.15</ele>
        <time>2014-06-21T14:22:32Z</time>
      </trkpt>
      <trkpt lat="47.81392" lon="7.05808">
        <ele>623.55</ele>
        <time>2014-06-21T14:22:34Z</time>
      </trkpt>
      <trkpt lat="47.81387" lon="7.05799">
        <ele>621.15</ele>
        <time>2014-06-21T14:22:39Z</time>
      </trkpt>
      <trkpt lat="47.81386" lon="7.05798">
        <ele>624.51</ele>
        <time>2014-06-21T14:22:40Z</time>
      </trkpt>
      <trkpt lat="47.81385" lon="7.05797">
        <ele>622.59</ele>
        <time>2014-06-21T14:22:41Z</time>
      </trkpt>
      <trkpt lat="47.81384" lon="7.05795">
        <ele>621.15</ele>
        <time>2014-06-21T14:22:43Z</time>
      </trkpt>
      <trkpt lat="47.81383" lon="7.05794">
        <ele>627.4</ele>
        <time>2014-06-21T14:22:44Z</time>
      </trkpt>
      <trkpt lat="47.81382" lon="7.05793">
        <ele>624.99</ele>
        <time>2014-06-21T14:22:45Z</time>
      </trkpt>
      <trkpt lat="47.81379" lon="7.0579">
        <ele>621.15</ele>
        <time>2014-06-21T14:22:49Z</time>
      </trkpt>
      <trkpt lat="47.81378" lon="7.05789">
        <ele>625.47</ele>
        <time>2014-06-21T14:22:50Z</time>
      </trkpt>
      <trkpt lat="47.81372" lon="7.05784">
        <ele>630.28</ele>
        <time>2014-06-21T14:22:57Z</time>
      </trkpt>
      <trkpt lat="47.81372" lon="7.05784">
        <ele>624.51</ele>
        <time>2014-06-21T14:22:58Z</time>
      </trkpt>
      <trkpt lat="47.8137" lon="7.05781">
        <ele>630.28</ele>
        <time>2014-06-21T14:23:01Z</time>
      </trkpt>
      <trkpt lat="47.81369" lon="7.0578">
        <ele>628.36</ele>
        <time>2014-06-21T14:23:02Z</time>
      </trkpt>
      <trkpt lat="47.81368" lon="7.05779">
        <ele>624.51</ele>
        <time>2014-06-21T14:23:03Z</time>
      </trkpt>
      <trkpt lat="47.81368" lon="7.05778">
        <ele>630.28</ele>
        <time>2014-06-21T14:23:05Z</time>
      </trkpt>
      <trkpt lat="47.81367" lon="7.05776">
        <ele>629.8</ele>
        <time>2014-06-21T14:23:06Z</time>
      </trkpt>
      <trkpt lat="47.81367" lon="7.05775">
        <ele>624.03</ele>
        <time>2014-06-21T14:23:07Z</time>
      </trkpt>
      <trkpt lat="47.81367" lon="7.05774">
        <ele>627.88</ele>
        <time>2014-06-21T14:23:08Z</time>
      </trkpt>
      <trkpt lat="47.81364" lon="7.05769">
        <ele>629.8</ele>
        <time>2014-06-21T14:23:12Z</time>
      </trkpt>
      <trkpt lat="47.81362" lon="7.05766">
        <ele>628.36</ele>
        <time>2014-06-21T14:23:14Z</time>
      </trkpt>
      <trkpt lat="47.8136" lon="7.05763">
        <ele>628.84</ele>
        <time>2014-06-21T14:23:16Z</time>
      </trkpt>
      <trkpt lat="47.81358" lon="7.05761">
        <ele>624.99</ele>
        <time>2014-06-21T14:23:18Z</time>
      </trkpt>
      <trkpt lat="47.81357" lon="7.05758">
        <ele>630.28</ele>
        <time>2014-06-21T14:23:20Z</time>
      </trkpt>
      <trkpt lat="47.81354" lon="7.05753">
        <ele>635.09</ele>
        <time>2014-06-21T14:23:23Z</time>
      </trkpt>
      <trkpt lat="47.81352" lon="7.05751">
        <ele>627.4</ele>
        <time>2014-06-21T14:23:24Z</time>
      </trkpt>
      <trkpt lat="47.81352" lon="7.05751">
        <ele>632.68</ele>
        <time>2014-06-21T14:23:25Z</time>
      </trkpt>
      <trkpt lat="47.81333" lon="7.05741">
        <ele>636.53</ele>
        <time>2014-06-21T14:23:42Z</time>
      </trkpt>
      <trkpt lat="47.81332" lon="7.0574">
        <ele>630.76</ele>
        <time>2014-06-21T14:23:43Z</time>
      </trkpt>
      <trkpt lat="47.81332" lon="7.0574">
        <ele>635.09</ele>
        <time>2014-06-21T14:23:44Z</time>
      </trkpt>
      <trkpt lat="47.81329" lon="7.05739">
        <ele>639.41</ele>
        <time>2014-06-21T14:23:48Z</time>
      </trkpt>
      <trkpt lat="47.81329" lon="7.05739">
        <ele>633.17</ele>
        <time>2014-06-21T14:23:49Z</time>
      </trkpt>
      <trkpt lat="47.81329" lon="7.05739">
        <ele>638.45</ele>
        <time>2014-06-21T14:23:50Z</time>
      </trkpt>
      <trkpt lat="47.81329" lon="7.05739">
        <ele>632.68</ele>
        <time>2014-06-21T14:23:51Z</time>
      </trkpt>
      <trkpt lat="47.81329" lon="7.05739">
        <ele>637.97</ele>
        <time>2014-06-21T14:23:52Z</time>
      </trkpt>
      <trkpt lat="47.81325" lon="7.0574">
        <ele>634.61</ele>
        <time>2014-06-21T14:23:58Z</time>
      </trkpt>
      <trkpt lat="47.81324" lon="7.0574">
        <ele>637.97</ele>
        <time>2014-06-21T14:23:59Z</time>
      </trkpt>
      <trkpt lat="47.81322" lon="7.05742">
        <ele>640.86</ele>
        <time>2014-06-21T14:24:04Z</time>
      </trkpt>
      <trkpt lat="47.81316" lon="7.05738">
        <ele>633.17</ele>
        <time>2014-06-21T14:24:05Z</time>
      </trkpt>
      <trkpt lat="47.81312" lon="7.05736">
        <ele>637.49</ele>
        <time>2014-06-21T14:24:06Z</time>
      </trkpt>
      <trkpt lat="47.81306" lon="7.05736">
        <ele>643.26</ele>
        <time>2014-06-21T14:24:08Z</time>
      </trkpt>
      <trkpt lat="47.81304" lon="7.05737">
        <ele>635.09</ele>
        <time>2014-06-21T14:24:09Z</time>
      </trkpt>
      <trkpt lat="47.81304" lon="7.05737">
        <ele>639.89</ele>
        <time>2014-06-21T14:24:10Z</time>
      </trkpt>
      <trkpt lat="47.81304" lon="7.05737">
        <ele>644.22</ele>
        <time>2014-06-21T14:24:11Z</time>
      </trkpt>
      <trkpt lat="47.81301" lon="7.05739">
        <ele>639.89</ele>
        <time>2014-06-21T14:24:12Z</time>
      </trkpt>
      <trkpt lat="47.81296" lon="7.0574">
        <ele>645.18</ele>
        <time>2014-06-21T14:24:15Z</time>
      </trkpt>
      <trkpt lat="47.81296" lon="7.0574">
        <ele>637.01</ele>
        <time>2014-06-21T14:24:16Z</time>
      </trkpt>
      <trkpt lat="47.81295" lon="7.05741">
        <ele>643.26</ele>
        <time>2014-06-21T14:24:17Z</time>
      </trkpt>
      <trkpt lat="47.81294" lon="7.05743">
        <ele>638.45</ele>
        <time>2014-06-21T14:24:18Z</time>
      </trkpt>
      <trkpt lat="47.81293" lon="7.05746">
        <ele>642.78</ele>
        <time>2014-06-21T14:24:20Z</time>
      </trkpt>
      <trkpt lat="47.81295" lon="7.05748">
        <ele>638.45</ele>
        <time>2014-06-21T14:24:21Z</time>
      </trkpt>
      <trkpt lat="47.81297" lon="7.05748">
        <ele>645.18</ele>
        <time>2014-06-21T14:24:23Z</time>
      </trkpt>
      <trkpt lat="47.81297" lon="7.05748">
        <ele>642.78</ele>
        <time>2014-06-21T14:24:24Z</time>
      </trkpt>
      <trkpt lat="47.81296" lon="7.05749">
        <ele>648.07</ele>
        <time>2014-06-21T14:24:27Z</time>
      </trkpt>
      <trkpt lat="47.81296" lon="7.05748">
        <ele>641.34</ele>
        <time>2014-06-21T14:24:28Z</time>
      </trkpt>
      <trkpt lat="47.81301" lon="7.05748">
        <ele>645.18</ele>
        <time>2014-06-21T14:24:33Z</time>
      </trkpt>
      <trkpt lat="47.81302" lon="7.05744">
        <ele>641.34</ele>
        <time>2014-06-21T14:24:36Z</time>
      </trkpt>
      <trkpt lat="47.81303" lon="7.05742">
        <ele>646.62</ele>
        <time>2014-06-21T14:24:38Z</time>
      </trkpt>
      <trkpt lat="47.81303" lon="7.05741">
        <ele>642.78</ele>
        <time>2014-06-21T14:24:39Z</time>
      </trkpt>
      <trkpt lat="47.81303" lon="7.05737">
        <ele>646.14</ele>
        <time>2014-06-21T14:24:42Z</time>
      </trkpt>
      <trkpt lat="47.81303" lon="7.05735">
        <ele>641.34</ele>
        <time>2014-06-21T14:24:43Z</time>
      </trkpt>
      <trkpt lat="47.81303" lon="7.05734">
        <ele>643.74</ele>
        <time>2014-06-21T14:24:44Z</time>
      </trkpt>
      <trkpt lat="47.81304" lon="7.05732">
        <ele>649.51</ele>
        <time>2014-06-21T14:24:45Z</time>
      </trkpt>
      <trkpt lat="47.81306" lon="7.05731">
        <ele>645.66</ele>
        <time>2014-06-21T14:24:46Z</time>
      </trkpt>
      <trkpt lat="47.8131" lon="7.05714">
        <ele>648.55</ele>
        <time>2014-06-21T14:25:01Z</time>
      </trkpt>
      <trkpt lat="47.8131" lon="7.05714">
        <ele>645.18</ele>
        <time>2014-06-21T14:25:02Z</time>
      </trkpt>
      <trkpt lat="47.8131" lon="7.05712">
        <ele>645.18</ele>
        <time>2014-06-21T14:25:03Z</time>
      </trkpt>
      <trkpt lat="47.8131" lon="7.05708">
        <ele>647.59</ele>
        <time>2014-06-21T14:25:06Z</time>
      </trkpt>
      <trkpt lat="47.81312" lon="7.05703">
        <ele>651.43</ele>
        <time>2014-06-21T14:25:09Z</time>
      </trkpt>
      <trkpt lat="47.81313" lon="7.05701">
        <ele>647.59</ele>
        <time>2014-06-21T14:25:10Z</time>
      </trkpt>
      <trkpt lat="47.81314" lon="7.05697">
        <ele>647.1</ele>
        <time>2014-06-21T14:25:12Z</time>
      </trkpt>
      <trkpt lat="47.81316" lon="7.05696">
        <ele>649.99</ele>
        <time>2014-06-21T14:25:13Z</time>
      </trkpt>
      <trkpt lat="47.81318" lon="7.05693">
        <ele>646.62</ele>
        <time>2014-06-21T14:25:15Z</time>
      </trkpt>
      <trkpt lat="47.81319" lon="7.05693">
        <ele>651.43</ele>
        <time>2014-06-21T14:25:16Z</time>
      </trkpt>
      <trkpt lat="47.81321" lon="7.0569">
        <ele>649.51</ele>
        <time>2014-06-21T14:25:19Z</time>
      </trkpt>
      <trkpt lat="47.81324" lon="7.05664">
        <ele>649.03</ele>
        <time>2014-06-21T14:25:33Z</time>
      </trkpt>
      <trkpt lat="47.81324" lon="7.0566">
        <ele>652.87</ele>
        <time>2014-06-21T14:25:36Z</time>
      </trkpt>
      <trkpt lat="47.81334" lon="7.05653">
        <ele>653.83</ele>
        <time>2014-06-21T14:25:46Z</time>
      </trkpt>
      <trkpt lat="47.81334" lon="7.05651">
        <ele>656.72</ele>
        <time>2014-06-21T14:25:48Z</time>
      </trkpt>
      <trkpt lat="47.81335" lon="7.0565">
        <ele>651.91</ele>
        <time>2014-06-21T14:25:49Z</time>
      </trkpt>
      <trkpt lat="47.81337" lon="7.05647">
        <ele>655.28</ele>
        <time>2014-06-21T14:25:52Z</time>
      </trkpt>
      <trkpt lat="47.81346" lon="7.05634">
        <ele>652.39</ele>
        <time>2014-06-21T14:26:02Z</time>
      </trkpt>
      <trkpt lat="47.81347" lon="7.05632">
        <ele>658.16</ele>
        <time>2014-06-21T14:26:04Z</time>
      </trkpt>
      <trkpt lat="47.81347" lon="7.05631">
        <ele>656.24</ele>
        <time>2014-06-21T14:26:05Z</time>
      </trkpt>
      <trkpt lat="47.81347" lon="7.05627">
        <ele>657.2</ele>
        <time>2014-06-21T14:26:09Z</time>
      </trkpt>
      <trkpt lat="47.81347" lon="7.05626">
        <ele>653.35</ele>
        <time>2014-06-21T14:26:10Z</time>
      </trkpt>
      <trkpt lat="47.81347" lon="7.05624">
        <ele>655.76</ele>
        <time>2014-06-21T14:26:11Z</time>
      </trkpt>
      <trkpt lat="47.81347" lon="7.05621">
        <ele>660.56</ele>
        <time>2014-06-21T14:26:13Z</time>
      </trkpt>
      <trkpt lat="47.81347" lon="7.05619">
        <ele>655.76</ele>
        <time>2014-06-21T14:26:14Z</time>
      </trkpt>
      <trkpt lat="47.81349" lon="7.05613">
        <ele>659.6</ele>
        <time>2014-06-21T14:26:17Z</time>
      </trkpt>
      <trkpt lat="47.81354" lon="7.05594">
        <ele>657.68</ele>
        <time>2014-06-21T14:26:31Z</time>
      </trkpt>
      <trkpt lat="47.81357" lon="7.05589">
        <ele>662.97</ele>
        <time>2014-06-21T14:26:34Z</time>
      </trkpt>
      <trkpt lat="47.81357" lon="7.05587">
        <ele>662.01</ele>
        <time>2014-06-21T14:26:35Z</time>
      </trkpt>
      <trkpt lat="47.81358" lon="7.05585">
        <ele>656.72</ele>
        <time>2014-06-21T14:26:36Z</time>
      </trkpt>
      <trkpt lat="47.81359" lon="7.05583">
        <ele>659.6</ele>
        <time>2014-06-21T14:26:37Z</time>
      </trkpt>
      <trkpt lat="47.8136" lon="7.0558">
        <ele>662.49</ele>
        <time>2014-06-21T14:26:39Z</time>
      </trkpt>
      <trkpt lat="47.81361" lon="7.05578">
        <ele>662.01</ele>
        <time>2014-06-21T14:26:40Z</time>
      </trkpt>
      <trkpt lat="47.81361" lon="7.05577">
        <ele>656.72</ele>
        <time>2014-06-21T14:26:41Z</time>
      </trkpt>
      <trkpt lat="47.81362" lon="7.05575">
        <ele>657.2</ele>
        <time>2014-06-21T14:26:42Z</time>
      </trkpt>
      <trkpt lat="47.81363" lon="7.05572">
        <ele>664.89</ele>
        <time>2014-06-21T14:26:45Z</time>
      </trkpt>
      <trkpt lat="47.81364" lon="7.0557">
        <ele>659.12</ele>
        <time>2014-06-21T14:26:46Z</time>
      </trkpt>
      <trkpt lat="47.81366" lon="7.05564">
        <ele>666.33</ele>
        <time>2014-06-21T14:26:49Z</time>
      </trkpt>
      <trkpt lat="47.81366" lon="7.05563">
        <ele>661.52</ele>
        <time>2014-06-21T14:26:50Z</time>
      </trkpt>
      <trkpt lat="47.81366" lon="7.05563">
        <ele>658.64</ele>
        <time>2014-06-21T14:26:51Z</time>
      </trkpt>
      <trkpt lat="47.81366" lon="7.05562">
        <ele>663.93</ele>
        <time>2014-06-21T14:26:52Z</time>
      </trkpt>
      <trkpt lat="47.81364" lon="7.05559">
        <ele>664.89</ele>
        <time>2014-06-21T14:26:53Z</time>
      </trkpt>
      <trkpt lat="47.81368" lon="7.05544">
        <ele>667.29</ele>
        <time>2014-06-21T14:26:58Z</time>
      </trkpt>
      <trkpt lat="47.81368" lon="7.05542">
        <ele>661.52</ele>
        <time>2014-06-21T14:26:59Z</time>
      </trkpt>
      <trkpt lat="47.81369" lon="7.05541">
        <ele>667.29</ele>
        <time>2014-06-21T14:27:00Z</time>
      </trkpt>
      <trkpt lat="47.81369" lon="7.05539">
        <ele>663.45</ele>
        <time>2014-06-21T14:27:02Z</time>
      </trkpt>
      <trkpt lat="47.81369" lon="7.05538">
        <ele>664.41</ele>
        <time>2014-06-21T14:27:03Z</time>
      </trkpt>
      <trkpt lat="47.81368" lon="7.05536">
        <ele>668.73</ele>
        <time>2014-06-21T14:27:05Z</time>
      </trkpt>
      <trkpt lat="47.81368" lon="7.05535">
        <ele>662.49</ele>
        <time>2014-06-21T14:27:06Z</time>
      </trkpt>
      <trkpt lat="47.81368" lon="7.05533">
        <ele>667.29</ele>
        <time>2014-06-21T14:27:07Z</time>
      </trkpt>
      <trkpt lat="47.81368" lon="7.0553">
        <ele>663.93</ele>
        <time>2014-06-21T14:27:09Z</time>
      </trkpt>
      <trkpt lat="47.81367" lon="7.05528">
        <ele>667.29</ele>
        <time>2014-06-21T14:27:10Z</time>
      </trkpt>
      <trkpt lat="47.81366" lon="7.05527">
        <ele>667.29</ele>
        <time>2014-06-21T14:27:11Z</time>
      </trkpt>
      <trkpt lat="47.81366" lon="7.05523">
        <ele>663.45</ele>
        <time>2014-06-21T14:27:13Z</time>
      </trkpt>
      <trkpt lat="47.81366" lon="7.05522">
        <ele>666.81</ele>
        <time>2014-06-21T14:27:14Z</time>
      </trkpt>
      <trkpt lat="47.81366" lon="7.0552">
        <ele>672.1</ele>
        <time>2014-06-21T14:27:15Z</time>
      </trkpt>
      <trkpt lat="47.81366" lon="7.0552">
        <ele>666.81</ele>
        <time>2014-06-21T14:27:16Z</time>
      </trkpt>
      <trkpt lat="47.81366" lon="7.05518">
        <ele>672.58</ele>
        <time>2014-06-21T14:27:19Z</time>
      </trkpt>
      <trkpt lat="47.81366" lon="7.05516">
        <ele>669.22</ele>
        <time>2014-06-21T14:27:20Z</time>
      </trkpt>
      <trkpt lat="47.81367" lon="7.05514">
        <ele>673.54</ele>
        <time>2014-06-21T14:27:23Z</time>
      </trkpt>
      <trkpt lat="47.81367" lon="7.05514">
        <ele>669.22</ele>
        <time>2014-06-21T14:27:24Z</time>
      </trkpt>
      <trkpt lat="47.81367" lon="7.0551">
        <ele>673.54</ele>
        <time>2014-06-21T14:27:27Z</time>
      </trkpt>
      <trkpt lat="47.81368" lon="7.05509">
        <ele>666.33</ele>
        <time>2014-06-21T14:27:28Z</time>
      </trkpt>
      <trkpt lat="47.81369" lon="7.05507">
        <ele>671.14</ele>
        <time>2014-06-21T14:27:30Z</time>
      </trkpt>
      <trkpt lat="47.81369" lon="7.05506">
        <ele>667.29</ele>
        <time>2014-06-21T14:27:31Z</time>
      </trkpt>
      <trkpt lat="47.81369" lon="7.05504">
        <ele>671.14</ele>
        <time>2014-06-21T14:27:32Z</time>
      </trkpt>
      <trkpt lat="47.81369" lon="7.05495">
        <ele>674.98</ele>
        <time>2014-06-21T14:27:37Z</time>
      </trkpt>
      <trkpt lat="47.81369" lon="7.05494">
        <ele>674.98</ele>
        <time>2014-06-21T14:27:38Z</time>
      </trkpt>
      <trkpt lat="47.81368" lon="7.05493">
        <ele>667.77</ele>
        <time>2014-06-21T14:27:39Z</time>
      </trkpt>
      <trkpt lat="47.81368" lon="7.05491">
        <ele>672.58</ele>
        <time>2014-06-21T14:27:40Z</time>
      </trkpt>
      <trkpt lat="47.81368" lon="7.0549">
        <ele>677.87</ele>
        <time>2014-06-21T14:27:41Z</time>
      </trkpt>
      <trkpt lat="47.81368" lon="7.05488">
        <ele>674.5</ele>
        <time>2014-06-21T14:27:42Z</time>
      </trkpt>
      <trkpt lat="47.81368" lon="7.05486">
        <ele>675.94</ele>
        <time>2014-06-21T14:27:45Z</time>
      </trkpt>
      <trkpt lat="47.81368" lon="7.05486">
        <ele>672.1</ele>
        <time>2014-06-21T14:27:46Z</time>
      </trkpt>
      <trkpt lat="47.81368" lon="7.05486">
        <ele>674.98</ele>
        <time>2014-06-21T14:27:47Z</time>
      </trkpt>
      <trkpt lat="47.81368" lon="7.05484">
        <ele>671.62</ele>
        <time>2014-06-21T14:27:48Z</time>
      </trkpt>
      <trkpt lat="47.81367" lon="7.05481">
        <ele>677.87</ele>
        <time>2014-06-21T14:27:50Z</time>
      </trkpt>
      <trkpt lat="47.81367" lon="7.0548">
        <ele>672.1</ele>
        <time>2014-06-21T14:27:51Z</time>
      </trkpt>
      <trkpt lat="47.81367" lon="7.05477">
        <ele>677.87</ele>
        <time>2014-06-21T14:27:53Z</time>
      </trkpt>
      <trkpt lat="47.81367" lon="7.05476">
        <ele>674.98</ele>
        <time>2014-06-21T14:27:54Z</time>
      </trkpt>
      <trkpt lat="47.81366" lon="7.05474">
        <ele>678.83</ele>
        <time>2014-06-21T14:27:56Z</time>
      </trkpt>
      <trkpt lat="47.81365" lon="7.05472">
        <ele>675.46</ele>
        <time>2014-06-21T14:27:58Z</time>
      </trkpt>
      <trkpt lat="47.81365" lon="7.05471">
        <ele>681.71</ele>
        <time>2014-06-21T14:28:03Z</time>
      </trkpt>
      <trkpt lat="47.81365" lon="7.05471">
        <ele>678.35</ele>
        <time>2014-06-21T14:28:04Z</time>
      </trkpt>
      <trkpt lat="47.81364" lon="7.05469">
        <ele>683.63</ele>
        <time>2014-06-21T14:28:06Z</time>
      </trkpt>
      <trkpt lat="47.81364" lon="7.05469">
        <ele>677.87</ele>
        <time>2014-06-21T14:28:07Z</time>
      </trkpt>
      <trkpt lat="47.81363" lon="7.05467">
        <ele>681.23</ele>
        <time>2014-06-21T14:28:11Z</time>
      </trkpt>
      <trkpt lat="47.8136" lon="7.05463">
        <ele>687</ele>
        <time>2014-06-21T14:28:15Z</time>
      </trkpt>
      <trkpt lat="47.81359" lon="7.05462">
        <ele>678.83</ele>
        <time>2014-06-21T14:28:16Z</time>
      </trkpt>
      <trkpt lat="47.81356" lon="7.05459">
        <ele>682.19</ele>
        <time>2014-06-21T14:28:18Z</time>
      </trkpt>
      <trkpt lat="47.81355" lon="7.05456">
        <ele>686.52</ele>
        <time>2014-06-21T14:28:22Z</time>
      </trkpt>
      <trkpt lat="47.81355" lon="7.05455">
        <ele>681.71</ele>
        <time>2014-06-21T14:28:23Z</time>
      </trkpt>
      <trkpt lat="47.81351" lon="7.05448">
        <ele>679.79</ele>
        <time>2014-06-21T14:28:29Z</time>
      </trkpt>
      <trkpt lat="47.81348" lon="7.05446">
        <ele>686.52</ele>
        <time>2014-06-21T14:28:31Z</time>
      </trkpt>
      <trkpt lat="47.81347" lon="7.05445">
        <ele>685.08</ele>
        <time>2014-06-21T14:28:32Z</time>
      </trkpt>
      <trkpt lat="47.81346" lon="7.05444">
        <ele>682.19</ele>
        <time>2014-06-21T14:28:33Z</time>
      </trkpt>
      <trkpt lat="47.81344" lon="7.05442">
        <ele>688.92</ele>
        <time>2014-06-21T14:28:35Z</time>
      </trkpt>
      <trkpt lat="47.81342" lon="7.05441">
        <ele>683.15</ele>
        <time>2014-06-21T14:28:36Z</time>
      </trkpt>
      <trkpt lat="47.8134" lon="7.05439">
        <ele>686.52</ele>
        <time>2014-06-21T14:28:38Z</time>
      </trkpt>
      <trkpt lat="47.81338" lon="7.05437">
        <ele>683.15</ele>
        <time>2014-06-21T14:28:40Z</time>
      </trkpt>
      <trkpt lat="47.81336" lon="7.05436">
        <ele>688.44</ele>
        <time>2014-06-21T14:28:41Z</time>
      </trkpt>
      <trkpt lat="47.81334" lon="7.05434">
        <ele>680.75</ele>
        <time>2014-06-21T14:28:43Z</time>
      </trkpt>
      <trkpt lat="47.81333" lon="7.05432">
        <ele>684.12</ele>
        <time>2014-06-21T14:28:44Z</time>
      </trkpt>
      <trkpt lat="47.81329" lon="7.05429">
        <ele>687.48</ele>
        <time>2014-06-21T14:28:49Z</time>
      </trkpt>
      <trkpt lat="47.81325" lon="7.05421">
        <ele>684.12</ele>
        <time>2014-06-21T14:28:56Z</time>
      </trkpt>
      <trkpt lat="47.81325" lon="7.0542">
        <ele>687.48</ele>
        <time>2014-06-21T14:28:57Z</time>
      </trkpt>
      <trkpt lat="47.81325" lon="7.05417">
        <ele>684.12</ele>
        <time>2014-06-21T14:29:00Z</time>
      </trkpt>
      <trkpt lat="47.81324" lon="7.05416">
        <ele>687</ele>
        <time>2014-06-21T14:29:01Z</time>
      </trkpt>
      <trkpt lat="47.81324" lon="7.05415">
        <ele>691.33</ele>
        <time>2014-06-21T14:29:02Z</time>
      </trkpt>
      <trkpt lat="47.81324" lon="7.05414">
        <ele>690.84</ele>
        <time>2014-06-21T14:29:03Z</time>
      </trkpt>
      <trkpt lat="47.81323" lon="7.05413">
        <ele>685.56</ele>
        <time>2014-06-21T14:29:04Z</time>
      </trkpt>
      <trkpt lat="47.81322" lon="7.05412">
        <ele>690.84</ele>
        <time>2014-06-21T14:29:05Z</time>
      </trkpt>
      <trkpt lat="47.81319" lon="7.05407">
        <ele>687</ele>
        <time>2014-06-21T14:29:09Z</time>
      </trkpt>
      <trkpt lat="47.81316" lon="7.05404">
        <ele>691.33</ele>
        <time>2014-06-21T14:29:12Z</time>
      </trkpt>
      <trkpt lat="47.81316" lon="7.05402">
        <ele>687</ele>
        <time>2014-06-21T14:29:13Z</time>
      </trkpt>
      <trkpt lat="47.81313" lon="7.05398">
        <ele>690.36</ele>
        <time>2014-06-21T14:29:16Z</time>
      </trkpt>
      <trkpt lat="47.81305" lon="7.05386">
        <ele>694.69</ele>
        <time>2014-06-21T14:29:23Z</time>
      </trkpt>
      <trkpt lat="47.81305" lon="7.05384">
        <ele>689.4</ele>
        <time>2014-06-21T14:29:24Z</time>
      </trkpt>
      <trkpt lat="47.81302" lon="7.05379">
        <ele>692.77</ele>
        <time>2014-06-21T14:29:28Z</time>
      </trkpt>
      <trkpt lat="47.81301" lon="7.05375">
        <ele>696.61</ele>
        <time>2014-06-21T14:29:32Z</time>
      </trkpt>
      <trkpt lat="47.81301" lon="7.05375">
        <ele>691.33</ele>
        <time>2014-06-21T14:29:33Z</time>
      </trkpt>
      <trkpt lat="47.813" lon="7.05373">
        <ele>687</ele>
        <time>2014-06-21T14:29:34Z</time>
      </trkpt>
      <trkpt lat="47.81299" lon="7.05371">
        <ele>688.92</ele>
        <time>2014-06-21T14:29:35Z</time>
      </trkpt>
      <trkpt lat="47.81299" lon="7.0537">
        <ele>695.17</ele>
        <time>2014-06-21T14:29:36Z</time>
      </trkpt>
      <trkpt lat="47.81298" lon="7.05369">
        <ele>697.09</ele>
        <time>2014-06-21T14:29:37Z</time>
      </trkpt>
      <trkpt lat="47.81297" lon="7.05367">
        <ele>691.33</ele>
        <time>2014-06-21T14:29:39Z</time>
      </trkpt>
      <trkpt lat="47.81297" lon="7.05366">
        <ele>688.92</ele>
        <time>2014-06-21T14:29:40Z</time>
      </trkpt>
      <trkpt lat="47.81296" lon="7.05364">
        <ele>693.73</ele>
        <time>2014-06-21T14:29:41Z</time>
      </trkpt>
      <trkpt lat="47.81296" lon="7.05363">
        <ele>696.61</ele>
        <time>2014-06-21T14:29:42Z</time>
      </trkpt>
      <trkpt lat="47.81294" lon="7.05361">
        <ele>690.36</ele>
        <time>2014-06-21T14:29:44Z</time>
      </trkpt>
      <trkpt lat="47.81294" lon="7.05361">
        <ele>690.84</ele>
        <time>2014-06-21T14:29:45Z</time>
      </trkpt>
      <trkpt lat="47.81293" lon="7.05358">
        <ele>694.69</ele>
        <time>2014-06-21T14:29:47Z</time>
      </trkpt>
      <trkpt lat="47.81293" lon="7.05357">
        <ele>699.02</ele>
        <time>2014-06-21T14:29:48Z</time>
      </trkpt>
      <trkpt lat="47.81292" lon="7.05356">
        <ele>695.17</ele>
        <time>2014-06-21T14:29:49Z</time>
      </trkpt>
      <trkpt lat="47.81292" lon="7.05355">
        <ele>691.81</ele>
        <time>2014-06-21T14:29:50Z</time>
      </trkpt>
      <trkpt lat="47.81292" lon="7.05354">
        <ele>691.81</ele>
        <time>2014-06-21T14:29:51Z</time>
      </trkpt>
      <trkpt lat="47.81291" lon="7.05353">
        <ele>695.65</ele>
        <time>2014-06-21T14:29:52Z</time>
      </trkpt>
      <trkpt lat="47.81291" lon="7.05353">
        <ele>701.9</ele>
        <time>2014-06-21T14:29:53Z</time>
      </trkpt>
      <trkpt lat="47.81291" lon="7.05353">
        <ele>697.09</ele>
        <time>2014-06-21T14:29:54Z</time>
      </trkpt>
      <trkpt lat="47.81291" lon="7.05353">
        <ele>691.33</ele>
        <time>2014-06-21T14:29:55Z</time>
      </trkpt>
      <trkpt lat="47.81291" lon="7.05353">
        <ele>695.65</ele>
        <time>2014-06-21T14:29:56Z</time>
      </trkpt>
      <trkpt lat="47.81291" lon="7.05353">
        <ele>699.5</ele>
        <time>2014-06-21T14:29:57Z</time>
      </trkpt>
      <trkpt lat="47.81291" lon="7.05352">
        <ele>696.61</ele>
        <time>2014-06-21T14:29:58Z</time>
      </trkpt>
      <trkpt lat="47.8129" lon="7.0535">
        <ele>691.81</ele>
        <time>2014-06-21T14:29:59Z</time>
      </trkpt>
      <trkpt lat="47.8129" lon="7.05349">
        <ele>698.05</ele>
        <time>2014-06-21T14:30:00Z</time>
      </trkpt>
      <trkpt lat="47.81289" lon="7.05346">
        <ele>694.69</ele>
        <time>2014-06-21T14:30:04Z</time>
      </trkpt>
      <trkpt lat="47.81289" lon="7.05346">
        <ele>696.13</ele>
        <time>2014-06-21T14:30:07Z</time>
      </trkpt>
      <trkpt lat="47.81287" lon="7.05344">
        <ele>703.82</ele>
        <time>2014-06-21T14:30:10Z</time>
      </trkpt>
      <trkpt lat="47.81287" lon="7.05344">
        <ele>697.57</ele>
        <time>2014-06-21T14:30:11Z</time>
      </trkpt>
      <trkpt lat="47.81285" lon="7.05339">
        <ele>700.94</ele>
        <time>2014-06-21T14:30:14Z</time>
      </trkpt>
      <trkpt lat="47.81285" lon="7.05339">
        <ele>697.09</ele>
        <time>2014-06-21T14:30:15Z</time>
      </trkpt>
      <trkpt lat="47.81285" lon="7.05339">
        <ele>698.05</ele>
        <time>2014-06-21T14:30:16Z</time>
      </trkpt>
      <trkpt lat="47.81285" lon="7.05339">
        <ele>700.94</ele>
        <time>2014-06-21T14:30:18Z</time>
      </trkpt>
      <trkpt lat="47.81285" lon="7.05339">
        <ele>698.05</ele>
        <time>2014-06-21T14:30:19Z</time>
      </trkpt>
      <trkpt lat="47.81285" lon="7.05339">
        <ele>702.38</ele>
        <time>2014-06-21T14:30:20Z</time>
      </trkpt>
      <trkpt lat="47.81285" lon="7.05339">
        <ele>697.09</ele>
        <time>2014-06-21T14:30:21Z</time>
      </trkpt>
      <trkpt lat="47.81285" lon="7.05339">
        <ele>700.94</ele>
        <time>2014-06-21T14:30:23Z</time>
      </trkpt>
      <trkpt lat="47.81284" lon="7.05338">
        <ele>697.57</ele>
        <time>2014-06-21T14:30:24Z</time>
      </trkpt>
      <trkpt lat="47.81283" lon="7.05335">
        <ele>703.34</ele>
        <time>2014-06-21T14:30:26Z</time>
      </trkpt>
      <trkpt lat="47.81283" lon="7.05335">
        <ele>698.05</ele>
        <time>2014-06-21T14:30:28Z</time>
      </trkpt>
      <trkpt lat="47.81283" lon="7.05335">
        <ele>700.46</ele>
        <time>2014-06-21T14:30:29Z</time>
      </trkpt>
      <trkpt lat="47.81282" lon="7.0533">
        <ele>704.3</ele>
        <time>2014-06-21T14:30:31Z</time>
      </trkpt>
      <trkpt lat="47.81281" lon="7.05328">
        <ele>699.5</ele>
        <time>2014-06-21T14:30:32Z</time>
      </trkpt>
      <trkpt lat="47.81281" lon="7.05326">
        <ele>703.34</ele>
        <time>2014-06-21T14:30:33Z</time>
      </trkpt>
      <trkpt lat="47.81279" lon="7.05324">
        <ele>707.19</ele>
        <time>2014-06-21T14:30:34Z</time>
      </trkpt>
      <trkpt lat="47.81279" lon="7.05324">
        <ele>699.02</ele>
        <time>2014-06-21T14:30:35Z</time>
      </trkpt>
      <trkpt lat="47.81279" lon="7.05324">
        <ele>703.82</ele>
        <time>2014-06-21T14:30:36Z</time>
      </trkpt>
      <trkpt lat="47.81279" lon="7.05324">
        <ele>699.98</ele>
        <time>2014-06-21T14:30:37Z</time>
      </trkpt>
      <trkpt lat="47.81279" lon="7.05324">
        <ele>702.86</ele>
        <time>2014-06-21T14:30:38Z</time>
      </trkpt>
      <trkpt lat="47.81279" lon="7.05324">
        <ele>701.42</ele>
        <time>2014-06-21T14:30:41Z</time>
      </trkpt>
      <trkpt lat="47.81279" lon="7.05324">
        <ele>704.78</ele>
        <time>2014-06-21T14:30:42Z</time>
      </trkpt>
      <trkpt lat="47.81276" lon="7.0532">
        <ele>701.42</ele>
        <time>2014-06-21T14:30:44Z</time>
      </trkpt>
      <trkpt lat="47.81276" lon="7.0532">
        <ele>701.9</ele>
        <time>2014-06-21T14:30:45Z</time>
      </trkpt>
      <trkpt lat="47.81275" lon="7.05317">
        <ele>705.26</ele>
        <time>2014-06-21T14:30:46Z</time>
      </trkpt>
      <trkpt lat="47.81267" lon="7.053">
        <ele>706.23</ele>
        <time>2014-06-21T14:30:57Z</time>
      </trkpt>
      <trkpt lat="47.81265" lon="7.05298">
        <ele>701.9</ele>
        <time>2014-06-21T14:30:58Z</time>
      </trkpt>
      <trkpt lat="47.81264" lon="7.05296">
        <ele>706.23</ele>
        <time>2014-06-21T14:30:59Z</time>
      </trkpt>
      <trkpt lat="47.81263" lon="7.05294">
        <ele>709.59</ele>
        <time>2014-06-21T14:31:00Z</time>
      </trkpt>
      <trkpt lat="47.81261" lon="7.05292">
        <ele>705.26</ele>
        <time>2014-06-21T14:31:01Z</time>
      </trkpt>
      <trkpt lat="47.81258" lon="7.05286">
        <ele>712.47</ele>
        <time>2014-06-21T14:31:04Z</time>
      </trkpt>
      <trkpt lat="47.81257" lon="7.05284">
        <ele>706.23</ele>
        <time>2014-06-21T14:31:05Z</time>
      </trkpt>
      <trkpt lat="47.81256" lon="7.05281">
        <ele>712.47</ele>
        <time>2014-06-21T14:31:07Z</time>
      </trkpt>
      <trkpt lat="47.81256" lon="7.0528">
        <ele>706.23</ele>
        <time>2014-06-21T14:31:08Z</time>
      </trkpt>
      <trkpt lat="47.81255" lon="7.05278">
        <ele>706.71</ele>
        <time>2014-06-21T14:31:09Z</time>
      </trkpt>
      <trkpt lat="47.8125" lon="7.05268">
        <ele>711.51</ele>
        <time>2014-06-21T14:31:15Z</time>
      </trkpt>
      <trkpt lat="47.81249" lon="7.05267">
        <ele>711.51</ele>
        <time>2014-06-21T14:31:16Z</time>
      </trkpt>
      <trkpt lat="47.81246" lon="7.05263">
        <ele>707.67</ele>
        <time>2014-06-21T14:31:18Z</time>
      </trkpt>
      <trkpt lat="47.81244" lon="7.0526">
        <ele>711.99</ele>
        <time>2014-06-21T14:31:20Z</time>
      </trkpt>
      <trkpt lat="47.81243" lon="7.05258">
        <ele>708.63</ele>
        <time>2014-06-21T14:31:21Z</time>
      </trkpt>
      <trkpt lat="47.81242" lon="7.05252">
        <ele>712.47</ele>
        <time>2014-06-21T14:31:24Z</time>
      </trkpt>
      <trkpt lat="47.81241" lon="7.0525">
        <ele>708.15</ele>
        <time>2014-06-21T14:31:25Z</time>
      </trkpt>
      <trkpt lat="47.81241" lon="7.05249">
        <ele>709.59</ele>
        <time>2014-06-21T14:31:26Z</time>
      </trkpt>
      <trkpt lat="47.81238" lon="7.05242">
        <ele>713.92</ele>
        <time>2014-06-21T14:31:29Z</time>
      </trkpt>
      <trkpt lat="47.81238" lon="7.0524">
        <ele>714.4</ele>
        <time>2014-06-21T14:31:30Z</time>
      </trkpt>
      <trkpt lat="47.81237" lon="7.05233">
        <ele>713.44</ele>
        <time>2014-06-21T14:31:34Z</time>
      </trkpt>
      <trkpt lat="47.81235" lon="7.05225">
        <ele>708.63</ele>
        <time>2014-06-21T14:31:38Z</time>
      </trkpt>
      <trkpt lat="47.81235" lon="7.05223">
        <ele>713.44</ele>
        <time>2014-06-21T14:31:39Z</time>
      </trkpt>
      <trkpt lat="47.81232" lon="7.05216">
        <ele>715.36</ele>
        <time>2014-06-21T14:31:44Z</time>
      </trkpt>
      <trkpt lat="47.81231" lon="7.05215">
        <ele>711.51</ele>
        <time>2014-06-21T14:31:45Z</time>
      </trkpt>
      <trkpt lat="47.8123" lon="7.05214">
        <ele>718.24</ele>
        <time>2014-06-21T14:31:47Z</time>
      </trkpt>
      <trkpt lat="47.8123" lon="7.05214">
        <ele>715.84</ele>
        <time>2014-06-21T14:31:48Z</time>
      </trkpt>
      <trkpt lat="47.81229" lon="7.05211">
        <ele>713.44</ele>
        <time>2014-06-21T14:31:50Z</time>
      </trkpt>
      <trkpt lat="47.81228" lon="7.05208">
        <ele>717.28</ele>
        <time>2014-06-21T14:31:52Z</time>
      </trkpt>
      <trkpt lat="47.81227" lon="7.05205">
        <ele>713.92</ele>
        <time>2014-06-21T14:31:54Z</time>
      </trkpt>
      <trkpt lat="47.81225" lon="7.05203">
        <ele>717.28</ele>
        <time>2014-06-21T14:31:56Z</time>
      </trkpt>
      <trkpt lat="47.81224" lon="7.05202">
        <ele>716.32</ele>
        <time>2014-06-21T14:31:57Z</time>
      </trkpt>
      <trkpt lat="47.81223" lon="7.05199">
        <ele>714.4</ele>
        <time>2014-06-21T14:31:59Z</time>
      </trkpt>
      <trkpt lat="47.8122" lon="7.05194">
        <ele>717.76</ele>
        <time>2014-06-21T14:32:03Z</time>
      </trkpt>
      <trkpt lat="47.81219" lon="7.05192">
        <ele>713.92</ele>
        <time>2014-06-21T14:32:05Z</time>
      </trkpt>
      <trkpt lat="47.81219" lon="7.05192">
        <ele>716.8</ele>
        <time>2014-06-21T14:32:06Z</time>
      </trkpt>
      <trkpt lat="47.81217" lon="7.05184">
        <ele>717.76</ele>
        <time>2014-06-21T14:32:12Z</time>
      </trkpt>
      <trkpt lat="47.81217" lon="7.05183">
        <ele>721.13</ele>
        <time>2014-06-21T14:32:13Z</time>
      </trkpt>
      <trkpt lat="47.81217" lon="7.05182">
        <ele>715.36</ele>
        <time>2014-06-21T14:32:14Z</time>
      </trkpt>
      <trkpt lat="47.81217" lon="7.05181">
        <ele>717.28</ele>
        <time>2014-06-21T14:32:15Z</time>
      </trkpt>
      <trkpt lat="47.81218" lon="7.0518">
        <ele>719.68</ele>
        <time>2014-06-21T14:32:17Z</time>
      </trkpt>
      <trkpt lat="47.81214" lon="7.05177">
        <ele>717.76</ele>
        <time>2014-06-21T14:32:18Z</time>
      </trkpt>
      <trkpt lat="47.81211" lon="7.05172">
        <ele>719.68</ele>
        <time>2014-06-21T14:32:21Z</time>
      </trkpt>
      <trkpt lat="47.8121" lon="7.05171">
        <ele>722.09</ele>
        <time>2014-06-21T14:32:22Z</time>
      </trkpt>
      <trkpt lat="47.81209" lon="7.05168">
        <ele>715.36</ele>
        <time>2014-06-21T14:32:23Z</time>
      </trkpt>
      <trkpt lat="47.81208" lon="7.05166">
        <ele>719.2</ele>
        <time>2014-06-21T14:32:24Z</time>
      </trkpt>
      <trkpt lat="47.81207" lon="7.05165">
        <ele>719.2</ele>
        <time>2014-06-21T14:32:25Z</time>
      </trkpt>
      <trkpt lat="47.81206" lon="7.05163">
        <ele>723.05</ele>
        <time>2014-06-21T14:32:26Z</time>
      </trkpt>
      <trkpt lat="47.81205" lon="7.05161">
        <ele>715.84</ele>
        <time>2014-06-21T14:32:27Z</time>
      </trkpt>
      <trkpt lat="47.81204" lon="7.05157">
        <ele>722.09</ele>
        <time>2014-06-21T14:32:29Z</time>
      </trkpt>
      <trkpt lat="47.81203" lon="7.05156">
        <ele>724.01</ele>
        <time>2014-06-21T14:32:30Z</time>
      </trkpt>
      <trkpt lat="47.81203" lon="7.05155">
        <ele>724.01</ele>
        <time>2014-06-21T14:32:31Z</time>
      </trkpt>
      <trkpt lat="47.81199" lon="7.05149">
        <ele>723.53</ele>
        <time>2014-06-21T14:32:35Z</time>
      </trkpt>
      <trkpt lat="47.81198" lon="7.05147">
        <ele>716.8</ele>
        <time>2014-06-21T14:32:36Z</time>
      </trkpt>
      <trkpt lat="47.81196" lon="7.05143">
        <ele>723.53</ele>
        <time>2014-06-21T14:32:39Z</time>
      </trkpt>
      <trkpt lat="47.81195" lon="7.05142">
        <ele>723.53</ele>
        <time>2014-06-21T14:32:40Z</time>
      </trkpt>
      <trkpt lat="47.81194" lon="7.05141">
        <ele>725.45</ele>
        <time>2014-06-21T14:32:41Z</time>
      </trkpt>
      <trkpt lat="47.81194" lon="7.05141">
        <ele>719.68</ele>
        <time>2014-06-21T14:32:43Z</time>
      </trkpt>
      <trkpt lat="47.81194" lon="7.05141">
        <ele>723.53</ele>
        <time>2014-06-21T14:32:44Z</time>
      </trkpt>
      <trkpt lat="47.81194" lon="7.0514">
        <ele>719.68</ele>
        <time>2014-06-21T14:32:46Z</time>
      </trkpt>
      <trkpt lat="47.81194" lon="7.0514">
        <ele>721.13</ele>
        <time>2014-06-21T14:32:48Z</time>
      </trkpt>
      <trkpt lat="47.81194" lon="7.0514">
        <ele>724.97</ele>
        <time>2014-06-21T14:32:49Z</time>
      </trkpt>
      <trkpt lat="47.81194" lon="7.0514">
        <ele>720.65</ele>
        <time>2014-06-21T14:32:50Z</time>
      </trkpt>
      <trkpt lat="47.81194" lon="7.05139">
        <ele>722.09</ele>
        <time>2014-06-21T14:32:51Z</time>
      </trkpt>
      <trkpt lat="47.81194" lon="7.05139">
        <ele>724.97</ele>
        <time>2014-06-21T14:32:52Z</time>
      </trkpt>
      <trkpt lat="47.81194" lon="7.05138">
        <ele>725.93</ele>
        <time>2014-06-21T14:32:53Z</time>
      </trkpt>
      <trkpt lat="47.81194" lon="7.05136">
        <ele>719.68</ele>
        <time>2014-06-21T14:32:54Z</time>
      </trkpt>
      <trkpt lat="47.81194" lon="7.05134">
        <ele>724.97</ele>
        <time>2014-06-21T14:32:56Z</time>
      </trkpt>
      <trkpt lat="47.81193" lon="7.05132">
        <ele>723.53</ele>
        <time>2014-06-21T14:32:57Z</time>
      </trkpt>
      <trkpt lat="47.81193" lon="7.05131">
        <ele>721.61</ele>
        <time>2014-06-21T14:32:58Z</time>
      </trkpt>
      <trkpt lat="47.81192" lon="7.05129">
        <ele>725.45</ele>
        <time>2014-06-21T14:32:59Z</time>
      </trkpt>
      <trkpt lat="47.81192" lon="7.05128">
        <ele>725.45</ele>
        <time>2014-06-21T14:33:00Z</time>
      </trkpt>
      <trkpt lat="47.81191" lon="7.05125">
        <ele>726.89</ele>
        <time>2014-06-21T14:33:02Z</time>
      </trkpt>
      <trkpt lat="47.8119" lon="7.05123">
        <ele>721.61</ele>
        <time>2014-06-21T14:33:03Z</time>
      </trkpt>
      <trkpt lat="47.81189" lon="7.05121">
        <ele>721.61</ele>
        <time>2014-06-21T14:33:04Z</time>
      </trkpt>
      <trkpt lat="47.81189" lon="7.05119">
        <ele>720.16</ele>
        <time>2014-06-21T14:33:05Z</time>
      </trkpt>
      <trkpt lat="47.81187" lon="7.05115">
        <ele>725.93</ele>
        <time>2014-06-21T14:33:07Z</time>
      </trkpt>
      <trkpt lat="47.81185" lon="7.05113">
        <ele>723.53</ele>
        <time>2014-06-21T14:33:08Z</time>
      </trkpt>
      <trkpt lat="47.81181" lon="7.05108">
        <ele>728.82</ele>
        <time>2014-06-21T14:33:11Z</time>
      </trkpt>
      <trkpt lat="47.8118" lon="7.05106">
        <ele>728.82</ele>
        <time>2014-06-21T14:33:12Z</time>
      </trkpt>
      <trkpt lat="47.81179" lon="7.05105">
        <ele>724.97</ele>
        <time>2014-06-21T14:33:13Z</time>
      </trkpt>
      <trkpt lat="47.81178" lon="7.05104">
        <ele>728.82</ele>
        <time>2014-06-21T14:33:15Z</time>
      </trkpt>
      <trkpt lat="47.81178" lon="7.05104">
        <ele>728.82</ele>
        <time>2014-06-21T14:33:16Z</time>
      </trkpt>
      <trkpt lat="47.81178" lon="7.05104">
        <ele>719.68</ele>
        <time>2014-06-21T14:33:17Z</time>
      </trkpt>
      <trkpt lat="47.81177" lon="7.05102">
        <ele>723.53</ele>
        <time>2014-06-21T14:33:20Z</time>
      </trkpt>
      <trkpt lat="47.81177" lon="7.05101">
        <ele>726.89</ele>
        <time>2014-06-21T14:33:21Z</time>
      </trkpt>
      <trkpt lat="47.81177" lon="7.051">
        <ele>723.53</ele>
        <time>2014-06-21T14:33:22Z</time>
      </trkpt>
      <trkpt lat="47.81176" lon="7.05099">
        <ele>726.41</ele>
        <time>2014-06-21T14:33:23Z</time>
      </trkpt>
      <trkpt lat="47.81175" lon="7.05097">
        <ele>726.41</ele>
        <time>2014-06-21T14:33:24Z</time>
      </trkpt>
      <trkpt lat="47.81175" lon="7.05096">
        <ele>729.78</ele>
        <time>2014-06-21T14:33:25Z</time>
      </trkpt>
      <trkpt lat="47.81174" lon="7.05095">
        <ele>729.78</ele>
        <time>2014-06-21T14:33:26Z</time>
      </trkpt>
      <trkpt lat="47.81173" lon="7.05092">
        <ele>726.89</ele>
        <time>2014-06-21T14:33:28Z</time>
      </trkpt>
      <trkpt lat="47.81172" lon="7.0509">
        <ele>728.82</ele>
        <time>2014-06-21T14:33:29Z</time>
      </trkpt>
      <trkpt lat="47.81171" lon="7.05088">
        <ele>725.93</ele>
        <time>2014-06-21T14:33:31Z</time>
      </trkpt>
      <trkpt lat="47.8117" lon="7.05087">
        <ele>723.05</ele>
        <time>2014-06-21T14:33:32Z</time>
      </trkpt>
      <trkpt lat="47.8117" lon="7.05086">
        <ele>727.86</ele>
        <time>2014-06-21T14:33:33Z</time>
      </trkpt>
      <trkpt lat="47.81168" lon="7.05082">
        <ele>730.26</ele>
        <time>2014-06-21T14:33:36Z</time>
      </trkpt>
      <trkpt lat="47.81167" lon="7.0508">
        <ele>731.7</ele>
        <time>2014-06-21T14:33:37Z</time>
      </trkpt>
      <trkpt lat="47.81165" lon="7.05079">
        <ele>725.93</ele>
        <time>2014-06-21T14:33:38Z</time>
      </trkpt>
      <trkpt lat="47.81159" lon="7.05073">
        <ele>724.97</ele>
        <time>2014-06-21T14:33:41Z</time>
      </trkpt>
      <trkpt lat="47.81155" lon="7.05068">
        <ele>730.74</ele>
        <time>2014-06-21T14:33:43Z</time>
      </trkpt>
      <trkpt lat="47.81152" lon="7.05065">
        <ele>731.7</ele>
        <time>2014-06-21T14:33:45Z</time>
      </trkpt>
      <trkpt lat="47.81151" lon="7.05063">
        <ele>729.3</ele>
        <time>2014-06-21T14:33:46Z</time>
      </trkpt>
      <trkpt lat="47.81145" lon="7.05057">
        <ele>733.62</ele>
        <time>2014-06-21T14:33:47Z</time>
      </trkpt>
      <trkpt lat="47.81144" lon="7.05055">
        <ele>722.09</ele>
        <time>2014-06-21T14:33:48Z</time>
      </trkpt>
      <trkpt lat="47.81142" lon="7.05054">
        <ele>723.05</ele>
        <time>2014-06-21T14:33:49Z</time>
      </trkpt>
      <trkpt lat="47.8114" lon="7.05053">
        <ele>727.86</ele>
        <time>2014-06-21T14:33:50Z</time>
      </trkpt>
      <trkpt lat="47.81138" lon="7.05052">
        <ele>727.86</ele>
        <time>2014-06-21T14:33:51Z</time>
      </trkpt>
      <trkpt lat="47.81136" lon="7.05052">
        <ele>729.3</ele>
        <time>2014-06-21T14:33:53Z</time>
      </trkpt>
      <trkpt lat="47.81134" lon="7.05051">
        <ele>730.26</ele>
        <time>2014-06-21T14:33:54Z</time>
      </trkpt>
      <trkpt lat="47.81133" lon="7.0505">
        <ele>734.1</ele>
        <time>2014-06-21T14:33:55Z</time>
      </trkpt>
      <trkpt lat="47.81132" lon="7.05048">
        <ele>730.26</ele>
        <time>2014-06-21T14:33:56Z</time>
      </trkpt>
      <trkpt lat="47.81131" lon="7.05047">
        <ele>730.26</ele>
        <time>2014-06-21T14:33:57Z</time>
      </trkpt>
      <trkpt lat="47.8113" lon="7.05046">
        <ele>728.82</ele>
        <time>2014-06-21T14:33:58Z</time>
      </trkpt>
      <trkpt lat="47.81129" lon="7.05044">
        <ele>730.26</ele>
        <time>2014-06-21T14:33:59Z</time>
      </trkpt>
      <trkpt lat="47.81127" lon="7.05043">
        <ele>727.37</ele>
        <time>2014-06-21T14:34:00Z</time>
      </trkpt>
      <trkpt lat="47.81125" lon="7.05041">
        <ele>725.45</ele>
        <time>2014-06-21T14:34:02Z</time>
      </trkpt>
      <trkpt lat="47.81125" lon="7.0504">
        <ele>721.61</ele>
        <time>2014-06-21T14:34:05Z</time>
      </trkpt>
      <trkpt lat="47.81123" lon="7.05038">
        <ele>721.61</ele>
        <time>2014-06-21T14:34:06Z</time>
      </trkpt>
      <trkpt lat="47.81121" lon="7.05036">
        <ele>727.37</ele>
        <time>2014-06-21T14:34:07Z</time>
      </trkpt>
      <trkpt lat="47.8112" lon="7.05033">
        <ele>727.37</ele>
        <time>2014-06-21T14:34:08Z</time>
      </trkpt>
      <trkpt lat="47.81119" lon="7.05032">
        <ele>730.74</ele>
        <time>2014-06-21T14:34:09Z</time>
      </trkpt>
      <trkpt lat="47.81118" lon="7.0503">
        <ele>730.74</ele>
        <time>2014-06-21T14:34:10Z</time>
      </trkpt>
      <trkpt lat="47.81115" lon="7.05028">
        <ele>733.14</ele>
        <time>2014-06-21T14:34:12Z</time>
      </trkpt>
      <trkpt lat="47.81113" lon="7.05026">
        <ele>730.74</ele>
        <time>2014-06-21T14:34:13Z</time>
      </trkpt>
      <trkpt lat="47.81112" lon="7.05025">
        <ele>736.51</ele>
        <time>2014-06-21T14:34:14Z</time>
      </trkpt>
      <trkpt lat="47.8111" lon="7.05022">
        <ele>727.86</ele>
        <time>2014-06-21T14:34:18Z</time>
      </trkpt>
      <trkpt lat="47.8111" lon="7.05022">
        <ele>726.41</ele>
        <time>2014-06-21T14:34:20Z</time>
      </trkpt>
      <trkpt lat="47.8111" lon="7.05022">
        <ele>729.78</ele>
        <time>2014-06-21T14:34:21Z</time>
      </trkpt>
      <trkpt lat="47.8111" lon="7.05022">
        <ele>730.74</ele>
        <time>2014-06-21T14:34:22Z</time>
      </trkpt>
      <trkpt lat="47.8111" lon="7.05022">
        <ele>735.07</ele>
        <time>2014-06-21T14:34:23Z</time>
      </trkpt>
      <trkpt lat="47.8111" lon="7.05022">
        <ele>735.07</ele>
        <time>2014-06-21T14:34:24Z</time>
      </trkpt>
      <trkpt lat="47.8111" lon="7.05022">
        <ele>732.18</ele>
        <time>2014-06-21T14:34:25Z</time>
      </trkpt>
      <trkpt lat="47.81109" lon="7.05021">
        <ele>728.34</ele>
        <time>2014-06-21T14:34:27Z</time>
      </trkpt>
      <trkpt lat="47.81109" lon="7.05021">
        <ele>728.34</ele>
        <time>2014-06-21T14:34:28Z</time>
      </trkpt>
      <trkpt lat="47.81109" lon="7.05021">
        <ele>726.41</ele>
        <time>2014-06-21T14:34:29Z</time>
      </trkpt>
      <trkpt lat="47.81109" lon="7.05021">
        <ele>729.78</ele>
        <time>2014-06-21T14:34:30Z</time>
      </trkpt>
      <trkpt lat="47.81109" lon="7.05021">
        <ele>731.7</ele>
        <time>2014-06-21T14:34:31Z</time>
      </trkpt>
      <trkpt lat="47.81109" lon="7.05021">
        <ele>735.55</ele>
        <time>2014-06-21T14:34:32Z</time>
      </trkpt>
      <trkpt lat="47.81109" lon="7.05021">
        <ele>732.66</ele>
        <time>2014-06-21T14:34:35Z</time>
      </trkpt>
      <trkpt lat="47.81109" lon="7.05021">
        <ele>731.7</ele>
        <time>2014-06-21T14:34:36Z</time>
      </trkpt>
      <trkpt lat="47.81107" lon="7.0502">
        <ele>726.41</ele>
        <time>2014-06-21T14:34:38Z</time>
      </trkpt>
      <trkpt lat="47.81105" lon="7.05018">
        <ele>734.58</ele>
        <time>2014-06-21T14:34:40Z</time>
      </trkpt>
      <trkpt lat="47.81104" lon="7.05016">
        <ele>737.47</ele>
        <time>2014-06-21T14:34:42Z</time>
      </trkpt>
      <trkpt lat="47.81102" lon="7.05014">
        <ele>737.95</ele>
        <time>2014-06-21T14:34:43Z</time>
      </trkpt>
      <trkpt lat="47.811" lon="7.05012">
        <ele>737.95</ele>
        <time>2014-06-21T14:34:44Z</time>
      </trkpt>
      <trkpt lat="47.81099" lon="7.0501">
        <ele>738.43</ele>
        <time>2014-06-21T14:34:45Z</time>
      </trkpt>
      <trkpt lat="47.81099" lon="7.0501">
        <ele>738.43</ele>
        <time>2014-06-21T14:34:46Z</time>
      </trkpt>
      <trkpt lat="47.81097" lon="7.05008">
        <ele>732.66</ele>
        <time>2014-06-21T14:34:47Z</time>
      </trkpt>
      <trkpt lat="47.81094" lon="7.05005">
        <ele>734.1</ele>
        <time>2014-06-21T14:34:48Z</time>
      </trkpt>
      <trkpt lat="47.81092" lon="7.05002">
        <ele>732.18</ele>
        <time>2014-06-21T14:34:49Z</time>
      </trkpt>
      <trkpt lat="47.81087" lon="7.04997">
        <ele>733.14</ele>
        <time>2014-06-21T14:34:51Z</time>
      </trkpt>
      <trkpt lat="47.81085" lon="7.04995">
        <ele>733.14</ele>
        <time>2014-06-21T14:34:52Z</time>
      </trkpt>
      <trkpt lat="47.81083" lon="7.04992">
        <ele>737.47</ele>
        <time>2014-06-21T14:34:53Z</time>
      </trkpt>
      <trkpt lat="47.8108" lon="7.04989">
        <ele>732.18</ele>
        <time>2014-06-21T14:34:55Z</time>
      </trkpt>
      <trkpt lat="47.81077" lon="7.04985">
        <ele>733.62</ele>
        <time>2014-06-21T14:34:57Z</time>
      </trkpt>
      <trkpt lat="47.81074" lon="7.04981">
        <ele>732.18</ele>
        <time>2014-06-21T14:34:59Z</time>
      </trkpt>
      <trkpt lat="47.81069" lon="7.04973">
        <ele>727.86</ele>
        <time>2014-06-21T14:35:03Z</time>
      </trkpt>
      <trkpt lat="47.81067" lon="7.04971">
        <ele>731.22</ele>
        <time>2014-06-21T14:35:04Z</time>
      </trkpt>
      <trkpt lat="47.81065" lon="7.04969">
        <ele>727.86</ele>
        <time>2014-06-21T14:35:05Z</time>
      </trkpt>
      <trkpt lat="47.81061" lon="7.04963">
        <ele>726.41</ele>
        <time>2014-06-21T14:35:08Z</time>
      </trkpt>
      <trkpt lat="47.8106" lon="7.04962">
        <ele>735.55</ele>
        <time>2014-06-21T14:35:09Z</time>
      </trkpt>
      <trkpt lat="47.81058" lon="7.04961">
        <ele>737.95</ele>
        <time>2014-06-21T14:35:10Z</time>
      </trkpt>
      <trkpt lat="47.81057" lon="7.04959">
        <ele>737.47</ele>
        <time>2014-06-21T14:35:11Z</time>
      </trkpt>
      <trkpt lat="47.81056" lon="7.04958">
        <ele>739.39</ele>
        <time>2014-06-21T14:35:12Z</time>
      </trkpt>
      <trkpt lat="47.8105" lon="7.04951">
        <ele>727.37</ele>
        <time>2014-06-21T14:35:17Z</time>
      </trkpt>
      <trkpt lat="47.81048" lon="7.04949">
        <ele>727.37</ele>
        <time>2014-06-21T14:35:18Z</time>
      </trkpt>
      <trkpt lat="47.81047" lon="7.04948">
        <ele>731.7</ele>
        <time>2014-06-21T14:35:19Z</time>
      </trkpt>
      <trkpt lat="47.81035" lon="7.04947">
        <ele>735.07</ele>
        <time>2014-06-21T14:35:23Z</time>
      </trkpt>
      <trkpt lat="47.81019" lon="7.04928">
        <ele>733.62</ele>
        <time>2014-06-21T14:35:36Z</time>
      </trkpt>
      <trkpt lat="47.81018" lon="7.04927">
        <ele>731.7</ele>
        <time>2014-06-21T14:35:38Z</time>
      </trkpt>
      <trkpt lat="47.81017" lon="7.04925">
        <ele>736.03</ele>
        <time>2014-06-21T14:35:39Z</time>
      </trkpt>
      <trkpt lat="47.81017" lon="7.04924">
        <ele>736.03</ele>
        <time>2014-06-21T14:35:40Z</time>
      </trkpt>
      <trkpt lat="47.81016" lon="7.04923">
        <ele>730.74</ele>
        <time>2014-06-21T14:35:41Z</time>
      </trkpt>
      <trkpt lat="47.81014" lon="7.0492">
        <ele>735.55</ele>
        <time>2014-06-21T14:35:43Z</time>
      </trkpt>
      <trkpt lat="47.81014" lon="7.04919">
        <ele>735.55</ele>
        <time>2014-06-21T14:35:44Z</time>
      </trkpt>
      <trkpt lat="47.81013" lon="7.04917">
        <ele>739.39</ele>
        <time>2014-06-21T14:35:45Z</time>
      </trkpt>
      <trkpt lat="47.81011" lon="7.04915">
        <ele>740.35</ele>
        <time>2014-06-21T14:35:48Z</time>
      </trkpt>
      <trkpt lat="47.81018" lon="7.04906">
        <ele>733.14</ele>
        <time>2014-06-21T14:35:59Z</time>
      </trkpt>
      <trkpt lat="47.81026" lon="7.04895">
        <ele>733.62</ele>
        <time>2014-06-21T14:36:12Z</time>
      </trkpt>
      <trkpt lat="47.81027" lon="7.04894">
        <ele>734.58</ele>
        <time>2014-06-21T14:36:13Z</time>
      </trkpt>
      <trkpt lat="47.81027" lon="7.04893">
        <ele>738.91</ele>
        <time>2014-06-21T14:36:14Z</time>
      </trkpt>
      <trkpt lat="47.81027" lon="7.04893">
        <ele>734.1</ele>
        <time>2014-06-21T14:36:15Z</time>
      </trkpt>
      <trkpt lat="47.81027" lon="7.04892">
        <ele>734.1</ele>
        <time>2014-06-21T14:36:16Z</time>
      </trkpt>
      <trkpt lat="47.81026" lon="7.0489">
        <ele>736.03</ele>
        <time>2014-06-21T14:36:21Z</time>
      </trkpt>
      <trkpt lat="47.81025" lon="7.04891">
        <ele>734.1</ele>
        <time>2014-06-21T14:36:23Z</time>
      </trkpt>
      <trkpt lat="47.81025" lon="7.04891">
        <ele>734.1</ele>
        <time>2014-06-21T14:36:25Z</time>
      </trkpt>
      <trkpt lat="47.81025" lon="7.04891">
        <ele>737.47</ele>
        <time>2014-06-21T14:36:26Z</time>
      </trkpt>
      <trkpt lat="47.81025" lon="7.04892">
        <ele>733.62</ele>
        <time>2014-06-21T14:36:28Z</time>
      </trkpt>
      <trkpt lat="47.81026" lon="7.04893">
        <ele>733.14</ele>
        <time>2014-06-21T14:36:29Z</time>
      </trkpt>
      <trkpt lat="47.81027" lon="7.04893">
        <ele>734.1</ele>
        <time>2014-06-21T14:36:31Z</time>
      </trkpt>
      <trkpt lat="47.81028" lon="7.04894">
        <ele>736.03</ele>
        <time>2014-06-21T14:36:33Z</time>
      </trkpt>
      <trkpt lat="47.81031" lon="7.04896">
        <ele>737.95</ele>
        <time>2014-06-21T14:36:36Z</time>
      </trkpt>
      <trkpt lat="47.81033" lon="7.04897">
        <ele>738.43</ele>
        <time>2014-06-21T14:36:38Z</time>
      </trkpt>
      <trkpt lat="47.81034" lon="7.04897">
        <ele>741.79</ele>
        <time>2014-06-21T14:36:39Z</time>
      </trkpt>
      <trkpt lat="47.81036" lon="7.04898">
        <ele>738.91</ele>
        <time>2014-06-21T14:36:42Z</time>
      </trkpt>
      <trkpt lat="47.81038" lon="7.04898">
        <ele>739.39</ele>
        <time>2014-06-21T14:36:44Z</time>
      </trkpt>
      <trkpt lat="47.81039" lon="7.04898">
        <ele>736.03</ele>
        <time>2014-06-21T14:36:45Z</time>
      </trkpt>
      <trkpt lat="47.81041" lon="7.04899">
        <ele>741.31</ele>
        <time>2014-06-21T14:36:48Z</time>
      </trkpt>
      <trkpt lat="47.81043" lon="7.049">
        <ele>742.76</ele>
        <time>2014-06-21T14:36:51Z</time>
      </trkpt>
      <trkpt lat="47.81043" lon="7.049">
        <ele>742.76</ele>
        <time>2014-06-21T14:36:52Z</time>
      </trkpt>
      <trkpt lat="47.81044" lon="7.049">
        <ele>740.83</ele>
        <time>2014-06-21T14:36:53Z</time>
      </trkpt>
      <trkpt lat="47.81044" lon="7.049">
        <ele>737.95</ele>
        <time>2014-06-21T14:36:54Z</time>
      </trkpt>
      <trkpt lat="47.81045" lon="7.049">
        <ele>740.83</ele>
        <time>2014-06-21T14:36:55Z</time>
      </trkpt>
      <trkpt lat="47.81045" lon="7.04901">
        <ele>741.79</ele>
        <time>2014-06-21T14:36:56Z</time>
      </trkpt>
      <trkpt lat="47.81046" lon="7.04901">
        <ele>737.47</ele>
        <time>2014-06-21T14:36:58Z</time>
      </trkpt>
      <trkpt lat="47.81046" lon="7.04901">
        <ele>735.07</ele>
        <time>2014-06-21T14:36:59Z</time>
      </trkpt>
      <trkpt lat="47.81046" lon="7.04901">
        <ele>741.79</ele>
        <time>2014-06-21T14:37:00Z</time>
      </trkpt>
      <trkpt lat="47.81046" lon="7.04901">
        <ele>741.79</ele>
        <time>2014-06-21T14:37:01Z</time>
      </trkpt>
      <trkpt lat="47.81046" lon="7.04901">
        <ele>740.83</ele>
        <time>2014-06-21T14:37:05Z</time>
      </trkpt>
      <trkpt lat="47.81046" lon="7.04901">
        <ele>735.55</ele>
        <time>2014-06-21T14:37:06Z</time>
      </trkpt>
      <trkpt lat="47.81047" lon="7.049">
        <ele>739.39</ele>
        <time>2014-06-21T14:37:08Z</time>
      </trkpt>
      <trkpt lat="47.81047" lon="7.04899">
        <ele>735.55</ele>
        <time>2014-06-21T14:37:09Z</time>
      </trkpt>
      <trkpt lat="47.81047" lon="7.04899">
        <ele>741.79</ele>
        <time>2014-06-21T14:37:10Z</time>
      </trkpt>
      <trkpt lat="47.81047" lon="7.04898">
        <ele>742.76</ele>
        <time>2014-06-21T14:37:11Z</time>
      </trkpt>
      <trkpt lat="47.81047" lon="7.04896">
        <ele>737.47</ele>
        <time>2014-06-21T14:37:14Z</time>
      </trkpt>
      <trkpt lat="47.81047" lon="7.04896">
        <ele>741.79</ele>
        <time>2014-06-21T14:37:15Z</time>
      </trkpt>
      <trkpt lat="47.81041" lon="7.04892">
        <ele>739.39</ele>
        <time>2014-06-21T14:37:17Z</time>
      </trkpt>
      <trkpt lat="47.81032" lon="7.04885">
        <ele>737.95</ele>
        <time>2014-06-21T14:37:19Z</time>
      </trkpt>
      <trkpt lat="47.81028" lon="7.04881">
        <ele>739.39</ele>
        <time>2014-06-21T14:37:20Z</time>
      </trkpt>
      <trkpt lat="47.80981" lon="7.04854">
        <ele>736.03</ele>
        <time>2014-06-21T14:37:22Z</time>
      </trkpt>
      <trkpt lat="47.80946" lon="7.04834">
        <ele>733.62</ele>
        <time>2014-06-21T14:37:28Z</time>
      </trkpt>
      <trkpt lat="47.80943" lon="7.04833">
        <ele>733.62</ele>
        <time>2014-06-21T14:37:30Z</time>
      </trkpt>
      <trkpt lat="47.80942" lon="7.04832">
        <ele>735.07</ele>
        <time>2014-06-21T14:37:31Z</time>
      </trkpt>
      <trkpt lat="47.8094" lon="7.04831">
        <ele>733.14</ele>
        <time>2014-06-21T14:37:32Z</time>
      </trkpt>
      <trkpt lat="47.80936" lon="7.04828">
        <ele>736.03</ele>
        <time>2014-06-21T14:37:34Z</time>
      </trkpt>
      <trkpt lat="47.8093" lon="7.04824">
        <ele>738.91</ele>
        <time>2014-06-21T14:37:36Z</time>
      </trkpt>
      <trkpt lat="47.80928" lon="7.04823">
        <ele>732.66</ele>
        <time>2014-06-21T14:37:37Z</time>
      </trkpt>
      <trkpt lat="47.80926" lon="7.04821">
        <ele>733.14</ele>
        <time>2014-06-21T14:37:38Z</time>
      </trkpt>
      <trkpt lat="47.80923" lon="7.04819">
        <ele>741.79</ele>
        <time>2014-06-21T14:37:39Z</time>
      </trkpt>
      <trkpt lat="47.80919" lon="7.04817">
        <ele>741.79</ele>
        <time>2014-06-21T14:37:40Z</time>
      </trkpt>
      <trkpt lat="47.80916" lon="7.04814">
        <ele>738.43</ele>
        <time>2014-06-21T14:37:41Z</time>
      </trkpt>
      <trkpt lat="47.80912" lon="7.04811">
        <ele>740.35</ele>
        <time>2014-06-21T14:37:43Z</time>
      </trkpt>
      <trkpt lat="47.80907" lon="7.04808">
        <ele>736.99</ele>
        <time>2014-06-21T14:37:44Z</time>
      </trkpt>
      <trkpt lat="47.80902" lon="7.04805">
        <ele>742.28</ele>
        <time>2014-06-21T14:37:45Z</time>
      </trkpt>
      <trkpt lat="47.80899" lon="7.04802">
        <ele>742.28</ele>
        <time>2014-06-21T14:37:46Z</time>
      </trkpt>
      <trkpt lat="47.80895" lon="7.048">
        <ele>744.68</ele>
        <time>2014-06-21T14:37:47Z</time>
      </trkpt>
      <trkpt lat="47.80892" lon="7.04798">
        <ele>737.95</ele>
        <time>2014-06-21T14:37:48Z</time>
      </trkpt>
      <trkpt lat="47.80889" lon="7.04796">
        <ele>734.1</ele>
        <time>2014-06-21T14:37:49Z</time>
      </trkpt>
      <trkpt lat="47.80886" lon="7.04794">
        <ele>737.47</ele>
        <time>2014-06-21T14:37:50Z</time>
      </trkpt>
      <trkpt lat="47.80883" lon="7.04792">
        <ele>739.87</ele>
        <time>2014-06-21T14:37:51Z</time>
      </trkpt>
      <trkpt lat="47.80881" lon="7.0479">
        <ele>733.14</ele>
        <time>2014-06-21T14:37:52Z</time>
      </trkpt>
      <trkpt lat="47.8088" lon="7.04789">
        <ele>733.14</ele>
        <time>2014-06-21T14:37:53Z</time>
      </trkpt>
      <trkpt lat="47.80878" lon="7.04786">
        <ele>739.87</ele>
        <time>2014-06-21T14:37:55Z</time>
      </trkpt>
      <trkpt lat="47.80877" lon="7.04785">
        <ele>739.87</ele>
        <time>2014-06-21T14:37:56Z</time>
      </trkpt>
      <trkpt lat="47.80877" lon="7.04784">
        <ele>738.91</ele>
        <time>2014-06-21T14:37:59Z</time>
      </trkpt>
      <trkpt lat="47.80876" lon="7.04781">
        <ele>736.99</ele>
        <time>2014-06-21T14:38:01Z</time>
      </trkpt>
      <trkpt lat="47.80875" lon="7.04779">
        <ele>732.66</ele>
        <time>2014-06-21T14:38:02Z</time>
      </trkpt>
      <trkpt lat="47.80875" lon="7.04777">
        <ele>737.95</ele>
        <time>2014-06-21T14:38:03Z</time>
      </trkpt>
      <trkpt lat="47.80875" lon="7.04775">
        <ele>741.31</ele>
        <time>2014-06-21T14:38:04Z</time>
      </trkpt>
      <trkpt lat="47.80875" lon="7.04774">
        <ele>743.24</ele>
        <time>2014-06-21T14:38:05Z</time>
      </trkpt>
      <trkpt lat="47.80874" lon="7.04772">
        <ele>739.39</ele>
        <time>2014-06-21T14:38:06Z</time>
      </trkpt>
      <trkpt lat="47.80873" lon="7.0477">
        <ele>737.47</ele>
        <time>2014-06-21T14:38:08Z</time>
      </trkpt>
      <trkpt lat="47.80872" lon="7.04767">
        <ele>734.58</ele>
        <time>2014-06-21T14:38:10Z</time>
      </trkpt>
      <trkpt lat="47.80871" lon="7.04766">
        <ele>741.31</ele>
        <time>2014-06-21T14:38:11Z</time>
      </trkpt>
      <trkpt lat="47.8087" lon="7.04765">
        <ele>743.24</ele>
        <time>2014-06-21T14:38:12Z</time>
      </trkpt>
      <trkpt lat="47.80866" lon="7.0476">
        <ele>739.87</ele>
        <time>2014-06-21T14:38:16Z</time>
      </trkpt>
      <trkpt lat="47.80865" lon="7.04759">
        <ele>737.47</ele>
        <time>2014-06-21T14:38:17Z</time>
      </trkpt>
      <trkpt lat="47.80864" lon="7.04757">
        <ele>745.16</ele>
        <time>2014-06-21T14:38:19Z</time>
      </trkpt>
      <trkpt lat="47.80863" lon="7.04756">
        <ele>739.87</ele>
        <time>2014-06-21T14:38:20Z</time>
      </trkpt>
      <trkpt lat="47.80863" lon="7.04754">
        <ele>744.68</ele>
        <time>2014-06-21T14:38:21Z</time>
      </trkpt>
      <trkpt lat="47.80863" lon="7.04753">
        <ele>749.97</ele>
        <time>2014-06-21T14:38:22Z</time>
      </trkpt>
      <trkpt lat="47.80862" lon="7.04752">
        <ele>749.97</ele>
        <time>2014-06-21T14:38:23Z</time>
      </trkpt>
      <trkpt lat="47.80862" lon="7.0475">
        <ele>740.35</ele>
        <time>2014-06-21T14:38:24Z</time>
      </trkpt>
      <trkpt lat="47.8086" lon="7.04749">
        <ele>741.79</ele>
        <time>2014-06-21T14:38:26Z</time>
      </trkpt>
      <trkpt lat="47.8086" lon="7.04748">
        <ele>745.16</ele>
        <time>2014-06-21T14:38:27Z</time>
      </trkpt>
      <trkpt lat="47.80859" lon="7.04747">
        <ele>740.83</ele>
        <time>2014-06-21T14:38:28Z</time>
      </trkpt>
      <trkpt lat="47.80859" lon="7.04746">
        <ele>739.87</ele>
        <time>2014-06-21T14:38:29Z</time>
      </trkpt>
      <trkpt lat="47.80858" lon="7.04743">
        <ele>740.35</ele>
        <time>2014-06-21T14:38:31Z</time>
      </trkpt>
      <trkpt lat="47.80857" lon="7.04742">
        <ele>743.24</ele>
        <time>2014-06-21T14:38:32Z</time>
      </trkpt>
      <trkpt lat="47.80857" lon="7.0474">
        <ele>749.49</ele>
        <time>2014-06-21T14:38:33Z</time>
      </trkpt>
      <trkpt lat="47.80856" lon="7.04739">
        <ele>749.49</ele>
        <time>2014-06-21T14:38:34Z</time>
      </trkpt>
      <trkpt lat="47.80856" lon="7.04737">
        <ele>739.39</ele>
        <time>2014-06-21T14:38:35Z</time>
      </trkpt>
      <trkpt lat="47.80855" lon="7.04734">
        <ele>747.56</ele>
        <time>2014-06-21T14:38:38Z</time>
      </trkpt>
      <trkpt lat="47.80854" lon="7.04731">
        <ele>745.16</ele>
        <time>2014-06-21T14:38:40Z</time>
      </trkpt>
      <trkpt lat="47.80853" lon="7.0473">
        <ele>747.08</ele>
        <time>2014-06-21T14:38:41Z</time>
      </trkpt>
      <trkpt lat="47.80852" lon="7.04729">
        <ele>741.31</ele>
        <time>2014-06-21T14:38:42Z</time>
      </trkpt>
      <trkpt lat="47.80852" lon="7.04727">
        <ele>743.24</ele>
        <time>2014-06-21T14:38:43Z</time>
      </trkpt>
      <trkpt lat="47.80851" lon="7.04724">
        <ele>746.12</ele>
        <time>2014-06-21T14:38:45Z</time>
      </trkpt>
      <trkpt lat="47.8085" lon="7.04722">
        <ele>744.68</ele>
        <time>2014-06-21T14:38:46Z</time>
      </trkpt>
      <trkpt lat="47.8085" lon="7.04721">
        <ele>744.68</ele>
        <time>2014-06-21T14:38:47Z</time>
      </trkpt>
      <trkpt lat="47.80849" lon="7.04718">
        <ele>742.76</ele>
        <time>2014-06-21T14:38:49Z</time>
      </trkpt>
      <trkpt lat="47.80848" lon="7.04717">
        <ele>740.83</ele>
        <time>2014-06-21T14:38:50Z</time>
      </trkpt>
      <trkpt lat="47.80848" lon="7.04715">
        <ele>746.6</ele>
        <time>2014-06-21T14:38:51Z</time>
      </trkpt>
      <trkpt lat="47.80846" lon="7.04713">
        <ele>750.93</ele>
        <time>2014-06-21T14:38:53Z</time>
      </trkpt>
      <trkpt lat="47.80845" lon="7.04711">
        <ele>742.76</ele>
        <time>2014-06-21T14:38:54Z</time>
      </trkpt>
      <trkpt lat="47.80844" lon="7.04709">
        <ele>742.76</ele>
        <time>2014-06-21T14:38:55Z</time>
      </trkpt>
      <trkpt lat="47.80844" lon="7.04708">
        <ele>748.04</ele>
        <time>2014-06-21T14:38:56Z</time>
      </trkpt>
      <trkpt lat="47.80842" lon="7.04702">
        <ele>745.16</ele>
        <time>2014-06-21T14:38:58Z</time>
      </trkpt>
      <trkpt lat="47.80839" lon="7.04685">
        <ele>748.52</ele>
        <time>2014-06-21T14:39:04Z</time>
      </trkpt>
      <trkpt lat="47.80839" lon="7.04681">
        <ele>745.16</ele>
        <time>2014-06-21T14:39:06Z</time>
      </trkpt>
      <trkpt lat="47.80838" lon="7.04679">
        <ele>746.12</ele>
        <time>2014-06-21T14:39:07Z</time>
      </trkpt>
      <trkpt lat="47.80838" lon="7.04676">
        <ele>743.72</ele>
        <time>2014-06-21T14:39:08Z</time>
      </trkpt>
      <trkpt lat="47.80838" lon="7.04671">
        <ele>749.97</ele>
        <time>2014-06-21T14:39:10Z</time>
      </trkpt>
      <trkpt lat="47.80838" lon="7.04664">
        <ele>746.12</ele>
        <time>2014-06-21T14:39:14Z</time>
      </trkpt>
      <trkpt lat="47.80838" lon="7.04662">
        <ele>742.28</ele>
        <time>2014-06-21T14:39:16Z</time>
      </trkpt>
      <trkpt lat="47.80839" lon="7.0466">
        <ele>743.72</ele>
        <time>2014-06-21T14:39:17Z</time>
      </trkpt>
      <trkpt lat="47.80839" lon="7.04655">
        <ele>748.52</ele>
        <time>2014-06-21T14:39:20Z</time>
      </trkpt>
      <trkpt lat="47.80838" lon="7.04652">
        <ele>748.04</ele>
        <time>2014-06-21T14:39:21Z</time>
      </trkpt>
      <trkpt lat="47.80837" lon="7.0465">
        <ele>743.72</ele>
        <time>2014-06-21T14:39:22Z</time>
      </trkpt>
      <trkpt lat="47.80835" lon="7.04646">
        <ele>751.41</ele>
        <time>2014-06-21T14:39:24Z</time>
      </trkpt>
      <trkpt lat="47.80834" lon="7.04645">
        <ele>748.04</ele>
        <time>2014-06-21T14:39:25Z</time>
      </trkpt>
      <trkpt lat="47.80833" lon="7.04642">
        <ele>743.72</ele>
        <time>2014-06-21T14:39:27Z</time>
      </trkpt>
      <trkpt lat="47.80833" lon="7.0464">
        <ele>743.72</ele>
        <time>2014-06-21T14:39:28Z</time>
      </trkpt>
      <trkpt lat="47.80832" lon="7.04638">
        <ele>746.12</ele>
        <time>2014-06-21T14:39:30Z</time>
      </trkpt>
      <trkpt lat="47.80831" lon="7.04637">
        <ele>749.49</ele>
        <time>2014-06-21T14:39:32Z</time>
      </trkpt>
      <trkpt lat="47.8083" lon="7.04635">
        <ele>753.81</ele>
        <time>2014-06-21T14:39:34Z</time>
      </trkpt>
      <trkpt lat="47.80829" lon="7.04634">
        <ele>749.97</ele>
        <time>2014-06-21T14:39:36Z</time>
      </trkpt>
      <trkpt lat="47.80828" lon="7.04633">
        <ele>750.45</ele>
        <time>2014-06-21T14:39:37Z</time>
      </trkpt>
      <trkpt lat="47.80827" lon="7.0463">
        <ele>747.08</ele>
        <time>2014-06-21T14:39:40Z</time>
      </trkpt>
      <trkpt lat="47.80825" lon="7.04626">
        <ele>744.68</ele>
        <time>2014-06-21T14:39:44Z</time>
      </trkpt>
      <trkpt lat="47.80822" lon="7.04624">
        <ele>750.45</ele>
        <time>2014-06-21T14:39:47Z</time>
      </trkpt>
      <trkpt lat="47.80821" lon="7.04623">
        <ele>748.52</ele>
        <time>2014-06-21T14:39:48Z</time>
      </trkpt>
      <trkpt lat="47.8082" lon="7.04622">
        <ele>753.81</ele>
        <time>2014-06-21T14:39:49Z</time>
      </trkpt>
      <trkpt lat="47.80816" lon="7.04618">
        <ele>749.97</ele>
        <time>2014-06-21T14:39:53Z</time>
      </trkpt>
      <trkpt lat="47.80808" lon="7.04613">
        <ele>750.93</ele>
        <time>2014-06-21T14:39:59Z</time>
      </trkpt>
      <trkpt lat="47.80807" lon="7.04613">
        <ele>756.21</ele>
        <time>2014-06-21T14:40:00Z</time>
      </trkpt>
      <trkpt lat="47.80807" lon="7.04612">
        <ele>755.73</ele>
        <time>2014-06-21T14:40:01Z</time>
      </trkpt>
      <trkpt lat="47.80806" lon="7.04612">
        <ele>751.89</ele>
        <time>2014-06-21T14:40:02Z</time>
      </trkpt>
      <trkpt lat="47.80797" lon="7.04599">
        <ele>753.33</ele>
        <time>2014-06-21T14:40:12Z</time>
      </trkpt>
      <trkpt lat="47.80789" lon="7.04591">
        <ele>756.69</ele>
        <time>2014-06-21T14:40:19Z</time>
      </trkpt>
      <trkpt lat="47.80786" lon="7.04591">
        <ele>756.69</ele>
        <time>2014-06-21T14:40:21Z</time>
      </trkpt>
      <trkpt lat="47.80782" lon="7.04593">
        <ele>755.73</ele>
        <time>2014-06-21T14:40:26Z</time>
      </trkpt>
      <trkpt lat="47.80781" lon="7.04594">
        <ele>751.89</ele>
        <time>2014-06-21T14:40:27Z</time>
      </trkpt>
      <trkpt lat="47.80781" lon="7.04596">
        <ele>756.21</ele>
        <time>2014-06-21T14:40:29Z</time>
      </trkpt>
      <trkpt lat="47.80781" lon="7.04597">
        <ele>751.89</ele>
        <time>2014-06-21T14:40:30Z</time>
      </trkpt>
      <trkpt lat="47.8078" lon="7.04598">
        <ele>751.89</ele>
        <time>2014-06-21T14:40:31Z</time>
      </trkpt>
      <trkpt lat="47.8078" lon="7.04598">
        <ele>754.29</ele>
        <time>2014-06-21T14:40:32Z</time>
      </trkpt>
      <trkpt lat="47.80781" lon="7.04599">
        <ele>753.33</ele>
        <time>2014-06-21T14:40:34Z</time>
      </trkpt>
      <trkpt lat="47.80781" lon="7.04598">
        <ele>755.25</ele>
        <time>2014-06-21T14:40:35Z</time>
      </trkpt>
      <trkpt lat="47.80782" lon="7.04598">
        <ele>753.81</ele>
        <time>2014-06-21T14:40:37Z</time>
      </trkpt>
      <trkpt lat="47.80783" lon="7.04599">
        <ele>756.21</ele>
        <time>2014-06-21T14:40:40Z</time>
      </trkpt>
      <trkpt lat="47.80783" lon="7.04601">
        <ele>755.25</ele>
        <time>2014-06-21T14:40:45Z</time>
      </trkpt>
      <trkpt lat="47.80783" lon="7.04601">
        <ele>758.62</ele>
        <time>2014-06-21T14:40:46Z</time>
      </trkpt>
      <trkpt lat="47.80784" lon="7.04601">
        <ele>754.77</ele>
        <time>2014-06-21T14:40:48Z</time>
      </trkpt>
      <trkpt lat="47.80784" lon="7.04601">
        <ele>754.77</ele>
        <time>2014-06-21T14:40:49Z</time>
      </trkpt>
      <trkpt lat="47.80785" lon="7.046">
        <ele>751.89</ele>
        <time>2014-06-21T14:40:50Z</time>
      </trkpt>
      <trkpt lat="47.80785" lon="7.046">
        <ele>751.41</ele>
        <time>2014-06-21T14:40:51Z</time>
      </trkpt>
      <trkpt lat="47.80786" lon="7.046">
        <ele>751.41</ele>
        <time>2014-06-21T14:40:52Z</time>
      </trkpt>
      <trkpt lat="47.80786" lon="7.046">
        <ele>754.77</ele>
        <time>2014-06-21T14:40:53Z</time>
      </trkpt>
      <trkpt lat="47.80787" lon="7.04599">
        <ele>749.97</ele>
        <time>2014-06-21T14:40:56Z</time>
      </trkpt>
      <trkpt lat="47.80788" lon="7.04598">
        <ele>753.33</ele>
        <time>2014-06-21T14:40:57Z</time>
      </trkpt>
      <trkpt lat="47.80789" lon="7.04597">
        <ele>750.93</ele>
        <time>2014-06-21T14:40:59Z</time>
      </trkpt>
      <trkpt lat="47.80792" lon="7.04595">
        <ele>746.6</ele>
        <time>2014-06-21T14:41:03Z</time>
      </trkpt>
      <trkpt lat="47.80793" lon="7.04595">
        <ele>746.6</ele>
        <time>2014-06-21T14:41:04Z</time>
      </trkpt>
      <trkpt lat="47.80794" lon="7.04594">
        <ele>749.97</ele>
        <time>2014-06-21T14:41:05Z</time>
      </trkpt>
      <trkpt lat="47.80794" lon="7.04594">
        <ele>750.93</ele>
        <time>2014-06-21T14:41:06Z</time>
      </trkpt>
      <trkpt lat="47.80795" lon="7.04594">
        <ele>744.68</ele>
        <time>2014-06-21T14:41:08Z</time>
      </trkpt>
      <trkpt lat="47.80796" lon="7.04593">
        <ele>751.89</ele>
        <time>2014-06-21T14:41:09Z</time>
      </trkpt>
      <trkpt lat="47.80797" lon="7.04593">
        <ele>753.81</ele>
        <time>2014-06-21T14:41:10Z</time>
      </trkpt>
      <trkpt lat="47.80797" lon="7.04592">
        <ele>750.45</ele>
        <time>2014-06-21T14:41:11Z</time>
      </trkpt>
      <trkpt lat="47.80798" lon="7.04591">
        <ele>750.45</ele>
        <time>2014-06-21T14:41:12Z</time>
      </trkpt>
      <trkpt lat="47.80799" lon="7.0459">
        <ele>751.89</ele>
        <time>2014-06-21T14:41:14Z</time>
      </trkpt>
      <trkpt lat="47.80803" lon="7.04587">
        <ele>750.45</ele>
        <time>2014-06-21T14:41:19Z</time>
      </trkpt>
      <trkpt lat="47.80804" lon="7.04586">
        <ele>749.49</ele>
        <time>2014-06-21T14:41:21Z</time>
      </trkpt>
      <trkpt lat="47.80806" lon="7.04585">
        <ele>744.2</ele>
        <time>2014-06-21T14:41:23Z</time>
      </trkpt>
      <trkpt lat="47.80807" lon="7.04585">
        <ele>744.2</ele>
        <time>2014-06-21T14:41:24Z</time>
      </trkpt>
      <trkpt lat="47.80808" lon="7.04584">
        <ele>749</ele>
        <time>2014-06-21T14:41:26Z</time>
      </trkpt>
      <trkpt lat="47.80808" lon="7.04584">
        <ele>749</ele>
        <time>2014-06-21T14:41:27Z</time>
      </trkpt>
      <trkpt lat="47.80809" lon="7.04584">
        <ele>750.93</ele>
        <time>2014-06-21T14:41:28Z</time>
      </trkpt>
      <trkpt lat="47.8081" lon="7.04583">
        <ele>754.77</ele>
        <time>2014-06-21T14:41:31Z</time>
      </trkpt>
      <trkpt lat="47.8081" lon="7.04583">
        <ele>753.33</ele>
        <time>2014-06-21T14:41:32Z</time>
      </trkpt>
      <trkpt lat="47.80811" lon="7.04582">
        <ele>746.12</ele>
        <time>2014-06-21T14:41:33Z</time>
      </trkpt>
      <trkpt lat="47.80812" lon="7.04581">
        <ele>753.33</ele>
        <time>2014-06-21T14:41:34Z</time>
      </trkpt>
      <trkpt lat="47.80813" lon="7.0458">
        <ele>752.37</ele>
        <time>2014-06-21T14:41:36Z</time>
      </trkpt>
      <trkpt lat="47.80786" lon="7.04538">
        <ele>747.56</ele>
        <time>2014-06-21T14:41:40Z</time>
      </trkpt>
      <trkpt lat="47.80775" lon="7.04527">
        <ele>749</ele>
        <time>2014-06-21T14:41:44Z</time>
      </trkpt>
      <trkpt lat="47.80772" lon="7.04522">
        <ele>751.41</ele>
        <time>2014-06-21T14:41:47Z</time>
      </trkpt>
      <trkpt lat="47.8077" lon="7.04519">
        <ele>755.25</ele>
        <time>2014-06-21T14:41:49Z</time>
      </trkpt>
      <trkpt lat="47.80769" lon="7.04518">
        <ele>755.25</ele>
        <time>2014-06-21T14:41:50Z</time>
      </trkpt>
      <trkpt lat="47.80767" lon="7.04517">
        <ele>750.93</ele>
        <time>2014-06-21T14:41:52Z</time>
      </trkpt>
      <trkpt lat="47.80766" lon="7.04516">
        <ele>751.41</ele>
        <time>2014-06-21T14:41:53Z</time>
      </trkpt>
      <trkpt lat="47.80763" lon="7.04512">
        <ele>753.81</ele>
        <time>2014-06-21T14:41:58Z</time>
      </trkpt>
      <trkpt lat="47.80763" lon="7.04511">
        <ele>750.45</ele>
        <time>2014-06-21T14:42:00Z</time>
      </trkpt>
      <trkpt lat="47.8076" lon="7.04503">
        <ele>747.08</ele>
        <time>2014-06-21T14:42:10Z</time>
      </trkpt>
      <trkpt lat="47.80759" lon="7.04502">
        <ele>748.04</ele>
        <time>2014-06-21T14:42:11Z</time>
      </trkpt>
      <trkpt lat="47.80757" lon="7.04498">
        <ele>750.93</ele>
        <time>2014-06-21T14:42:15Z</time>
      </trkpt>
      <trkpt lat="47.80757" lon="7.04497">
        <ele>754.29</ele>
        <time>2014-06-21T14:42:16Z</time>
      </trkpt>
      <trkpt lat="47.80756" lon="7.04495">
        <ele>755.25</ele>
        <time>2014-06-21T14:42:18Z</time>
      </trkpt>
      <trkpt lat="47.80752" lon="7.04489">
        <ele>751.89</ele>
        <time>2014-06-21T14:42:22Z</time>
      </trkpt>
      <trkpt lat="47.80751" lon="7.04486">
        <ele>749.49</ele>
        <time>2014-06-21T14:42:24Z</time>
      </trkpt>
      <trkpt lat="47.8075" lon="7.0448">
        <ele>751.41</ele>
        <time>2014-06-21T14:42:28Z</time>
      </trkpt>
      <trkpt lat="47.80747" lon="7.04474">
        <ele>748.04</ele>
        <time>2014-06-21T14:42:32Z</time>
      </trkpt>
      <trkpt lat="47.80746" lon="7.04473">
        <ele>748.52</ele>
        <time>2014-06-21T14:42:33Z</time>
      </trkpt>
      <trkpt lat="47.80744" lon="7.0447">
        <ele>753.81</ele>
        <time>2014-06-21T14:42:36Z</time>
      </trkpt>
      <trkpt lat="47.80742" lon="7.04469">
        <ele>749.49</ele>
        <time>2014-06-21T14:42:38Z</time>
      </trkpt>
      <trkpt lat="47.80741" lon="7.04468">
        <ele>749.49</ele>
        <time>2014-06-21T14:42:39Z</time>
      </trkpt>
      <trkpt lat="47.8074" lon="7.04466">
        <ele>753.81</ele>
        <time>2014-06-21T14:42:41Z</time>
      </trkpt>
      <trkpt lat="47.80738" lon="7.04465">
        <ele>749.97</ele>
        <time>2014-06-21T14:42:42Z</time>
      </trkpt>
      <trkpt lat="47.80732" lon="7.04455">
        <ele>754.77</ele>
        <time>2014-06-21T14:42:48Z</time>
      </trkpt>
      <trkpt lat="47.80731" lon="7.04454">
        <ele>754.29</ele>
        <time>2014-06-21T14:42:49Z</time>
      </trkpt>
      <trkpt lat="47.80729" lon="7.0445">
        <ele>749.97</ele>
        <time>2014-06-21T14:42:52Z</time>
      </trkpt>
      <trkpt lat="47.80727" lon="7.04448">
        <ele>751.89</ele>
        <time>2014-06-21T14:42:53Z</time>
      </trkpt>
      <trkpt lat="47.80722" lon="7.04442">
        <ele>748.04</ele>
        <time>2014-06-21T14:42:58Z</time>
      </trkpt>
      <trkpt lat="47.8072" lon="7.04438">
        <ele>752.37</ele>
        <time>2014-06-21T14:43:00Z</time>
      </trkpt>
      <trkpt lat="47.80718" lon="7.04436">
        <ele>751.89</ele>
        <time>2014-06-21T14:43:01Z</time>
      </trkpt>
      <trkpt lat="47.807" lon="7.0441">
        <ele>755.25</ele>
        <time>2014-06-21T14:43:15Z</time>
      </trkpt>
      <trkpt lat="47.80694" lon="7.04401">
        <ele>759.1</ele>
        <time>2014-06-21T14:43:23Z</time>
      </trkpt>
      <trkpt lat="47.80693" lon="7.04396">
        <ele>755.25</ele>
        <time>2014-06-21T14:43:26Z</time>
      </trkpt>
      <trkpt lat="47.80693" lon="7.04395">
        <ele>751.89</ele>
        <time>2014-06-21T14:43:27Z</time>
      </trkpt>
      <trkpt lat="47.8069" lon="7.04389">
        <ele>752.85</ele>
        <time>2014-06-21T14:43:31Z</time>
      </trkpt>
      <trkpt lat="47.80683" lon="7.04374">
        <ele>745.64</ele>
        <time>2014-06-21T14:43:40Z</time>
      </trkpt>
      <trkpt lat="47.80683" lon="7.04373">
        <ele>757.18</ele>
        <time>2014-06-21T14:43:41Z</time>
      </trkpt>
      <trkpt lat="47.80682" lon="7.04371">
        <ele>749</ele>
        <time>2014-06-21T14:43:43Z</time>
      </trkpt>
      <trkpt lat="47.80682" lon="7.0437">
        <ele>753.33</ele>
        <time>2014-06-21T14:43:44Z</time>
      </trkpt>
      <trkpt lat="47.80682" lon="7.0437">
        <ele>758.62</ele>
        <time>2014-06-21T14:43:45Z</time>
      </trkpt>
      <trkpt lat="47.80681" lon="7.04369">
        <ele>751.41</ele>
        <time>2014-06-21T14:43:47Z</time>
      </trkpt>
      <trkpt lat="47.80681" lon="7.04369">
        <ele>748.04</ele>
        <time>2014-06-21T14:43:48Z</time>
      </trkpt>
      <trkpt lat="47.80681" lon="7.04369">
        <ele>752.85</ele>
        <time>2014-06-21T14:43:49Z</time>
      </trkpt>
      <trkpt lat="47.80681" lon="7.04367">
        <ele>758.14</ele>
        <time>2014-06-21T14:43:50Z</time>
      </trkpt>
      <trkpt lat="47.80681" lon="7.04365">
        <ele>752.85</ele>
        <time>2014-06-21T14:43:51Z</time>
      </trkpt>
      <trkpt lat="47.80681" lon="7.04362">
        <ele>748.04</ele>
        <time>2014-06-21T14:43:52Z</time>
      </trkpt>
      <trkpt lat="47.8068" lon="7.0436">
        <ele>744.2</ele>
        <time>2014-06-21T14:43:53Z</time>
      </trkpt>
      <trkpt lat="47.8068" lon="7.04358">
        <ele>746.12</ele>
        <time>2014-06-21T14:43:54Z</time>
      </trkpt>
      <trkpt lat="47.80679" lon="7.04355">
        <ele>751.89</ele>
        <time>2014-06-21T14:43:55Z</time>
      </trkpt>
      <trkpt lat="47.80677" lon="7.04352">
        <ele>755.73</ele>
        <time>2014-06-21T14:43:56Z</time>
      </trkpt>
      <trkpt lat="47.80673" lon="7.04343">
        <ele>749.49</ele>
        <time>2014-06-21T14:43:59Z</time>
      </trkpt>
      <trkpt lat="47.80672" lon="7.04339">
        <ele>745.16</ele>
        <time>2014-06-21T14:44:01Z</time>
      </trkpt>
      <trkpt lat="47.80671" lon="7.04337">
        <ele>741.31</ele>
        <time>2014-06-21T14:44:02Z</time>
      </trkpt>
      <trkpt lat="47.8067" lon="7.04335">
        <ele>741.79</ele>
        <time>2014-06-21T14:44:03Z</time>
      </trkpt>
      <trkpt lat="47.8067" lon="7.04334">
        <ele>749</ele>
        <time>2014-06-21T14:44:04Z</time>
      </trkpt>
      <trkpt lat="47.80669" lon="7.04332">
        <ele>752.37</ele>
        <time>2014-06-21T14:44:05Z</time>
      </trkpt>
      <trkpt lat="47.80667" lon="7.04326">
        <ele>742.76</ele>
        <time>2014-06-21T14:44:09Z</time>
      </trkpt>
      <trkpt lat="47.80673" lon="7.04313">
        <ele>747.08</ele>
        <time>2014-06-21T14:44:14Z</time>
      </trkpt>
      <trkpt lat="47.80672" lon="7.04308">
        <ele>750.45</ele>
        <time>2014-06-21T14:44:16Z</time>
      </trkpt>
      <trkpt lat="47.80668" lon="7.043">
        <ele>741.79</ele>
        <time>2014-06-21T14:44:20Z</time>
      </trkpt>
      <trkpt lat="47.80667" lon="7.04289">
        <ele>745.16</ele>
        <time>2014-06-21T14:44:24Z</time>
      </trkpt>
      <trkpt lat="47.80667" lon="7.04286">
        <ele>748.52</ele>
        <time>2014-06-21T14:44:25Z</time>
      </trkpt>
      <trkpt lat="47.80667" lon="7.04282">
        <ele>747.08</ele>
        <time>2014-06-21T14:44:26Z</time>
      </trkpt>
      <trkpt lat="47.80666" lon="7.04279">
        <ele>743.72</ele>
        <time>2014-06-21T14:44:27Z</time>
      </trkpt>
      <trkpt lat="47.80665" lon="7.04259">
        <ele>747.56</ele>
        <time>2014-06-21T14:44:36Z</time>
      </trkpt>
      <trkpt lat="47.80664" lon="7.04257">
        <ele>747.56</ele>
        <time>2014-06-21T14:44:37Z</time>
      </trkpt>
      <trkpt lat="47.80663" lon="7.04249">
        <ele>744.2</ele>
        <time>2014-06-21T14:44:42Z</time>
      </trkpt>
      <trkpt lat="47.80664" lon="7.04247">
        <ele>747.56</ele>
        <time>2014-06-21T14:44:43Z</time>
      </trkpt>
      <trkpt lat="47.80666" lon="7.04246">
        <ele>749</ele>
        <time>2014-06-21T14:44:45Z</time>
      </trkpt>
      <trkpt lat="47.80667" lon="7.04245">
        <ele>748.04</ele>
        <time>2014-06-21T14:44:46Z</time>
      </trkpt>
      <trkpt lat="47.80669" lon="7.04244">
        <ele>746.6</ele>
        <time>2014-06-21T14:44:48Z</time>
      </trkpt>
      <trkpt lat="47.80674" lon="7.04243">
        <ele>749</ele>
        <time>2014-06-21T14:44:52Z</time>
      </trkpt>
      <trkpt lat="47.80678" lon="7.04242">
        <ele>750.45</ele>
        <time>2014-06-21T14:44:55Z</time>
      </trkpt>
      <trkpt lat="47.80679" lon="7.04241">
        <ele>747.08</ele>
        <time>2014-06-21T14:44:56Z</time>
      </trkpt>
      <trkpt lat="47.8068" lon="7.04239">
        <ele>748.04</ele>
        <time>2014-06-21T14:44:57Z</time>
      </trkpt>
      <trkpt lat="47.80683" lon="7.04235">
        <ele>750.45</ele>
        <time>2014-06-21T14:45:01Z</time>
      </trkpt>
      <trkpt lat="47.80689" lon="7.04229">
        <ele>745.16</ele>
        <time>2014-06-21T14:45:06Z</time>
      </trkpt>
      <trkpt lat="47.80689" lon="7.04229">
        <ele>746.12</ele>
        <time>2014-06-21T14:45:07Z</time>
      </trkpt>
      <trkpt lat="47.8069" lon="7.04228">
        <ele>749</ele>
        <time>2014-06-21T14:45:09Z</time>
      </trkpt>
      <trkpt lat="47.80692" lon="7.04229">
        <ele>752.37</ele>
        <time>2014-06-21T14:45:12Z</time>
      </trkpt>
      <trkpt lat="47.80695" lon="7.04228">
        <ele>749.49</ele>
        <time>2014-06-21T14:45:16Z</time>
      </trkpt>
      <trkpt lat="47.80696" lon="7.04227">
        <ele>750.45</ele>
        <time>2014-06-21T14:45:17Z</time>
      </trkpt>
      <trkpt lat="47.80698" lon="7.04225">
        <ele>752.37</ele>
        <time>2014-06-21T14:45:19Z</time>
      </trkpt>
      <trkpt lat="47.807" lon="7.04223">
        <ele>749.49</ele>
        <time>2014-06-21T14:45:21Z</time>
      </trkpt>
      <trkpt lat="47.80702" lon="7.04218">
        <ele>753.81</ele>
        <time>2014-06-21T14:45:25Z</time>
      </trkpt>
      <trkpt lat="47.80703" lon="7.04216">
        <ele>758.14</ele>
        <time>2014-06-21T14:45:27Z</time>
      </trkpt>
      <trkpt lat="47.80704" lon="7.04213">
        <ele>752.85</ele>
        <time>2014-06-21T14:45:29Z</time>
      </trkpt>
      <trkpt lat="47.80705" lon="7.04212">
        <ele>749</ele>
        <time>2014-06-21T14:45:30Z</time>
      </trkpt>
      <trkpt lat="47.80706" lon="7.04208">
        <ele>753.33</ele>
        <time>2014-06-21T14:45:33Z</time>
      </trkpt>
      <trkpt lat="47.80707" lon="7.04208">
        <ele>756.69</ele>
        <time>2014-06-21T14:45:34Z</time>
      </trkpt>
      <trkpt lat="47.80707" lon="7.04207">
        <ele>751.41</ele>
        <time>2014-06-21T14:45:35Z</time>
      </trkpt>
      <trkpt lat="47.80708" lon="7.04204">
        <ele>755.73</ele>
        <time>2014-06-21T14:45:38Z</time>
      </trkpt>
      <trkpt lat="47.80711" lon="7.04198">
        <ele>749</ele>
        <time>2014-06-21T14:45:42Z</time>
      </trkpt>
      <trkpt lat="47.80712" lon="7.04197">
        <ele>752.37</ele>
        <time>2014-06-21T14:45:43Z</time>
      </trkpt>
      <trkpt lat="47.80713" lon="7.04195">
        <ele>755.25</ele>
        <time>2014-06-21T14:45:44Z</time>
      </trkpt>
      <trkpt lat="47.80713" lon="7.04194">
        <ele>758.62</ele>
        <time>2014-06-21T14:45:45Z</time>
      </trkpt>
      <trkpt lat="47.80717" lon="7.04188">
        <ele>754.77</ele>
        <time>2014-06-21T14:45:49Z</time>
      </trkpt>
      <trkpt lat="47.80718" lon="7.04186">
        <ele>759.1</ele>
        <time>2014-06-21T14:45:50Z</time>
      </trkpt>
      <trkpt lat="47.80719" lon="7.04183">
        <ele>762.46</ele>
        <time>2014-06-21T14:45:52Z</time>
      </trkpt>
      <trkpt lat="47.8072" lon="7.0418">
        <ele>754.29</ele>
        <time>2014-06-21T14:45:54Z</time>
      </trkpt>
      <trkpt lat="47.80721" lon="7.0418">
        <ele>758.14</ele>
        <time>2014-06-21T14:45:55Z</time>
      </trkpt>
      <trkpt lat="47.80722" lon="7.04179">
        <ele>761.98</ele>
        <time>2014-06-21T14:45:56Z</time>
      </trkpt>
      <trkpt lat="47.80722" lon="7.04178">
        <ele>761.02</ele>
        <time>2014-06-21T14:45:57Z</time>
      </trkpt>
      <trkpt lat="47.80724" lon="7.04176">
        <ele>759.1</ele>
        <time>2014-06-21T14:45:59Z</time>
      </trkpt>
      <trkpt lat="47.80726" lon="7.04172">
        <ele>761.98</ele>
        <time>2014-06-21T14:46:02Z</time>
      </trkpt>
      <trkpt lat="47.80731" lon="7.04166">
        <ele>757.18</ele>
        <time>2014-06-21T14:46:07Z</time>
      </trkpt>
      <trkpt lat="47.80731" lon="7.04165">
        <ele>760.54</ele>
        <time>2014-06-21T14:46:08Z</time>
      </trkpt>
      <trkpt lat="47.80734" lon="7.04159">
        <ele>756.21</ele>
        <time>2014-06-21T14:46:13Z</time>
      </trkpt>
      <trkpt lat="47.80735" lon="7.04156">
        <ele>760.06</ele>
        <time>2014-06-21T14:46:15Z</time>
      </trkpt>
      <trkpt lat="47.80736" lon="7.04155">
        <ele>765.35</ele>
        <time>2014-06-21T14:46:16Z</time>
      </trkpt>
      <trkpt lat="47.80737" lon="7.04154">
        <ele>761.5</ele>
        <time>2014-06-21T14:46:17Z</time>
      </trkpt>
      <trkpt lat="47.80739" lon="7.04151">
        <ele>758.14</ele>
        <time>2014-06-21T14:46:20Z</time>
      </trkpt>
      <trkpt lat="47.80741" lon="7.04148">
        <ele>763.42</ele>
        <time>2014-06-21T14:46:23Z</time>
      </trkpt>
      <trkpt lat="47.80743" lon="7.04145">
        <ele>762.94</ele>
        <time>2014-06-21T14:46:25Z</time>
      </trkpt>
      <trkpt lat="47.80745" lon="7.04141">
        <ele>764.87</ele>
        <time>2014-06-21T14:46:28Z</time>
      </trkpt>
      <trkpt lat="47.80749" lon="7.04133">
        <ele>761.5</ele>
        <time>2014-06-21T14:46:34Z</time>
      </trkpt>
      <trkpt lat="47.8075" lon="7.04131">
        <ele>761.02</ele>
        <time>2014-06-21T14:46:35Z</time>
      </trkpt>
      <trkpt lat="47.80751" lon="7.04126">
        <ele>767.27</ele>
        <time>2014-06-21T14:46:39Z</time>
      </trkpt>
      <trkpt lat="47.80754" lon="7.04121">
        <ele>772.08</ele>
        <time>2014-06-21T14:46:42Z</time>
      </trkpt>
      <trkpt lat="47.80755" lon="7.04119">
        <ele>765.83</ele>
        <time>2014-06-21T14:46:43Z</time>
      </trkpt>
      <trkpt lat="47.80755" lon="7.04117">
        <ele>761.5</ele>
        <time>2014-06-21T14:46:44Z</time>
      </trkpt>
      <trkpt lat="47.80756" lon="7.04115">
        <ele>765.83</ele>
        <time>2014-06-21T14:46:45Z</time>
      </trkpt>
      <trkpt lat="47.80759" lon="7.04111">
        <ele>765.83</ele>
        <time>2014-06-21T14:46:48Z</time>
      </trkpt>
      <trkpt lat="47.80762" lon="7.04107">
        <ele>768.23</ele>
        <time>2014-06-21T14:46:52Z</time>
      </trkpt>
      <trkpt lat="47.80762" lon="7.04105">
        <ele>770.15</ele>
        <time>2014-06-21T14:46:53Z</time>
      </trkpt>
      <trkpt lat="47.80765" lon="7.041">
        <ele>761.02</ele>
        <time>2014-06-21T14:46:56Z</time>
      </trkpt>
      <trkpt lat="47.80765" lon="7.04098">
        <ele>763.42</ele>
        <time>2014-06-21T14:46:57Z</time>
      </trkpt>
      <trkpt lat="47.80767" lon="7.04095">
        <ele>767.27</ele>
        <time>2014-06-21T14:46:59Z</time>
      </trkpt>
      <trkpt lat="47.80768" lon="7.04094">
        <ele>771.11</ele>
        <time>2014-06-21T14:47:00Z</time>
      </trkpt>
      <trkpt lat="47.80769" lon="7.04092">
        <ele>774.96</ele>
        <time>2014-06-21T14:47:01Z</time>
      </trkpt>
      <trkpt lat="47.80769" lon="7.04091">
        <ele>769.19</ele>
        <time>2014-06-21T14:47:02Z</time>
      </trkpt>
      <trkpt lat="47.80769" lon="7.04089">
        <ele>761.5</ele>
        <time>2014-06-21T14:47:03Z</time>
      </trkpt>
      <trkpt lat="47.8077" lon="7.04088">
        <ele>765.35</ele>
        <time>2014-06-21T14:47:04Z</time>
      </trkpt>
      <trkpt lat="47.8077" lon="7.04086">
        <ele>768.71</ele>
        <time>2014-06-21T14:47:05Z</time>
      </trkpt>
      <trkpt lat="47.8077" lon="7.04083">
        <ele>774</ele>
        <time>2014-06-21T14:47:07Z</time>
      </trkpt>
      <trkpt lat="47.80771" lon="7.04082">
        <ele>769.19</ele>
        <time>2014-06-21T14:47:08Z</time>
      </trkpt>
      <trkpt lat="47.80771" lon="7.0408">
        <ele>763.9</ele>
        <time>2014-06-21T14:47:09Z</time>
      </trkpt>
      <trkpt lat="47.80772" lon="7.04079">
        <ele>767.27</ele>
        <time>2014-06-21T14:47:10Z</time>
      </trkpt>
      <trkpt lat="47.80773" lon="7.04077">
        <ele>770.63</ele>
        <time>2014-06-21T14:47:12Z</time>
      </trkpt>
      <trkpt lat="47.80773" lon="7.04076">
        <ele>774.48</ele>
        <time>2014-06-21T14:47:13Z</time>
      </trkpt>
      <trkpt lat="47.80774" lon="7.04075">
        <ele>772.08</ele>
        <time>2014-06-21T14:47:14Z</time>
      </trkpt>
      <trkpt lat="47.80776" lon="7.04071">
        <ele>770.15</ele>
        <time>2014-06-21T14:47:16Z</time>
      </trkpt>
      <trkpt lat="47.80777" lon="7.04069">
        <ele>765.83</ele>
        <time>2014-06-21T14:47:17Z</time>
      </trkpt>
      <trkpt lat="47.80778" lon="7.04068">
        <ele>769.67</ele>
        <time>2014-06-21T14:47:18Z</time>
      </trkpt>
      <trkpt lat="47.8078" lon="7.04067">
        <ele>771.11</ele>
        <time>2014-06-21T14:47:22Z</time>
      </trkpt>
      <trkpt lat="47.80787" lon="7.0406">
        <ele>775.92</ele>
        <time>2014-06-21T14:47:28Z</time>
      </trkpt>
      <trkpt lat="47.80788" lon="7.04059">
        <ele>773.04</ele>
        <time>2014-06-21T14:47:29Z</time>
      </trkpt>
      <trkpt lat="47.8079" lon="7.04057">
        <ele>766.31</ele>
        <time>2014-06-21T14:47:31Z</time>
      </trkpt>
      <trkpt lat="47.80791" lon="7.04056">
        <ele>768.23</ele>
        <time>2014-06-21T14:47:32Z</time>
      </trkpt>
      <trkpt lat="47.80792" lon="7.04054">
        <ele>770.15</ele>
        <time>2014-06-21T14:47:34Z</time>
      </trkpt>
      <trkpt lat="47.80793" lon="7.04052">
        <ele>775.44</ele>
        <time>2014-06-21T14:47:35Z</time>
      </trkpt>
      <trkpt lat="47.80794" lon="7.04051">
        <ele>771.11</ele>
        <time>2014-06-21T14:47:37Z</time>
      </trkpt>
      <trkpt lat="47.80795" lon="7.04051">
        <ele>769.67</ele>
        <time>2014-06-21T14:47:39Z</time>
      </trkpt>
      <trkpt lat="47.80797" lon="7.04049">
        <ele>771.6</ele>
        <time>2014-06-21T14:47:41Z</time>
      </trkpt>
      <trkpt lat="47.80798" lon="7.04048">
        <ele>774.96</ele>
        <time>2014-06-21T14:47:42Z</time>
      </trkpt>
      <trkpt lat="47.80799" lon="7.04048">
        <ele>774.48</ele>
        <time>2014-06-21T14:47:43Z</time>
      </trkpt>
      <trkpt lat="47.80802" lon="7.04047">
        <ele>779.77</ele>
        <time>2014-06-21T14:47:45Z</time>
      </trkpt>
      <trkpt lat="47.80803" lon="7.04047">
        <ele>774.48</ele>
        <time>2014-06-21T14:47:46Z</time>
      </trkpt>
      <trkpt lat="47.80806" lon="7.04046">
        <ele>773.04</ele>
        <time>2014-06-21T14:47:48Z</time>
      </trkpt>
      <trkpt lat="47.80808" lon="7.04045">
        <ele>776.88</ele>
        <time>2014-06-21T14:47:50Z</time>
      </trkpt>
      <trkpt lat="47.80809" lon="7.04044">
        <ele>780.73</ele>
        <time>2014-06-21T14:47:51Z</time>
      </trkpt>
      <trkpt lat="47.8081" lon="7.04043">
        <ele>774.48</ele>
        <time>2014-06-21T14:47:52Z</time>
      </trkpt>
      <trkpt lat="47.80811" lon="7.04041">
        <ele>777.36</ele>
        <time>2014-06-21T14:47:54Z</time>
      </trkpt>
      <trkpt lat="47.80813" lon="7.04041">
        <ele>777.36</ele>
        <time>2014-06-21T14:47:55Z</time>
      </trkpt>
      <trkpt lat="47.80816" lon="7.0404">
        <ele>779.29</ele>
        <time>2014-06-21T14:47:57Z</time>
      </trkpt>
      <trkpt lat="47.80819" lon="7.04038">
        <ele>773.52</ele>
        <time>2014-06-21T14:48:00Z</time>
      </trkpt>
      <trkpt lat="47.80821" lon="7.04034">
        <ele>778.81</ele>
        <time>2014-06-21T14:48:03Z</time>
      </trkpt>
      <trkpt lat="47.80825" lon="7.04031">
        <ele>773.04</ele>
        <time>2014-06-21T14:48:07Z</time>
      </trkpt>
      <trkpt lat="47.80828" lon="7.04028">
        <ele>777.36</ele>
        <time>2014-06-21T14:48:10Z</time>
      </trkpt>
      <trkpt lat="47.8083" lon="7.04026">
        <ele>780.25</ele>
        <time>2014-06-21T14:48:12Z</time>
      </trkpt>
      <trkpt lat="47.80833" lon="7.04024">
        <ele>773.04</ele>
        <time>2014-06-21T14:48:14Z</time>
      </trkpt>
      <trkpt lat="47.80834" lon="7.04023">
        <ele>774.96</ele>
        <time>2014-06-21T14:48:15Z</time>
      </trkpt>
      <trkpt lat="47.80838" lon="7.04019">
        <ele>778.81</ele>
        <time>2014-06-21T14:48:18Z</time>
      </trkpt>
      <trkpt lat="47.80839" lon="7.04013">
        <ele>773.52</ele>
        <time>2014-06-21T14:48:21Z</time>
      </trkpt>
      <trkpt lat="47.8084" lon="7.04012">
        <ele>774.48</ele>
        <time>2014-06-21T14:48:22Z</time>
      </trkpt>
      <trkpt lat="47.80841" lon="7.04009">
        <ele>776.4</ele>
        <time>2014-06-21T14:48:24Z</time>
      </trkpt>
      <trkpt lat="47.80842" lon="7.04006">
        <ele>781.21</ele>
        <time>2014-06-21T14:48:25Z</time>
      </trkpt>
      <trkpt lat="47.80842" lon="7.04002">
        <ele>776.88</ele>
        <time>2014-06-21T14:48:27Z</time>
      </trkpt>
      <trkpt lat="47.80843" lon="7.03999">
        <ele>780.73</ele>
        <time>2014-06-21T14:48:29Z</time>
      </trkpt>
      <trkpt lat="47.80844" lon="7.03997">
        <ele>778.32</ele>
        <time>2014-06-21T14:48:30Z</time>
      </trkpt>
      <trkpt lat="47.80844" lon="7.03996">
        <ele>781.69</ele>
        <time>2014-06-21T14:48:31Z</time>
      </trkpt>
      <trkpt lat="47.80846" lon="7.03991">
        <ele>779.29</ele>
        <time>2014-06-21T14:48:33Z</time>
      </trkpt>
      <trkpt lat="47.80846" lon="7.03986">
        <ele>782.17</ele>
        <time>2014-06-21T14:48:35Z</time>
      </trkpt>
      <trkpt lat="47.80848" lon="7.03977">
        <ele>786.02</ele>
        <time>2014-06-21T14:48:40Z</time>
      </trkpt>
      <trkpt lat="47.80848" lon="7.03976">
        <ele>780.25</ele>
        <time>2014-06-21T14:48:41Z</time>
      </trkpt>
      <trkpt lat="47.80849" lon="7.03975">
        <ele>781.21</ele>
        <time>2014-06-21T14:48:42Z</time>
      </trkpt>
      <trkpt lat="47.80849" lon="7.03973">
        <ele>782.65</ele>
        <time>2014-06-21T14:48:43Z</time>
      </trkpt>
      <trkpt lat="47.8085" lon="7.03958">
        <ele>779.77</ele>
        <time>2014-06-21T14:48:50Z</time>
      </trkpt>
      <trkpt lat="47.8085" lon="7.03953">
        <ele>784.57</ele>
        <time>2014-06-21T14:48:53Z</time>
      </trkpt>
      <trkpt lat="47.8085" lon="7.03951">
        <ele>789.86</ele>
        <time>2014-06-21T14:48:54Z</time>
      </trkpt>
      <trkpt lat="47.8085" lon="7.03949">
        <ele>786.98</ele>
        <time>2014-06-21T14:48:55Z</time>
      </trkpt>
      <trkpt lat="47.8085" lon="7.03948">
        <ele>780.25</ele>
        <time>2014-06-21T14:48:56Z</time>
      </trkpt>
      <trkpt lat="47.80851" lon="7.03941">
        <ele>783.61</ele>
        <time>2014-06-21T14:48:59Z</time>
      </trkpt>
      <trkpt lat="47.80851" lon="7.03939">
        <ele>787.46</ele>
        <time>2014-06-21T14:49:00Z</time>
      </trkpt>
      <trkpt lat="47.80853" lon="7.03933">
        <ele>781.69</ele>
        <time>2014-06-21T14:49:03Z</time>
      </trkpt>
      <trkpt lat="47.80856" lon="7.03922">
        <ele>785.53</ele>
        <time>2014-06-21T14:49:08Z</time>
      </trkpt>
      <trkpt lat="47.80855" lon="7.03914">
        <ele>782.17</ele>
        <time>2014-06-21T14:49:12Z</time>
      </trkpt>
      <trkpt lat="47.80856" lon="7.03913">
        <ele>785.53</ele>
        <time>2014-06-21T14:49:13Z</time>
      </trkpt>
      <trkpt lat="47.80854" lon="7.03906">
        <ele>789.86</ele>
        <time>2014-06-21T14:49:18Z</time>
      </trkpt>
      <trkpt lat="47.80854" lon="7.03903">
        <ele>786.02</ele>
        <time>2014-06-21T14:49:21Z</time>
      </trkpt>
      <trkpt lat="47.80855" lon="7.03901">
        <ele>789.38</ele>
        <time>2014-06-21T14:49:23Z</time>
      </trkpt>
      <trkpt lat="47.80857" lon="7.03894">
        <ele>783.61</ele>
        <time>2014-06-21T14:49:27Z</time>
      </trkpt>
      <trkpt lat="47.80858" lon="7.03892">
        <ele>790.34</ele>
        <time>2014-06-21T14:49:28Z</time>
      </trkpt>
      <trkpt lat="47.8086" lon="7.03886">
        <ele>785.05</ele>
        <time>2014-06-21T14:49:32Z</time>
      </trkpt>
      <trkpt lat="47.8086" lon="7.03884">
        <ele>786.98</ele>
        <time>2014-06-21T14:49:33Z</time>
      </trkpt>
      <trkpt lat="47.8086" lon="7.03882">
        <ele>792.26</ele>
        <time>2014-06-21T14:49:34Z</time>
      </trkpt>
      <trkpt lat="47.8086" lon="7.03881">
        <ele>788.9</ele>
        <time>2014-06-21T14:49:37Z</time>
      </trkpt>
      <trkpt lat="47.80861" lon="7.0388">
        <ele>786.02</ele>
        <time>2014-06-21T14:49:38Z</time>
      </trkpt>
      <trkpt lat="47.80861" lon="7.03878">
        <ele>792.26</ele>
        <time>2014-06-21T14:49:39Z</time>
      </trkpt>
      <trkpt lat="47.80862" lon="7.03873">
        <ele>790.82</ele>
        <time>2014-06-21T14:49:43Z</time>
      </trkpt>
      <trkpt lat="47.80864" lon="7.03866">
        <ele>794.67</ele>
        <time>2014-06-21T14:49:51Z</time>
      </trkpt>
      <trkpt lat="47.80865" lon="7.03864">
        <ele>793.22</ele>
        <time>2014-06-21T14:49:52Z</time>
      </trkpt>
      <trkpt lat="47.80865" lon="7.03862">
        <ele>789.86</ele>
        <time>2014-06-21T14:49:53Z</time>
      </trkpt>
      <trkpt lat="47.80865" lon="7.03862">
        <ele>793.71</ele>
        <time>2014-06-21T14:49:54Z</time>
      </trkpt>
      <trkpt lat="47.80865" lon="7.03862">
        <ele>790.34</ele>
        <time>2014-06-21T14:49:55Z</time>
      </trkpt>
      <trkpt lat="47.80867" lon="7.03856">
        <ele>796.59</ele>
        <time>2014-06-21T14:49:59Z</time>
      </trkpt>
      <trkpt lat="47.80868" lon="7.03853">
        <ele>788.9</ele>
        <time>2014-06-21T14:50:01Z</time>
      </trkpt>
      <trkpt lat="47.80869" lon="7.03852">
        <ele>790.34</ele>
        <time>2014-06-21T14:50:02Z</time>
      </trkpt>
      <trkpt lat="47.80869" lon="7.0385">
        <ele>794.67</ele>
        <time>2014-06-21T14:50:03Z</time>
      </trkpt>
      <trkpt lat="47.80869" lon="7.03848">
        <ele>794.19</ele>
        <time>2014-06-21T14:50:04Z</time>
      </trkpt>
      <trkpt lat="47.80869" lon="7.03848">
        <ele>789.86</ele>
        <time>2014-06-21T14:50:05Z</time>
      </trkpt>
      <trkpt lat="47.80869" lon="7.03848">
        <ele>791.3</ele>
        <time>2014-06-21T14:50:06Z</time>
      </trkpt>
      <trkpt lat="47.8087" lon="7.03847">
        <ele>796.59</ele>
        <time>2014-06-21T14:50:07Z</time>
      </trkpt>
      <trkpt lat="47.8087" lon="7.03845">
        <ele>795.15</ele>
        <time>2014-06-21T14:50:08Z</time>
      </trkpt>
      <trkpt lat="47.80871" lon="7.03842">
        <ele>791.3</ele>
        <time>2014-06-21T14:50:10Z</time>
      </trkpt>
      <trkpt lat="47.80871" lon="7.0384">
        <ele>791.3</ele>
        <time>2014-06-21T14:50:11Z</time>
      </trkpt>
      <trkpt lat="47.80871" lon="7.0384">
        <ele>795.15</ele>
        <time>2014-06-21T14:50:12Z</time>
      </trkpt>
      <trkpt lat="47.80871" lon="7.0384">
        <ele>794.67</ele>
        <time>2014-06-21T14:50:13Z</time>
      </trkpt>
      <trkpt lat="47.80872" lon="7.03838">
        <ele>791.3</ele>
        <time>2014-06-21T14:50:16Z</time>
      </trkpt>
      <trkpt lat="47.80873" lon="7.03835">
        <ele>792.26</ele>
        <time>2014-06-21T14:50:17Z</time>
      </trkpt>
      <trkpt lat="47.80875" lon="7.03832">
        <ele>795.63</ele>
        <time>2014-06-21T14:50:19Z</time>
      </trkpt>
      <trkpt lat="47.80876" lon="7.0383">
        <ele>794.67</ele>
        <time>2014-06-21T14:50:20Z</time>
      </trkpt>
      <trkpt lat="47.80879" lon="7.03825">
        <ele>798.03</ele>
        <time>2014-06-21T14:50:25Z</time>
      </trkpt>
      <trkpt lat="47.80881" lon="7.03822">
        <ele>794.67</ele>
        <time>2014-06-21T14:50:27Z</time>
      </trkpt>
      <trkpt lat="47.80882" lon="7.03819">
        <ele>799.95</ele>
        <time>2014-06-21T14:50:29Z</time>
      </trkpt>
      <trkpt lat="47.80883" lon="7.03817">
        <ele>796.11</ele>
        <time>2014-06-21T14:50:30Z</time>
      </trkpt>
      <trkpt lat="47.80884" lon="7.03815">
        <ele>792.74</ele>
        <time>2014-06-21T14:50:31Z</time>
      </trkpt>
      <trkpt lat="47.80885" lon="7.0381">
        <ele>791.3</ele>
        <time>2014-06-21T14:50:34Z</time>
      </trkpt>
      <trkpt lat="47.80886" lon="7.03808">
        <ele>795.63</ele>
        <time>2014-06-21T14:50:35Z</time>
      </trkpt>
      <trkpt lat="47.80887" lon="7.03807">
        <ele>793.71</ele>
        <time>2014-06-21T14:50:36Z</time>
      </trkpt>
      <trkpt lat="47.80888" lon="7.03804">
        <ele>800.92</ele>
        <time>2014-06-21T14:50:38Z</time>
      </trkpt>
      <trkpt lat="47.80888" lon="7.03803">
        <ele>800.44</ele>
        <time>2014-06-21T14:50:39Z</time>
      </trkpt>
      <trkpt lat="47.80889" lon="7.03802">
        <ele>796.11</ele>
        <time>2014-06-21T14:50:40Z</time>
      </trkpt>
      <trkpt lat="47.80891" lon="7.03801">
        <ele>798.03</ele>
        <time>2014-06-21T14:50:41Z</time>
      </trkpt>
      <trkpt lat="47.80891" lon="7.03799">
        <ele>793.71</ele>
        <time>2014-06-21T14:50:45Z</time>
      </trkpt>
      <trkpt lat="47.8089" lon="7.03795">
        <ele>800.92</ele>
        <time>2014-06-21T14:50:47Z</time>
      </trkpt>
      <trkpt lat="47.8089" lon="7.0379">
        <ele>795.15</ele>
        <time>2014-06-21T14:50:49Z</time>
      </trkpt>
      <trkpt lat="47.8089" lon="7.03788">
        <ele>798.03</ele>
        <time>2014-06-21T14:50:50Z</time>
      </trkpt>
      <trkpt lat="47.80893" lon="7.03784">
        <ele>801.4</ele>
        <time>2014-06-21T14:50:52Z</time>
      </trkpt>
      <trkpt lat="47.80893" lon="7.03782">
        <ele>800.44</ele>
        <time>2014-06-21T14:50:53Z</time>
      </trkpt>
      <trkpt lat="47.80896" lon="7.03778">
        <ele>797.07</ele>
        <time>2014-06-21T14:50:56Z</time>
      </trkpt>
      <trkpt lat="47.80896" lon="7.03777">
        <ele>797.55</ele>
        <time>2014-06-21T14:50:57Z</time>
      </trkpt>
      <trkpt lat="47.80897" lon="7.03775">
        <ele>799.47</ele>
        <time>2014-06-21T14:50:59Z</time>
      </trkpt>
      <trkpt lat="47.80904" lon="7.03771">
        <ele>802.84</ele>
        <time>2014-06-21T14:51:05Z</time>
      </trkpt>
      <trkpt lat="47.80907" lon="7.03769">
        <ele>798.03</ele>
        <time>2014-06-21T14:51:08Z</time>
      </trkpt>
      <trkpt lat="47.80909" lon="7.03768">
        <ele>794.67</ele>
        <time>2014-06-21T14:51:09Z</time>
      </trkpt>
      <trkpt lat="47.8091" lon="7.03768">
        <ele>797.07</ele>
        <time>2014-06-21T14:51:10Z</time>
      </trkpt>
      <trkpt lat="47.80912" lon="7.03767">
        <ele>798.51</ele>
        <time>2014-06-21T14:51:11Z</time>
      </trkpt>
      <trkpt lat="47.80917" lon="7.03765">
        <ele>802.84</ele>
        <time>2014-06-21T14:51:15Z</time>
      </trkpt>
      <trkpt lat="47.80921" lon="7.03762">
        <ele>802.84</ele>
        <time>2014-06-21T14:51:19Z</time>
      </trkpt>
      <trkpt lat="47.80922" lon="7.03759">
        <ele>799.95</ele>
        <time>2014-06-21T14:51:23Z</time>
      </trkpt>
      <trkpt lat="47.80922" lon="7.03759">
        <ele>803.32</ele>
        <time>2014-06-21T14:51:24Z</time>
      </trkpt>
      <trkpt lat="47.80923" lon="7.03759">
        <ele>802.84</ele>
        <time>2014-06-21T14:51:25Z</time>
      </trkpt>
      <trkpt lat="47.80925" lon="7.03759">
        <ele>798.51</ele>
        <time>2014-06-21T14:51:28Z</time>
      </trkpt>
      <trkpt lat="47.80926" lon="7.03759">
        <ele>803.8</ele>
        <time>2014-06-21T14:51:29Z</time>
      </trkpt>
      <trkpt lat="47.80927" lon="7.0376">
        <ele>799.47</ele>
        <time>2014-06-21T14:51:31Z</time>
      </trkpt>
      <trkpt lat="47.80927" lon="7.03761">
        <ele>801.4</ele>
        <time>2014-06-21T14:51:32Z</time>
      </trkpt>
      <trkpt lat="47.80929" lon="7.0376">
        <ele>806.2</ele>
        <time>2014-06-21T14:51:35Z</time>
      </trkpt>
      <trkpt lat="47.80931" lon="7.03759">
        <ele>802.36</ele>
        <time>2014-06-21T14:51:36Z</time>
      </trkpt>
      <trkpt lat="47.80935" lon="7.03757">
        <ele>806.2</ele>
        <time>2014-06-21T14:51:39Z</time>
      </trkpt>
      <trkpt lat="47.80937" lon="7.03757">
        <ele>806.2</ele>
        <time>2014-06-21T14:51:40Z</time>
      </trkpt>
      <trkpt lat="47.80938" lon="7.03756">
        <ele>801.88</ele>
        <time>2014-06-21T14:51:41Z</time>
      </trkpt>
      <trkpt lat="47.8094" lon="7.03756">
        <ele>804.28</ele>
        <time>2014-06-21T14:51:42Z</time>
      </trkpt>
      <trkpt lat="47.80942" lon="7.03756">
        <ele>808.61</ele>
        <time>2014-06-21T14:51:43Z</time>
      </trkpt>
      <trkpt lat="47.80943" lon="7.03756">
        <ele>801.88</ele>
        <time>2014-06-21T14:51:44Z</time>
      </trkpt>
      <trkpt lat="47.80944" lon="7.03756">
        <ele>807.16</ele>
        <time>2014-06-21T14:51:45Z</time>
      </trkpt>
      <trkpt lat="47.80948" lon="7.03757">
        <ele>803.32</ele>
        <time>2014-06-21T14:51:48Z</time>
      </trkpt>
      <trkpt lat="47.80948" lon="7.03757">
        <ele>806.68</ele>
        <time>2014-06-21T14:51:49Z</time>
      </trkpt>
      <trkpt lat="47.80957" lon="7.03758">
        <ele>806.68</ele>
        <time>2014-06-21T14:51:59Z</time>
      </trkpt>
      <trkpt lat="47.80958" lon="7.03759">
        <ele>802.84</ele>
        <time>2014-06-21T14:52:00Z</time>
      </trkpt>
      <trkpt lat="47.80959" lon="7.03759">
        <ele>802.84</ele>
        <time>2014-06-21T14:52:01Z</time>
      </trkpt>
      <trkpt lat="47.80961" lon="7.03759">
        <ele>807.16</ele>
        <time>2014-06-21T14:52:02Z</time>
      </trkpt>
      <trkpt lat="47.80963" lon="7.03759">
        <ele>803.8</ele>
        <time>2014-06-21T14:52:04Z</time>
      </trkpt>
      <trkpt lat="47.80963" lon="7.03759">
        <ele>807.64</ele>
        <time>2014-06-21T14:52:05Z</time>
      </trkpt>
      <trkpt lat="47.80964" lon="7.03759">
        <ele>811.97</ele>
        <time>2014-06-21T14:52:06Z</time>
      </trkpt>
      <trkpt lat="47.80965" lon="7.03759">
        <ele>808.13</ele>
        <time>2014-06-21T14:52:07Z</time>
      </trkpt>
      <trkpt lat="47.80971" lon="7.0376">
        <ele>811.97</ele>
        <time>2014-06-21T14:52:12Z</time>
      </trkpt>
      <trkpt lat="47.80974" lon="7.03761">
        <ele>806.2</ele>
        <time>2014-06-21T14:52:16Z</time>
      </trkpt>
      <trkpt lat="47.80976" lon="7.0376">
        <ele>811.01</ele>
        <time>2014-06-21T14:52:18Z</time>
      </trkpt>
      <trkpt lat="47.80977" lon="7.03759">
        <ele>806.2</ele>
        <time>2014-06-21T14:52:19Z</time>
      </trkpt>
      <trkpt lat="47.8098" lon="7.03759">
        <ele>811.01</ele>
        <time>2014-06-21T14:52:22Z</time>
      </trkpt>
      <trkpt lat="47.80981" lon="7.03759">
        <ele>807.64</ele>
        <time>2014-06-21T14:52:23Z</time>
      </trkpt>
      <trkpt lat="47.80988" lon="7.03761">
        <ele>814.37</ele>
        <time>2014-06-21T14:52:30Z</time>
      </trkpt>
      <trkpt lat="47.80989" lon="7.03762">
        <ele>811.97</ele>
        <time>2014-06-21T14:52:31Z</time>
      </trkpt>
      <trkpt lat="47.8099" lon="7.03763">
        <ele>807.16</ele>
        <time>2014-06-21T14:52:32Z</time>
      </trkpt>
      <trkpt lat="47.8099" lon="7.03764">
        <ele>808.61</ele>
        <time>2014-06-21T14:52:33Z</time>
      </trkpt>
      <trkpt lat="47.80991" lon="7.03765">
        <ele>814.85</ele>
        <time>2014-06-21T14:52:34Z</time>
      </trkpt>
      <trkpt lat="47.80991" lon="7.03765">
        <ele>814.37</ele>
        <time>2014-06-21T14:52:35Z</time>
      </trkpt>
      <trkpt lat="47.80993" lon="7.03766">
        <ele>808.13</ele>
        <time>2014-06-21T14:52:36Z</time>
      </trkpt>
      <trkpt lat="47.80994" lon="7.03766">
        <ele>811.97</ele>
        <time>2014-06-21T14:52:37Z</time>
      </trkpt>
      <trkpt lat="47.80996" lon="7.03766">
        <ele>815.82</ele>
        <time>2014-06-21T14:52:39Z</time>
      </trkpt>
      <trkpt lat="47.80999" lon="7.03767">
        <ele>811.97</ele>
        <time>2014-06-21T14:52:41Z</time>
      </trkpt>
      <trkpt lat="47.81006" lon="7.0377">
        <ele>811.49</ele>
        <time>2014-06-21T14:52:49Z</time>
      </trkpt>
      <trkpt lat="47.8101" lon="7.03771">
        <ele>815.82</ele>
        <time>2014-06-21T14:52:51Z</time>
      </trkpt>
      <trkpt lat="47.81011" lon="7.0377">
        <ele>815.82</ele>
        <time>2014-06-21T14:52:52Z</time>
      </trkpt>
      <trkpt lat="47.81011" lon="7.03769">
        <ele>808.61</ele>
        <time>2014-06-21T14:52:53Z</time>
      </trkpt>
      <trkpt lat="47.81012" lon="7.03768">
        <ele>810.53</ele>
        <time>2014-06-21T14:52:54Z</time>
      </trkpt>
      <trkpt lat="47.81014" lon="7.03767">
        <ele>816.3</ele>
        <time>2014-06-21T14:52:56Z</time>
      </trkpt>
      <trkpt lat="47.81015" lon="7.03766">
        <ele>810.05</ele>
        <time>2014-06-21T14:52:58Z</time>
      </trkpt>
      <trkpt lat="47.81016" lon="7.03766">
        <ele>811.01</ele>
        <time>2014-06-21T14:52:59Z</time>
      </trkpt>
      <trkpt lat="47.81016" lon="7.03766">
        <ele>816.78</ele>
        <time>2014-06-21T14:53:00Z</time>
      </trkpt>
      <trkpt lat="47.81021" lon="7.03766">
        <ele>813.89</ele>
        <time>2014-06-21T14:53:03Z</time>
      </trkpt>
      <trkpt lat="47.81024" lon="7.03766">
        <ele>817.74</ele>
        <time>2014-06-21T14:53:05Z</time>
      </trkpt>
      <trkpt lat="47.81024" lon="7.03766">
        <ele>813.89</ele>
        <time>2014-06-21T14:53:06Z</time>
      </trkpt>
      <trkpt lat="47.81025" lon="7.03765">
        <ele>818.7</ele>
        <time>2014-06-21T14:53:07Z</time>
      </trkpt>
      <trkpt lat="47.81025" lon="7.03765">
        <ele>810.53</ele>
        <time>2014-06-21T14:53:08Z</time>
      </trkpt>
      <trkpt lat="47.81026" lon="7.03764">
        <ele>814.37</ele>
        <time>2014-06-21T14:53:09Z</time>
      </trkpt>
      <trkpt lat="47.81027" lon="7.03764">
        <ele>820.14</ele>
        <time>2014-06-21T14:53:10Z</time>
      </trkpt>
      <trkpt lat="47.81028" lon="7.03764">
        <ele>811.97</ele>
        <time>2014-06-21T14:53:11Z</time>
      </trkpt>
      <trkpt lat="47.8103" lon="7.03762">
        <ele>817.26</ele>
        <time>2014-06-21T14:53:13Z</time>
      </trkpt>
      <trkpt lat="47.81032" lon="7.0376">
        <ele>811.97</ele>
        <time>2014-06-21T14:53:15Z</time>
      </trkpt>
      <trkpt lat="47.81033" lon="7.03758">
        <ele>816.3</ele>
        <time>2014-06-21T14:53:16Z</time>
      </trkpt>
      <trkpt lat="47.81034" lon="7.03757">
        <ele>820.62</ele>
        <time>2014-06-21T14:53:17Z</time>
      </trkpt>
      <trkpt lat="47.81035" lon="7.03756">
        <ele>814.85</ele>
        <time>2014-06-21T14:53:18Z</time>
      </trkpt>
      <trkpt lat="47.81036" lon="7.03753">
        <ele>818.7</ele>
        <time>2014-06-21T14:53:20Z</time>
      </trkpt>
      <trkpt lat="47.81037" lon="7.03751">
        <ele>816.78</ele>
        <time>2014-06-21T14:53:21Z</time>
      </trkpt>
      <trkpt lat="47.81041" lon="7.03746">
        <ele>820.14</ele>
        <time>2014-06-21T14:53:25Z</time>
      </trkpt>
      <trkpt lat="47.81042" lon="7.03745">
        <ele>818.22</ele>
        <time>2014-06-21T14:53:26Z</time>
      </trkpt>
      <trkpt lat="47.81044" lon="7.03743">
        <ele>823.03</ele>
        <time>2014-06-21T14:53:29Z</time>
      </trkpt>
      <trkpt lat="47.81044" lon="7.03743">
        <ele>821.1</ele>
        <time>2014-06-21T14:53:30Z</time>
      </trkpt>
      <trkpt lat="47.81045" lon="7.03742">
        <ele>816.78</ele>
        <time>2014-06-21T14:53:31Z</time>
      </trkpt>
      <trkpt lat="47.81045" lon="7.03742">
        <ele>817.74</ele>
        <time>2014-06-21T14:53:32Z</time>
      </trkpt>
      <trkpt lat="47.81046" lon="7.03741">
        <ele>824.47</ele>
        <time>2014-06-21T14:53:33Z</time>
      </trkpt>
      <trkpt lat="47.81046" lon="7.03741">
        <ele>822.06</ele>
        <time>2014-06-21T14:53:34Z</time>
      </trkpt>
      <trkpt lat="47.81046" lon="7.03741">
        <ele>817.74</ele>
        <time>2014-06-21T14:53:35Z</time>
      </trkpt>
      <trkpt lat="47.81047" lon="7.03739">
        <ele>820.62</ele>
        <time>2014-06-21T14:53:36Z</time>
      </trkpt>
      <trkpt lat="47.81057" lon="7.0372">
        <ele>824.95</ele>
        <time>2014-06-21T14:53:47Z</time>
      </trkpt>
      <trkpt lat="47.81058" lon="7.03718">
        <ele>821.1</ele>
        <time>2014-06-21T14:53:48Z</time>
      </trkpt>
      <trkpt lat="47.81061" lon="7.03711">
        <ele>822.55</ele>
        <time>2014-06-21T14:53:52Z</time>
      </trkpt>
      <trkpt lat="47.81061" lon="7.03711">
        <ele>817.74</ele>
        <time>2014-06-21T14:53:53Z</time>
      </trkpt>
      <trkpt lat="47.81061" lon="7.0371">
        <ele>824.47</ele>
        <time>2014-06-21T14:53:54Z</time>
      </trkpt>
      <trkpt lat="47.81062" lon="7.03708">
        <ele>818.7</ele>
        <time>2014-06-21T14:53:55Z</time>
      </trkpt>
      <trkpt lat="47.81062" lon="7.03705">
        <ele>823.99</ele>
        <time>2014-06-21T14:53:57Z</time>
      </trkpt>
      <trkpt lat="47.81064" lon="7.03701">
        <ele>819.18</ele>
        <time>2014-06-21T14:54:00Z</time>
      </trkpt>
      <trkpt lat="47.81065" lon="7.03699">
        <ele>820.14</ele>
        <time>2014-06-21T14:54:01Z</time>
      </trkpt>
      <trkpt lat="47.81066" lon="7.03696">
        <ele>824.95</ele>
        <time>2014-06-21T14:54:02Z</time>
      </trkpt>
      <trkpt lat="47.81067" lon="7.03693">
        <ele>818.7</ele>
        <time>2014-06-21T14:54:03Z</time>
      </trkpt>
      <trkpt lat="47.81068" lon="7.03691">
        <ele>822.55</ele>
        <time>2014-06-21T14:54:04Z</time>
      </trkpt>
      <trkpt lat="47.81072" lon="7.03681">
        <ele>818.22</ele>
        <time>2014-06-21T14:54:08Z</time>
      </trkpt>
      <trkpt lat="47.81072" lon="7.03679">
        <ele>821.58</ele>
        <time>2014-06-21T14:54:09Z</time>
      </trkpt>
      <trkpt lat="47.81074" lon="7.03674">
        <ele>823.03</ele>
        <time>2014-06-21T14:54:11Z</time>
      </trkpt>
      <trkpt lat="47.81075" lon="7.03673">
        <ele>819.66</ele>
        <time>2014-06-21T14:54:12Z</time>
      </trkpt>
      <trkpt lat="47.81076" lon="7.03671">
        <ele>822.06</ele>
        <time>2014-06-21T14:54:13Z</time>
      </trkpt>
      <trkpt lat="47.81076" lon="7.03669">
        <ele>827.35</ele>
        <time>2014-06-21T14:54:14Z</time>
      </trkpt>
      <trkpt lat="47.81077" lon="7.03667">
        <ele>824.47</ele>
        <time>2014-06-21T14:54:15Z</time>
      </trkpt>
      <trkpt lat="47.81077" lon="7.03665">
        <ele>819.66</ele>
        <time>2014-06-21T14:54:16Z</time>
      </trkpt>
      <trkpt lat="47.81077" lon="7.03663">
        <ele>822.55</ele>
        <time>2014-06-21T14:54:17Z</time>
      </trkpt>
      <trkpt lat="47.81077" lon="7.0366">
        <ele>829.27</ele>
        <time>2014-06-21T14:54:19Z</time>
      </trkpt>
      <trkpt lat="47.81077" lon="7.03659">
        <ele>825.43</ele>
        <time>2014-06-21T14:54:20Z</time>
      </trkpt>
      <trkpt lat="47.81077" lon="7.03657">
        <ele>820.14</ele>
        <time>2014-06-21T14:54:21Z</time>
      </trkpt>
      <trkpt lat="47.81077" lon="7.03656">
        <ele>825.43</ele>
        <time>2014-06-21T14:54:22Z</time>
      </trkpt>
      <trkpt lat="47.81078" lon="7.03654">
        <ele>826.39</ele>
        <time>2014-06-21T14:54:24Z</time>
      </trkpt>
      <trkpt lat="47.81077" lon="7.03651">
        <ele>822.55</ele>
        <time>2014-06-21T14:54:27Z</time>
      </trkpt>
      <trkpt lat="47.81077" lon="7.03649">
        <ele>830.72</ele>
        <time>2014-06-21T14:54:29Z</time>
      </trkpt>
      <trkpt lat="47.81077" lon="7.03648">
        <ele>829.27</ele>
        <time>2014-06-21T14:54:30Z</time>
      </trkpt>
      <trkpt lat="47.81077" lon="7.03646">
        <ele>824.95</ele>
        <time>2014-06-21T14:54:32Z</time>
      </trkpt>
      <trkpt lat="47.81077" lon="7.03644">
        <ele>822.06</ele>
        <time>2014-06-21T14:54:33Z</time>
      </trkpt>
      <trkpt lat="47.81079" lon="7.0364">
        <ele>829.27</ele>
        <time>2014-06-21T14:54:36Z</time>
      </trkpt>
      <trkpt lat="47.81081" lon="7.03637">
        <ele>824.95</ele>
        <time>2014-06-21T14:54:39Z</time>
      </trkpt>
      <trkpt lat="47.81084" lon="7.03631">
        <ele>828.31</ele>
        <time>2014-06-21T14:54:43Z</time>
      </trkpt>
      <trkpt lat="47.81086" lon="7.03628">
        <ele>822.06</ele>
        <time>2014-06-21T14:54:46Z</time>
      </trkpt>
      <trkpt lat="47.81086" lon="7.03627">
        <ele>826.87</ele>
        <time>2014-06-21T14:54:47Z</time>
      </trkpt>
      <trkpt lat="47.81088" lon="7.03625">
        <ele>832.16</ele>
        <time>2014-06-21T14:54:49Z</time>
      </trkpt>
      <trkpt lat="47.81089" lon="7.03624">
        <ele>829.27</ele>
        <time>2014-06-21T14:54:50Z</time>
      </trkpt>
      <trkpt lat="47.8109" lon="7.03623">
        <ele>825.91</ele>
        <time>2014-06-21T14:54:51Z</time>
      </trkpt>
      <trkpt lat="47.81093" lon="7.0362">
        <ele>830.24</ele>
        <time>2014-06-21T14:54:53Z</time>
      </trkpt>
      <trkpt lat="47.81098" lon="7.03615">
        <ele>833.12</ele>
        <time>2014-06-21T14:54:56Z</time>
      </trkpt>
      <trkpt lat="47.811" lon="7.03612">
        <ele>830.24</ele>
        <time>2014-06-21T14:54:58Z</time>
      </trkpt>
      <trkpt lat="47.81104" lon="7.03607">
        <ele>834.08</ele>
        <time>2014-06-21T14:55:03Z</time>
      </trkpt>
      <trkpt lat="47.81105" lon="7.03605">
        <ele>836.48</ele>
        <time>2014-06-21T14:55:05Z</time>
      </trkpt>
      <trkpt lat="47.81105" lon="7.03604">
        <ele>830.72</ele>
        <time>2014-06-21T14:55:06Z</time>
      </trkpt>
      <trkpt lat="47.81105" lon="7.03604">
        <ele>831.68</ele>
        <time>2014-06-21T14:55:07Z</time>
      </trkpt>
      <trkpt lat="47.81106" lon="7.03603">
        <ele>835.52</ele>
        <time>2014-06-21T14:55:08Z</time>
      </trkpt>
      <trkpt lat="47.81106" lon="7.03602">
        <ele>827.83</ele>
        <time>2014-06-21T14:55:09Z</time>
      </trkpt>
      <trkpt lat="47.81107" lon="7.03602">
        <ele>833.6</ele>
        <time>2014-06-21T14:55:10Z</time>
      </trkpt>
      <trkpt lat="47.8111" lon="7.03597">
        <ele>825.91</ele>
        <time>2014-06-21T14:55:14Z</time>
      </trkpt>
      <trkpt lat="47.81111" lon="7.03596">
        <ele>834.56</ele>
        <time>2014-06-21T14:55:15Z</time>
      </trkpt>
      <trkpt lat="47.81113" lon="7.03594">
        <ele>837.45</ele>
        <time>2014-06-21T14:55:17Z</time>
      </trkpt>
      <trkpt lat="47.81115" lon="7.03593">
        <ele>830.72</ele>
        <time>2014-06-21T14:55:19Z</time>
      </trkpt>
      <trkpt lat="47.81117" lon="7.03592">
        <ele>830.24</ele>
        <time>2014-06-21T14:55:20Z</time>
      </trkpt>
      <trkpt lat="47.81119" lon="7.03592">
        <ele>833.6</ele>
        <time>2014-06-21T14:55:22Z</time>
      </trkpt>
      <trkpt lat="47.81121" lon="7.03592">
        <ele>835.04</ele>
        <time>2014-06-21T14:55:24Z</time>
      </trkpt>
      <trkpt lat="47.81122" lon="7.03591">
        <ele>831.2</ele>
        <time>2014-06-21T14:55:25Z</time>
      </trkpt>
      <trkpt lat="47.81123" lon="7.03591">
        <ele>835.04</ele>
        <time>2014-06-21T14:55:26Z</time>
      </trkpt>
      <trkpt lat="47.81127" lon="7.03586">
        <ele>834.56</ele>
        <time>2014-06-21T14:55:33Z</time>
      </trkpt>
      <trkpt lat="47.81129" lon="7.03583">
        <ele>837.93</ele>
        <time>2014-06-21T14:55:35Z</time>
      </trkpt>
      <trkpt lat="47.8113" lon="7.03582">
        <ele>837.45</ele>
        <time>2014-06-21T14:55:36Z</time>
      </trkpt>
      <trkpt lat="47.81132" lon="7.03579">
        <ele>836.96</ele>
        <time>2014-06-21T14:55:38Z</time>
      </trkpt>
      <trkpt lat="47.81135" lon="7.03566">
        <ele>841.77</ele>
        <time>2014-06-21T14:55:45Z</time>
      </trkpt>
      <trkpt lat="47.81135" lon="7.03564">
        <ele>839.85</ele>
        <time>2014-06-21T14:55:46Z</time>
      </trkpt>
      <trkpt lat="47.81135" lon="7.03559">
        <ele>837.93</ele>
        <time>2014-06-21T14:55:49Z</time>
      </trkpt>
      <trkpt lat="47.81137" lon="7.03551">
        <ele>833.6</ele>
        <time>2014-06-21T14:55:53Z</time>
      </trkpt>
      <trkpt lat="47.81138" lon="7.03548">
        <ele>838.89</ele>
        <time>2014-06-21T14:55:54Z</time>
      </trkpt>
      <trkpt lat="47.8114" lon="7.03545">
        <ele>841.77</ele>
        <time>2014-06-21T14:55:56Z</time>
      </trkpt>
      <trkpt lat="47.81142" lon="7.03533">
        <ele>842.25</ele>
        <time>2014-06-21T14:56:02Z</time>
      </trkpt>
      <trkpt lat="47.81142" lon="7.03532">
        <ele>837.93</ele>
        <time>2014-06-21T14:56:03Z</time>
      </trkpt>
      <trkpt lat="47.81142" lon="7.03531">
        <ele>835.04</ele>
        <time>2014-06-21T14:56:04Z</time>
      </trkpt>
      <trkpt lat="47.81142" lon="7.0353">
        <ele>840.33</ele>
        <time>2014-06-21T14:56:05Z</time>
      </trkpt>
      <trkpt lat="47.81142" lon="7.03529">
        <ele>839.85</ele>
        <time>2014-06-21T14:56:06Z</time>
      </trkpt>
      <trkpt lat="47.81142" lon="7.03528">
        <ele>843.21</ele>
        <time>2014-06-21T14:56:07Z</time>
      </trkpt>
      <trkpt lat="47.81141" lon="7.03527">
        <ele>840.33</ele>
        <time>2014-06-21T14:56:08Z</time>
      </trkpt>
      <trkpt lat="47.81141" lon="7.03526">
        <ele>835.04</ele>
        <time>2014-06-21T14:56:09Z</time>
      </trkpt>
      <trkpt lat="47.81142" lon="7.03525">
        <ele>843.21</ele>
        <time>2014-06-21T14:56:10Z</time>
      </trkpt>
      <trkpt lat="47.81142" lon="7.03524">
        <ele>838.89</ele>
        <time>2014-06-21T14:56:11Z</time>
      </trkpt>
      <trkpt lat="47.81142" lon="7.03522">
        <ele>842.25</ele>
        <time>2014-06-21T14:56:12Z</time>
      </trkpt>
      <trkpt lat="47.81149" lon="7.0351">
        <ele>836.96</ele>
        <time>2014-06-21T14:56:21Z</time>
      </trkpt>
      <trkpt lat="47.8115" lon="7.03509">
        <ele>838.89</ele>
        <time>2014-06-21T14:56:22Z</time>
      </trkpt>
      <trkpt lat="47.8115" lon="7.03507">
        <ele>842.25</ele>
        <time>2014-06-21T14:56:24Z</time>
      </trkpt>
      <trkpt lat="47.8115" lon="7.03506">
        <ele>848.98</ele>
        <time>2014-06-21T14:56:26Z</time>
      </trkpt>
      <trkpt lat="47.81151" lon="7.03505">
        <ele>843.69</ele>
        <time>2014-06-21T14:56:27Z</time>
      </trkpt>
      <trkpt lat="47.81151" lon="7.03503">
        <ele>838.41</ele>
        <time>2014-06-21T14:56:28Z</time>
      </trkpt>
      <trkpt lat="47.81154" lon="7.03496">
        <ele>843.21</ele>
        <time>2014-06-21T14:56:32Z</time>
      </trkpt>
      <trkpt lat="47.81154" lon="7.03495">
        <ele>842.73</ele>
        <time>2014-06-21T14:56:33Z</time>
      </trkpt>
      <trkpt lat="47.81155" lon="7.03486">
        <ele>846.58</ele>
        <time>2014-06-21T14:56:38Z</time>
      </trkpt>
      <trkpt lat="47.81157" lon="7.03482">
        <ele>842.25</ele>
        <time>2014-06-21T14:56:40Z</time>
      </trkpt>
      <trkpt lat="47.81161" lon="7.03464">
        <ele>843.69</ele>
        <time>2014-06-21T14:56:48Z</time>
      </trkpt>
      <trkpt lat="47.81162" lon="7.03459">
        <ele>845.62</ele>
        <time>2014-06-21T14:56:50Z</time>
      </trkpt>
      <trkpt lat="47.8117" lon="7.03427">
        <ele>847.54</ele>
        <time>2014-06-21T14:57:06Z</time>
      </trkpt>
      <trkpt lat="47.8117" lon="7.03425">
        <ele>844.66</ele>
        <time>2014-06-21T14:57:07Z</time>
      </trkpt>
      <trkpt lat="47.81171" lon="7.03422">
        <ele>847.54</ele>
        <time>2014-06-21T14:57:08Z</time>
      </trkpt>
      <trkpt lat="47.81177" lon="7.03394">
        <ele>850.9</ele>
        <time>2014-06-21T14:57:19Z</time>
      </trkpt>
      <trkpt lat="47.81177" lon="7.03392">
        <ele>847.54</ele>
        <time>2014-06-21T14:57:20Z</time>
      </trkpt>
      <trkpt lat="47.81177" lon="7.03388">
        <ele>842.73</ele>
        <time>2014-06-21T14:57:22Z</time>
      </trkpt>
      <trkpt lat="47.81177" lon="7.03386">
        <ele>842.73</ele>
        <time>2014-06-21T14:57:23Z</time>
      </trkpt>
      <trkpt lat="47.81177" lon="7.03382">
        <ele>846.1</ele>
        <time>2014-06-21T14:57:25Z</time>
      </trkpt>
      <trkpt lat="47.81177" lon="7.0338">
        <ele>849.94</ele>
        <time>2014-06-21T14:57:26Z</time>
      </trkpt>
      <trkpt lat="47.81177" lon="7.03376">
        <ele>846.58</ele>
        <time>2014-06-21T14:57:28Z</time>
      </trkpt>
      <trkpt lat="47.81177" lon="7.0337">
        <ele>841.77</ele>
        <time>2014-06-21T14:57:31Z</time>
      </trkpt>
      <trkpt lat="47.81177" lon="7.03367">
        <ele>847.06</ele>
        <time>2014-06-21T14:57:33Z</time>
      </trkpt>
      <trkpt lat="47.81177" lon="7.03366">
        <ele>850.42</ele>
        <time>2014-06-21T14:57:34Z</time>
      </trkpt>
      <trkpt lat="47.81176" lon="7.03361">
        <ele>853.31</ele>
        <time>2014-06-21T14:57:37Z</time>
      </trkpt>
      <trkpt lat="47.81174" lon="7.03351">
        <ele>847.06</ele>
        <time>2014-06-21T14:57:43Z</time>
      </trkpt>
      <trkpt lat="47.81174" lon="7.03349">
        <ele>848.98</ele>
        <time>2014-06-21T14:57:44Z</time>
      </trkpt>
      <trkpt lat="47.81174" lon="7.03346">
        <ele>845.14</ele>
        <time>2014-06-21T14:57:46Z</time>
      </trkpt>
      <trkpt lat="47.81175" lon="7.03344">
        <ele>847.06</ele>
        <time>2014-06-21T14:57:47Z</time>
      </trkpt>
      <trkpt lat="47.81176" lon="7.03337">
        <ele>850.9</ele>
        <time>2014-06-21T14:57:51Z</time>
      </trkpt>
      <trkpt lat="47.81176" lon="7.03334">
        <ele>850.9</ele>
        <time>2014-06-21T14:57:52Z</time>
      </trkpt>
      <trkpt lat="47.81176" lon="7.03324">
        <ele>856.19</ele>
        <time>2014-06-21T14:57:57Z</time>
      </trkpt>
      <trkpt lat="47.81176" lon="7.0332">
        <ele>851.38</ele>
        <time>2014-06-21T14:58:00Z</time>
      </trkpt>
      <trkpt lat="47.81176" lon="7.03318">
        <ele>846.58</ele>
        <time>2014-06-21T14:58:01Z</time>
      </trkpt>
      <trkpt lat="47.81176" lon="7.03317">
        <ele>850.9</ele>
        <time>2014-06-21T14:58:02Z</time>
      </trkpt>
      <trkpt lat="47.81176" lon="7.03315">
        <ele>856.19</ele>
        <time>2014-06-21T14:58:04Z</time>
      </trkpt>
      <trkpt lat="47.81175" lon="7.03311">
        <ele>850.42</ele>
        <time>2014-06-21T14:58:07Z</time>
      </trkpt>
      <trkpt lat="47.81175" lon="7.0331">
        <ele>851.38</ele>
        <time>2014-06-21T14:58:08Z</time>
      </trkpt>
      <trkpt lat="47.81175" lon="7.03308">
        <ele>857.15</ele>
        <time>2014-06-21T14:58:10Z</time>
      </trkpt>
      <trkpt lat="47.81176" lon="7.03305">
        <ele>858.59</ele>
        <time>2014-06-21T14:58:12Z</time>
      </trkpt>
      <trkpt lat="47.81176" lon="7.03304">
        <ele>852.35</ele>
        <time>2014-06-21T14:58:13Z</time>
      </trkpt>
      <trkpt lat="47.81177" lon="7.03302">
        <ele>855.71</ele>
        <time>2014-06-21T14:58:15Z</time>
      </trkpt>
      <trkpt lat="47.81177" lon="7.033">
        <ele>856.67</ele>
        <time>2014-06-21T14:58:17Z</time>
      </trkpt>
      <trkpt lat="47.81179" lon="7.03298">
        <ele>848.5</ele>
        <time>2014-06-21T14:58:19Z</time>
      </trkpt>
      <trkpt lat="47.81178" lon="7.03297">
        <ele>852.35</ele>
        <time>2014-06-21T14:58:20Z</time>
      </trkpt>
      <trkpt lat="47.81178" lon="7.03296">
        <ele>856.19</ele>
        <time>2014-06-21T14:58:21Z</time>
      </trkpt>
      <trkpt lat="47.81179" lon="7.03292">
        <ele>858.59</ele>
        <time>2014-06-21T14:58:24Z</time>
      </trkpt>
      <trkpt lat="47.81181" lon="7.03284">
        <ele>856.67</ele>
        <time>2014-06-21T14:58:30Z</time>
      </trkpt>
      <trkpt lat="47.81182" lon="7.0328">
        <ele>861.48</ele>
        <time>2014-06-21T14:58:33Z</time>
      </trkpt>
      <trkpt lat="47.81185" lon="7.03274">
        <ele>855.23</ele>
        <time>2014-06-21T14:58:38Z</time>
      </trkpt>
      <trkpt lat="47.81186" lon="7.03273">
        <ele>858.59</ele>
        <time>2014-06-21T14:58:39Z</time>
      </trkpt>
      <trkpt lat="47.81187" lon="7.03269">
        <ele>862.92</ele>
        <time>2014-06-21T14:58:42Z</time>
      </trkpt>
      <trkpt lat="47.81192" lon="7.0326">
        <ele>857.15</ele>
        <time>2014-06-21T14:58:50Z</time>
      </trkpt>
      <trkpt lat="47.81193" lon="7.03259">
        <ele>857.15</ele>
        <time>2014-06-21T14:58:51Z</time>
      </trkpt>
      <trkpt lat="47.81194" lon="7.03258">
        <ele>862.92</ele>
        <time>2014-06-21T14:58:54Z</time>
      </trkpt>
      <trkpt lat="47.81196" lon="7.03257">
        <ele>861.48</ele>
        <time>2014-06-21T14:58:55Z</time>
      </trkpt>
      <trkpt lat="47.812" lon="7.03256">
        <ele>863.4</ele>
        <time>2014-06-21T14:58:58Z</time>
      </trkpt>
      <trkpt lat="47.81202" lon="7.03255">
        <ele>857.63</ele>
        <time>2014-06-21T14:59:00Z</time>
      </trkpt>
      <trkpt lat="47.81207" lon="7.03253">
        <ele>863.88</ele>
        <time>2014-06-21T14:59:04Z</time>
      </trkpt>
      <trkpt lat="47.81208" lon="7.03252">
        <ele>863.88</ele>
        <time>2014-06-21T14:59:05Z</time>
      </trkpt>
      <trkpt lat="47.81209" lon="7.03251">
        <ele>864.36</ele>
        <time>2014-06-21T14:59:06Z</time>
      </trkpt>
      <trkpt lat="47.81213" lon="7.03249">
        <ele>858.11</ele>
        <time>2014-06-21T14:59:09Z</time>
      </trkpt>
      <trkpt lat="47.81215" lon="7.03249">
        <ele>861.48</ele>
        <time>2014-06-21T14:59:11Z</time>
      </trkpt>
      <trkpt lat="47.81217" lon="7.03247">
        <ele>864.84</ele>
        <time>2014-06-21T14:59:13Z</time>
      </trkpt>
      <trkpt lat="47.81225" lon="7.03243">
        <ele>860.04</ele>
        <time>2014-06-21T14:59:22Z</time>
      </trkpt>
      <trkpt lat="47.81225" lon="7.03243">
        <ele>860.04</ele>
        <time>2014-06-21T14:59:23Z</time>
      </trkpt>
      <trkpt lat="47.81226" lon="7.03242">
        <ele>864.36</ele>
        <time>2014-06-21T14:59:25Z</time>
      </trkpt>
      <trkpt lat="47.81227" lon="7.0324">
        <ele>861</ele>
        <time>2014-06-21T14:59:32Z</time>
      </trkpt>
      <trkpt lat="47.81227" lon="7.03239">
        <ele>864.36</ele>
        <time>2014-06-21T14:59:35Z</time>
      </trkpt>
      <trkpt lat="47.81227" lon="7.03239">
        <ele>867.73</ele>
        <time>2014-06-21T14:59:38Z</time>
      </trkpt>
      <trkpt lat="47.81228" lon="7.03239">
        <ele>871.57</ele>
        <time>2014-06-21T14:59:40Z</time>
      </trkpt>
      <trkpt lat="47.8123" lon="7.03239">
        <ele>864.84</ele>
        <time>2014-06-21T14:59:42Z</time>
      </trkpt>
      <trkpt lat="47.81231" lon="7.03238">
        <ele>865.32</ele>
        <time>2014-06-21T14:59:43Z</time>
      </trkpt>
      <trkpt lat="47.81235" lon="7.03238">
        <ele>866.77</ele>
        <time>2014-06-21T14:59:46Z</time>
      </trkpt>
      <trkpt lat="47.81237" lon="7.03239">
        <ele>867.73</ele>
        <time>2014-06-21T14:59:48Z</time>
      </trkpt>
      <trkpt lat="47.8124" lon="7.03239">
        <ele>872.53</ele>
        <time>2014-06-21T14:59:50Z</time>
      </trkpt>
      <trkpt lat="47.81242" lon="7.03239">
        <ele>862.44</ele>
        <time>2014-06-21T14:59:51Z</time>
      </trkpt>
      <trkpt lat="47.81245" lon="7.03239">
        <ele>868.21</ele>
        <time>2014-06-21T14:59:54Z</time>
      </trkpt>
      <trkpt lat="47.81248" lon="7.03238">
        <ele>869.17</ele>
        <time>2014-06-21T14:59:56Z</time>
      </trkpt>
      <trkpt lat="47.81249" lon="7.03238">
        <ele>865.32</ele>
        <time>2014-06-21T14:59:57Z</time>
      </trkpt>
      <trkpt lat="47.81253" lon="7.03237">
        <ele>867.25</ele>
        <time>2014-06-21T15:00:00Z</time>
      </trkpt>
      <trkpt lat="47.81255" lon="7.03237">
        <ele>871.57</ele>
        <time>2014-06-21T15:00:02Z</time>
      </trkpt>
      <trkpt lat="47.81256" lon="7.03237">
        <ele>865.8</ele>
        <time>2014-06-21T15:00:05Z</time>
      </trkpt>
      <trkpt lat="47.81257" lon="7.03237">
        <ele>871.57</ele>
        <time>2014-06-21T15:00:06Z</time>
      </trkpt>
      <trkpt lat="47.81258" lon="7.03237">
        <ele>868.21</ele>
        <time>2014-06-21T15:00:07Z</time>
      </trkpt>
      <trkpt lat="47.81262" lon="7.03236">
        <ele>871.57</ele>
        <time>2014-06-21T15:00:10Z</time>
      </trkpt>
      <trkpt lat="47.8127" lon="7.03237">
        <ele>869.17</ele>
        <time>2014-06-21T15:00:16Z</time>
      </trkpt>
      <trkpt lat="47.81275" lon="7.03238">
        <ele>872.05</ele>
        <time>2014-06-21T15:00:20Z</time>
      </trkpt>
      <trkpt lat="47.81277" lon="7.03238">
        <ele>873.5</ele>
        <time>2014-06-21T15:00:22Z</time>
      </trkpt>
      <trkpt lat="47.81281" lon="7.03239">
        <ele>869.65</ele>
        <time>2014-06-21T15:00:25Z</time>
      </trkpt>
      <trkpt lat="47.81289" lon="7.03245">
        <ele>873.5</ele>
        <time>2014-06-21T15:00:32Z</time>
      </trkpt>
      <trkpt lat="47.8129" lon="7.03245">
        <ele>873.01</ele>
        <time>2014-06-21T15:00:33Z</time>
      </trkpt>
      <trkpt lat="47.81293" lon="7.03247">
        <ele>876.38</ele>
        <time>2014-06-21T15:00:35Z</time>
      </trkpt>
      <trkpt lat="47.81296" lon="7.03248">
        <ele>871.09</ele>
        <time>2014-06-21T15:00:37Z</time>
      </trkpt>
      <trkpt lat="47.81298" lon="7.03248">
        <ele>871.09</ele>
        <time>2014-06-21T15:00:38Z</time>
      </trkpt>
      <trkpt lat="47.81299" lon="7.03249">
        <ele>871.09</ele>
        <time>2014-06-21T15:00:39Z</time>
      </trkpt>
      <trkpt lat="47.81301" lon="7.03249">
        <ele>868.69</ele>
        <time>2014-06-21T15:00:40Z</time>
      </trkpt>
      <trkpt lat="47.81302" lon="7.03249">
        <ele>873.5</ele>
        <time>2014-06-21T15:00:41Z</time>
      </trkpt>
      <trkpt lat="47.81305" lon="7.03249">
        <ele>873.01</ele>
        <time>2014-06-21T15:00:43Z</time>
      </trkpt>
      <trkpt lat="47.81308" lon="7.0325">
        <ele>874.94</ele>
        <time>2014-06-21T15:00:45Z</time>
      </trkpt>
      <trkpt lat="47.81309" lon="7.0325">
        <ele>877.34</ele>
        <time>2014-06-21T15:00:46Z</time>
      </trkpt>
      <trkpt lat="47.81311" lon="7.0325">
        <ele>872.53</ele>
        <time>2014-06-21T15:00:47Z</time>
      </trkpt>
      <trkpt lat="47.81312" lon="7.0325">
        <ele>872.53</ele>
        <time>2014-06-21T15:00:48Z</time>
      </trkpt>
      <trkpt lat="47.81313" lon="7.0325">
        <ele>875.9</ele>
        <time>2014-06-21T15:00:49Z</time>
      </trkpt>
      <trkpt lat="47.81314" lon="7.03249">
        <ele>875.9</ele>
        <time>2014-06-21T15:00:50Z</time>
      </trkpt>
      <trkpt lat="47.81316" lon="7.03249">
        <ele>871.09</ele>
        <time>2014-06-21T15:00:51Z</time>
      </trkpt>
      <trkpt lat="47.81317" lon="7.03249">
        <ele>875.42</ele>
        <time>2014-06-21T15:00:52Z</time>
      </trkpt>
      <trkpt lat="47.81318" lon="7.03248">
        <ele>875.42</ele>
        <time>2014-06-21T15:00:53Z</time>
      </trkpt>
      <trkpt lat="47.81319" lon="7.03248">
        <ele>876.86</ele>
        <time>2014-06-21T15:00:54Z</time>
      </trkpt>
      <trkpt lat="47.81322" lon="7.03247">
        <ele>879.26</ele>
        <time>2014-06-21T15:00:56Z</time>
      </trkpt>
      <trkpt lat="47.81324" lon="7.03247">
        <ele>874.94</ele>
        <time>2014-06-21T15:00:57Z</time>
      </trkpt>
      <trkpt lat="47.81325" lon="7.03247">
        <ele>870.13</ele>
        <time>2014-06-21T15:00:58Z</time>
      </trkpt>
      <trkpt lat="47.81326" lon="7.03247">
        <ele>872.53</ele>
        <time>2014-06-21T15:00:59Z</time>
      </trkpt>
      <trkpt lat="47.81328" lon="7.03246">
        <ele>872.53</ele>
        <time>2014-06-21T15:01:00Z</time>
      </trkpt>
      <trkpt lat="47.81331" lon="7.03245">
        <ele>875.9</ele>
        <time>2014-06-21T15:01:02Z</time>
      </trkpt>
      <trkpt lat="47.81333" lon="7.03245">
        <ele>877.82</ele>
        <time>2014-06-21T15:01:03Z</time>
      </trkpt>
      <trkpt lat="47.8134" lon="7.03243">
        <ele>877.34</ele>
        <time>2014-06-21T15:01:07Z</time>
      </trkpt>
      <trkpt lat="47.81342" lon="7.03243">
        <ele>875.9</ele>
        <time>2014-06-21T15:01:08Z</time>
      </trkpt>
      <trkpt lat="47.81344" lon="7.03243">
        <ele>874.46</ele>
        <time>2014-06-21T15:01:09Z</time>
      </trkpt>
      <trkpt lat="47.81346" lon="7.03243">
        <ele>872.53</ele>
        <time>2014-06-21T15:01:10Z</time>
      </trkpt>
      <trkpt lat="47.81349" lon="7.03243">
        <ele>877.82</ele>
        <time>2014-06-21T15:01:12Z</time>
      </trkpt>
      <trkpt lat="47.81349" lon="7.03243">
        <ele>880.22</ele>
        <time>2014-06-21T15:01:14Z</time>
      </trkpt>
      <trkpt lat="47.8135" lon="7.03242">
        <ele>883.11</ele>
        <time>2014-06-21T15:01:16Z</time>
      </trkpt>
      <trkpt lat="47.81353" lon="7.03242">
        <ele>884.07</ele>
        <time>2014-06-21T15:01:18Z</time>
      </trkpt>
      <trkpt lat="47.81355" lon="7.03242">
        <ele>876.38</ele>
        <time>2014-06-21T15:01:19Z</time>
      </trkpt>
      <trkpt lat="47.81356" lon="7.03242">
        <ele>873.98</ele>
        <time>2014-06-21T15:01:20Z</time>
      </trkpt>
      <trkpt lat="47.81358" lon="7.03242">
        <ele>875.42</ele>
        <time>2014-06-21T15:01:21Z</time>
      </trkpt>
      <trkpt lat="47.81359" lon="7.03242">
        <ele>875.42</ele>
        <time>2014-06-21T15:01:22Z</time>
      </trkpt>
      <trkpt lat="47.81361" lon="7.03242">
        <ele>879.74</ele>
        <time>2014-06-21T15:01:23Z</time>
      </trkpt>
      <trkpt lat="47.81365" lon="7.03243">
        <ele>883.59</ele>
        <time>2014-06-21T15:01:25Z</time>
      </trkpt>
      <trkpt lat="47.81366" lon="7.03243">
        <ele>877.34</ele>
        <time>2014-06-21T15:01:26Z</time>
      </trkpt>
      <trkpt lat="47.81368" lon="7.03243">
        <ele>874.46</ele>
        <time>2014-06-21T15:01:27Z</time>
      </trkpt>
      <trkpt lat="47.81369" lon="7.03243">
        <ele>874.46</ele>
        <time>2014-06-21T15:01:28Z</time>
      </trkpt>
      <trkpt lat="47.81371" lon="7.03243">
        <ele>880.22</ele>
        <time>2014-06-21T15:01:29Z</time>
      </trkpt>
      <trkpt lat="47.81372" lon="7.03243">
        <ele>879.74</ele>
        <time>2014-06-21T15:01:30Z</time>
      </trkpt>
      <trkpt lat="47.81376" lon="7.03242">
        <ele>881.67</ele>
        <time>2014-06-21T15:01:32Z</time>
      </trkpt>
      <trkpt lat="47.81381" lon="7.03242">
        <ele>881.19</ele>
        <time>2014-06-21T15:01:36Z</time>
      </trkpt>
      <trkpt lat="47.81386" lon="7.03243">
        <ele>882.63</ele>
        <time>2014-06-21T15:01:39Z</time>
      </trkpt>
      <trkpt lat="47.81388" lon="7.03243">
        <ele>886.95</ele>
        <time>2014-06-21T15:01:40Z</time>
      </trkpt>
      <trkpt lat="47.81389" lon="7.03243">
        <ele>879.74</ele>
        <time>2014-06-21T15:01:41Z</time>
      </trkpt>
      <trkpt lat="47.81391" lon="7.03243">
        <ele>879.74</ele>
        <time>2014-06-21T15:01:42Z</time>
      </trkpt>
      <trkpt lat="47.81393" lon="7.03243">
        <ele>884.55</ele>
        <time>2014-06-21T15:01:43Z</time>
      </trkpt>
      <trkpt lat="47.81394" lon="7.03242">
        <ele>879.74</ele>
        <time>2014-06-21T15:01:44Z</time>
      </trkpt>
      <trkpt lat="47.81396" lon="7.03242">
        <ele>879.74</ele>
        <time>2014-06-21T15:01:45Z</time>
      </trkpt>
      <trkpt lat="47.81397" lon="7.03242">
        <ele>883.11</ele>
        <time>2014-06-21T15:01:46Z</time>
      </trkpt>
      <trkpt lat="47.81398" lon="7.03242">
        <ele>886.47</ele>
        <time>2014-06-21T15:01:47Z</time>
      </trkpt>
      <trkpt lat="47.814" lon="7.03242">
        <ele>879.74</ele>
        <time>2014-06-21T15:01:48Z</time>
      </trkpt>
      <trkpt lat="47.81401" lon="7.03242">
        <ele>879.74</ele>
        <time>2014-06-21T15:01:50Z</time>
      </trkpt>
      <trkpt lat="47.81402" lon="7.03241">
        <ele>885.99</ele>
        <time>2014-06-21T15:01:52Z</time>
      </trkpt>
      <trkpt lat="47.81403" lon="7.03241">
        <ele>885.99</ele>
        <time>2014-06-21T15:01:53Z</time>
      </trkpt>
      <trkpt lat="47.81404" lon="7.03241">
        <ele>888.4</ele>
        <time>2014-06-21T15:01:54Z</time>
      </trkpt>
      <trkpt lat="47.81405" lon="7.0324">
        <ele>880.71</ele>
        <time>2014-06-21T15:01:55Z</time>
      </trkpt>
      <trkpt lat="47.81407" lon="7.0324">
        <ele>880.71</ele>
        <time>2014-06-21T15:01:56Z</time>
      </trkpt>
      <trkpt lat="47.81408" lon="7.03239">
        <ele>883.59</ele>
        <time>2014-06-21T15:01:57Z</time>
      </trkpt>
      <trkpt lat="47.81411" lon="7.03239">
        <ele>885.99</ele>
        <time>2014-06-21T15:01:59Z</time>
      </trkpt>
      <trkpt lat="47.81413" lon="7.03237">
        <ele>885.51</ele>
        <time>2014-06-21T15:02:01Z</time>
      </trkpt>
      <trkpt lat="47.81415" lon="7.03236">
        <ele>880.22</ele>
        <time>2014-06-21T15:02:03Z</time>
      </trkpt>
      <trkpt lat="47.81415" lon="7.03236">
        <ele>880.22</ele>
        <time>2014-06-21T15:02:04Z</time>
      </trkpt>
      <trkpt lat="47.81416" lon="7.03235">
        <ele>885.03</ele>
        <time>2014-06-21T15:02:05Z</time>
      </trkpt>
      <trkpt lat="47.81419" lon="7.03235">
        <ele>886.47</ele>
        <time>2014-06-21T15:02:07Z</time>
      </trkpt>
      <trkpt lat="47.8142" lon="7.03234">
        <ele>888.4</ele>
        <time>2014-06-21T15:02:08Z</time>
      </trkpt>
      <trkpt lat="47.81421" lon="7.03234">
        <ele>884.07</ele>
        <time>2014-06-21T15:02:09Z</time>
      </trkpt>
      <trkpt lat="47.81423" lon="7.03234">
        <ele>884.07</ele>
        <time>2014-06-21T15:02:10Z</time>
      </trkpt>
      <trkpt lat="47.81425" lon="7.03235">
        <ele>885.99</ele>
        <time>2014-06-21T15:02:12Z</time>
      </trkpt>
      <trkpt lat="47.81428" lon="7.03235">
        <ele>886.95</ele>
        <time>2014-06-21T15:02:14Z</time>
      </trkpt>
      <trkpt lat="47.81429" lon="7.03235">
        <ele>889.36</ele>
        <time>2014-06-21T15:02:15Z</time>
      </trkpt>
      <trkpt lat="47.8143" lon="7.03235">
        <ele>887.91</ele>
        <time>2014-06-21T15:02:16Z</time>
      </trkpt>
      <trkpt lat="47.81431" lon="7.03235">
        <ele>890.32</ele>
        <time>2014-06-21T15:02:17Z</time>
      </trkpt>
      <trkpt lat="47.81432" lon="7.03235">
        <ele>884.07</ele>
        <time>2014-06-21T15:02:18Z</time>
      </trkpt>
      <trkpt lat="47.81433" lon="7.03235">
        <ele>883.59</ele>
        <time>2014-06-21T15:02:19Z</time>
      </trkpt>
      <trkpt lat="47.81434" lon="7.03235">
        <ele>887.91</ele>
        <time>2014-06-21T15:02:20Z</time>
      </trkpt>
      <trkpt lat="47.81435" lon="7.03235">
        <ele>887.91</ele>
        <time>2014-06-21T15:02:21Z</time>
      </trkpt>
      <trkpt lat="47.81437" lon="7.03234">
        <ele>890.32</ele>
        <time>2014-06-21T15:02:23Z</time>
      </trkpt>
      <trkpt lat="47.81439" lon="7.03234">
        <ele>892.24</ele>
        <time>2014-06-21T15:02:25Z</time>
      </trkpt>
      <trkpt lat="47.8144" lon="7.03234">
        <ele>883.11</ele>
        <time>2014-06-21T15:02:26Z</time>
      </trkpt>
      <trkpt lat="47.81442" lon="7.03234">
        <ele>884.07</ele>
        <time>2014-06-21T15:02:27Z</time>
      </trkpt>
      <trkpt lat="47.81447" lon="7.03234">
        <ele>889.84</ele>
        <time>2014-06-21T15:02:31Z</time>
      </trkpt>
      <trkpt lat="47.81448" lon="7.03234">
        <ele>891.76</ele>
        <time>2014-06-21T15:02:32Z</time>
      </trkpt>
      <trkpt lat="47.8145" lon="7.03234">
        <ele>893.68</ele>
        <time>2014-06-21T15:02:33Z</time>
      </trkpt>
      <trkpt lat="47.81451" lon="7.03234">
        <ele>887.91</ele>
        <time>2014-06-21T15:02:34Z</time>
      </trkpt>
      <trkpt lat="47.81453" lon="7.03234">
        <ele>886.47</ele>
        <time>2014-06-21T15:02:35Z</time>
      </trkpt>
      <trkpt lat="47.81454" lon="7.03234">
        <ele>890.32</ele>
        <time>2014-06-21T15:02:36Z</time>
      </trkpt>
      <trkpt lat="47.81455" lon="7.03234">
        <ele>891.28</ele>
        <time>2014-06-21T15:02:37Z</time>
      </trkpt>
      <trkpt lat="47.81457" lon="7.03234">
        <ele>894.64</ele>
        <time>2014-06-21T15:02:38Z</time>
      </trkpt>
      <trkpt lat="47.81458" lon="7.03234">
        <ele>894.64</ele>
        <time>2014-06-21T15:02:39Z</time>
      </trkpt>
      <trkpt lat="47.81459" lon="7.03234">
        <ele>890.8</ele>
        <time>2014-06-21T15:02:40Z</time>
      </trkpt>
      <trkpt lat="47.81461" lon="7.03233">
        <ele>885.99</ele>
        <time>2014-06-21T15:02:41Z</time>
      </trkpt>
      <trkpt lat="47.81462" lon="7.03233">
        <ele>884.55</ele>
        <time>2014-06-21T15:02:42Z</time>
      </trkpt>
      <trkpt lat="47.81464" lon="7.03233">
        <ele>890.8</ele>
        <time>2014-06-21T15:02:43Z</time>
      </trkpt>
      <trkpt lat="47.81466" lon="7.03232">
        <ele>893.68</ele>
        <time>2014-06-21T15:02:45Z</time>
      </trkpt>
      <trkpt lat="47.81468" lon="7.03231">
        <ele>888.4</ele>
        <time>2014-06-21T15:02:47Z</time>
      </trkpt>
      <trkpt lat="47.81469" lon="7.03231">
        <ele>888.4</ele>
        <time>2014-06-21T15:02:48Z</time>
      </trkpt>
      <trkpt lat="47.81471" lon="7.03231">
        <ele>884.55</ele>
        <time>2014-06-21T15:02:49Z</time>
      </trkpt>
      <trkpt lat="47.81472" lon="7.03232">
        <ele>892.72</ele>
        <time>2014-06-21T15:02:50Z</time>
      </trkpt>
      <trkpt lat="47.81473" lon="7.03232">
        <ele>892.72</ele>
        <time>2014-06-21T15:02:51Z</time>
      </trkpt>
      <trkpt lat="47.81474" lon="7.03232">
        <ele>892.72</ele>
        <time>2014-06-21T15:02:52Z</time>
      </trkpt>
      <trkpt lat="47.81476" lon="7.03232">
        <ele>895.12</ele>
        <time>2014-06-21T15:02:54Z</time>
      </trkpt>
      <trkpt lat="47.81476" lon="7.03231">
        <ele>893.2</ele>
        <time>2014-06-21T15:02:55Z</time>
      </trkpt>
      <trkpt lat="47.81477" lon="7.03231">
        <ele>897.53</ele>
        <time>2014-06-21T15:02:56Z</time>
      </trkpt>
      <trkpt lat="47.81478" lon="7.0323">
        <ele>888.4</ele>
        <time>2014-06-21T15:02:57Z</time>
      </trkpt>
      <trkpt lat="47.8148" lon="7.03229">
        <ele>888.4</ele>
        <time>2014-06-21T15:02:58Z</time>
      </trkpt>
      <trkpt lat="47.81483" lon="7.03228">
        <ele>894.16</ele>
        <time>2014-06-21T15:03:00Z</time>
      </trkpt>
      <trkpt lat="47.81484" lon="7.03227">
        <ele>898.49</ele>
        <time>2014-06-21T15:03:01Z</time>
      </trkpt>
      <trkpt lat="47.81486" lon="7.03227">
        <ele>898.49</ele>
        <time>2014-06-21T15:03:02Z</time>
      </trkpt>
      <trkpt lat="47.81487" lon="7.03226">
        <ele>900.41</ele>
        <time>2014-06-21T15:03:03Z</time>
      </trkpt>
      <trkpt lat="47.81489" lon="7.03226">
        <ele>890.32</ele>
        <time>2014-06-21T15:03:04Z</time>
      </trkpt>
      <trkpt lat="47.81493" lon="7.03227">
        <ele>895.61</ele>
        <time>2014-06-21T15:03:07Z</time>
      </trkpt>
      <trkpt lat="47.81495" lon="7.03227">
        <ele>898.97</ele>
        <time>2014-06-21T15:03:08Z</time>
      </trkpt>
      <trkpt lat="47.81496" lon="7.03228">
        <ele>892.72</ele>
        <time>2014-06-21T15:03:09Z</time>
      </trkpt>
      <trkpt lat="47.81497" lon="7.03229">
        <ele>891.28</ele>
        <time>2014-06-21T15:03:10Z</time>
      </trkpt>
      <trkpt lat="47.81499" lon="7.03229">
        <ele>891.76</ele>
        <time>2014-06-21T15:03:11Z</time>
      </trkpt>
      <trkpt lat="47.81502" lon="7.03229">
        <ele>895.61</ele>
        <time>2014-06-21T15:03:14Z</time>
      </trkpt>
      <trkpt lat="47.81503" lon="7.03228">
        <ele>898.97</ele>
        <time>2014-06-21T15:03:15Z</time>
      </trkpt>
      <trkpt lat="47.81504" lon="7.03228">
        <ele>892.72</ele>
        <time>2014-06-21T15:03:16Z</time>
      </trkpt>
      <trkpt lat="47.81505" lon="7.03227">
        <ele>899.45</ele>
        <time>2014-06-21T15:03:17Z</time>
      </trkpt>
      <trkpt lat="47.81506" lon="7.03226">
        <ele>894.16</ele>
        <time>2014-06-21T15:03:18Z</time>
      </trkpt>
      <trkpt lat="47.81508" lon="7.03224">
        <ele>897.53</ele>
        <time>2014-06-21T15:03:20Z</time>
      </trkpt>
      <trkpt lat="47.8151" lon="7.03223">
        <ele>898.49</ele>
        <time>2014-06-21T15:03:21Z</time>
      </trkpt>
      <trkpt lat="47.81511" lon="7.03222">
        <ele>899.93</ele>
        <time>2014-06-21T15:03:22Z</time>
      </trkpt>
      <trkpt lat="47.81512" lon="7.03221">
        <ele>895.12</ele>
        <time>2014-06-21T15:03:23Z</time>
      </trkpt>
      <trkpt lat="47.81513" lon="7.0322">
        <ele>895.12</ele>
        <time>2014-06-21T15:03:24Z</time>
      </trkpt>
      <trkpt lat="47.81516" lon="7.03218">
        <ele>898.01</ele>
        <time>2014-06-21T15:03:27Z</time>
      </trkpt>
      <trkpt lat="47.81518" lon="7.03216">
        <ele>897.53</ele>
        <time>2014-06-21T15:03:29Z</time>
      </trkpt>
      <trkpt lat="47.81519" lon="7.03215">
        <ele>899.93</ele>
        <time>2014-06-21T15:03:31Z</time>
      </trkpt>
      <trkpt lat="47.81521" lon="7.03214">
        <ele>902.33</ele>
        <time>2014-06-21T15:03:34Z</time>
      </trkpt>
      <trkpt lat="47.81524" lon="7.03211">
        <ele>901.37</ele>
        <time>2014-06-21T15:03:38Z</time>
      </trkpt>
      <trkpt lat="47.81528" lon="7.03211">
        <ele>898.97</ele>
        <time>2014-06-21T15:03:40Z</time>
      </trkpt>
      <trkpt lat="47.81531" lon="7.03208">
        <ele>895.12</ele>
        <time>2014-06-21T15:03:43Z</time>
      </trkpt>
      <trkpt lat="47.81532" lon="7.03208">
        <ele>895.12</ele>
        <time>2014-06-21T15:03:44Z</time>
      </trkpt>
      <trkpt lat="47.81533" lon="7.03207">
        <ele>899.45</ele>
        <time>2014-06-21T15:03:45Z</time>
      </trkpt>
      <trkpt lat="47.81535" lon="7.03205">
        <ele>894.64</ele>
        <time>2014-06-21T15:03:47Z</time>
      </trkpt>
      <trkpt lat="47.81536" lon="7.03204">
        <ele>898.97</ele>
        <time>2014-06-21T15:03:48Z</time>
      </trkpt>
      <trkpt lat="47.81537" lon="7.03203">
        <ele>898.97</ele>
        <time>2014-06-21T15:03:49Z</time>
      </trkpt>
      <trkpt lat="47.81539" lon="7.03199">
        <ele>894.16</ele>
        <time>2014-06-21T15:03:51Z</time>
      </trkpt>
      <trkpt lat="47.8154" lon="7.03198">
        <ele>891.76</ele>
        <time>2014-06-21T15:03:52Z</time>
      </trkpt>
      <trkpt lat="47.81541" lon="7.03197">
        <ele>903.78</ele>
        <time>2014-06-21T15:03:53Z</time>
      </trkpt>
      <trkpt lat="47.81546" lon="7.03192">
        <ele>901.85</ele>
        <time>2014-06-21T15:03:58Z</time>
      </trkpt>
      <trkpt lat="47.81547" lon="7.03191">
        <ele>898.97</ele>
        <time>2014-06-21T15:03:59Z</time>
      </trkpt>
      <trkpt lat="47.81548" lon="7.03191">
        <ele>896.09</ele>
        <time>2014-06-21T15:04:00Z</time>
      </trkpt>
      <trkpt lat="47.81549" lon="7.0319">
        <ele>900.89</ele>
        <time>2014-06-21T15:04:02Z</time>
      </trkpt>
      <trkpt lat="47.8155" lon="7.03188">
        <ele>903.78</ele>
        <time>2014-06-21T15:04:04Z</time>
      </trkpt>
      <trkpt lat="47.81551" lon="7.03187">
        <ele>903.78</ele>
        <time>2014-06-21T15:04:05Z</time>
      </trkpt>
      <trkpt lat="47.81552" lon="7.03185">
        <ele>905.7</ele>
        <time>2014-06-21T15:04:06Z</time>
      </trkpt>
      <trkpt lat="47.81552" lon="7.03184">
        <ele>903.78</ele>
        <time>2014-06-21T15:04:07Z</time>
      </trkpt>
      <trkpt lat="47.81553" lon="7.03183">
        <ele>901.85</ele>
        <time>2014-06-21T15:04:08Z</time>
      </trkpt>
      <trkpt lat="47.81555" lon="7.03181">
        <ele>900.89</ele>
        <time>2014-06-21T15:04:10Z</time>
      </trkpt>
      <trkpt lat="47.81556" lon="7.0318">
        <ele>899.45</ele>
        <time>2014-06-21T15:04:11Z</time>
      </trkpt>
      <trkpt lat="47.81557" lon="7.03178">
        <ele>897.53</ele>
        <time>2014-06-21T15:04:12Z</time>
      </trkpt>
      <trkpt lat="47.81558" lon="7.03177">
        <ele>897.53</ele>
        <time>2014-06-21T15:04:13Z</time>
      </trkpt>
      <trkpt lat="47.81559" lon="7.03176">
        <ele>903.3</ele>
        <time>2014-06-21T15:04:14Z</time>
      </trkpt>
      <trkpt lat="47.81559" lon="7.03175">
        <ele>904.74</ele>
        <time>2014-06-21T15:04:15Z</time>
      </trkpt>
      <trkpt lat="47.81562" lon="7.03171">
        <ele>908.58</ele>
        <time>2014-06-21T15:04:18Z</time>
      </trkpt>
      <trkpt lat="47.81563" lon="7.0317">
        <ele>904.26</ele>
        <time>2014-06-21T15:04:19Z</time>
      </trkpt>
      <trkpt lat="47.81564" lon="7.03169">
        <ele>900.41</ele>
        <time>2014-06-21T15:04:20Z</time>
      </trkpt>
      <trkpt lat="47.81566" lon="7.03167">
        <ele>900.89</ele>
        <time>2014-06-21T15:04:21Z</time>
      </trkpt>
      <trkpt lat="47.81567" lon="7.03166">
        <ele>904.74</ele>
        <time>2014-06-21T15:04:22Z</time>
      </trkpt>
      <trkpt lat="47.81569" lon="7.03164">
        <ele>906.18</ele>
        <time>2014-06-21T15:04:24Z</time>
      </trkpt>
      <trkpt lat="47.81571" lon="7.03162">
        <ele>909.54</ele>
        <time>2014-06-21T15:04:26Z</time>
      </trkpt>
      <trkpt lat="47.81572" lon="7.03161">
        <ele>904.74</ele>
        <time>2014-06-21T15:04:27Z</time>
      </trkpt>
      <trkpt lat="47.81573" lon="7.0316">
        <ele>904.74</ele>
        <time>2014-06-21T15:04:28Z</time>
      </trkpt>
      <trkpt lat="47.81574" lon="7.03159">
        <ele>908.1</ele>
        <time>2014-06-21T15:04:29Z</time>
      </trkpt>
      <trkpt lat="47.81574" lon="7.03158">
        <ele>898.49</ele>
        <time>2014-06-21T15:04:30Z</time>
      </trkpt>
      <trkpt lat="47.81575" lon="7.03157">
        <ele>901.37</ele>
        <time>2014-06-21T15:04:31Z</time>
      </trkpt>
      <trkpt lat="47.81576" lon="7.03156">
        <ele>905.22</ele>
        <time>2014-06-21T15:04:33Z</time>
      </trkpt>
      <trkpt lat="47.81577" lon="7.03155">
        <ele>909.06</ele>
        <time>2014-06-21T15:04:34Z</time>
      </trkpt>
      <trkpt lat="47.81578" lon="7.03154">
        <ele>911.47</ele>
        <time>2014-06-21T15:04:35Z</time>
      </trkpt>
      <trkpt lat="47.81578" lon="7.03152">
        <ele>898.49</ele>
        <time>2014-06-21T15:04:36Z</time>
      </trkpt>
      <trkpt lat="47.8158" lon="7.03149">
        <ele>909.54</ele>
        <time>2014-06-21T15:04:39Z</time>
      </trkpt>
      <trkpt lat="47.81581" lon="7.03147">
        <ele>912.43</ele>
        <time>2014-06-21T15:04:40Z</time>
      </trkpt>
      <trkpt lat="47.81581" lon="7.03146">
        <ele>908.58</ele>
        <time>2014-06-21T15:04:41Z</time>
      </trkpt>
      <trkpt lat="47.81582" lon="7.03144">
        <ele>903.3</ele>
        <time>2014-06-21T15:04:42Z</time>
      </trkpt>
      <trkpt lat="47.81583" lon="7.03142">
        <ele>908.58</ele>
        <time>2014-06-21T15:04:44Z</time>
      </trkpt>
      <trkpt lat="47.81584" lon="7.03141">
        <ele>911.47</ele>
        <time>2014-06-21T15:04:45Z</time>
      </trkpt>
      <trkpt lat="47.81585" lon="7.03139">
        <ele>908.1</ele>
        <time>2014-06-21T15:04:46Z</time>
      </trkpt>
      <trkpt lat="47.81585" lon="7.03138">
        <ele>908.58</ele>
        <time>2014-06-21T15:04:47Z</time>
      </trkpt>
      <trkpt lat="47.81586" lon="7.03136">
        <ele>903.78</ele>
        <time>2014-06-21T15:04:48Z</time>
      </trkpt>
      <trkpt lat="47.81587" lon="7.03133">
        <ele>908.1</ele>
        <time>2014-06-21T15:04:50Z</time>
      </trkpt>
      <trkpt lat="47.81588" lon="7.03132">
        <ele>910.03</ele>
        <time>2014-06-21T15:04:51Z</time>
      </trkpt>
      <trkpt lat="47.81589" lon="7.0313">
        <ele>905.7</ele>
        <time>2014-06-21T15:04:53Z</time>
      </trkpt>
      <trkpt lat="47.8159" lon="7.03129">
        <ele>905.7</ele>
        <time>2014-06-21T15:04:54Z</time>
      </trkpt>
      <trkpt lat="47.81592" lon="7.03127">
        <ele>910.51</ele>
        <time>2014-06-21T15:04:56Z</time>
      </trkpt>
      <trkpt lat="47.81593" lon="7.03126">
        <ele>916.27</ele>
        <time>2014-06-21T15:04:57Z</time>
      </trkpt>
      <trkpt lat="47.81594" lon="7.03125">
        <ele>916.27</ele>
        <time>2014-06-21T15:04:58Z</time>
      </trkpt>
      <trkpt lat="47.81594" lon="7.03125">
        <ele>905.7</ele>
        <time>2014-06-21T15:04:59Z</time>
      </trkpt>
      <trkpt lat="47.81594" lon="7.03123">
        <ele>913.39</ele>
        <time>2014-06-21T15:05:02Z</time>
      </trkpt>
      <trkpt lat="47.81595" lon="7.03122">
        <ele>913.39</ele>
        <time>2014-06-21T15:05:03Z</time>
      </trkpt>
      <trkpt lat="47.81595" lon="7.03122">
        <ele>918.2</ele>
        <time>2014-06-21T15:05:04Z</time>
      </trkpt>
      <trkpt lat="47.81595" lon="7.03122">
        <ele>908.58</ele>
        <time>2014-06-21T15:05:05Z</time>
      </trkpt>
      <trkpt lat="47.81595" lon="7.03121">
        <ele>910.99</ele>
        <time>2014-06-21T15:05:07Z</time>
      </trkpt>
      <trkpt lat="47.81595" lon="7.03121">
        <ele>914.35</ele>
        <time>2014-06-21T15:05:08Z</time>
      </trkpt>
      <trkpt lat="47.81597" lon="7.03119">
        <ele>910.51</ele>
        <time>2014-06-21T15:05:10Z</time>
      </trkpt>
      <trkpt lat="47.81598" lon="7.03118">
        <ele>910.51</ele>
        <time>2014-06-21T15:05:11Z</time>
      </trkpt>
      <trkpt lat="47.81599" lon="7.03117">
        <ele>907.14</ele>
        <time>2014-06-21T15:05:12Z</time>
      </trkpt>
      <trkpt lat="47.816" lon="7.03116">
        <ele>911.47</ele>
        <time>2014-06-21T15:05:13Z</time>
      </trkpt>
      <trkpt lat="47.81601" lon="7.03115">
        <ele>913.39</ele>
        <time>2014-06-21T15:05:14Z</time>
      </trkpt>
      <trkpt lat="47.81601" lon="7.03113">
        <ele>914.83</ele>
        <time>2014-06-21T15:05:15Z</time>
      </trkpt>
      <trkpt lat="47.81601" lon="7.03113">
        <ele>909.06</ele>
        <time>2014-06-21T15:05:16Z</time>
      </trkpt>
      <trkpt lat="47.81602" lon="7.03113">
        <ele>909.06</ele>
        <time>2014-06-21T15:05:17Z</time>
      </trkpt>
      <trkpt lat="47.81603" lon="7.03112">
        <ele>912.91</ele>
        <time>2014-06-21T15:05:18Z</time>
      </trkpt>
      <trkpt lat="47.81603" lon="7.03112">
        <ele>912.91</ele>
        <time>2014-06-21T15:05:19Z</time>
      </trkpt>
      <trkpt lat="47.81609" lon="7.031">
        <ele>917.72</ele>
        <time>2014-06-21T15:05:23Z</time>
      </trkpt>
      <trkpt lat="47.8161" lon="7.03098">
        <ele>912.43</ele>
        <time>2014-06-21T15:05:24Z</time>
      </trkpt>
      <trkpt lat="47.81611" lon="7.03096">
        <ele>916.27</ele>
        <time>2014-06-21T15:05:25Z</time>
      </trkpt>
      <trkpt lat="47.81611" lon="7.03094">
        <ele>912.43</ele>
        <time>2014-06-21T15:05:26Z</time>
      </trkpt>
      <trkpt lat="47.81612" lon="7.03092">
        <ele>912.43</ele>
        <time>2014-06-21T15:05:27Z</time>
      </trkpt>
      <trkpt lat="47.81613" lon="7.0309">
        <ele>912.43</ele>
        <time>2014-06-21T15:05:28Z</time>
      </trkpt>
      <trkpt lat="47.81614" lon="7.03089">
        <ele>912.43</ele>
        <time>2014-06-21T15:05:29Z</time>
      </trkpt>
      <trkpt lat="47.81615" lon="7.03087">
        <ele>910.99</ele>
        <time>2014-06-21T15:05:30Z</time>
      </trkpt>
      <trkpt lat="47.81616" lon="7.03082">
        <ele>919.16</ele>
        <time>2014-06-21T15:05:33Z</time>
      </trkpt>
      <trkpt lat="47.81617" lon="7.03079">
        <ele>915.79</ele>
        <time>2014-06-21T15:05:35Z</time>
      </trkpt>
      <trkpt lat="47.81618" lon="7.03078">
        <ele>921.08</ele>
        <time>2014-06-21T15:05:36Z</time>
      </trkpt>
      <trkpt lat="47.81619" lon="7.03075">
        <ele>913.39</ele>
        <time>2014-06-21T15:05:38Z</time>
      </trkpt>
      <trkpt lat="47.81621" lon="7.03072">
        <ele>922.52</ele>
        <time>2014-06-21T15:05:41Z</time>
      </trkpt>
      <trkpt lat="47.81621" lon="7.0307">
        <ele>912.43</ele>
        <time>2014-06-21T15:05:42Z</time>
      </trkpt>
      <trkpt lat="47.81621" lon="7.03068">
        <ele>917.24</ele>
        <time>2014-06-21T15:05:43Z</time>
      </trkpt>
      <trkpt lat="47.81621" lon="7.03066">
        <ele>923.96</ele>
        <time>2014-06-21T15:05:44Z</time>
      </trkpt>
      <trkpt lat="47.81621" lon="7.03065">
        <ele>918.2</ele>
        <time>2014-06-21T15:05:45Z</time>
      </trkpt>
      <trkpt lat="47.81623" lon="7.03062">
        <ele>923.96</ele>
        <time>2014-06-21T15:05:48Z</time>
      </trkpt>
      <trkpt lat="47.81624" lon="7.03061">
        <ele>922.52</ele>
        <time>2014-06-21T15:05:49Z</time>
      </trkpt>
      <trkpt lat="47.81624" lon="7.0306">
        <ele>921.08</ele>
        <time>2014-06-21T15:05:50Z</time>
      </trkpt>
      <trkpt lat="47.81627" lon="7.03057">
        <ele>916.75</ele>
        <time>2014-06-21T15:05:53Z</time>
      </trkpt>
      <trkpt lat="47.81627" lon="7.03056">
        <ele>919.64</ele>
        <time>2014-06-21T15:05:54Z</time>
      </trkpt>
      <trkpt lat="47.81628" lon="7.03054">
        <ele>925.89</ele>
        <time>2014-06-21T15:05:55Z</time>
      </trkpt>
      <trkpt lat="47.81629" lon="7.03051">
        <ele>925.41</ele>
        <time>2014-06-21T15:05:57Z</time>
      </trkpt>
      <trkpt lat="47.81629" lon="7.0305">
        <ele>925.41</ele>
        <time>2014-06-21T15:05:58Z</time>
      </trkpt>
      <trkpt lat="47.81629" lon="7.0305">
        <ele>916.75</ele>
        <time>2014-06-21T15:05:59Z</time>
      </trkpt>
      <trkpt lat="47.81629" lon="7.03049">
        <ele>925.41</ele>
        <time>2014-06-21T15:06:00Z</time>
      </trkpt>
      <trkpt lat="47.8163" lon="7.03048">
        <ele>916.75</ele>
        <time>2014-06-21T15:06:01Z</time>
      </trkpt>
      <trkpt lat="47.8163" lon="7.03046">
        <ele>922.52</ele>
        <time>2014-06-21T15:06:03Z</time>
      </trkpt>
      <trkpt lat="47.8163" lon="7.03044">
        <ele>925.41</ele>
        <time>2014-06-21T15:06:04Z</time>
      </trkpt>
      <trkpt lat="47.81631" lon="7.03043">
        <ele>917.72</ele>
        <time>2014-06-21T15:06:05Z</time>
      </trkpt>
      <trkpt lat="47.81631" lon="7.03042">
        <ele>922.52</ele>
        <time>2014-06-21T15:06:06Z</time>
      </trkpt>
      <trkpt lat="47.81632" lon="7.03041">
        <ele>925.41</ele>
        <time>2014-06-21T15:06:07Z</time>
      </trkpt>
      <trkpt lat="47.81632" lon="7.03039">
        <ele>917.72</ele>
        <time>2014-06-21T15:06:08Z</time>
      </trkpt>
      <trkpt lat="47.81633" lon="7.03038">
        <ele>923</ele>
        <time>2014-06-21T15:06:09Z</time>
      </trkpt>
      <trkpt lat="47.81633" lon="7.03037">
        <ele>927.81</ele>
        <time>2014-06-21T15:06:10Z</time>
      </trkpt>
      <trkpt lat="47.81634" lon="7.03036">
        <ele>927.81</ele>
        <time>2014-06-21T15:06:11Z</time>
      </trkpt>
      <trkpt lat="47.81635" lon="7.03035">
        <ele>919.16</ele>
        <time>2014-06-21T15:06:12Z</time>
      </trkpt>
      <trkpt lat="47.81636" lon="7.03033">
        <ele>923.48</ele>
        <time>2014-06-21T15:06:14Z</time>
      </trkpt>
      <trkpt lat="47.81636" lon="7.03031">
        <ele>927.33</ele>
        <time>2014-06-21T15:06:15Z</time>
      </trkpt>
      <trkpt lat="47.81636" lon="7.03027">
        <ele>922.04</ele>
        <time>2014-06-21T15:06:17Z</time>
      </trkpt>
      <trkpt lat="47.81636" lon="7.03021">
        <ele>928.77</ele>
        <time>2014-06-21T15:06:20Z</time>
      </trkpt>
      <trkpt lat="47.81636" lon="7.03016">
        <ele>924.93</ele>
        <time>2014-06-21T15:06:22Z</time>
      </trkpt>
      <trkpt lat="47.81636" lon="7.03015">
        <ele>920.12</ele>
        <time>2014-06-21T15:06:23Z</time>
      </trkpt>
      <trkpt lat="47.81637" lon="7.03013">
        <ele>925.89</ele>
        <time>2014-06-21T15:06:24Z</time>
      </trkpt>
      <trkpt lat="47.81637" lon="7.03011">
        <ele>931.17</ele>
        <time>2014-06-21T15:06:25Z</time>
      </trkpt>
      <trkpt lat="47.81637" lon="7.03009">
        <ele>929.73</ele>
        <time>2014-06-21T15:06:26Z</time>
      </trkpt>
      <trkpt lat="47.81637" lon="7.03007">
        <ele>926.85</ele>
        <time>2014-06-21T15:06:27Z</time>
      </trkpt>
      <trkpt lat="47.81638" lon="7.03006">
        <ele>926.37</ele>
        <time>2014-06-21T15:06:28Z</time>
      </trkpt>
      <trkpt lat="47.8164" lon="7.0299">
        <ele>929.73</ele>
        <time>2014-06-21T15:06:38Z</time>
      </trkpt>
      <trkpt lat="47.8164" lon="7.02988">
        <ele>928.77</ele>
        <time>2014-06-21T15:06:39Z</time>
      </trkpt>
      <trkpt lat="47.81643" lon="7.02976">
        <ele>924.93</ele>
        <time>2014-06-21T15:06:46Z</time>
      </trkpt>
      <trkpt lat="47.81643" lon="7.02974">
        <ele>931.65</ele>
        <time>2014-06-21T15:06:47Z</time>
      </trkpt>
      <trkpt lat="47.81646" lon="7.02969">
        <ele>926.85</ele>
        <time>2014-06-21T15:06:51Z</time>
      </trkpt>
      <trkpt lat="47.81647" lon="7.02966">
        <ele>925.89</ele>
        <time>2014-06-21T15:06:53Z</time>
      </trkpt>
      <trkpt lat="47.81648" lon="7.02965">
        <ele>929.25</ele>
        <time>2014-06-21T15:06:54Z</time>
      </trkpt>
      <trkpt lat="47.81649" lon="7.02964">
        <ele>931.17</ele>
        <time>2014-06-21T15:06:55Z</time>
      </trkpt>
      <trkpt lat="47.8165" lon="7.02962">
        <ele>927.33</ele>
        <time>2014-06-21T15:06:57Z</time>
      </trkpt>
      <trkpt lat="47.81651" lon="7.02959">
        <ele>922.04</ele>
        <time>2014-06-21T15:06:59Z</time>
      </trkpt>
      <trkpt lat="47.81651" lon="7.02957">
        <ele>926.85</ele>
        <time>2014-06-21T15:07:00Z</time>
      </trkpt>
      <trkpt lat="47.81652" lon="7.02956">
        <ele>930.69</ele>
        <time>2014-06-21T15:07:01Z</time>
      </trkpt>
      <trkpt lat="47.81653" lon="7.02955">
        <ele>934.06</ele>
        <time>2014-06-21T15:07:02Z</time>
      </trkpt>
      <trkpt lat="47.81654" lon="7.02954">
        <ele>928.77</ele>
        <time>2014-06-21T15:07:03Z</time>
      </trkpt>
      <trkpt lat="47.81656" lon="7.0295">
        <ele>932.14</ele>
        <time>2014-06-21T15:07:06Z</time>
      </trkpt>
      <trkpt lat="47.81657" lon="7.0295">
        <ele>929.25</ele>
        <time>2014-06-21T15:07:07Z</time>
      </trkpt>
      <trkpt lat="47.8166" lon="7.02942">
        <ele>933.1</ele>
        <time>2014-06-21T15:07:13Z</time>
      </trkpt>
      <trkpt lat="47.81661" lon="7.02937">
        <ele>929.25</ele>
        <time>2014-06-21T15:07:16Z</time>
      </trkpt>
      <trkpt lat="47.81663" lon="7.02932">
        <ele>933.58</ele>
        <time>2014-06-21T15:07:20Z</time>
      </trkpt>
      <trkpt lat="47.81663" lon="7.0293">
        <ele>932.14</ele>
        <time>2014-06-21T15:07:21Z</time>
      </trkpt>
      <trkpt lat="47.81664" lon="7.02929">
        <ele>936.46</ele>
        <time>2014-06-21T15:07:22Z</time>
      </trkpt>
      <trkpt lat="47.81665" lon="7.02928">
        <ele>931.17</ele>
        <time>2014-06-21T15:07:23Z</time>
      </trkpt>
      <trkpt lat="47.81666" lon="7.02925">
        <ele>930.69</ele>
        <time>2014-06-21T15:07:25Z</time>
      </trkpt>
      <trkpt lat="47.81667" lon="7.02924">
        <ele>935.5</ele>
        <time>2014-06-21T15:07:26Z</time>
      </trkpt>
      <trkpt lat="47.81667" lon="7.02923">
        <ele>933.1</ele>
        <time>2014-06-21T15:07:27Z</time>
      </trkpt>
      <trkpt lat="47.81667" lon="7.02921">
        <ele>928.77</ele>
        <time>2014-06-21T15:07:28Z</time>
      </trkpt>
      <trkpt lat="47.81667" lon="7.0292">
        <ele>933.58</ele>
        <time>2014-06-21T15:07:29Z</time>
      </trkpt>
      <trkpt lat="47.81667" lon="7.02914">
        <ele>937.42</ele>
        <time>2014-06-21T15:07:36Z</time>
      </trkpt>
      <trkpt lat="47.81667" lon="7.02913">
        <ele>931.17</ele>
        <time>2014-06-21T15:07:37Z</time>
      </trkpt>
      <trkpt lat="47.81667" lon="7.02912">
        <ele>935.5</ele>
        <time>2014-06-21T15:07:38Z</time>
      </trkpt>
      <trkpt lat="47.81666" lon="7.02908">
        <ele>938.38</ele>
        <time>2014-06-21T15:07:42Z</time>
      </trkpt>
      <trkpt lat="47.81666" lon="7.02907">
        <ele>932.62</ele>
        <time>2014-06-21T15:07:43Z</time>
      </trkpt>
      <trkpt lat="47.81665" lon="7.02904">
        <ele>937.42</ele>
        <time>2014-06-21T15:07:46Z</time>
      </trkpt>
      <trkpt lat="47.81664" lon="7.02902">
        <ele>936.94</ele>
        <time>2014-06-21T15:07:47Z</time>
      </trkpt>
      <trkpt lat="47.81664" lon="7.02901">
        <ele>933.58</ele>
        <time>2014-06-21T15:07:48Z</time>
      </trkpt>
      <trkpt lat="47.81663" lon="7.029">
        <ele>934.06</ele>
        <time>2014-06-21T15:07:49Z</time>
      </trkpt>
      <trkpt lat="47.81663" lon="7.029">
        <ele>937.42</ele>
        <time>2014-06-21T15:07:50Z</time>
      </trkpt>
      <trkpt lat="47.81662" lon="7.02898">
        <ele>939.35</ele>
        <time>2014-06-21T15:07:52Z</time>
      </trkpt>
      <trkpt lat="47.81662" lon="7.02898">
        <ele>933.58</ele>
        <time>2014-06-21T15:07:53Z</time>
      </trkpt>
      <trkpt lat="47.81662" lon="7.02898">
        <ele>938.38</ele>
        <time>2014-06-21T15:07:54Z</time>
      </trkpt>
      <trkpt lat="47.81662" lon="7.02898">
        <ele>943.67</ele>
        <time>2014-06-21T15:07:56Z</time>
      </trkpt>
      <trkpt lat="47.81662" lon="7.02898">
        <ele>934.54</ele>
        <time>2014-06-21T15:07:57Z</time>
      </trkpt>
      <trkpt lat="47.81662" lon="7.02898">
        <ele>936.46</ele>
        <time>2014-06-21T15:07:58Z</time>
      </trkpt>
      <trkpt lat="47.81662" lon="7.02898">
        <ele>942.23</ele>
        <time>2014-06-21T15:07:59Z</time>
      </trkpt>
      <trkpt lat="47.81662" lon="7.02898">
        <ele>938.38</ele>
        <time>2014-06-21T15:08:00Z</time>
      </trkpt>
      <trkpt lat="47.81662" lon="7.02898">
        <ele>935.02</ele>
        <time>2014-06-21T15:08:06Z</time>
      </trkpt>
      <trkpt lat="47.8166" lon="7.02897">
        <ele>938.86</ele>
        <time>2014-06-21T15:08:07Z</time>
      </trkpt>
      <trkpt lat="47.81657" lon="7.02894">
        <ele>941.27</ele>
        <time>2014-06-21T15:08:09Z</time>
      </trkpt>
      <trkpt lat="47.81655" lon="7.02892">
        <ele>937.42</ele>
        <time>2014-06-21T15:08:10Z</time>
      </trkpt>
      <trkpt lat="47.81652" lon="7.02887">
        <ele>941.27</ele>
        <time>2014-06-21T15:08:13Z</time>
      </trkpt>
      <trkpt lat="47.81651" lon="7.02885">
        <ele>941.75</ele>
        <time>2014-06-21T15:08:14Z</time>
      </trkpt>
      <trkpt lat="47.8165" lon="7.02884">
        <ele>937.42</ele>
        <time>2014-06-21T15:08:15Z</time>
      </trkpt>
      <trkpt lat="47.8165" lon="7.02882">
        <ele>938.38</ele>
        <time>2014-06-21T15:08:16Z</time>
      </trkpt>
      <trkpt lat="47.81649" lon="7.02881">
        <ele>941.27</ele>
        <time>2014-06-21T15:08:17Z</time>
      </trkpt>
      <trkpt lat="47.81649" lon="7.02881">
        <ele>935.98</ele>
        <time>2014-06-21T15:08:20Z</time>
      </trkpt>
      <trkpt lat="47.81649" lon="7.02881">
        <ele>942.23</ele>
        <time>2014-06-21T15:08:21Z</time>
      </trkpt>
      <trkpt lat="47.81649" lon="7.02881">
        <ele>942.71</ele>
        <time>2014-06-21T15:08:22Z</time>
      </trkpt>
      <trkpt lat="47.81644" lon="7.02868">
        <ele>937.42</ele>
        <time>2014-06-21T15:08:28Z</time>
      </trkpt>
      <trkpt lat="47.81643" lon="7.02865">
        <ele>942.71</ele>
        <time>2014-06-21T15:08:29Z</time>
      </trkpt>
      <trkpt lat="47.81643" lon="7.02865">
        <ele>946.07</ele>
        <time>2014-06-21T15:08:30Z</time>
      </trkpt>
      <trkpt lat="47.81641" lon="7.02863">
        <ele>941.75</ele>
        <time>2014-06-21T15:08:31Z</time>
      </trkpt>
      <trkpt lat="47.81641" lon="7.02863">
        <ele>937.9</ele>
        <time>2014-06-21T15:08:32Z</time>
      </trkpt>
      <trkpt lat="47.81641" lon="7.02863">
        <ele>943.19</ele>
        <time>2014-06-21T15:08:33Z</time>
      </trkpt>
      <trkpt lat="47.81636" lon="7.02854">
        <ele>938.86</ele>
        <time>2014-06-21T15:08:36Z</time>
      </trkpt>
      <trkpt lat="47.81633" lon="7.02853">
        <ele>942.71</ele>
        <time>2014-06-21T15:08:37Z</time>
      </trkpt>
      <trkpt lat="47.81628" lon="7.02849">
        <ele>946.56</ele>
        <time>2014-06-21T15:08:40Z</time>
      </trkpt>
      <trkpt lat="47.81625" lon="7.02847">
        <ele>940.31</ele>
        <time>2014-06-21T15:08:42Z</time>
      </trkpt>
      <trkpt lat="47.81623" lon="7.02846">
        <ele>943.67</ele>
        <time>2014-06-21T15:08:43Z</time>
      </trkpt>
      <trkpt lat="47.8162" lon="7.02844">
        <ele>948</ele>
        <time>2014-06-21T15:08:45Z</time>
      </trkpt>
      <trkpt lat="47.81619" lon="7.02843">
        <ele>947.04</ele>
        <time>2014-06-21T15:08:46Z</time>
      </trkpt>
      <trkpt lat="47.81618" lon="7.02842">
        <ele>939.35</ele>
        <time>2014-06-21T15:08:47Z</time>
      </trkpt>
      <trkpt lat="47.81617" lon="7.0284">
        <ele>943.19</ele>
        <time>2014-06-21T15:08:48Z</time>
      </trkpt>
      <trkpt lat="47.81616" lon="7.02839">
        <ele>947.04</ele>
        <time>2014-06-21T15:08:49Z</time>
      </trkpt>
      <trkpt lat="47.81614" lon="7.02836">
        <ele>944.15</ele>
        <time>2014-06-21T15:08:51Z</time>
      </trkpt>
      <trkpt lat="47.81613" lon="7.02834">
        <ele>944.15</ele>
        <time>2014-06-21T15:08:52Z</time>
      </trkpt>
      <trkpt lat="47.81613" lon="7.02833">
        <ele>949.44</ele>
        <time>2014-06-21T15:08:53Z</time>
      </trkpt>
      <trkpt lat="47.81613" lon="7.02832">
        <ele>948</ele>
        <time>2014-06-21T15:08:54Z</time>
      </trkpt>
      <trkpt lat="47.81612" lon="7.02831">
        <ele>943.67</ele>
        <time>2014-06-21T15:08:55Z</time>
      </trkpt>
      <trkpt lat="47.81611" lon="7.0283">
        <ele>948</ele>
        <time>2014-06-21T15:08:56Z</time>
      </trkpt>
      <trkpt lat="47.8161" lon="7.02829">
        <ele>943.19</ele>
        <time>2014-06-21T15:08:57Z</time>
      </trkpt>
      <trkpt lat="47.81606" lon="7.02824">
        <ele>946.56</ele>
        <time>2014-06-21T15:09:01Z</time>
      </trkpt>
      <trkpt lat="47.81602" lon="7.02817">
        <ele>942.23</ele>
        <time>2014-06-21T15:09:07Z</time>
      </trkpt>
      <trkpt lat="47.81601" lon="7.02816">
        <ele>948</ele>
        <time>2014-06-21T15:09:08Z</time>
      </trkpt>
      <trkpt lat="47.81595" lon="7.02812">
        <ele>951.84</ele>
        <time>2014-06-21T15:09:13Z</time>
      </trkpt>
      <trkpt lat="47.81594" lon="7.02811">
        <ele>948</ele>
        <time>2014-06-21T15:09:14Z</time>
      </trkpt>
      <trkpt lat="47.81592" lon="7.0281">
        <ele>947.04</ele>
        <time>2014-06-21T15:09:16Z</time>
      </trkpt>
      <trkpt lat="47.81589" lon="7.02808">
        <ele>953.28</ele>
        <time>2014-06-21T15:09:18Z</time>
      </trkpt>
      <trkpt lat="47.81588" lon="7.02808">
        <ele>952.32</ele>
        <time>2014-06-21T15:09:19Z</time>
      </trkpt>
      <trkpt lat="47.81588" lon="7.02807">
        <ele>945.11</ele>
        <time>2014-06-21T15:09:20Z</time>
      </trkpt>
      <trkpt lat="47.81587" lon="7.02807">
        <ele>950.4</ele>
        <time>2014-06-21T15:09:21Z</time>
      </trkpt>
      <trkpt lat="47.81587" lon="7.02805">
        <ele>955.21</ele>
        <time>2014-06-21T15:09:23Z</time>
      </trkpt>
      <trkpt lat="47.81587" lon="7.02804">
        <ele>949.92</ele>
        <time>2014-06-21T15:09:24Z</time>
      </trkpt>
      <trkpt lat="47.81587" lon="7.02804">
        <ele>949.92</ele>
        <time>2014-06-21T15:09:25Z</time>
      </trkpt>
      <trkpt lat="47.81587" lon="7.02804">
        <ele>953.28</ele>
        <time>2014-06-21T15:09:26Z</time>
      </trkpt>
      <trkpt lat="47.81587" lon="7.02804">
        <ele>953.28</ele>
        <time>2014-06-21T15:09:27Z</time>
      </trkpt>
      <trkpt lat="47.81587" lon="7.02804">
        <ele>948</ele>
        <time>2014-06-21T15:09:28Z</time>
      </trkpt>
      <trkpt lat="47.81587" lon="7.02804">
        <ele>948.96</ele>
        <time>2014-06-21T15:09:29Z</time>
      </trkpt>
      <trkpt lat="47.81586" lon="7.02803">
        <ele>951.84</ele>
        <time>2014-06-21T15:09:30Z</time>
      </trkpt>
      <trkpt lat="47.81585" lon="7.02802">
        <ele>956.17</ele>
        <time>2014-06-21T15:09:31Z</time>
      </trkpt>
      <trkpt lat="47.81585" lon="7.028">
        <ele>952.32</ele>
        <time>2014-06-21T15:09:32Z</time>
      </trkpt>
      <trkpt lat="47.81578" lon="7.02789">
        <ele>949.44</ele>
        <time>2014-06-21T15:09:39Z</time>
      </trkpt>
      <trkpt lat="47.81574" lon="7.02781">
        <ele>952.8</ele>
        <time>2014-06-21T15:09:45Z</time>
      </trkpt>
      <trkpt lat="47.81573" lon="7.0278">
        <ele>950.88</ele>
        <time>2014-06-21T15:09:46Z</time>
      </trkpt>
      <trkpt lat="47.81568" lon="7.02776">
        <ele>955.69</ele>
        <time>2014-06-21T15:09:50Z</time>
      </trkpt>
      <trkpt lat="47.81567" lon="7.02774">
        <ele>951.84</ele>
        <time>2014-06-21T15:09:51Z</time>
      </trkpt>
      <trkpt lat="47.81565" lon="7.02771">
        <ele>949.92</ele>
        <time>2014-06-21T15:09:53Z</time>
      </trkpt>
      <trkpt lat="47.81563" lon="7.02768">
        <ele>955.21</ele>
        <time>2014-06-21T15:09:55Z</time>
      </trkpt>
      <trkpt lat="47.81563" lon="7.02766">
        <ele>954.73</ele>
        <time>2014-06-21T15:09:56Z</time>
      </trkpt>
      <trkpt lat="47.81558" lon="7.02759">
        <ele>952.32</ele>
        <time>2014-06-21T15:10:01Z</time>
      </trkpt>
      <trkpt lat="47.81554" lon="7.02754">
        <ele>958.09</ele>
        <time>2014-06-21T15:10:06Z</time>
      </trkpt>
      <trkpt lat="47.8155" lon="7.0275">
        <ele>954.73</ele>
        <time>2014-06-21T15:10:12Z</time>
      </trkpt>
      <trkpt lat="47.81549" lon="7.02749">
        <ele>954.73</ele>
        <time>2014-06-21T15:10:13Z</time>
      </trkpt>
      <trkpt lat="47.81548" lon="7.02745">
        <ele>959.05</ele>
        <time>2014-06-21T15:10:16Z</time>
      </trkpt>
      <trkpt lat="47.81548" lon="7.02745">
        <ele>955.21</ele>
        <time>2014-06-21T15:10:17Z</time>
      </trkpt>
      <trkpt lat="47.81547" lon="7.02744">
        <ele>955.21</ele>
        <time>2014-06-21T15:10:18Z</time>
      </trkpt>
      <trkpt lat="47.81546" lon="7.0274">
        <ele>959.05</ele>
        <time>2014-06-21T15:10:21Z</time>
      </trkpt>
      <trkpt lat="47.81545" lon="7.02738">
        <ele>955.69</ele>
        <time>2014-06-21T15:10:23Z</time>
      </trkpt>
      <trkpt lat="47.81545" lon="7.02737">
        <ele>952.32</ele>
        <time>2014-06-21T15:10:24Z</time>
      </trkpt>
      <trkpt lat="47.81544" lon="7.02736">
        <ele>958.09</ele>
        <time>2014-06-21T15:10:25Z</time>
      </trkpt>
      <trkpt lat="47.81543" lon="7.02734">
        <ele>954.73</ele>
        <time>2014-06-21T15:10:27Z</time>
      </trkpt>
      <trkpt lat="47.81543" lon="7.02732">
        <ele>955.69</ele>
        <time>2014-06-21T15:10:28Z</time>
      </trkpt>
      <trkpt lat="47.81543" lon="7.02728">
        <ele>958.09</ele>
        <time>2014-06-21T15:10:30Z</time>
      </trkpt>
      <trkpt lat="47.81541" lon="7.02723">
        <ele>960.01</ele>
        <time>2014-06-21T15:10:35Z</time>
      </trkpt>
      <trkpt lat="47.8154" lon="7.0272">
        <ele>959.05</ele>
        <time>2014-06-21T15:10:37Z</time>
      </trkpt>
      <trkpt lat="47.8154" lon="7.02716">
        <ele>962.42</ele>
        <time>2014-06-21T15:10:39Z</time>
      </trkpt>
      <trkpt lat="47.81539" lon="7.02713">
        <ele>959.05</ele>
        <time>2014-06-21T15:10:41Z</time>
      </trkpt>
      <trkpt lat="47.81537" lon="7.02708">
        <ele>962.42</ele>
        <time>2014-06-21T15:10:44Z</time>
      </trkpt>
      <trkpt lat="47.81536" lon="7.02705">
        <ele>959.05</ele>
        <time>2014-06-21T15:10:46Z</time>
      </trkpt>
      <trkpt lat="47.81535" lon="7.02703">
        <ele>963.38</ele>
        <time>2014-06-21T15:10:47Z</time>
      </trkpt>
      <trkpt lat="47.81534" lon="7.02697">
        <ele>959.53</ele>
        <time>2014-06-21T15:10:50Z</time>
      </trkpt>
      <trkpt lat="47.81533" lon="7.02695">
        <ele>962.9</ele>
        <time>2014-06-21T15:10:51Z</time>
      </trkpt>
      <trkpt lat="47.81532" lon="7.02692">
        <ele>957.61</ele>
        <time>2014-06-21T15:10:53Z</time>
      </trkpt>
      <trkpt lat="47.81532" lon="7.0269">
        <ele>959.53</ele>
        <time>2014-06-21T15:10:54Z</time>
      </trkpt>
      <trkpt lat="47.81532" lon="7.02688">
        <ele>962.42</ele>
        <time>2014-06-21T15:10:55Z</time>
      </trkpt>
      <trkpt lat="47.81531" lon="7.02687">
        <ele>962.42</ele>
        <time>2014-06-21T15:10:56Z</time>
      </trkpt>
      <trkpt lat="47.8153" lon="7.02683">
        <ele>965.78</ele>
        <time>2014-06-21T15:10:59Z</time>
      </trkpt>
      <trkpt lat="47.8153" lon="7.02682">
        <ele>956.17</ele>
        <time>2014-06-21T15:11:00Z</time>
      </trkpt>
      <trkpt lat="47.81529" lon="7.0268">
        <ele>962.42</ele>
        <time>2014-06-21T15:11:01Z</time>
      </trkpt>
      <trkpt lat="47.81529" lon="7.02679">
        <ele>964.82</ele>
        <time>2014-06-21T15:11:03Z</time>
      </trkpt>
      <trkpt lat="47.81529" lon="7.02678">
        <ele>959.53</ele>
        <time>2014-06-21T15:11:04Z</time>
      </trkpt>
      <trkpt lat="47.81529" lon="7.02677">
        <ele>963.86</ele>
        <time>2014-06-21T15:11:05Z</time>
      </trkpt>
      <trkpt lat="47.81528" lon="7.02675">
        <ele>967.22</ele>
        <time>2014-06-21T15:11:10Z</time>
      </trkpt>
      <trkpt lat="47.81528" lon="7.02675">
        <ele>963.38</ele>
        <time>2014-06-21T15:11:11Z</time>
      </trkpt>
      <trkpt lat="47.81528" lon="7.02674">
        <ele>966.74</ele>
        <time>2014-06-21T15:11:12Z</time>
      </trkpt>
      <trkpt lat="47.81527" lon="7.02673">
        <ele>959.05</ele>
        <time>2014-06-21T15:11:13Z</time>
      </trkpt>
      <trkpt lat="47.81526" lon="7.02672">
        <ele>964.34</ele>
        <time>2014-06-21T15:11:14Z</time>
      </trkpt>
      <trkpt lat="47.81523" lon="7.0267">
        <ele>968.18</ele>
        <time>2014-06-21T15:11:18Z</time>
      </trkpt>
      <trkpt lat="47.81522" lon="7.02669">
        <ele>965.78</ele>
        <time>2014-06-21T15:11:19Z</time>
      </trkpt>
      <trkpt lat="47.81509" lon="7.0266">
        <ele>969.15</ele>
        <time>2014-06-21T15:11:27Z</time>
      </trkpt>
      <trkpt lat="47.81507" lon="7.02659">
        <ele>964.34</ele>
        <time>2014-06-21T15:11:28Z</time>
      </trkpt>
      <trkpt lat="47.81506" lon="7.02658">
        <ele>968.67</ele>
        <time>2014-06-21T15:11:29Z</time>
      </trkpt>
      <trkpt lat="47.81504" lon="7.02658">
        <ele>972.03</ele>
        <time>2014-06-21T15:11:30Z</time>
      </trkpt>
      <trkpt lat="47.81503" lon="7.02657">
        <ele>968.18</ele>
        <time>2014-06-21T15:11:31Z</time>
      </trkpt>
      <trkpt lat="47.81502" lon="7.02655">
        <ele>972.99</ele>
        <time>2014-06-21T15:11:33Z</time>
      </trkpt>
      <trkpt lat="47.81502" lon="7.02654">
        <ele>968.18</ele>
        <time>2014-06-21T15:11:34Z</time>
      </trkpt>
      <trkpt lat="47.81501" lon="7.02653">
        <ele>969.63</ele>
        <time>2014-06-21T15:11:43Z</time>
      </trkpt>
      <trkpt lat="47.81501" lon="7.02653">
        <ele>965.78</ele>
        <time>2014-06-21T15:11:46Z</time>
      </trkpt>
      <trkpt lat="47.81501" lon="7.02653">
        <ele>968.67</ele>
        <time>2014-06-21T15:11:47Z</time>
      </trkpt>
      <trkpt lat="47.81501" lon="7.02653">
        <ele>965.78</ele>
        <time>2014-06-21T15:11:57Z</time>
      </trkpt>
      <trkpt lat="47.81501" lon="7.02653">
        <ele>969.63</ele>
        <time>2014-06-21T15:11:58Z</time>
      </trkpt>
      <trkpt lat="47.81501" lon="7.02653">
        <ele>967.7</ele>
        <time>2014-06-21T15:12:08Z</time>
      </trkpt>
      <trkpt lat="47.81501" lon="7.02653">
        <ele>969.63</ele>
        <time>2014-06-21T15:12:10Z</time>
      </trkpt>
      <trkpt lat="47.81501" lon="7.02653">
        <ele>967.22</ele>
        <time>2014-06-21T15:12:12Z</time>
      </trkpt>
      <trkpt lat="47.81501" lon="7.02653">
        <ele>969.63</ele>
        <time>2014-06-21T15:12:18Z</time>
      </trkpt>
      <trkpt lat="47.81502" lon="7.02654">
        <ele>970.11</ele>
        <time>2014-06-21T15:12:30Z</time>
      </trkpt>
      <trkpt lat="47.81507" lon="7.02641">
        <ele>975.39</ele>
        <time>2014-06-21T15:12:44Z</time>
      </trkpt>
      <trkpt lat="47.81507" lon="7.0264">
        <ele>971.07</ele>
        <time>2014-06-21T15:12:45Z</time>
      </trkpt>
      <trkpt lat="47.81508" lon="7.02637">
        <ele>970.11</ele>
        <time>2014-06-21T15:12:47Z</time>
      </trkpt>
      <trkpt lat="47.81508" lon="7.02635">
        <ele>974.43</ele>
        <time>2014-06-21T15:12:48Z</time>
      </trkpt>
      <trkpt lat="47.81508" lon="7.02634">
        <ele>973.47</ele>
        <time>2014-06-21T15:12:49Z</time>
      </trkpt>
      <trkpt lat="47.81509" lon="7.02632">
        <ele>968.67</ele>
        <time>2014-06-21T15:12:51Z</time>
      </trkpt>
      <trkpt lat="47.81509" lon="7.02631">
        <ele>971.07</ele>
        <time>2014-06-21T15:12:52Z</time>
      </trkpt>
      <trkpt lat="47.81509" lon="7.0263">
        <ele>973.95</ele>
        <time>2014-06-21T15:12:53Z</time>
      </trkpt>
      <trkpt lat="47.81509" lon="7.02629">
        <ele>972.03</ele>
        <time>2014-06-21T15:12:54Z</time>
      </trkpt>
      <trkpt lat="47.8151" lon="7.02628">
        <ele>975.88</ele>
        <time>2014-06-21T15:12:56Z</time>
      </trkpt>
      <trkpt lat="47.81514" lon="7.0262">
        <ele>972.03</ele>
        <time>2014-06-21T15:13:03Z</time>
      </trkpt>
      <trkpt lat="47.81516" lon="7.02617">
        <ele>976.36</ele>
        <time>2014-06-21T15:13:06Z</time>
      </trkpt>
      <trkpt lat="47.81517" lon="7.02616">
        <ele>972.99</ele>
        <time>2014-06-21T15:13:07Z</time>
      </trkpt>
      <trkpt lat="47.81518" lon="7.02614">
        <ele>976.84</ele>
        <time>2014-06-21T15:13:08Z</time>
      </trkpt>
      <trkpt lat="47.81521" lon="7.02613">
        <ele>971.55</ele>
        <time>2014-06-21T15:13:10Z</time>
      </trkpt>
      <trkpt lat="47.81523" lon="7.02613">
        <ele>975.88</ele>
        <time>2014-06-21T15:13:11Z</time>
      </trkpt>
      <trkpt lat="47.81524" lon="7.02612">
        <ele>973.95</ele>
        <time>2014-06-21T15:13:12Z</time>
      </trkpt>
      <trkpt lat="47.81525" lon="7.02611">
        <ele>980.2</ele>
        <time>2014-06-21T15:13:14Z</time>
      </trkpt>
      <trkpt lat="47.81526" lon="7.0261">
        <ele>975.88</ele>
        <time>2014-06-21T15:13:15Z</time>
      </trkpt>
      <trkpt lat="47.81529" lon="7.02607">
        <ele>978.28</ele>
        <time>2014-06-21T15:13:18Z</time>
      </trkpt>
      <trkpt lat="47.8153" lon="7.02604">
        <ele>976.84</ele>
        <time>2014-06-21T15:13:20Z</time>
      </trkpt>
      <trkpt lat="47.81532" lon="7.026">
        <ele>980.68</ele>
        <time>2014-06-21T15:13:23Z</time>
      </trkpt>
      <trkpt lat="47.81532" lon="7.026">
        <ele>977.8</ele>
        <time>2014-06-21T15:13:25Z</time>
      </trkpt>
      <trkpt lat="47.81537" lon="7.0259">
        <ele>981.16</ele>
        <time>2014-06-21T15:13:31Z</time>
      </trkpt>
      <trkpt lat="47.81537" lon="7.02589">
        <ele>977.8</ele>
        <time>2014-06-21T15:13:32Z</time>
      </trkpt>
      <trkpt lat="47.81539" lon="7.02586">
        <ele>984.05</ele>
        <time>2014-06-21T15:13:35Z</time>
      </trkpt>
      <trkpt lat="47.81539" lon="7.02586">
        <ele>977.8</ele>
        <time>2014-06-21T15:13:36Z</time>
      </trkpt>
      <trkpt lat="47.8154" lon="7.02585">
        <ele>981.16</ele>
        <time>2014-06-21T15:13:37Z</time>
      </trkpt>
      <trkpt lat="47.81541" lon="7.02584">
        <ele>981.64</ele>
        <time>2014-06-21T15:13:39Z</time>
      </trkpt>
      <trkpt lat="47.81541" lon="7.02583">
        <ele>978.76</ele>
        <time>2014-06-21T15:13:40Z</time>
      </trkpt>
      <trkpt lat="47.81542" lon="7.02582">
        <ele>982.12</ele>
        <time>2014-06-21T15:13:41Z</time>
      </trkpt>
      <trkpt lat="47.81545" lon="7.02577">
        <ele>985.49</ele>
        <time>2014-06-21T15:13:48Z</time>
      </trkpt>
      <trkpt lat="47.81545" lon="7.02576">
        <ele>981.64</ele>
        <time>2014-06-21T15:13:49Z</time>
      </trkpt>
      <trkpt lat="47.81545" lon="7.02575">
        <ele>984.53</ele>
        <time>2014-06-21T15:13:51Z</time>
      </trkpt>
      <trkpt lat="47.81545" lon="7.02574">
        <ele>987.89</ele>
        <time>2014-06-21T15:13:55Z</time>
      </trkpt>
      <trkpt lat="47.81546" lon="7.02573">
        <ele>986.45</ele>
        <time>2014-06-21T15:13:56Z</time>
      </trkpt>
      <trkpt lat="47.81547" lon="7.02571">
        <ele>981.64</ele>
        <time>2014-06-21T15:13:58Z</time>
      </trkpt>
      <trkpt lat="47.81547" lon="7.02569">
        <ele>983.57</ele>
        <time>2014-06-21T15:13:59Z</time>
      </trkpt>
      <trkpt lat="47.81549" lon="7.02567">
        <ele>987.41</ele>
        <time>2014-06-21T15:14:03Z</time>
      </trkpt>
      <trkpt lat="47.81549" lon="7.02567">
        <ele>983.57</ele>
        <time>2014-06-21T15:14:05Z</time>
      </trkpt>
      <trkpt lat="47.81549" lon="7.02566">
        <ele>988.37</ele>
        <time>2014-06-21T15:14:07Z</time>
      </trkpt>
      <trkpt lat="47.81549" lon="7.02566">
        <ele>985.01</ele>
        <time>2014-06-21T15:14:08Z</time>
      </trkpt>
      <trkpt lat="47.81555" lon="7.02561">
        <ele>991.26</ele>
        <time>2014-06-21T15:14:15Z</time>
      </trkpt>
      <trkpt lat="47.81555" lon="7.02561">
        <ele>985.97</ele>
        <time>2014-06-21T15:14:16Z</time>
      </trkpt>
      <trkpt lat="47.81556" lon="7.02559">
        <ele>992.22</ele>
        <time>2014-06-21T15:14:19Z</time>
      </trkpt>
      <trkpt lat="47.81557" lon="7.02559">
        <ele>990.3</ele>
        <time>2014-06-21T15:14:20Z</time>
      </trkpt>
      <trkpt lat="47.81557" lon="7.02558">
        <ele>986.45</ele>
        <time>2014-06-21T15:14:21Z</time>
      </trkpt>
      <trkpt lat="47.81558" lon="7.02557">
        <ele>988.85</ele>
        <time>2014-06-21T15:14:22Z</time>
      </trkpt>
      <trkpt lat="47.81559" lon="7.02556">
        <ele>993.18</ele>
        <time>2014-06-21T15:14:23Z</time>
      </trkpt>
      <trkpt lat="47.8156" lon="7.02555">
        <ele>988.37</ele>
        <time>2014-06-21T15:14:24Z</time>
      </trkpt>
      <trkpt lat="47.81562" lon="7.02553">
        <ele>991.26</ele>
        <time>2014-06-21T15:14:27Z</time>
      </trkpt>
      <trkpt lat="47.81563" lon="7.02553">
        <ele>986.93</ele>
        <time>2014-06-21T15:14:28Z</time>
      </trkpt>
      <trkpt lat="47.81566" lon="7.0255">
        <ele>990.3</ele>
        <time>2014-06-21T15:14:32Z</time>
      </trkpt>
      <trkpt lat="47.81567" lon="7.02549">
        <ele>990.3</ele>
        <time>2014-06-21T15:14:33Z</time>
      </trkpt>
      <trkpt lat="47.81568" lon="7.02548">
        <ele>988.37</ele>
        <time>2014-06-21T15:14:35Z</time>
      </trkpt>
      <trkpt lat="47.81568" lon="7.02547">
        <ele>991.74</ele>
        <time>2014-06-21T15:14:36Z</time>
      </trkpt>
      <trkpt lat="47.81569" lon="7.02546">
        <ele>995.1</ele>
        <time>2014-06-21T15:14:37Z</time>
      </trkpt>
      <trkpt lat="47.81569" lon="7.02545">
        <ele>988.85</ele>
        <time>2014-06-21T15:14:38Z</time>
      </trkpt>
      <trkpt lat="47.8157" lon="7.02544">
        <ele>991.26</ele>
        <time>2014-06-21T15:14:39Z</time>
      </trkpt>
      <trkpt lat="47.81571" lon="7.02544">
        <ele>993.18</ele>
        <time>2014-06-21T15:14:40Z</time>
      </trkpt>
      <trkpt lat="47.81575" lon="7.02542">
        <ele>992.7</ele>
        <time>2014-06-21T15:14:44Z</time>
      </trkpt>
      <trkpt lat="47.81576" lon="7.02542">
        <ele>987.41</ele>
        <time>2014-06-21T15:14:45Z</time>
      </trkpt>
      <trkpt lat="47.81577" lon="7.02542">
        <ele>991.74</ele>
        <time>2014-06-21T15:14:46Z</time>
      </trkpt>
      <trkpt lat="47.81578" lon="7.02541">
        <ele>989.33</ele>
        <time>2014-06-21T15:14:47Z</time>
      </trkpt>
      <trkpt lat="47.81578" lon="7.02541">
        <ele>991.26</ele>
        <time>2014-06-21T15:14:48Z</time>
      </trkpt>
      <trkpt lat="47.81579" lon="7.0254">
        <ele>995.1</ele>
        <time>2014-06-21T15:14:49Z</time>
      </trkpt>
      <trkpt lat="47.81586" lon="7.02538">
        <ele>997.51</ele>
        <time>2014-06-21T15:14:56Z</time>
      </trkpt>
      <trkpt lat="47.81587" lon="7.02538">
        <ele>991.26</ele>
        <time>2014-06-21T15:14:57Z</time>
      </trkpt>
      <trkpt lat="47.81588" lon="7.02538">
        <ele>993.18</ele>
        <time>2014-06-21T15:14:58Z</time>
      </trkpt>
      <trkpt lat="47.81588" lon="7.02538">
        <ele>994.14</ele>
        <time>2014-06-21T15:15:00Z</time>
      </trkpt>
      <trkpt lat="47.81589" lon="7.02536">
        <ele>991.74</ele>
        <time>2014-06-21T15:15:03Z</time>
      </trkpt>
      <trkpt lat="47.81591" lon="7.02535">
        <ele>995.1</ele>
        <time>2014-06-21T15:15:05Z</time>
      </trkpt>
      <trkpt lat="47.81592" lon="7.02535">
        <ele>990.78</ele>
        <time>2014-06-21T15:15:06Z</time>
      </trkpt>
      <trkpt lat="47.81592" lon="7.02534">
        <ele>990.78</ele>
        <time>2014-06-21T15:15:07Z</time>
      </trkpt>
      <trkpt lat="47.81595" lon="7.02531">
        <ele>1000.39</ele>
        <time>2014-06-21T15:15:11Z</time>
      </trkpt>
      <trkpt lat="47.81596" lon="7.02531">
        <ele>994.62</ele>
        <time>2014-06-21T15:15:12Z</time>
      </trkpt>
      <trkpt lat="47.81597" lon="7.0253">
        <ele>992.22</ele>
        <time>2014-06-21T15:15:13Z</time>
      </trkpt>
      <trkpt lat="47.81598" lon="7.0253">
        <ele>995.1</ele>
        <time>2014-06-21T15:15:14Z</time>
      </trkpt>
      <trkpt lat="47.81604" lon="7.02526">
        <ele>995.1</ele>
        <time>2014-06-21T15:15:20Z</time>
      </trkpt>
      <trkpt lat="47.81606" lon="7.02526">
        <ele>997.02</ele>
        <time>2014-06-21T15:15:21Z</time>
      </trkpt>
      <trkpt lat="47.8161" lon="7.02522">
        <ele>997.99</ele>
        <time>2014-06-21T15:15:26Z</time>
      </trkpt>
      <trkpt lat="47.81611" lon="7.02521">
        <ele>999.91</ele>
        <time>2014-06-21T15:15:27Z</time>
      </trkpt>
      <trkpt lat="47.81611" lon="7.02519">
        <ele>996.06</ele>
        <time>2014-06-21T15:15:28Z</time>
      </trkpt>
      <trkpt lat="47.81613" lon="7.02518">
        <ele>999.43</ele>
        <time>2014-06-21T15:15:30Z</time>
      </trkpt>
      <trkpt lat="47.81613" lon="7.02517">
        <ele>999.43</ele>
        <time>2014-06-21T15:15:31Z</time>
      </trkpt>
      <trkpt lat="47.81614" lon="7.02516">
        <ele>1000.87</ele>
        <time>2014-06-21T15:15:32Z</time>
      </trkpt>
      <trkpt lat="47.81615" lon="7.02515">
        <ele>997.02</ele>
        <time>2014-06-21T15:15:33Z</time>
      </trkpt>
      <trkpt lat="47.81617" lon="7.02513">
        <ele>1000.39</ele>
        <time>2014-06-21T15:15:35Z</time>
      </trkpt>
      <trkpt lat="47.81618" lon="7.02513">
        <ele>1000.39</ele>
        <time>2014-06-21T15:15:36Z</time>
      </trkpt>
      <trkpt lat="47.81619" lon="7.02512">
        <ele>996.54</ele>
        <time>2014-06-21T15:15:37Z</time>
      </trkpt>
      <trkpt lat="47.8162" lon="7.02511">
        <ele>996.54</ele>
        <time>2014-06-21T15:15:38Z</time>
      </trkpt>
      <trkpt lat="47.81621" lon="7.02511">
        <ele>997.99</ele>
        <time>2014-06-21T15:15:39Z</time>
      </trkpt>
      <trkpt lat="47.81622" lon="7.0251">
        <ele>1000.87</ele>
        <time>2014-06-21T15:15:40Z</time>
      </trkpt>
      <trkpt lat="47.81624" lon="7.02509">
        <ele>1002.31</ele>
        <time>2014-06-21T15:15:41Z</time>
      </trkpt>
      <trkpt lat="47.81628" lon="7.02505">
        <ele>1001.83</ele>
        <time>2014-06-21T15:15:45Z</time>
      </trkpt>
      <trkpt lat="47.81629" lon="7.02503">
        <ele>997.02</ele>
        <time>2014-06-21T15:15:46Z</time>
      </trkpt>
      <trkpt lat="47.81632" lon="7.02501">
        <ele>998.47</ele>
        <time>2014-06-21T15:15:48Z</time>
      </trkpt>
      <trkpt lat="47.81633" lon="7.025">
        <ele>1004.72</ele>
        <time>2014-06-21T15:15:49Z</time>
      </trkpt>
      <trkpt lat="47.81634" lon="7.02499">
        <ele>1004.72</ele>
        <time>2014-06-21T15:15:50Z</time>
      </trkpt>
      <trkpt lat="47.81637" lon="7.02496">
        <ele>1004.23</ele>
        <time>2014-06-21T15:15:53Z</time>
      </trkpt>
      <trkpt lat="47.81638" lon="7.02495">
        <ele>997.51</ele>
        <time>2014-06-21T15:15:54Z</time>
      </trkpt>
      <trkpt lat="47.81639" lon="7.02494">
        <ele>1001.35</ele>
        <time>2014-06-21T15:15:55Z</time>
      </trkpt>
      <trkpt lat="47.8164" lon="7.02493">
        <ele>999.43</ele>
        <time>2014-06-21T15:15:56Z</time>
      </trkpt>
      <trkpt lat="47.81641" lon="7.02493">
        <ele>1006.16</ele>
        <time>2014-06-21T15:15:57Z</time>
      </trkpt>
      <trkpt lat="47.81643" lon="7.02492">
        <ele>1005.68</ele>
        <time>2014-06-21T15:15:59Z</time>
      </trkpt>
      <trkpt lat="47.81645" lon="7.02491">
        <ele>1005.68</ele>
        <time>2014-06-21T15:16:00Z</time>
      </trkpt>
      <trkpt lat="47.81646" lon="7.02491">
        <ele>1001.83</ele>
        <time>2014-06-21T15:16:01Z</time>
      </trkpt>
      <trkpt lat="47.81648" lon="7.0249">
        <ele>999.91</ele>
        <time>2014-06-21T15:16:02Z</time>
      </trkpt>
      <trkpt lat="47.81649" lon="7.0249">
        <ele>1002.79</ele>
        <time>2014-06-21T15:16:03Z</time>
      </trkpt>
      <trkpt lat="47.81649" lon="7.0249">
        <ele>1006.16</ele>
        <time>2014-06-21T15:16:04Z</time>
      </trkpt>
      <trkpt lat="47.8165" lon="7.02489">
        <ele>1006.16</ele>
        <time>2014-06-21T15:16:05Z</time>
      </trkpt>
      <trkpt lat="47.81651" lon="7.02489">
        <ele>1001.35</ele>
        <time>2014-06-21T15:16:06Z</time>
      </trkpt>
      <trkpt lat="47.81652" lon="7.02489">
        <ele>1004.72</ele>
        <time>2014-06-21T15:16:07Z</time>
      </trkpt>
      <trkpt lat="47.81653" lon="7.02489">
        <ele>1004.72</ele>
        <time>2014-06-21T15:16:08Z</time>
      </trkpt>
      <trkpt lat="47.81654" lon="7.02489">
        <ele>1008.08</ele>
        <time>2014-06-21T15:16:09Z</time>
      </trkpt>
      <trkpt lat="47.81655" lon="7.02488">
        <ele>1006.64</ele>
        <time>2014-06-21T15:16:11Z</time>
      </trkpt>
      <trkpt lat="47.81655" lon="7.02488">
        <ele>1006.64</ele>
        <time>2014-06-21T15:16:12Z</time>
      </trkpt>
      <trkpt lat="47.81656" lon="7.02488">
        <ele>1008.08</ele>
        <time>2014-06-21T15:16:13Z</time>
      </trkpt>
      <trkpt lat="47.81659" lon="7.02487">
        <ele>1005.68</ele>
        <time>2014-06-21T15:16:15Z</time>
      </trkpt>
      <trkpt lat="47.8166" lon="7.02487">
        <ele>1004.23</ele>
        <time>2014-06-21T15:16:16Z</time>
      </trkpt>
      <trkpt lat="47.81661" lon="7.02487">
        <ele>1007.6</ele>
        <time>2014-06-21T15:16:17Z</time>
      </trkpt>
      <trkpt lat="47.81664" lon="7.02485">
        <ele>1004.72</ele>
        <time>2014-06-21T15:16:20Z</time>
      </trkpt>
      <trkpt lat="47.81665" lon="7.02485">
        <ele>1006.16</ele>
        <time>2014-06-21T15:16:22Z</time>
      </trkpt>
      <trkpt lat="47.81666" lon="7.02485">
        <ele>1009.52</ele>
        <time>2014-06-21T15:16:23Z</time>
      </trkpt>
      <trkpt lat="47.81666" lon="7.02485">
        <ele>1004.23</ele>
        <time>2014-06-21T15:16:24Z</time>
      </trkpt>
      <trkpt lat="47.81668" lon="7.02484">
        <ele>1009.52</ele>
        <time>2014-06-21T15:16:26Z</time>
      </trkpt>
      <trkpt lat="47.81669" lon="7.02483">
        <ele>1009.52</ele>
        <time>2014-06-21T15:16:27Z</time>
      </trkpt>
      <trkpt lat="47.81671" lon="7.02482">
        <ele>1003.75</ele>
        <time>2014-06-21T15:16:28Z</time>
      </trkpt>
      <trkpt lat="47.81673" lon="7.0248">
        <ele>1008.08</ele>
        <time>2014-06-21T15:16:30Z</time>
      </trkpt>
      <trkpt lat="47.81674" lon="7.02479">
        <ele>1011.44</ele>
        <time>2014-06-21T15:16:31Z</time>
      </trkpt>
      <trkpt lat="47.81678" lon="7.02476">
        <ele>1009.04</ele>
        <time>2014-06-21T15:16:34Z</time>
      </trkpt>
      <trkpt lat="47.81679" lon="7.02475">
        <ele>1011.44</ele>
        <time>2014-06-21T15:16:35Z</time>
      </trkpt>
      <trkpt lat="47.8168" lon="7.02473">
        <ele>1008.56</ele>
        <time>2014-06-21T15:16:37Z</time>
      </trkpt>
      <trkpt lat="47.81681" lon="7.02473">
        <ele>1012.89</ele>
        <time>2014-06-21T15:16:38Z</time>
      </trkpt>
      <trkpt lat="47.81682" lon="7.02472">
        <ele>1012.89</ele>
        <time>2014-06-21T15:16:39Z</time>
      </trkpt>
      <trkpt lat="47.81684" lon="7.02471">
        <ele>1011.93</ele>
        <time>2014-06-21T15:16:41Z</time>
      </trkpt>
      <trkpt lat="47.81686" lon="7.02471">
        <ele>1011.44</ele>
        <time>2014-06-21T15:16:42Z</time>
      </trkpt>
      <trkpt lat="47.81688" lon="7.02471">
        <ele>1010.48</ele>
        <time>2014-06-21T15:16:44Z</time>
      </trkpt>
      <trkpt lat="47.81689" lon="7.02471">
        <ele>1013.85</ele>
        <time>2014-06-21T15:16:45Z</time>
      </trkpt>
      <trkpt lat="47.8169" lon="7.02471">
        <ele>1007.12</ele>
        <time>2014-06-21T15:16:46Z</time>
      </trkpt>
      <trkpt lat="47.81691" lon="7.0247">
        <ele>1010.96</ele>
        <time>2014-06-21T15:16:47Z</time>
      </trkpt>
      <trkpt lat="47.81692" lon="7.02469">
        <ele>1010.96</ele>
        <time>2014-06-21T15:16:48Z</time>
      </trkpt>
      <trkpt lat="47.81693" lon="7.02469">
        <ele>1013.85</ele>
        <time>2014-06-21T15:16:49Z</time>
      </trkpt>
      <trkpt lat="47.81694" lon="7.02468">
        <ele>1009.04</ele>
        <time>2014-06-21T15:16:50Z</time>
      </trkpt>
      <trkpt lat="47.81695" lon="7.02467">
        <ele>1011.44</ele>
        <time>2014-06-21T15:16:52Z</time>
      </trkpt>
      <trkpt lat="47.81696" lon="7.02467">
        <ele>1015.77</ele>
        <time>2014-06-21T15:16:53Z</time>
      </trkpt>
      <trkpt lat="47.81698" lon="7.02467">
        <ele>1009.52</ele>
        <time>2014-06-21T15:16:55Z</time>
      </trkpt>
      <trkpt lat="47.81698" lon="7.02467">
        <ele>1011.93</ele>
        <time>2014-06-21T15:16:56Z</time>
      </trkpt>
      <trkpt lat="47.81698" lon="7.02467">
        <ele>1017.69</ele>
        <time>2014-06-21T15:16:57Z</time>
      </trkpt>
      <trkpt lat="47.81698" lon="7.02467">
        <ele>1009.04</ele>
        <time>2014-06-21T15:16:58Z</time>
      </trkpt>
      <trkpt lat="47.81698" lon="7.02467">
        <ele>1013.85</ele>
        <time>2014-06-21T15:16:59Z</time>
      </trkpt>
      <trkpt lat="47.81698" lon="7.02467">
        <ele>1010.48</ele>
        <time>2014-06-21T15:17:00Z</time>
      </trkpt>
      <trkpt lat="47.81698" lon="7.02467">
        <ele>1011.93</ele>
        <time>2014-06-21T15:17:01Z</time>
      </trkpt>
      <trkpt lat="47.81698" lon="7.02467">
        <ele>1013.37</ele>
        <time>2014-06-21T15:17:02Z</time>
      </trkpt>
      <trkpt lat="47.81698" lon="7.02467">
        <ele>1011.93</ele>
        <time>2014-06-21T15:17:03Z</time>
      </trkpt>
      <trkpt lat="47.81698" lon="7.02467">
        <ele>1015.77</ele>
        <time>2014-06-21T15:17:04Z</time>
      </trkpt>
      <trkpt lat="47.81698" lon="7.02467">
        <ele>1015.77</ele>
        <time>2014-06-21T15:17:05Z</time>
      </trkpt>
      <trkpt lat="47.81698" lon="7.02467">
        <ele>1011.44</ele>
        <time>2014-06-21T15:17:06Z</time>
      </trkpt>
      <trkpt lat="47.817" lon="7.02467">
        <ele>1015.77</ele>
        <time>2014-06-21T15:17:09Z</time>
      </trkpt>
      <trkpt lat="47.81702" lon="7.02466">
        <ele>1017.69</ele>
        <time>2014-06-21T15:17:11Z</time>
      </trkpt>
      <trkpt lat="47.81703" lon="7.02466">
        <ele>1017.69</ele>
        <time>2014-06-21T15:17:12Z</time>
      </trkpt>
      <trkpt lat="47.81705" lon="7.02466">
        <ele>1013.37</ele>
        <time>2014-06-21T15:17:14Z</time>
      </trkpt>
      <trkpt lat="47.81706" lon="7.02465">
        <ele>1014.81</ele>
        <time>2014-06-21T15:17:15Z</time>
      </trkpt>
      <trkpt lat="47.81708" lon="7.02465">
        <ele>1014.33</ele>
        <time>2014-06-21T15:17:16Z</time>
      </trkpt>
      <trkpt lat="47.81712" lon="7.02465">
        <ele>1019.13</ele>
        <time>2014-06-21T15:17:18Z</time>
      </trkpt>
      <trkpt lat="47.81714" lon="7.02465">
        <ele>1014.81</ele>
        <time>2014-06-21T15:17:19Z</time>
      </trkpt>
      <trkpt lat="47.81715" lon="7.02465">
        <ele>1018.17</ele>
        <time>2014-06-21T15:17:20Z</time>
      </trkpt>
      <trkpt lat="47.81717" lon="7.02465">
        <ele>1018.17</ele>
        <time>2014-06-21T15:17:21Z</time>
      </trkpt>
      <trkpt lat="47.81718" lon="7.02464">
        <ele>1014.81</ele>
        <time>2014-06-21T15:17:22Z</time>
      </trkpt>
      <trkpt lat="47.81719" lon="7.02464">
        <ele>1014.81</ele>
        <time>2014-06-21T15:17:23Z</time>
      </trkpt>
      <trkpt lat="47.8172" lon="7.02464">
        <ele>1017.21</ele>
        <time>2014-06-21T15:17:24Z</time>
      </trkpt>
      <trkpt lat="47.81723" lon="7.02464">
        <ele>1014.81</ele>
        <time>2014-06-21T15:17:29Z</time>
      </trkpt>
      <trkpt lat="47.81725" lon="7.02464">
        <ele>1020.58</ele>
        <time>2014-06-21T15:17:31Z</time>
      </trkpt>
      <trkpt lat="47.81725" lon="7.02464">
        <ele>1020.58</ele>
        <time>2014-06-21T15:17:32Z</time>
      </trkpt>
      <trkpt lat="47.81727" lon="7.02464">
        <ele>1021.54</ele>
        <time>2014-06-21T15:17:34Z</time>
      </trkpt>
      <trkpt lat="47.81728" lon="7.02464">
        <ele>1021.54</ele>
        <time>2014-06-21T15:17:35Z</time>
      </trkpt>
      <trkpt lat="47.8173" lon="7.02463">
        <ele>1020.1</ele>
        <time>2014-06-21T15:17:37Z</time>
      </trkpt>
      <trkpt lat="47.81731" lon="7.02462">
        <ele>1022.5</ele>
        <time>2014-06-21T15:17:38Z</time>
      </trkpt>
      <trkpt lat="47.81732" lon="7.02461">
        <ele>1022.5</ele>
        <time>2014-06-21T15:17:39Z</time>
      </trkpt>
      <trkpt lat="47.81734" lon="7.02461">
        <ele>1021.06</ele>
        <time>2014-06-21T15:17:42Z</time>
      </trkpt>
      <trkpt lat="47.81735" lon="7.0246">
        <ele>1014.33</ele>
        <time>2014-06-21T15:17:43Z</time>
      </trkpt>
      <trkpt lat="47.81736" lon="7.0246">
        <ele>1019.13</ele>
        <time>2014-06-21T15:17:44Z</time>
      </trkpt>
      <trkpt lat="47.81736" lon="7.0246">
        <ele>1023.46</ele>
        <time>2014-06-21T15:17:45Z</time>
      </trkpt>
      <trkpt lat="47.81736" lon="7.0246">
        <ele>1016.73</ele>
        <time>2014-06-21T15:17:46Z</time>
      </trkpt>
      <trkpt lat="47.81737" lon="7.0246">
        <ele>1022.02</ele>
        <time>2014-06-21T15:17:48Z</time>
      </trkpt>
      <trkpt lat="47.81738" lon="7.0246">
        <ele>1018.65</ele>
        <time>2014-06-21T15:17:49Z</time>
      </trkpt>
      <trkpt lat="47.81739" lon="7.02459">
        <ele>1018.65</ele>
        <time>2014-06-21T15:17:50Z</time>
      </trkpt>
      <trkpt lat="47.8174" lon="7.02459">
        <ele>1021.54</ele>
        <time>2014-06-21T15:17:51Z</time>
      </trkpt>
      <trkpt lat="47.81741" lon="7.02458">
        <ele>1023.94</ele>
        <time>2014-06-21T15:17:52Z</time>
      </trkpt>
      <trkpt lat="47.81744" lon="7.02458">
        <ele>1022.5</ele>
        <time>2014-06-21T15:17:54Z</time>
      </trkpt>
      <trkpt lat="47.81746" lon="7.02458">
        <ele>1024.42</ele>
        <time>2014-06-21T15:17:56Z</time>
      </trkpt>
      <trkpt lat="47.81749" lon="7.02457">
        <ele>1025.38</ele>
        <time>2014-06-21T15:17:59Z</time>
      </trkpt>
      <trkpt lat="47.8175" lon="7.02456">
        <ele>1025.38</ele>
        <time>2014-06-21T15:18:00Z</time>
      </trkpt>
      <trkpt lat="47.81751" lon="7.02456">
        <ele>1025.38</ele>
        <time>2014-06-21T15:18:01Z</time>
      </trkpt>
      <trkpt lat="47.81753" lon="7.02455">
        <ele>1019.62</ele>
        <time>2014-06-21T15:18:02Z</time>
      </trkpt>
      <trkpt lat="47.81754" lon="7.02455">
        <ele>1019.62</ele>
        <time>2014-06-21T15:18:03Z</time>
      </trkpt>
      <trkpt lat="47.81755" lon="7.02454">
        <ele>1024.42</ele>
        <time>2014-06-21T15:18:04Z</time>
      </trkpt>
      <trkpt lat="47.81757" lon="7.02454">
        <ele>1025.38</ele>
        <time>2014-06-21T15:18:06Z</time>
      </trkpt>
      <trkpt lat="47.81758" lon="7.02454">
        <ele>1021.54</ele>
        <time>2014-06-21T15:18:07Z</time>
      </trkpt>
      <trkpt lat="47.8176" lon="7.02452">
        <ele>1023.94</ele>
        <time>2014-06-21T15:18:09Z</time>
      </trkpt>
      <trkpt lat="47.81761" lon="7.02452">
        <ele>1027.79</ele>
        <time>2014-06-21T15:18:10Z</time>
      </trkpt>
      <trkpt lat="47.81764" lon="7.02451">
        <ele>1028.75</ele>
        <time>2014-06-21T15:18:13Z</time>
      </trkpt>
      <trkpt lat="47.81765" lon="7.02451">
        <ele>1028.75</ele>
        <time>2014-06-21T15:18:14Z</time>
      </trkpt>
      <trkpt lat="47.81766" lon="7.0245">
        <ele>1022.98</ele>
        <time>2014-06-21T15:18:15Z</time>
      </trkpt>
      <trkpt lat="47.8177" lon="7.02451">
        <ele>1028.75</ele>
        <time>2014-06-21T15:18:17Z</time>
      </trkpt>
      <trkpt lat="47.81771" lon="7.02452">
        <ele>1028.75</ele>
        <time>2014-06-21T15:18:18Z</time>
      </trkpt>
      <trkpt lat="47.81773" lon="7.02452">
        <ele>1022.02</ele>
        <time>2014-06-21T15:18:19Z</time>
      </trkpt>
      <trkpt lat="47.81775" lon="7.02452">
        <ele>1029.23</ele>
        <time>2014-06-21T15:18:21Z</time>
      </trkpt>
      <trkpt lat="47.81776" lon="7.02452">
        <ele>1024.9</ele>
        <time>2014-06-21T15:18:22Z</time>
      </trkpt>
      <trkpt lat="47.81776" lon="7.02452">
        <ele>1029.23</ele>
        <time>2014-06-21T15:18:23Z</time>
      </trkpt>
      <trkpt lat="47.81778" lon="7.02451">
        <ele>1029.23</ele>
        <time>2014-06-21T15:18:25Z</time>
      </trkpt>
      <trkpt lat="47.81778" lon="7.02451">
        <ele>1023.94</ele>
        <time>2014-06-21T15:18:27Z</time>
      </trkpt>
      <trkpt lat="47.8178" lon="7.02451">
        <ele>1027.31</ele>
        <time>2014-06-21T15:18:29Z</time>
      </trkpt>
      <trkpt lat="47.8178" lon="7.02451">
        <ele>1025.86</ele>
        <time>2014-06-21T15:18:30Z</time>
      </trkpt>
      <trkpt lat="47.81781" lon="7.02451">
        <ele>1029.71</ele>
        <time>2014-06-21T15:18:31Z</time>
      </trkpt>
      <trkpt lat="47.81781" lon="7.02451">
        <ele>1025.38</ele>
        <time>2014-06-21T15:18:33Z</time>
      </trkpt>
      <trkpt lat="47.81781" lon="7.02451">
        <ele>1025.38</ele>
        <time>2014-06-21T15:18:34Z</time>
      </trkpt>
      <trkpt lat="47.81782" lon="7.02451">
        <ele>1032.11</ele>
        <time>2014-06-21T15:18:35Z</time>
      </trkpt>
      <trkpt lat="47.81782" lon="7.02451">
        <ele>1032.11</ele>
        <time>2014-06-21T15:18:36Z</time>
      </trkpt>
      <trkpt lat="47.81782" lon="7.02451">
        <ele>1026.83</ele>
        <time>2014-06-21T15:18:37Z</time>
      </trkpt>
      <trkpt lat="47.81782" lon="7.02451">
        <ele>1029.23</ele>
        <time>2014-06-21T15:18:40Z</time>
      </trkpt>
      <trkpt lat="47.81782" lon="7.02451">
        <ele>1033.55</ele>
        <time>2014-06-21T15:18:41Z</time>
      </trkpt>
      <trkpt lat="47.81783" lon="7.02451">
        <ele>1026.34</ele>
        <time>2014-06-21T15:18:42Z</time>
      </trkpt>
      <trkpt lat="47.81784" lon="7.02451">
        <ele>1027.79</ele>
        <time>2014-06-21T15:18:43Z</time>
      </trkpt>
      <trkpt lat="47.81785" lon="7.02451">
        <ele>1035</ele>
        <time>2014-06-21T15:18:44Z</time>
      </trkpt>
      <trkpt lat="47.81786" lon="7.02451">
        <ele>1035</ele>
        <time>2014-06-21T15:18:45Z</time>
      </trkpt>
      <trkpt lat="47.81787" lon="7.02452">
        <ele>1024.9</ele>
        <time>2014-06-21T15:18:47Z</time>
      </trkpt>
      <trkpt lat="47.81788" lon="7.02452">
        <ele>1024.9</ele>
        <time>2014-06-21T15:18:48Z</time>
      </trkpt>
      <trkpt lat="47.81791" lon="7.02452">
        <ele>1032.59</ele>
        <time>2014-06-21T15:18:50Z</time>
      </trkpt>
      <trkpt lat="47.81792" lon="7.02453">
        <ele>1027.31</ele>
        <time>2014-06-21T15:18:51Z</time>
      </trkpt>
      <trkpt lat="47.81793" lon="7.02453">
        <ele>1029.71</ele>
        <time>2014-06-21T15:18:52Z</time>
      </trkpt>
      <trkpt lat="47.81794" lon="7.02453">
        <ele>1034.52</ele>
        <time>2014-06-21T15:18:53Z</time>
      </trkpt>
      <trkpt lat="47.81801" lon="7.02453">
        <ele>1028.75</ele>
        <time>2014-06-21T15:18:58Z</time>
      </trkpt>
      <trkpt lat="47.81805" lon="7.02453">
        <ele>1035</ele>
        <time>2014-06-21T15:19:00Z</time>
      </trkpt>
      <trkpt lat="47.81806" lon="7.02453">
        <ele>1035</ele>
        <time>2014-06-21T15:19:01Z</time>
      </trkpt>
      <trkpt lat="47.81808" lon="7.02453">
        <ele>1029.71</ele>
        <time>2014-06-21T15:19:02Z</time>
      </trkpt>
      <trkpt lat="47.81809" lon="7.02453">
        <ele>1035.96</ele>
        <time>2014-06-21T15:19:03Z</time>
      </trkpt>
      <trkpt lat="47.8181" lon="7.02453">
        <ele>1035.96</ele>
        <time>2014-06-21T15:19:04Z</time>
      </trkpt>
      <trkpt lat="47.81812" lon="7.02452">
        <ele>1030.19</ele>
        <time>2014-06-21T15:19:05Z</time>
      </trkpt>
      <trkpt lat="47.81816" lon="7.02452">
        <ele>1032.59</ele>
        <time>2014-06-21T15:19:08Z</time>
      </trkpt>
      <trkpt lat="47.81817" lon="7.02452">
        <ele>1036.92</ele>
        <time>2014-06-21T15:19:09Z</time>
      </trkpt>
      <trkpt lat="47.8182" lon="7.02452">
        <ele>1036.44</ele>
        <time>2014-06-21T15:19:12Z</time>
      </trkpt>
      <trkpt lat="47.81822" lon="7.02451">
        <ele>1036.44</ele>
        <time>2014-06-21T15:19:13Z</time>
      </trkpt>
      <trkpt lat="47.81825" lon="7.02451">
        <ele>1034.52</ele>
        <time>2014-06-21T15:19:16Z</time>
      </trkpt>
      <trkpt lat="47.81826" lon="7.02451">
        <ele>1031.15</ele>
        <time>2014-06-21T15:19:17Z</time>
      </trkpt>
      <trkpt lat="47.81827" lon="7.02451">
        <ele>1032.59</ele>
        <time>2014-06-21T15:19:18Z</time>
      </trkpt>
      <trkpt lat="47.81828" lon="7.02451">
        <ele>1034.52</ele>
        <time>2014-06-21T15:19:19Z</time>
      </trkpt>
      <trkpt lat="47.81829" lon="7.02451">
        <ele>1038.84</ele>
        <time>2014-06-21T15:19:20Z</time>
      </trkpt>
      <trkpt lat="47.8183" lon="7.02451">
        <ele>1032.11</ele>
        <time>2014-06-21T15:19:21Z</time>
      </trkpt>
      <trkpt lat="47.81832" lon="7.02451">
        <ele>1037.4</ele>
        <time>2014-06-21T15:19:23Z</time>
      </trkpt>
      <trkpt lat="47.81832" lon="7.0245">
        <ele>1037.4</ele>
        <time>2014-06-21T15:19:24Z</time>
      </trkpt>
      <trkpt lat="47.81833" lon="7.0245">
        <ele>1034.04</ele>
        <time>2014-06-21T15:19:25Z</time>
      </trkpt>
      <trkpt lat="47.81834" lon="7.02451">
        <ele>1035.96</ele>
        <time>2014-06-21T15:19:26Z</time>
      </trkpt>
      <trkpt lat="47.81835" lon="7.02451">
        <ele>1037.88</ele>
        <time>2014-06-21T15:19:27Z</time>
      </trkpt>
      <trkpt lat="47.81836" lon="7.02451">
        <ele>1033.55</ele>
        <time>2014-06-21T15:19:29Z</time>
      </trkpt>
      <trkpt lat="47.81836" lon="7.02451">
        <ele>1035.48</ele>
        <time>2014-06-21T15:19:30Z</time>
      </trkpt>
      <trkpt lat="47.81836" lon="7.02451">
        <ele>1040.76</ele>
        <time>2014-06-21T15:19:31Z</time>
      </trkpt>
      <trkpt lat="47.81837" lon="7.02451">
        <ele>1034.04</ele>
        <time>2014-06-21T15:19:32Z</time>
      </trkpt>
      <trkpt lat="47.81839" lon="7.02452">
        <ele>1041.25</ele>
        <time>2014-06-21T15:19:34Z</time>
      </trkpt>
      <trkpt lat="47.81839" lon="7.02452">
        <ele>1041.25</ele>
        <time>2014-06-21T15:19:35Z</time>
      </trkpt>
      <trkpt lat="47.8184" lon="7.02453">
        <ele>1036.44</ele>
        <time>2014-06-21T15:19:36Z</time>
      </trkpt>
      <trkpt lat="47.81841" lon="7.02453">
        <ele>1042.21</ele>
        <time>2014-06-21T15:19:37Z</time>
      </trkpt>
      <trkpt lat="47.81842" lon="7.02453">
        <ele>1035</ele>
        <time>2014-06-21T15:19:38Z</time>
      </trkpt>
      <trkpt lat="47.81843" lon="7.02454">
        <ele>1037.88</ele>
        <time>2014-06-21T15:19:39Z</time>
      </trkpt>
      <trkpt lat="47.81846" lon="7.02457">
        <ele>1038.84</ele>
        <time>2014-06-21T15:19:43Z</time>
      </trkpt>
      <trkpt lat="47.81847" lon="7.02457">
        <ele>1035.48</ele>
        <time>2014-06-21T15:19:44Z</time>
      </trkpt>
      <trkpt lat="47.81848" lon="7.02458">
        <ele>1035.48</ele>
        <time>2014-06-21T15:19:45Z</time>
      </trkpt>
      <trkpt lat="47.81848" lon="7.02458">
        <ele>1041.25</ele>
        <time>2014-06-21T15:19:46Z</time>
      </trkpt>
      <trkpt lat="47.81849" lon="7.02459">
        <ele>1036.44</ele>
        <time>2014-06-21T15:19:47Z</time>
      </trkpt>
      <trkpt lat="47.8185" lon="7.02459">
        <ele>1036.44</ele>
        <time>2014-06-21T15:19:48Z</time>
      </trkpt>
      <trkpt lat="47.81851" lon="7.0246">
        <ele>1038.84</ele>
        <time>2014-06-21T15:19:49Z</time>
      </trkpt>
      <trkpt lat="47.81851" lon="7.0246">
        <ele>1038.84</ele>
        <time>2014-06-21T15:19:50Z</time>
      </trkpt>
      <trkpt lat="47.81853" lon="7.0246">
        <ele>1042.69</ele>
        <time>2014-06-21T15:19:52Z</time>
      </trkpt>
      <trkpt lat="47.81854" lon="7.0246">
        <ele>1035</ele>
        <time>2014-06-21T15:19:53Z</time>
      </trkpt>
      <trkpt lat="47.81855" lon="7.0246">
        <ele>1040.28</ele>
        <time>2014-06-21T15:19:54Z</time>
      </trkpt>
      <trkpt lat="47.81856" lon="7.02459">
        <ele>1044.13</ele>
        <time>2014-06-21T15:19:55Z</time>
      </trkpt>
      <trkpt lat="47.81857" lon="7.02459">
        <ele>1044.13</ele>
        <time>2014-06-21T15:19:56Z</time>
      </trkpt>
      <trkpt lat="47.81858" lon="7.02459">
        <ele>1038.36</ele>
        <time>2014-06-21T15:19:57Z</time>
      </trkpt>
      <trkpt lat="47.81858" lon="7.02459">
        <ele>1040.28</ele>
        <time>2014-06-21T15:19:58Z</time>
      </trkpt>
      <trkpt lat="47.81859" lon="7.02459">
        <ele>1044.61</ele>
        <time>2014-06-21T15:19:59Z</time>
      </trkpt>
      <trkpt lat="47.8186" lon="7.02459">
        <ele>1039.8</ele>
        <time>2014-06-21T15:20:00Z</time>
      </trkpt>
      <trkpt lat="47.81861" lon="7.02459">
        <ele>1042.21</ele>
        <time>2014-06-21T15:20:02Z</time>
      </trkpt>
      <trkpt lat="47.81862" lon="7.02459">
        <ele>1038.84</ele>
        <time>2014-06-21T15:20:03Z</time>
      </trkpt>
      <trkpt lat="47.81863" lon="7.0246">
        <ele>1041.73</ele>
        <time>2014-06-21T15:20:05Z</time>
      </trkpt>
      <trkpt lat="47.81863" lon="7.0246">
        <ele>1038.36</ele>
        <time>2014-06-21T15:20:06Z</time>
      </trkpt>
      <trkpt lat="47.81864" lon="7.0246">
        <ele>1040.76</ele>
        <time>2014-06-21T15:20:07Z</time>
      </trkpt>
      <trkpt lat="47.81864" lon="7.0246">
        <ele>1042.69</ele>
        <time>2014-06-21T15:20:08Z</time>
      </trkpt>
      <trkpt lat="47.81864" lon="7.0246">
        <ele>1041.25</ele>
        <time>2014-06-21T15:20:09Z</time>
      </trkpt>
      <trkpt lat="47.81866" lon="7.02461">
        <ele>1047.01</ele>
        <time>2014-06-21T15:20:11Z</time>
      </trkpt>
      <trkpt lat="47.81867" lon="7.02462">
        <ele>1047.01</ele>
        <time>2014-06-21T15:20:12Z</time>
      </trkpt>
      <trkpt lat="47.81868" lon="7.02462">
        <ele>1039.8</ele>
        <time>2014-06-21T15:20:13Z</time>
      </trkpt>
      <trkpt lat="47.81868" lon="7.02463">
        <ele>1042.21</ele>
        <time>2014-06-21T15:20:14Z</time>
      </trkpt>
      <trkpt lat="47.81869" lon="7.02463">
        <ele>1047.01</ele>
        <time>2014-06-21T15:20:15Z</time>
      </trkpt>
      <trkpt lat="47.81871" lon="7.02464">
        <ele>1044.13</ele>
        <time>2014-06-21T15:20:17Z</time>
      </trkpt>
      <trkpt lat="47.81873" lon="7.02464">
        <ele>1047.01</ele>
        <time>2014-06-21T15:20:19Z</time>
      </trkpt>
      <trkpt lat="47.81873" lon="7.02464">
        <ele>1043.65</ele>
        <time>2014-06-21T15:20:20Z</time>
      </trkpt>
      <trkpt lat="47.81875" lon="7.02464">
        <ele>1037.4</ele>
        <time>2014-06-21T15:20:22Z</time>
      </trkpt>
      <trkpt lat="47.81876" lon="7.02465">
        <ele>1037.4</ele>
        <time>2014-06-21T15:20:23Z</time>
      </trkpt>
      <trkpt lat="47.81876" lon="7.02465">
        <ele>1044.13</ele>
        <time>2014-06-21T15:20:24Z</time>
      </trkpt>
      <trkpt lat="47.81877" lon="7.02465">
        <ele>1046.53</ele>
        <time>2014-06-21T15:20:27Z</time>
      </trkpt>
      <trkpt lat="47.81877" lon="7.02465">
        <ele>1046.53</ele>
        <time>2014-06-21T15:20:28Z</time>
      </trkpt>
      <trkpt lat="47.81877" lon="7.02465">
        <ele>1042.69</ele>
        <time>2014-06-21T15:20:29Z</time>
      </trkpt>
      <trkpt lat="47.81877" lon="7.02465">
        <ele>1045.09</ele>
        <time>2014-06-21T15:20:31Z</time>
      </trkpt>
      <trkpt lat="47.81877" lon="7.02465">
        <ele>1047.97</ele>
        <time>2014-06-21T15:20:33Z</time>
      </trkpt>
      <trkpt lat="47.81878" lon="7.02465">
        <ele>1045.09</ele>
        <time>2014-06-21T15:20:35Z</time>
      </trkpt>
      <trkpt lat="47.81878" lon="7.02465">
        <ele>1049.42</ele>
        <time>2014-06-21T15:20:36Z</time>
      </trkpt>
      <trkpt lat="47.81878" lon="7.02465">
        <ele>1047.49</ele>
        <time>2014-06-21T15:20:39Z</time>
      </trkpt>
      <trkpt lat="47.81879" lon="7.02465">
        <ele>1048.94</ele>
        <time>2014-06-21T15:20:40Z</time>
      </trkpt>
      <trkpt lat="47.81881" lon="7.02465">
        <ele>1041.73</ele>
        <time>2014-06-21T15:20:41Z</time>
      </trkpt>
      <trkpt lat="47.81884" lon="7.02466">
        <ele>1047.49</ele>
        <time>2014-06-21T15:20:44Z</time>
      </trkpt>
      <trkpt lat="47.81886" lon="7.02467">
        <ele>1044.61</ele>
        <time>2014-06-21T15:20:45Z</time>
      </trkpt>
      <trkpt lat="47.81887" lon="7.02467">
        <ele>1047.97</ele>
        <time>2014-06-21T15:20:46Z</time>
      </trkpt>
      <trkpt lat="47.81891" lon="7.02467">
        <ele>1045.57</ele>
        <time>2014-06-21T15:20:49Z</time>
      </trkpt>
      <trkpt lat="47.81892" lon="7.02467">
        <ele>1048.45</ele>
        <time>2014-06-21T15:20:50Z</time>
      </trkpt>
      <trkpt lat="47.81893" lon="7.02467">
        <ele>1048.45</ele>
        <time>2014-06-21T15:20:51Z</time>
      </trkpt>
      <trkpt lat="47.81895" lon="7.02468">
        <ele>1046.05</ele>
        <time>2014-06-21T15:20:52Z</time>
      </trkpt>
      <trkpt lat="47.81897" lon="7.02469">
        <ele>1048.94</ele>
        <time>2014-06-21T15:20:54Z</time>
      </trkpt>
      <trkpt lat="47.81899" lon="7.02469">
        <ele>1050.86</ele>
        <time>2014-06-21T15:20:55Z</time>
      </trkpt>
      <trkpt lat="47.81901" lon="7.02469">
        <ele>1048.94</ele>
        <time>2014-06-21T15:20:57Z</time>
      </trkpt>
      <trkpt lat="47.81902" lon="7.02469">
        <ele>1050.38</ele>
        <time>2014-06-21T15:20:58Z</time>
      </trkpt>
      <trkpt lat="47.81909" lon="7.02469">
        <ele>1052.3</ele>
        <time>2014-06-21T15:21:04Z</time>
      </trkpt>
      <trkpt lat="47.81911" lon="7.02469">
        <ele>1047.49</ele>
        <time>2014-06-21T15:21:05Z</time>
      </trkpt>
      <trkpt lat="47.81913" lon="7.0247">
        <ele>1049.42</ele>
        <time>2014-06-21T15:21:06Z</time>
      </trkpt>
      <trkpt lat="47.81915" lon="7.0247">
        <ele>1050.86</ele>
        <time>2014-06-21T15:21:07Z</time>
      </trkpt>
      <trkpt lat="47.81916" lon="7.02471">
        <ele>1049.42</ele>
        <time>2014-06-21T15:21:08Z</time>
      </trkpt>
      <trkpt lat="47.81919" lon="7.02472">
        <ele>1047.97</ele>
        <time>2014-06-21T15:21:09Z</time>
      </trkpt>
      <trkpt lat="47.8192" lon="7.02472">
        <ele>1052.3</ele>
        <time>2014-06-21T15:21:10Z</time>
      </trkpt>
      <trkpt lat="47.81921" lon="7.02473">
        <ele>1050.86</ele>
        <time>2014-06-21T15:21:11Z</time>
      </trkpt>
      <trkpt lat="47.81922" lon="7.02474">
        <ele>1048.94</ele>
        <time>2014-06-21T15:21:12Z</time>
      </trkpt>
      <trkpt lat="47.81922" lon="7.02475">
        <ele>1050.86</ele>
        <time>2014-06-21T15:21:13Z</time>
      </trkpt>
      <trkpt lat="47.81923" lon="7.02476">
        <ele>1052.78</ele>
        <time>2014-06-21T15:21:14Z</time>
      </trkpt>
      <trkpt lat="47.81924" lon="7.02477">
        <ele>1047.49</ele>
        <time>2014-06-21T15:21:15Z</time>
      </trkpt>
      <trkpt lat="47.81924" lon="7.02477">
        <ele>1049.9</ele>
        <time>2014-06-21T15:21:16Z</time>
      </trkpt>
      <trkpt lat="47.81925" lon="7.02478">
        <ele>1051.34</ele>
        <time>2014-06-21T15:21:17Z</time>
      </trkpt>
      <trkpt lat="47.81931" lon="7.02478">
        <ele>1054.7</ele>
        <time>2014-06-21T15:21:22Z</time>
      </trkpt>
      <trkpt lat="47.81933" lon="7.02478">
        <ele>1054.7</ele>
        <time>2014-06-21T15:21:23Z</time>
      </trkpt>
      <trkpt lat="47.81934" lon="7.02478">
        <ele>1051.82</ele>
        <time>2014-06-21T15:21:24Z</time>
      </trkpt>
      <trkpt lat="47.81947" lon="7.02465">
        <ele>1051.34</ele>
        <time>2014-06-21T15:21:38Z</time>
      </trkpt>
      <trkpt lat="47.81922" lon="7.02475">
        <ele>1050.86</ele>
        <time>2014-06-21T15:22:44Z</time>
      </trkpt>
      <trkpt lat="47.81925" lon="7.02473">
        <ele>1051.34</ele>
        <time>2014-06-21T15:23:09Z</time>
      </trkpt>
      <trkpt lat="47.81931" lon="7.02476">
        <ele>1052.3</ele>
        <time>2014-06-21T15:23:22Z</time>
      </trkpt>
      <trkpt lat="47.81933" lon="7.02473">
        <ele>1052.3</ele>
        <time>2014-06-21T15:24:14Z</time>
      </trkpt>
      <trkpt lat="47.81934" lon="7.02472">
        <ele>1053.26</ele>
        <time>2014-06-21T15:24:40Z</time>
      </trkpt>
      <trkpt lat="47.81934" lon="7.02471">
        <ele>1053.74</ele>
        <time>2014-06-21T15:26:15Z</time>
      </trkpt>
      <trkpt lat="47.81933" lon="7.0247">
        <ele>1053.74</ele>
        <time>2014-06-21T15:26:39Z</time>
      </trkpt>
      <trkpt lat="47.81931" lon="7.02469">
        <ele>1049.9</ele>
        <time>2014-06-21T15:26:46Z</time>
      </trkpt>
      <trkpt lat="47.81931" lon="7.02469">
        <ele>1052.78</ele>
        <time>2014-06-21T15:26:47Z</time>
      </trkpt>
      <trkpt lat="47.81931" lon="7.02469">
        <ele>1052.78</ele>
        <time>2014-06-21T15:26:59Z</time>
      </trkpt>
      <trkpt lat="47.81932" lon="7.02467">
        <ele>1053.74</ele>
        <time>2014-06-21T15:27:16Z</time>
      </trkpt>
      <trkpt lat="47.81932" lon="7.02467">
        <ele>1057.59</ele>
        <time>2014-06-21T15:27:31Z</time>
      </trkpt>
      <trkpt lat="47.81932" lon="7.02467">
        <ele>1055.67</ele>
        <time>2014-06-21T15:27:32Z</time>
      </trkpt>
      <trkpt lat="47.81932" lon="7.02467">
        <ele>1052.3</ele>
        <time>2014-06-21T15:27:34Z</time>
      </trkpt>
      <trkpt lat="47.81932" lon="7.02467">
        <ele>1055.18</ele>
        <time>2014-06-21T15:27:36Z</time>
      </trkpt>
      <trkpt lat="47.81936" lon="7.02466">
        <ele>1055.67</ele>
        <time>2014-06-21T15:27:51Z</time>
      </trkpt>
      <trkpt lat="47.81937" lon="7.02465">
        <ele>1052.3</ele>
        <time>2014-06-21T15:27:52Z</time>
      </trkpt>
      <trkpt lat="47.81938" lon="7.02465">
        <ele>1057.11</ele>
        <time>2014-06-21T15:27:53Z</time>
      </trkpt>
      <trkpt lat="47.81939" lon="7.02464">
        <ele>1053.26</ele>
        <time>2014-06-21T15:27:54Z</time>
      </trkpt>
      <trkpt lat="47.81939" lon="7.02464">
        <ele>1052.78</ele>
        <time>2014-06-21T15:27:55Z</time>
      </trkpt>
      <trkpt lat="47.81948" lon="7.0246">
        <ele>1055.18</ele>
        <time>2014-06-21T15:28:03Z</time>
      </trkpt>
      <trkpt lat="47.81949" lon="7.0246">
        <ele>1060.47</ele>
        <time>2014-06-21T15:28:04Z</time>
      </trkpt>
      <trkpt lat="47.81951" lon="7.02459">
        <ele>1058.07</ele>
        <time>2014-06-21T15:28:05Z</time>
      </trkpt>
      <trkpt lat="47.81953" lon="7.02459">
        <ele>1054.22</ele>
        <time>2014-06-21T15:28:07Z</time>
      </trkpt>
      <trkpt lat="47.81954" lon="7.02459">
        <ele>1054.7</ele>
        <time>2014-06-21T15:28:08Z</time>
      </trkpt>
      <trkpt lat="47.81955" lon="7.02458">
        <ele>1058.07</ele>
        <time>2014-06-21T15:28:10Z</time>
      </trkpt>
      <trkpt lat="47.81966" lon="7.02452">
        <ele>1059.51</ele>
        <time>2014-06-21T15:28:20Z</time>
      </trkpt>
      <trkpt lat="47.81969" lon="7.0245">
        <ele>1056.15</ele>
        <time>2014-06-21T15:28:23Z</time>
      </trkpt>
      <trkpt lat="47.8197" lon="7.02449">
        <ele>1057.11</ele>
        <time>2014-06-21T15:28:24Z</time>
      </trkpt>
      <trkpt lat="47.81972" lon="7.02448">
        <ele>1060.47</ele>
        <time>2014-06-21T15:28:26Z</time>
      </trkpt>
      <trkpt lat="47.81974" lon="7.02448">
        <ele>1060.47</ele>
        <time>2014-06-21T15:28:27Z</time>
      </trkpt>
      <trkpt lat="47.81981" lon="7.02445">
        <ele>1056.15</ele>
        <time>2014-06-21T15:28:33Z</time>
      </trkpt>
      <trkpt lat="47.81984" lon="7.02441">
        <ele>1059.99</ele>
        <time>2014-06-21T15:28:36Z</time>
      </trkpt>
      <trkpt lat="47.81985" lon="7.0244">
        <ele>1060.47</ele>
        <time>2014-06-21T15:28:37Z</time>
      </trkpt>
      <trkpt lat="47.81989" lon="7.02439">
        <ele>1066.72</ele>
        <time>2014-06-21T15:28:40Z</time>
      </trkpt>
      <trkpt lat="47.8199" lon="7.02438">
        <ele>1061.91</ele>
        <time>2014-06-21T15:28:41Z</time>
      </trkpt>
      <trkpt lat="47.81995" lon="7.02434">
        <ele>1060.95</ele>
        <time>2014-06-21T15:28:45Z</time>
      </trkpt>
      <trkpt lat="47.82007" lon="7.02432">
        <ele>1061.43</ele>
        <time>2014-06-21T15:28:54Z</time>
      </trkpt>
      <trkpt lat="47.82014" lon="7.02428">
        <ele>1063.84</ele>
        <time>2014-06-21T15:28:59Z</time>
      </trkpt>
      <trkpt lat="47.82017" lon="7.02427">
        <ele>1059.99</ele>
        <time>2014-06-21T15:29:02Z</time>
      </trkpt>
      <trkpt lat="47.82019" lon="7.02426">
        <ele>1059.99</ele>
        <time>2014-06-21T15:29:03Z</time>
      </trkpt>
      <trkpt lat="47.8203" lon="7.02418">
        <ele>1059.51</ele>
        <time>2014-06-21T15:29:12Z</time>
      </trkpt>
      <trkpt lat="47.82034" lon="7.02412">
        <ele>1065.28</ele>
        <time>2014-06-21T15:29:16Z</time>
      </trkpt>
      <trkpt lat="47.82035" lon="7.02411">
        <ele>1058.55</ele>
        <time>2014-06-21T15:29:17Z</time>
      </trkpt>
      <trkpt lat="47.82037" lon="7.02409">
        <ele>1063.36</ele>
        <time>2014-06-21T15:29:19Z</time>
      </trkpt>
      <trkpt lat="47.82045" lon="7.02404">
        <ele>1067.68</ele>
        <time>2014-06-21T15:29:25Z</time>
      </trkpt>
      <trkpt lat="47.82045" lon="7.024">
        <ele>1064.32</ele>
        <time>2014-06-21T15:29:27Z</time>
      </trkpt>
      <trkpt lat="47.82045" lon="7.02398">
        <ele>1064.32</ele>
        <time>2014-06-21T15:29:28Z</time>
      </trkpt>
      <trkpt lat="47.82054" lon="7.02384">
        <ele>1061.43</ele>
        <time>2014-06-21T15:29:38Z</time>
      </trkpt>
      <trkpt lat="47.8206" lon="7.02376">
        <ele>1065.76</ele>
        <time>2014-06-21T15:29:44Z</time>
      </trkpt>
      <trkpt lat="47.82062" lon="7.02373">
        <ele>1069.6</ele>
        <time>2014-06-21T15:29:46Z</time>
      </trkpt>
      <trkpt lat="47.82065" lon="7.02371">
        <ele>1066.24</ele>
        <time>2014-06-21T15:29:48Z</time>
      </trkpt>
      <trkpt lat="47.82068" lon="7.02368">
        <ele>1069.12</ele>
        <time>2014-06-21T15:29:51Z</time>
      </trkpt>
      <trkpt lat="47.82069" lon="7.02366">
        <ele>1065.28</ele>
        <time>2014-06-21T15:29:53Z</time>
      </trkpt>
      <trkpt lat="47.82071" lon="7.02363">
        <ele>1063.36</ele>
        <time>2014-06-21T15:29:55Z</time>
      </trkpt>
      <trkpt lat="47.82078" lon="7.02355">
        <ele>1066.72</ele>
        <time>2014-06-21T15:30:01Z</time>
      </trkpt>
      <trkpt lat="47.82083" lon="7.02346">
        <ele>1070.08</ele>
        <time>2014-06-21T15:30:07Z</time>
      </trkpt>
      <trkpt lat="47.821" lon="7.02327">
        <ele>1071.05</ele>
        <time>2014-06-21T15:30:22Z</time>
      </trkpt>
      <trkpt lat="47.82102" lon="7.02324">
        <ele>1072.97</ele>
        <time>2014-06-21T15:30:24Z</time>
      </trkpt>
      <trkpt lat="47.82108" lon="7.02314">
        <ele>1073.93</ele>
        <time>2014-06-21T15:30:31Z</time>
      </trkpt>
      <trkpt lat="47.82111" lon="7.02309">
        <ele>1072.01</ele>
        <time>2014-06-21T15:30:34Z</time>
      </trkpt>
      <trkpt lat="47.82112" lon="7.02307">
        <ele>1071.05</ele>
        <time>2014-06-21T15:30:36Z</time>
      </trkpt>
      <trkpt lat="47.82114" lon="7.02302">
        <ele>1071.05</ele>
        <time>2014-06-21T15:30:39Z</time>
      </trkpt>
      <trkpt lat="47.8212" lon="7.02292">
        <ele>1066.24</ele>
        <time>2014-06-21T15:30:46Z</time>
      </trkpt>
      <trkpt lat="47.82126" lon="7.02285">
        <ele>1069.12</ele>
        <time>2014-06-21T15:30:51Z</time>
      </trkpt>
      <trkpt lat="47.82136" lon="7.02269">
        <ele>1069.12</ele>
        <time>2014-06-21T15:31:02Z</time>
      </trkpt>
      <trkpt lat="47.82145" lon="7.0225">
        <ele>1070.08</ele>
        <time>2014-06-21T15:31:13Z</time>
      </trkpt>
      <trkpt lat="47.82155" lon="7.02231">
        <ele>1071.53</ele>
        <time>2014-06-21T15:31:25Z</time>
      </trkpt>
      <trkpt lat="47.82156" lon="7.02228">
        <ele>1073.93</ele>
        <time>2014-06-21T15:31:27Z</time>
      </trkpt>
      <trkpt lat="47.8216" lon="7.02218">
        <ele>1075.85</ele>
        <time>2014-06-21T15:31:33Z</time>
      </trkpt>
      <trkpt lat="47.82163" lon="7.0221">
        <ele>1072.49</ele>
        <time>2014-06-21T15:31:38Z</time>
      </trkpt>
      <trkpt lat="47.82164" lon="7.02208">
        <ele>1072.97</ele>
        <time>2014-06-21T15:31:39Z</time>
      </trkpt>
      <trkpt lat="47.82165" lon="7.02207">
        <ele>1077.78</ele>
        <time>2014-06-21T15:31:40Z</time>
      </trkpt>
      <trkpt lat="47.82166" lon="7.02205">
        <ele>1073.93</ele>
        <time>2014-06-21T15:31:41Z</time>
      </trkpt>
      <trkpt lat="47.82168" lon="7.02197">
        <ele>1071.53</ele>
        <time>2014-06-21T15:31:46Z</time>
      </trkpt>
      <trkpt lat="47.82169" lon="7.02192">
        <ele>1075.85</ele>
        <time>2014-06-21T15:31:49Z</time>
      </trkpt>
      <trkpt lat="47.8217" lon="7.02187">
        <ele>1078.74</ele>
        <time>2014-06-21T15:31:52Z</time>
      </trkpt>
      <trkpt lat="47.82175" lon="7.0217">
        <ele>1074.41</ele>
        <time>2014-06-21T15:32:02Z</time>
      </trkpt>
      <trkpt lat="47.82178" lon="7.02159">
        <ele>1079.7</ele>
        <time>2014-06-21T15:32:08Z</time>
      </trkpt>
      <trkpt lat="47.82178" lon="7.02158">
        <ele>1082.1</ele>
        <time>2014-06-21T15:32:09Z</time>
      </trkpt>
      <trkpt lat="47.82184" lon="7.02146">
        <ele>1077.29</ele>
        <time>2014-06-21T15:32:17Z</time>
      </trkpt>
      <trkpt lat="47.82187" lon="7.02136">
        <ele>1080.18</ele>
        <time>2014-06-21T15:32:23Z</time>
      </trkpt>
      <trkpt lat="47.82189" lon="7.02134">
        <ele>1082.1</ele>
        <time>2014-06-21T15:32:25Z</time>
      </trkpt>
      <trkpt lat="47.82191" lon="7.02129">
        <ele>1079.22</ele>
        <time>2014-06-21T15:32:28Z</time>
      </trkpt>
      <trkpt lat="47.82195" lon="7.02115">
        <ele>1083.54</ele>
        <time>2014-06-21T15:32:36Z</time>
      </trkpt>
      <trkpt lat="47.82196" lon="7.02114">
        <ele>1083.06</ele>
        <time>2014-06-21T15:32:37Z</time>
      </trkpt>
      <trkpt lat="47.82201" lon="7.02105">
        <ele>1078.26</ele>
        <time>2014-06-21T15:32:43Z</time>
      </trkpt>
      <trkpt lat="47.82203" lon="7.021">
        <ele>1081.62</ele>
        <time>2014-06-21T15:32:46Z</time>
      </trkpt>
      <trkpt lat="47.82203" lon="7.02098">
        <ele>1084.5</ele>
        <time>2014-06-21T15:32:47Z</time>
      </trkpt>
      <trkpt lat="47.82204" lon="7.02097">
        <ele>1083.54</ele>
        <time>2014-06-21T15:32:48Z</time>
      </trkpt>
      <trkpt lat="47.82206" lon="7.02093">
        <ele>1086.43</ele>
        <time>2014-06-21T15:32:50Z</time>
      </trkpt>
      <trkpt lat="47.82206" lon="7.02091">
        <ele>1084.5</ele>
        <time>2014-06-21T15:32:51Z</time>
      </trkpt>
      <trkpt lat="47.82207" lon="7.02088">
        <ele>1086.43</ele>
        <time>2014-06-21T15:32:53Z</time>
      </trkpt>
      <trkpt lat="47.82209" lon="7.02084">
        <ele>1081.14</ele>
        <time>2014-06-21T15:32:56Z</time>
      </trkpt>
      <trkpt lat="47.82211" lon="7.02076">
        <ele>1084.02</ele>
        <time>2014-06-21T15:33:01Z</time>
      </trkpt>
      <trkpt lat="47.82212" lon="7.02074">
        <ele>1087.39</ele>
        <time>2014-06-21T15:33:02Z</time>
      </trkpt>
      <trkpt lat="47.82212" lon="7.02073">
        <ele>1085.47</ele>
        <time>2014-06-21T15:33:03Z</time>
      </trkpt>
      <trkpt lat="47.82213" lon="7.02072">
        <ele>1084.5</ele>
        <time>2014-06-21T15:33:05Z</time>
      </trkpt>
      <trkpt lat="47.82218" lon="7.0206">
        <ele>1087.87</ele>
        <time>2014-06-21T15:33:13Z</time>
      </trkpt>
      <trkpt lat="47.82221" lon="7.02053">
        <ele>1084.02</ele>
        <time>2014-06-21T15:33:17Z</time>
      </trkpt>
      <trkpt lat="47.82221" lon="7.02052">
        <ele>1084.5</ele>
        <time>2014-06-21T15:33:18Z</time>
      </trkpt>
      <trkpt lat="47.82224" lon="7.02049">
        <ele>1084.5</ele>
        <time>2014-06-21T15:33:23Z</time>
      </trkpt>
      <trkpt lat="47.82227" lon="7.02042">
        <ele>1088.83</ele>
        <time>2014-06-21T15:33:27Z</time>
      </trkpt>
      <trkpt lat="47.82228" lon="7.02039">
        <ele>1090.27</ele>
        <time>2014-06-21T15:33:29Z</time>
      </trkpt>
      <trkpt lat="47.82237" lon="7.02029">
        <ele>1091.23</ele>
        <time>2014-06-21T15:33:37Z</time>
      </trkpt>
      <trkpt lat="47.8224" lon="7.02027">
        <ele>1087.39</ele>
        <time>2014-06-21T15:33:40Z</time>
      </trkpt>
      <trkpt lat="47.82241" lon="7.02026">
        <ele>1083.54</ele>
        <time>2014-06-21T15:33:41Z</time>
      </trkpt>
      <trkpt lat="47.82244" lon="7.02023">
        <ele>1085.47</ele>
        <time>2014-06-21T15:33:44Z</time>
      </trkpt>
      <trkpt lat="47.82248" lon="7.02023">
        <ele>1089.31</ele>
        <time>2014-06-21T15:33:47Z</time>
      </trkpt>
      <trkpt lat="47.82249" lon="7.02022">
        <ele>1088.83</ele>
        <time>2014-06-21T15:33:48Z</time>
      </trkpt>
      <trkpt lat="47.8225" lon="7.02022">
        <ele>1093.16</ele>
        <time>2014-06-21T15:33:49Z</time>
      </trkpt>
      <trkpt lat="47.82251" lon="7.02021">
        <ele>1091.71</ele>
        <time>2014-06-21T15:33:50Z</time>
      </trkpt>
      <trkpt lat="47.82254" lon="7.02019">
        <ele>1095.08</ele>
        <time>2014-06-21T15:33:52Z</time>
      </trkpt>
      <trkpt lat="47.82255" lon="7.02018">
        <ele>1094.12</ele>
        <time>2014-06-21T15:33:53Z</time>
      </trkpt>
      <trkpt lat="47.82259" lon="7.02017">
        <ele>1092.68</ele>
        <time>2014-06-21T15:33:56Z</time>
      </trkpt>
      <trkpt lat="47.8226" lon="7.02016">
        <ele>1088.83</ele>
        <time>2014-06-21T15:33:57Z</time>
      </trkpt>
      <trkpt lat="47.82264" lon="7.02012">
        <ele>1092.68</ele>
        <time>2014-06-21T15:34:01Z</time>
      </trkpt>
      <trkpt lat="47.82265" lon="7.02011">
        <ele>1091.23</ele>
        <time>2014-06-21T15:34:02Z</time>
      </trkpt>
      <trkpt lat="47.8227" lon="7.02006">
        <ele>1095.08</ele>
        <time>2014-06-21T15:34:07Z</time>
      </trkpt>
      <trkpt lat="47.82276" lon="7.02">
        <ele>1092.2</ele>
        <time>2014-06-21T15:34:13Z</time>
      </trkpt>
      <trkpt lat="47.8228" lon="7.01996">
        <ele>1093.16</ele>
        <time>2014-06-21T15:34:18Z</time>
      </trkpt>
      <trkpt lat="47.82282" lon="7.01991">
        <ele>1092.2</ele>
        <time>2014-06-21T15:34:25Z</time>
      </trkpt>
      <trkpt lat="47.82283" lon="7.01992">
        <ele>1093.16</ele>
        <time>2014-06-21T15:34:27Z</time>
      </trkpt>
      <trkpt lat="47.82285" lon="7.01983">
        <ele>1097</ele>
        <time>2014-06-21T15:34:32Z</time>
      </trkpt>
      <trkpt lat="47.82283" lon="7.01978">
        <ele>1097.48</ele>
        <time>2014-06-21T15:34:35Z</time>
      </trkpt>
      <trkpt lat="47.82282" lon="7.01974">
        <ele>1094.12</ele>
        <time>2014-06-21T15:34:37Z</time>
      </trkpt>
      <trkpt lat="47.82278" lon="7.01965">
        <ele>1097</ele>
        <time>2014-06-21T15:34:41Z</time>
      </trkpt>
      <trkpt lat="47.82276" lon="7.0195">
        <ele>1093.64</ele>
        <time>2014-06-21T15:34:49Z</time>
      </trkpt>
      <trkpt lat="47.82275" lon="7.01948">
        <ele>1093.16</ele>
        <time>2014-06-21T15:34:50Z</time>
      </trkpt>
      <trkpt lat="47.82275" lon="7.01945">
        <ele>1089.79</ele>
        <time>2014-06-21T15:34:52Z</time>
      </trkpt>
      <trkpt lat="47.82274" lon="7.01941">
        <ele>1094.6</ele>
        <time>2014-06-21T15:34:54Z</time>
      </trkpt>
      <trkpt lat="47.82274" lon="7.01939">
        <ele>1093.16</ele>
        <time>2014-06-21T15:34:55Z</time>
      </trkpt>
      <trkpt lat="47.82273" lon="7.01937">
        <ele>1095.56</ele>
        <time>2014-06-21T15:34:56Z</time>
      </trkpt>
      <trkpt lat="47.8227" lon="7.01925">
        <ele>1097.48</ele>
        <time>2014-06-21T15:35:02Z</time>
      </trkpt>
      <trkpt lat="47.82269" lon="7.01913">
        <ele>1095.08</ele>
        <time>2014-06-21T15:35:08Z</time>
      </trkpt>
      <trkpt lat="47.82267" lon="7.01907">
        <ele>1092.68</ele>
        <time>2014-06-21T15:35:11Z</time>
      </trkpt>
      <trkpt lat="47.82266" lon="7.01898">
        <ele>1093.16</ele>
        <time>2014-06-21T15:35:15Z</time>
      </trkpt>
      <trkpt lat="47.82265" lon="7.01892">
        <ele>1095.56</ele>
        <time>2014-06-21T15:35:18Z</time>
      </trkpt>
      <trkpt lat="47.82263" lon="7.01875">
        <ele>1098.92</ele>
        <time>2014-06-21T15:35:26Z</time>
      </trkpt>
      <trkpt lat="47.82261" lon="7.01863">
        <ele>1095.56</ele>
        <time>2014-06-21T15:35:32Z</time>
      </trkpt>
      <trkpt lat="47.8226" lon="7.01853">
        <ele>1092.2</ele>
        <time>2014-06-21T15:35:37Z</time>
      </trkpt>
      <trkpt lat="47.82259" lon="7.01844">
        <ele>1096.52</ele>
        <time>2014-06-21T15:35:41Z</time>
      </trkpt>
      <trkpt lat="47.82258" lon="7.01831">
        <ele>1099.89</ele>
        <time>2014-06-21T15:35:48Z</time>
      </trkpt>
      <trkpt lat="47.82256" lon="7.0182">
        <ele>1098.92</ele>
        <time>2014-06-21T15:35:54Z</time>
      </trkpt>
      <trkpt lat="47.82256" lon="7.01816">
        <ele>1101.81</ele>
        <time>2014-06-21T15:35:56Z</time>
      </trkpt>
      <trkpt lat="47.82254" lon="7.01801">
        <ele>1098.44</ele>
        <time>2014-06-21T15:36:04Z</time>
      </trkpt>
      <trkpt lat="47.82253" lon="7.01793">
        <ele>1101.81</ele>
        <time>2014-06-21T15:36:08Z</time>
      </trkpt>
      <trkpt lat="47.82252" lon="7.01786">
        <ele>1097</ele>
        <time>2014-06-21T15:36:11Z</time>
      </trkpt>
      <trkpt lat="47.82251" lon="7.01784">
        <ele>1097.96</ele>
        <time>2014-06-21T15:36:12Z</time>
      </trkpt>
      <trkpt lat="47.8225" lon="7.01772">
        <ele>1094.6</ele>
        <time>2014-06-21T15:36:18Z</time>
      </trkpt>
      <trkpt lat="47.82248" lon="7.01766">
        <ele>1097</ele>
        <time>2014-06-21T15:36:21Z</time>
      </trkpt>
      <trkpt lat="47.82246" lon="7.0176">
        <ele>1100.37</ele>
        <time>2014-06-21T15:36:24Z</time>
      </trkpt>
      <trkpt lat="47.82244" lon="7.01747">
        <ele>1094.6</ele>
        <time>2014-06-21T15:36:31Z</time>
      </trkpt>
      <trkpt lat="47.82244" lon="7.01745">
        <ele>1095.56</ele>
        <time>2014-06-21T15:36:32Z</time>
      </trkpt>
      <trkpt lat="47.82243" lon="7.01737">
        <ele>1098.92</ele>
        <time>2014-06-21T15:36:36Z</time>
      </trkpt>
      <trkpt lat="47.82242" lon="7.01733">
        <ele>1102.77</ele>
        <time>2014-06-21T15:36:38Z</time>
      </trkpt>
      <trkpt lat="47.82241" lon="7.01729">
        <ele>1099.89</ele>
        <time>2014-06-21T15:36:40Z</time>
      </trkpt>
      <trkpt lat="47.8224" lon="7.01724">
        <ele>1099.4</ele>
        <time>2014-06-21T15:36:42Z</time>
      </trkpt>
      <trkpt lat="47.8224" lon="7.01722">
        <ele>1096.04</ele>
        <time>2014-06-21T15:36:43Z</time>
      </trkpt>
      <trkpt lat="47.8224" lon="7.01718">
        <ele>1095.56</ele>
        <time>2014-06-21T15:36:45Z</time>
      </trkpt>
      <trkpt lat="47.8224" lon="7.01712">
        <ele>1098.92</ele>
        <time>2014-06-21T15:36:48Z</time>
      </trkpt>
      <trkpt lat="47.82238" lon="7.01698">
        <ele>1095.08</ele>
        <time>2014-06-21T15:36:55Z</time>
      </trkpt>
      <trkpt lat="47.82236" lon="7.01684">
        <ele>1097.96</ele>
        <time>2014-06-21T15:37:02Z</time>
      </trkpt>
      <trkpt lat="47.82236" lon="7.01682">
        <ele>1097</ele>
        <time>2014-06-21T15:37:03Z</time>
      </trkpt>
      <trkpt lat="47.82237" lon="7.01677">
        <ele>1098.44</ele>
        <time>2014-06-21T15:37:06Z</time>
      </trkpt>
      <trkpt lat="47.82238" lon="7.01673">
        <ele>1100.37</ele>
        <time>2014-06-21T15:37:08Z</time>
      </trkpt>
      <trkpt lat="47.82238" lon="7.01669">
        <ele>1096.04</ele>
        <time>2014-06-21T15:37:13Z</time>
      </trkpt>
      <trkpt lat="47.82238" lon="7.01669">
        <ele>1100.37</ele>
        <time>2014-06-21T15:37:14Z</time>
      </trkpt>
      <trkpt lat="47.82239" lon="7.01666">
        <ele>1098.92</ele>
        <time>2014-06-21T15:37:16Z</time>
      </trkpt>
      <trkpt lat="47.82238" lon="7.01661">
        <ele>1097</ele>
        <time>2014-06-21T15:37:19Z</time>
      </trkpt>
      <trkpt lat="47.82238" lon="7.01659">
        <ele>1097.48</ele>
        <time>2014-06-21T15:37:20Z</time>
      </trkpt>
      <trkpt lat="47.82238" lon="7.01656">
        <ele>1094.12</ele>
        <time>2014-06-21T15:37:21Z</time>
      </trkpt>
      <trkpt lat="47.82237" lon="7.0165">
        <ele>1097.48</ele>
        <time>2014-06-21T15:37:24Z</time>
      </trkpt>
      <trkpt lat="47.82237" lon="7.01641">
        <ele>1101.33</ele>
        <time>2014-06-21T15:37:28Z</time>
      </trkpt>
      <trkpt lat="47.82236" lon="7.01635">
        <ele>1097</ele>
        <time>2014-06-21T15:37:31Z</time>
      </trkpt>
      <trkpt lat="47.82236" lon="7.0163">
        <ele>1092.68</ele>
        <time>2014-06-21T15:37:33Z</time>
      </trkpt>
      <trkpt lat="47.82236" lon="7.01628">
        <ele>1094.12</ele>
        <time>2014-06-21T15:37:34Z</time>
      </trkpt>
      <trkpt lat="47.82235" lon="7.01618">
        <ele>1098.44</ele>
        <time>2014-06-21T15:37:38Z</time>
      </trkpt>
      <trkpt lat="47.82235" lon="7.01616">
        <ele>1098.44</ele>
        <time>2014-06-21T15:37:39Z</time>
      </trkpt>
      <trkpt lat="47.82236" lon="7.01598">
        <ele>1097</ele>
        <time>2014-06-21T15:37:49Z</time>
      </trkpt>
      <trkpt lat="47.82237" lon="7.0159">
        <ele>1093.64</ele>
        <time>2014-06-21T15:37:52Z</time>
      </trkpt>
      <trkpt lat="47.82238" lon="7.01586">
        <ele>1097</ele>
        <time>2014-06-21T15:37:54Z</time>
      </trkpt>
      <trkpt lat="47.8224" lon="7.01575">
        <ele>1100.37</ele>
        <time>2014-06-21T15:37:59Z</time>
      </trkpt>
      <trkpt lat="47.82241" lon="7.01558">
        <ele>1100.37</ele>
        <time>2014-06-21T15:38:07Z</time>
      </trkpt>
      <trkpt lat="47.82241" lon="7.01543">
        <ele>1094.6</ele>
        <time>2014-06-21T15:38:15Z</time>
      </trkpt>
      <trkpt lat="47.82241" lon="7.01541">
        <ele>1095.08</ele>
        <time>2014-06-21T15:38:16Z</time>
      </trkpt>
      <trkpt lat="47.82241" lon="7.01531">
        <ele>1098.44</ele>
        <time>2014-06-21T15:38:21Z</time>
      </trkpt>
      <trkpt lat="47.8224" lon="7.01527">
        <ele>1099.4</ele>
        <time>2014-06-21T15:38:23Z</time>
      </trkpt>
      <trkpt lat="47.8224" lon="7.0152">
        <ele>1100.37</ele>
        <time>2014-06-21T15:38:27Z</time>
      </trkpt>
      <trkpt lat="47.82239" lon="7.01503">
        <ele>1103.73</ele>
        <time>2014-06-21T15:38:36Z</time>
      </trkpt>
      <trkpt lat="47.8224" lon="7.01482">
        <ele>1102.29</ele>
        <time>2014-06-21T15:38:47Z</time>
      </trkpt>
      <trkpt lat="47.82242" lon="7.0147">
        <ele>1105.17</ele>
        <time>2014-06-21T15:38:54Z</time>
      </trkpt>
      <trkpt lat="47.82244" lon="7.01459">
        <ele>1109.02</ele>
        <time>2014-06-21T15:39:00Z</time>
      </trkpt>
      <trkpt lat="47.82245" lon="7.01453">
        <ele>1106.61</ele>
        <time>2014-06-21T15:39:03Z</time>
      </trkpt>
      <trkpt lat="47.82249" lon="7.01435">
        <ele>1110.46</ele>
        <time>2014-06-21T15:39:13Z</time>
      </trkpt>
      <trkpt lat="47.82249" lon="7.01434">
        <ele>1109.98</ele>
        <time>2014-06-21T15:39:14Z</time>
      </trkpt>
      <trkpt lat="47.82252" lon="7.01428">
        <ele>1104.69</ele>
        <time>2014-06-21T15:39:18Z</time>
      </trkpt>
      <trkpt lat="47.82254" lon="7.01423">
        <ele>1108.06</ele>
        <time>2014-06-21T15:39:22Z</time>
      </trkpt>
      <trkpt lat="47.82257" lon="7.01415">
        <ele>1111.42</ele>
        <time>2014-06-21T15:39:27Z</time>
      </trkpt>
      <trkpt lat="47.82258" lon="7.01411">
        <ele>1108.06</ele>
        <time>2014-06-21T15:39:30Z</time>
      </trkpt>
      <trkpt lat="47.82258" lon="7.01409">
        <ele>1108.54</ele>
        <time>2014-06-21T15:39:31Z</time>
      </trkpt>
      <trkpt lat="47.8226" lon="7.01406">
        <ele>1105.65</ele>
        <time>2014-06-21T15:39:33Z</time>
      </trkpt>
      <trkpt lat="47.82263" lon="7.014">
        <ele>1109.5</ele>
        <time>2014-06-21T15:39:37Z</time>
      </trkpt>
      <trkpt lat="47.82264" lon="7.01399">
        <ele>1109.5</ele>
        <time>2014-06-21T15:39:38Z</time>
      </trkpt>
      <trkpt lat="47.82264" lon="7.01398">
        <ele>1111.42</ele>
        <time>2014-06-21T15:39:39Z</time>
      </trkpt>
      <trkpt lat="47.82273" lon="7.01386">
        <ele>1108.06</ele>
        <time>2014-06-21T15:39:49Z</time>
      </trkpt>
      <trkpt lat="47.82277" lon="7.0138">
        <ele>1109.5</ele>
        <time>2014-06-21T15:39:54Z</time>
      </trkpt>
      <trkpt lat="47.82279" lon="7.01377">
        <ele>1112.86</ele>
        <time>2014-06-21T15:39:56Z</time>
      </trkpt>
      <trkpt lat="47.82279" lon="7.01375">
        <ele>1112.86</ele>
        <time>2014-06-21T15:39:57Z</time>
      </trkpt>
      <trkpt lat="47.82283" lon="7.01365">
        <ele>1110.94</ele>
        <time>2014-06-21T15:40:04Z</time>
      </trkpt>
      <trkpt lat="47.82283" lon="7.0136">
        <ele>1114.79</ele>
        <time>2014-06-21T15:40:07Z</time>
      </trkpt>
      <trkpt lat="47.82283" lon="7.01353">
        <ele>1108.54</ele>
        <time>2014-06-21T15:40:11Z</time>
      </trkpt>
      <trkpt lat="47.82284" lon="7.01351">
        <ele>1108.54</ele>
        <time>2014-06-21T15:40:12Z</time>
      </trkpt>
      <trkpt lat="47.82284" lon="7.0135">
        <ele>1112.38</ele>
        <time>2014-06-21T15:40:13Z</time>
      </trkpt>
      <trkpt lat="47.82284" lon="7.01348">
        <ele>1112.38</ele>
        <time>2014-06-21T15:40:14Z</time>
      </trkpt>
      <trkpt lat="47.82284" lon="7.01344">
        <ele>1115.27</ele>
        <time>2014-06-21T15:40:17Z</time>
      </trkpt>
      <trkpt lat="47.82286" lon="7.01339">
        <ele>1111.9</ele>
        <time>2014-06-21T15:40:20Z</time>
      </trkpt>
      <trkpt lat="47.82286" lon="7.01335">
        <ele>1115.75</ele>
        <time>2014-06-21T15:40:23Z</time>
      </trkpt>
      <trkpt lat="47.82286" lon="7.01333">
        <ele>1119.11</ele>
        <time>2014-06-21T15:40:24Z</time>
      </trkpt>
      <trkpt lat="47.82286" lon="7.01331">
        <ele>1115.75</ele>
        <time>2014-06-21T15:40:25Z</time>
      </trkpt>
      <trkpt lat="47.82287" lon="7.01328">
        <ele>1117.19</ele>
        <time>2014-06-21T15:40:28Z</time>
      </trkpt>
      <trkpt lat="47.82288" lon="7.01327">
        <ele>1114.31</ele>
        <time>2014-06-21T15:40:29Z</time>
      </trkpt>
      <trkpt lat="47.82288" lon="7.01326">
        <ele>1114.79</ele>
        <time>2014-06-21T15:40:30Z</time>
      </trkpt>
      <trkpt lat="47.82289" lon="7.01323">
        <ele>1116.71</ele>
        <time>2014-06-21T15:40:32Z</time>
      </trkpt>
      <trkpt lat="47.82291" lon="7.01313">
        <ele>1113.82</ele>
        <time>2014-06-21T15:40:39Z</time>
      </trkpt>
      <trkpt lat="47.82291" lon="7.01312">
        <ele>1113.82</ele>
        <time>2014-06-21T15:40:40Z</time>
      </trkpt>
      <trkpt lat="47.82292" lon="7.0131">
        <ele>1117.67</ele>
        <time>2014-06-21T15:40:41Z</time>
      </trkpt>
      <trkpt lat="47.82293" lon="7.01307">
        <ele>1120.07</ele>
        <time>2014-06-21T15:40:43Z</time>
      </trkpt>
      <trkpt lat="47.82294" lon="7.01299">
        <ele>1114.79</ele>
        <time>2014-06-21T15:40:48Z</time>
      </trkpt>
      <trkpt lat="47.82294" lon="7.01298">
        <ele>1116.71</ele>
        <time>2014-06-21T15:40:49Z</time>
      </trkpt>
      <trkpt lat="47.82295" lon="7.01292">
        <ele>1120.07</ele>
        <time>2014-06-21T15:40:53Z</time>
      </trkpt>
      <trkpt lat="47.82297" lon="7.01283">
        <ele>1117.67</ele>
        <time>2014-06-21T15:40:59Z</time>
      </trkpt>
      <trkpt lat="47.82304" lon="7.01258">
        <ele>1122</ele>
        <time>2014-06-21T15:41:13Z</time>
      </trkpt>
      <trkpt lat="47.82309" lon="7.01241">
        <ele>1125.84</ele>
        <time>2014-06-21T15:41:25Z</time>
      </trkpt>
      <trkpt lat="47.8231" lon="7.01239">
        <ele>1121.03</ele>
        <time>2014-06-21T15:41:27Z</time>
      </trkpt>
      <trkpt lat="47.82311" lon="7.01237">
        <ele>1121.03</ele>
        <time>2014-06-21T15:41:28Z</time>
      </trkpt>
      <trkpt lat="47.82313" lon="7.01234">
        <ele>1119.59</ele>
        <time>2014-06-21T15:41:31Z</time>
      </trkpt>
      <trkpt lat="47.82316" lon="7.01227">
        <ele>1124.4</ele>
        <time>2014-06-21T15:41:36Z</time>
      </trkpt>
      <trkpt lat="47.82316" lon="7.01225">
        <ele>1124.4</ele>
        <time>2014-06-21T15:41:37Z</time>
      </trkpt>
      <trkpt lat="47.82321" lon="7.01209">
        <ele>1125.36</ele>
        <time>2014-06-21T15:41:45Z</time>
      </trkpt>
      <trkpt lat="47.82322" lon="7.01205">
        <ele>1122.48</ele>
        <time>2014-06-21T15:41:48Z</time>
      </trkpt>
      <trkpt lat="47.82322" lon="7.01203">
        <ele>1119.11</ele>
        <time>2014-06-21T15:41:49Z</time>
      </trkpt>
      <trkpt lat="47.82323" lon="7.01202">
        <ele>1121.03</ele>
        <time>2014-06-21T15:41:50Z</time>
      </trkpt>
      <trkpt lat="47.82326" lon="7.01194">
        <ele>1125.36</ele>
        <time>2014-06-21T15:41:54Z</time>
      </trkpt>
      <trkpt lat="47.82327" lon="7.01193">
        <ele>1124.4</ele>
        <time>2014-06-21T15:41:55Z</time>
      </trkpt>
      <trkpt lat="47.82333" lon="7.01178">
        <ele>1120.55</ele>
        <time>2014-06-21T15:42:03Z</time>
      </trkpt>
      <trkpt lat="47.82334" lon="7.01175">
        <ele>1119.11</ele>
        <time>2014-06-21T15:42:05Z</time>
      </trkpt>
      <trkpt lat="47.82337" lon="7.01164">
        <ele>1122.96</ele>
        <time>2014-06-21T15:42:11Z</time>
      </trkpt>
      <trkpt lat="47.82337" lon="7.01162">
        <ele>1125.84</ele>
        <time>2014-06-21T15:42:12Z</time>
      </trkpt>
      <trkpt lat="47.82338" lon="7.0116">
        <ele>1124.88</ele>
        <time>2014-06-21T15:42:13Z</time>
      </trkpt>
      <trkpt lat="47.82344" lon="7.01147">
        <ele>1122.48</ele>
        <time>2014-06-21T15:42:22Z</time>
      </trkpt>
      <trkpt lat="47.82347" lon="7.01143">
        <ele>1121.03</ele>
        <time>2014-06-21T15:42:25Z</time>
      </trkpt>
      <trkpt lat="47.82351" lon="7.01132">
        <ele>1124.88</ele>
        <time>2014-06-21T15:42:31Z</time>
      </trkpt>
      <trkpt lat="47.82356" lon="7.01122">
        <ele>1123.44</ele>
        <time>2014-06-21T15:42:38Z</time>
      </trkpt>
      <trkpt lat="47.82356" lon="7.01119">
        <ele>1119.59</ele>
        <time>2014-06-21T15:42:40Z</time>
      </trkpt>
      <trkpt lat="47.82356" lon="7.01117">
        <ele>1117.67</ele>
        <time>2014-06-21T15:42:41Z</time>
      </trkpt>
      <trkpt lat="47.82357" lon="7.0111">
        <ele>1123.92</ele>
        <time>2014-06-21T15:42:44Z</time>
      </trkpt>
      <trkpt lat="47.82358" lon="7.01108">
        <ele>1124.4</ele>
        <time>2014-06-21T15:42:45Z</time>
      </trkpt>
      <trkpt lat="47.82359" lon="7.01103">
        <ele>1126.32</ele>
        <time>2014-06-21T15:42:47Z</time>
      </trkpt>
      <trkpt lat="47.82361" lon="7.01094">
        <ele>1121.03</ele>
        <time>2014-06-21T15:42:52Z</time>
      </trkpt>
      <trkpt lat="47.82365" lon="7.01084">
        <ele>1122.96</ele>
        <time>2014-06-21T15:42:57Z</time>
      </trkpt>
      <trkpt lat="47.8237" lon="7.01073">
        <ele>1122</ele>
        <time>2014-06-21T15:43:02Z</time>
      </trkpt>
      <trkpt lat="47.82374" lon="7.01063">
        <ele>1125.36</ele>
        <time>2014-06-21T15:43:07Z</time>
      </trkpt>
      <trkpt lat="47.82375" lon="7.01061">
        <ele>1125.36</ele>
        <time>2014-06-21T15:43:08Z</time>
      </trkpt>
      <trkpt lat="47.82381" lon="7.01047">
        <ele>1127.76</ele>
        <time>2014-06-21T15:43:16Z</time>
      </trkpt>
      <trkpt lat="47.8239" lon="7.01029">
        <ele>1125.36</ele>
        <time>2014-06-21T15:43:27Z</time>
      </trkpt>
      <trkpt lat="47.82394" lon="7.0102">
        <ele>1129.21</ele>
        <time>2014-06-21T15:43:32Z</time>
      </trkpt>
      <trkpt lat="47.82394" lon="7.01018">
        <ele>1128.24</ele>
        <time>2014-06-21T15:43:33Z</time>
      </trkpt>
      <trkpt lat="47.82402" lon="7.01">
        <ele>1126.32</ele>
        <time>2014-06-21T15:43:44Z</time>
      </trkpt>
      <trkpt lat="47.82406" lon="7.00988">
        <ele>1129.69</ele>
        <time>2014-06-21T15:43:50Z</time>
      </trkpt>
      <trkpt lat="47.82406" lon="7.00987">
        <ele>1128.73</ele>
        <time>2014-06-21T15:43:51Z</time>
      </trkpt>
      <trkpt lat="47.82409" lon="7.00979">
        <ele>1125.36</ele>
        <time>2014-06-21T15:43:56Z</time>
      </trkpt>
      <trkpt lat="47.8241" lon="7.00977">
        <ele>1125.36</ele>
        <time>2014-06-21T15:43:57Z</time>
      </trkpt>
      <trkpt lat="47.82413" lon="7.00971">
        <ele>1129.21</ele>
        <time>2014-06-21T15:44:01Z</time>
      </trkpt>
      <trkpt lat="47.82414" lon="7.0097">
        <ele>1127.76</ele>
        <time>2014-06-21T15:44:02Z</time>
      </trkpt>
      <trkpt lat="47.82426" lon="7.00955">
        <ele>1131.13</ele>
        <time>2014-06-21T15:44:13Z</time>
      </trkpt>
      <trkpt lat="47.82427" lon="7.00954">
        <ele>1130.65</ele>
        <time>2014-06-21T15:44:14Z</time>
      </trkpt>
      <trkpt lat="47.82436" lon="7.00943">
        <ele>1134.49</ele>
        <time>2014-06-21T15:44:23Z</time>
      </trkpt>
      <trkpt lat="47.82442" lon="7.00935">
        <ele>1130.65</ele>
        <time>2014-06-21T15:44:29Z</time>
      </trkpt>
      <trkpt lat="47.82443" lon="7.00934">
        <ele>1135.94</ele>
        <time>2014-06-21T15:44:30Z</time>
      </trkpt>
      <trkpt lat="47.82446" lon="7.0093">
        <ele>1131.61</ele>
        <time>2014-06-21T15:44:33Z</time>
      </trkpt>
      <trkpt lat="47.82447" lon="7.00929">
        <ele>1134.01</ele>
        <time>2014-06-21T15:44:34Z</time>
      </trkpt>
      <trkpt lat="47.82448" lon="7.00928">
        <ele>1135.45</ele>
        <time>2014-06-21T15:44:35Z</time>
      </trkpt>
      <trkpt lat="47.82452" lon="7.00919">
        <ele>1131.61</ele>
        <time>2014-06-21T15:44:41Z</time>
      </trkpt>
      <trkpt lat="47.82456" lon="7.00914">
        <ele>1135.45</ele>
        <time>2014-06-21T15:44:44Z</time>
      </trkpt>
      <trkpt lat="47.82459" lon="7.0091">
        <ele>1136.42</ele>
        <time>2014-06-21T15:44:48Z</time>
      </trkpt>
      <trkpt lat="47.82463" lon="7.00904">
        <ele>1136.9</ele>
        <time>2014-06-21T15:44:52Z</time>
      </trkpt>
      <trkpt lat="47.82475" lon="7.00887">
        <ele>1136.42</ele>
        <time>2014-06-21T15:45:04Z</time>
      </trkpt>
      <trkpt lat="47.82481" lon="7.00878">
        <ele>1134.01</ele>
        <time>2014-06-21T15:45:11Z</time>
      </trkpt>
      <trkpt lat="47.82488" lon="7.00865">
        <ele>1133.05</ele>
        <time>2014-06-21T15:45:19Z</time>
      </trkpt>
      <trkpt lat="47.82502" lon="7.00851">
        <ele>1137.86</ele>
        <time>2014-06-21T15:45:31Z</time>
      </trkpt>
      <trkpt lat="47.82504" lon="7.00848">
        <ele>1141.22</ele>
        <time>2014-06-21T15:45:33Z</time>
      </trkpt>
      <trkpt lat="47.82505" lon="7.00847">
        <ele>1139.3</ele>
        <time>2014-06-21T15:45:34Z</time>
      </trkpt>
      <trkpt lat="47.82524" lon="7.00827">
        <ele>1142.18</ele>
        <time>2014-06-21T15:45:51Z</time>
      </trkpt>
      <trkpt lat="47.8253" lon="7.0082">
        <ele>1139.3</ele>
        <time>2014-06-21T15:45:57Z</time>
      </trkpt>
      <trkpt lat="47.82539" lon="7.00812">
        <ele>1140.26</ele>
        <time>2014-06-21T15:46:05Z</time>
      </trkpt>
      <trkpt lat="47.82548" lon="7.00801">
        <ele>1143.63</ele>
        <time>2014-06-21T15:46:13Z</time>
      </trkpt>
      <trkpt lat="47.82549" lon="7.008">
        <ele>1144.11</ele>
        <time>2014-06-21T15:46:14Z</time>
      </trkpt>
      <trkpt lat="47.82565" lon="7.00776">
        <ele>1141.7</ele>
        <time>2014-06-21T15:46:30Z</time>
      </trkpt>
      <trkpt lat="47.82581" lon="7.0075">
        <ele>1141.22</ele>
        <time>2014-06-21T15:46:47Z</time>
      </trkpt>
      <trkpt lat="47.82585" lon="7.00744">
        <ele>1137.86</ele>
        <time>2014-06-21T15:46:51Z</time>
      </trkpt>
      <trkpt lat="47.82586" lon="7.00743">
        <ele>1137.86</ele>
        <time>2014-06-21T15:46:52Z</time>
      </trkpt>
      <trkpt lat="47.82591" lon="7.00735">
        <ele>1140.26</ele>
        <time>2014-06-21T15:46:57Z</time>
      </trkpt>
      <trkpt lat="47.82601" lon="7.00724">
        <ele>1144.11</ele>
        <time>2014-06-21T15:47:07Z</time>
      </trkpt>
      <trkpt lat="47.82607" lon="7.00716">
        <ele>1143.14</ele>
        <time>2014-06-21T15:47:14Z</time>
      </trkpt>
      <trkpt lat="47.82612" lon="7.00713">
        <ele>1144.59</ele>
        <time>2014-06-21T15:47:19Z</time>
      </trkpt>
      <trkpt lat="47.82624" lon="7.00696">
        <ele>1145.55</ele>
        <time>2014-06-21T15:47:31Z</time>
      </trkpt>
      <trkpt lat="47.82629" lon="7.00689">
        <ele>1142.18</ele>
        <time>2014-06-21T15:47:36Z</time>
      </trkpt>
      <trkpt lat="47.82632" lon="7.00684">
        <ele>1146.03</ele>
        <time>2014-06-21T15:47:40Z</time>
      </trkpt>
      <trkpt lat="47.82638" lon="7.00677">
        <ele>1142.66</ele>
        <time>2014-06-21T15:47:46Z</time>
      </trkpt>
      <trkpt lat="47.82641" lon="7.00673">
        <ele>1146.03</ele>
        <time>2014-06-21T15:47:49Z</time>
      </trkpt>
      <trkpt lat="47.82648" lon="7.00664">
        <ele>1150.84</ele>
        <time>2014-06-21T15:47:56Z</time>
      </trkpt>
      <trkpt lat="47.82649" lon="7.00663">
        <ele>1150.84</ele>
        <time>2014-06-21T15:47:57Z</time>
      </trkpt>
      <trkpt lat="47.82654" lon="7.00658">
        <ele>1153.24</ele>
        <time>2014-06-21T15:48:02Z</time>
      </trkpt>
      <trkpt lat="47.82656" lon="7.00656">
        <ele>1150.35</ele>
        <time>2014-06-21T15:48:04Z</time>
      </trkpt>
      <trkpt lat="47.82667" lon="7.00642">
        <ele>1151.32</ele>
        <time>2014-06-21T15:48:16Z</time>
      </trkpt>
      <trkpt lat="47.8267" lon="7.00639">
        <ele>1154.2</ele>
        <time>2014-06-21T15:48:19Z</time>
      </trkpt>
      <trkpt lat="47.8268" lon="7.00629">
        <ele>1150.84</ele>
        <time>2014-06-21T15:48:30Z</time>
      </trkpt>
      <trkpt lat="47.82681" lon="7.00629">
        <ele>1154.68</ele>
        <time>2014-06-21T15:48:31Z</time>
      </trkpt>
      <trkpt lat="47.82682" lon="7.00629">
        <ele>1155.16</ele>
        <time>2014-06-21T15:48:33Z</time>
      </trkpt>
      <trkpt lat="47.82682" lon="7.00629">
        <ele>1151.32</ele>
        <time>2014-06-21T15:48:35Z</time>
      </trkpt>
      <trkpt lat="47.82682" lon="7.00629">
        <ele>1156.12</ele>
        <time>2014-06-21T15:48:36Z</time>
      </trkpt>
      <trkpt lat="47.82682" lon="7.00628">
        <ele>1152.28</ele>
        <time>2014-06-21T15:48:37Z</time>
      </trkpt>
      <trkpt lat="47.82684" lon="7.00627">
        <ele>1156.12</ele>
        <time>2014-06-21T15:48:39Z</time>
      </trkpt>
      <trkpt lat="47.82685" lon="7.00627">
        <ele>1155.16</ele>
        <time>2014-06-21T15:48:40Z</time>
      </trkpt>
      <trkpt lat="47.82687" lon="7.00627">
        <ele>1154.68</ele>
        <time>2014-06-21T15:48:42Z</time>
      </trkpt>
      <trkpt lat="47.8269" lon="7.00624">
        <ele>1153.24</ele>
        <time>2014-06-21T15:48:45Z</time>
      </trkpt>
      <trkpt lat="47.82698" lon="7.00621">
        <ele>1152.76</ele>
        <time>2014-06-21T15:48:51Z</time>
      </trkpt>
      <trkpt lat="47.82702" lon="7.00621">
        <ele>1156.6</ele>
        <time>2014-06-21T15:48:55Z</time>
      </trkpt>
      <trkpt lat="47.82704" lon="7.0062">
        <ele>1156.12</ele>
        <time>2014-06-21T15:48:59Z</time>
      </trkpt>
      <trkpt lat="47.82707" lon="7.00619">
        <ele>1153.24</ele>
        <time>2014-06-21T15:49:02Z</time>
      </trkpt>
      <trkpt lat="47.82708" lon="7.00619">
        <ele>1160.45</ele>
        <time>2014-06-21T15:49:03Z</time>
      </trkpt>
      <trkpt lat="47.82709" lon="7.00619">
        <ele>1156.6</ele>
        <time>2014-06-21T15:49:04Z</time>
      </trkpt>
      <trkpt lat="47.8271" lon="7.00618">
        <ele>1155.64</ele>
        <time>2014-06-21T15:49:06Z</time>
      </trkpt>
      <trkpt lat="47.8271" lon="7.00618">
        <ele>1156.12</ele>
        <time>2014-06-21T15:49:10Z</time>
      </trkpt>
      <trkpt lat="47.82716" lon="7.00618">
        <ele>1158.05</ele>
        <time>2014-06-21T15:49:21Z</time>
      </trkpt>
      <trkpt lat="47.82717" lon="7.00616">
        <ele>1160.93</ele>
        <time>2014-06-21T15:49:23Z</time>
      </trkpt>
      <trkpt lat="47.8272" lon="7.00615">
        <ele>1156.12</ele>
        <time>2014-06-21T15:49:25Z</time>
      </trkpt>
      <trkpt lat="47.82722" lon="7.00613">
        <ele>1154.2</ele>
        <time>2014-06-21T15:49:27Z</time>
      </trkpt>
      <trkpt lat="47.82727" lon="7.0061">
        <ele>1157.56</ele>
        <time>2014-06-21T15:49:31Z</time>
      </trkpt>
      <trkpt lat="47.82736" lon="7.00601">
        <ele>1161.41</ele>
        <time>2014-06-21T15:49:39Z</time>
      </trkpt>
      <trkpt lat="47.82756" lon="7.00586">
        <ele>1162.37</ele>
        <time>2014-06-21T15:49:55Z</time>
      </trkpt>
      <trkpt lat="47.82764" lon="7.00577">
        <ele>1158.05</ele>
        <time>2014-06-21T15:50:02Z</time>
      </trkpt>
      <trkpt lat="47.82765" lon="7.00576">
        <ele>1159.49</ele>
        <time>2014-06-21T15:50:03Z</time>
      </trkpt>
      <trkpt lat="47.8277" lon="7.00571">
        <ele>1156.12</ele>
        <time>2014-06-21T15:50:08Z</time>
      </trkpt>
      <trkpt lat="47.82773" lon="7.00569">
        <ele>1155.16</ele>
        <time>2014-06-21T15:50:10Z</time>
      </trkpt>
      <trkpt lat="47.82774" lon="7.00568">
        <ele>1159.49</ele>
        <time>2014-06-21T15:50:11Z</time>
      </trkpt>
      <trkpt lat="47.8278" lon="7.00563">
        <ele>1162.85</ele>
        <time>2014-06-21T15:50:15Z</time>
      </trkpt>
      <trkpt lat="47.82784" lon="7.0056">
        <ele>1159.01</ele>
        <time>2014-06-21T15:50:18Z</time>
      </trkpt>
      <trkpt lat="47.8279" lon="7.00554">
        <ele>1156.6</ele>
        <time>2014-06-21T15:50:24Z</time>
      </trkpt>
      <trkpt lat="47.82805" lon="7.00544">
        <ele>1160.93</ele>
        <time>2014-06-21T15:50:36Z</time>
      </trkpt>
      <trkpt lat="47.82807" lon="7.00543">
        <ele>1162.85</ele>
        <time>2014-06-21T15:50:38Z</time>
      </trkpt>
      <trkpt lat="47.82813" lon="7.0054">
        <ele>1159.49</ele>
        <time>2014-06-21T15:50:43Z</time>
      </trkpt>
      <trkpt lat="47.82816" lon="7.00539">
        <ele>1158.53</ele>
        <time>2014-06-21T15:50:45Z</time>
      </trkpt>
      <trkpt lat="47.82819" lon="7.00536">
        <ele>1159.97</ele>
        <time>2014-06-21T15:50:48Z</time>
      </trkpt>
      <trkpt lat="47.82826" lon="7.00533">
        <ele>1158.05</ele>
        <time>2014-06-21T15:50:53Z</time>
      </trkpt>
      <trkpt lat="47.82828" lon="7.00532">
        <ele>1159.49</ele>
        <time>2014-06-21T15:50:55Z</time>
      </trkpt>
      <trkpt lat="47.82833" lon="7.0053">
        <ele>1164.77</ele>
        <time>2014-06-21T15:50:59Z</time>
      </trkpt>
      <trkpt lat="47.82846" lon="7.00525">
        <ele>1160.93</ele>
        <time>2014-06-21T15:51:10Z</time>
      </trkpt>
      <trkpt lat="47.82854" lon="7.00522">
        <ele>1163.81</ele>
        <time>2014-06-21T15:51:16Z</time>
      </trkpt>
      <trkpt lat="47.8287" lon="7.00519">
        <ele>1165.74</ele>
        <time>2014-06-21T15:51:28Z</time>
      </trkpt>
      <trkpt lat="47.82876" lon="7.00517">
        <ele>1169.1</ele>
        <time>2014-06-21T15:51:33Z</time>
      </trkpt>
      <trkpt lat="47.82878" lon="7.00517">
        <ele>1169.1</ele>
        <time>2014-06-21T15:51:34Z</time>
      </trkpt>
      <trkpt lat="47.82896" lon="7.00509">
        <ele>1166.7</ele>
        <time>2014-06-21T15:51:48Z</time>
      </trkpt>
      <trkpt lat="47.82905" lon="7.005">
        <ele>1167.66</ele>
        <time>2014-06-21T15:51:57Z</time>
      </trkpt>
      <trkpt lat="47.82908" lon="7.00496">
        <ele>1169.1</ele>
        <time>2014-06-21T15:52:00Z</time>
      </trkpt>
      <trkpt lat="47.82911" lon="7.00493">
        <ele>1172.47</ele>
        <time>2014-06-21T15:52:03Z</time>
      </trkpt>
      <trkpt lat="47.82915" lon="7.00486">
        <ele>1166.7</ele>
        <time>2014-06-21T15:52:08Z</time>
      </trkpt>
      <trkpt lat="47.82916" lon="7.00484">
        <ele>1166.7</ele>
        <time>2014-06-21T15:52:18Z</time>
      </trkpt>
      <trkpt lat="47.82918" lon="7.00482">
        <ele>1163.81</ele>
        <time>2014-06-21T15:52:20Z</time>
      </trkpt>
      <trkpt lat="47.82919" lon="7.00481">
        <ele>1163.81</ele>
        <time>2014-06-21T15:52:21Z</time>
      </trkpt>
      <trkpt lat="47.8292" lon="7.0048">
        <ele>1162.85</ele>
        <time>2014-06-21T15:52:22Z</time>
      </trkpt>
      <trkpt lat="47.82923" lon="7.00473">
        <ele>1165.26</ele>
        <time>2014-06-21T15:52:26Z</time>
      </trkpt>
      <trkpt lat="47.82924" lon="7.00467">
        <ele>1161.41</ele>
        <time>2014-06-21T15:52:29Z</time>
      </trkpt>
      <trkpt lat="47.82925" lon="7.00465">
        <ele>1166.7</ele>
        <time>2014-06-21T15:52:30Z</time>
      </trkpt>
      <trkpt lat="47.82925" lon="7.00463">
        <ele>1166.7</ele>
        <time>2014-06-21T15:52:31Z</time>
      </trkpt>
      <trkpt lat="47.82925" lon="7.00459">
        <ele>1171.98</ele>
        <time>2014-06-21T15:52:33Z</time>
      </trkpt>
      <trkpt lat="47.82926" lon="7.00455">
        <ele>1168.14</ele>
        <time>2014-06-21T15:52:35Z</time>
      </trkpt>
      <trkpt lat="47.82927" lon="7.00451">
        <ele>1161.41</ele>
        <time>2014-06-21T15:52:37Z</time>
      </trkpt>
      <trkpt lat="47.82928" lon="7.00447">
        <ele>1164.77</ele>
        <time>2014-06-21T15:52:39Z</time>
      </trkpt>
      <trkpt lat="47.82929" lon="7.00443">
        <ele>1168.62</ele>
        <time>2014-06-21T15:52:41Z</time>
      </trkpt>
      <trkpt lat="47.8293" lon="7.00442">
        <ele>1168.62</ele>
        <time>2014-06-21T15:52:42Z</time>
      </trkpt>
      <trkpt lat="47.8293" lon="7.00438">
        <ele>1160.93</ele>
        <time>2014-06-21T15:52:44Z</time>
      </trkpt>
      <trkpt lat="47.82931" lon="7.00433">
        <ele>1159.01</ele>
        <time>2014-06-21T15:52:47Z</time>
      </trkpt>
      <trkpt lat="47.82932" lon="7.00425">
        <ele>1163.81</ele>
        <time>2014-06-21T15:52:51Z</time>
      </trkpt>
      <trkpt lat="47.82933" lon="7.00423">
        <ele>1165.74</ele>
        <time>2014-06-21T15:52:52Z</time>
      </trkpt>
      <trkpt lat="47.82934" lon="7.00419">
        <ele>1164.77</ele>
        <time>2014-06-21T15:52:54Z</time>
      </trkpt>
      <trkpt lat="47.82935" lon="7.00413">
        <ele>1157.08</ele>
        <time>2014-06-21T15:52:57Z</time>
      </trkpt>
      <trkpt lat="47.82936" lon="7.00407">
        <ele>1163.33</ele>
        <time>2014-06-21T15:53:00Z</time>
      </trkpt>
      <trkpt lat="47.82938" lon="7.00403">
        <ele>1165.26</ele>
        <time>2014-06-21T15:53:02Z</time>
      </trkpt>
      <trkpt lat="47.82938" lon="7.00401">
        <ele>1160.45</ele>
        <time>2014-06-21T15:53:03Z</time>
      </trkpt>
      <trkpt lat="47.82939" lon="7.00399">
        <ele>1160.93</ele>
        <time>2014-06-21T15:53:04Z</time>
      </trkpt>
      <trkpt lat="47.8294" lon="7.00396">
        <ele>1154.68</ele>
        <time>2014-06-21T15:53:05Z</time>
      </trkpt>
      <trkpt lat="47.82941" lon="7.00394">
        <ele>1159.01</ele>
        <time>2014-06-21T15:53:06Z</time>
      </trkpt>
      <trkpt lat="47.82941" lon="7.00392">
        <ele>1164.29</ele>
        <time>2014-06-21T15:53:07Z</time>
      </trkpt>
      <trkpt lat="47.82943" lon="7.00385">
        <ele>1156.12</ele>
        <time>2014-06-21T15:53:10Z</time>
      </trkpt>
      <trkpt lat="47.82945" lon="7.00379">
        <ele>1161.41</ele>
        <time>2014-06-21T15:53:13Z</time>
      </trkpt>
      <trkpt lat="47.82945" lon="7.00371">
        <ele>1155.16</ele>
        <time>2014-06-21T15:53:17Z</time>
      </trkpt>
      <trkpt lat="47.82946" lon="7.00369">
        <ele>1156.6</ele>
        <time>2014-06-21T15:53:18Z</time>
      </trkpt>
      <trkpt lat="47.82946" lon="7.00366">
        <ele>1161.89</ele>
        <time>2014-06-21T15:53:19Z</time>
      </trkpt>
      <trkpt lat="47.82947" lon="7.00364">
        <ele>1159.97</ele>
        <time>2014-06-21T15:53:20Z</time>
      </trkpt>
      <trkpt lat="47.82947" lon="7.0036">
        <ele>1153.72</ele>
        <time>2014-06-21T15:53:22Z</time>
      </trkpt>
      <trkpt lat="47.82948" lon="7.00358">
        <ele>1153.72</ele>
        <time>2014-06-21T15:53:23Z</time>
      </trkpt>
      <trkpt lat="47.82948" lon="7.00356">
        <ele>1158.53</ele>
        <time>2014-06-21T15:53:24Z</time>
      </trkpt>
      <trkpt lat="47.82949" lon="7.00354">
        <ele>1162.37</ele>
        <time>2014-06-21T15:53:25Z</time>
      </trkpt>
      <trkpt lat="47.82949" lon="7.00352">
        <ele>1160.93</ele>
        <time>2014-06-21T15:53:26Z</time>
      </trkpt>
      <trkpt lat="47.8295" lon="7.0035">
        <ele>1156.12</ele>
        <time>2014-06-21T15:53:27Z</time>
      </trkpt>
      <trkpt lat="47.8295" lon="7.00348">
        <ele>1153.24</ele>
        <time>2014-06-21T15:53:28Z</time>
      </trkpt>
      <trkpt lat="47.82951" lon="7.00346">
        <ele>1156.6</ele>
        <time>2014-06-21T15:53:29Z</time>
      </trkpt>
      <trkpt lat="47.82951" lon="7.00344">
        <ele>1160.93</ele>
        <time>2014-06-21T15:53:30Z</time>
      </trkpt>
      <trkpt lat="47.82952" lon="7.00342">
        <ele>1160.93</ele>
        <time>2014-06-21T15:53:31Z</time>
      </trkpt>
      <trkpt lat="47.82952" lon="7.00338">
        <ele>1156.6</ele>
        <time>2014-06-21T15:53:33Z</time>
      </trkpt>
      <trkpt lat="47.82953" lon="7.00336">
        <ele>1151.8</ele>
        <time>2014-06-21T15:53:34Z</time>
      </trkpt>
      <trkpt lat="47.82954" lon="7.00334">
        <ele>1152.76</ele>
        <time>2014-06-21T15:53:35Z</time>
      </trkpt>
      <trkpt lat="47.82954" lon="7.00332">
        <ele>1158.53</ele>
        <time>2014-06-21T15:53:36Z</time>
      </trkpt>
      <trkpt lat="47.82954" lon="7.00329">
        <ele>1157.08</ele>
        <time>2014-06-21T15:53:37Z</time>
      </trkpt>
      <trkpt lat="47.82956" lon="7.00322">
        <ele>1153.72</ele>
        <time>2014-06-21T15:53:41Z</time>
      </trkpt>
      <trkpt lat="47.82958" lon="7.00317">
        <ele>1150.35</ele>
        <time>2014-06-21T15:53:44Z</time>
      </trkpt>
      <trkpt lat="47.82959" lon="7.00313">
        <ele>1155.16</ele>
        <time>2014-06-21T15:53:46Z</time>
      </trkpt>
      <trkpt lat="47.82961" lon="7.00309">
        <ele>1159.01</ele>
        <time>2014-06-21T15:53:48Z</time>
      </trkpt>
      <trkpt lat="47.82962" lon="7.00307">
        <ele>1155.16</ele>
        <time>2014-06-21T15:53:49Z</time>
      </trkpt>
      <trkpt lat="47.82963" lon="7.00306">
        <ele>1151.8</ele>
        <time>2014-06-21T15:53:50Z</time>
      </trkpt>
      <trkpt lat="47.82966" lon="7.00296">
        <ele>1155.64</ele>
        <time>2014-06-21T15:53:55Z</time>
      </trkpt>
      <trkpt lat="47.82969" lon="7.00281">
        <ele>1152.76</ele>
        <time>2014-06-21T15:54:02Z</time>
      </trkpt>
      <trkpt lat="47.8297" lon="7.00278">
        <ele>1150.84</ele>
        <time>2014-06-21T15:54:04Z</time>
      </trkpt>
      <trkpt lat="47.82972" lon="7.00272">
        <ele>1153.72</ele>
        <time>2014-06-21T15:54:07Z</time>
      </trkpt>
      <trkpt lat="47.82973" lon="7.00267">
        <ele>1157.56</ele>
        <time>2014-06-21T15:54:09Z</time>
      </trkpt>
      <trkpt lat="47.82974" lon="7.00265">
        <ele>1157.08</ele>
        <time>2014-06-21T15:54:10Z</time>
      </trkpt>
      <trkpt lat="47.82975" lon="7.00261">
        <ele>1154.2</ele>
        <time>2014-06-21T15:54:12Z</time>
      </trkpt>
      <trkpt lat="47.82977" lon="7.00257">
        <ele>1150.84</ele>
        <time>2014-06-21T15:54:14Z</time>
      </trkpt>
      <trkpt lat="47.82978" lon="7.00256">
        <ele>1150.84</ele>
        <time>2014-06-21T15:54:15Z</time>
      </trkpt>
      <trkpt lat="47.82985" lon="7.00245">
        <ele>1154.2</ele>
        <time>2014-06-21T15:54:23Z</time>
      </trkpt>
      <trkpt lat="47.82986" lon="7.00244">
        <ele>1153.72</ele>
        <time>2014-06-21T15:54:24Z</time>
      </trkpt>
      <trkpt lat="47.82987" lon="7.0024">
        <ele>1152.28</ele>
        <time>2014-06-21T15:54:26Z</time>
      </trkpt>
      <trkpt lat="47.82988" lon="7.00238">
        <ele>1156.12</ele>
        <time>2014-06-21T15:54:27Z</time>
      </trkpt>
      <trkpt lat="47.82991" lon="7.00231">
        <ele>1152.28</ele>
        <time>2014-06-21T15:54:31Z</time>
      </trkpt>
      <trkpt lat="47.82994" lon="7.00226">
        <ele>1150.84</ele>
        <time>2014-06-21T15:54:34Z</time>
      </trkpt>
      <trkpt lat="47.82995" lon="7.00223">
        <ele>1153.72</ele>
        <time>2014-06-21T15:54:36Z</time>
      </trkpt>
      <trkpt lat="47.83002" lon="7.00214">
        <ele>1157.08</ele>
        <time>2014-06-21T15:54:42Z</time>
      </trkpt>
      <trkpt lat="47.83006" lon="7.00205">
        <ele>1155.16</ele>
        <time>2014-06-21T15:54:47Z</time>
      </trkpt>
      <trkpt lat="47.83014" lon="7.00194">
        <ele>1153.24</ele>
        <time>2014-06-21T15:54:56Z</time>
      </trkpt>
      <trkpt lat="47.8302" lon="7.00187">
        <ele>1149.39</ele>
        <time>2014-06-21T15:55:02Z</time>
      </trkpt>
      <trkpt lat="47.83022" lon="7.00182">
        <ele>1156.12</ele>
        <time>2014-06-21T15:55:06Z</time>
      </trkpt>
      <trkpt lat="47.83022" lon="7.0018">
        <ele>1156.12</ele>
        <time>2014-06-21T15:55:07Z</time>
      </trkpt>
      <trkpt lat="47.83023" lon="7.00177">
        <ele>1154.68</ele>
        <time>2014-06-21T15:55:09Z</time>
      </trkpt>
      <trkpt lat="47.83022" lon="7.00172">
        <ele>1152.76</ele>
        <time>2014-06-21T15:55:16Z</time>
      </trkpt>
      <trkpt lat="47.83023" lon="7.00171">
        <ele>1152.28</ele>
        <time>2014-06-21T15:55:26Z</time>
      </trkpt>
      <trkpt lat="47.83026" lon="7.00166">
        <ele>1149.87</ele>
        <time>2014-06-21T15:55:29Z</time>
      </trkpt>
      <trkpt lat="47.83028" lon="7.00163">
        <ele>1144.59</ele>
        <time>2014-06-21T15:55:31Z</time>
      </trkpt>
      <trkpt lat="47.83029" lon="7.00161">
        <ele>1146.99</ele>
        <time>2014-06-21T15:55:32Z</time>
      </trkpt>
      <trkpt lat="47.8303" lon="7.00157">
        <ele>1150.35</ele>
        <time>2014-06-21T15:55:34Z</time>
      </trkpt>
      <trkpt lat="47.83031" lon="7.00156">
        <ele>1149.87</ele>
        <time>2014-06-21T15:55:35Z</time>
      </trkpt>
      <trkpt lat="47.83036" lon="7.00145">
        <ele>1149.87</ele>
        <time>2014-06-21T15:55:42Z</time>
      </trkpt>
      <trkpt lat="47.83036" lon="7.00144">
        <ele>1153.72</ele>
        <time>2014-06-21T15:55:43Z</time>
      </trkpt>
      <trkpt lat="47.83037" lon="7.00142">
        <ele>1151.8</ele>
        <time>2014-06-21T15:55:44Z</time>
      </trkpt>
      <trkpt lat="47.83037" lon="7.00133">
        <ele>1147.95</ele>
        <time>2014-06-21T15:55:50Z</time>
      </trkpt>
      <trkpt lat="47.83037" lon="7.00133">
        <ele>1153.24</ele>
        <time>2014-06-21T15:55:51Z</time>
      </trkpt>
      <trkpt lat="47.83035" lon="7.00133">
        <ele>1152.28</ele>
        <time>2014-06-21T15:56:24Z</time>
      </trkpt>
      <trkpt lat="47.83036" lon="7.00134">
        <ele>1154.2</ele>
        <time>2014-06-21T15:56:27Z</time>
      </trkpt>
      <trkpt lat="47.83036" lon="7.00135">
        <ele>1151.32</ele>
        <time>2014-06-21T15:56:28Z</time>
      </trkpt>
      <trkpt lat="47.83037" lon="7.00136">
        <ele>1154.68</ele>
        <time>2014-06-21T15:56:29Z</time>
      </trkpt>
      <trkpt lat="47.83036" lon="7.00137">
        <ele>1150.84</ele>
        <time>2014-06-21T15:56:31Z</time>
      </trkpt>
      <trkpt lat="47.83039" lon="7.00135">
        <ele>1153.72</ele>
        <time>2014-06-21T15:56:41Z</time>
      </trkpt>
      <trkpt lat="47.8304" lon="7.00134">
        <ele>1153.72</ele>
        <time>2014-06-21T15:56:42Z</time>
      </trkpt>
      <trkpt lat="47.83041" lon="7.00133">
        <ele>1150.35</ele>
        <time>2014-06-21T15:56:44Z</time>
      </trkpt>
      <trkpt lat="47.83043" lon="7.00131">
        <ele>1146.51</ele>
        <time>2014-06-21T15:56:46Z</time>
      </trkpt>
      <trkpt lat="47.83048" lon="7.00121">
        <ele>1147.95</ele>
        <time>2014-06-21T15:56:57Z</time>
      </trkpt>
      <trkpt lat="47.8305" lon="7.0012">
        <ele>1146.51</ele>
        <time>2014-06-21T15:56:59Z</time>
      </trkpt>
      <trkpt lat="47.8305" lon="7.0012">
        <ele>1143.63</ele>
        <time>2014-06-21T15:57:00Z</time>
      </trkpt>
      <trkpt lat="47.83051" lon="7.00121">
        <ele>1148.91</ele>
        <time>2014-06-21T15:57:02Z</time>
      </trkpt>
      <trkpt lat="47.83053" lon="7.00122">
        <ele>1149.39</ele>
        <time>2014-06-21T15:57:04Z</time>
      </trkpt>
      <trkpt lat="47.83053" lon="7.00122">
        <ele>1142.18</ele>
        <time>2014-06-21T15:57:05Z</time>
      </trkpt>
      <trkpt lat="47.83054" lon="7.00123">
        <ele>1145.07</ele>
        <time>2014-06-21T15:57:06Z</time>
      </trkpt>
      <trkpt lat="47.83055" lon="7.00125">
        <ele>1148.43</ele>
        <time>2014-06-21T15:57:08Z</time>
      </trkpt>
      <trkpt lat="47.83055" lon="7.00128">
        <ele>1143.14</ele>
        <time>2014-06-21T15:57:10Z</time>
      </trkpt>
      <trkpt lat="47.83055" lon="7.00134">
        <ele>1149.39</ele>
        <time>2014-06-21T15:57:13Z</time>
      </trkpt>
      <trkpt lat="47.83055" lon="7.00135">
        <ele>1148.43</ele>
        <time>2014-06-21T15:57:14Z</time>
      </trkpt>
      <trkpt lat="47.83055" lon="7.00137">
        <ele>1143.63</ele>
        <time>2014-06-21T15:57:15Z</time>
      </trkpt>
      <trkpt lat="47.83055" lon="7.00141">
        <ele>1142.18</ele>
        <time>2014-06-21T15:57:17Z</time>
      </trkpt>
      <trkpt lat="47.83055" lon="7.00144">
        <ele>1138.82</ele>
        <time>2014-06-21T15:57:19Z</time>
      </trkpt>
      <trkpt lat="47.83055" lon="7.00146">
        <ele>1146.51</ele>
        <time>2014-06-21T15:57:20Z</time>
      </trkpt>
      <trkpt lat="47.83055" lon="7.00148">
        <ele>1141.7</ele>
        <time>2014-06-21T15:57:21Z</time>
      </trkpt>
      <trkpt lat="47.83056" lon="7.00149">
        <ele>1146.99</ele>
        <time>2014-06-21T15:57:22Z</time>
      </trkpt>
      <trkpt lat="47.83056" lon="7.00153">
        <ele>1138.34</ele>
        <time>2014-06-21T15:57:24Z</time>
      </trkpt>
      <trkpt lat="47.83057" lon="7.00154">
        <ele>1138.34</ele>
        <time>2014-06-21T15:57:25Z</time>
      </trkpt>
      <trkpt lat="47.83057" lon="7.00155">
        <ele>1144.11</ele>
        <time>2014-06-21T15:57:26Z</time>
      </trkpt>
      <trkpt lat="47.83059" lon="7.0016">
        <ele>1136.9</ele>
        <time>2014-06-21T15:57:29Z</time>
      </trkpt>
      <trkpt lat="47.83059" lon="7.00161">
        <ele>1136.9</ele>
        <time>2014-06-21T15:57:30Z</time>
      </trkpt>
      <trkpt lat="47.8306" lon="7.00163">
        <ele>1142.18</ele>
        <time>2014-06-21T15:57:31Z</time>
      </trkpt>
      <trkpt lat="47.8306" lon="7.00167">
        <ele>1138.34</ele>
        <time>2014-06-21T15:57:34Z</time>
      </trkpt>
      <trkpt lat="47.8306" lon="7.00167">
        <ele>1134.49</ele>
        <time>2014-06-21T15:57:35Z</time>
      </trkpt>
      <trkpt lat="47.8306" lon="7.00167">
        <ele>1136.9</ele>
        <time>2014-06-21T15:57:36Z</time>
      </trkpt>
      <trkpt lat="47.83061" lon="7.00171">
        <ele>1142.66</ele>
        <time>2014-06-21T15:57:38Z</time>
      </trkpt>
      <trkpt lat="47.83061" lon="7.00174">
        <ele>1142.18</ele>
        <time>2014-06-21T15:57:39Z</time>
      </trkpt>
      <trkpt lat="47.8306" lon="7.00178">
        <ele>1138.82</ele>
        <time>2014-06-21T15:57:41Z</time>
      </trkpt>
      <trkpt lat="47.8306" lon="7.00181">
        <ele>1138.34</ele>
        <time>2014-06-21T15:57:42Z</time>
      </trkpt>
      <trkpt lat="47.83061" lon="7.00189">
        <ele>1137.38</ele>
        <time>2014-06-21T15:57:45Z</time>
      </trkpt>
      <trkpt lat="47.83062" lon="7.0019">
        <ele>1132.09</ele>
        <time>2014-06-21T15:57:46Z</time>
      </trkpt>
      <trkpt lat="47.83064" lon="7.0019">
        <ele>1138.82</ele>
        <time>2014-06-21T15:57:47Z</time>
      </trkpt>
      <trkpt lat="47.83069" lon="7.00185">
        <ele>1133.53</ele>
        <time>2014-06-21T15:57:51Z</time>
      </trkpt>
      <trkpt lat="47.8307" lon="7.00184">
        <ele>1130.17</ele>
        <time>2014-06-21T15:57:52Z</time>
      </trkpt>
      <trkpt lat="47.83071" lon="7.00182">
        <ele>1131.61</ele>
        <time>2014-06-21T15:57:53Z</time>
      </trkpt>
      <trkpt lat="47.83072" lon="7.0018">
        <ele>1134.97</ele>
        <time>2014-06-21T15:57:54Z</time>
      </trkpt>
      <trkpt lat="47.83073" lon="7.00178">
        <ele>1134.49</ele>
        <time>2014-06-21T15:57:55Z</time>
      </trkpt>
      <trkpt lat="47.83074" lon="7.00175">
        <ele>1138.82</ele>
        <time>2014-06-21T15:57:57Z</time>
      </trkpt>
      <trkpt lat="47.83075" lon="7.00173">
        <ele>1137.38</ele>
        <time>2014-06-21T15:57:58Z</time>
      </trkpt>
      <trkpt lat="47.83077" lon="7.00169">
        <ele>1134.01</ele>
        <time>2014-06-21T15:58:00Z</time>
      </trkpt>
      <trkpt lat="47.83077" lon="7.00168">
        <ele>1129.69</ele>
        <time>2014-06-21T15:58:01Z</time>
      </trkpt>
      <trkpt lat="47.83078" lon="7.00166">
        <ele>1125.84</ele>
        <time>2014-06-21T15:58:02Z</time>
      </trkpt>
      <trkpt lat="47.83078" lon="7.00165">
        <ele>1129.21</ele>
        <time>2014-06-21T15:58:03Z</time>
      </trkpt>
      <trkpt lat="47.83079" lon="7.00163">
        <ele>1133.53</ele>
        <time>2014-06-21T15:58:04Z</time>
      </trkpt>
      <trkpt lat="47.83081" lon="7.00159">
        <ele>1131.61</ele>
        <time>2014-06-21T15:58:07Z</time>
      </trkpt>
      <trkpt lat="47.83084" lon="7.00148">
        <ele>1130.65</ele>
        <time>2014-06-21T15:58:13Z</time>
      </trkpt>
      <trkpt lat="47.83088" lon="7.00128">
        <ele>1128.24</ele>
        <time>2014-06-21T15:58:24Z</time>
      </trkpt>
      <trkpt lat="47.83089" lon="7.00126">
        <ele>1125.84</ele>
        <time>2014-06-21T15:58:26Z</time>
      </trkpt>
      <trkpt lat="47.83091" lon="7.00122">
        <ele>1129.21</ele>
        <time>2014-06-21T15:58:28Z</time>
      </trkpt>
      <trkpt lat="47.83092" lon="7.0012">
        <ele>1127.76</ele>
        <time>2014-06-21T15:58:29Z</time>
      </trkpt>
      <trkpt lat="47.83094" lon="7.00116">
        <ele>1122</ele>
        <time>2014-06-21T15:58:31Z</time>
      </trkpt>
      <trkpt lat="47.83095" lon="7.00114">
        <ele>1123.44</ele>
        <time>2014-06-21T15:58:32Z</time>
      </trkpt>
      <trkpt lat="47.83096" lon="7.00112">
        <ele>1126.8</ele>
        <time>2014-06-21T15:58:33Z</time>
      </trkpt>
      <trkpt lat="47.83099" lon="7.00105">
        <ele>1123.44</ele>
        <time>2014-06-21T15:58:37Z</time>
      </trkpt>
      <trkpt lat="47.83101" lon="7.00098">
        <ele>1126.8</ele>
        <time>2014-06-21T15:58:41Z</time>
      </trkpt>
      <trkpt lat="47.83102" lon="7.0009">
        <ele>1123.44</ele>
        <time>2014-06-21T15:58:45Z</time>
      </trkpt>
      <trkpt lat="47.83103" lon="7.00081">
        <ele>1125.36</ele>
        <time>2014-06-21T15:58:49Z</time>
      </trkpt>
      <trkpt lat="47.83104" lon="7.00074">
        <ele>1121.52</ele>
        <time>2014-06-21T15:58:53Z</time>
      </trkpt>
      <trkpt lat="47.83104" lon="7.0007">
        <ele>1118.15</ele>
        <time>2014-06-21T15:58:55Z</time>
      </trkpt>
      <trkpt lat="47.83103" lon="7.00069">
        <ele>1117.19</ele>
        <time>2014-06-21T15:58:56Z</time>
      </trkpt>
      <trkpt lat="47.831" lon="7.0006">
        <ele>1122.96</ele>
        <time>2014-06-21T15:59:00Z</time>
      </trkpt>
      <trkpt lat="47.831" lon="7.00059">
        <ele>1119.59</ele>
        <time>2014-06-21T15:59:01Z</time>
      </trkpt>
      <trkpt lat="47.83096" lon="7.00049">
        <ele>1123.92</ele>
        <time>2014-06-21T15:59:07Z</time>
      </trkpt>
      <trkpt lat="47.83094" lon="7.00046">
        <ele>1116.71</ele>
        <time>2014-06-21T15:59:09Z</time>
      </trkpt>
      <trkpt lat="47.83094" lon="7.0004">
        <ele>1122.48</ele>
        <time>2014-06-21T15:59:12Z</time>
      </trkpt>
      <trkpt lat="47.83095" lon="7.00038">
        <ele>1117.67</ele>
        <time>2014-06-21T15:59:14Z</time>
      </trkpt>
      <trkpt lat="47.83095" lon="7.00036">
        <ele>1112.38</ele>
        <time>2014-06-21T15:59:15Z</time>
      </trkpt>
      <trkpt lat="47.83095" lon="7.00034">
        <ele>1115.75</ele>
        <time>2014-06-21T15:59:16Z</time>
      </trkpt>
      <trkpt lat="47.83095" lon="7.00032">
        <ele>1120.55</ele>
        <time>2014-06-21T15:59:17Z</time>
      </trkpt>
      <trkpt lat="47.83096" lon="7.00027">
        <ele>1117.67</ele>
        <time>2014-06-21T15:59:20Z</time>
      </trkpt>
      <trkpt lat="47.83096" lon="7.00025">
        <ele>1113.82</ele>
        <time>2014-06-21T15:59:21Z</time>
      </trkpt>
      <trkpt lat="47.83096" lon="7.00024">
        <ele>1110.94</ele>
        <time>2014-06-21T15:59:22Z</time>
      </trkpt>
      <trkpt lat="47.83097" lon="7.00022">
        <ele>1114.31</ele>
        <time>2014-06-21T15:59:23Z</time>
      </trkpt>
      <trkpt lat="47.83097" lon="7.0002">
        <ele>1118.15</ele>
        <time>2014-06-21T15:59:24Z</time>
      </trkpt>
      <trkpt lat="47.83097" lon="7.00018">
        <ele>1117.67</ele>
        <time>2014-06-21T15:59:25Z</time>
      </trkpt>
      <trkpt lat="47.83097" lon="7.00016">
        <ele>1110.94</ele>
        <time>2014-06-21T15:59:26Z</time>
      </trkpt>
      <trkpt lat="47.83098" lon="7.00015">
        <ele>1112.38</ele>
        <time>2014-06-21T15:59:27Z</time>
      </trkpt>
      <trkpt lat="47.83098" lon="7.00014">
        <ele>1115.75</ele>
        <time>2014-06-21T15:59:28Z</time>
      </trkpt>
      <trkpt lat="47.83099" lon="7.00013">
        <ele>1110.94</ele>
        <time>2014-06-21T15:59:29Z</time>
      </trkpt>
      <trkpt lat="47.83099" lon="7.00012">
        <ele>1114.31</ele>
        <time>2014-06-21T15:59:30Z</time>
      </trkpt>
      <trkpt lat="47.831" lon="7.0001">
        <ele>1108.06</ele>
        <time>2014-06-21T15:59:32Z</time>
      </trkpt>
      <trkpt lat="47.831" lon="7.00009">
        <ele>1108.06</ele>
        <time>2014-06-21T15:59:33Z</time>
      </trkpt>
      <trkpt lat="47.83101" lon="7.00008">
        <ele>1112.86</ele>
        <time>2014-06-21T15:59:34Z</time>
      </trkpt>
      <trkpt lat="47.83101" lon="7.00006">
        <ele>1116.71</ele>
        <time>2014-06-21T15:59:35Z</time>
      </trkpt>
      <trkpt lat="47.83101" lon="7.00005">
        <ele>1109.98</ele>
        <time>2014-06-21T15:59:36Z</time>
      </trkpt>
      <trkpt lat="47.83102" lon="7.00003">
        <ele>1109.98</ele>
        <time>2014-06-21T15:59:37Z</time>
      </trkpt>
      <trkpt lat="47.83102" lon="7.00001">
        <ele>1104.21</ele>
        <time>2014-06-21T15:59:38Z</time>
      </trkpt>
      <trkpt lat="47.83102" lon="6.99999">
        <ele>1109.98</ele>
        <time>2014-06-21T15:59:39Z</time>
      </trkpt>
      <trkpt lat="47.83103" lon="6.99995">
        <ele>1113.34</ele>
        <time>2014-06-21T15:59:42Z</time>
      </trkpt>
      <trkpt lat="47.83104" lon="6.99994">
        <ele>1109.98</ele>
        <time>2014-06-21T15:59:43Z</time>
      </trkpt>
      <trkpt lat="47.83105" lon="6.99993">
        <ele>1107.58</ele>
        <time>2014-06-21T15:59:44Z</time>
      </trkpt>
      <trkpt lat="47.83106" lon="6.99986">
        <ele>1111.9</ele>
        <time>2014-06-21T15:59:47Z</time>
      </trkpt>
      <trkpt lat="47.83106" lon="6.99984">
        <ele>1109.98</ele>
        <time>2014-06-21T15:59:48Z</time>
      </trkpt>
      <trkpt lat="47.83106" lon="6.99982">
        <ele>1107.58</ele>
        <time>2014-06-21T15:59:49Z</time>
      </trkpt>
      <trkpt lat="47.83107" lon="6.99971">
        <ele>1109.5</ele>
        <time>2014-06-21T15:59:54Z</time>
      </trkpt>
      <trkpt lat="47.83109" lon="6.99967">
        <ele>1104.21</ele>
        <time>2014-06-21T15:59:56Z</time>
      </trkpt>
      <trkpt lat="47.83112" lon="6.99962">
        <ele>1106.13</ele>
        <time>2014-06-21T15:59:59Z</time>
      </trkpt>
      <trkpt lat="47.83113" lon="6.9996">
        <ele>1101.33</ele>
        <time>2014-06-21T16:00:01Z</time>
      </trkpt>
      <trkpt lat="47.83114" lon="6.99958">
        <ele>1102.77</ele>
        <time>2014-06-21T16:00:02Z</time>
      </trkpt>
      <trkpt lat="47.83116" lon="6.99955">
        <ele>1103.73</ele>
        <time>2014-06-21T16:00:04Z</time>
      </trkpt>
      <trkpt lat="47.83116" lon="6.99954">
        <ele>1099.89</ele>
        <time>2014-06-21T16:00:05Z</time>
      </trkpt>
      <trkpt lat="47.83117" lon="6.99952">
        <ele>1096.52</ele>
        <time>2014-06-21T16:00:06Z</time>
      </trkpt>
      <trkpt lat="47.83117" lon="6.99951">
        <ele>1097.48</ele>
        <time>2014-06-21T16:00:07Z</time>
      </trkpt>
      <trkpt lat="47.83117" lon="6.99949">
        <ele>1102.77</ele>
        <time>2014-06-21T16:00:08Z</time>
      </trkpt>
      <trkpt lat="47.83119" lon="6.99944">
        <ele>1098.44</ele>
        <time>2014-06-21T16:00:11Z</time>
      </trkpt>
      <trkpt lat="47.8312" lon="6.99943">
        <ele>1099.4</ele>
        <time>2014-06-21T16:00:12Z</time>
      </trkpt>
      <trkpt lat="47.83121" lon="6.9994">
        <ele>1095.08</ele>
        <time>2014-06-21T16:00:14Z</time>
      </trkpt>
      <trkpt lat="47.83122" lon="6.99939">
        <ele>1098.44</ele>
        <time>2014-06-21T16:00:15Z</time>
      </trkpt>
      <trkpt lat="47.83122" lon="6.99935">
        <ele>1098.92</ele>
        <time>2014-06-21T16:00:17Z</time>
      </trkpt>
      <trkpt lat="47.83123" lon="6.99932">
        <ele>1101.81</ele>
        <time>2014-06-21T16:00:20Z</time>
      </trkpt>
      <trkpt lat="47.83125" lon="6.9993">
        <ele>1094.12</ele>
        <time>2014-06-21T16:00:22Z</time>
      </trkpt>
      <trkpt lat="47.83127" lon="6.99927">
        <ele>1090.75</ele>
        <time>2014-06-21T16:00:24Z</time>
      </trkpt>
      <trkpt lat="47.83127" lon="6.99926">
        <ele>1093.64</ele>
        <time>2014-06-21T16:00:25Z</time>
      </trkpt>
      <trkpt lat="47.83129" lon="6.99922">
        <ele>1096.04</ele>
        <time>2014-06-21T16:00:28Z</time>
      </trkpt>
      <trkpt lat="47.83129" lon="6.99921">
        <ele>1100.85</ele>
        <time>2014-06-21T16:00:29Z</time>
      </trkpt>
      <trkpt lat="47.83129" lon="6.99919">
        <ele>1099.89</ele>
        <time>2014-06-21T16:00:30Z</time>
      </trkpt>
      <trkpt lat="47.83129" lon="6.99918">
        <ele>1095.56</ele>
        <time>2014-06-21T16:00:31Z</time>
      </trkpt>
      <trkpt lat="47.8313" lon="6.99917">
        <ele>1092.2</ele>
        <time>2014-06-21T16:00:32Z</time>
      </trkpt>
      <trkpt lat="47.83131" lon="6.99916">
        <ele>1088.83</ele>
        <time>2014-06-21T16:00:33Z</time>
      </trkpt>
      <trkpt lat="47.83131" lon="6.99915">
        <ele>1092.68</ele>
        <time>2014-06-21T16:00:34Z</time>
      </trkpt>
      <trkpt lat="47.83132" lon="6.99913">
        <ele>1098.92</ele>
        <time>2014-06-21T16:00:35Z</time>
      </trkpt>
      <trkpt lat="47.83134" lon="6.99911">
        <ele>1095.08</ele>
        <time>2014-06-21T16:00:36Z</time>
      </trkpt>
      <trkpt lat="47.83135" lon="6.99909">
        <ele>1086.91</ele>
        <time>2014-06-21T16:00:37Z</time>
      </trkpt>
      <trkpt lat="47.83135" lon="6.99906">
        <ele>1089.31</ele>
        <time>2014-06-21T16:00:38Z</time>
      </trkpt>
      <trkpt lat="47.83137" lon="6.99904">
        <ele>1095.08</ele>
        <time>2014-06-21T16:00:39Z</time>
      </trkpt>
      <trkpt lat="47.83138" lon="6.99902">
        <ele>1097.96</ele>
        <time>2014-06-21T16:00:40Z</time>
      </trkpt>
      <trkpt lat="47.83138" lon="6.999">
        <ele>1097</ele>
        <time>2014-06-21T16:00:41Z</time>
      </trkpt>
      <trkpt lat="47.8314" lon="6.99896">
        <ele>1088.83</ele>
        <time>2014-06-21T16:00:44Z</time>
      </trkpt>
      <trkpt lat="47.83141" lon="6.99895">
        <ele>1088.83</ele>
        <time>2014-06-21T16:00:45Z</time>
      </trkpt>
      <trkpt lat="47.83143" lon="6.99892">
        <ele>1093.16</ele>
        <time>2014-06-21T16:00:47Z</time>
      </trkpt>
      <trkpt lat="47.83145" lon="6.9989">
        <ele>1094.12</ele>
        <time>2014-06-21T16:00:49Z</time>
      </trkpt>
      <trkpt lat="47.83149" lon="6.99883">
        <ele>1089.79</ele>
        <time>2014-06-21T16:00:53Z</time>
      </trkpt>
      <trkpt lat="47.8315" lon="6.99881">
        <ele>1086.91</ele>
        <time>2014-06-21T16:00:54Z</time>
      </trkpt>
      <trkpt lat="47.83151" lon="6.9988">
        <ele>1088.35</ele>
        <time>2014-06-21T16:00:55Z</time>
      </trkpt>
      <trkpt lat="47.83152" lon="6.99878">
        <ele>1084.99</ele>
        <time>2014-06-21T16:00:56Z</time>
      </trkpt>
      <trkpt lat="47.83153" lon="6.99877">
        <ele>1088.83</ele>
        <time>2014-06-21T16:00:57Z</time>
      </trkpt>
      <trkpt lat="47.83155" lon="6.99875">
        <ele>1092.2</ele>
        <time>2014-06-21T16:00:59Z</time>
      </trkpt>
      <trkpt lat="47.83155" lon="6.99874">
        <ele>1088.35</ele>
        <time>2014-06-21T16:01:00Z</time>
      </trkpt>
      <trkpt lat="47.83157" lon="6.99869">
        <ele>1084.5</ele>
        <time>2014-06-21T16:01:02Z</time>
      </trkpt>
      <trkpt lat="47.83158" lon="6.99867">
        <ele>1089.79</ele>
        <time>2014-06-21T16:01:03Z</time>
      </trkpt>
      <trkpt lat="47.8316" lon="6.99861">
        <ele>1084.99</ele>
        <time>2014-06-21T16:01:06Z</time>
      </trkpt>
      <trkpt lat="47.83161" lon="6.99857">
        <ele>1083.54</ele>
        <time>2014-06-21T16:01:08Z</time>
      </trkpt>
      <trkpt lat="47.83162" lon="6.99855">
        <ele>1093.64</ele>
        <time>2014-06-21T16:01:09Z</time>
      </trkpt>
      <trkpt lat="47.83163" lon="6.99854">
        <ele>1088.83</ele>
        <time>2014-06-21T16:01:10Z</time>
      </trkpt>
      <trkpt lat="47.83165" lon="6.99851">
        <ele>1084.02</ele>
        <time>2014-06-21T16:01:12Z</time>
      </trkpt>
      <trkpt lat="47.83166" lon="6.9985">
        <ele>1079.7</ele>
        <time>2014-06-21T16:01:13Z</time>
      </trkpt>
      <trkpt lat="47.83167" lon="6.99848">
        <ele>1083.54</ele>
        <time>2014-06-21T16:01:14Z</time>
      </trkpt>
      <trkpt lat="47.83168" lon="6.99847">
        <ele>1088.35</ele>
        <time>2014-06-21T16:01:15Z</time>
      </trkpt>
      <trkpt lat="47.83171" lon="6.99843">
        <ele>1082.58</ele>
        <time>2014-06-21T16:01:18Z</time>
      </trkpt>
      <trkpt lat="47.83173" lon="6.99841">
        <ele>1079.7</ele>
        <time>2014-06-21T16:01:20Z</time>
      </trkpt>
      <trkpt lat="47.83174" lon="6.9984">
        <ele>1084.02</ele>
        <time>2014-06-21T16:01:21Z</time>
      </trkpt>
      <trkpt lat="47.83175" lon="6.99838">
        <ele>1088.35</ele>
        <time>2014-06-21T16:01:23Z</time>
      </trkpt>
      <trkpt lat="47.83178" lon="6.99833">
        <ele>1084.99</ele>
        <time>2014-06-21T16:01:26Z</time>
      </trkpt>
      <trkpt lat="47.83179" lon="6.9983">
        <ele>1077.78</ele>
        <time>2014-06-21T16:01:28Z</time>
      </trkpt>
      <trkpt lat="47.8318" lon="6.99827">
        <ele>1081.14</ele>
        <time>2014-06-21T16:01:29Z</time>
      </trkpt>
      <trkpt lat="47.83182" lon="6.99822">
        <ele>1084.99</ele>
        <time>2014-06-21T16:01:32Z</time>
      </trkpt>
      <trkpt lat="47.83183" lon="6.99821">
        <ele>1084.02</ele>
        <time>2014-06-21T16:01:33Z</time>
      </trkpt>
      <trkpt lat="47.83184" lon="6.9982">
        <ele>1077.29</ele>
        <time>2014-06-21T16:01:34Z</time>
      </trkpt>
      <trkpt lat="47.83184" lon="6.99818">
        <ele>1083.54</ele>
        <time>2014-06-21T16:01:36Z</time>
      </trkpt>
      <trkpt lat="47.83185" lon="6.99813">
        <ele>1079.7</ele>
        <time>2014-06-21T16:01:39Z</time>
      </trkpt>
      <trkpt lat="47.83186" lon="6.99812">
        <ele>1079.7</ele>
        <time>2014-06-21T16:01:40Z</time>
      </trkpt>
      <trkpt lat="47.83187" lon="6.99806">
        <ele>1081.62</ele>
        <time>2014-06-21T16:01:44Z</time>
      </trkpt>
      <trkpt lat="47.83187" lon="6.99804">
        <ele>1078.26</ele>
        <time>2014-06-21T16:01:46Z</time>
      </trkpt>
      <trkpt lat="47.83187" lon="6.998">
        <ele>1078.26</ele>
        <time>2014-06-21T16:01:49Z</time>
      </trkpt>
      <trkpt lat="47.83188" lon="6.99795">
        <ele>1071.53</ele>
        <time>2014-06-21T16:01:51Z</time>
      </trkpt>
      <trkpt lat="47.83188" lon="6.99793">
        <ele>1076.81</ele>
        <time>2014-06-21T16:01:52Z</time>
      </trkpt>
      <trkpt lat="47.83188" lon="6.99786">
        <ele>1072.97</ele>
        <time>2014-06-21T16:01:55Z</time>
      </trkpt>
      <trkpt lat="47.83187" lon="6.99775">
        <ele>1071.05</ele>
        <time>2014-06-21T16:02:00Z</time>
      </trkpt>
      <trkpt lat="47.83186" lon="6.99772">
        <ele>1070.08</ele>
        <time>2014-06-21T16:02:02Z</time>
      </trkpt>
      <trkpt lat="47.83185" lon="6.99767">
        <ele>1073.93</ele>
        <time>2014-06-21T16:02:04Z</time>
      </trkpt>
      <trkpt lat="47.83184" lon="6.99765">
        <ele>1072.97</ele>
        <time>2014-06-21T16:02:05Z</time>
      </trkpt>
      <trkpt lat="47.83184" lon="6.99761">
        <ele>1072.49</ele>
        <time>2014-06-21T16:02:07Z</time>
      </trkpt>
      <trkpt lat="47.83185" lon="6.99759">
        <ele>1067.68</ele>
        <time>2014-06-21T16:02:08Z</time>
      </trkpt>
      <trkpt lat="47.83183" lon="6.99752">
        <ele>1071.05</ele>
        <time>2014-06-21T16:02:12Z</time>
      </trkpt>
      <trkpt lat="47.83181" lon="6.99746">
        <ele>1070.57</ele>
        <time>2014-06-21T16:02:15Z</time>
      </trkpt>
      <trkpt lat="47.8318" lon="6.99743">
        <ele>1069.12</ele>
        <time>2014-06-21T16:02:17Z</time>
      </trkpt>
      <trkpt lat="47.83179" lon="6.99739">
        <ele>1064.32</ele>
        <time>2014-06-21T16:02:19Z</time>
      </trkpt>
      <trkpt lat="47.83178" lon="6.99736">
        <ele>1065.28</ele>
        <time>2014-06-21T16:02:20Z</time>
      </trkpt>
      <trkpt lat="47.83177" lon="6.99732">
        <ele>1071.53</ele>
        <time>2014-06-21T16:02:22Z</time>
      </trkpt>
      <trkpt lat="47.83176" lon="6.9973">
        <ele>1068.16</ele>
        <time>2014-06-21T16:02:23Z</time>
      </trkpt>
      <trkpt lat="47.83175" lon="6.99726">
        <ele>1062.39</ele>
        <time>2014-06-21T16:02:25Z</time>
      </trkpt>
      <trkpt lat="47.83174" lon="6.99724">
        <ele>1062.87</ele>
        <time>2014-06-21T16:02:26Z</time>
      </trkpt>
      <trkpt lat="47.83173" lon="6.9972">
        <ele>1067.2</ele>
        <time>2014-06-21T16:02:28Z</time>
      </trkpt>
      <trkpt lat="47.83171" lon="6.99716">
        <ele>1062.87</ele>
        <time>2014-06-21T16:02:30Z</time>
      </trkpt>
      <trkpt lat="47.83171" lon="6.99714">
        <ele>1062.39</ele>
        <time>2014-06-21T16:02:31Z</time>
      </trkpt>
      <trkpt lat="47.8317" lon="6.99712">
        <ele>1067.2</ele>
        <time>2014-06-21T16:02:32Z</time>
      </trkpt>
      <trkpt lat="47.83169" lon="6.9971">
        <ele>1066.72</ele>
        <time>2014-06-21T16:02:33Z</time>
      </trkpt>
      <trkpt lat="47.83168" lon="6.99704">
        <ele>1058.07</ele>
        <time>2014-06-21T16:02:35Z</time>
      </trkpt>
      <trkpt lat="47.83167" lon="6.99702">
        <ele>1065.76</ele>
        <time>2014-06-21T16:02:36Z</time>
      </trkpt>
      <trkpt lat="47.83166" lon="6.99697">
        <ele>1062.39</ele>
        <time>2014-06-21T16:02:38Z</time>
      </trkpt>
      <trkpt lat="47.83166" lon="6.99696">
        <ele>1057.11</ele>
        <time>2014-06-21T16:02:39Z</time>
      </trkpt>
      <trkpt lat="47.83167" lon="6.99693">
        <ele>1057.59</ele>
        <time>2014-06-21T16:02:40Z</time>
      </trkpt>
      <trkpt lat="47.83167" lon="6.99692">
        <ele>1060.95</ele>
        <time>2014-06-21T16:02:41Z</time>
      </trkpt>
      <trkpt lat="47.83168" lon="6.99688">
        <ele>1063.84</ele>
        <time>2014-06-21T16:02:43Z</time>
      </trkpt>
      <trkpt lat="47.8317" lon="6.99684">
        <ele>1060.47</ele>
        <time>2014-06-21T16:02:45Z</time>
      </trkpt>
      <trkpt lat="47.8317" lon="6.99682">
        <ele>1057.59</ele>
        <time>2014-06-21T16:02:46Z</time>
      </trkpt>
      <trkpt lat="47.83172" lon="6.99678">
        <ele>1061.91</ele>
        <time>2014-06-21T16:02:48Z</time>
      </trkpt>
      <trkpt lat="47.83173" lon="6.99676">
        <ele>1058.55</ele>
        <time>2014-06-21T16:02:49Z</time>
      </trkpt>
      <trkpt lat="47.83173" lon="6.99674">
        <ele>1053.26</ele>
        <time>2014-06-21T16:02:50Z</time>
      </trkpt>
      <trkpt lat="47.83174" lon="6.99672">
        <ele>1054.7</ele>
        <time>2014-06-21T16:02:51Z</time>
      </trkpt>
      <trkpt lat="47.83176" lon="6.99669">
        <ele>1060.47</ele>
        <time>2014-06-21T16:02:53Z</time>
      </trkpt>
      <trkpt lat="47.83178" lon="6.99665">
        <ele>1057.59</ele>
        <time>2014-06-21T16:02:55Z</time>
      </trkpt>
      <trkpt lat="47.83181" lon="6.9966">
        <ele>1053.26</ele>
        <time>2014-06-21T16:02:58Z</time>
      </trkpt>
      <trkpt lat="47.83183" lon="6.99654">
        <ele>1058.55</ele>
        <time>2014-06-21T16:03:01Z</time>
      </trkpt>
      <trkpt lat="47.83187" lon="6.99645">
        <ele>1053.74</ele>
        <time>2014-06-21T16:03:07Z</time>
      </trkpt>
      <trkpt lat="47.83188" lon="6.99643">
        <ele>1053.74</ele>
        <time>2014-06-21T16:03:08Z</time>
      </trkpt>
      <trkpt lat="47.83191" lon="6.99635">
        <ele>1057.11</ele>
        <time>2014-06-21T16:03:12Z</time>
      </trkpt>
      <trkpt lat="47.83193" lon="6.9963">
        <ele>1053.74</ele>
        <time>2014-06-21T16:03:15Z</time>
      </trkpt>
      <trkpt lat="47.83194" lon="6.99628">
        <ele>1053.74</ele>
        <time>2014-06-21T16:03:16Z</time>
      </trkpt>
      <trkpt lat="47.83198" lon="6.99624">
        <ele>1057.11</ele>
        <time>2014-06-21T16:03:19Z</time>
      </trkpt>
      <trkpt lat="47.83199" lon="6.99622">
        <ele>1057.11</ele>
        <time>2014-06-21T16:03:20Z</time>
      </trkpt>
      <trkpt lat="47.83203" lon="6.99614">
        <ele>1055.18</ele>
        <time>2014-06-21T16:03:25Z</time>
      </trkpt>
      <trkpt lat="47.83206" lon="6.99611">
        <ele>1051.82</ele>
        <time>2014-06-21T16:03:27Z</time>
      </trkpt>
      <trkpt lat="47.83207" lon="6.9961">
        <ele>1056.63</ele>
        <time>2014-06-21T16:03:28Z</time>
      </trkpt>
      <trkpt lat="47.83208" lon="6.99609">
        <ele>1053.74</ele>
        <time>2014-06-21T16:03:29Z</time>
      </trkpt>
      <trkpt lat="47.83209" lon="6.99607">
        <ele>1057.11</ele>
        <time>2014-06-21T16:03:30Z</time>
      </trkpt>
      <trkpt lat="47.83211" lon="6.99606">
        <ele>1060.47</ele>
        <time>2014-06-21T16:03:31Z</time>
      </trkpt>
      <trkpt lat="47.83212" lon="6.99605">
        <ele>1054.7</ele>
        <time>2014-06-21T16:03:32Z</time>
      </trkpt>
      <trkpt lat="47.83219" lon="6.99592">
        <ele>1050.86</ele>
        <time>2014-06-21T16:03:40Z</time>
      </trkpt>
      <trkpt lat="47.83221" lon="6.99589">
        <ele>1047.01</ele>
        <time>2014-06-21T16:03:42Z</time>
      </trkpt>
      <trkpt lat="47.83221" lon="6.99587">
        <ele>1048.45</ele>
        <time>2014-06-21T16:03:43Z</time>
      </trkpt>
      <trkpt lat="47.83223" lon="6.99582">
        <ele>1055.67</ele>
        <time>2014-06-21T16:03:45Z</time>
      </trkpt>
      <trkpt lat="47.83224" lon="6.99577">
        <ele>1056.63</ele>
        <time>2014-06-21T16:03:47Z</time>
      </trkpt>
      <trkpt lat="47.83225" lon="6.99575">
        <ele>1051.82</ele>
        <time>2014-06-21T16:03:48Z</time>
      </trkpt>
      <trkpt lat="47.83226" lon="6.99572">
        <ele>1048.45</ele>
        <time>2014-06-21T16:03:49Z</time>
      </trkpt>
      <trkpt lat="47.83226" lon="6.9957">
        <ele>1050.38</ele>
        <time>2014-06-21T16:03:50Z</time>
      </trkpt>
      <trkpt lat="47.83228" lon="6.99566">
        <ele>1057.11</ele>
        <time>2014-06-21T16:03:52Z</time>
      </trkpt>
      <trkpt lat="47.83228" lon="6.99564">
        <ele>1054.7</ele>
        <time>2014-06-21T16:03:53Z</time>
      </trkpt>
      <trkpt lat="47.83229" lon="6.99562">
        <ele>1051.34</ele>
        <time>2014-06-21T16:03:54Z</time>
      </trkpt>
      <trkpt lat="47.8323" lon="6.99561">
        <ele>1047.49</ele>
        <time>2014-06-21T16:03:55Z</time>
      </trkpt>
      <trkpt lat="47.8323" lon="6.9956">
        <ele>1048.45</ele>
        <time>2014-06-21T16:03:56Z</time>
      </trkpt>
      <trkpt lat="47.83231" lon="6.99558">
        <ele>1054.22</ele>
        <time>2014-06-21T16:03:57Z</time>
      </trkpt>
      <trkpt lat="47.83234" lon="6.99551">
        <ele>1048.94</ele>
        <time>2014-06-21T16:04:01Z</time>
      </trkpt>
      <trkpt lat="47.83238" lon="6.99547">
        <ele>1054.7</ele>
        <time>2014-06-21T16:04:04Z</time>
      </trkpt>
      <trkpt lat="47.83242" lon="6.99543">
        <ele>1049.42</ele>
        <time>2014-06-21T16:04:07Z</time>
      </trkpt>
      <trkpt lat="47.83244" lon="6.99541">
        <ele>1047.97</ele>
        <time>2014-06-21T16:04:09Z</time>
      </trkpt>
      <trkpt lat="47.83245" lon="6.9954">
        <ele>1052.3</ele>
        <time>2014-06-21T16:04:10Z</time>
      </trkpt>
      <trkpt lat="47.83251" lon="6.99534">
        <ele>1048.94</ele>
        <time>2014-06-21T16:04:14Z</time>
      </trkpt>
      <trkpt lat="47.83255" lon="6.9953">
        <ele>1053.26</ele>
        <time>2014-06-21T16:04:17Z</time>
      </trkpt>
      <trkpt lat="47.83261" lon="6.99526">
        <ele>1047.49</ele>
        <time>2014-06-21T16:04:21Z</time>
      </trkpt>
      <trkpt lat="47.83263" lon="6.99524">
        <ele>1048.45</ele>
        <time>2014-06-21T16:04:22Z</time>
      </trkpt>
      <trkpt lat="47.83264" lon="6.99523">
        <ele>1052.3</ele>
        <time>2014-06-21T16:04:23Z</time>
      </trkpt>
      <trkpt lat="47.83265" lon="6.99522">
        <ele>1051.34</ele>
        <time>2014-06-21T16:04:24Z</time>
      </trkpt>
      <trkpt lat="47.83269" lon="6.99519">
        <ele>1047.01</ele>
        <time>2014-06-21T16:04:27Z</time>
      </trkpt>
      <trkpt lat="47.8327" lon="6.99519">
        <ele>1046.53</ele>
        <time>2014-06-21T16:04:28Z</time>
      </trkpt>
      <trkpt lat="47.83272" lon="6.99517">
        <ele>1049.9</ele>
        <time>2014-06-21T16:04:29Z</time>
      </trkpt>
      <trkpt lat="47.83273" lon="6.99516">
        <ele>1048.94</ele>
        <time>2014-06-21T16:04:30Z</time>
      </trkpt>
      <trkpt lat="47.83278" lon="6.99511">
        <ele>1045.09</ele>
        <time>2014-06-21T16:04:35Z</time>
      </trkpt>
      <trkpt lat="47.83282" lon="6.99508">
        <ele>1049.42</ele>
        <time>2014-06-21T16:04:38Z</time>
      </trkpt>
      <trkpt lat="47.83287" lon="6.99505">
        <ele>1042.69</ele>
        <time>2014-06-21T16:04:42Z</time>
      </trkpt>
      <trkpt lat="47.83288" lon="6.99505">
        <ele>1046.05</ele>
        <time>2014-06-21T16:04:43Z</time>
      </trkpt>
      <trkpt lat="47.8329" lon="6.99504">
        <ele>1049.9</ele>
        <time>2014-06-21T16:04:45Z</time>
      </trkpt>
      <trkpt lat="47.83292" lon="6.99505">
        <ele>1045.57</ele>
        <time>2014-06-21T16:04:47Z</time>
      </trkpt>
      <trkpt lat="47.83293" lon="6.99505">
        <ele>1042.21</ele>
        <time>2014-06-21T16:04:48Z</time>
      </trkpt>
      <trkpt lat="47.83294" lon="6.99505">
        <ele>1044.61</ele>
        <time>2014-06-21T16:04:49Z</time>
      </trkpt>
      <trkpt lat="47.83297" lon="6.99505">
        <ele>1049.42</ele>
        <time>2014-06-21T16:04:51Z</time>
      </trkpt>
      <trkpt lat="47.83298" lon="6.99504">
        <ele>1048.45</ele>
        <time>2014-06-21T16:04:52Z</time>
      </trkpt>
      <trkpt lat="47.83299" lon="6.99504">
        <ele>1043.17</ele>
        <time>2014-06-21T16:04:53Z</time>
      </trkpt>
      <trkpt lat="47.83301" lon="6.99503">
        <ele>1044.13</ele>
        <time>2014-06-21T16:04:55Z</time>
      </trkpt>
      <trkpt lat="47.83305" lon="6.99503">
        <ele>1045.09</ele>
        <time>2014-06-21T16:04:58Z</time>
      </trkpt>
      <trkpt lat="47.83308" lon="6.99502">
        <ele>1042.21</ele>
        <time>2014-06-21T16:05:00Z</time>
      </trkpt>
      <trkpt lat="47.83311" lon="6.995">
        <ele>1046.05</ele>
        <time>2014-06-21T16:05:01Z</time>
      </trkpt>
      <trkpt lat="47.83314" lon="6.99497">
        <ele>1049.42</ele>
        <time>2014-06-21T16:05:03Z</time>
      </trkpt>
      <trkpt lat="47.83316" lon="6.99496">
        <ele>1042.69</ele>
        <time>2014-06-21T16:05:05Z</time>
      </trkpt>
      <trkpt lat="47.83321" lon="6.99495">
        <ele>1050.38</ele>
        <time>2014-06-21T16:05:08Z</time>
      </trkpt>
      <trkpt lat="47.83323" lon="6.99494">
        <ele>1049.42</ele>
        <time>2014-06-21T16:05:09Z</time>
      </trkpt>
      <trkpt lat="47.83325" lon="6.99493">
        <ele>1045.57</ele>
        <time>2014-06-21T16:05:10Z</time>
      </trkpt>
      <trkpt lat="47.83328" lon="6.9949">
        <ele>1039.8</ele>
        <time>2014-06-21T16:05:12Z</time>
      </trkpt>
      <trkpt lat="47.83329" lon="6.99489">
        <ele>1045.57</ele>
        <time>2014-06-21T16:05:13Z</time>
      </trkpt>
      <trkpt lat="47.83331" lon="6.99488">
        <ele>1048.94</ele>
        <time>2014-06-21T16:05:14Z</time>
      </trkpt>
      <trkpt lat="47.83332" lon="6.99485">
        <ele>1047.01</ele>
        <time>2014-06-21T16:05:15Z</time>
      </trkpt>
      <trkpt lat="47.83334" lon="6.99483">
        <ele>1042.69</ele>
        <time>2014-06-21T16:05:16Z</time>
      </trkpt>
      <trkpt lat="47.83337" lon="6.99478">
        <ele>1047.97</ele>
        <time>2014-06-21T16:05:19Z</time>
      </trkpt>
      <trkpt lat="47.83339" lon="6.99475">
        <ele>1044.13</ele>
        <time>2014-06-21T16:05:21Z</time>
      </trkpt>
      <trkpt lat="47.83341" lon="6.99473">
        <ele>1039.8</ele>
        <time>2014-06-21T16:05:22Z</time>
      </trkpt>
      <trkpt lat="47.83341" lon="6.99472">
        <ele>1040.76</ele>
        <time>2014-06-21T16:05:23Z</time>
      </trkpt>
      <trkpt lat="47.83343" lon="6.99469">
        <ele>1047.01</ele>
        <time>2014-06-21T16:05:25Z</time>
      </trkpt>
      <trkpt lat="47.83344" lon="6.99468">
        <ele>1046.05</ele>
        <time>2014-06-21T16:05:26Z</time>
      </trkpt>
      <trkpt lat="47.83346" lon="6.99466">
        <ele>1043.17</ele>
        <time>2014-06-21T16:05:27Z</time>
      </trkpt>
      <trkpt lat="47.83348" lon="6.99463">
        <ele>1040.28</ele>
        <time>2014-06-21T16:05:29Z</time>
      </trkpt>
      <trkpt lat="47.83351" lon="6.9946">
        <ele>1048.45</ele>
        <time>2014-06-21T16:05:32Z</time>
      </trkpt>
      <trkpt lat="47.83352" lon="6.99458">
        <ele>1045.57</ele>
        <time>2014-06-21T16:05:33Z</time>
      </trkpt>
      <trkpt lat="47.83355" lon="6.99456">
        <ele>1039.32</ele>
        <time>2014-06-21T16:05:35Z</time>
      </trkpt>
      <trkpt lat="47.83357" lon="6.99456">
        <ele>1038.84</ele>
        <time>2014-06-21T16:05:36Z</time>
      </trkpt>
      <trkpt lat="47.83358" lon="6.99456">
        <ele>1042.21</ele>
        <time>2014-06-21T16:05:37Z</time>
      </trkpt>
      <trkpt lat="47.8336" lon="6.99456">
        <ele>1045.57</ele>
        <time>2014-06-21T16:05:38Z</time>
      </trkpt>
      <trkpt lat="47.83362" lon="6.99456">
        <ele>1045.57</ele>
        <time>2014-06-21T16:05:39Z</time>
      </trkpt>
      <trkpt lat="47.83366" lon="6.99455">
        <ele>1041.73</ele>
        <time>2014-06-21T16:05:42Z</time>
      </trkpt>
      <trkpt lat="47.83372" lon="6.99449">
        <ele>1045.09</ele>
        <time>2014-06-21T16:05:47Z</time>
      </trkpt>
      <trkpt lat="47.83373" lon="6.99448">
        <ele>1045.09</ele>
        <time>2014-06-21T16:05:48Z</time>
      </trkpt>
      <trkpt lat="47.83376" lon="6.99446">
        <ele>1039.32</ele>
        <time>2014-06-21T16:05:50Z</time>
      </trkpt>
      <trkpt lat="47.83378" lon="6.99445">
        <ele>1039.32</ele>
        <time>2014-06-21T16:05:51Z</time>
      </trkpt>
      <trkpt lat="47.8338" lon="6.99444">
        <ele>1036.44</ele>
        <time>2014-06-21T16:05:52Z</time>
      </trkpt>
      <trkpt lat="47.83381" lon="6.99444">
        <ele>1039.32</ele>
        <time>2014-06-21T16:05:53Z</time>
      </trkpt>
      <trkpt lat="47.83382" lon="6.99443">
        <ele>1043.17</ele>
        <time>2014-06-21T16:05:54Z</time>
      </trkpt>
      <trkpt lat="47.83385" lon="6.99441">
        <ele>1039.32</ele>
        <time>2014-06-21T16:05:57Z</time>
      </trkpt>
      <trkpt lat="47.83387" lon="6.9944">
        <ele>1035.48</ele>
        <time>2014-06-21T16:05:59Z</time>
      </trkpt>
      <trkpt lat="47.83388" lon="6.99439">
        <ele>1040.28</ele>
        <time>2014-06-21T16:06:00Z</time>
      </trkpt>
      <trkpt lat="47.83389" lon="6.99439">
        <ele>1043.65</ele>
        <time>2014-06-21T16:06:01Z</time>
      </trkpt>
      <trkpt lat="47.8339" lon="6.99438">
        <ele>1042.21</ele>
        <time>2014-06-21T16:06:02Z</time>
      </trkpt>
      <trkpt lat="47.83392" lon="6.99438">
        <ele>1038.36</ele>
        <time>2014-06-21T16:06:04Z</time>
      </trkpt>
      <trkpt lat="47.83397" lon="6.99435">
        <ele>1041.73</ele>
        <time>2014-06-21T16:06:08Z</time>
      </trkpt>
      <trkpt lat="47.83399" lon="6.99434">
        <ele>1041.25</ele>
        <time>2014-06-21T16:06:09Z</time>
      </trkpt>
      <trkpt lat="47.834" lon="6.99433">
        <ele>1041.25</ele>
        <time>2014-06-21T16:06:10Z</time>
      </trkpt>
      <trkpt lat="47.83408" lon="6.99432">
        <ele>1042.69</ele>
        <time>2014-06-21T16:06:16Z</time>
      </trkpt>
      <trkpt lat="47.83411" lon="6.99433">
        <ele>1038.36</ele>
        <time>2014-06-21T16:06:18Z</time>
      </trkpt>
      <trkpt lat="47.83418" lon="6.99429">
        <ele>1041.25</ele>
        <time>2014-06-21T16:06:24Z</time>
      </trkpt>
      <trkpt lat="47.83425" lon="6.99426">
        <ele>1034.04</ele>
        <time>2014-06-21T16:06:29Z</time>
      </trkpt>
      <trkpt lat="47.83426" lon="6.99425">
        <ele>1035.48</ele>
        <time>2014-06-21T16:06:30Z</time>
      </trkpt>
      <trkpt lat="47.83431" lon="6.99423">
        <ele>1038.36</ele>
        <time>2014-06-21T16:06:33Z</time>
      </trkpt>
      <trkpt lat="47.83434" lon="6.99421">
        <ele>1040.28</ele>
        <time>2014-06-21T16:06:35Z</time>
      </trkpt>
      <trkpt lat="47.83435" lon="6.9942">
        <ele>1036.92</ele>
        <time>2014-06-21T16:06:36Z</time>
      </trkpt>
      <trkpt lat="47.83438" lon="6.99419">
        <ele>1032.11</ele>
        <time>2014-06-21T16:06:38Z</time>
      </trkpt>
      <trkpt lat="47.83439" lon="6.99419">
        <ele>1035</ele>
        <time>2014-06-21T16:06:39Z</time>
      </trkpt>
      <trkpt lat="47.83442" lon="6.99417">
        <ele>1040.28</ele>
        <time>2014-06-21T16:06:41Z</time>
      </trkpt>
      <trkpt lat="47.83444" lon="6.99417">
        <ele>1038.84</ele>
        <time>2014-06-21T16:06:42Z</time>
      </trkpt>
      <trkpt lat="47.83447" lon="6.99415">
        <ele>1035.48</ele>
        <time>2014-06-21T16:06:44Z</time>
      </trkpt>
      <trkpt lat="47.83448" lon="6.99414">
        <ele>1031.63</ele>
        <time>2014-06-21T16:06:45Z</time>
      </trkpt>
      <trkpt lat="47.83452" lon="6.99411">
        <ele>1036.44</ele>
        <time>2014-06-21T16:06:47Z</time>
      </trkpt>
      <trkpt lat="47.83456" lon="6.99407">
        <ele>1040.76</ele>
        <time>2014-06-21T16:06:49Z</time>
      </trkpt>
      <trkpt lat="47.83457" lon="6.99405">
        <ele>1036.92</ele>
        <time>2014-06-21T16:06:50Z</time>
      </trkpt>
      <trkpt lat="47.8346" lon="6.99402">
        <ele>1031.63</ele>
        <time>2014-06-21T16:06:52Z</time>
      </trkpt>
      <trkpt lat="47.83461" lon="6.994">
        <ele>1031.63</ele>
        <time>2014-06-21T16:06:53Z</time>
      </trkpt>
      <trkpt lat="47.83463" lon="6.99396">
        <ele>1037.88</ele>
        <time>2014-06-21T16:06:55Z</time>
      </trkpt>
      <trkpt lat="47.83464" lon="6.99394">
        <ele>1037.4</ele>
        <time>2014-06-21T16:06:56Z</time>
      </trkpt>
      <trkpt lat="47.83468" lon="6.99384">
        <ele>1033.07</ele>
        <time>2014-06-21T16:07:00Z</time>
      </trkpt>
      <trkpt lat="47.83469" lon="6.9938">
        <ele>1031.63</ele>
        <time>2014-06-21T16:07:02Z</time>
      </trkpt>
      <trkpt lat="47.8347" lon="6.99373">
        <ele>1037.4</ele>
        <time>2014-06-21T16:07:05Z</time>
      </trkpt>
      <trkpt lat="47.8347" lon="6.99371">
        <ele>1035.48</ele>
        <time>2014-06-21T16:07:06Z</time>
      </trkpt>
      <trkpt lat="47.83471" lon="6.99368">
        <ele>1032.59</ele>
        <time>2014-06-21T16:07:08Z</time>
      </trkpt>
      <trkpt lat="47.83472" lon="6.99364">
        <ele>1031.63</ele>
        <time>2014-06-21T16:07:10Z</time>
      </trkpt>
      <trkpt lat="47.83472" lon="6.99359">
        <ele>1033.55</ele>
        <time>2014-06-21T16:07:12Z</time>
      </trkpt>
      <trkpt lat="47.83474" lon="6.9935">
        <ele>1030.19</ele>
        <time>2014-06-21T16:07:16Z</time>
      </trkpt>
      <trkpt lat="47.83476" lon="6.99341">
        <ele>1035.48</ele>
        <time>2014-06-21T16:07:20Z</time>
      </trkpt>
      <trkpt lat="47.83476" lon="6.99338">
        <ele>1034.52</ele>
        <time>2014-06-21T16:07:21Z</time>
      </trkpt>
      <trkpt lat="47.83476" lon="6.99334">
        <ele>1030.67</ele>
        <time>2014-06-21T16:07:23Z</time>
      </trkpt>
      <trkpt lat="47.83477" lon="6.99332">
        <ele>1026.83</ele>
        <time>2014-06-21T16:07:24Z</time>
      </trkpt>
      <trkpt lat="47.83477" lon="6.9933">
        <ele>1029.23</ele>
        <time>2014-06-21T16:07:25Z</time>
      </trkpt>
      <trkpt lat="47.83477" lon="6.99328">
        <ele>1033.07</ele>
        <time>2014-06-21T16:07:26Z</time>
      </trkpt>
      <trkpt lat="47.83477" lon="6.99326">
        <ele>1036.92</ele>
        <time>2014-06-21T16:07:27Z</time>
      </trkpt>
      <trkpt lat="47.83477" lon="6.99324">
        <ele>1035.48</ele>
        <time>2014-06-21T16:07:28Z</time>
      </trkpt>
      <trkpt lat="47.83477" lon="6.99322">
        <ele>1031.63</ele>
        <time>2014-06-21T16:07:29Z</time>
      </trkpt>
      <trkpt lat="47.83477" lon="6.9932">
        <ele>1028.27</ele>
        <time>2014-06-21T16:07:30Z</time>
      </trkpt>
      <trkpt lat="47.83478" lon="6.99318">
        <ele>1028.27</ele>
        <time>2014-06-21T16:07:31Z</time>
      </trkpt>
      <trkpt lat="47.83478" lon="6.99313">
        <ele>1033.55</ele>
        <time>2014-06-21T16:07:33Z</time>
      </trkpt>
      <trkpt lat="47.83478" lon="6.99311">
        <ele>1033.55</ele>
        <time>2014-06-21T16:07:34Z</time>
      </trkpt>
      <trkpt lat="47.83478" lon="6.99309">
        <ele>1028.75</ele>
        <time>2014-06-21T16:07:35Z</time>
      </trkpt>
      <trkpt lat="47.83478" lon="6.99299">
        <ele>1033.07</ele>
        <time>2014-06-21T16:07:40Z</time>
      </trkpt>
      <trkpt lat="47.83478" lon="6.99293">
        <ele>1026.83</ele>
        <time>2014-06-21T16:07:43Z</time>
      </trkpt>
      <trkpt lat="47.83478" lon="6.99288">
        <ele>1030.67</ele>
        <time>2014-06-21T16:07:45Z</time>
      </trkpt>
      <trkpt lat="47.83477" lon="6.99284">
        <ele>1031.63</ele>
        <time>2014-06-21T16:07:47Z</time>
      </trkpt>
      <trkpt lat="47.83477" lon="6.99279">
        <ele>1026.83</ele>
        <time>2014-06-21T16:07:49Z</time>
      </trkpt>
      <trkpt lat="47.83477" lon="6.99272">
        <ele>1032.11</ele>
        <time>2014-06-21T16:07:52Z</time>
      </trkpt>
      <trkpt lat="47.83477" lon="6.9927">
        <ele>1031.15</ele>
        <time>2014-06-21T16:07:53Z</time>
      </trkpt>
      <trkpt lat="47.83477" lon="6.99263">
        <ele>1025.38</ele>
        <time>2014-06-21T16:07:56Z</time>
      </trkpt>
      <trkpt lat="47.83478" lon="6.99256">
        <ele>1030.67</ele>
        <time>2014-06-21T16:08:00Z</time>
      </trkpt>
      <trkpt lat="47.83478" lon="6.99254">
        <ele>1028.75</ele>
        <time>2014-06-21T16:08:01Z</time>
      </trkpt>
      <trkpt lat="47.83479" lon="6.99251">
        <ele>1025.38</ele>
        <time>2014-06-21T16:08:03Z</time>
      </trkpt>
      <trkpt lat="47.83483" lon="6.99244">
        <ele>1029.71</ele>
        <time>2014-06-21T16:08:07Z</time>
      </trkpt>
      <trkpt lat="47.83486" lon="6.99242">
        <ele>1031.15</ele>
        <time>2014-06-21T16:08:09Z</time>
      </trkpt>
      <trkpt lat="47.83488" lon="6.9924">
        <ele>1027.79</ele>
        <time>2014-06-21T16:08:11Z</time>
      </trkpt>
      <trkpt lat="47.8349" lon="6.9924">
        <ele>1024.42</ele>
        <time>2014-06-21T16:08:12Z</time>
      </trkpt>
      <trkpt lat="47.83496" lon="6.99239">
        <ele>1028.75</ele>
        <time>2014-06-21T16:08:16Z</time>
      </trkpt>
      <trkpt lat="47.83497" lon="6.99239">
        <ele>1033.07</ele>
        <time>2014-06-21T16:08:17Z</time>
      </trkpt>
      <trkpt lat="47.83499" lon="6.9924">
        <ele>1031.63</ele>
        <time>2014-06-21T16:08:18Z</time>
      </trkpt>
      <trkpt lat="47.835" lon="6.9924">
        <ele>1028.27</ele>
        <time>2014-06-21T16:08:19Z</time>
      </trkpt>
      <trkpt lat="47.83501" lon="6.9924">
        <ele>1028.27</ele>
        <time>2014-06-21T16:08:20Z</time>
      </trkpt>
      <trkpt lat="47.83503" lon="6.9924">
        <ele>1024.9</ele>
        <time>2014-06-21T16:08:21Z</time>
      </trkpt>
      <trkpt lat="47.83504" lon="6.99241">
        <ele>1024.9</ele>
        <time>2014-06-21T16:08:22Z</time>
      </trkpt>
      <trkpt lat="47.83507" lon="6.99241">
        <ele>1029.23</ele>
        <time>2014-06-21T16:08:24Z</time>
      </trkpt>
      <trkpt lat="47.83516" lon="6.99239">
        <ele>1023.46</ele>
        <time>2014-06-21T16:08:30Z</time>
      </trkpt>
      <trkpt lat="47.83517" lon="6.99238">
        <ele>1022.98</ele>
        <time>2014-06-21T16:08:31Z</time>
      </trkpt>
      <trkpt lat="47.83519" lon="6.99237">
        <ele>1027.79</ele>
        <time>2014-06-21T16:08:33Z</time>
      </trkpt>
      <trkpt lat="47.83523" lon="6.99233">
        <ele>1029.23</ele>
        <time>2014-06-21T16:08:36Z</time>
      </trkpt>
      <trkpt lat="47.83524" lon="6.99232">
        <ele>1025.38</ele>
        <time>2014-06-21T16:08:37Z</time>
      </trkpt>
      <trkpt lat="47.83525" lon="6.9923">
        <ele>1021.54</ele>
        <time>2014-06-21T16:08:38Z</time>
      </trkpt>
      <trkpt lat="47.83525" lon="6.99228">
        <ele>1024.9</ele>
        <time>2014-06-21T16:08:39Z</time>
      </trkpt>
      <trkpt lat="47.83528" lon="6.99223">
        <ele>1028.27</ele>
        <time>2014-06-21T16:08:42Z</time>
      </trkpt>
      <trkpt lat="47.8353" lon="6.99218">
        <ele>1022.98</ele>
        <time>2014-06-21T16:08:45Z</time>
      </trkpt>
      <trkpt lat="47.83532" lon="6.99209">
        <ele>1027.31</ele>
        <time>2014-06-21T16:08:50Z</time>
      </trkpt>
      <trkpt lat="47.83533" lon="6.99207">
        <ele>1026.83</ele>
        <time>2014-06-21T16:08:51Z</time>
      </trkpt>
      <trkpt lat="47.83534" lon="6.99196">
        <ele>1022.02</ele>
        <time>2014-06-21T16:08:56Z</time>
      </trkpt>
      <trkpt lat="47.83535" lon="6.99194">
        <ele>1022.5</ele>
        <time>2014-06-21T16:08:57Z</time>
      </trkpt>
      <trkpt lat="47.83535" lon="6.9919">
        <ele>1026.34</ele>
        <time>2014-06-21T16:08:59Z</time>
      </trkpt>
      <trkpt lat="47.83535" lon="6.99188">
        <ele>1025.38</ele>
        <time>2014-06-21T16:09:00Z</time>
      </trkpt>
      <trkpt lat="47.83536" lon="6.99186">
        <ele>1028.75</ele>
        <time>2014-06-21T16:09:01Z</time>
      </trkpt>
      <trkpt lat="47.83536" lon="6.99184">
        <ele>1025.38</ele>
        <time>2014-06-21T16:09:02Z</time>
      </trkpt>
      <trkpt lat="47.83536" lon="6.9918">
        <ele>1019.13</ele>
        <time>2014-06-21T16:09:04Z</time>
      </trkpt>
      <trkpt lat="47.83536" lon="6.99177">
        <ele>1021.06</ele>
        <time>2014-06-21T16:09:05Z</time>
      </trkpt>
      <trkpt lat="47.83537" lon="6.99173">
        <ele>1026.83</ele>
        <time>2014-06-21T16:09:07Z</time>
      </trkpt>
      <trkpt lat="47.83537" lon="6.99171">
        <ele>1022.02</ele>
        <time>2014-06-21T16:09:08Z</time>
      </trkpt>
      <trkpt lat="47.83538" lon="6.99169">
        <ele>1018.17</ele>
        <time>2014-06-21T16:09:09Z</time>
      </trkpt>
      <trkpt lat="47.83538" lon="6.99167">
        <ele>1021.06</ele>
        <time>2014-06-21T16:09:10Z</time>
      </trkpt>
      <trkpt lat="47.83539" lon="6.99162">
        <ele>1023.94</ele>
        <time>2014-06-21T16:09:13Z</time>
      </trkpt>
      <trkpt lat="47.83541" lon="6.99157">
        <ele>1019.13</ele>
        <time>2014-06-21T16:09:16Z</time>
      </trkpt>
      <trkpt lat="47.83545" lon="6.99151">
        <ele>1022.5</ele>
        <time>2014-06-21T16:09:19Z</time>
      </trkpt>
      <trkpt lat="47.83547" lon="6.99148">
        <ele>1024.42</ele>
        <time>2014-06-21T16:09:21Z</time>
      </trkpt>
      <trkpt lat="47.83549" lon="6.99145">
        <ele>1018.65</ele>
        <time>2014-06-21T16:09:23Z</time>
      </trkpt>
      <trkpt lat="47.83551" lon="6.99143">
        <ele>1019.62</ele>
        <time>2014-06-21T16:09:24Z</time>
      </trkpt>
      <trkpt lat="47.83554" lon="6.99139">
        <ele>1021.54</ele>
        <time>2014-06-21T16:09:27Z</time>
      </trkpt>
      <trkpt lat="47.83556" lon="6.99136">
        <ele>1020.58</ele>
        <time>2014-06-21T16:09:29Z</time>
      </trkpt>
      <trkpt lat="47.83575" lon="6.99119">
        <ele>1018.65</ele>
        <time>2014-06-21T16:09:44Z</time>
      </trkpt>
      <trkpt lat="47.83586" lon="6.9911">
        <ele>1018.65</ele>
        <time>2014-06-21T16:09:52Z</time>
      </trkpt>
      <trkpt lat="47.83588" lon="6.99108">
        <ele>1015.77</ele>
        <time>2014-06-21T16:09:54Z</time>
      </trkpt>
      <trkpt lat="47.83591" lon="6.99106">
        <ele>1021.06</ele>
        <time>2014-06-21T16:09:56Z</time>
      </trkpt>
      <trkpt lat="47.83593" lon="6.99104">
        <ele>1017.69</ele>
        <time>2014-06-21T16:09:58Z</time>
      </trkpt>
      <trkpt lat="47.83595" lon="6.99103">
        <ele>1017.21</ele>
        <time>2014-06-21T16:09:59Z</time>
      </trkpt>
      <trkpt lat="47.83597" lon="6.99101">
        <ele>1015.77</ele>
        <time>2014-06-21T16:10:01Z</time>
      </trkpt>
      <trkpt lat="47.83598" lon="6.991">
        <ele>1020.1</ele>
        <time>2014-06-21T16:10:02Z</time>
      </trkpt>
      <trkpt lat="47.83599" lon="6.99099">
        <ele>1020.1</ele>
        <time>2014-06-21T16:10:03Z</time>
      </trkpt>
      <trkpt lat="47.83601" lon="6.99098">
        <ele>1016.25</ele>
        <time>2014-06-21T16:10:04Z</time>
      </trkpt>
      <trkpt lat="47.83602" lon="6.99096">
        <ele>1018.65</ele>
        <time>2014-06-21T16:10:05Z</time>
      </trkpt>
      <trkpt lat="47.83604" lon="6.99095">
        <ele>1014.81</ele>
        <time>2014-06-21T16:10:06Z</time>
      </trkpt>
      <trkpt lat="47.83607" lon="6.99093">
        <ele>1020.58</ele>
        <time>2014-06-21T16:10:08Z</time>
      </trkpt>
      <trkpt lat="47.83608" lon="6.99092">
        <ele>1018.17</ele>
        <time>2014-06-21T16:10:09Z</time>
      </trkpt>
      <trkpt lat="47.83612" lon="6.99088">
        <ele>1012.89</ele>
        <time>2014-06-21T16:10:12Z</time>
      </trkpt>
      <trkpt lat="47.83614" lon="6.99087">
        <ele>1014.33</ele>
        <time>2014-06-21T16:10:13Z</time>
      </trkpt>
      <trkpt lat="47.83615" lon="6.99085">
        <ele>1018.65</ele>
        <time>2014-06-21T16:10:14Z</time>
      </trkpt>
      <trkpt lat="47.83617" lon="6.99084">
        <ele>1018.65</ele>
        <time>2014-06-21T16:10:15Z</time>
      </trkpt>
      <trkpt lat="47.83619" lon="6.99081">
        <ele>1014.33</ele>
        <time>2014-06-21T16:10:17Z</time>
      </trkpt>
      <trkpt lat="47.83622" lon="6.99077">
        <ele>1018.65</ele>
        <time>2014-06-21T16:10:20Z</time>
      </trkpt>
      <trkpt lat="47.83623" lon="6.99076">
        <ele>1016.73</ele>
        <time>2014-06-21T16:10:21Z</time>
      </trkpt>
      <trkpt lat="47.83626" lon="6.9907">
        <ele>1011.93</ele>
        <time>2014-06-21T16:10:24Z</time>
      </trkpt>
      <trkpt lat="47.83626" lon="6.99068">
        <ele>1013.85</ele>
        <time>2014-06-21T16:10:25Z</time>
      </trkpt>
      <trkpt lat="47.83627" lon="6.99067">
        <ele>1018.17</ele>
        <time>2014-06-21T16:10:26Z</time>
      </trkpt>
      <trkpt lat="47.83628" lon="6.99065">
        <ele>1016.25</ele>
        <time>2014-06-21T16:10:27Z</time>
      </trkpt>
      <trkpt lat="47.8363" lon="6.9906">
        <ele>1015.29</ele>
        <time>2014-06-21T16:10:30Z</time>
      </trkpt>
      <trkpt lat="47.8363" lon="6.99059">
        <ele>1011.93</ele>
        <time>2014-06-21T16:10:31Z</time>
      </trkpt>
      <trkpt lat="47.83631" lon="6.99057">
        <ele>1006.16</ele>
        <time>2014-06-21T16:10:32Z</time>
      </trkpt>
      <trkpt lat="47.83632" lon="6.99055">
        <ele>1011.44</ele>
        <time>2014-06-21T16:10:33Z</time>
      </trkpt>
      <trkpt lat="47.83632" lon="6.99054">
        <ele>1014.81</ele>
        <time>2014-06-21T16:10:34Z</time>
      </trkpt>
      <trkpt lat="47.83634" lon="6.99045">
        <ele>1012.89</ele>
        <time>2014-06-21T16:10:38Z</time>
      </trkpt>
      <trkpt lat="47.83638" lon="6.99035">
        <ele>1008.08</ele>
        <time>2014-06-21T16:10:43Z</time>
      </trkpt>
      <trkpt lat="47.83638" lon="6.99033">
        <ele>1011.44</ele>
        <time>2014-06-21T16:10:44Z</time>
      </trkpt>
      <trkpt lat="47.83639" lon="6.99031">
        <ele>1016.25</ele>
        <time>2014-06-21T16:10:45Z</time>
      </trkpt>
      <trkpt lat="47.8364" lon="6.99029">
        <ele>1015.77</ele>
        <time>2014-06-21T16:10:46Z</time>
      </trkpt>
      <trkpt lat="47.8364" lon="6.99027">
        <ele>1010.96</ele>
        <time>2014-06-21T16:10:47Z</time>
      </trkpt>
      <trkpt lat="47.83641" lon="6.99024">
        <ele>1011.44</ele>
        <time>2014-06-21T16:10:48Z</time>
      </trkpt>
      <trkpt lat="47.83643" lon="6.99017">
        <ele>1014.81</ele>
        <time>2014-06-21T16:10:52Z</time>
      </trkpt>
      <trkpt lat="47.83645" lon="6.99014">
        <ele>1007.6</ele>
        <time>2014-06-21T16:10:54Z</time>
      </trkpt>
      <trkpt lat="47.83648" lon="6.99008">
        <ele>1013.85</ele>
        <time>2014-06-21T16:10:57Z</time>
      </trkpt>
      <trkpt lat="47.83649" lon="6.99006">
        <ele>1012.89</ele>
        <time>2014-06-21T16:10:58Z</time>
      </trkpt>
      <trkpt lat="47.83649" lon="6.99004">
        <ele>1009.52</ele>
        <time>2014-06-21T16:10:59Z</time>
      </trkpt>
      <trkpt lat="47.8365" lon="6.99002">
        <ele>1005.68</ele>
        <time>2014-06-21T16:11:00Z</time>
      </trkpt>
      <trkpt lat="47.83651" lon="6.99">
        <ele>1008.56</ele>
        <time>2014-06-21T16:11:01Z</time>
      </trkpt>
      <trkpt lat="47.83653" lon="6.98997">
        <ele>1013.37</ele>
        <time>2014-06-21T16:11:03Z</time>
      </trkpt>
      <trkpt lat="47.83657" lon="6.98992">
        <ele>1008.08</ele>
        <time>2014-06-21T16:11:06Z</time>
      </trkpt>
      <trkpt lat="47.83659" lon="6.98988">
        <ele>1006.16</ele>
        <time>2014-06-21T16:11:08Z</time>
      </trkpt>
      <trkpt lat="47.83662" lon="6.98985">
        <ele>1012.41</ele>
        <time>2014-06-21T16:11:10Z</time>
      </trkpt>
      <trkpt lat="47.83664" lon="6.98984">
        <ele>1011.93</ele>
        <time>2014-06-21T16:11:11Z</time>
      </trkpt>
      <trkpt lat="47.83665" lon="6.98982">
        <ele>1009.04</ele>
        <time>2014-06-21T16:11:12Z</time>
      </trkpt>
      <trkpt lat="47.83666" lon="6.98981">
        <ele>1003.27</ele>
        <time>2014-06-21T16:11:13Z</time>
      </trkpt>
      <trkpt lat="47.83667" lon="6.9898">
        <ele>1006.16</ele>
        <time>2014-06-21T16:11:14Z</time>
      </trkpt>
      <trkpt lat="47.8367" lon="6.98977">
        <ele>1012.41</ele>
        <time>2014-06-21T16:11:16Z</time>
      </trkpt>
      <trkpt lat="47.83671" lon="6.98976">
        <ele>1011.44</ele>
        <time>2014-06-21T16:11:17Z</time>
      </trkpt>
      <trkpt lat="47.83674" lon="6.98975">
        <ele>1004.23</ele>
        <time>2014-06-21T16:11:19Z</time>
      </trkpt>
      <trkpt lat="47.83675" lon="6.98974">
        <ele>1008.08</ele>
        <time>2014-06-21T16:11:20Z</time>
      </trkpt>
      <trkpt lat="47.83676" lon="6.98973">
        <ele>1003.27</ele>
        <time>2014-06-21T16:11:21Z</time>
      </trkpt>
      <trkpt lat="47.83678" lon="6.98972">
        <ele>1008.56</ele>
        <time>2014-06-21T16:11:22Z</time>
      </trkpt>
      <trkpt lat="47.8368" lon="6.98971">
        <ele>1009.52</ele>
        <time>2014-06-21T16:11:24Z</time>
      </trkpt>
      <trkpt lat="47.83683" lon="6.98968">
        <ele>1004.72</ele>
        <time>2014-06-21T16:11:26Z</time>
      </trkpt>
      <trkpt lat="47.83687" lon="6.98966">
        <ele>1008.56</ele>
        <time>2014-06-21T16:11:29Z</time>
      </trkpt>
      <trkpt lat="47.83693" lon="6.98963">
        <ele>1007.6</ele>
        <time>2014-06-21T16:11:33Z</time>
      </trkpt>
      <trkpt lat="47.83695" lon="6.98962">
        <ele>1003.27</ele>
        <time>2014-06-21T16:11:34Z</time>
      </trkpt>
      <trkpt lat="47.83696" lon="6.98962">
        <ele>1004.23</ele>
        <time>2014-06-21T16:11:35Z</time>
      </trkpt>
      <trkpt lat="47.83698" lon="6.98961">
        <ele>1008.08</ele>
        <time>2014-06-21T16:11:36Z</time>
      </trkpt>
      <trkpt lat="47.83701" lon="6.98961">
        <ele>1009.04</ele>
        <time>2014-06-21T16:11:38Z</time>
      </trkpt>
      <trkpt lat="47.83705" lon="6.98959">
        <ele>1004.72</ele>
        <time>2014-06-21T16:11:41Z</time>
      </trkpt>
      <trkpt lat="47.83706" lon="6.98958">
        <ele>1005.2</ele>
        <time>2014-06-21T16:11:42Z</time>
      </trkpt>
      <trkpt lat="47.83711" lon="6.98956">
        <ele>1010</ele>
        <time>2014-06-21T16:11:45Z</time>
      </trkpt>
      <trkpt lat="47.83712" lon="6.98956">
        <ele>1009.04</ele>
        <time>2014-06-21T16:11:46Z</time>
      </trkpt>
      <trkpt lat="47.83713" lon="6.98955">
        <ele>1004.72</ele>
        <time>2014-06-21T16:11:47Z</time>
      </trkpt>
      <trkpt lat="47.83716" lon="6.98954">
        <ele>999.91</ele>
        <time>2014-06-21T16:11:49Z</time>
      </trkpt>
      <trkpt lat="47.83718" lon="6.98952">
        <ele>1007.12</ele>
        <time>2014-06-21T16:11:51Z</time>
      </trkpt>
      <trkpt lat="47.83722" lon="6.9895">
        <ele>1001.83</ele>
        <time>2014-06-21T16:11:54Z</time>
      </trkpt>
      <trkpt lat="47.83725" lon="6.98948">
        <ele>996.54</ele>
        <time>2014-06-21T16:11:56Z</time>
      </trkpt>
      <trkpt lat="47.83726" lon="6.98948">
        <ele>1007.12</ele>
        <time>2014-06-21T16:11:57Z</time>
      </trkpt>
      <trkpt lat="47.83731" lon="6.98946">
        <ele>1001.83</ele>
        <time>2014-06-21T16:12:00Z</time>
      </trkpt>
      <trkpt lat="47.83732" lon="6.98945">
        <ele>998.95</ele>
        <time>2014-06-21T16:12:01Z</time>
      </trkpt>
      <trkpt lat="47.83735" lon="6.98943">
        <ele>1005.2</ele>
        <time>2014-06-21T16:12:03Z</time>
      </trkpt>
      <trkpt lat="47.83738" lon="6.98942">
        <ele>999.91</ele>
        <time>2014-06-21T16:12:05Z</time>
      </trkpt>
      <trkpt lat="47.83744" lon="6.9894">
        <ele>1005.68</ele>
        <time>2014-06-21T16:12:09Z</time>
      </trkpt>
      <trkpt lat="47.83749" lon="6.98941">
        <ele>1001.35</ele>
        <time>2014-06-21T16:12:12Z</time>
      </trkpt>
      <trkpt lat="47.8375" lon="6.98941">
        <ele>997.99</ele>
        <time>2014-06-21T16:12:13Z</time>
      </trkpt>
      <trkpt lat="47.83754" lon="6.98942">
        <ele>996.54</ele>
        <time>2014-06-21T16:12:15Z</time>
      </trkpt>
      <trkpt lat="47.83757" lon="6.98943">
        <ele>1000.87</ele>
        <time>2014-06-21T16:12:17Z</time>
      </trkpt>
      <trkpt lat="47.83762" lon="6.98945">
        <ele>997.51</ele>
        <time>2014-06-21T16:12:20Z</time>
      </trkpt>
      <trkpt lat="47.83766" lon="6.98947">
        <ele>1000.87</ele>
        <time>2014-06-21T16:12:23Z</time>
      </trkpt>
      <trkpt lat="47.83769" lon="6.98947">
        <ele>1004.23</ele>
        <time>2014-06-21T16:12:25Z</time>
      </trkpt>
      <trkpt lat="47.8377" lon="6.98948">
        <ele>1000.39</ele>
        <time>2014-06-21T16:12:26Z</time>
      </trkpt>
      <trkpt lat="47.83774" lon="6.98951">
        <ele>997.51</ele>
        <time>2014-06-21T16:12:29Z</time>
      </trkpt>
      <trkpt lat="47.83776" lon="6.98952">
        <ele>997.99</ele>
        <time>2014-06-21T16:12:30Z</time>
      </trkpt>
      <trkpt lat="47.83779" lon="6.98954">
        <ele>1002.31</ele>
        <time>2014-06-21T16:12:32Z</time>
      </trkpt>
      <trkpt lat="47.83785" lon="6.98957">
        <ele>998.95</ele>
        <time>2014-06-21T16:12:37Z</time>
      </trkpt>
      <trkpt lat="47.83789" lon="6.98958">
        <ele>995.1</ele>
        <time>2014-06-21T16:12:40Z</time>
      </trkpt>
      <trkpt lat="47.83792" lon="6.9896">
        <ele>993.66</ele>
        <time>2014-06-21T16:12:42Z</time>
      </trkpt>
      <trkpt lat="47.83794" lon="6.98961">
        <ele>999.43</ele>
        <time>2014-06-21T16:12:43Z</time>
      </trkpt>
      <trkpt lat="47.83795" lon="6.98962">
        <ele>1003.27</ele>
        <time>2014-06-21T16:12:44Z</time>
      </trkpt>
      <trkpt lat="47.83797" lon="6.98963">
        <ele>1002.31</ele>
        <time>2014-06-21T16:12:45Z</time>
      </trkpt>
      <trkpt lat="47.83798" lon="6.98964">
        <ele>996.06</ele>
        <time>2014-06-21T16:12:46Z</time>
      </trkpt>
      <trkpt lat="47.83803" lon="6.98967">
        <ele>999.91</ele>
        <time>2014-06-21T16:12:49Z</time>
      </trkpt>
      <trkpt lat="47.83808" lon="6.9897">
        <ele>994.14</ele>
        <time>2014-06-21T16:12:52Z</time>
      </trkpt>
      <trkpt lat="47.8381" lon="6.98971">
        <ele>990.78</ele>
        <time>2014-06-21T16:12:53Z</time>
      </trkpt>
      <trkpt lat="47.83811" lon="6.98972">
        <ele>997.99</ele>
        <time>2014-06-21T16:12:54Z</time>
      </trkpt>
      <trkpt lat="47.83816" lon="6.98974">
        <ele>994.62</ele>
        <time>2014-06-21T16:12:57Z</time>
      </trkpt>
      <trkpt lat="47.83818" lon="6.98975">
        <ele>993.66</ele>
        <time>2014-06-21T16:12:59Z</time>
      </trkpt>
      <trkpt lat="47.83819" lon="6.98976">
        <ele>997.99</ele>
        <time>2014-06-21T16:13:00Z</time>
      </trkpt>
      <trkpt lat="47.83821" lon="6.98976">
        <ele>997.99</ele>
        <time>2014-06-21T16:13:01Z</time>
      </trkpt>
      <trkpt lat="47.83825" lon="6.98978">
        <ele>996.54</ele>
        <time>2014-06-21T16:13:04Z</time>
      </trkpt>
      <trkpt lat="47.83826" lon="6.98978">
        <ele>991.74</ele>
        <time>2014-06-21T16:13:05Z</time>
      </trkpt>
      <trkpt lat="47.83828" lon="6.98979">
        <ele>993.66</ele>
        <time>2014-06-21T16:13:06Z</time>
      </trkpt>
      <trkpt lat="47.83831" lon="6.98979">
        <ele>998.47</ele>
        <time>2014-06-21T16:13:08Z</time>
      </trkpt>
      <trkpt lat="47.83837" lon="6.98978">
        <ele>992.7</ele>
        <time>2014-06-21T16:13:12Z</time>
      </trkpt>
      <trkpt lat="47.83838" lon="6.98977">
        <ele>997.02</ele>
        <time>2014-06-21T16:13:13Z</time>
      </trkpt>
      <trkpt lat="47.8384" lon="6.98976">
        <ele>997.02</ele>
        <time>2014-06-21T16:13:14Z</time>
      </trkpt>
      <trkpt lat="47.83843" lon="6.98975">
        <ele>993.66</ele>
        <time>2014-06-21T16:13:16Z</time>
      </trkpt>
      <trkpt lat="47.8385" lon="6.98971">
        <ele>997.99</ele>
        <time>2014-06-21T16:13:21Z</time>
      </trkpt>
      <trkpt lat="47.83852" lon="6.98971">
        <ele>997.02</ele>
        <time>2014-06-21T16:13:22Z</time>
      </trkpt>
      <trkpt lat="47.83855" lon="6.98968">
        <ele>992.7</ele>
        <time>2014-06-21T16:13:25Z</time>
      </trkpt>
      <trkpt lat="47.83859" lon="6.98964">
        <ele>995.58</ele>
        <time>2014-06-21T16:13:29Z</time>
      </trkpt>
      <trkpt lat="47.83864" lon="6.9896">
        <ele>990.3</ele>
        <time>2014-06-21T16:13:33Z</time>
      </trkpt>
      <trkpt lat="47.83865" lon="6.98959">
        <ele>985.97</ele>
        <time>2014-06-21T16:13:34Z</time>
      </trkpt>
      <trkpt lat="47.83866" lon="6.98958">
        <ele>989.33</ele>
        <time>2014-06-21T16:13:35Z</time>
      </trkpt>
      <trkpt lat="47.83867" lon="6.98956">
        <ele>993.18</ele>
        <time>2014-06-21T16:13:36Z</time>
      </trkpt>
      <trkpt lat="47.83872" lon="6.98951">
        <ele>987.41</ele>
        <time>2014-06-21T16:13:40Z</time>
      </trkpt>
      <trkpt lat="47.83874" lon="6.98949">
        <ele>988.37</ele>
        <time>2014-06-21T16:13:41Z</time>
      </trkpt>
      <trkpt lat="47.83876" lon="6.98947">
        <ele>993.66</ele>
        <time>2014-06-21T16:13:43Z</time>
      </trkpt>
      <trkpt lat="47.83881" lon="6.98945">
        <ele>987.41</ele>
        <time>2014-06-21T16:13:46Z</time>
      </trkpt>
      <trkpt lat="47.83883" lon="6.98944">
        <ele>983.09</ele>
        <time>2014-06-21T16:13:47Z</time>
      </trkpt>
      <trkpt lat="47.83884" lon="6.98943">
        <ele>990.3</ele>
        <time>2014-06-21T16:13:48Z</time>
      </trkpt>
      <trkpt lat="47.83885" lon="6.98942">
        <ele>994.14</ele>
        <time>2014-06-21T16:13:49Z</time>
      </trkpt>
      <trkpt lat="47.83887" lon="6.98941">
        <ele>991.74</ele>
        <time>2014-06-21T16:13:50Z</time>
      </trkpt>
      <trkpt lat="47.8389" lon="6.98939">
        <ele>985.01</ele>
        <time>2014-06-21T16:13:52Z</time>
      </trkpt>
      <trkpt lat="47.83891" lon="6.98939">
        <ele>987.89</ele>
        <time>2014-06-21T16:13:53Z</time>
      </trkpt>
      <trkpt lat="47.83893" lon="6.98938">
        <ele>992.22</ele>
        <time>2014-06-21T16:13:54Z</time>
      </trkpt>
      <trkpt lat="47.83897" lon="6.98936">
        <ele>987.41</ele>
        <time>2014-06-21T16:13:57Z</time>
      </trkpt>
      <trkpt lat="47.83899" lon="6.98935">
        <ele>983.57</ele>
        <time>2014-06-21T16:13:58Z</time>
      </trkpt>
      <trkpt lat="47.839" lon="6.98935">
        <ele>984.53</ele>
        <time>2014-06-21T16:13:59Z</time>
      </trkpt>
      <trkpt lat="47.83902" lon="6.98934">
        <ele>990.78</ele>
        <time>2014-06-21T16:14:00Z</time>
      </trkpt>
      <trkpt lat="47.83905" lon="6.98934">
        <ele>991.26</ele>
        <time>2014-06-21T16:14:02Z</time>
      </trkpt>
      <trkpt lat="47.83908" lon="6.98935">
        <ele>986.45</ele>
        <time>2014-06-21T16:14:04Z</time>
      </trkpt>
      <trkpt lat="47.83916" lon="6.98936">
        <ele>992.22</ele>
        <time>2014-06-21T16:14:09Z</time>
      </trkpt>
      <trkpt lat="47.83917" lon="6.98936">
        <ele>991.74</ele>
        <time>2014-06-21T16:14:10Z</time>
      </trkpt>
      <trkpt lat="47.83922" lon="6.98938">
        <ele>988.85</ele>
        <time>2014-06-21T16:14:14Z</time>
      </trkpt>
      <trkpt lat="47.83925" lon="6.98938">
        <ele>984.05</ele>
        <time>2014-06-21T16:14:16Z</time>
      </trkpt>
      <trkpt lat="47.83929" lon="6.98938">
        <ele>988.85</ele>
        <time>2014-06-21T16:14:19Z</time>
      </trkpt>
      <trkpt lat="47.83931" lon="6.98938">
        <ele>990.3</ele>
        <time>2014-06-21T16:14:21Z</time>
      </trkpt>
      <trkpt lat="47.83932" lon="6.98938">
        <ele>986.93</ele>
        <time>2014-06-21T16:14:22Z</time>
      </trkpt>
      <trkpt lat="47.83933" lon="6.98938">
        <ele>982.6</ele>
        <time>2014-06-21T16:14:23Z</time>
      </trkpt>
      <trkpt lat="47.83937" lon="6.9894">
        <ele>987.89</ele>
        <time>2014-06-21T16:14:26Z</time>
      </trkpt>
      <trkpt lat="47.83942" lon="6.98941">
        <ele>985.01</ele>
        <time>2014-06-21T16:14:29Z</time>
      </trkpt>
      <trkpt lat="47.83946" lon="6.98941">
        <ele>981.64</ele>
        <time>2014-06-21T16:14:31Z</time>
      </trkpt>
      <trkpt lat="47.83947" lon="6.98942">
        <ele>981.64</ele>
        <time>2014-06-21T16:14:32Z</time>
      </trkpt>
      <trkpt lat="47.83949" lon="6.98942">
        <ele>986.93</ele>
        <time>2014-06-21T16:14:33Z</time>
      </trkpt>
      <trkpt lat="47.83952" lon="6.98943">
        <ele>988.85</ele>
        <time>2014-06-21T16:14:35Z</time>
      </trkpt>
      <trkpt lat="47.83955" lon="6.98944">
        <ele>985.97</ele>
        <time>2014-06-21T16:14:37Z</time>
      </trkpt>
      <trkpt lat="47.83957" lon="6.98945">
        <ele>981.64</ele>
        <time>2014-06-21T16:14:39Z</time>
      </trkpt>
      <trkpt lat="47.83963" lon="6.98945">
        <ele>988.37</ele>
        <time>2014-06-21T16:14:43Z</time>
      </trkpt>
      <trkpt lat="47.83965" lon="6.98946">
        <ele>987.89</ele>
        <time>2014-06-21T16:14:44Z</time>
      </trkpt>
      <trkpt lat="47.83968" lon="6.98946">
        <ele>984.53</ele>
        <time>2014-06-21T16:14:46Z</time>
      </trkpt>
      <trkpt lat="47.83971" lon="6.98945">
        <ele>980.68</ele>
        <time>2014-06-21T16:14:48Z</time>
      </trkpt>
      <trkpt lat="47.83973" lon="6.98945">
        <ele>984.05</ele>
        <time>2014-06-21T16:14:49Z</time>
      </trkpt>
      <trkpt lat="47.83974" lon="6.98944">
        <ele>983.57</ele>
        <time>2014-06-21T16:14:50Z</time>
      </trkpt>
      <trkpt lat="47.83977" lon="6.98944">
        <ele>988.37</ele>
        <time>2014-06-21T16:14:52Z</time>
      </trkpt>
      <trkpt lat="47.8398" lon="6.98942">
        <ele>984.05</ele>
        <time>2014-06-21T16:14:55Z</time>
      </trkpt>
      <trkpt lat="47.83982" lon="6.98942">
        <ele>979.72</ele>
        <time>2014-06-21T16:14:56Z</time>
      </trkpt>
      <trkpt lat="47.83984" lon="6.98941">
        <ele>982.6</ele>
        <time>2014-06-21T16:14:58Z</time>
      </trkpt>
      <trkpt lat="47.83989" lon="6.9894">
        <ele>987.89</ele>
        <time>2014-06-21T16:15:01Z</time>
      </trkpt>
      <trkpt lat="47.83992" lon="6.98939">
        <ele>983.57</ele>
        <time>2014-06-21T16:15:03Z</time>
      </trkpt>
      <trkpt lat="47.83993" lon="6.98938">
        <ele>978.28</ele>
        <time>2014-06-21T16:15:04Z</time>
      </trkpt>
      <trkpt lat="47.83995" lon="6.98938">
        <ele>979.72</ele>
        <time>2014-06-21T16:15:05Z</time>
      </trkpt>
      <trkpt lat="47.83998" lon="6.98936">
        <ele>983.09</ele>
        <time>2014-06-21T16:15:07Z</time>
      </trkpt>
      <trkpt lat="47.84002" lon="6.98934">
        <ele>987.41</ele>
        <time>2014-06-21T16:15:10Z</time>
      </trkpt>
      <trkpt lat="47.84003" lon="6.98933">
        <ele>983.57</ele>
        <time>2014-06-21T16:15:11Z</time>
      </trkpt>
      <trkpt lat="47.84011" lon="6.98929">
        <ele>978.76</ele>
        <time>2014-06-21T16:15:17Z</time>
      </trkpt>
      <trkpt lat="47.84012" lon="6.98929">
        <ele>979.24</ele>
        <time>2014-06-21T16:15:18Z</time>
      </trkpt>
      <trkpt lat="47.84021" lon="6.98926">
        <ele>979.72</ele>
        <time>2014-06-21T16:15:24Z</time>
      </trkpt>
      <trkpt lat="47.84022" lon="6.98925">
        <ele>983.09</ele>
        <time>2014-06-21T16:15:25Z</time>
      </trkpt>
      <trkpt lat="47.84029" lon="6.98921">
        <ele>982.6</ele>
        <time>2014-06-21T16:15:39Z</time>
      </trkpt>
      <trkpt lat="47.84028" lon="6.9892">
        <ele>985.97</ele>
        <time>2014-06-21T16:15:45Z</time>
      </trkpt>
      <trkpt lat="47.84028" lon="6.9892">
        <ele>982.12</ele>
        <time>2014-06-21T16:15:46Z</time>
      </trkpt>
      <trkpt lat="47.8403" lon="6.98925">
        <ele>982.6</ele>
        <time>2014-06-21T16:16:01Z</time>
      </trkpt>
      <trkpt lat="47.84029" lon="6.98927">
        <ele>982.12</ele>
        <time>2014-06-21T16:16:29Z</time>
      </trkpt>
      <trkpt lat="47.8403" lon="6.98927">
        <ele>982.12</ele>
        <time>2014-06-21T16:18:30Z</time>
      </trkpt>
      <trkpt lat="47.84031" lon="6.98924">
        <ele>982.6</ele>
        <time>2014-06-21T16:19:58Z</time>
      </trkpt>
      <trkpt lat="47.84031" lon="6.98924">
        <ele>978.76</ele>
        <time>2014-06-21T16:20:01Z</time>
      </trkpt>
      <trkpt lat="47.84031" lon="6.98924">
        <ele>982.12</ele>
        <time>2014-06-21T16:20:04Z</time>
      </trkpt>
      <trkpt lat="47.84031" lon="6.98924">
        <ele>985.49</ele>
        <time>2014-06-21T16:20:06Z</time>
      </trkpt>
      <trkpt lat="47.84031" lon="6.98924">
        <ele>982.12</ele>
        <time>2014-06-21T16:20:07Z</time>
      </trkpt>
      <trkpt lat="47.8403" lon="6.98915">
        <ele>983.57</ele>
        <time>2014-06-21T16:20:22Z</time>
      </trkpt>
      <trkpt lat="47.84031" lon="6.98911">
        <ele>982.6</ele>
        <time>2014-06-21T16:20:24Z</time>
      </trkpt>
      <trkpt lat="47.84032" lon="6.989">
        <ele>977.32</ele>
        <time>2014-06-21T16:20:31Z</time>
      </trkpt>
      <trkpt lat="47.84032" lon="6.98898">
        <ele>981.16</ele>
        <time>2014-06-21T16:20:32Z</time>
      </trkpt>
      <trkpt lat="47.84032" lon="6.98891">
        <ele>984.05</ele>
        <time>2014-06-21T16:20:35Z</time>
      </trkpt>
      <trkpt lat="47.84032" lon="6.98887">
        <ele>985.49</ele>
        <time>2014-06-21T16:20:37Z</time>
      </trkpt>
      <trkpt lat="47.84032" lon="6.98883">
        <ele>982.12</ele>
        <time>2014-06-21T16:20:39Z</time>
      </trkpt>
      <trkpt lat="47.84032" lon="6.9887">
        <ele>982.12</ele>
        <time>2014-06-21T16:20:48Z</time>
      </trkpt>
      <trkpt lat="47.84035" lon="6.98866">
        <ele>980.2</ele>
        <time>2014-06-21T16:20:51Z</time>
      </trkpt>
      <trkpt lat="47.84037" lon="6.98863">
        <ele>983.09</ele>
        <time>2014-06-21T16:20:55Z</time>
      </trkpt>
      <trkpt lat="47.84037" lon="6.98862">
        <ele>978.28</ele>
        <time>2014-06-21T16:21:07Z</time>
      </trkpt>
      <trkpt lat="47.84038" lon="6.98862">
        <ele>983.57</ele>
        <time>2014-06-21T16:21:08Z</time>
      </trkpt>
      <trkpt lat="47.84041" lon="6.98861">
        <ele>979.24</ele>
        <time>2014-06-21T16:21:15Z</time>
      </trkpt>
      <trkpt lat="47.84042" lon="6.9886">
        <ele>984.53</ele>
        <time>2014-06-21T16:21:16Z</time>
      </trkpt>
      <trkpt lat="47.84043" lon="6.9886">
        <ele>982.12</ele>
        <time>2014-06-21T16:21:17Z</time>
      </trkpt>
      <trkpt lat="47.84052" lon="6.98853">
        <ele>980.68</ele>
        <time>2014-06-21T16:21:25Z</time>
      </trkpt>
      <trkpt lat="47.84054" lon="6.9885">
        <ele>977.8</ele>
        <time>2014-06-21T16:21:27Z</time>
      </trkpt>
      <trkpt lat="47.84057" lon="6.98847">
        <ele>974.43</ele>
        <time>2014-06-21T16:21:29Z</time>
      </trkpt>
      <trkpt lat="47.84058" lon="6.98845">
        <ele>978.76</ele>
        <time>2014-06-21T16:21:30Z</time>
      </trkpt>
      <trkpt lat="47.84059" lon="6.98843">
        <ele>983.57</ele>
        <time>2014-06-21T16:21:31Z</time>
      </trkpt>
      <trkpt lat="47.8406" lon="6.98842">
        <ele>983.09</ele>
        <time>2014-06-21T16:21:32Z</time>
      </trkpt>
      <trkpt lat="47.84063" lon="6.98839">
        <ele>978.28</ele>
        <time>2014-06-21T16:21:35Z</time>
      </trkpt>
      <trkpt lat="47.84066" lon="6.98838">
        <ele>976.84</ele>
        <time>2014-06-21T16:21:37Z</time>
      </trkpt>
      <trkpt lat="47.8407" lon="6.98832">
        <ele>982.6</ele>
        <time>2014-06-21T16:21:41Z</time>
      </trkpt>
      <trkpt lat="47.84071" lon="6.9883">
        <ele>978.28</ele>
        <time>2014-06-21T16:21:42Z</time>
      </trkpt>
      <trkpt lat="47.84074" lon="6.98824">
        <ele>981.64</ele>
        <time>2014-06-21T16:21:46Z</time>
      </trkpt>
      <trkpt lat="47.84075" lon="6.98823">
        <ele>977.8</ele>
        <time>2014-06-21T16:21:47Z</time>
      </trkpt>
      <trkpt lat="47.84076" lon="6.98819">
        <ele>981.16</ele>
        <time>2014-06-21T16:21:49Z</time>
      </trkpt>
      <trkpt lat="47.84082" lon="6.98809">
        <ele>978.28</ele>
        <time>2014-06-21T16:21:55Z</time>
      </trkpt>
      <trkpt lat="47.84084" lon="6.98802">
        <ele>972.99</ele>
        <time>2014-06-21T16:21:59Z</time>
      </trkpt>
      <trkpt lat="47.84086" lon="6.98794">
        <ele>980.68</ele>
        <time>2014-06-21T16:22:03Z</time>
      </trkpt>
      <trkpt lat="47.84086" lon="6.98784">
        <ele>976.36</ele>
        <time>2014-06-21T16:22:07Z</time>
      </trkpt>
      <trkpt lat="47.84087" lon="6.98781">
        <ele>972.99</ele>
        <time>2014-06-21T16:22:09Z</time>
      </trkpt>
      <trkpt lat="47.84089" lon="6.98773">
        <ele>978.28</ele>
        <time>2014-06-21T16:22:13Z</time>
      </trkpt>
      <trkpt lat="47.84089" lon="6.98772">
        <ele>981.64</ele>
        <time>2014-06-21T16:22:14Z</time>
      </trkpt>
      <trkpt lat="47.84089" lon="6.98769">
        <ele>981.64</ele>
        <time>2014-06-21T16:22:15Z</time>
      </trkpt>
      <trkpt lat="47.84089" lon="6.98767">
        <ele>978.76</ele>
        <time>2014-06-21T16:22:16Z</time>
      </trkpt>
      <trkpt lat="47.84089" lon="6.98764">
        <ele>980.68</ele>
        <time>2014-06-21T16:22:17Z</time>
      </trkpt>
      <trkpt lat="47.84089" lon="6.9876">
        <ele>975.88</ele>
        <time>2014-06-21T16:22:19Z</time>
      </trkpt>
      <trkpt lat="47.84091" lon="6.98754">
        <ele>973.47</ele>
        <time>2014-06-21T16:22:22Z</time>
      </trkpt>
      <trkpt lat="47.84091" lon="6.98749">
        <ele>976.36</ele>
        <time>2014-06-21T16:22:24Z</time>
      </trkpt>
      <trkpt lat="47.84091" lon="6.98745">
        <ele>981.16</ele>
        <time>2014-06-21T16:22:26Z</time>
      </trkpt>
      <trkpt lat="47.8409" lon="6.9874">
        <ele>975.39</ele>
        <time>2014-06-21T16:22:28Z</time>
      </trkpt>
      <trkpt lat="47.84091" lon="6.98736">
        <ele>972.51</ele>
        <time>2014-06-21T16:22:30Z</time>
      </trkpt>
      <trkpt lat="47.84092" lon="6.98729">
        <ele>980.2</ele>
        <time>2014-06-21T16:22:33Z</time>
      </trkpt>
      <trkpt lat="47.84093" lon="6.98726">
        <ele>981.16</ele>
        <time>2014-06-21T16:22:35Z</time>
      </trkpt>
      <trkpt lat="47.84093" lon="6.98719">
        <ele>976.84</ele>
        <time>2014-06-21T16:22:38Z</time>
      </trkpt>
      <trkpt lat="47.84093" lon="6.98715">
        <ele>975.39</ele>
        <time>2014-06-21T16:22:40Z</time>
      </trkpt>
      <trkpt lat="47.84095" lon="6.98696">
        <ele>975.39</ele>
        <time>2014-06-21T16:22:49Z</time>
      </trkpt>
      <trkpt lat="47.84095" lon="6.98692">
        <ele>970.11</ele>
        <time>2014-06-21T16:22:51Z</time>
      </trkpt>
      <trkpt lat="47.84096" lon="6.98685">
        <ele>975.88</ele>
        <time>2014-06-21T16:22:54Z</time>
      </trkpt>
      <trkpt lat="47.84097" lon="6.98683">
        <ele>975.39</ele>
        <time>2014-06-21T16:22:55Z</time>
      </trkpt>
      <trkpt lat="47.84101" lon="6.98666">
        <ele>977.32</ele>
        <time>2014-06-21T16:23:04Z</time>
      </trkpt>
      <trkpt lat="47.84103" lon="6.9866">
        <ele>973.95</ele>
        <time>2014-06-21T16:23:07Z</time>
      </trkpt>
      <trkpt lat="47.84108" lon="6.98651">
        <ele>977.8</ele>
        <time>2014-06-21T16:23:13Z</time>
      </trkpt>
      <trkpt lat="47.84108" lon="6.9865">
        <ele>977.8</ele>
        <time>2014-06-21T16:23:14Z</time>
      </trkpt>
      <trkpt lat="47.84112" lon="6.98643">
        <ele>974.91</ele>
        <time>2014-06-21T16:23:18Z</time>
      </trkpt>
      <trkpt lat="47.84113" lon="6.9864">
        <ele>973.95</ele>
        <time>2014-06-21T16:23:20Z</time>
      </trkpt>
      <trkpt lat="47.84115" lon="6.98636">
        <ele>971.55</ele>
        <time>2014-06-21T16:23:22Z</time>
      </trkpt>
      <trkpt lat="47.84117" lon="6.98633">
        <ele>972.99</ele>
        <time>2014-06-21T16:23:24Z</time>
      </trkpt>
      <trkpt lat="47.84129" lon="6.9861">
        <ele>977.8</ele>
        <time>2014-06-21T16:23:38Z</time>
      </trkpt>
      <trkpt lat="47.84131" lon="6.98608">
        <ele>980.68</ele>
        <time>2014-06-21T16:23:40Z</time>
      </trkpt>
      <trkpt lat="47.84132" lon="6.98607">
        <ele>980.68</ele>
        <time>2014-06-21T16:23:41Z</time>
      </trkpt>
      <trkpt lat="47.84135" lon="6.98604">
        <ele>977.32</ele>
        <time>2014-06-21T16:23:43Z</time>
      </trkpt>
      <trkpt lat="47.84138" lon="6.98599">
        <ele>972.51</ele>
        <time>2014-06-21T16:23:46Z</time>
      </trkpt>
      <trkpt lat="47.84139" lon="6.98598">
        <ele>972.99</ele>
        <time>2014-06-21T16:23:47Z</time>
      </trkpt>
      <trkpt lat="47.84141" lon="6.98595">
        <ele>975.39</ele>
        <time>2014-06-21T16:23:50Z</time>
      </trkpt>
      <trkpt lat="47.84143" lon="6.98593">
        <ele>973.47</ele>
        <time>2014-06-21T16:23:52Z</time>
      </trkpt>
      <trkpt lat="47.8415" lon="6.98581">
        <ele>968.67</ele>
        <time>2014-06-21T16:24:00Z</time>
      </trkpt>
      <trkpt lat="47.84151" lon="6.98579">
        <ele>969.15</ele>
        <time>2014-06-21T16:24:01Z</time>
      </trkpt>
      <trkpt lat="47.84154" lon="6.98573">
        <ele>972.99</ele>
        <time>2014-06-21T16:24:05Z</time>
      </trkpt>
      <trkpt lat="47.84156" lon="6.98569">
        <ele>977.32</ele>
        <time>2014-06-21T16:24:07Z</time>
      </trkpt>
      <trkpt lat="47.84158" lon="6.98565">
        <ele>977.8</ele>
        <time>2014-06-21T16:24:09Z</time>
      </trkpt>
      <trkpt lat="47.84159" lon="6.98557">
        <ele>974.43</ele>
        <time>2014-06-21T16:24:13Z</time>
      </trkpt>
      <trkpt lat="47.84159" lon="6.98552">
        <ele>970.11</ele>
        <time>2014-06-21T16:24:16Z</time>
      </trkpt>
      <trkpt lat="47.84159" lon="6.98547">
        <ele>968.67</ele>
        <time>2014-06-21T16:24:18Z</time>
      </trkpt>
      <trkpt lat="47.84158" lon="6.98538">
        <ele>974.91</ele>
        <time>2014-06-21T16:24:22Z</time>
      </trkpt>
      <trkpt lat="47.84158" lon="6.98534">
        <ele>977.32</ele>
        <time>2014-06-21T16:24:24Z</time>
      </trkpt>
      <trkpt lat="47.84158" lon="6.98532">
        <ele>973.95</ele>
        <time>2014-06-21T16:24:25Z</time>
      </trkpt>
      <trkpt lat="47.84159" lon="6.98528">
        <ele>972.03</ele>
        <time>2014-06-21T16:24:27Z</time>
      </trkpt>
      <trkpt lat="47.84157" lon="6.98507">
        <ele>975.39</ele>
        <time>2014-06-21T16:24:36Z</time>
      </trkpt>
      <trkpt lat="47.84157" lon="6.98505">
        <ele>974.91</ele>
        <time>2014-06-21T16:24:37Z</time>
      </trkpt>
      <trkpt lat="47.84156" lon="6.98501">
        <ele>970.11</ele>
        <time>2014-06-21T16:24:39Z</time>
      </trkpt>
      <trkpt lat="47.84156" lon="6.98496">
        <ele>965.78</ele>
        <time>2014-06-21T16:24:41Z</time>
      </trkpt>
      <trkpt lat="47.84156" lon="6.98494">
        <ele>967.7</ele>
        <time>2014-06-21T16:24:42Z</time>
      </trkpt>
      <trkpt lat="47.84157" lon="6.98486">
        <ele>970.11</ele>
        <time>2014-06-21T16:24:46Z</time>
      </trkpt>
      <trkpt lat="47.84156" lon="6.98482">
        <ele>974.43</ele>
        <time>2014-06-21T16:24:48Z</time>
      </trkpt>
      <trkpt lat="47.84156" lon="6.9848">
        <ele>972.03</ele>
        <time>2014-06-21T16:24:49Z</time>
      </trkpt>
      <trkpt lat="47.84155" lon="6.98476">
        <ele>974.43</ele>
        <time>2014-06-21T16:24:52Z</time>
      </trkpt>
      <trkpt lat="47.84154" lon="6.98474">
        <ele>971.07</ele>
        <time>2014-06-21T16:24:53Z</time>
      </trkpt>
      <trkpt lat="47.84154" lon="6.98472">
        <ele>974.43</ele>
        <time>2014-06-21T16:24:54Z</time>
      </trkpt>
      <trkpt lat="47.84153" lon="6.98467">
        <ele>969.15</ele>
        <time>2014-06-21T16:24:57Z</time>
      </trkpt>
      <trkpt lat="47.84153" lon="6.98464">
        <ele>973.95</ele>
        <time>2014-06-21T16:24:59Z</time>
      </trkpt>
      <trkpt lat="47.84153" lon="6.98454">
        <ele>968.67</ele>
        <time>2014-06-21T16:25:05Z</time>
      </trkpt>
      <trkpt lat="47.84152" lon="6.98453">
        <ele>970.59</ele>
        <time>2014-06-21T16:25:06Z</time>
      </trkpt>
      <trkpt lat="47.84152" lon="6.98451">
        <ele>976.84</ele>
        <time>2014-06-21T16:25:07Z</time>
      </trkpt>
      <trkpt lat="47.84151" lon="6.98449">
        <ele>969.15</ele>
        <time>2014-06-21T16:25:08Z</time>
      </trkpt>
      <trkpt lat="47.84151" lon="6.98445">
        <ele>973.47</ele>
        <time>2014-06-21T16:25:10Z</time>
      </trkpt>
      <trkpt lat="47.84149" lon="6.9844">
        <ele>969.15</ele>
        <time>2014-06-21T16:25:13Z</time>
      </trkpt>
      <trkpt lat="47.84148" lon="6.98438">
        <ele>972.99</ele>
        <time>2014-06-21T16:25:14Z</time>
      </trkpt>
      <trkpt lat="47.84147" lon="6.98436">
        <ele>977.8</ele>
        <time>2014-06-21T16:25:16Z</time>
      </trkpt>
      <trkpt lat="47.84146" lon="6.98434">
        <ele>974.91</ele>
        <time>2014-06-21T16:25:17Z</time>
      </trkpt>
      <trkpt lat="47.84145" lon="6.98432">
        <ele>970.59</ele>
        <time>2014-06-21T16:25:19Z</time>
      </trkpt>
      <trkpt lat="47.84143" lon="6.98429">
        <ele>974.91</ele>
        <time>2014-06-21T16:25:21Z</time>
      </trkpt>
      <trkpt lat="47.84142" lon="6.98427">
        <ele>978.28</ele>
        <time>2014-06-21T16:25:23Z</time>
      </trkpt>
      <trkpt lat="47.8414" lon="6.98426">
        <ele>973.95</ele>
        <time>2014-06-21T16:25:24Z</time>
      </trkpt>
      <trkpt lat="47.84139" lon="6.98424">
        <ele>970.11</ele>
        <time>2014-06-21T16:25:25Z</time>
      </trkpt>
      <trkpt lat="47.84139" lon="6.98423">
        <ele>974.91</ele>
        <time>2014-06-21T16:25:26Z</time>
      </trkpt>
      <trkpt lat="47.84137" lon="6.98421">
        <ele>978.28</ele>
        <time>2014-06-21T16:25:28Z</time>
      </trkpt>
      <trkpt lat="47.84136" lon="6.98419">
        <ele>972.99</ele>
        <time>2014-06-21T16:25:29Z</time>
      </trkpt>
      <trkpt lat="47.84133" lon="6.98416">
        <ele>978.76</ele>
        <time>2014-06-21T16:25:32Z</time>
      </trkpt>
      <trkpt lat="47.8413" lon="6.98413">
        <ele>972.03</ele>
        <time>2014-06-21T16:25:35Z</time>
      </trkpt>
      <trkpt lat="47.84129" lon="6.98413">
        <ele>976.84</ele>
        <time>2014-06-21T16:25:36Z</time>
      </trkpt>
      <trkpt lat="47.84126" lon="6.98408">
        <ele>974.43</ele>
        <time>2014-06-21T16:25:40Z</time>
      </trkpt>
      <trkpt lat="47.84125" lon="6.98407">
        <ele>978.76</ele>
        <time>2014-06-21T16:25:41Z</time>
      </trkpt>
      <trkpt lat="47.84122" lon="6.98405">
        <ele>973.47</ele>
        <time>2014-06-21T16:25:44Z</time>
      </trkpt>
      <trkpt lat="47.84121" lon="6.98404">
        <ele>977.8</ele>
        <time>2014-06-21T16:25:45Z</time>
      </trkpt>
      <trkpt lat="47.84119" lon="6.98402">
        <ele>978.76</ele>
        <time>2014-06-21T16:25:47Z</time>
      </trkpt>
      <trkpt lat="47.84119" lon="6.984">
        <ele>977.8</ele>
        <time>2014-06-21T16:25:49Z</time>
      </trkpt>
      <trkpt lat="47.84118" lon="6.98399">
        <ele>981.16</ele>
        <time>2014-06-21T16:25:50Z</time>
      </trkpt>
      <trkpt lat="47.84118" lon="6.98398">
        <ele>980.2</ele>
        <time>2014-06-21T16:25:51Z</time>
      </trkpt>
      <trkpt lat="47.84118" lon="6.98397">
        <ele>976.84</ele>
        <time>2014-06-21T16:25:52Z</time>
      </trkpt>
      <trkpt lat="47.84118" lon="6.98396">
        <ele>982.12</ele>
        <time>2014-06-21T16:25:53Z</time>
      </trkpt>
      <trkpt lat="47.84118" lon="6.98395">
        <ele>979.24</ele>
        <time>2014-06-21T16:25:54Z</time>
      </trkpt>
      <trkpt lat="47.84117" lon="6.98392">
        <ele>977.32</ele>
        <time>2014-06-21T16:25:56Z</time>
      </trkpt>
      <trkpt lat="47.84116" lon="6.9839">
        <ele>977.32</ele>
        <time>2014-06-21T16:25:57Z</time>
      </trkpt>
      <trkpt lat="47.84114" lon="6.98377">
        <ele>981.64</ele>
        <time>2014-06-21T16:26:04Z</time>
      </trkpt>
      <trkpt lat="47.84114" lon="6.98369">
        <ele>977.8</ele>
        <time>2014-06-21T16:26:08Z</time>
      </trkpt>
      <trkpt lat="47.84114" lon="6.98367">
        <ele>978.76</ele>
        <time>2014-06-21T16:26:09Z</time>
      </trkpt>
      <trkpt lat="47.84111" lon="6.98345">
        <ele>980.2</ele>
        <time>2014-06-21T16:26:21Z</time>
      </trkpt>
      <trkpt lat="47.84111" lon="6.98341">
        <ele>978.76</ele>
        <time>2014-06-21T16:26:23Z</time>
      </trkpt>
      <trkpt lat="47.84111" lon="6.98337">
        <ele>977.8</ele>
        <time>2014-06-21T16:26:25Z</time>
      </trkpt>
      <trkpt lat="47.84108" lon="6.9833">
        <ele>981.16</ele>
        <time>2014-06-21T16:26:29Z</time>
      </trkpt>
      <trkpt lat="47.84107" lon="6.98328">
        <ele>974.91</ele>
        <time>2014-06-21T16:26:30Z</time>
      </trkpt>
      <trkpt lat="47.84107" lon="6.98326">
        <ele>981.64</ele>
        <time>2014-06-21T16:26:31Z</time>
      </trkpt>
      <trkpt lat="47.84108" lon="6.98322">
        <ele>977.32</ele>
        <time>2014-06-21T16:26:33Z</time>
      </trkpt>
      <trkpt lat="47.84107" lon="6.98319">
        <ele>981.16</ele>
        <time>2014-06-21T16:26:34Z</time>
      </trkpt>
      <trkpt lat="47.84107" lon="6.98315">
        <ele>977.32</ele>
        <time>2014-06-21T16:26:36Z</time>
      </trkpt>
      <trkpt lat="47.84106" lon="6.98314">
        <ele>977.8</ele>
        <time>2014-06-21T16:26:37Z</time>
      </trkpt>
      <trkpt lat="47.84111" lon="6.98299">
        <ele>981.64</ele>
        <time>2014-06-21T16:26:44Z</time>
      </trkpt>
      <trkpt lat="47.84111" lon="6.98296">
        <ele>980.2</ele>
        <time>2014-06-21T16:26:45Z</time>
      </trkpt>
      <trkpt lat="47.8411" lon="6.98291">
        <ele>974.91</ele>
        <time>2014-06-21T16:26:47Z</time>
      </trkpt>
      <trkpt lat="47.84109" lon="6.98285">
        <ele>973.47</ele>
        <time>2014-06-21T16:26:49Z</time>
      </trkpt>
      <trkpt lat="47.84108" lon="6.98282">
        <ele>971.55</ele>
        <time>2014-06-21T16:26:51Z</time>
      </trkpt>
      <trkpt lat="47.84108" lon="6.98278">
        <ele>975.39</ele>
        <time>2014-06-21T16:26:53Z</time>
      </trkpt>
      <trkpt lat="47.84109" lon="6.98275">
        <ele>978.76</ele>
        <time>2014-06-21T16:26:55Z</time>
      </trkpt>
      <trkpt lat="47.84109" lon="6.98273">
        <ele>978.28</ele>
        <time>2014-06-21T16:26:56Z</time>
      </trkpt>
      <trkpt lat="47.8411" lon="6.98266">
        <ele>973.95</ele>
        <time>2014-06-21T16:26:59Z</time>
      </trkpt>
      <trkpt lat="47.84113" lon="6.98251">
        <ele>970.11</ele>
        <time>2014-06-21T16:27:07Z</time>
      </trkpt>
      <trkpt lat="47.84114" lon="6.98249">
        <ele>971.07</ele>
        <time>2014-06-21T16:27:08Z</time>
      </trkpt>
      <trkpt lat="47.84114" lon="6.98243">
        <ele>974.43</ele>
        <time>2014-06-21T16:27:11Z</time>
      </trkpt>
      <trkpt lat="47.84114" lon="6.98241">
        <ele>973.95</ele>
        <time>2014-06-21T16:27:12Z</time>
      </trkpt>
      <trkpt lat="47.84113" lon="6.98235">
        <ele>977.32</ele>
        <time>2014-06-21T16:27:15Z</time>
      </trkpt>
      <trkpt lat="47.84113" lon="6.98233">
        <ele>976.84</ele>
        <time>2014-06-21T16:27:16Z</time>
      </trkpt>
      <trkpt lat="47.84114" lon="6.98231">
        <ele>971.07</ele>
        <time>2014-06-21T16:27:17Z</time>
      </trkpt>
      <trkpt lat="47.84114" lon="6.9823">
        <ele>972.99</ele>
        <time>2014-06-21T16:27:18Z</time>
      </trkpt>
      <trkpt lat="47.84112" lon="6.98221">
        <ele>976.36</ele>
        <time>2014-06-21T16:27:22Z</time>
      </trkpt>
      <trkpt lat="47.8411" lon="6.98216">
        <ele>978.76</ele>
        <time>2014-06-21T16:27:25Z</time>
      </trkpt>
      <trkpt lat="47.84109" lon="6.98212">
        <ele>981.16</ele>
        <time>2014-06-21T16:27:27Z</time>
      </trkpt>
      <trkpt lat="47.84109" lon="6.98207">
        <ele>977.8</ele>
        <time>2014-06-21T16:27:31Z</time>
      </trkpt>
      <trkpt lat="47.84109" lon="6.982">
        <ele>981.64</ele>
        <time>2014-06-21T16:27:34Z</time>
      </trkpt>
      <trkpt lat="47.84107" lon="6.98189">
        <ele>978.28</ele>
        <time>2014-06-21T16:27:41Z</time>
      </trkpt>
      <trkpt lat="47.84106" lon="6.98187">
        <ele>974.91</ele>
        <time>2014-06-21T16:27:42Z</time>
      </trkpt>
      <trkpt lat="47.84105" lon="6.98185">
        <ele>978.28</ele>
        <time>2014-06-21T16:27:43Z</time>
      </trkpt>
      <trkpt lat="47.84103" lon="6.98179">
        <ele>982.12</ele>
        <time>2014-06-21T16:27:46Z</time>
      </trkpt>
      <trkpt lat="47.84103" lon="6.98176">
        <ele>978.76</ele>
        <time>2014-06-21T16:27:47Z</time>
      </trkpt>
      <trkpt lat="47.84099" lon="6.98167">
        <ele>974.43</ele>
        <time>2014-06-21T16:27:52Z</time>
      </trkpt>
      <trkpt lat="47.84097" lon="6.98163">
        <ele>977.8</ele>
        <time>2014-06-21T16:27:55Z</time>
      </trkpt>
      <trkpt lat="47.84096" lon="6.98162">
        <ele>973.47</ele>
        <time>2014-06-21T16:27:56Z</time>
      </trkpt>
      <trkpt lat="47.84095" lon="6.98161">
        <ele>976.84</ele>
        <time>2014-06-21T16:27:57Z</time>
      </trkpt>
      <trkpt lat="47.84094" lon="6.98153">
        <ele>979.24</ele>
        <time>2014-06-21T16:28:02Z</time>
      </trkpt>
      <trkpt lat="47.84093" lon="6.98142">
        <ele>975.39</ele>
        <time>2014-06-21T16:28:06Z</time>
      </trkpt>
      <trkpt lat="47.84093" lon="6.9814">
        <ele>979.24</ele>
        <time>2014-06-21T16:28:07Z</time>
      </trkpt>
      <trkpt lat="47.84093" lon="6.98138">
        <ele>976.36</ele>
        <time>2014-06-21T16:28:08Z</time>
      </trkpt>
      <trkpt lat="47.84093" lon="6.98134">
        <ele>972.99</ele>
        <time>2014-06-21T16:28:10Z</time>
      </trkpt>
      <trkpt lat="47.84093" lon="6.9813">
        <ele>967.7</ele>
        <time>2014-06-21T16:28:12Z</time>
      </trkpt>
      <trkpt lat="47.84093" lon="6.98128">
        <ele>968.18</ele>
        <time>2014-06-21T16:28:13Z</time>
      </trkpt>
      <trkpt lat="47.84093" lon="6.98123">
        <ele>965.3</ele>
        <time>2014-06-21T16:28:16Z</time>
      </trkpt>
      <trkpt lat="47.84093" lon="6.98121">
        <ele>972.51</ele>
        <time>2014-06-21T16:28:17Z</time>
      </trkpt>
      <trkpt lat="47.84093" lon="6.98117">
        <ele>975.88</ele>
        <time>2014-06-21T16:28:19Z</time>
      </trkpt>
      <trkpt lat="47.84092" lon="6.98104">
        <ele>970.59</ele>
        <time>2014-06-21T16:28:26Z</time>
      </trkpt>
      <trkpt lat="47.84092" lon="6.98103">
        <ele>977.32</ele>
        <time>2014-06-21T16:28:27Z</time>
      </trkpt>
      <trkpt lat="47.84092" lon="6.98097">
        <ele>973.47</ele>
        <time>2014-06-21T16:28:30Z</time>
      </trkpt>
      <trkpt lat="47.84095" lon="6.98087">
        <ele>970.11</ele>
        <time>2014-06-21T16:28:38Z</time>
      </trkpt>
      <trkpt lat="47.84096" lon="6.98085">
        <ele>967.22</ele>
        <time>2014-06-21T16:28:39Z</time>
      </trkpt>
      <trkpt lat="47.84097" lon="6.98081">
        <ele>963.38</ele>
        <time>2014-06-21T16:28:41Z</time>
      </trkpt>
      <trkpt lat="47.84098" lon="6.98077">
        <ele>966.74</ele>
        <time>2014-06-21T16:28:44Z</time>
      </trkpt>
      <trkpt lat="47.84098" lon="6.98076">
        <ele>972.03</ele>
        <time>2014-06-21T16:28:45Z</time>
      </trkpt>
      <trkpt lat="47.84098" lon="6.98075">
        <ele>972.51</ele>
        <time>2014-06-21T16:28:46Z</time>
      </trkpt>
      <trkpt lat="47.84098" lon="6.98074">
        <ele>972.51</ele>
        <time>2014-06-21T16:28:47Z</time>
      </trkpt>
      <trkpt lat="47.84101" lon="6.98067">
        <ele>965.78</ele>
        <time>2014-06-21T16:28:50Z</time>
      </trkpt>
      <trkpt lat="47.84108" lon="6.98049">
        <ele>971.07</ele>
        <time>2014-06-21T16:28:58Z</time>
      </trkpt>
      <trkpt lat="47.84109" lon="6.98047">
        <ele>970.59</ele>
        <time>2014-06-21T16:28:59Z</time>
      </trkpt>
      <trkpt lat="47.84111" lon="6.98041">
        <ele>961.94</ele>
        <time>2014-06-21T16:29:02Z</time>
      </trkpt>
      <trkpt lat="47.84113" lon="6.98037">
        <ele>958.57</ele>
        <time>2014-06-21T16:29:04Z</time>
      </trkpt>
      <trkpt lat="47.84116" lon="6.98033">
        <ele>965.3</ele>
        <time>2014-06-21T16:29:07Z</time>
      </trkpt>
      <trkpt lat="47.84118" lon="6.9803">
        <ele>967.22</ele>
        <time>2014-06-21T16:29:09Z</time>
      </trkpt>
      <trkpt lat="47.84124" lon="6.98022">
        <ele>962.9</ele>
        <time>2014-06-21T16:29:15Z</time>
      </trkpt>
      <trkpt lat="47.84127" lon="6.98018">
        <ele>956.65</ele>
        <time>2014-06-21T16:29:18Z</time>
      </trkpt>
      <trkpt lat="47.84128" lon="6.98016">
        <ele>958.09</ele>
        <time>2014-06-21T16:29:19Z</time>
      </trkpt>
      <trkpt lat="47.84131" lon="6.98013">
        <ele>959.05</ele>
        <time>2014-06-21T16:29:21Z</time>
      </trkpt>
      <trkpt lat="47.84132" lon="6.98011">
        <ele>964.82</ele>
        <time>2014-06-21T16:29:23Z</time>
      </trkpt>
      <trkpt lat="47.84135" lon="6.98002">
        <ele>963.86</ele>
        <time>2014-06-21T16:29:28Z</time>
      </trkpt>
      <trkpt lat="47.84136" lon="6.98">
        <ele>959.53</ele>
        <time>2014-06-21T16:29:29Z</time>
      </trkpt>
      <trkpt lat="47.84137" lon="6.97997">
        <ele>965.3</ele>
        <time>2014-06-21T16:29:31Z</time>
      </trkpt>
      <trkpt lat="47.84137" lon="6.97994">
        <ele>966.26</ele>
        <time>2014-06-21T16:29:33Z</time>
      </trkpt>
      <trkpt lat="47.84138" lon="6.97993">
        <ele>963.38</ele>
        <time>2014-06-21T16:29:34Z</time>
      </trkpt>
      <trkpt lat="47.84138" lon="6.97992">
        <ele>956.17</ele>
        <time>2014-06-21T16:29:35Z</time>
      </trkpt>
      <trkpt lat="47.84139" lon="6.97989">
        <ele>954.73</ele>
        <time>2014-06-21T16:29:37Z</time>
      </trkpt>
      <trkpt lat="47.84144" lon="6.97983">
        <ele>958.09</ele>
        <time>2014-06-21T16:29:40Z</time>
      </trkpt>
      <trkpt lat="47.84147" lon="6.97977">
        <ele>961.94</ele>
        <time>2014-06-21T16:29:43Z</time>
      </trkpt>
      <trkpt lat="47.84149" lon="6.97975">
        <ele>961.94</ele>
        <time>2014-06-21T16:29:44Z</time>
      </trkpt>
      <trkpt lat="47.84155" lon="6.97964">
        <ele>953.28</ele>
        <time>2014-06-21T16:29:51Z</time>
      </trkpt>
      <trkpt lat="47.84155" lon="6.97962">
        <ele>949.92</ele>
        <time>2014-06-21T16:29:52Z</time>
      </trkpt>
      <trkpt lat="47.84158" lon="6.97957">
        <ele>953.77</ele>
        <time>2014-06-21T16:29:55Z</time>
      </trkpt>
      <trkpt lat="47.84159" lon="6.97955">
        <ele>960.01</ele>
        <time>2014-06-21T16:29:57Z</time>
      </trkpt>
      <trkpt lat="47.8416" lon="6.97953">
        <ele>958.09</ele>
        <time>2014-06-21T16:29:58Z</time>
      </trkpt>
      <trkpt lat="47.84161" lon="6.97952">
        <ele>957.61</ele>
        <time>2014-06-21T16:29:59Z</time>
      </trkpt>
      <trkpt lat="47.84162" lon="6.9795">
        <ele>956.65</ele>
        <time>2014-06-21T16:30:00Z</time>
      </trkpt>
      <trkpt lat="47.84162" lon="6.97947">
        <ele>951.36</ele>
        <time>2014-06-21T16:30:01Z</time>
      </trkpt>
      <trkpt lat="47.84163" lon="6.97945">
        <ele>955.69</ele>
        <time>2014-06-21T16:30:02Z</time>
      </trkpt>
      <trkpt lat="47.84163" lon="6.97944">
        <ele>953.77</ele>
        <time>2014-06-21T16:30:03Z</time>
      </trkpt>
      <trkpt lat="47.84163" lon="6.9794">
        <ele>950.88</ele>
        <time>2014-06-21T16:30:05Z</time>
      </trkpt>
      <trkpt lat="47.84164" lon="6.97939">
        <ele>954.73</ele>
        <time>2014-06-21T16:30:06Z</time>
      </trkpt>
      <trkpt lat="47.84164" lon="6.97937">
        <ele>958.57</ele>
        <time>2014-06-21T16:30:07Z</time>
      </trkpt>
      <trkpt lat="47.84165" lon="6.97936">
        <ele>954.25</ele>
        <time>2014-06-21T16:30:08Z</time>
      </trkpt>
      <trkpt lat="47.84166" lon="6.97931">
        <ele>958.57</ele>
        <time>2014-06-21T16:30:11Z</time>
      </trkpt>
      <trkpt lat="47.84166" lon="6.97928">
        <ele>953.77</ele>
        <time>2014-06-21T16:30:12Z</time>
      </trkpt>
      <trkpt lat="47.84166" lon="6.97925">
        <ele>953.77</ele>
        <time>2014-06-21T16:30:13Z</time>
      </trkpt>
      <trkpt lat="47.84166" lon="6.97922">
        <ele>942.23</ele>
        <time>2014-06-21T16:30:14Z</time>
      </trkpt>
      <trkpt lat="47.84166" lon="6.9792">
        <ele>945.59</ele>
        <time>2014-06-21T16:30:15Z</time>
      </trkpt>
      <trkpt lat="47.84166" lon="6.97914">
        <ele>953.77</ele>
        <time>2014-06-21T16:30:18Z</time>
      </trkpt>
      <trkpt lat="47.8417" lon="6.97892">
        <ele>947.52</ele>
        <time>2014-06-21T16:30:29Z</time>
      </trkpt>
      <trkpt lat="47.8417" lon="6.9789">
        <ele>947.52</ele>
        <time>2014-06-21T16:30:30Z</time>
      </trkpt>
      <trkpt lat="47.84171" lon="6.97886">
        <ele>942.23</ele>
        <time>2014-06-21T16:30:32Z</time>
      </trkpt>
      <trkpt lat="47.84172" lon="6.97885">
        <ele>938.86</ele>
        <time>2014-06-21T16:30:33Z</time>
      </trkpt>
      <trkpt lat="47.84172" lon="6.97884">
        <ele>941.27</ele>
        <time>2014-06-21T16:30:34Z</time>
      </trkpt>
      <trkpt lat="47.84172" lon="6.97882">
        <ele>946.07</ele>
        <time>2014-06-21T16:30:35Z</time>
      </trkpt>
      <trkpt lat="47.84175" lon="6.97877">
        <ele>947.04</ele>
        <time>2014-06-21T16:30:37Z</time>
      </trkpt>
      <trkpt lat="47.84177" lon="6.97871">
        <ele>950.4</ele>
        <time>2014-06-21T16:30:41Z</time>
      </trkpt>
      <trkpt lat="47.84176" lon="6.97863">
        <ele>951.36</ele>
        <time>2014-06-21T16:30:45Z</time>
      </trkpt>
      <trkpt lat="47.84178" lon="6.97859">
        <ele>944.15</ele>
        <time>2014-06-21T16:30:47Z</time>
      </trkpt>
      <trkpt lat="47.8418" lon="6.97855">
        <ele>939.83</ele>
        <time>2014-06-21T16:30:49Z</time>
      </trkpt>
      <trkpt lat="47.84182" lon="6.97852">
        <ele>938.86</ele>
        <time>2014-06-21T16:30:51Z</time>
      </trkpt>
      <trkpt lat="47.84183" lon="6.97851">
        <ele>945.11</ele>
        <time>2014-06-21T16:30:52Z</time>
      </trkpt>
      <trkpt lat="47.84184" lon="6.97848">
        <ele>946.07</ele>
        <time>2014-06-21T16:30:54Z</time>
      </trkpt>
      <trkpt lat="47.84186" lon="6.97839">
        <ele>942.71</ele>
        <time>2014-06-21T16:30:59Z</time>
      </trkpt>
      <trkpt lat="47.84186" lon="6.97838">
        <ele>936.94</ele>
        <time>2014-06-21T16:31:00Z</time>
      </trkpt>
      <trkpt lat="47.84186" lon="6.97837">
        <ele>938.86</ele>
        <time>2014-06-21T16:31:01Z</time>
      </trkpt>
      <trkpt lat="47.84187" lon="6.97836">
        <ele>942.71</ele>
        <time>2014-06-21T16:31:02Z</time>
      </trkpt>
      <trkpt lat="47.84187" lon="6.97833">
        <ele>940.79</ele>
        <time>2014-06-21T16:31:03Z</time>
      </trkpt>
      <trkpt lat="47.84189" lon="6.97818">
        <ele>944.15</ele>
        <time>2014-06-21T16:31:10Z</time>
      </trkpt>
      <trkpt lat="47.8419" lon="6.97817">
        <ele>947.52</ele>
        <time>2014-06-21T16:31:11Z</time>
      </trkpt>
      <trkpt lat="47.84191" lon="6.97815">
        <ele>942.23</ele>
        <time>2014-06-21T16:31:12Z</time>
      </trkpt>
      <trkpt lat="47.84193" lon="6.97808">
        <ele>945.59</ele>
        <time>2014-06-21T16:31:16Z</time>
      </trkpt>
      <trkpt lat="47.84194" lon="6.97806">
        <ele>944.63</ele>
        <time>2014-06-21T16:31:17Z</time>
      </trkpt>
      <trkpt lat="47.84191" lon="6.97788">
        <ele>943.67</ele>
        <time>2014-06-21T16:31:28Z</time>
      </trkpt>
      <trkpt lat="47.84189" lon="6.97774">
        <ele>945.59</ele>
        <time>2014-06-21T16:31:36Z</time>
      </trkpt>
      <trkpt lat="47.84186" lon="6.97758">
        <ele>944.15</ele>
        <time>2014-06-21T16:31:42Z</time>
      </trkpt>
      <trkpt lat="47.84183" lon="6.97749">
        <ele>940.79</ele>
        <time>2014-06-21T16:31:47Z</time>
      </trkpt>
      <trkpt lat="47.84182" lon="6.97742">
        <ele>938.86</ele>
        <time>2014-06-21T16:31:52Z</time>
      </trkpt>
      <trkpt lat="47.84186" lon="6.97737">
        <ele>938.86</ele>
        <time>2014-06-21T16:31:56Z</time>
      </trkpt>
      <trkpt lat="47.84187" lon="6.97734">
        <ele>941.75</ele>
        <time>2014-06-21T16:31:57Z</time>
      </trkpt>
      <trkpt lat="47.84192" lon="6.97723">
        <ele>946.07</ele>
        <time>2014-06-21T16:32:04Z</time>
      </trkpt>
      <trkpt lat="47.84193" lon="6.97722">
        <ele>946.07</ele>
        <time>2014-06-21T16:32:05Z</time>
      </trkpt>
      <trkpt lat="47.84195" lon="6.97715">
        <ele>940.79</ele>
        <time>2014-06-21T16:32:10Z</time>
      </trkpt>
      <trkpt lat="47.84197" lon="6.97709">
        <ele>945.11</ele>
        <time>2014-06-21T16:32:14Z</time>
      </trkpt>
      <trkpt lat="47.84198" lon="6.97708">
        <ele>944.63</ele>
        <time>2014-06-21T16:32:15Z</time>
      </trkpt>
      <trkpt lat="47.84201" lon="6.97696">
        <ele>942.71</ele>
        <time>2014-06-21T16:32:32Z</time>
      </trkpt>
      <trkpt lat="47.84202" lon="6.97693">
        <ele>945.59</ele>
        <time>2014-06-21T16:32:34Z</time>
      </trkpt>
      <trkpt lat="47.84202" lon="6.9769">
        <ele>942.23</ele>
        <time>2014-06-21T16:32:36Z</time>
      </trkpt>
      <trkpt lat="47.84203" lon="6.97687">
        <ele>947.52</ele>
        <time>2014-06-21T16:32:38Z</time>
      </trkpt>
      <trkpt lat="47.84204" lon="6.97682">
        <ele>942.71</ele>
        <time>2014-06-21T16:32:40Z</time>
      </trkpt>
      <trkpt lat="47.84204" lon="6.9768">
        <ele>943.19</ele>
        <time>2014-06-21T16:32:41Z</time>
      </trkpt>
      <trkpt lat="47.84204" lon="6.97678">
        <ele>948.96</ele>
        <time>2014-06-21T16:32:42Z</time>
      </trkpt>
      <trkpt lat="47.84205" lon="6.97676">
        <ele>947.52</ele>
        <time>2014-06-21T16:32:43Z</time>
      </trkpt>
      <trkpt lat="47.84205" lon="6.97674">
        <ele>944.15</ele>
        <time>2014-06-21T16:32:44Z</time>
      </trkpt>
      <trkpt lat="47.84205" lon="6.97673">
        <ele>949.92</ele>
        <time>2014-06-21T16:32:45Z</time>
      </trkpt>
      <trkpt lat="47.84205" lon="6.97672">
        <ele>949.92</ele>
        <time>2014-06-21T16:32:46Z</time>
      </trkpt>
      <trkpt lat="47.84205" lon="6.97672">
        <ele>943.19</ele>
        <time>2014-06-21T16:32:47Z</time>
      </trkpt>
      <trkpt lat="47.84206" lon="6.97671">
        <ele>948</ele>
        <time>2014-06-21T16:32:48Z</time>
      </trkpt>
      <trkpt lat="47.84206" lon="6.97667">
        <ele>946.56</ele>
        <time>2014-06-21T16:32:51Z</time>
      </trkpt>
      <trkpt lat="47.84207" lon="6.97665">
        <ele>952.8</ele>
        <time>2014-06-21T16:32:53Z</time>
      </trkpt>
      <trkpt lat="47.84207" lon="6.97663">
        <ele>949.44</ele>
        <time>2014-06-21T16:32:54Z</time>
      </trkpt>
      <trkpt lat="47.84207" lon="6.97659">
        <ele>946.07</ele>
        <time>2014-06-21T16:32:56Z</time>
      </trkpt>
      <trkpt lat="47.84207" lon="6.97657">
        <ele>946.07</ele>
        <time>2014-06-21T16:32:57Z</time>
      </trkpt>
      <trkpt lat="47.84206" lon="6.97649">
        <ele>952.32</ele>
        <time>2014-06-21T16:33:01Z</time>
      </trkpt>
      <trkpt lat="47.84206" lon="6.97648">
        <ele>951.36</ele>
        <time>2014-06-21T16:33:02Z</time>
      </trkpt>
      <trkpt lat="47.84205" lon="6.97646">
        <ele>947.04</ele>
        <time>2014-06-21T16:33:03Z</time>
      </trkpt>
      <trkpt lat="47.84204" lon="6.97641">
        <ele>949.92</ele>
        <time>2014-06-21T16:33:07Z</time>
      </trkpt>
      <trkpt lat="47.84204" lon="6.97637">
        <ele>950.88</ele>
        <time>2014-06-21T16:33:09Z</time>
      </trkpt>
      <trkpt lat="47.84195" lon="6.97598">
        <ele>953.28</ele>
        <time>2014-06-21T16:33:24Z</time>
      </trkpt>
      <trkpt lat="47.84192" lon="6.97583">
        <ele>949.92</ele>
        <time>2014-06-21T16:33:33Z</time>
      </trkpt>
      <trkpt lat="47.84192" lon="6.97575">
        <ele>953.77</ele>
        <time>2014-06-21T16:33:38Z</time>
      </trkpt>
      <trkpt lat="47.84191" lon="6.97573">
        <ele>954.25</ele>
        <time>2014-06-21T16:33:39Z</time>
      </trkpt>
      <trkpt lat="47.8419" lon="6.97569">
        <ele>950.88</ele>
        <time>2014-06-21T16:33:41Z</time>
      </trkpt>
      <trkpt lat="47.8419" lon="6.97565">
        <ele>945.59</ele>
        <time>2014-06-21T16:33:43Z</time>
      </trkpt>
      <trkpt lat="47.84189" lon="6.97564">
        <ele>948.96</ele>
        <time>2014-06-21T16:33:44Z</time>
      </trkpt>
      <trkpt lat="47.84186" lon="6.97559">
        <ele>952.32</ele>
        <time>2014-06-21T16:33:47Z</time>
      </trkpt>
      <trkpt lat="47.84183" lon="6.97555">
        <ele>947.04</ele>
        <time>2014-06-21T16:33:51Z</time>
      </trkpt>
      <trkpt lat="47.84183" lon="6.97553">
        <ele>947.04</ele>
        <time>2014-06-21T16:33:52Z</time>
      </trkpt>
      <trkpt lat="47.84183" lon="6.97552">
        <ele>951.84</ele>
        <time>2014-06-21T16:33:53Z</time>
      </trkpt>
      <trkpt lat="47.84183" lon="6.97549">
        <ele>951.84</ele>
        <time>2014-06-21T16:33:54Z</time>
      </trkpt>
      <trkpt lat="47.84183" lon="6.97543">
        <ele>953.77</ele>
        <time>2014-06-21T16:33:57Z</time>
      </trkpt>
      <trkpt lat="47.84182" lon="6.97539">
        <ele>952.32</ele>
        <time>2014-06-21T16:33:59Z</time>
      </trkpt>
      <trkpt lat="47.84177" lon="6.97521">
        <ele>951.36</ele>
        <time>2014-06-21T16:34:08Z</time>
      </trkpt>
      <trkpt lat="47.84178" lon="6.97519">
        <ele>947.52</ele>
        <time>2014-06-21T16:34:10Z</time>
      </trkpt>
      <trkpt lat="47.84178" lon="6.97517">
        <ele>946.56</ele>
        <time>2014-06-21T16:34:12Z</time>
      </trkpt>
      <trkpt lat="47.84177" lon="6.97511">
        <ele>952.8</ele>
        <time>2014-06-21T16:34:15Z</time>
      </trkpt>
      <trkpt lat="47.84177" lon="6.97509">
        <ele>951.36</ele>
        <time>2014-06-21T16:34:16Z</time>
      </trkpt>
      <trkpt lat="47.84176" lon="6.97503">
        <ele>952.8</ele>
        <time>2014-06-21T16:34:19Z</time>
      </trkpt>
      <trkpt lat="47.84176" lon="6.97501">
        <ele>949.44</ele>
        <time>2014-06-21T16:34:20Z</time>
      </trkpt>
      <trkpt lat="47.84174" lon="6.97497">
        <ele>953.28</ele>
        <time>2014-06-21T16:34:22Z</time>
      </trkpt>
      <trkpt lat="47.84173" lon="6.97492">
        <ele>955.69</ele>
        <time>2014-06-21T16:34:25Z</time>
      </trkpt>
      <trkpt lat="47.84173" lon="6.97491">
        <ele>952.8</ele>
        <time>2014-06-21T16:34:26Z</time>
      </trkpt>
      <trkpt lat="47.84171" lon="6.97488">
        <ele>950.88</ele>
        <time>2014-06-21T16:34:28Z</time>
      </trkpt>
      <trkpt lat="47.8417" lon="6.97487">
        <ele>948</ele>
        <time>2014-06-21T16:34:29Z</time>
      </trkpt>
      <trkpt lat="47.84169" lon="6.97484">
        <ele>951.84</ele>
        <time>2014-06-21T16:34:31Z</time>
      </trkpt>
      <trkpt lat="47.84168" lon="6.97482">
        <ele>955.69</ele>
        <time>2014-06-21T16:34:32Z</time>
      </trkpt>
      <trkpt lat="47.84166" lon="6.97475">
        <ele>949.92</ele>
        <time>2014-06-21T16:34:36Z</time>
      </trkpt>
      <trkpt lat="47.84166" lon="6.97473">
        <ele>956.17</ele>
        <time>2014-06-21T16:34:37Z</time>
      </trkpt>
      <trkpt lat="47.84164" lon="6.97464">
        <ele>959.05</ele>
        <time>2014-06-21T16:34:42Z</time>
      </trkpt>
      <trkpt lat="47.84164" lon="6.97461">
        <ele>955.69</ele>
        <time>2014-06-21T16:34:44Z</time>
      </trkpt>
      <trkpt lat="47.84158" lon="6.97434">
        <ele>957.61</ele>
        <time>2014-06-21T16:34:58Z</time>
      </trkpt>
      <trkpt lat="47.84146" lon="6.97412">
        <ele>959.53</ele>
        <time>2014-06-21T16:35:09Z</time>
      </trkpt>
      <trkpt lat="47.84137" lon="6.9739">
        <ele>960.01</ele>
        <time>2014-06-21T16:35:21Z</time>
      </trkpt>
      <trkpt lat="47.84136" lon="6.97382">
        <ele>960.01</ele>
        <time>2014-06-21T16:35:26Z</time>
      </trkpt>
      <trkpt lat="47.84127" lon="6.97361">
        <ele>961.46</ele>
        <time>2014-06-21T16:35:39Z</time>
      </trkpt>
      <trkpt lat="47.84121" lon="6.97346">
        <ele>959.05</ele>
        <time>2014-06-21T16:35:50Z</time>
      </trkpt>
      <trkpt lat="47.8412" lon="6.97345">
        <ele>962.9</ele>
        <time>2014-06-21T16:35:52Z</time>
      </trkpt>
      <trkpt lat="47.84118" lon="6.97338">
        <ele>963.38</ele>
        <time>2014-06-21T16:36:00Z</time>
      </trkpt>
      <trkpt lat="47.84119" lon="6.97336">
        <ele>966.74</ele>
        <time>2014-06-21T16:36:02Z</time>
      </trkpt>
      <trkpt lat="47.8412" lon="6.97329">
        <ele>961.94</ele>
        <time>2014-06-21T16:36:06Z</time>
      </trkpt>
      <trkpt lat="47.8412" lon="6.97326">
        <ele>962.9</ele>
        <time>2014-06-21T16:36:07Z</time>
      </trkpt>
      <trkpt lat="47.8412" lon="6.9732">
        <ele>965.3</ele>
        <time>2014-06-21T16:36:11Z</time>
      </trkpt>
      <trkpt lat="47.8412" lon="6.97313">
        <ele>963.86</ele>
        <time>2014-06-21T16:36:16Z</time>
      </trkpt>
      <trkpt lat="47.8412" lon="6.97311">
        <ele>960.98</ele>
        <time>2014-06-21T16:36:17Z</time>
      </trkpt>
      <trkpt lat="47.8412" lon="6.97306">
        <ele>965.3</ele>
        <time>2014-06-21T16:36:20Z</time>
      </trkpt>
      <trkpt lat="47.8412" lon="6.97298">
        <ele>968.67</ele>
        <time>2014-06-21T16:36:24Z</time>
      </trkpt>
      <trkpt lat="47.8412" lon="6.97295">
        <ele>965.3</ele>
        <time>2014-06-21T16:36:25Z</time>
      </trkpt>
      <trkpt lat="47.8412" lon="6.97282">
        <ele>961.46</ele>
        <time>2014-06-21T16:36:31Z</time>
      </trkpt>
      <trkpt lat="47.8412" lon="6.97281">
        <ele>961.94</ele>
        <time>2014-06-21T16:36:32Z</time>
      </trkpt>
      <trkpt lat="47.84121" lon="6.97258">
        <ele>963.38</ele>
        <time>2014-06-21T16:36:41Z</time>
      </trkpt>
      <trkpt lat="47.84119" lon="6.97247">
        <ele>967.22</ele>
        <time>2014-06-21T16:36:46Z</time>
      </trkpt>
      <trkpt lat="47.84114" lon="6.97225">
        <ele>963.38</ele>
        <time>2014-06-21T16:36:59Z</time>
      </trkpt>
      <trkpt lat="47.84114" lon="6.97218">
        <ele>966.74</ele>
        <time>2014-06-21T16:37:04Z</time>
      </trkpt>
      <trkpt lat="47.84114" lon="6.97197">
        <ele>963.38</ele>
        <time>2014-06-21T16:37:13Z</time>
      </trkpt>
      <trkpt lat="47.84114" lon="6.97196">
        <ele>963.86</ele>
        <time>2014-06-21T16:37:14Z</time>
      </trkpt>
      <trkpt lat="47.84113" lon="6.9719">
        <ele>964.82</ele>
        <time>2014-06-21T16:37:17Z</time>
      </trkpt>
      <trkpt lat="47.84113" lon="6.97185">
        <ele>967.7</ele>
        <time>2014-06-21T16:37:19Z</time>
      </trkpt>
      <trkpt lat="47.84114" lon="6.97177">
        <ele>970.59</ele>
        <time>2014-06-21T16:37:22Z</time>
      </trkpt>
      <trkpt lat="47.84115" lon="6.97168">
        <ele>967.22</ele>
        <time>2014-06-21T16:37:27Z</time>
      </trkpt>
      <trkpt lat="47.84114" lon="6.97161">
        <ele>969.63</ele>
        <time>2014-06-21T16:37:31Z</time>
      </trkpt>
      <trkpt lat="47.84114" lon="6.97157">
        <ele>966.74</ele>
        <time>2014-06-21T16:37:35Z</time>
      </trkpt>
      <trkpt lat="47.84114" lon="6.97156">
        <ele>971.07</ele>
        <time>2014-06-21T16:37:36Z</time>
      </trkpt>
      <trkpt lat="47.84113" lon="6.97152">
        <ele>968.18</ele>
        <time>2014-06-21T16:37:41Z</time>
      </trkpt>
      <trkpt lat="47.84114" lon="6.97142">
        <ele>971.55</ele>
        <time>2014-06-21T16:37:47Z</time>
      </trkpt>
      <trkpt lat="47.84114" lon="6.97133">
        <ele>971.07</ele>
        <time>2014-06-21T16:37:52Z</time>
      </trkpt>
      <trkpt lat="47.84114" lon="6.97128">
        <ele>968.18</ele>
        <time>2014-06-21T16:37:54Z</time>
      </trkpt>
      <trkpt lat="47.84114" lon="6.97124">
        <ele>970.59</ele>
        <time>2014-06-21T16:37:56Z</time>
      </trkpt>
      <trkpt lat="47.84116" lon="6.97107">
        <ele>965.78</ele>
        <time>2014-06-21T16:38:04Z</time>
      </trkpt>
      <trkpt lat="47.84116" lon="6.97098">
        <ele>969.63</ele>
        <time>2014-06-21T16:38:10Z</time>
      </trkpt>
      <trkpt lat="47.84116" lon="6.97096">
        <ele>969.63</ele>
        <time>2014-06-21T16:38:11Z</time>
      </trkpt>
      <trkpt lat="47.84117" lon="6.97088">
        <ele>972.51</ele>
        <time>2014-06-21T16:38:14Z</time>
      </trkpt>
      <trkpt lat="47.84117" lon="6.97086">
        <ele>968.67</ele>
        <time>2014-06-21T16:38:15Z</time>
      </trkpt>
      <trkpt lat="47.84117" lon="6.97085">
        <ele>970.11</ele>
        <time>2014-06-21T16:38:16Z</time>
      </trkpt>
      <trkpt lat="47.84116" lon="6.97081">
        <ele>974.43</ele>
        <time>2014-06-21T16:38:19Z</time>
      </trkpt>
      <trkpt lat="47.84114" lon="6.97076">
        <ele>971.07</ele>
        <time>2014-06-21T16:38:23Z</time>
      </trkpt>
      <trkpt lat="47.84115" lon="6.97064">
        <ele>974.91</ele>
        <time>2014-06-21T16:38:33Z</time>
      </trkpt>
      <trkpt lat="47.84116" lon="6.97045">
        <ele>971.07</ele>
        <time>2014-06-21T16:38:42Z</time>
      </trkpt>
      <trkpt lat="47.84117" lon="6.97039">
        <ele>975.88</ele>
        <time>2014-06-21T16:38:45Z</time>
      </trkpt>
      <trkpt lat="47.84117" lon="6.97033">
        <ele>971.07</ele>
        <time>2014-06-21T16:38:48Z</time>
      </trkpt>
      <trkpt lat="47.84117" lon="6.97032">
        <ele>971.55</ele>
        <time>2014-06-21T16:38:49Z</time>
      </trkpt>
      <trkpt lat="47.84116" lon="6.97031">
        <ele>978.76</ele>
        <time>2014-06-21T16:38:50Z</time>
      </trkpt>
      <trkpt lat="47.84116" lon="6.97029">
        <ele>972.03</ele>
        <time>2014-06-21T16:38:51Z</time>
      </trkpt>
      <trkpt lat="47.84115" lon="6.97026">
        <ele>976.84</ele>
        <time>2014-06-21T16:38:53Z</time>
      </trkpt>
      <trkpt lat="47.84116" lon="6.97025">
        <ele>973.47</ele>
        <time>2014-06-21T16:38:54Z</time>
      </trkpt>
      <trkpt lat="47.84118" lon="6.97019">
        <ele>976.36</ele>
        <time>2014-06-21T16:38:59Z</time>
      </trkpt>
      <trkpt lat="47.84121" lon="6.96999">
        <ele>975.88</ele>
        <time>2014-06-21T16:39:09Z</time>
      </trkpt>
      <trkpt lat="47.84121" lon="6.96995">
        <ele>979.24</ele>
        <time>2014-06-21T16:39:11Z</time>
      </trkpt>
      <trkpt lat="47.84121" lon="6.96993">
        <ele>975.39</ele>
        <time>2014-06-21T16:39:12Z</time>
      </trkpt>
      <trkpt lat="47.84122" lon="6.96993">
        <ele>976.36</ele>
        <time>2014-06-21T16:39:13Z</time>
      </trkpt>
      <trkpt lat="47.84121" lon="6.96992">
        <ele>980.68</ele>
        <time>2014-06-21T16:39:14Z</time>
      </trkpt>
      <trkpt lat="47.84121" lon="6.96991">
        <ele>980.2</ele>
        <time>2014-06-21T16:39:15Z</time>
      </trkpt>
      <trkpt lat="47.84121" lon="6.96989">
        <ele>973.95</ele>
        <time>2014-06-21T16:39:16Z</time>
      </trkpt>
      <trkpt lat="47.84122" lon="6.96988">
        <ele>978.76</ele>
        <time>2014-06-21T16:39:17Z</time>
      </trkpt>
      <trkpt lat="47.84123" lon="6.96981">
        <ele>974.91</ele>
        <time>2014-06-21T16:39:21Z</time>
      </trkpt>
      <trkpt lat="47.84123" lon="6.96979">
        <ele>979.24</ele>
        <time>2014-06-21T16:39:22Z</time>
      </trkpt>
      <trkpt lat="47.84124" lon="6.96974">
        <ele>974.91</ele>
        <time>2014-06-21T16:39:28Z</time>
      </trkpt>
      <trkpt lat="47.84123" lon="6.96973">
        <ele>979.72</ele>
        <time>2014-06-21T16:39:29Z</time>
      </trkpt>
      <trkpt lat="47.84124" lon="6.96971">
        <ele>980.68</ele>
        <time>2014-06-21T16:39:31Z</time>
      </trkpt>
      <trkpt lat="47.84123" lon="6.96968">
        <ele>975.88</ele>
        <time>2014-06-21T16:39:33Z</time>
      </trkpt>
      <trkpt lat="47.84123" lon="6.96967">
        <ele>978.76</ele>
        <time>2014-06-21T16:39:34Z</time>
      </trkpt>
      <trkpt lat="47.84123" lon="6.96965">
        <ele>980.2</ele>
        <time>2014-06-21T16:39:36Z</time>
      </trkpt>
      <trkpt lat="47.84124" lon="6.96961">
        <ele>980.68</ele>
        <time>2014-06-21T16:39:41Z</time>
      </trkpt>
      <trkpt lat="47.84127" lon="6.96947">
        <ele>979.24</ele>
        <time>2014-06-21T16:39:48Z</time>
      </trkpt>
      <trkpt lat="47.84129" lon="6.96934">
        <ele>983.57</ele>
        <time>2014-06-21T16:39:57Z</time>
      </trkpt>
      <trkpt lat="47.84129" lon="6.96933">
        <ele>982.6</ele>
        <time>2014-06-21T16:39:58Z</time>
      </trkpt>
      <trkpt lat="47.84131" lon="6.9692">
        <ele>984.53</ele>
        <time>2014-06-21T16:40:06Z</time>
      </trkpt>
      <trkpt lat="47.84131" lon="6.96919">
        <ele>980.68</ele>
        <time>2014-06-21T16:40:07Z</time>
      </trkpt>
      <trkpt lat="47.84131" lon="6.96917">
        <ele>981.64</ele>
        <time>2014-06-21T16:40:08Z</time>
      </trkpt>
      <trkpt lat="47.8413" lon="6.96915">
        <ele>985.97</ele>
        <time>2014-06-21T16:40:09Z</time>
      </trkpt>
      <trkpt lat="47.8413" lon="6.96913">
        <ele>981.64</ele>
        <time>2014-06-21T16:40:10Z</time>
      </trkpt>
      <trkpt lat="47.84131" lon="6.96906">
        <ele>985.97</ele>
        <time>2014-06-21T16:40:13Z</time>
      </trkpt>
      <trkpt lat="47.84131" lon="6.96904">
        <ele>981.16</ele>
        <time>2014-06-21T16:40:14Z</time>
      </trkpt>
      <trkpt lat="47.84132" lon="6.96901">
        <ele>984.53</ele>
        <time>2014-06-21T16:40:16Z</time>
      </trkpt>
      <trkpt lat="47.84132" lon="6.969">
        <ele>984.53</ele>
        <time>2014-06-21T16:40:17Z</time>
      </trkpt>
      <trkpt lat="47.84132" lon="6.96895">
        <ele>980.68</ele>
        <time>2014-06-21T16:40:20Z</time>
      </trkpt>
      <trkpt lat="47.84133" lon="6.96894">
        <ele>985.97</ele>
        <time>2014-06-21T16:40:22Z</time>
      </trkpt>
      <trkpt lat="47.84133" lon="6.96892">
        <ele>981.16</ele>
        <time>2014-06-21T16:40:23Z</time>
      </trkpt>
      <trkpt lat="47.84134" lon="6.9689">
        <ele>984.05</ele>
        <time>2014-06-21T16:40:24Z</time>
      </trkpt>
      <trkpt lat="47.84134" lon="6.96883">
        <ele>985.49</ele>
        <time>2014-06-21T16:40:29Z</time>
      </trkpt>
      <trkpt lat="47.84136" lon="6.96869">
        <ele>986.45</ele>
        <time>2014-06-21T16:40:36Z</time>
      </trkpt>
      <trkpt lat="47.84138" lon="6.96865">
        <ele>989.81</ele>
        <time>2014-06-21T16:40:43Z</time>
      </trkpt>
      <trkpt lat="47.84139" lon="6.96865">
        <ele>984.53</ele>
        <time>2014-06-21T16:40:44Z</time>
      </trkpt>
      <trkpt lat="47.84139" lon="6.96864">
        <ele>989.33</ele>
        <time>2014-06-21T16:40:46Z</time>
      </trkpt>
      <trkpt lat="47.84139" lon="6.96864">
        <ele>986.45</ele>
        <time>2014-06-21T16:40:50Z</time>
      </trkpt>
      <trkpt lat="47.84139" lon="6.96857">
        <ele>989.33</ele>
        <time>2014-06-21T16:40:53Z</time>
      </trkpt>
      <trkpt lat="47.8414" lon="6.96851">
        <ele>986.45</ele>
        <time>2014-06-21T16:40:55Z</time>
      </trkpt>
      <trkpt lat="47.84141" lon="6.96844">
        <ele>990.3</ele>
        <time>2014-06-21T16:40:58Z</time>
      </trkpt>
      <trkpt lat="47.84141" lon="6.96842">
        <ele>990.3</ele>
        <time>2014-06-21T16:40:59Z</time>
      </trkpt>
      <trkpt lat="47.84141" lon="6.9684">
        <ele>986.45</ele>
        <time>2014-06-21T16:41:00Z</time>
      </trkpt>
      <trkpt lat="47.84141" lon="6.96838">
        <ele>988.85</ele>
        <time>2014-06-21T16:41:01Z</time>
      </trkpt>
      <trkpt lat="47.84143" lon="6.96827">
        <ele>987.89</ele>
        <time>2014-06-21T16:41:09Z</time>
      </trkpt>
      <trkpt lat="47.84142" lon="6.96824">
        <ele>992.22</ele>
        <time>2014-06-21T16:41:10Z</time>
      </trkpt>
      <trkpt lat="47.84143" lon="6.96823">
        <ele>989.81</ele>
        <time>2014-06-21T16:41:11Z</time>
      </trkpt>
      <trkpt lat="47.84144" lon="6.96816">
        <ele>986.45</ele>
        <time>2014-06-21T16:41:16Z</time>
      </trkpt>
      <trkpt lat="47.84144" lon="6.96814">
        <ele>988.37</ele>
        <time>2014-06-21T16:41:17Z</time>
      </trkpt>
      <trkpt lat="47.84148" lon="6.96806">
        <ele>992.7</ele>
        <time>2014-06-21T16:41:22Z</time>
      </trkpt>
      <trkpt lat="47.84149" lon="6.96799">
        <ele>989.33</ele>
        <time>2014-06-21T16:41:25Z</time>
      </trkpt>
      <trkpt lat="47.84151" lon="6.96784">
        <ele>993.18</ele>
        <time>2014-06-21T16:41:34Z</time>
      </trkpt>
      <trkpt lat="47.84152" lon="6.96781">
        <ele>987.89</ele>
        <time>2014-06-21T16:41:36Z</time>
      </trkpt>
      <trkpt lat="47.84152" lon="6.9678">
        <ele>987.89</ele>
        <time>2014-06-21T16:41:37Z</time>
      </trkpt>
      <trkpt lat="47.84153" lon="6.96779">
        <ele>989.81</ele>
        <time>2014-06-21T16:41:40Z</time>
      </trkpt>
      <trkpt lat="47.84155" lon="6.96773">
        <ele>991.74</ele>
        <time>2014-06-21T16:41:50Z</time>
      </trkpt>
      <trkpt lat="47.84157" lon="6.96761">
        <ele>992.7</ele>
        <time>2014-06-21T16:42:05Z</time>
      </trkpt>
      <trkpt lat="47.84164" lon="6.96729">
        <ele>989.81</ele>
        <time>2014-06-21T16:42:17Z</time>
      </trkpt>
      <trkpt lat="47.84166" lon="6.96725">
        <ele>993.18</ele>
        <time>2014-06-21T16:42:19Z</time>
      </trkpt>
      <trkpt lat="47.84168" lon="6.96721">
        <ele>989.33</ele>
        <time>2014-06-21T16:42:21Z</time>
      </trkpt>
      <trkpt lat="47.84169" lon="6.96719">
        <ele>993.66</ele>
        <time>2014-06-21T16:42:22Z</time>
      </trkpt>
      <trkpt lat="47.84172" lon="6.96714">
        <ele>990.3</ele>
        <time>2014-06-21T16:42:25Z</time>
      </trkpt>
      <trkpt lat="47.84173" lon="6.96712">
        <ele>991.26</ele>
        <time>2014-06-21T16:42:26Z</time>
      </trkpt>
      <trkpt lat="47.84174" lon="6.96711">
        <ele>995.58</ele>
        <time>2014-06-21T16:42:27Z</time>
      </trkpt>
      <trkpt lat="47.84175" lon="6.9671">
        <ele>995.58</ele>
        <time>2014-06-21T16:42:28Z</time>
      </trkpt>
      <trkpt lat="47.84176" lon="6.96708">
        <ele>991.26</ele>
        <time>2014-06-21T16:42:29Z</time>
      </trkpt>
      <trkpt lat="47.84177" lon="6.96707">
        <ele>992.7</ele>
        <time>2014-06-21T16:42:30Z</time>
      </trkpt>
      <trkpt lat="47.84179" lon="6.96703">
        <ele>995.58</ele>
        <time>2014-06-21T16:42:32Z</time>
      </trkpt>
      <trkpt lat="47.84179" lon="6.96701">
        <ele>990.3</ele>
        <time>2014-06-21T16:42:34Z</time>
      </trkpt>
      <trkpt lat="47.84179" lon="6.96699">
        <ele>990.78</ele>
        <time>2014-06-21T16:42:35Z</time>
      </trkpt>
      <trkpt lat="47.8418" lon="6.96698">
        <ele>993.66</ele>
        <time>2014-06-21T16:42:36Z</time>
      </trkpt>
      <trkpt lat="47.84181" lon="6.96696">
        <ele>995.1</ele>
        <time>2014-06-21T16:42:38Z</time>
      </trkpt>
      <trkpt lat="47.84182" lon="6.96694">
        <ele>992.22</ele>
        <time>2014-06-21T16:42:40Z</time>
      </trkpt>
      <trkpt lat="47.84182" lon="6.96692">
        <ele>995.58</ele>
        <time>2014-06-21T16:42:41Z</time>
      </trkpt>
      <trkpt lat="47.84183" lon="6.96688">
        <ele>991.26</ele>
        <time>2014-06-21T16:42:43Z</time>
      </trkpt>
      <trkpt lat="47.84183" lon="6.96686">
        <ele>994.14</ele>
        <time>2014-06-21T16:42:44Z</time>
      </trkpt>
      <trkpt lat="47.84184" lon="6.96665">
        <ele>989.81</ele>
        <time>2014-06-21T16:42:54Z</time>
      </trkpt>
      <trkpt lat="47.84185" lon="6.96648">
        <ele>986.45</ele>
        <time>2014-06-21T16:43:03Z</time>
      </trkpt>
      <trkpt lat="47.84191" lon="6.96643">
        <ele>991.26</ele>
        <time>2014-06-21T16:43:10Z</time>
      </trkpt>
      <trkpt lat="47.84194" lon="6.96639">
        <ele>992.22</ele>
        <time>2014-06-21T16:43:12Z</time>
      </trkpt>
      <trkpt lat="47.84198" lon="6.96635">
        <ele>991.74</ele>
        <time>2014-06-21T16:43:17Z</time>
      </trkpt>
      <trkpt lat="47.84201" lon="6.96629">
        <ele>983.09</ele>
        <time>2014-06-21T16:43:20Z</time>
      </trkpt>
      <trkpt lat="47.84204" lon="6.96623">
        <ele>984.53</ele>
        <time>2014-06-21T16:43:27Z</time>
      </trkpt>
      <trkpt lat="47.84206" lon="6.96622">
        <ele>980.68</ele>
        <time>2014-06-21T16:43:29Z</time>
      </trkpt>
      <trkpt lat="47.84207" lon="6.96622">
        <ele>985.01</ele>
        <time>2014-06-21T16:43:30Z</time>
      </trkpt>
      <trkpt lat="47.84208" lon="6.96621">
        <ele>989.33</ele>
        <time>2014-06-21T16:43:31Z</time>
      </trkpt>
      <trkpt lat="47.84209" lon="6.96619">
        <ele>987.89</ele>
        <time>2014-06-21T16:43:32Z</time>
      </trkpt>
      <trkpt lat="47.8421" lon="6.96618">
        <ele>984.05</ele>
        <time>2014-06-21T16:43:33Z</time>
      </trkpt>
      <trkpt lat="47.84212" lon="6.96617">
        <ele>984.05</ele>
        <time>2014-06-21T16:43:34Z</time>
      </trkpt>
      <trkpt lat="47.84213" lon="6.96617">
        <ele>987.89</ele>
        <time>2014-06-21T16:43:35Z</time>
      </trkpt>
      <trkpt lat="47.84215" lon="6.96617">
        <ele>987.41</ele>
        <time>2014-06-21T16:43:36Z</time>
      </trkpt>
      <trkpt lat="47.84216" lon="6.96616">
        <ele>984.05</ele>
        <time>2014-06-21T16:43:37Z</time>
      </trkpt>
      <trkpt lat="47.84219" lon="6.96612">
        <ele>981.16</ele>
        <time>2014-06-21T16:43:40Z</time>
      </trkpt>
      <trkpt lat="47.8422" lon="6.96611">
        <ele>981.64</ele>
        <time>2014-06-21T16:43:41Z</time>
      </trkpt>
      <trkpt lat="47.84223" lon="6.9661">
        <ele>985.49</ele>
        <time>2014-06-21T16:43:43Z</time>
      </trkpt>
      <trkpt lat="47.84229" lon="6.96609">
        <ele>981.16</ele>
        <time>2014-06-21T16:43:50Z</time>
      </trkpt>
      <trkpt lat="47.84229" lon="6.96609">
        <ele>984.05</ele>
        <time>2014-06-21T16:43:51Z</time>
      </trkpt>
      <trkpt lat="47.84232" lon="6.96607">
        <ele>978.28</ele>
        <time>2014-06-21T16:43:56Z</time>
      </trkpt>
      <trkpt lat="47.84233" lon="6.96606">
        <ele>983.09</ele>
        <time>2014-06-21T16:43:57Z</time>
      </trkpt>
      <trkpt lat="47.84234" lon="6.96604">
        <ele>984.53</ele>
        <time>2014-06-21T16:43:59Z</time>
      </trkpt>
      <trkpt lat="47.84236" lon="6.96603">
        <ele>979.72</ele>
        <time>2014-06-21T16:44:02Z</time>
      </trkpt>
      <trkpt lat="47.84237" lon="6.96603">
        <ele>979.72</ele>
        <time>2014-06-21T16:44:03Z</time>
      </trkpt>
      <trkpt lat="47.84248" lon="6.96594">
        <ele>982.6</ele>
        <time>2014-06-21T16:44:11Z</time>
      </trkpt>
      <trkpt lat="47.84254" lon="6.9659">
        <ele>981.64</ele>
        <time>2014-06-21T16:44:15Z</time>
      </trkpt>
      <trkpt lat="47.84263" lon="6.96587">
        <ele>986.45</ele>
        <time>2014-06-21T16:44:28Z</time>
      </trkpt>
      <trkpt lat="47.84265" lon="6.96586">
        <ele>985.49</ele>
        <time>2014-06-21T16:44:29Z</time>
      </trkpt>
      <trkpt lat="47.84273" lon="6.9658">
        <ele>982.12</ele>
        <time>2014-06-21T16:44:33Z</time>
      </trkpt>
      <trkpt lat="47.84278" lon="6.96576">
        <ele>985.49</ele>
        <time>2014-06-21T16:44:37Z</time>
      </trkpt>
      <trkpt lat="47.84279" lon="6.96576">
        <ele>981.16</ele>
        <time>2014-06-21T16:44:38Z</time>
      </trkpt>
      <trkpt lat="47.8428" lon="6.96575">
        <ele>981.64</ele>
        <time>2014-06-21T16:44:39Z</time>
      </trkpt>
      <trkpt lat="47.84281" lon="6.96575">
        <ele>985.97</ele>
        <time>2014-06-21T16:44:41Z</time>
      </trkpt>
      <trkpt lat="47.84281" lon="6.96575">
        <ele>982.12</ele>
        <time>2014-06-21T16:44:44Z</time>
      </trkpt>
      <trkpt lat="47.84283" lon="6.96574">
        <ele>985.01</ele>
        <time>2014-06-21T16:44:45Z</time>
      </trkpt>
      <trkpt lat="47.84292" lon="6.96566">
        <ele>985.01</ele>
        <time>2014-06-21T16:44:53Z</time>
      </trkpt>
      <trkpt lat="47.84301" lon="6.96562">
        <ele>986.93</ele>
        <time>2014-06-21T16:45:03Z</time>
      </trkpt>
      <trkpt lat="47.84304" lon="6.9656">
        <ele>983.09</ele>
        <time>2014-06-21T16:45:06Z</time>
      </trkpt>
      <trkpt lat="47.84306" lon="6.9656">
        <ele>986.45</ele>
        <time>2014-06-21T16:45:07Z</time>
      </trkpt>
      <trkpt lat="47.84317" lon="6.96556">
        <ele>986.45</ele>
        <time>2014-06-21T16:45:18Z</time>
      </trkpt>
      <trkpt lat="47.84318" lon="6.96556">
        <ele>990.3</ele>
        <time>2014-06-21T16:45:19Z</time>
      </trkpt>
      <trkpt lat="47.84319" lon="6.96556">
        <ele>985.01</ele>
        <time>2014-06-21T16:45:20Z</time>
      </trkpt>
      <trkpt lat="47.8432" lon="6.96555">
        <ele>988.37</ele>
        <time>2014-06-21T16:45:21Z</time>
      </trkpt>
      <trkpt lat="47.8432" lon="6.96555">
        <ele>985.01</ele>
        <time>2014-06-21T16:45:23Z</time>
      </trkpt>
      <trkpt lat="47.84321" lon="6.96556">
        <ele>988.85</ele>
        <time>2014-06-21T16:45:24Z</time>
      </trkpt>
      <trkpt lat="47.8433" lon="6.96553">
        <ele>992.22</ele>
        <time>2014-06-21T16:45:33Z</time>
      </trkpt>
      <trkpt lat="47.84331" lon="6.96552">
        <ele>987.41</ele>
        <time>2014-06-21T16:45:34Z</time>
      </trkpt>
      <trkpt lat="47.84333" lon="6.96549">
        <ele>993.66</ele>
        <time>2014-06-21T16:45:38Z</time>
      </trkpt>
      <trkpt lat="47.84334" lon="6.96547">
        <ele>991.74</ele>
        <time>2014-06-21T16:45:39Z</time>
      </trkpt>
      <trkpt lat="47.84335" lon="6.96545">
        <ele>987.89</ele>
        <time>2014-06-21T16:45:41Z</time>
      </trkpt>
      <trkpt lat="47.84336" lon="6.96543">
        <ele>993.18</ele>
        <time>2014-06-21T16:45:42Z</time>
      </trkpt>
      <trkpt lat="47.84339" lon="6.9654">
        <ele>988.37</ele>
        <time>2014-06-21T16:45:45Z</time>
      </trkpt>
      <trkpt lat="47.8434" lon="6.9654">
        <ele>991.74</ele>
        <time>2014-06-21T16:45:46Z</time>
      </trkpt>
      <trkpt lat="47.84343" lon="6.96537">
        <ele>995.58</ele>
        <time>2014-06-21T16:45:49Z</time>
      </trkpt>
      <trkpt lat="47.84344" lon="6.96536">
        <ele>989.81</ele>
        <time>2014-06-21T16:45:50Z</time>
      </trkpt>
      <trkpt lat="47.84345" lon="6.96534">
        <ele>994.14</ele>
        <time>2014-06-21T16:45:51Z</time>
      </trkpt>
      <trkpt lat="47.84351" lon="6.96525">
        <ele>990.78</ele>
        <time>2014-06-21T16:45:58Z</time>
      </trkpt>
      <trkpt lat="47.84352" lon="6.96522">
        <ele>994.14</ele>
        <time>2014-06-21T16:45:59Z</time>
      </trkpt>
      <trkpt lat="47.8436" lon="6.96507">
        <ele>997.51</ele>
        <time>2014-06-21T16:46:06Z</time>
      </trkpt>
      <trkpt lat="47.8436" lon="6.96505">
        <ele>991.74</ele>
        <time>2014-06-21T16:46:07Z</time>
      </trkpt>
      <trkpt lat="47.8436" lon="6.96504">
        <ele>996.06</ele>
        <time>2014-06-21T16:46:08Z</time>
      </trkpt>
      <trkpt lat="47.84362" lon="6.96502">
        <ele>991.26</ele>
        <time>2014-06-21T16:46:11Z</time>
      </trkpt>
      <trkpt lat="47.84364" lon="6.96502">
        <ele>996.54</ele>
        <time>2014-06-21T16:46:12Z</time>
      </trkpt>
      <trkpt lat="47.84366" lon="6.96501">
        <ele>989.81</ele>
        <time>2014-06-21T16:46:14Z</time>
      </trkpt>
      <trkpt lat="47.84366" lon="6.96501">
        <ele>992.22</ele>
        <time>2014-06-21T16:46:15Z</time>
      </trkpt>
      <trkpt lat="47.84367" lon="6.96501">
        <ele>997.99</ele>
        <time>2014-06-21T16:46:16Z</time>
      </trkpt>
      <trkpt lat="47.84367" lon="6.96501">
        <ele>1000.87</ele>
        <time>2014-06-21T16:46:17Z</time>
      </trkpt>
      <trkpt lat="47.84368" lon="6.965">
        <ele>996.06</ele>
        <time>2014-06-21T16:46:18Z</time>
      </trkpt>
      <trkpt lat="47.84369" lon="6.96498">
        <ele>998.95</ele>
        <time>2014-06-21T16:46:20Z</time>
      </trkpt>
      <trkpt lat="47.8437" lon="6.96495">
        <ele>997.02</ele>
        <time>2014-06-21T16:46:22Z</time>
      </trkpt>
      <trkpt lat="47.84371" lon="6.96493">
        <ele>997.02</ele>
        <time>2014-06-21T16:46:23Z</time>
      </trkpt>
      <trkpt lat="47.84372" lon="6.96491">
        <ele>999.91</ele>
        <time>2014-06-21T16:46:24Z</time>
      </trkpt>
      <trkpt lat="47.84373" lon="6.96487">
        <ele>997.02</ele>
        <time>2014-06-21T16:46:26Z</time>
      </trkpt>
      <trkpt lat="47.84373" lon="6.96485">
        <ele>997.51</ele>
        <time>2014-06-21T16:46:27Z</time>
      </trkpt>
      <trkpt lat="47.84379" lon="6.96472">
        <ele>1000.87</ele>
        <time>2014-06-21T16:46:36Z</time>
      </trkpt>
      <trkpt lat="47.8438" lon="6.96471">
        <ele>1000.87</ele>
        <time>2014-06-21T16:46:37Z</time>
      </trkpt>
      <trkpt lat="47.84381" lon="6.96467">
        <ele>995.58</ele>
        <time>2014-06-21T16:46:39Z</time>
      </trkpt>
      <trkpt lat="47.84382" lon="6.96466">
        <ele>997.51</ele>
        <time>2014-06-21T16:46:40Z</time>
      </trkpt>
      <trkpt lat="47.84383" lon="6.96462">
        <ele>1003.27</ele>
        <time>2014-06-21T16:46:42Z</time>
      </trkpt>
      <trkpt lat="47.84383" lon="6.96462">
        <ele>1002.79</ele>
        <time>2014-06-21T16:46:43Z</time>
      </trkpt>
      <trkpt lat="47.84387" lon="6.96448">
        <ele>998.95</ele>
        <time>2014-06-21T16:46:50Z</time>
      </trkpt>
      <trkpt lat="47.84387" lon="6.96445">
        <ele>1002.79</ele>
        <time>2014-06-21T16:46:52Z</time>
      </trkpt>
      <trkpt lat="47.84388" lon="6.96443">
        <ele>1004.72</ele>
        <time>2014-06-21T16:46:54Z</time>
      </trkpt>
      <trkpt lat="47.84388" lon="6.96439">
        <ele>999.91</ele>
        <time>2014-06-21T16:46:57Z</time>
      </trkpt>
      <trkpt lat="47.84388" lon="6.96437">
        <ele>996.06</ele>
        <time>2014-06-21T16:46:58Z</time>
      </trkpt>
      <trkpt lat="47.84389" lon="6.96436">
        <ele>997.02</ele>
        <time>2014-06-21T16:46:59Z</time>
      </trkpt>
      <trkpt lat="47.84389" lon="6.96435">
        <ele>1001.83</ele>
        <time>2014-06-21T16:47:00Z</time>
      </trkpt>
      <trkpt lat="47.8439" lon="6.96433">
        <ele>1004.23</ele>
        <time>2014-06-21T16:47:02Z</time>
      </trkpt>
      <trkpt lat="47.8439" lon="6.96432">
        <ele>999.43</ele>
        <time>2014-06-21T16:47:04Z</time>
      </trkpt>
      <trkpt lat="47.84391" lon="6.96431">
        <ele>1003.75</ele>
        <time>2014-06-21T16:47:06Z</time>
      </trkpt>
      <trkpt lat="47.84392" lon="6.96427">
        <ele>998.95</ele>
        <time>2014-06-21T16:47:09Z</time>
      </trkpt>
      <trkpt lat="47.84393" lon="6.96425">
        <ele>1003.75</ele>
        <time>2014-06-21T16:47:11Z</time>
      </trkpt>
      <trkpt lat="47.84393" lon="6.96421">
        <ele>1001.83</ele>
        <time>2014-06-21T16:47:14Z</time>
      </trkpt>
      <trkpt lat="47.84394" lon="6.96416">
        <ele>1004.23</ele>
        <time>2014-06-21T16:47:16Z</time>
      </trkpt>
      <trkpt lat="47.84394" lon="6.96412">
        <ele>1009.52</ele>
        <time>2014-06-21T16:47:18Z</time>
      </trkpt>
      <trkpt lat="47.84393" lon="6.9641">
        <ele>1001.83</ele>
        <time>2014-06-21T16:47:19Z</time>
      </trkpt>
      <trkpt lat="47.84393" lon="6.96408">
        <ele>1001.83</ele>
        <time>2014-06-21T16:47:20Z</time>
      </trkpt>
      <trkpt lat="47.84393" lon="6.96406">
        <ele>1007.6</ele>
        <time>2014-06-21T16:47:22Z</time>
      </trkpt>
      <trkpt lat="47.84393" lon="6.96405">
        <ele>1007.12</ele>
        <time>2014-06-21T16:47:23Z</time>
      </trkpt>
      <trkpt lat="47.84393" lon="6.96398">
        <ele>1008.56</ele>
        <time>2014-06-21T16:47:27Z</time>
      </trkpt>
      <trkpt lat="47.84392" lon="6.96395">
        <ele>1005.2</ele>
        <time>2014-06-21T16:47:29Z</time>
      </trkpt>
      <trkpt lat="47.84393" lon="6.96393">
        <ele>1008.08</ele>
        <time>2014-06-21T16:47:31Z</time>
      </trkpt>
      <trkpt lat="47.84393" lon="6.96391">
        <ele>1009.04</ele>
        <time>2014-06-21T16:47:32Z</time>
      </trkpt>
      <trkpt lat="47.84393" lon="6.96389">
        <ele>1002.79</ele>
        <time>2014-06-21T16:47:33Z</time>
      </trkpt>
      <trkpt lat="47.84393" lon="6.96387">
        <ele>1007.6</ele>
        <time>2014-06-21T16:47:34Z</time>
      </trkpt>
      <trkpt lat="47.84394" lon="6.96385">
        <ele>1007.6</ele>
        <time>2014-06-21T16:47:35Z</time>
      </trkpt>
      <trkpt lat="47.84395" lon="6.96379">
        <ele>1011.93</ele>
        <time>2014-06-21T16:47:36Z</time>
      </trkpt>
      <trkpt lat="47.84396" lon="6.9637">
        <ele>1005.68</ele>
        <time>2014-06-21T16:47:38Z</time>
      </trkpt>
      <trkpt lat="47.84396" lon="6.96368">
        <ele>1007.12</ele>
        <time>2014-06-21T16:47:39Z</time>
      </trkpt>
      <trkpt lat="47.84396" lon="6.96366">
        <ele>1010.48</ele>
        <time>2014-06-21T16:47:41Z</time>
      </trkpt>
      <trkpt lat="47.84397" lon="6.96362">
        <ele>1008.56</ele>
        <time>2014-06-21T16:47:44Z</time>
      </trkpt>
      <trkpt lat="47.84398" lon="6.96354">
        <ele>1012.89</ele>
        <time>2014-06-21T16:47:50Z</time>
      </trkpt>
      <trkpt lat="47.84398" lon="6.96353">
        <ele>1008.08</ele>
        <time>2014-06-21T16:47:51Z</time>
      </trkpt>
      <trkpt lat="47.84399" lon="6.96348">
        <ele>1013.37</ele>
        <time>2014-06-21T16:47:55Z</time>
      </trkpt>
      <trkpt lat="47.84399" lon="6.96347">
        <ele>1008.08</ele>
        <time>2014-06-21T16:47:56Z</time>
      </trkpt>
      <trkpt lat="47.844" lon="6.96344">
        <ele>1012.89</ele>
        <time>2014-06-21T16:47:59Z</time>
      </trkpt>
      <trkpt lat="47.844" lon="6.96342">
        <ele>1010</ele>
        <time>2014-06-21T16:48:01Z</time>
      </trkpt>
      <trkpt lat="47.844" lon="6.96341">
        <ele>1006.64</ele>
        <time>2014-06-21T16:48:02Z</time>
      </trkpt>
      <trkpt lat="47.844" lon="6.9634">
        <ele>1011.93</ele>
        <time>2014-06-21T16:48:05Z</time>
      </trkpt>
      <trkpt lat="47.84401" lon="6.96339">
        <ele>1007.12</ele>
        <time>2014-06-21T16:48:07Z</time>
      </trkpt>
      <trkpt lat="47.84401" lon="6.96337">
        <ele>1011.44</ele>
        <time>2014-06-21T16:48:08Z</time>
      </trkpt>
      <trkpt lat="47.84401" lon="6.96334">
        <ele>1013.85</ele>
        <time>2014-06-21T16:48:11Z</time>
      </trkpt>
      <trkpt lat="47.84402" lon="6.96332">
        <ele>1007.6</ele>
        <time>2014-06-21T16:48:12Z</time>
      </trkpt>
      <trkpt lat="47.84402" lon="6.9633">
        <ele>1011.44</ele>
        <time>2014-06-21T16:48:13Z</time>
      </trkpt>
      <trkpt lat="47.84403" lon="6.96326">
        <ele>1015.77</ele>
        <time>2014-06-21T16:48:15Z</time>
      </trkpt>
      <trkpt lat="47.84404" lon="6.96323">
        <ele>1010.48</ele>
        <time>2014-06-21T16:48:16Z</time>
      </trkpt>
      <trkpt lat="47.84405" lon="6.9632">
        <ele>1013.85</ele>
        <time>2014-06-21T16:48:18Z</time>
      </trkpt>
      <trkpt lat="47.84406" lon="6.96317">
        <ele>1009.52</ele>
        <time>2014-06-21T16:48:21Z</time>
      </trkpt>
      <trkpt lat="47.84406" lon="6.96315">
        <ele>1011.44</ele>
        <time>2014-06-21T16:48:22Z</time>
      </trkpt>
      <trkpt lat="47.84407" lon="6.96313">
        <ele>1015.29</ele>
        <time>2014-06-21T16:48:23Z</time>
      </trkpt>
      <trkpt lat="47.84408" lon="6.96311">
        <ele>1015.77</ele>
        <time>2014-06-21T16:48:24Z</time>
      </trkpt>
      <trkpt lat="47.8441" lon="6.96308">
        <ele>1009.04</ele>
        <time>2014-06-21T16:48:26Z</time>
      </trkpt>
      <trkpt lat="47.84411" lon="6.96307">
        <ele>1012.89</ele>
        <time>2014-06-21T16:48:27Z</time>
      </trkpt>
      <trkpt lat="47.84411" lon="6.96305">
        <ele>1016.25</ele>
        <time>2014-06-21T16:48:28Z</time>
      </trkpt>
      <trkpt lat="47.84412" lon="6.96303">
        <ele>1016.25</ele>
        <time>2014-06-21T16:48:29Z</time>
      </trkpt>
      <trkpt lat="47.84412" lon="6.963">
        <ele>1010.96</ele>
        <time>2014-06-21T16:48:31Z</time>
      </trkpt>
      <trkpt lat="47.84412" lon="6.96298">
        <ele>1014.81</ele>
        <time>2014-06-21T16:48:32Z</time>
      </trkpt>
      <trkpt lat="47.84414" lon="6.96291">
        <ele>1011.44</ele>
        <time>2014-06-21T16:48:36Z</time>
      </trkpt>
      <trkpt lat="47.84415" lon="6.96289">
        <ele>1011.44</ele>
        <time>2014-06-21T16:48:37Z</time>
      </trkpt>
      <trkpt lat="47.84416" lon="6.96287">
        <ele>1015.77</ele>
        <time>2014-06-21T16:48:38Z</time>
      </trkpt>
      <trkpt lat="47.84416" lon="6.96286">
        <ele>1018.65</ele>
        <time>2014-06-21T16:48:39Z</time>
      </trkpt>
      <trkpt lat="47.84417" lon="6.96284">
        <ele>1017.69</ele>
        <time>2014-06-21T16:48:40Z</time>
      </trkpt>
      <trkpt lat="47.84418" lon="6.96281">
        <ele>1017.69</ele>
        <time>2014-06-21T16:48:43Z</time>
      </trkpt>
      <trkpt lat="47.84418" lon="6.9628">
        <ele>1017.21</ele>
        <time>2014-06-21T16:48:44Z</time>
      </trkpt>
      <trkpt lat="47.84422" lon="6.96276">
        <ele>1015.29</ele>
        <time>2014-06-21T16:48:47Z</time>
      </trkpt>
      <trkpt lat="47.84424" lon="6.96273">
        <ele>1019.62</ele>
        <time>2014-06-21T16:48:49Z</time>
      </trkpt>
      <trkpt lat="47.84424" lon="6.96272">
        <ele>1014.33</ele>
        <time>2014-06-21T16:48:50Z</time>
      </trkpt>
      <trkpt lat="47.84427" lon="6.96268">
        <ele>1019.62</ele>
        <time>2014-06-21T16:48:55Z</time>
      </trkpt>
      <trkpt lat="47.84428" lon="6.96265">
        <ele>1015.29</ele>
        <time>2014-06-21T16:48:57Z</time>
      </trkpt>
      <trkpt lat="47.8443" lon="6.96262">
        <ele>1021.06</ele>
        <time>2014-06-21T16:49:00Z</time>
      </trkpt>
      <trkpt lat="47.8443" lon="6.96261">
        <ele>1017.21</ele>
        <time>2014-06-21T16:49:01Z</time>
      </trkpt>
      <trkpt lat="47.84434" lon="6.96256">
        <ele>1022.02</ele>
        <time>2014-06-21T16:49:05Z</time>
      </trkpt>
      <trkpt lat="47.84435" lon="6.96254">
        <ele>1021.06</ele>
        <time>2014-06-21T16:49:06Z</time>
      </trkpt>
      <trkpt lat="47.84438" lon="6.96251">
        <ele>1017.69</ele>
        <time>2014-06-21T16:49:07Z</time>
      </trkpt>
      <trkpt lat="47.84439" lon="6.96248">
        <ele>1020.58</ele>
        <time>2014-06-21T16:49:09Z</time>
      </trkpt>
      <trkpt lat="47.8444" lon="6.96238">
        <ele>1020.1</ele>
        <time>2014-06-21T16:49:17Z</time>
      </trkpt>
      <trkpt lat="47.8444" lon="6.96236">
        <ele>1022.98</ele>
        <time>2014-06-21T16:49:18Z</time>
      </trkpt>
      <trkpt lat="47.8444" lon="6.96235">
        <ele>1016.73</ele>
        <time>2014-06-21T16:49:19Z</time>
      </trkpt>
      <trkpt lat="47.8444" lon="6.96235">
        <ele>1021.06</ele>
        <time>2014-06-21T16:49:20Z</time>
      </trkpt>
      <trkpt lat="47.8444" lon="6.96233">
        <ele>1025.86</ele>
        <time>2014-06-21T16:49:22Z</time>
      </trkpt>
      <trkpt lat="47.84441" lon="6.96231">
        <ele>1021.06</ele>
        <time>2014-06-21T16:49:23Z</time>
      </trkpt>
      <trkpt lat="47.84444" lon="6.96221">
        <ele>1025.86</ele>
        <time>2014-06-21T16:49:32Z</time>
      </trkpt>
      <trkpt lat="47.84444" lon="6.96218">
        <ele>1023.94</ele>
        <time>2014-06-21T16:49:33Z</time>
      </trkpt>
      <trkpt lat="47.84444" lon="6.96216">
        <ele>1019.62</ele>
        <time>2014-06-21T16:49:34Z</time>
      </trkpt>
      <trkpt lat="47.84446" lon="6.96211">
        <ele>1024.42</ele>
        <time>2014-06-21T16:49:36Z</time>
      </trkpt>
      <trkpt lat="47.84446" lon="6.96209">
        <ele>1023.94</ele>
        <time>2014-06-21T16:49:37Z</time>
      </trkpt>
      <trkpt lat="47.84448" lon="6.96203">
        <ele>1019.13</ele>
        <time>2014-06-21T16:49:40Z</time>
      </trkpt>
      <trkpt lat="47.84449" lon="6.96202">
        <ele>1023.46</ele>
        <time>2014-06-21T16:49:41Z</time>
      </trkpt>
      <trkpt lat="47.84449" lon="6.96201">
        <ele>1026.83</ele>
        <time>2014-06-21T16:49:42Z</time>
      </trkpt>
      <trkpt lat="47.84449" lon="6.962">
        <ele>1024.42</ele>
        <time>2014-06-21T16:49:43Z</time>
      </trkpt>
      <trkpt lat="47.8445" lon="6.962">
        <ele>1021.06</ele>
        <time>2014-06-21T16:49:44Z</time>
      </trkpt>
      <trkpt lat="47.8445" lon="6.96199">
        <ele>1021.54</ele>
        <time>2014-06-21T16:49:45Z</time>
      </trkpt>
      <trkpt lat="47.8445" lon="6.96197">
        <ele>1025.38</ele>
        <time>2014-06-21T16:49:46Z</time>
      </trkpt>
      <trkpt lat="47.84452" lon="6.96192">
        <ele>1021.06</ele>
        <time>2014-06-21T16:49:49Z</time>
      </trkpt>
      <trkpt lat="47.84453" lon="6.96187">
        <ele>1026.83</ele>
        <time>2014-06-21T16:49:52Z</time>
      </trkpt>
      <trkpt lat="47.84454" lon="6.96184">
        <ele>1022.02</ele>
        <time>2014-06-21T16:49:54Z</time>
      </trkpt>
      <trkpt lat="47.84454" lon="6.96183">
        <ele>1022.02</ele>
        <time>2014-06-21T16:49:55Z</time>
      </trkpt>
      <trkpt lat="47.84454" lon="6.96183">
        <ele>1026.34</ele>
        <time>2014-06-21T16:49:56Z</time>
      </trkpt>
      <trkpt lat="47.84454" lon="6.96181">
        <ele>1029.71</ele>
        <time>2014-06-21T16:49:57Z</time>
      </trkpt>
      <trkpt lat="47.84455" lon="6.96179">
        <ele>1025.86</ele>
        <time>2014-06-21T16:49:58Z</time>
      </trkpt>
      <trkpt lat="47.84455" lon="6.96178">
        <ele>1022.5</ele>
        <time>2014-06-21T16:49:59Z</time>
      </trkpt>
      <trkpt lat="47.84458" lon="6.96175">
        <ele>1026.83</ele>
        <time>2014-06-21T16:50:01Z</time>
      </trkpt>
      <trkpt lat="47.84459" lon="6.96173">
        <ele>1026.34</ele>
        <time>2014-06-21T16:50:02Z</time>
      </trkpt>
      <trkpt lat="47.8446" lon="6.9617">
        <ele>1022.02</ele>
        <time>2014-06-21T16:50:05Z</time>
      </trkpt>
      <trkpt lat="47.8446" lon="6.96167">
        <ele>1029.23</ele>
        <time>2014-06-21T16:50:07Z</time>
      </trkpt>
      <trkpt lat="47.8446" lon="6.96165">
        <ele>1025.86</ele>
        <time>2014-06-21T16:50:09Z</time>
      </trkpt>
      <trkpt lat="47.8446" lon="6.96164">
        <ele>1025.86</ele>
        <time>2014-06-21T16:50:10Z</time>
      </trkpt>
      <trkpt lat="47.84461" lon="6.96162">
        <ele>1024.42</ele>
        <time>2014-06-21T16:50:11Z</time>
      </trkpt>
      <trkpt lat="47.84461" lon="6.9616">
        <ele>1027.79</ele>
        <time>2014-06-21T16:50:12Z</time>
      </trkpt>
      <trkpt lat="47.84462" lon="6.96158">
        <ele>1030.19</ele>
        <time>2014-06-21T16:50:14Z</time>
      </trkpt>
      <trkpt lat="47.84463" lon="6.96156">
        <ele>1027.31</ele>
        <time>2014-06-21T16:50:15Z</time>
      </trkpt>
      <trkpt lat="47.84463" lon="6.96154">
        <ele>1024.9</ele>
        <time>2014-06-21T16:50:16Z</time>
      </trkpt>
      <trkpt lat="47.84464" lon="6.96152">
        <ele>1028.27</ele>
        <time>2014-06-21T16:50:17Z</time>
      </trkpt>
      <trkpt lat="47.84464" lon="6.9615">
        <ele>1028.27</ele>
        <time>2014-06-21T16:50:18Z</time>
      </trkpt>
      <trkpt lat="47.84465" lon="6.96149">
        <ele>1030.67</ele>
        <time>2014-06-21T16:50:19Z</time>
      </trkpt>
      <trkpt lat="47.84466" lon="6.96147">
        <ele>1027.79</ele>
        <time>2014-06-21T16:50:20Z</time>
      </trkpt>
      <trkpt lat="47.84467" lon="6.96145">
        <ele>1025.38</ele>
        <time>2014-06-21T16:50:21Z</time>
      </trkpt>
      <trkpt lat="47.84468" lon="6.96144">
        <ele>1023.94</ele>
        <time>2014-06-21T16:50:22Z</time>
      </trkpt>
      <trkpt lat="47.84469" lon="6.9614">
        <ele>1029.23</ele>
        <time>2014-06-21T16:50:24Z</time>
      </trkpt>
      <trkpt lat="47.84469" lon="6.96139">
        <ele>1032.11</ele>
        <time>2014-06-21T16:50:25Z</time>
      </trkpt>
      <trkpt lat="47.8447" lon="6.96138">
        <ele>1027.79</ele>
        <time>2014-06-21T16:50:26Z</time>
      </trkpt>
      <trkpt lat="47.8447" lon="6.96135">
        <ele>1025.86</ele>
        <time>2014-06-21T16:50:28Z</time>
      </trkpt>
      <trkpt lat="47.84471" lon="6.96134">
        <ele>1029.23</ele>
        <time>2014-06-21T16:50:29Z</time>
      </trkpt>
      <trkpt lat="47.84471" lon="6.96134">
        <ele>1033.07</ele>
        <time>2014-06-21T16:50:30Z</time>
      </trkpt>
      <trkpt lat="47.84471" lon="6.96133">
        <ele>1031.15</ele>
        <time>2014-06-21T16:50:31Z</time>
      </trkpt>
      <trkpt lat="47.84471" lon="6.96133">
        <ele>1026.83</ele>
        <time>2014-06-21T16:50:32Z</time>
      </trkpt>
      <trkpt lat="47.84473" lon="6.96129">
        <ele>1032.59</ele>
        <time>2014-06-21T16:50:35Z</time>
      </trkpt>
      <trkpt lat="47.84473" lon="6.96129">
        <ele>1029.23</ele>
        <time>2014-06-21T16:50:37Z</time>
      </trkpt>
      <trkpt lat="47.84473" lon="6.96129">
        <ele>1033.07</ele>
        <time>2014-06-21T16:50:41Z</time>
      </trkpt>
      <trkpt lat="47.84475" lon="6.96128">
        <ele>1029.71</ele>
        <time>2014-06-21T16:50:43Z</time>
      </trkpt>
      <trkpt lat="47.84478" lon="6.96126">
        <ele>1026.34</ele>
        <time>2014-06-21T16:50:45Z</time>
      </trkpt>
      <trkpt lat="47.84481" lon="6.96124">
        <ele>1033.55</ele>
        <time>2014-06-21T16:50:47Z</time>
      </trkpt>
      <trkpt lat="47.84482" lon="6.96124">
        <ele>1033.07</ele>
        <time>2014-06-21T16:50:48Z</time>
      </trkpt>
      <trkpt lat="47.84485" lon="6.96123">
        <ele>1028.75</ele>
        <time>2014-06-21T16:50:50Z</time>
      </trkpt>
      <trkpt lat="47.84488" lon="6.96122">
        <ele>1032.59</ele>
        <time>2014-06-21T16:50:53Z</time>
      </trkpt>
      <trkpt lat="47.84489" lon="6.96122">
        <ele>1036.44</ele>
        <time>2014-06-21T16:50:54Z</time>
      </trkpt>
      <trkpt lat="47.8449" lon="6.96122">
        <ele>1036.44</ele>
        <time>2014-06-21T16:50:55Z</time>
      </trkpt>
      <trkpt lat="47.84492" lon="6.96122">
        <ele>1027.31</ele>
        <time>2014-06-21T16:50:56Z</time>
      </trkpt>
      <trkpt lat="47.84495" lon="6.96121">
        <ele>1031.63</ele>
        <time>2014-06-21T16:50:59Z</time>
      </trkpt>
      <trkpt lat="47.84496" lon="6.96121">
        <ele>1036.92</ele>
        <time>2014-06-21T16:51:01Z</time>
      </trkpt>
      <trkpt lat="47.84496" lon="6.96121">
        <ele>1032.59</ele>
        <time>2014-06-21T16:51:02Z</time>
      </trkpt>
      <trkpt lat="47.84497" lon="6.9612">
        <ele>1028.27</ele>
        <time>2014-06-21T16:51:03Z</time>
      </trkpt>
      <trkpt lat="47.84498" lon="6.96119">
        <ele>1034.04</ele>
        <time>2014-06-21T16:51:04Z</time>
      </trkpt>
      <trkpt lat="47.84501" lon="6.96117">
        <ele>1036.92</ele>
        <time>2014-06-21T16:51:06Z</time>
      </trkpt>
      <trkpt lat="47.84501" lon="6.96117">
        <ele>1032.59</ele>
        <time>2014-06-21T16:51:07Z</time>
      </trkpt>
      <trkpt lat="47.84502" lon="6.96117">
        <ele>1027.79</ele>
        <time>2014-06-21T16:51:08Z</time>
      </trkpt>
      <trkpt lat="47.84504" lon="6.96116">
        <ele>1031.63</ele>
        <time>2014-06-21T16:51:09Z</time>
      </trkpt>
      <trkpt lat="47.84506" lon="6.96116">
        <ele>1035.48</ele>
        <time>2014-06-21T16:51:10Z</time>
      </trkpt>
      <trkpt lat="47.84516" lon="6.96108">
        <ele>1032.11</ele>
        <time>2014-06-21T16:51:13Z</time>
      </trkpt>
      <trkpt lat="47.8452" lon="6.96106">
        <ele>1032.11</ele>
        <time>2014-06-21T16:51:14Z</time>
      </trkpt>
      <trkpt lat="47.84525" lon="6.96104">
        <ele>1035.96</ele>
        <time>2014-06-21T16:51:16Z</time>
      </trkpt>
      <trkpt lat="47.84532" lon="6.96101">
        <ele>1039.8</ele>
        <time>2014-06-21T16:51:20Z</time>
      </trkpt>
      <trkpt lat="47.84532" lon="6.96101">
        <ele>1036.44</ele>
        <time>2014-06-21T16:51:21Z</time>
      </trkpt>
      <trkpt lat="47.84534" lon="6.961">
        <ele>1033.07</ele>
        <time>2014-06-21T16:51:22Z</time>
      </trkpt>
      <trkpt lat="47.84535" lon="6.961">
        <ele>1035</ele>
        <time>2014-06-21T16:51:23Z</time>
      </trkpt>
      <trkpt lat="47.84537" lon="6.96099">
        <ele>1040.76</ele>
        <time>2014-06-21T16:51:24Z</time>
      </trkpt>
      <trkpt lat="47.84539" lon="6.96096">
        <ele>1033.55</ele>
        <time>2014-06-21T16:51:26Z</time>
      </trkpt>
      <trkpt lat="47.84541" lon="6.96095">
        <ele>1035.96</ele>
        <time>2014-06-21T16:51:27Z</time>
      </trkpt>
      <trkpt lat="47.84542" lon="6.96094">
        <ele>1039.8</ele>
        <time>2014-06-21T16:51:28Z</time>
      </trkpt>
      <trkpt lat="47.84545" lon="6.96091">
        <ele>1035</ele>
        <time>2014-06-21T16:51:32Z</time>
      </trkpt>
      <trkpt lat="47.84546" lon="6.9609">
        <ele>1039.8</ele>
        <time>2014-06-21T16:51:33Z</time>
      </trkpt>
      <trkpt lat="47.84548" lon="6.96089">
        <ele>1043.17</ele>
        <time>2014-06-21T16:51:35Z</time>
      </trkpt>
      <trkpt lat="47.84551" lon="6.96088">
        <ele>1035.96</ele>
        <time>2014-06-21T16:51:37Z</time>
      </trkpt>
      <trkpt lat="47.84552" lon="6.96088">
        <ele>1039.8</ele>
        <time>2014-06-21T16:51:38Z</time>
      </trkpt>
      <trkpt lat="47.84553" lon="6.96088">
        <ele>1041.73</ele>
        <time>2014-06-21T16:51:40Z</time>
      </trkpt>
      <trkpt lat="47.84555" lon="6.96086">
        <ele>1035</ele>
        <time>2014-06-21T16:51:42Z</time>
      </trkpt>
      <trkpt lat="47.84556" lon="6.96085">
        <ele>1036.92</ele>
        <time>2014-06-21T16:51:43Z</time>
      </trkpt>
      <trkpt lat="47.84557" lon="6.96084">
        <ele>1041.73</ele>
        <time>2014-06-21T16:51:44Z</time>
      </trkpt>
      <trkpt lat="47.84561" lon="6.96082">
        <ele>1035.96</ele>
        <time>2014-06-21T16:51:48Z</time>
      </trkpt>
      <trkpt lat="47.84562" lon="6.96082">
        <ele>1038.36</ele>
        <time>2014-06-21T16:51:49Z</time>
      </trkpt>
      <trkpt lat="47.84563" lon="6.96082">
        <ele>1042.69</ele>
        <time>2014-06-21T16:51:50Z</time>
      </trkpt>
      <trkpt lat="47.84566" lon="6.96082">
        <ele>1039.32</ele>
        <time>2014-06-21T16:51:53Z</time>
      </trkpt>
      <trkpt lat="47.84569" lon="6.9608">
        <ele>1043.17</ele>
        <time>2014-06-21T16:51:56Z</time>
      </trkpt>
      <trkpt lat="47.84571" lon="6.9608">
        <ele>1043.65</ele>
        <time>2014-06-21T16:51:58Z</time>
      </trkpt>
      <trkpt lat="47.84573" lon="6.96079">
        <ele>1038.84</ele>
        <time>2014-06-21T16:51:59Z</time>
      </trkpt>
      <trkpt lat="47.84574" lon="6.96078">
        <ele>1038.36</ele>
        <time>2014-06-21T16:52:00Z</time>
      </trkpt>
      <trkpt lat="47.84577" lon="6.96075">
        <ele>1043.65</ele>
        <time>2014-06-21T16:52:02Z</time>
      </trkpt>
      <trkpt lat="47.84582" lon="6.9607">
        <ele>1037.88</ele>
        <time>2014-06-21T16:52:06Z</time>
      </trkpt>
      <trkpt lat="47.84584" lon="6.96068">
        <ele>1038.84</ele>
        <time>2014-06-21T16:52:07Z</time>
      </trkpt>
      <trkpt lat="47.84588" lon="6.96065">
        <ele>1043.17</ele>
        <time>2014-06-21T16:52:09Z</time>
      </trkpt>
      <trkpt lat="47.8459" lon="6.96063">
        <ele>1043.17</ele>
        <time>2014-06-21T16:52:10Z</time>
      </trkpt>
      <trkpt lat="47.84592" lon="6.9606">
        <ele>1044.61</ele>
        <time>2014-06-21T16:52:12Z</time>
      </trkpt>
      <trkpt lat="47.84594" lon="6.96058">
        <ele>1040.76</ele>
        <time>2014-06-21T16:52:14Z</time>
      </trkpt>
      <trkpt lat="47.84594" lon="6.96057">
        <ele>1044.13</ele>
        <time>2014-06-21T16:52:15Z</time>
      </trkpt>
      <trkpt lat="47.84595" lon="6.96057">
        <ele>1044.61</ele>
        <time>2014-06-21T16:52:16Z</time>
      </trkpt>
      <trkpt lat="47.84602" lon="6.9605">
        <ele>1043.65</ele>
        <time>2014-06-21T16:52:23Z</time>
      </trkpt>
      <trkpt lat="47.84604" lon="6.96048">
        <ele>1042.21</ele>
        <time>2014-06-21T16:52:25Z</time>
      </trkpt>
      <trkpt lat="47.84608" lon="6.96039">
        <ele>1047.97</ele>
        <time>2014-06-21T16:52:30Z</time>
      </trkpt>
      <trkpt lat="47.84612" lon="6.96034">
        <ele>1044.61</ele>
        <time>2014-06-21T16:52:34Z</time>
      </trkpt>
      <trkpt lat="47.84617" lon="6.96024">
        <ele>1048.94</ele>
        <time>2014-06-21T16:52:42Z</time>
      </trkpt>
      <trkpt lat="47.84617" lon="6.96022">
        <ele>1047.97</ele>
        <time>2014-06-21T16:52:43Z</time>
      </trkpt>
      <trkpt lat="47.84618" lon="6.96021">
        <ele>1044.61</ele>
        <time>2014-06-21T16:52:44Z</time>
      </trkpt>
      <trkpt lat="47.84618" lon="6.96019">
        <ele>1043.65</ele>
        <time>2014-06-21T16:52:46Z</time>
      </trkpt>
      <trkpt lat="47.84619" lon="6.96018">
        <ele>1046.05</ele>
        <time>2014-06-21T16:52:47Z</time>
      </trkpt>
      <trkpt lat="47.8462" lon="6.96013">
        <ele>1050.86</ele>
        <time>2014-06-21T16:52:50Z</time>
      </trkpt>
      <trkpt lat="47.8462" lon="6.96013">
        <ele>1050.86</ele>
        <time>2014-06-21T16:52:51Z</time>
      </trkpt>
      <trkpt lat="47.84621" lon="6.96012">
        <ele>1047.49</ele>
        <time>2014-06-21T16:52:52Z</time>
      </trkpt>
      <trkpt lat="47.84621" lon="6.96012">
        <ele>1047.49</ele>
        <time>2014-06-21T16:52:53Z</time>
      </trkpt>
      <trkpt lat="47.84622" lon="6.96011">
        <ele>1050.86</ele>
        <time>2014-06-21T16:52:56Z</time>
      </trkpt>
      <trkpt lat="47.84622" lon="6.9601">
        <ele>1047.97</ele>
        <time>2014-06-21T16:52:57Z</time>
      </trkpt>
      <trkpt lat="47.84623" lon="6.9601">
        <ele>1044.61</ele>
        <time>2014-06-21T16:52:59Z</time>
      </trkpt>
      <trkpt lat="47.84623" lon="6.96007">
        <ele>1047.49</ele>
        <time>2014-06-21T16:53:00Z</time>
      </trkpt>
      <trkpt lat="47.84623" lon="6.96004">
        <ele>1051.34</ele>
        <time>2014-06-21T16:53:01Z</time>
      </trkpt>
      <trkpt lat="47.84624" lon="6.96002">
        <ele>1050.38</ele>
        <time>2014-06-21T16:53:02Z</time>
      </trkpt>
      <trkpt lat="47.84625" lon="6.95997">
        <ele>1047.01</ele>
        <time>2014-06-21T16:53:05Z</time>
      </trkpt>
      <trkpt lat="47.84629" lon="6.95989">
        <ele>1052.3</ele>
        <time>2014-06-21T16:53:11Z</time>
      </trkpt>
      <trkpt lat="47.8463" lon="6.95988">
        <ele>1048.94</ele>
        <time>2014-06-21T16:53:12Z</time>
      </trkpt>
      <trkpt lat="47.84631" lon="6.95985">
        <ele>1050.38</ele>
        <time>2014-06-21T16:53:16Z</time>
      </trkpt>
      <trkpt lat="47.84635" lon="6.95981">
        <ele>1047.49</ele>
        <time>2014-06-21T16:53:21Z</time>
      </trkpt>
      <trkpt lat="47.84639" lon="6.95974">
        <ele>1044.13</ele>
        <time>2014-06-21T16:53:23Z</time>
      </trkpt>
      <trkpt lat="47.84643" lon="6.95971">
        <ele>1047.49</ele>
        <time>2014-06-21T16:53:25Z</time>
      </trkpt>
      <trkpt lat="47.84646" lon="6.95969">
        <ele>1050.86</ele>
        <time>2014-06-21T16:53:27Z</time>
      </trkpt>
      <trkpt lat="47.84647" lon="6.95968">
        <ele>1049.9</ele>
        <time>2014-06-21T16:53:28Z</time>
      </trkpt>
      <trkpt lat="47.84649" lon="6.95964">
        <ele>1046.05</ele>
        <time>2014-06-21T16:53:31Z</time>
      </trkpt>
      <trkpt lat="47.84651" lon="6.95963">
        <ele>1049.42</ele>
        <time>2014-06-21T16:53:33Z</time>
      </trkpt>
      <trkpt lat="47.84652" lon="6.95962">
        <ele>1052.78</ele>
        <time>2014-06-21T16:53:36Z</time>
      </trkpt>
      <trkpt lat="47.84653" lon="6.95961">
        <ele>1048.94</ele>
        <time>2014-06-21T16:53:39Z</time>
      </trkpt>
      <trkpt lat="47.84657" lon="6.95954">
        <ele>1052.3</ele>
        <time>2014-06-21T16:53:45Z</time>
      </trkpt>
      <trkpt lat="47.8466" lon="6.9595">
        <ele>1048.94</ele>
        <time>2014-06-21T16:53:50Z</time>
      </trkpt>
      <trkpt lat="47.84661" lon="6.95949">
        <ele>1047.01</ele>
        <time>2014-06-21T16:53:52Z</time>
      </trkpt>
      <trkpt lat="47.84662" lon="6.95948">
        <ele>1050.86</ele>
        <time>2014-06-21T16:53:53Z</time>
      </trkpt>
      <trkpt lat="47.84665" lon="6.95941">
        <ele>1046.53</ele>
        <time>2014-06-21T16:53:58Z</time>
      </trkpt>
      <trkpt lat="47.84665" lon="6.95941">
        <ele>1049.9</ele>
        <time>2014-06-21T16:53:59Z</time>
      </trkpt>
      <trkpt lat="47.84668" lon="6.95937">
        <ele>1047.01</ele>
        <time>2014-06-21T16:54:03Z</time>
      </trkpt>
      <trkpt lat="47.84671" lon="6.95936">
        <ele>1048.94</ele>
        <time>2014-06-21T16:54:06Z</time>
      </trkpt>
      <trkpt lat="47.84678" lon="6.95935">
        <ele>1052.78</ele>
        <time>2014-06-21T16:54:10Z</time>
      </trkpt>
      <trkpt lat="47.84689" lon="6.95934">
        <ele>1052.3</ele>
        <time>2014-06-21T16:54:23Z</time>
      </trkpt>
      <trkpt lat="47.84691" lon="6.95933">
        <ele>1051.34</ele>
        <time>2014-06-21T16:54:25Z</time>
      </trkpt>
      <trkpt lat="47.84697" lon="6.95931">
        <ele>1053.74</ele>
        <time>2014-06-21T16:54:30Z</time>
      </trkpt>
      <trkpt lat="47.84706" lon="6.9593">
        <ele>1047.01</ele>
        <time>2014-06-21T16:54:35Z</time>
      </trkpt>
      <trkpt lat="47.84709" lon="6.95929">
        <ele>1050.38</ele>
        <time>2014-06-21T16:54:39Z</time>
      </trkpt>
      <trkpt lat="47.8471" lon="6.95928">
        <ele>1047.01</ele>
        <time>2014-06-21T16:54:44Z</time>
      </trkpt>
      <trkpt lat="47.8471" lon="6.95928">
        <ele>1051.34</ele>
        <time>2014-06-21T16:54:45Z</time>
      </trkpt>
      <trkpt lat="47.84726" lon="6.95917">
        <ele>1052.3</ele>
        <time>2014-06-21T16:54:58Z</time>
      </trkpt>
      <trkpt lat="47.84732" lon="6.95911">
        <ele>1055.67</ele>
        <time>2014-06-21T16:55:08Z</time>
      </trkpt>
      <trkpt lat="47.84733" lon="6.95911">
        <ele>1050.86</ele>
        <time>2014-06-21T16:55:09Z</time>
      </trkpt>
      <trkpt lat="47.84736" lon="6.95913">
        <ele>1051.34</ele>
        <time>2014-06-21T16:55:15Z</time>
      </trkpt>
      <trkpt lat="47.84742" lon="6.95911">
        <ele>1055.18</ele>
        <time>2014-06-21T16:55:32Z</time>
      </trkpt>
      <trkpt lat="47.84744" lon="6.95911">
        <ele>1055.18</ele>
        <time>2014-06-21T16:55:33Z</time>
      </trkpt>
      <trkpt lat="47.84744" lon="6.95911">
        <ele>1054.7</ele>
        <time>2014-06-21T16:55:38Z</time>
      </trkpt>
      <trkpt lat="47.84744" lon="6.95911">
        <ele>1058.07</ele>
        <time>2014-06-21T16:55:40Z</time>
      </trkpt>
      <trkpt lat="47.84745" lon="6.95909">
        <ele>1054.22</ele>
        <time>2014-06-21T16:55:43Z</time>
      </trkpt>
      <trkpt lat="47.8475" lon="6.959">
        <ele>1059.03</ele>
        <time>2014-06-21T16:55:52Z</time>
      </trkpt>
      <trkpt lat="47.8475" lon="6.95899">
        <ele>1054.7</ele>
        <time>2014-06-21T16:55:53Z</time>
      </trkpt>
      <trkpt lat="47.84753" lon="6.95896">
        <ele>1057.59</ele>
        <time>2014-06-21T16:55:58Z</time>
      </trkpt>
      <trkpt lat="47.84754" lon="6.95893">
        <ele>1057.59</ele>
        <time>2014-06-21T16:56:12Z</time>
      </trkpt>
      <trkpt lat="47.84754" lon="6.95887">
        <ele>1054.7</ele>
        <time>2014-06-21T16:56:14Z</time>
      </trkpt>
      <trkpt lat="47.84754" lon="6.95886">
        <ele>1059.03</ele>
        <time>2014-06-21T16:56:15Z</time>
      </trkpt>
      <trkpt lat="47.84754" lon="6.95882">
        <ele>1057.11</ele>
        <time>2014-06-21T16:56:17Z</time>
      </trkpt>
      <trkpt lat="47.84752" lon="6.95873">
        <ele>1059.03</ele>
        <time>2014-06-21T16:56:22Z</time>
      </trkpt>
      <trkpt lat="47.84752" lon="6.95872">
        <ele>1058.07</ele>
        <time>2014-06-21T16:56:23Z</time>
      </trkpt>
      <trkpt lat="47.84751" lon="6.95869">
        <ele>1055.18</ele>
        <time>2014-06-21T16:56:25Z</time>
      </trkpt>
      <trkpt lat="47.84749" lon="6.95866">
        <ele>1052.3</ele>
        <time>2014-06-21T16:56:27Z</time>
      </trkpt>
      <trkpt lat="47.84749" lon="6.95864">
        <ele>1055.67</ele>
        <time>2014-06-21T16:56:28Z</time>
      </trkpt>
      <trkpt lat="47.84749" lon="6.9586">
        <ele>1056.63</ele>
        <time>2014-06-21T16:56:30Z</time>
      </trkpt>
      <trkpt lat="47.84748" lon="6.95852">
        <ele>1052.3</ele>
        <time>2014-06-21T16:56:36Z</time>
      </trkpt>
      <trkpt lat="47.84748" lon="6.9585">
        <ele>1052.78</ele>
        <time>2014-06-21T16:56:37Z</time>
      </trkpt>
      <trkpt lat="47.84748" lon="6.95848">
        <ele>1058.55</ele>
        <time>2014-06-21T16:56:39Z</time>
      </trkpt>
      <trkpt lat="47.84748" lon="6.95848">
        <ele>1056.63</ele>
        <time>2014-06-21T16:56:40Z</time>
      </trkpt>
      <trkpt lat="47.84746" lon="6.95843">
        <ele>1059.51</ele>
        <time>2014-06-21T16:56:44Z</time>
      </trkpt>
      <trkpt lat="47.84744" lon="6.95837">
        <ele>1060.95</ele>
        <time>2014-06-21T16:56:48Z</time>
      </trkpt>
      <trkpt lat="47.84742" lon="6.95834">
        <ele>1059.03</ele>
        <time>2014-06-21T16:56:50Z</time>
      </trkpt>
      <trkpt lat="47.8474" lon="6.95828">
        <ele>1057.11</ele>
        <time>2014-06-21T16:56:53Z</time>
      </trkpt>
      <trkpt lat="47.84739" lon="6.95827">
        <ele>1053.74</ele>
        <time>2014-06-21T16:56:54Z</time>
      </trkpt>
      <trkpt lat="47.84739" lon="6.95825">
        <ele>1058.55</ele>
        <time>2014-06-21T16:56:55Z</time>
      </trkpt>
      <trkpt lat="47.84738" lon="6.95823">
        <ele>1059.03</ele>
        <time>2014-06-21T16:56:56Z</time>
      </trkpt>
      <trkpt lat="47.84737" lon="6.95811">
        <ele>1060.47</ele>
        <time>2014-06-21T16:57:03Z</time>
      </trkpt>
      <trkpt lat="47.84734" lon="6.95804">
        <ele>1062.39</ele>
        <time>2014-06-21T16:57:07Z</time>
      </trkpt>
      <trkpt lat="47.84728" lon="6.95796">
        <ele>1059.51</ele>
        <time>2014-06-21T16:57:13Z</time>
      </trkpt>
      <trkpt lat="47.84727" lon="6.95795">
        <ele>1059.51</ele>
        <time>2014-06-21T16:57:14Z</time>
      </trkpt>
      <trkpt lat="47.84727" lon="6.95793">
        <ele>1065.28</ele>
        <time>2014-06-21T16:57:15Z</time>
      </trkpt>
      <trkpt lat="47.84726" lon="6.95792">
        <ele>1061.91</ele>
        <time>2014-06-21T16:57:16Z</time>
      </trkpt>
      <trkpt lat="47.84724" lon="6.95785">
        <ele>1059.03</ele>
        <time>2014-06-21T16:57:21Z</time>
      </trkpt>
      <trkpt lat="47.84723" lon="6.95782">
        <ele>1061.91</ele>
        <time>2014-06-21T16:57:23Z</time>
      </trkpt>
      <trkpt lat="47.84722" lon="6.95781">
        <ele>1061.43</ele>
        <time>2014-06-21T16:57:24Z</time>
      </trkpt>
      <trkpt lat="47.8472" lon="6.95775">
        <ele>1056.15</ele>
        <time>2014-06-21T16:57:28Z</time>
      </trkpt>
      <trkpt lat="47.8472" lon="6.95774">
        <ele>1058.07</ele>
        <time>2014-06-21T16:57:29Z</time>
      </trkpt>
      <trkpt lat="47.84719" lon="6.95772">
        <ele>1062.39</ele>
        <time>2014-06-21T16:57:30Z</time>
      </trkpt>
      <trkpt lat="47.84718" lon="6.9577">
        <ele>1060.95</ele>
        <time>2014-06-21T16:57:31Z</time>
      </trkpt>
      <trkpt lat="47.84715" lon="6.95764">
        <ele>1059.51</ele>
        <time>2014-06-21T16:57:34Z</time>
      </trkpt>
      <trkpt lat="47.84714" lon="6.95761">
        <ele>1061.43</ele>
        <time>2014-06-21T16:57:37Z</time>
      </trkpt>
      <trkpt lat="47.84712" lon="6.95749">
        <ele>1064.8</ele>
        <time>2014-06-21T16:57:44Z</time>
      </trkpt>
      <trkpt lat="47.84712" lon="6.95748">
        <ele>1060.47</ele>
        <time>2014-06-21T16:57:45Z</time>
      </trkpt>
      <trkpt lat="47.84707" lon="6.95744">
        <ele>1063.84</ele>
        <time>2014-06-21T16:57:52Z</time>
      </trkpt>
      <trkpt lat="47.84706" lon="6.95743">
        <ele>1063.36</ele>
        <time>2014-06-21T16:57:53Z</time>
      </trkpt>
      <trkpt lat="47.84706" lon="6.95741">
        <ele>1059.99</ele>
        <time>2014-06-21T16:57:54Z</time>
      </trkpt>
      <trkpt lat="47.84705" lon="6.95735">
        <ele>1061.91</ele>
        <time>2014-06-21T16:57:59Z</time>
      </trkpt>
      <trkpt lat="47.84705" lon="6.95735">
        <ele>1063.84</ele>
        <time>2014-06-21T16:58:01Z</time>
      </trkpt>
      <trkpt lat="47.84705" lon="6.95735">
        <ele>1060.95</ele>
        <time>2014-06-21T16:58:02Z</time>
      </trkpt>
      <trkpt lat="47.84706" lon="6.95722">
        <ele>1061.43</ele>
        <time>2014-06-21T16:58:07Z</time>
      </trkpt>
      <trkpt lat="47.84706" lon="6.95721">
        <ele>1065.28</ele>
        <time>2014-06-21T16:58:08Z</time>
      </trkpt>
      <trkpt lat="47.84702" lon="6.95709">
        <ele>1059.51</ele>
        <time>2014-06-21T16:58:15Z</time>
      </trkpt>
      <trkpt lat="47.84701" lon="6.95703">
        <ele>1063.84</ele>
        <time>2014-06-21T16:58:18Z</time>
      </trkpt>
      <trkpt lat="47.84701" lon="6.95701">
        <ele>1060.47</ele>
        <time>2014-06-21T16:58:19Z</time>
      </trkpt>
      <trkpt lat="47.84699" lon="6.95695">
        <ele>1066.24</ele>
        <time>2014-06-21T16:58:22Z</time>
      </trkpt>
      <trkpt lat="47.84699" lon="6.95695">
        <ele>1059.51</ele>
        <time>2014-06-21T16:58:23Z</time>
      </trkpt>
      <trkpt lat="47.84699" lon="6.95695">
        <ele>1064.8</ele>
        <time>2014-06-21T16:58:24Z</time>
      </trkpt>
      <trkpt lat="47.84699" lon="6.95695">
        <ele>1060.47</ele>
        <time>2014-06-21T16:58:25Z</time>
      </trkpt>
      <trkpt lat="47.84699" lon="6.95695">
        <ele>1063.84</ele>
        <time>2014-06-21T16:58:29Z</time>
      </trkpt>
      <trkpt lat="47.84698" lon="6.95692">
        <ele>1060.47</ele>
        <time>2014-06-21T16:58:34Z</time>
      </trkpt>
      <trkpt lat="47.84697" lon="6.95691">
        <ele>1063.84</ele>
        <time>2014-06-21T16:58:35Z</time>
      </trkpt>
      <trkpt lat="47.84694" lon="6.95681">
        <ele>1059.99</ele>
        <time>2014-06-21T16:58:38Z</time>
      </trkpt>
      <trkpt lat="47.84689" lon="6.95671">
        <ele>1059.51</ele>
        <time>2014-06-21T16:58:41Z</time>
      </trkpt>
      <trkpt lat="47.8469" lon="6.95666">
        <ele>1065.28</ele>
        <time>2014-06-21T16:58:43Z</time>
      </trkpt>
      <trkpt lat="47.8469" lon="6.95665">
        <ele>1063.84</ele>
        <time>2014-06-21T16:58:44Z</time>
      </trkpt>
      <trkpt lat="47.84689" lon="6.95663">
        <ele>1067.2</ele>
        <time>2014-06-21T16:58:47Z</time>
      </trkpt>
      <trkpt lat="47.84689" lon="6.95662">
        <ele>1062.87</ele>
        <time>2014-06-21T16:58:48Z</time>
      </trkpt>
      <trkpt lat="47.84687" lon="6.95658">
        <ele>1066.24</ele>
        <time>2014-06-21T16:58:51Z</time>
      </trkpt>
      <trkpt lat="47.84686" lon="6.95656">
        <ele>1062.39</ele>
        <time>2014-06-21T16:58:53Z</time>
      </trkpt>
      <trkpt lat="47.84686" lon="6.95655">
        <ele>1065.28</ele>
        <time>2014-06-21T16:58:54Z</time>
      </trkpt>
      <trkpt lat="47.84686" lon="6.95654">
        <ele>1061.91</ele>
        <time>2014-06-21T16:58:55Z</time>
      </trkpt>
      <trkpt lat="47.84684" lon="6.9564">
        <ele>1063.36</ele>
        <time>2014-06-21T16:59:03Z</time>
      </trkpt>
      <trkpt lat="47.84683" lon="6.95636">
        <ele>1066.72</ele>
        <time>2014-06-21T16:59:06Z</time>
      </trkpt>
      <trkpt lat="47.84681" lon="6.95631">
        <ele>1063.36</ele>
        <time>2014-06-21T16:59:10Z</time>
      </trkpt>
      <trkpt lat="47.84681" lon="6.95621">
        <ele>1067.68</ele>
        <time>2014-06-21T16:59:13Z</time>
      </trkpt>
      <trkpt lat="47.8468" lon="6.95619">
        <ele>1067.68</ele>
        <time>2014-06-21T16:59:14Z</time>
      </trkpt>
      <trkpt lat="47.84679" lon="6.95616">
        <ele>1061.43</ele>
        <time>2014-06-21T16:59:16Z</time>
      </trkpt>
      <trkpt lat="47.84678" lon="6.95615">
        <ele>1066.24</ele>
        <time>2014-06-21T16:59:17Z</time>
      </trkpt>
      <trkpt lat="47.84675" lon="6.95594">
        <ele>1064.8</ele>
        <time>2014-06-21T16:59:27Z</time>
      </trkpt>
      <trkpt lat="47.84676" lon="6.9559">
        <ele>1070.08</ele>
        <time>2014-06-21T16:59:29Z</time>
      </trkpt>
      <trkpt lat="47.84677" lon="6.9559">
        <ele>1066.24</ele>
        <time>2014-06-21T16:59:30Z</time>
      </trkpt>
      <trkpt lat="47.84678" lon="6.95583">
        <ele>1068.16</ele>
        <time>2014-06-21T16:59:33Z</time>
      </trkpt>
      <trkpt lat="47.84678" lon="6.95581">
        <ele>1068.16</ele>
        <time>2014-06-21T16:59:34Z</time>
      </trkpt>
      <trkpt lat="47.84677" lon="6.95579">
        <ele>1064.32</ele>
        <time>2014-06-21T16:59:35Z</time>
      </trkpt>
      <trkpt lat="47.84676" lon="6.95577">
        <ele>1065.76</ele>
        <time>2014-06-21T16:59:36Z</time>
      </trkpt>
      <trkpt lat="47.84676" lon="6.95571">
        <ele>1067.2</ele>
        <time>2014-06-21T16:59:40Z</time>
      </trkpt>
      <trkpt lat="47.84676" lon="6.95569">
        <ele>1067.2</ele>
        <time>2014-06-21T16:59:41Z</time>
      </trkpt>
      <trkpt lat="47.84676" lon="6.95545">
        <ele>1068.16</ele>
        <time>2014-06-21T16:59:52Z</time>
      </trkpt>
      <trkpt lat="47.84678" lon="6.95535">
        <ele>1064.32</ele>
        <time>2014-06-21T16:59:57Z</time>
      </trkpt>
      <trkpt lat="47.84677" lon="6.95532">
        <ele>1064.8</ele>
        <time>2014-06-21T16:59:58Z</time>
      </trkpt>
      <trkpt lat="47.84676" lon="6.95522">
        <ele>1065.76</ele>
        <time>2014-06-21T17:00:03Z</time>
      </trkpt>
      <trkpt lat="47.84674" lon="6.95516">
        <ele>1061.91</ele>
        <time>2014-06-21T17:00:06Z</time>
      </trkpt>
      <trkpt lat="47.84674" lon="6.95508">
        <ele>1057.59</ele>
        <time>2014-06-21T17:00:10Z</time>
      </trkpt>
      <trkpt lat="47.84674" lon="6.95506">
        <ele>1058.07</ele>
        <time>2014-06-21T17:00:11Z</time>
      </trkpt>
      <trkpt lat="47.84675" lon="6.955">
        <ele>1053.26</ele>
        <time>2014-06-21T17:00:15Z</time>
      </trkpt>
      <trkpt lat="47.84673" lon="6.95493">
        <ele>1058.55</ele>
        <time>2014-06-21T17:00:19Z</time>
      </trkpt>
      <trkpt lat="47.84673" lon="6.95489">
        <ele>1060.47</ele>
        <time>2014-06-21T17:00:22Z</time>
      </trkpt>
      <trkpt lat="47.84674" lon="6.95481">
        <ele>1056.15</ele>
        <time>2014-06-21T17:00:27Z</time>
      </trkpt>
      <trkpt lat="47.84674" lon="6.95477">
        <ele>1061.43</ele>
        <time>2014-06-21T17:00:30Z</time>
      </trkpt>
      <trkpt lat="47.84674" lon="6.95474">
        <ele>1057.59</ele>
        <time>2014-06-21T17:00:33Z</time>
      </trkpt>
      <trkpt lat="47.84673" lon="6.95473">
        <ele>1057.11</ele>
        <time>2014-06-21T17:00:34Z</time>
      </trkpt>
      <trkpt lat="47.84674" lon="6.95454">
        <ele>1055.18</ele>
        <time>2014-06-21T17:00:47Z</time>
      </trkpt>
      <trkpt lat="47.84675" lon="6.95451">
        <ele>1058.07</ele>
        <time>2014-06-21T17:00:50Z</time>
      </trkpt>
      <trkpt lat="47.84674" lon="6.95446">
        <ele>1056.15</ele>
        <time>2014-06-21T17:00:52Z</time>
      </trkpt>
      <trkpt lat="47.84674" lon="6.95444">
        <ele>1048.94</ele>
        <time>2014-06-21T17:00:53Z</time>
      </trkpt>
      <trkpt lat="47.84673" lon="6.95439">
        <ele>1054.22</ele>
        <time>2014-06-21T17:00:55Z</time>
      </trkpt>
      <trkpt lat="47.84673" lon="6.95434">
        <ele>1056.15</ele>
        <time>2014-06-21T17:00:57Z</time>
      </trkpt>
      <trkpt lat="47.84673" lon="6.95429">
        <ele>1051.82</ele>
        <time>2014-06-21T17:00:59Z</time>
      </trkpt>
      <trkpt lat="47.84673" lon="6.95427">
        <ele>1054.22</ele>
        <time>2014-06-21T17:01:00Z</time>
      </trkpt>
      <trkpt lat="47.84672" lon="6.95425">
        <ele>1057.11</ele>
        <time>2014-06-21T17:01:01Z</time>
      </trkpt>
      <trkpt lat="47.84672" lon="6.95422">
        <ele>1056.63</ele>
        <time>2014-06-21T17:01:02Z</time>
      </trkpt>
      <trkpt lat="47.84672" lon="6.95421">
        <ele>1051.82</ele>
        <time>2014-06-21T17:01:03Z</time>
      </trkpt>
      <trkpt lat="47.84672" lon="6.95419">
        <ele>1047.97</ele>
        <time>2014-06-21T17:01:04Z</time>
      </trkpt>
      <trkpt lat="47.84672" lon="6.95417">
        <ele>1049.42</ele>
        <time>2014-06-21T17:01:05Z</time>
      </trkpt>
      <trkpt lat="47.84672" lon="6.95416">
        <ele>1054.7</ele>
        <time>2014-06-21T17:01:06Z</time>
      </trkpt>
      <trkpt lat="47.84672" lon="6.95415">
        <ele>1054.7</ele>
        <time>2014-06-21T17:01:07Z</time>
      </trkpt>
      <trkpt lat="47.84673" lon="6.95409">
        <ele>1053.26</ele>
        <time>2014-06-21T17:01:10Z</time>
      </trkpt>
      <trkpt lat="47.84673" lon="6.95407">
        <ele>1052.3</ele>
        <time>2014-06-21T17:01:11Z</time>
      </trkpt>
      <trkpt lat="47.84673" lon="6.95405">
        <ele>1047.97</ele>
        <time>2014-06-21T17:01:12Z</time>
      </trkpt>
      <trkpt lat="47.84673" lon="6.95403">
        <ele>1047.97</ele>
        <time>2014-06-21T17:01:13Z</time>
      </trkpt>
      <trkpt lat="47.84673" lon="6.95401">
        <ele>1047.01</ele>
        <time>2014-06-21T17:01:14Z</time>
      </trkpt>
      <trkpt lat="47.84675" lon="6.95376">
        <ele>1052.3</ele>
        <time>2014-06-21T17:01:25Z</time>
      </trkpt>
      <trkpt lat="47.84675" lon="6.95375">
        <ele>1050.38</ele>
        <time>2014-06-21T17:01:26Z</time>
      </trkpt>
      <trkpt lat="47.84676" lon="6.95372">
        <ele>1051.82</ele>
        <time>2014-06-21T17:01:29Z</time>
      </trkpt>
      <trkpt lat="47.84677" lon="6.9537">
        <ele>1047.97</ele>
        <time>2014-06-21T17:01:31Z</time>
      </trkpt>
      <trkpt lat="47.84679" lon="6.95369">
        <ele>1047.01</ele>
        <time>2014-06-21T17:01:33Z</time>
      </trkpt>
      <trkpt lat="47.84681" lon="6.95366">
        <ele>1042.69</ele>
        <time>2014-06-21T17:01:35Z</time>
      </trkpt>
      <trkpt lat="47.84683" lon="6.95362">
        <ele>1046.05</ele>
        <time>2014-06-21T17:01:37Z</time>
      </trkpt>
      <trkpt lat="47.84687" lon="6.95353">
        <ele>1050.38</ele>
        <time>2014-06-21T17:01:45Z</time>
      </trkpt>
      <trkpt lat="47.84688" lon="6.95347">
        <ele>1047.97</ele>
        <time>2014-06-21T17:01:49Z</time>
      </trkpt>
      <trkpt lat="47.84688" lon="6.95341">
        <ele>1047.01</ele>
        <time>2014-06-21T17:01:51Z</time>
      </trkpt>
      <trkpt lat="47.84689" lon="6.95339">
        <ele>1050.86</ele>
        <time>2014-06-21T17:01:52Z</time>
      </trkpt>
      <trkpt lat="47.8469" lon="6.95338">
        <ele>1047.97</ele>
        <time>2014-06-21T17:01:53Z</time>
      </trkpt>
      <trkpt lat="47.84692" lon="6.95332">
        <ele>1050.86</ele>
        <time>2014-06-21T17:01:56Z</time>
      </trkpt>
      <trkpt lat="47.84692" lon="6.95328">
        <ele>1047.01</ele>
        <time>2014-06-21T17:01:59Z</time>
      </trkpt>
      <trkpt lat="47.84693" lon="6.95327">
        <ele>1051.82</ele>
        <time>2014-06-21T17:02:01Z</time>
      </trkpt>
      <trkpt lat="47.84693" lon="6.95326">
        <ele>1049.42</ele>
        <time>2014-06-21T17:02:02Z</time>
      </trkpt>
      <trkpt lat="47.84694" lon="6.9532">
        <ele>1053.26</ele>
        <time>2014-06-21T17:02:11Z</time>
      </trkpt>
      <trkpt lat="47.84695" lon="6.95318">
        <ele>1048.94</ele>
        <time>2014-06-21T17:02:12Z</time>
      </trkpt>
      <trkpt lat="47.84696" lon="6.95313">
        <ele>1048.45</ele>
        <time>2014-06-21T17:02:17Z</time>
      </trkpt>
      <trkpt lat="47.84697" lon="6.95302">
        <ele>1047.97</ele>
        <time>2014-06-21T17:02:22Z</time>
      </trkpt>
      <trkpt lat="47.84696" lon="6.95298">
        <ele>1050.38</ele>
        <time>2014-06-21T17:02:24Z</time>
      </trkpt>
      <trkpt lat="47.84696" lon="6.9529">
        <ele>1047.49</ele>
        <time>2014-06-21T17:02:27Z</time>
      </trkpt>
      <trkpt lat="47.84695" lon="6.95287">
        <ele>1047.97</ele>
        <time>2014-06-21T17:02:28Z</time>
      </trkpt>
      <trkpt lat="47.84694" lon="6.95281">
        <ele>1044.61</ele>
        <time>2014-06-21T17:02:30Z</time>
      </trkpt>
      <trkpt lat="47.84698" lon="6.95269">
        <ele>1048.94</ele>
        <time>2014-06-21T17:02:36Z</time>
      </trkpt>
      <trkpt lat="47.84699" lon="6.95253">
        <ele>1045.57</ele>
        <time>2014-06-21T17:02:46Z</time>
      </trkpt>
      <trkpt lat="47.84698" lon="6.95251">
        <ele>1046.05</ele>
        <time>2014-06-21T17:02:47Z</time>
      </trkpt>
      <trkpt lat="47.84698" lon="6.95247">
        <ele>1042.69</ele>
        <time>2014-06-21T17:02:48Z</time>
      </trkpt>
      <trkpt lat="47.84697" lon="6.95244">
        <ele>1044.13</ele>
        <time>2014-06-21T17:02:49Z</time>
      </trkpt>
      <trkpt lat="47.84697" lon="6.95239">
        <ele>1050.38</ele>
        <time>2014-06-21T17:02:51Z</time>
      </trkpt>
      <trkpt lat="47.84698" lon="6.95236">
        <ele>1043.65</ele>
        <time>2014-06-21T17:02:52Z</time>
      </trkpt>
      <trkpt lat="47.84699" lon="6.95229">
        <ele>1046.53</ele>
        <time>2014-06-21T17:02:55Z</time>
      </trkpt>
      <trkpt lat="47.84698" lon="6.95205">
        <ele>1049.42</ele>
        <time>2014-06-21T17:03:07Z</time>
      </trkpt>
      <trkpt lat="47.847" lon="6.952">
        <ele>1047.49</ele>
        <time>2014-06-21T17:03:10Z</time>
      </trkpt>
      <trkpt lat="47.84698" lon="6.95189">
        <ele>1042.69</ele>
        <time>2014-06-21T17:03:17Z</time>
      </trkpt>
      <trkpt lat="47.84701" lon="6.95177">
        <ele>1046.05</ele>
        <time>2014-06-21T17:03:25Z</time>
      </trkpt>
      <trkpt lat="47.84705" lon="6.95165">
        <ele>1042.21</ele>
        <time>2014-06-21T17:03:31Z</time>
      </trkpt>
      <trkpt lat="47.84706" lon="6.95163">
        <ele>1042.69</ele>
        <time>2014-06-21T17:03:32Z</time>
      </trkpt>
      <trkpt lat="47.84706" lon="6.95162">
        <ele>1046.05</ele>
        <time>2014-06-21T17:03:33Z</time>
      </trkpt>
      <trkpt lat="47.84706" lon="6.9516">
        <ele>1045.57</ele>
        <time>2014-06-21T17:03:34Z</time>
      </trkpt>
      <trkpt lat="47.84707" lon="6.95159">
        <ele>1050.38</ele>
        <time>2014-06-21T17:03:35Z</time>
      </trkpt>
      <trkpt lat="47.84707" lon="6.95157">
        <ele>1046.53</ele>
        <time>2014-06-21T17:03:36Z</time>
      </trkpt>
      <trkpt lat="47.84713" lon="6.9515">
        <ele>1044.61</ele>
        <time>2014-06-21T17:03:42Z</time>
      </trkpt>
      <trkpt lat="47.84713" lon="6.95149">
        <ele>1041.25</ele>
        <time>2014-06-21T17:03:43Z</time>
      </trkpt>
      <trkpt lat="47.84715" lon="6.95145">
        <ele>1039.8</ele>
        <time>2014-06-21T17:03:45Z</time>
      </trkpt>
      <trkpt lat="47.84719" lon="6.95138">
        <ele>1042.69</ele>
        <time>2014-06-21T17:03:50Z</time>
      </trkpt>
      <trkpt lat="47.84718" lon="6.95133">
        <ele>1039.8</ele>
        <time>2014-06-21T17:03:53Z</time>
      </trkpt>
      <trkpt lat="47.8472" lon="6.95129">
        <ele>1043.65</ele>
        <time>2014-06-21T17:03:57Z</time>
      </trkpt>
      <trkpt lat="47.84721" lon="6.95127">
        <ele>1046.53</ele>
        <time>2014-06-21T17:03:59Z</time>
      </trkpt>
      <trkpt lat="47.84726" lon="6.95121">
        <ele>1046.05</ele>
        <time>2014-06-21T17:04:05Z</time>
      </trkpt>
      <trkpt lat="47.84727" lon="6.95119">
        <ele>1045.57</ele>
        <time>2014-06-21T17:04:10Z</time>
      </trkpt>
      <trkpt lat="47.84727" lon="6.95115">
        <ele>1042.21</ele>
        <time>2014-06-21T17:04:12Z</time>
      </trkpt>
      <trkpt lat="47.84729" lon="6.95113">
        <ele>1043.65</ele>
        <time>2014-06-21T17:04:14Z</time>
      </trkpt>
      <trkpt lat="47.84733" lon="6.95108">
        <ele>1047.49</ele>
        <time>2014-06-21T17:04:21Z</time>
      </trkpt>
      <trkpt lat="47.84733" lon="6.95107">
        <ele>1042.21</ele>
        <time>2014-06-21T17:04:22Z</time>
      </trkpt>
      <trkpt lat="47.84734" lon="6.95106">
        <ele>1047.01</ele>
        <time>2014-06-21T17:04:24Z</time>
      </trkpt>
      <trkpt lat="47.84734" lon="6.95105">
        <ele>1047.01</ele>
        <time>2014-06-21T17:04:25Z</time>
      </trkpt>
      <trkpt lat="47.84742" lon="6.95088">
        <ele>1047.97</ele>
        <time>2014-06-21T17:04:36Z</time>
      </trkpt>
      <trkpt lat="47.84748" lon="6.95073">
        <ele>1050.38</ele>
        <time>2014-06-21T17:04:45Z</time>
      </trkpt>
      <trkpt lat="47.84749" lon="6.95071">
        <ele>1047.01</ele>
        <time>2014-06-21T17:04:46Z</time>
      </trkpt>
      <trkpt lat="47.84756" lon="6.95051">
        <ele>1043.65</ele>
        <time>2014-06-21T17:05:00Z</time>
      </trkpt>
      <trkpt lat="47.84758" lon="6.95041">
        <ele>1047.97</ele>
        <time>2014-06-21T17:05:06Z</time>
      </trkpt>
      <trkpt lat="47.84759" lon="6.95001">
        <ele>1045.57</ele>
        <time>2014-06-21T17:05:24Z</time>
      </trkpt>
      <trkpt lat="47.84758" lon="6.94989">
        <ele>1048.94</ele>
        <time>2014-06-21T17:05:29Z</time>
      </trkpt>
      <trkpt lat="47.84756" lon="6.94975">
        <ele>1045.57</ele>
        <time>2014-06-21T17:05:36Z</time>
      </trkpt>
      <trkpt lat="47.84756" lon="6.94973">
        <ele>1049.42</ele>
        <time>2014-06-21T17:05:37Z</time>
      </trkpt>
      <trkpt lat="47.84756" lon="6.9497">
        <ele>1046.05</ele>
        <time>2014-06-21T17:05:39Z</time>
      </trkpt>
      <trkpt lat="47.84756" lon="6.94965">
        <ele>1044.61</ele>
        <time>2014-06-21T17:05:41Z</time>
      </trkpt>
      <trkpt lat="47.84755" lon="6.94961">
        <ele>1040.76</ele>
        <time>2014-06-21T17:05:44Z</time>
      </trkpt>
      <trkpt lat="47.84754" lon="6.94959">
        <ele>1042.21</ele>
        <time>2014-06-21T17:05:45Z</time>
      </trkpt>
      <trkpt lat="47.84753" lon="6.94956">
        <ele>1047.97</ele>
        <time>2014-06-21T17:05:48Z</time>
      </trkpt>
      <trkpt lat="47.84753" lon="6.94955">
        <ele>1045.57</ele>
        <time>2014-06-21T17:05:49Z</time>
      </trkpt>
      <trkpt lat="47.84751" lon="6.94949">
        <ele>1048.94</ele>
        <time>2014-06-21T17:05:55Z</time>
      </trkpt>
      <trkpt lat="47.84751" lon="6.94947">
        <ele>1048.45</ele>
        <time>2014-06-21T17:05:56Z</time>
      </trkpt>
      <trkpt lat="47.8475" lon="6.94941">
        <ele>1040.28</ele>
        <time>2014-06-21T17:05:59Z</time>
      </trkpt>
      <trkpt lat="47.84749" lon="6.94939">
        <ele>1044.61</ele>
        <time>2014-06-21T17:06:00Z</time>
      </trkpt>
      <trkpt lat="47.84747" lon="6.94924">
        <ele>1046.05</ele>
        <time>2014-06-21T17:06:09Z</time>
      </trkpt>
      <trkpt lat="47.84746" lon="6.94921">
        <ele>1049.42</ele>
        <time>2014-06-21T17:06:11Z</time>
      </trkpt>
      <trkpt lat="47.84746" lon="6.9492">
        <ele>1044.13</ele>
        <time>2014-06-21T17:06:12Z</time>
      </trkpt>
      <trkpt lat="47.84745" lon="6.94917">
        <ele>1050.38</ele>
        <time>2014-06-21T17:06:14Z</time>
      </trkpt>
      <trkpt lat="47.84745" lon="6.94917">
        <ele>1045.09</ele>
        <time>2014-06-21T17:06:15Z</time>
      </trkpt>
      <trkpt lat="47.84746" lon="6.94915">
        <ele>1042.21</ele>
        <time>2014-06-21T17:06:17Z</time>
      </trkpt>
      <trkpt lat="47.84746" lon="6.94912">
        <ele>1041.73</ele>
        <time>2014-06-21T17:06:19Z</time>
      </trkpt>
      <trkpt lat="47.84746" lon="6.94911">
        <ele>1045.57</ele>
        <time>2014-06-21T17:06:20Z</time>
      </trkpt>
      <trkpt lat="47.84746" lon="6.94885">
        <ele>1046.53</ele>
        <time>2014-06-21T17:06:34Z</time>
      </trkpt>
      <trkpt lat="47.84745" lon="6.94876">
        <ele>1043.17</ele>
        <time>2014-06-21T17:06:39Z</time>
      </trkpt>
      <trkpt lat="47.84744" lon="6.94873">
        <ele>1047.97</ele>
        <time>2014-06-21T17:06:41Z</time>
      </trkpt>
      <trkpt lat="47.84744" lon="6.94869">
        <ele>1044.61</ele>
        <time>2014-06-21T17:06:44Z</time>
      </trkpt>
      <trkpt lat="47.84743" lon="6.94854">
        <ele>1048.94</ele>
        <time>2014-06-21T17:06:53Z</time>
      </trkpt>
      <trkpt lat="47.84743" lon="6.94853">
        <ele>1046.05</ele>
        <time>2014-06-21T17:06:54Z</time>
      </trkpt>
      <trkpt lat="47.84745" lon="6.94843">
        <ele>1048.94</ele>
        <time>2014-06-21T17:06:59Z</time>
      </trkpt>
      <trkpt lat="47.84745" lon="6.9484">
        <ele>1044.13</ele>
        <time>2014-06-21T17:07:01Z</time>
      </trkpt>
      <trkpt lat="47.84746" lon="6.94839">
        <ele>1048.45</ele>
        <time>2014-06-21T17:07:02Z</time>
      </trkpt>
      <trkpt lat="47.84746" lon="6.94837">
        <ele>1049.42</ele>
        <time>2014-06-21T17:07:04Z</time>
      </trkpt>
      <trkpt lat="47.8475" lon="6.94829">
        <ele>1046.53</ele>
        <time>2014-06-21T17:07:11Z</time>
      </trkpt>
      <trkpt lat="47.84751" lon="6.94825">
        <ele>1047.49</ele>
        <time>2014-06-21T17:07:13Z</time>
      </trkpt>
      <trkpt lat="47.84754" lon="6.94817">
        <ele>1046.05</ele>
        <time>2014-06-21T17:07:18Z</time>
      </trkpt>
      <trkpt lat="47.84756" lon="6.94811">
        <ele>1042.21</ele>
        <time>2014-06-21T17:07:21Z</time>
      </trkpt>
      <trkpt lat="47.84757" lon="6.9481">
        <ele>1045.09</ele>
        <time>2014-06-21T17:07:22Z</time>
      </trkpt>
      <trkpt lat="47.84761" lon="6.94805">
        <ele>1048.45</ele>
        <time>2014-06-21T17:07:28Z</time>
      </trkpt>
      <trkpt lat="47.84764" lon="6.94801">
        <ele>1044.61</ele>
        <time>2014-06-21T17:07:32Z</time>
      </trkpt>
      <trkpt lat="47.84766" lon="6.948">
        <ele>1047.49</ele>
        <time>2014-06-21T17:07:34Z</time>
      </trkpt>
      <trkpt lat="47.84767" lon="6.94799">
        <ele>1052.3</ele>
        <time>2014-06-21T17:07:36Z</time>
      </trkpt>
      <trkpt lat="47.84768" lon="6.94798">
        <ele>1046.53</ele>
        <time>2014-06-21T17:07:37Z</time>
      </trkpt>
      <trkpt lat="47.84769" lon="6.94794">
        <ele>1051.34</ele>
        <time>2014-06-21T17:07:40Z</time>
      </trkpt>
      <trkpt lat="47.84769" lon="6.94793">
        <ele>1048.45</ele>
        <time>2014-06-21T17:07:41Z</time>
      </trkpt>
      <trkpt lat="47.84771" lon="6.94788">
        <ele>1051.34</ele>
        <time>2014-06-21T17:07:44Z</time>
      </trkpt>
      <trkpt lat="47.84773" lon="6.94778">
        <ele>1051.82</ele>
        <time>2014-06-21T17:07:51Z</time>
      </trkpt>
      <trkpt lat="47.84774" lon="6.94774">
        <ele>1049.42</ele>
        <time>2014-06-21T17:07:53Z</time>
      </trkpt>
      <trkpt lat="47.84783" lon="6.94757">
        <ele>1047.49</ele>
        <time>2014-06-21T17:08:04Z</time>
      </trkpt>
      <trkpt lat="47.84789" lon="6.9474">
        <ele>1053.26</ele>
        <time>2014-06-21T17:08:18Z</time>
      </trkpt>
      <trkpt lat="47.84789" lon="6.94738">
        <ele>1048.94</ele>
        <time>2014-06-21T17:08:19Z</time>
      </trkpt>
      <trkpt lat="47.84792" lon="6.94727">
        <ele>1048.94</ele>
        <time>2014-06-21T17:08:25Z</time>
      </trkpt>
      <trkpt lat="47.84791" lon="6.94724">
        <ele>1050.86</ele>
        <time>2014-06-21T17:08:27Z</time>
      </trkpt>
      <trkpt lat="47.8479" lon="6.94721">
        <ele>1047.01</ele>
        <time>2014-06-21T17:08:29Z</time>
      </trkpt>
      <trkpt lat="47.8479" lon="6.94716">
        <ele>1046.05</ele>
        <time>2014-06-21T17:08:31Z</time>
      </trkpt>
      <trkpt lat="47.8479" lon="6.9471">
        <ele>1051.82</ele>
        <time>2014-06-21T17:08:36Z</time>
      </trkpt>
      <trkpt lat="47.84791" lon="6.94706">
        <ele>1047.49</ele>
        <time>2014-06-21T17:08:39Z</time>
      </trkpt>
      <trkpt lat="47.84792" lon="6.94705">
        <ele>1051.82</ele>
        <time>2014-06-21T17:08:40Z</time>
      </trkpt>
      <trkpt lat="47.84792" lon="6.94704">
        <ele>1048.45</ele>
        <time>2014-06-21T17:08:41Z</time>
      </trkpt>
      <trkpt lat="47.84794" lon="6.947">
        <ele>1052.78</ele>
        <time>2014-06-21T17:08:44Z</time>
      </trkpt>
      <trkpt lat="47.84794" lon="6.94698">
        <ele>1047.97</ele>
        <time>2014-06-21T17:08:46Z</time>
      </trkpt>
      <trkpt lat="47.84795" lon="6.94697">
        <ele>1051.82</ele>
        <time>2014-06-21T17:08:47Z</time>
      </trkpt>
      <trkpt lat="47.84799" lon="6.94683">
        <ele>1055.67</ele>
        <time>2014-06-21T17:08:58Z</time>
      </trkpt>
      <trkpt lat="47.84798" lon="6.94683">
        <ele>1055.67</ele>
        <time>2014-06-21T17:08:59Z</time>
      </trkpt>
      <trkpt lat="47.84798" lon="6.94682">
        <ele>1050.86</ele>
        <time>2014-06-21T17:09:00Z</time>
      </trkpt>
      <trkpt lat="47.84799" lon="6.94681">
        <ele>1052.3</ele>
        <time>2014-06-21T17:09:01Z</time>
      </trkpt>
      <trkpt lat="47.84799" lon="6.9468">
        <ele>1055.18</ele>
        <time>2014-06-21T17:09:02Z</time>
      </trkpt>
      <trkpt lat="47.84802" lon="6.94675">
        <ele>1055.67</ele>
        <time>2014-06-21T17:09:08Z</time>
      </trkpt>
      <trkpt lat="47.84802" lon="6.94674">
        <ele>1052.3</ele>
        <time>2014-06-21T17:09:09Z</time>
      </trkpt>
      <trkpt lat="47.84803" lon="6.94673">
        <ele>1058.07</ele>
        <time>2014-06-21T17:09:11Z</time>
      </trkpt>
      <trkpt lat="47.84803" lon="6.94667">
        <ele>1054.7</ele>
        <time>2014-06-21T17:09:15Z</time>
      </trkpt>
      <trkpt lat="47.84804" lon="6.94664">
        <ele>1055.67</ele>
        <time>2014-06-21T17:09:16Z</time>
      </trkpt>
      <trkpt lat="47.84805" lon="6.94658">
        <ele>1057.59</ele>
        <time>2014-06-21T17:09:19Z</time>
      </trkpt>
      <trkpt lat="47.84805" lon="6.94654">
        <ele>1059.99</ele>
        <time>2014-06-21T17:09:22Z</time>
      </trkpt>
      <trkpt lat="47.84805" lon="6.94653">
        <ele>1058.07</ele>
        <time>2014-06-21T17:09:24Z</time>
      </trkpt>
      <trkpt lat="47.84805" lon="6.94653">
        <ele>1054.7</ele>
        <time>2014-06-21T17:09:27Z</time>
      </trkpt>
      <trkpt lat="47.84806" lon="6.94652">
        <ele>1063.84</ele>
        <time>2014-06-21T17:09:30Z</time>
      </trkpt>
      <trkpt lat="47.84806" lon="6.9465">
        <ele>1053.26</ele>
        <time>2014-06-21T17:09:31Z</time>
      </trkpt>
      <trkpt lat="47.84807" lon="6.94647">
        <ele>1058.07</ele>
        <time>2014-06-21T17:09:32Z</time>
      </trkpt>
      <trkpt lat="47.84807" lon="6.94647">
        <ele>1061.43</ele>
        <time>2014-06-21T17:09:34Z</time>
      </trkpt>
      <trkpt lat="47.84803" lon="6.94643">
        <ele>1058.07</ele>
        <time>2014-06-21T17:09:37Z</time>
      </trkpt>
      <trkpt lat="47.84802" lon="6.94642">
        <ele>1061.91</ele>
        <time>2014-06-21T17:09:38Z</time>
      </trkpt>
      <trkpt lat="47.84799" lon="6.9464">
        <ele>1058.07</ele>
        <time>2014-06-21T17:09:41Z</time>
      </trkpt>
      <trkpt lat="47.84797" lon="6.9464">
        <ele>1058.07</ele>
        <time>2014-06-21T17:09:42Z</time>
      </trkpt>
      <trkpt lat="47.84796" lon="6.94641">
        <ele>1062.87</ele>
        <time>2014-06-21T17:09:43Z</time>
      </trkpt>
      <trkpt lat="47.84793" lon="6.94642">
        <ele>1059.99</ele>
        <time>2014-06-21T17:09:46Z</time>
      </trkpt>
      <trkpt lat="47.84793" lon="6.94642">
        <ele>1064.32</ele>
        <time>2014-06-21T17:09:47Z</time>
      </trkpt>
      <trkpt lat="47.84792" lon="6.94641">
        <ele>1067.68</ele>
        <time>2014-06-21T17:09:48Z</time>
      </trkpt>
      <trkpt lat="47.84793" lon="6.94641">
        <ele>1059.99</ele>
        <time>2014-06-21T17:09:49Z</time>
      </trkpt>
      <trkpt lat="47.84793" lon="6.94641">
        <ele>1063.84</ele>
        <time>2014-06-21T17:09:50Z</time>
      </trkpt>
      <trkpt lat="47.84794" lon="6.9464">
        <ele>1062.87</ele>
        <time>2014-06-21T17:09:56Z</time>
      </trkpt>
      <trkpt lat="47.84795" lon="6.94638">
        <ele>1067.2</ele>
        <time>2014-06-21T17:09:58Z</time>
      </trkpt>
      <trkpt lat="47.84796" lon="6.94637">
        <ele>1062.87</ele>
        <time>2014-06-21T17:09:59Z</time>
      </trkpt>
      <trkpt lat="47.84797" lon="6.94636">
        <ele>1069.12</ele>
        <time>2014-06-21T17:10:01Z</time>
      </trkpt>
      <trkpt lat="47.84797" lon="6.94635">
        <ele>1061.91</ele>
        <time>2014-06-21T17:10:02Z</time>
      </trkpt>
      <trkpt lat="47.84797" lon="6.94634">
        <ele>1066.24</ele>
        <time>2014-06-21T17:10:03Z</time>
      </trkpt>
      <trkpt lat="47.84797" lon="6.94632">
        <ele>1062.87</ele>
        <time>2014-06-21T17:10:05Z</time>
      </trkpt>
      <trkpt lat="47.84797" lon="6.94631">
        <ele>1066.72</ele>
        <time>2014-06-21T17:10:06Z</time>
      </trkpt>
      <trkpt lat="47.84797" lon="6.94629">
        <ele>1065.28</ele>
        <time>2014-06-21T17:10:07Z</time>
      </trkpt>
      <trkpt lat="47.84796" lon="6.94625">
        <ele>1066.72</ele>
        <time>2014-06-21T17:10:10Z</time>
      </trkpt>
      <trkpt lat="47.84796" lon="6.94622">
        <ele>1069.6</ele>
        <time>2014-06-21T17:10:12Z</time>
      </trkpt>
      <trkpt lat="47.84796" lon="6.94621">
        <ele>1068.16</ele>
        <time>2014-06-21T17:10:13Z</time>
      </trkpt>
      <trkpt lat="47.84795" lon="6.94621">
        <ele>1066.24</ele>
        <time>2014-06-21T17:10:16Z</time>
      </trkpt>
      <trkpt lat="47.84795" lon="6.94621">
        <ele>1068.16</ele>
        <time>2014-06-21T17:10:18Z</time>
      </trkpt>
      <trkpt lat="47.84792" lon="6.94621">
        <ele>1074.41</ele>
        <time>2014-06-21T17:10:21Z</time>
      </trkpt>
      <trkpt lat="47.84791" lon="6.94621">
        <ele>1065.76</ele>
        <time>2014-06-21T17:10:22Z</time>
      </trkpt>
      <trkpt lat="47.84789" lon="6.9462">
        <ele>1072.97</ele>
        <time>2014-06-21T17:10:24Z</time>
      </trkpt>
      <trkpt lat="47.84788" lon="6.9462">
        <ele>1068.64</ele>
        <time>2014-06-21T17:10:25Z</time>
      </trkpt>
      <trkpt lat="47.84787" lon="6.9462">
        <ele>1071.53</ele>
        <time>2014-06-21T17:10:26Z</time>
      </trkpt>
      <trkpt lat="47.84785" lon="6.94619">
        <ele>1066.72</ele>
        <time>2014-06-21T17:10:30Z</time>
      </trkpt>
      <trkpt lat="47.84784" lon="6.94619">
        <ele>1067.2</ele>
        <time>2014-06-21T17:10:31Z</time>
      </trkpt>
      <trkpt lat="47.84784" lon="6.94619">
        <ele>1076.33</ele>
        <time>2014-06-21T17:10:32Z</time>
      </trkpt>
      <trkpt lat="47.84783" lon="6.94619">
        <ele>1067.68</ele>
        <time>2014-06-21T17:10:33Z</time>
      </trkpt>
      <trkpt lat="47.8478" lon="6.9462">
        <ele>1072.97</ele>
        <time>2014-06-21T17:10:35Z</time>
      </trkpt>
      <trkpt lat="47.84779" lon="6.94621">
        <ele>1069.6</ele>
        <time>2014-06-21T17:10:36Z</time>
      </trkpt>
      <trkpt lat="47.84779" lon="6.94621">
        <ele>1071.53</ele>
        <time>2014-06-21T17:10:39Z</time>
      </trkpt>
      <trkpt lat="47.84779" lon="6.94621">
        <ele>1075.85</ele>
        <time>2014-06-21T17:10:40Z</time>
      </trkpt>
      <trkpt lat="47.84779" lon="6.94621">
        <ele>1072.01</ele>
        <time>2014-06-21T17:10:41Z</time>
      </trkpt>
      <trkpt lat="47.84779" lon="6.94621">
        <ele>1075.37</ele>
        <time>2014-06-21T17:10:43Z</time>
      </trkpt>
      <trkpt lat="47.84779" lon="6.94621">
        <ele>1071.53</ele>
        <time>2014-06-21T17:10:44Z</time>
      </trkpt>
      <trkpt lat="47.8478" lon="6.94622">
        <ele>1075.85</ele>
        <time>2014-06-21T17:10:45Z</time>
      </trkpt>
      <trkpt lat="47.84781" lon="6.94623">
        <ele>1071.05</ele>
        <time>2014-06-21T17:10:46Z</time>
      </trkpt>
      <trkpt lat="47.84781" lon="6.94625">
        <ele>1074.89</ele>
        <time>2014-06-21T17:10:50Z</time>
      </trkpt>
      <trkpt lat="47.84782" lon="6.94621">
        <ele>1071.05</ele>
        <time>2014-06-21T17:10:56Z</time>
      </trkpt>
      <trkpt lat="47.84782" lon="6.94619">
        <ele>1075.37</ele>
        <time>2014-06-21T17:10:57Z</time>
      </trkpt>
      <trkpt lat="47.84783" lon="6.94615">
        <ele>1078.74</ele>
        <time>2014-06-21T17:11:00Z</time>
      </trkpt>
      <trkpt lat="47.84783" lon="6.94615">
        <ele>1074.89</ele>
        <time>2014-06-21T17:11:01Z</time>
      </trkpt>
      <trkpt lat="47.84783" lon="6.94613">
        <ele>1077.78</ele>
        <time>2014-06-21T17:11:04Z</time>
      </trkpt>
      <trkpt lat="47.84783" lon="6.94613">
        <ele>1073.93</ele>
        <time>2014-06-21T17:11:05Z</time>
      </trkpt>
      <trkpt lat="47.84783" lon="6.94613">
        <ele>1077.78</ele>
        <time>2014-06-21T17:11:06Z</time>
      </trkpt>
      <trkpt lat="47.84783" lon="6.94613">
        <ele>1074.41</ele>
        <time>2014-06-21T17:11:07Z</time>
      </trkpt>
      <trkpt lat="47.84783" lon="6.94613">
        <ele>1077.78</ele>
        <time>2014-06-21T17:11:08Z</time>
      </trkpt>
      <trkpt lat="47.84784" lon="6.9461">
        <ele>1082.1</ele>
        <time>2014-06-21T17:11:16Z</time>
      </trkpt>
      <trkpt lat="47.84782" lon="6.94608">
        <ele>1075.37</ele>
        <time>2014-06-21T17:11:17Z</time>
      </trkpt>
      <trkpt lat="47.8478" lon="6.94605">
        <ele>1080.66</ele>
        <time>2014-06-21T17:11:19Z</time>
      </trkpt>
      <trkpt lat="47.84779" lon="6.94604">
        <ele>1076.81</ele>
        <time>2014-06-21T17:11:20Z</time>
      </trkpt>
      <trkpt lat="47.84779" lon="6.94604">
        <ele>1081.14</ele>
        <time>2014-06-21T17:11:24Z</time>
      </trkpt>
      <trkpt lat="47.84779" lon="6.94604">
        <ele>1085.47</ele>
        <time>2014-06-21T17:11:25Z</time>
      </trkpt>
      <trkpt lat="47.84778" lon="6.94603">
        <ele>1081.62</ele>
        <time>2014-06-21T17:11:26Z</time>
      </trkpt>
      <trkpt lat="47.84776" lon="6.94603">
        <ele>1078.26</ele>
        <time>2014-06-21T17:11:31Z</time>
      </trkpt>
      <trkpt lat="47.84776" lon="6.94603">
        <ele>1081.14</ele>
        <time>2014-06-21T17:11:41Z</time>
      </trkpt>
      <trkpt lat="47.84776" lon="6.94601">
        <ele>1080.66</ele>
        <time>2014-06-21T17:12:00Z</time>
      </trkpt>
      <trkpt lat="47.84777" lon="6.946">
        <ele>1078.74</ele>
        <time>2014-06-21T17:12:03Z</time>
      </trkpt>
      <trkpt lat="47.84777" lon="6.94598">
        <ele>1084.02</ele>
        <time>2014-06-21T17:12:05Z</time>
      </trkpt>
      <trkpt lat="47.84778" lon="6.94597">
        <ele>1079.22</ele>
        <time>2014-06-21T17:12:06Z</time>
      </trkpt>
      <trkpt lat="47.84778" lon="6.94597">
        <ele>1083.54</ele>
        <time>2014-06-21T17:12:08Z</time>
      </trkpt>
      <trkpt lat="47.84779" lon="6.94597">
        <ele>1080.18</ele>
        <time>2014-06-21T17:12:09Z</time>
      </trkpt>
      <trkpt lat="47.84779" lon="6.94596">
        <ele>1080.18</ele>
        <time>2014-06-21T17:12:10Z</time>
      </trkpt>
      <trkpt lat="47.8478" lon="6.94594">
        <ele>1084.99</ele>
        <time>2014-06-21T17:12:12Z</time>
      </trkpt>
      <trkpt lat="47.8478" lon="6.94593">
        <ele>1079.7</ele>
        <time>2014-06-21T17:12:13Z</time>
      </trkpt>
      <trkpt lat="47.84781" lon="6.94592">
        <ele>1084.5</ele>
        <time>2014-06-21T17:12:14Z</time>
      </trkpt>
      <trkpt lat="47.84783" lon="6.9459">
        <ele>1080.66</ele>
        <time>2014-06-21T17:12:20Z</time>
      </trkpt>
      <trkpt lat="47.84784" lon="6.94589">
        <ele>1082.58</ele>
        <time>2014-06-21T17:12:21Z</time>
      </trkpt>
      <trkpt lat="47.84785" lon="6.94585">
        <ele>1088.35</ele>
        <time>2014-06-21T17:12:24Z</time>
      </trkpt>
      <trkpt lat="47.84785" lon="6.94585">
        <ele>1084.5</ele>
        <time>2014-06-21T17:12:25Z</time>
      </trkpt>
      <trkpt lat="47.8479" lon="6.94571">
        <ele>1086.91</ele>
        <time>2014-06-21T17:12:39Z</time>
      </trkpt>
      <trkpt lat="47.8479" lon="6.94571">
        <ele>1083.06</ele>
        <time>2014-06-21T17:12:40Z</time>
      </trkpt>
      <trkpt lat="47.8479" lon="6.9457">
        <ele>1087.39</ele>
        <time>2014-06-21T17:12:41Z</time>
      </trkpt>
      <trkpt lat="47.84797" lon="6.94551">
        <ele>1090.75</ele>
        <time>2014-06-21T17:12:56Z</time>
      </trkpt>
      <trkpt lat="47.84799" lon="6.94548">
        <ele>1087.39</ele>
        <time>2014-06-21T17:12:58Z</time>
      </trkpt>
      <trkpt lat="47.84799" lon="6.94547">
        <ele>1090.75</ele>
        <time>2014-06-21T17:12:59Z</time>
      </trkpt>
      <trkpt lat="47.848" lon="6.94545">
        <ele>1086.91</ele>
        <time>2014-06-21T17:13:00Z</time>
      </trkpt>
      <trkpt lat="47.84802" lon="6.94543">
        <ele>1089.79</ele>
        <time>2014-06-21T17:13:02Z</time>
      </trkpt>
      <trkpt lat="47.84804" lon="6.94536">
        <ele>1086.43</ele>
        <time>2014-06-21T17:13:08Z</time>
      </trkpt>
      <trkpt lat="47.84804" lon="6.94535">
        <ele>1092.68</ele>
        <time>2014-06-21T17:13:09Z</time>
      </trkpt>
      <trkpt lat="47.84806" lon="6.94533">
        <ele>1089.31</ele>
        <time>2014-06-21T17:13:12Z</time>
      </trkpt>
      <trkpt lat="47.84806" lon="6.94532">
        <ele>1093.16</ele>
        <time>2014-06-21T17:13:13Z</time>
      </trkpt>
      <trkpt lat="47.84807" lon="6.94531">
        <ele>1089.79</ele>
        <time>2014-06-21T17:13:14Z</time>
      </trkpt>
      <trkpt lat="47.84807" lon="6.94528">
        <ele>1093.64</ele>
        <time>2014-06-21T17:13:17Z</time>
      </trkpt>
      <trkpt lat="47.84808" lon="6.94526">
        <ele>1094.6</ele>
        <time>2014-06-21T17:13:19Z</time>
      </trkpt>
      <trkpt lat="47.84809" lon="6.94526">
        <ele>1093.16</ele>
        <time>2014-06-21T17:13:21Z</time>
      </trkpt>
      <trkpt lat="47.84809" lon="6.94525">
        <ele>1090.27</ele>
        <time>2014-06-21T17:13:22Z</time>
      </trkpt>
      <trkpt lat="47.84809" lon="6.94525">
        <ele>1091.23</ele>
        <time>2014-06-21T17:13:23Z</time>
      </trkpt>
      <trkpt lat="47.8481" lon="6.94523">
        <ele>1092.68</ele>
        <time>2014-06-21T17:13:25Z</time>
      </trkpt>
      <trkpt lat="47.84814" lon="6.9452">
        <ele>1097</ele>
        <time>2014-06-21T17:13:33Z</time>
      </trkpt>
      <trkpt lat="47.84815" lon="6.94519">
        <ele>1093.64</ele>
        <time>2014-06-21T17:13:36Z</time>
      </trkpt>
      <trkpt lat="47.84816" lon="6.94517">
        <ele>1094.6</ele>
        <time>2014-06-21T17:13:37Z</time>
      </trkpt>
      <trkpt lat="47.84817" lon="6.94514">
        <ele>1095.08</ele>
        <time>2014-06-21T17:13:39Z</time>
      </trkpt>
      <trkpt lat="47.84818" lon="6.94511">
        <ele>1099.4</ele>
        <time>2014-06-21T17:13:43Z</time>
      </trkpt>
      <trkpt lat="47.84819" lon="6.9451">
        <ele>1092.68</ele>
        <time>2014-06-21T17:13:44Z</time>
      </trkpt>
      <trkpt lat="47.84819" lon="6.94509">
        <ele>1096.04</ele>
        <time>2014-06-21T17:13:45Z</time>
      </trkpt>
      <trkpt lat="47.8482" lon="6.94507">
        <ele>1099.4</ele>
        <time>2014-06-21T17:13:48Z</time>
      </trkpt>
      <trkpt lat="47.8482" lon="6.94506">
        <ele>1096.04</ele>
        <time>2014-06-21T17:13:49Z</time>
      </trkpt>
      <trkpt lat="47.84827" lon="6.94496">
        <ele>1099.4</ele>
        <time>2014-06-21T17:13:59Z</time>
      </trkpt>
      <trkpt lat="47.84828" lon="6.94495">
        <ele>1098.92</ele>
        <time>2014-06-21T17:14:00Z</time>
      </trkpt>
      <trkpt lat="47.84831" lon="6.94493">
        <ele>1095.56</ele>
        <time>2014-06-21T17:14:05Z</time>
      </trkpt>
      <trkpt lat="47.84831" lon="6.94493">
        <ele>1096.04</ele>
        <time>2014-06-21T17:14:06Z</time>
      </trkpt>
      <trkpt lat="47.84831" lon="6.94493">
        <ele>1100.85</ele>
        <time>2014-06-21T17:14:07Z</time>
      </trkpt>
      <trkpt lat="47.84831" lon="6.94493">
        <ele>1100.37</ele>
        <time>2014-06-21T17:14:08Z</time>
      </trkpt>
      <trkpt lat="47.84832" lon="6.94482">
        <ele>1101.81</ele>
        <time>2014-06-21T17:14:15Z</time>
      </trkpt>
      <trkpt lat="47.84843" lon="6.94468">
        <ele>1101.81</ele>
        <time>2014-06-21T17:14:31Z</time>
      </trkpt>
      <trkpt lat="47.84845" lon="6.94467">
        <ele>1103.25</ele>
        <time>2014-06-21T17:14:36Z</time>
      </trkpt>
      <trkpt lat="47.84845" lon="6.94466">
        <ele>1099.89</ele>
        <time>2014-06-21T17:14:38Z</time>
      </trkpt>
      <trkpt lat="47.84845" lon="6.94466">
        <ele>1102.29</ele>
        <time>2014-06-21T17:14:39Z</time>
      </trkpt>
      <trkpt lat="47.84849" lon="6.94467">
        <ele>1100.85</ele>
        <time>2014-06-21T17:14:44Z</time>
      </trkpt>
      <trkpt lat="47.84851" lon="6.94465">
        <ele>1099.89</ele>
        <time>2014-06-21T17:14:48Z</time>
      </trkpt>
      <trkpt lat="47.84851" lon="6.94465">
        <ele>1104.21</ele>
        <time>2014-06-21T17:14:49Z</time>
      </trkpt>
      <trkpt lat="47.84852" lon="6.94464">
        <ele>1103.73</ele>
        <time>2014-06-21T17:14:50Z</time>
      </trkpt>
      <trkpt lat="47.84853" lon="6.94464">
        <ele>1100.37</ele>
        <time>2014-06-21T17:14:51Z</time>
      </trkpt>
      <trkpt lat="47.84854" lon="6.94464">
        <ele>1101.81</ele>
        <time>2014-06-21T17:14:52Z</time>
      </trkpt>
      <trkpt lat="47.84856" lon="6.94463">
        <ele>1105.17</ele>
        <time>2014-06-21T17:14:54Z</time>
      </trkpt>
      <trkpt lat="47.84856" lon="6.94462">
        <ele>1104.69</ele>
        <time>2014-06-21T17:14:55Z</time>
      </trkpt>
      <trkpt lat="47.84859" lon="6.94452">
        <ele>1105.65</ele>
        <time>2014-06-21T17:15:04Z</time>
      </trkpt>
      <trkpt lat="47.84861" lon="6.94447">
        <ele>1101.81</ele>
        <time>2014-06-21T17:15:06Z</time>
      </trkpt>
      <trkpt lat="47.84862" lon="6.94446">
        <ele>1102.29</ele>
        <time>2014-06-21T17:15:07Z</time>
      </trkpt>
      <trkpt lat="47.84863" lon="6.94442">
        <ele>1107.58</ele>
        <time>2014-06-21T17:15:09Z</time>
      </trkpt>
      <trkpt lat="47.84863" lon="6.94441">
        <ele>1104.69</ele>
        <time>2014-06-21T17:15:10Z</time>
      </trkpt>
      <trkpt lat="47.84864" lon="6.94439">
        <ele>1100.37</ele>
        <time>2014-06-21T17:15:11Z</time>
      </trkpt>
      <trkpt lat="47.84864" lon="6.94438">
        <ele>1103.73</ele>
        <time>2014-06-21T17:15:12Z</time>
      </trkpt>
      <trkpt lat="47.84874" lon="6.94413">
        <ele>1107.1</ele>
        <time>2014-06-21T17:15:23Z</time>
      </trkpt>
      <trkpt lat="47.84875" lon="6.94411">
        <ele>1107.1</ele>
        <time>2014-06-21T17:15:24Z</time>
      </trkpt>
      <trkpt lat="47.84878" lon="6.94401">
        <ele>1109.02</ele>
        <time>2014-06-21T17:15:33Z</time>
      </trkpt>
      <trkpt lat="47.84879" lon="6.944">
        <ele>1106.13</ele>
        <time>2014-06-21T17:15:34Z</time>
      </trkpt>
      <trkpt lat="47.84881" lon="6.94395">
        <ele>1109.5</ele>
        <time>2014-06-21T17:15:37Z</time>
      </trkpt>
      <trkpt lat="47.84882" lon="6.94388">
        <ele>1105.17</ele>
        <time>2014-06-21T17:15:40Z</time>
      </trkpt>
      <trkpt lat="47.84883" lon="6.94386">
        <ele>1105.65</ele>
        <time>2014-06-21T17:15:41Z</time>
      </trkpt>
      <trkpt lat="47.84883" lon="6.94385">
        <ele>1108.54</ele>
        <time>2014-06-21T17:15:42Z</time>
      </trkpt>
      <trkpt lat="47.84884" lon="6.94382">
        <ele>1111.9</ele>
        <time>2014-06-21T17:15:44Z</time>
      </trkpt>
      <trkpt lat="47.84885" lon="6.94379">
        <ele>1104.69</ele>
        <time>2014-06-21T17:15:46Z</time>
      </trkpt>
      <trkpt lat="47.84885" lon="6.94377">
        <ele>1108.06</ele>
        <time>2014-06-21T17:15:47Z</time>
      </trkpt>
      <trkpt lat="47.84885" lon="6.94373">
        <ele>1109.98</ele>
        <time>2014-06-21T17:15:50Z</time>
      </trkpt>
      <trkpt lat="47.84887" lon="6.94368">
        <ele>1106.13</ele>
        <time>2014-06-21T17:15:54Z</time>
      </trkpt>
      <trkpt lat="47.84889" lon="6.94365">
        <ele>1112.38</ele>
        <time>2014-06-21T17:15:57Z</time>
      </trkpt>
      <trkpt lat="47.84889" lon="6.94365">
        <ele>1111.9</ele>
        <time>2014-06-21T17:15:58Z</time>
      </trkpt>
      <trkpt lat="47.84896" lon="6.94353">
        <ele>1111.42</ele>
        <time>2014-06-21T17:16:06Z</time>
      </trkpt>
      <trkpt lat="47.84898" lon="6.94349">
        <ele>1112.38</ele>
        <time>2014-06-21T17:16:08Z</time>
      </trkpt>
      <trkpt lat="47.84901" lon="6.94344">
        <ele>1111.42</ele>
        <time>2014-06-21T17:16:12Z</time>
      </trkpt>
      <trkpt lat="47.84904" lon="6.94332">
        <ele>1115.75</ele>
        <time>2014-06-21T17:16:20Z</time>
      </trkpt>
      <trkpt lat="47.84904" lon="6.94332">
        <ele>1112.86</ele>
        <time>2014-06-21T17:16:21Z</time>
      </trkpt>
      <trkpt lat="47.84907" lon="6.94327">
        <ele>1110.46</ele>
        <time>2014-06-21T17:16:25Z</time>
      </trkpt>
      <trkpt lat="47.8491" lon="6.94321">
        <ele>1112.86</ele>
        <time>2014-06-21T17:16:30Z</time>
      </trkpt>
      <trkpt lat="47.84915" lon="6.94309">
        <ele>1116.71</ele>
        <time>2014-06-21T17:16:41Z</time>
      </trkpt>
      <trkpt lat="47.84917" lon="6.94306">
        <ele>1117.19</ele>
        <time>2014-06-21T17:16:44Z</time>
      </trkpt>
      <trkpt lat="47.8492" lon="6.94298">
        <ele>1115.27</ele>
        <time>2014-06-21T17:16:50Z</time>
      </trkpt>
      <trkpt lat="47.84925" lon="6.94288">
        <ele>1112.38</ele>
        <time>2014-06-21T17:16:58Z</time>
      </trkpt>
      <trkpt lat="47.84929" lon="6.94286">
        <ele>1114.31</ele>
        <time>2014-06-21T17:17:02Z</time>
      </trkpt>
      <trkpt lat="47.84937" lon="6.94275">
        <ele>1117.67</ele>
        <time>2014-06-21T17:17:12Z</time>
      </trkpt>
      <trkpt lat="47.84937" lon="6.94274">
        <ele>1121.03</ele>
        <time>2014-06-21T17:17:13Z</time>
      </trkpt>
      <trkpt lat="47.84938" lon="6.94272">
        <ele>1117.19</ele>
        <time>2014-06-21T17:17:14Z</time>
      </trkpt>
      <trkpt lat="47.84943" lon="6.94263">
        <ele>1120.55</ele>
        <time>2014-06-21T17:17:24Z</time>
      </trkpt>
      <trkpt lat="47.84943" lon="6.94262">
        <ele>1115.75</ele>
        <time>2014-06-21T17:17:25Z</time>
      </trkpt>
      <trkpt lat="47.84945" lon="6.9426">
        <ele>1120.07</ele>
        <time>2014-06-21T17:17:28Z</time>
      </trkpt>
      <trkpt lat="47.84945" lon="6.9426">
        <ele>1116.71</ele>
        <time>2014-06-21T17:17:29Z</time>
      </trkpt>
      <trkpt lat="47.84948" lon="6.94258">
        <ele>1119.59</ele>
        <time>2014-06-21T17:17:32Z</time>
      </trkpt>
      <trkpt lat="47.84955" lon="6.94256">
        <ele>1119.59</ele>
        <time>2014-06-21T17:17:37Z</time>
      </trkpt>
      <trkpt lat="47.84959" lon="6.94255">
        <ele>1115.75</ele>
        <time>2014-06-21T17:17:41Z</time>
      </trkpt>
      <trkpt lat="47.8496" lon="6.94254">
        <ele>1116.23</ele>
        <time>2014-06-21T17:17:42Z</time>
      </trkpt>
      <trkpt lat="47.84963" lon="6.94251">
        <ele>1117.67</ele>
        <time>2014-06-21T17:17:44Z</time>
      </trkpt>
      <trkpt lat="47.84963" lon="6.94249">
        <ele>1113.82</ele>
        <time>2014-06-21T17:17:45Z</time>
      </trkpt>
      <trkpt lat="47.84964" lon="6.94248">
        <ele>1117.19</ele>
        <time>2014-06-21T17:17:46Z</time>
      </trkpt>
      <trkpt lat="47.84967" lon="6.94245">
        <ele>1121.52</ele>
        <time>2014-06-21T17:17:51Z</time>
      </trkpt>
      <trkpt lat="47.84968" lon="6.94245">
        <ele>1120.55</ele>
        <time>2014-06-21T17:17:52Z</time>
      </trkpt>
      <trkpt lat="47.84969" lon="6.94244">
        <ele>1117.19</ele>
        <time>2014-06-21T17:17:54Z</time>
      </trkpt>
      <trkpt lat="47.8497" lon="6.94243">
        <ele>1117.19</ele>
        <time>2014-06-21T17:17:55Z</time>
      </trkpt>
      <trkpt lat="47.84984" lon="6.94238">
        <ele>1120.55</ele>
        <time>2014-06-21T17:18:08Z</time>
      </trkpt>
      <trkpt lat="47.84984" lon="6.94237">
        <ele>1120.55</ele>
        <time>2014-06-21T17:18:09Z</time>
      </trkpt>
      <trkpt lat="47.84985" lon="6.94237">
        <ele>1116.71</ele>
        <time>2014-06-21T17:18:10Z</time>
      </trkpt>
      <trkpt lat="47.84986" lon="6.94236">
        <ele>1117.19</ele>
        <time>2014-06-21T17:18:11Z</time>
      </trkpt>
      <trkpt lat="47.84987" lon="6.94235">
        <ele>1118.15</ele>
        <time>2014-06-21T17:18:13Z</time>
      </trkpt>
      <trkpt lat="47.8499" lon="6.94234">
        <ele>1123.92</ele>
        <time>2014-06-21T17:18:15Z</time>
      </trkpt>
      <trkpt lat="47.84991" lon="6.94233">
        <ele>1121.03</ele>
        <time>2014-06-21T17:18:16Z</time>
      </trkpt>
      <trkpt lat="47.84998" lon="6.94225">
        <ele>1124.88</ele>
        <time>2014-06-21T17:18:29Z</time>
      </trkpt>
      <trkpt lat="47.84999" lon="6.94224">
        <ele>1125.36</ele>
        <time>2014-06-21T17:18:30Z</time>
      </trkpt>
      <trkpt lat="47.84999" lon="6.94223">
        <ele>1120.55</ele>
        <time>2014-06-21T17:18:31Z</time>
      </trkpt>
      <trkpt lat="47.84999" lon="6.94222">
        <ele>1123.44</ele>
        <time>2014-06-21T17:18:32Z</time>
      </trkpt>
      <trkpt lat="47.85001" lon="6.94222">
        <ele>1120.07</ele>
        <time>2014-06-21T17:18:33Z</time>
      </trkpt>
      <trkpt lat="47.85003" lon="6.94222">
        <ele>1125.36</ele>
        <time>2014-06-21T17:18:35Z</time>
      </trkpt>
      <trkpt lat="47.85004" lon="6.94222">
        <ele>1123.44</ele>
        <time>2014-06-21T17:18:36Z</time>
      </trkpt>
      <trkpt lat="47.85014" lon="6.94223">
        <ele>1125.36</ele>
        <time>2014-06-21T17:18:48Z</time>
      </trkpt>
      <trkpt lat="47.8502" lon="6.94222">
        <ele>1122.48</ele>
        <time>2014-06-21T17:18:54Z</time>
      </trkpt>
      <trkpt lat="47.85021" lon="6.94222">
        <ele>1126.32</ele>
        <time>2014-06-21T17:18:55Z</time>
      </trkpt>
      <trkpt lat="47.85024" lon="6.94223">
        <ele>1130.65</ele>
        <time>2014-06-21T17:18:59Z</time>
      </trkpt>
      <trkpt lat="47.85024" lon="6.94223">
        <ele>1124.88</ele>
        <time>2014-06-21T17:19:00Z</time>
      </trkpt>
      <trkpt lat="47.85026" lon="6.94222">
        <ele>1128.24</ele>
        <time>2014-06-21T17:19:03Z</time>
      </trkpt>
      <trkpt lat="47.85035" lon="6.94215">
        <ele>1132.09</ele>
        <time>2014-06-21T17:19:16Z</time>
      </trkpt>
      <trkpt lat="47.85035" lon="6.94215">
        <ele>1128.73</ele>
        <time>2014-06-21T17:19:18Z</time>
      </trkpt>
      <trkpt lat="47.85035" lon="6.94215">
        <ele>1132.57</ele>
        <time>2014-06-21T17:19:19Z</time>
      </trkpt>
      <trkpt lat="47.85036" lon="6.94214">
        <ele>1129.21</ele>
        <time>2014-06-21T17:19:22Z</time>
      </trkpt>
      <trkpt lat="47.85036" lon="6.94213">
        <ele>1133.53</ele>
        <time>2014-06-21T17:19:25Z</time>
      </trkpt>
      <trkpt lat="47.85036" lon="6.94213">
        <ele>1130.17</ele>
        <time>2014-06-21T17:19:26Z</time>
      </trkpt>
      <trkpt lat="47.85039" lon="6.94213">
        <ele>1135.45</ele>
        <time>2014-06-21T17:19:29Z</time>
      </trkpt>
      <trkpt lat="47.8504" lon="6.94213">
        <ele>1129.21</ele>
        <time>2014-06-21T17:19:30Z</time>
      </trkpt>
      <trkpt lat="47.85042" lon="6.94213">
        <ele>1134.01</ele>
        <time>2014-06-21T17:19:32Z</time>
      </trkpt>
      <trkpt lat="47.85043" lon="6.94213">
        <ele>1134.01</ele>
        <time>2014-06-21T17:19:33Z</time>
      </trkpt>
      <trkpt lat="47.85045" lon="6.94212">
        <ele>1132.57</ele>
        <time>2014-06-21T17:19:35Z</time>
      </trkpt>
      <trkpt lat="47.85047" lon="6.94211">
        <ele>1134.97</ele>
        <time>2014-06-21T17:19:39Z</time>
      </trkpt>
      <trkpt lat="47.85052" lon="6.94208">
        <ele>1136.9</ele>
        <time>2014-06-21T17:19:46Z</time>
      </trkpt>
      <trkpt lat="47.85054" lon="6.94206">
        <ele>1140.26</ele>
        <time>2014-06-21T17:19:48Z</time>
      </trkpt>
      <trkpt lat="47.85055" lon="6.94206">
        <ele>1133.53</ele>
        <time>2014-06-21T17:19:49Z</time>
      </trkpt>
      <trkpt lat="47.85057" lon="6.94206">
        <ele>1137.38</ele>
        <time>2014-06-21T17:19:51Z</time>
      </trkpt>
      <trkpt lat="47.85058" lon="6.94206">
        <ele>1140.26</ele>
        <time>2014-06-21T17:19:54Z</time>
      </trkpt>
      <trkpt lat="47.85059" lon="6.94206">
        <ele>1137.38</ele>
        <time>2014-06-21T17:19:55Z</time>
      </trkpt>
      <trkpt lat="47.85064" lon="6.94202">
        <ele>1140.74</ele>
        <time>2014-06-21T17:20:00Z</time>
      </trkpt>
      <trkpt lat="47.85065" lon="6.94201">
        <ele>1136.42</ele>
        <time>2014-06-21T17:20:01Z</time>
      </trkpt>
      <trkpt lat="47.85068" lon="6.94199">
        <ele>1138.34</ele>
        <time>2014-06-21T17:20:04Z</time>
      </trkpt>
      <trkpt lat="47.85071" lon="6.94198">
        <ele>1142.18</ele>
        <time>2014-06-21T17:20:09Z</time>
      </trkpt>
      <trkpt lat="47.85072" lon="6.94197">
        <ele>1138.34</ele>
        <time>2014-06-21T17:20:10Z</time>
      </trkpt>
      <trkpt lat="47.85072" lon="6.94197">
        <ele>1140.26</ele>
        <time>2014-06-21T17:20:11Z</time>
      </trkpt>
      <trkpt lat="47.85074" lon="6.94195">
        <ele>1144.11</ele>
        <time>2014-06-21T17:20:15Z</time>
      </trkpt>
      <trkpt lat="47.85075" lon="6.94196">
        <ele>1139.3</ele>
        <time>2014-06-21T17:20:16Z</time>
      </trkpt>
      <trkpt lat="47.85077" lon="6.94197">
        <ele>1143.63</ele>
        <time>2014-06-21T17:20:19Z</time>
      </trkpt>
      <trkpt lat="47.85077" lon="6.94196">
        <ele>1142.66</ele>
        <time>2014-06-21T17:20:20Z</time>
      </trkpt>
      <trkpt lat="47.85079" lon="6.94189">
        <ele>1146.03</ele>
        <time>2014-06-21T17:20:25Z</time>
      </trkpt>
      <trkpt lat="47.8508" lon="6.94187">
        <ele>1141.7</ele>
        <time>2014-06-21T17:20:26Z</time>
      </trkpt>
      <trkpt lat="47.85081" lon="6.94186">
        <ele>1141.7</ele>
        <time>2014-06-21T17:20:27Z</time>
      </trkpt>
      <trkpt lat="47.85082" lon="6.94184">
        <ele>1147.95</ele>
        <time>2014-06-21T17:20:29Z</time>
      </trkpt>
      <trkpt lat="47.85082" lon="6.94182">
        <ele>1141.22</ele>
        <time>2014-06-21T17:20:30Z</time>
      </trkpt>
      <trkpt lat="47.85082" lon="6.9418">
        <ele>1146.03</ele>
        <time>2014-06-21T17:20:33Z</time>
      </trkpt>
      <trkpt lat="47.85087" lon="6.94171">
        <ele>1146.51</ele>
        <time>2014-06-21T17:20:39Z</time>
      </trkpt>
      <trkpt lat="47.85089" lon="6.94164">
        <ele>1145.07</ele>
        <time>2014-06-21T17:20:43Z</time>
      </trkpt>
      <trkpt lat="47.85093" lon="6.94151">
        <ele>1150.35</ele>
        <time>2014-06-21T17:20:54Z</time>
      </trkpt>
      <trkpt lat="47.85094" lon="6.94149">
        <ele>1142.66</ele>
        <time>2014-06-21T17:20:55Z</time>
      </trkpt>
      <trkpt lat="47.85094" lon="6.94147">
        <ele>1147.47</ele>
        <time>2014-06-21T17:20:56Z</time>
      </trkpt>
      <trkpt lat="47.85096" lon="6.94138">
        <ele>1150.84</ele>
        <time>2014-06-21T17:21:02Z</time>
      </trkpt>
      <trkpt lat="47.85096" lon="6.94137">
        <ele>1149.39</ele>
        <time>2014-06-21T17:21:03Z</time>
      </trkpt>
      <trkpt lat="47.85096" lon="6.94137">
        <ele>1145.07</ele>
        <time>2014-06-21T17:21:04Z</time>
      </trkpt>
      <trkpt lat="47.85097" lon="6.94136">
        <ele>1145.55</ele>
        <time>2014-06-21T17:21:05Z</time>
      </trkpt>
      <trkpt lat="47.85098" lon="6.94136">
        <ele>1149.87</ele>
        <time>2014-06-21T17:21:06Z</time>
      </trkpt>
      <trkpt lat="47.85099" lon="6.94135">
        <ele>1146.99</ele>
        <time>2014-06-21T17:21:07Z</time>
      </trkpt>
      <trkpt lat="47.85102" lon="6.94134">
        <ele>1150.84</ele>
        <time>2014-06-21T17:21:11Z</time>
      </trkpt>
      <trkpt lat="47.85114" lon="6.9412">
        <ele>1151.8</ele>
        <time>2014-06-21T17:21:25Z</time>
      </trkpt>
      <trkpt lat="47.8512" lon="6.94114">
        <ele>1151.8</ele>
        <time>2014-06-21T17:21:33Z</time>
      </trkpt>
      <trkpt lat="47.85124" lon="6.94106">
        <ele>1155.64</ele>
        <time>2014-06-21T17:21:42Z</time>
      </trkpt>
      <trkpt lat="47.85125" lon="6.94104">
        <ele>1152.28</ele>
        <time>2014-06-21T17:21:44Z</time>
      </trkpt>
      <trkpt lat="47.85127" lon="6.94098">
        <ele>1158.05</ele>
        <time>2014-06-21T17:21:50Z</time>
      </trkpt>
      <trkpt lat="47.85127" lon="6.94097">
        <ele>1151.8</ele>
        <time>2014-06-21T17:21:51Z</time>
      </trkpt>
      <trkpt lat="47.85127" lon="6.94095">
        <ele>1156.6</ele>
        <time>2014-06-21T17:21:52Z</time>
      </trkpt>
      <trkpt lat="47.85129" lon="6.94093">
        <ele>1154.68</ele>
        <time>2014-06-21T17:21:55Z</time>
      </trkpt>
      <trkpt lat="47.85132" lon="6.9409">
        <ele>1158.05</ele>
        <time>2014-06-21T17:21:59Z</time>
      </trkpt>
      <trkpt lat="47.85133" lon="6.94089">
        <ele>1153.24</ele>
        <time>2014-06-21T17:22:00Z</time>
      </trkpt>
      <trkpt lat="47.85134" lon="6.94088">
        <ele>1155.16</ele>
        <time>2014-06-21T17:22:01Z</time>
      </trkpt>
      <trkpt lat="47.85135" lon="6.94087">
        <ele>1159.49</ele>
        <time>2014-06-21T17:22:02Z</time>
      </trkpt>
      <trkpt lat="47.85136" lon="6.94086">
        <ele>1156.12</ele>
        <time>2014-06-21T17:22:03Z</time>
      </trkpt>
      <trkpt lat="47.85139" lon="6.94085">
        <ele>1157.56</ele>
        <time>2014-06-21T17:22:06Z</time>
      </trkpt>
      <trkpt lat="47.85142" lon="6.94082">
        <ele>1153.72</ele>
        <time>2014-06-21T17:22:10Z</time>
      </trkpt>
      <trkpt lat="47.85142" lon="6.94081">
        <ele>1160.45</ele>
        <time>2014-06-21T17:22:11Z</time>
      </trkpt>
      <trkpt lat="47.85143" lon="6.94081">
        <ele>1156.6</ele>
        <time>2014-06-21T17:22:12Z</time>
      </trkpt>
      <trkpt lat="47.85145" lon="6.9408">
        <ele>1160.93</ele>
        <time>2014-06-21T17:22:14Z</time>
      </trkpt>
      <trkpt lat="47.85146" lon="6.9408">
        <ele>1155.64</ele>
        <time>2014-06-21T17:22:15Z</time>
      </trkpt>
      <trkpt lat="47.85146" lon="6.9408">
        <ele>1163.81</ele>
        <time>2014-06-21T17:22:17Z</time>
      </trkpt>
      <trkpt lat="47.85147" lon="6.9408">
        <ele>1156.12</ele>
        <time>2014-06-21T17:22:18Z</time>
      </trkpt>
      <trkpt lat="47.85147" lon="6.94079">
        <ele>1159.49</ele>
        <time>2014-06-21T17:22:19Z</time>
      </trkpt>
      <trkpt lat="47.85151" lon="6.94076">
        <ele>1162.85</ele>
        <time>2014-06-21T17:22:25Z</time>
      </trkpt>
      <trkpt lat="47.85151" lon="6.94076">
        <ele>1158.05</ele>
        <time>2014-06-21T17:22:27Z</time>
      </trkpt>
      <trkpt lat="47.85151" lon="6.94076">
        <ele>1163.33</ele>
        <time>2014-06-21T17:22:28Z</time>
      </trkpt>
      <trkpt lat="47.85151" lon="6.94076">
        <ele>1163.33</ele>
        <time>2014-06-21T17:22:29Z</time>
      </trkpt>
      <trkpt lat="47.85151" lon="6.94076">
        <ele>1158.53</ele>
        <time>2014-06-21T17:22:30Z</time>
      </trkpt>
      <trkpt lat="47.85151" lon="6.94076">
        <ele>1165.26</ele>
        <time>2014-06-21T17:22:31Z</time>
      </trkpt>
      <trkpt lat="47.85151" lon="6.94076">
        <ele>1161.89</ele>
        <time>2014-06-21T17:22:32Z</time>
      </trkpt>
      <trkpt lat="47.85152" lon="6.94074">
        <ele>1165.74</ele>
        <time>2014-06-21T17:22:35Z</time>
      </trkpt>
      <trkpt lat="47.85152" lon="6.94074">
        <ele>1165.26</ele>
        <time>2014-06-21T17:22:36Z</time>
      </trkpt>
      <trkpt lat="47.85153" lon="6.94074">
        <ele>1162.85</ele>
        <time>2014-06-21T17:22:37Z</time>
      </trkpt>
      <trkpt lat="47.85159" lon="6.94068">
        <ele>1165.26</ele>
        <time>2014-06-21T17:22:42Z</time>
      </trkpt>
      <trkpt lat="47.85162" lon="6.94056">
        <ele>1169.1</ele>
        <time>2014-06-21T17:22:46Z</time>
      </trkpt>
      <trkpt lat="47.85163" lon="6.94055">
        <ele>1166.7</ele>
        <time>2014-06-21T17:22:47Z</time>
      </trkpt>
      <trkpt lat="47.8517" lon="6.94035">
        <ele>1168.14</ele>
        <time>2014-06-21T17:23:06Z</time>
      </trkpt>
      <trkpt lat="47.85171" lon="6.94018">
        <ele>1168.62</ele>
        <time>2014-06-21T17:23:15Z</time>
      </trkpt>
      <trkpt lat="47.85171" lon="6.94014">
        <ele>1167.66</ele>
        <time>2014-06-21T17:23:17Z</time>
      </trkpt>
      <trkpt lat="47.8517" lon="6.94012">
        <ele>1171.98</ele>
        <time>2014-06-21T17:23:18Z</time>
      </trkpt>
      <trkpt lat="47.8517" lon="6.94011">
        <ele>1169.1</ele>
        <time>2014-06-21T17:23:19Z</time>
      </trkpt>
      <trkpt lat="47.85171" lon="6.94002">
        <ele>1173.91</ele>
        <time>2014-06-21T17:23:31Z</time>
      </trkpt>
      <trkpt lat="47.85171" lon="6.94002">
        <ele>1171.5</ele>
        <time>2014-06-21T17:23:32Z</time>
      </trkpt>
      <trkpt lat="47.85171" lon="6.94002">
        <ele>1168.14</ele>
        <time>2014-06-21T17:23:36Z</time>
      </trkpt>
      <trkpt lat="47.85171" lon="6.94002">
        <ele>1171.02</ele>
        <time>2014-06-21T17:23:37Z</time>
      </trkpt>
      <trkpt lat="47.8517" lon="6.94">
        <ele>1175.35</ele>
        <time>2014-06-21T17:23:38Z</time>
      </trkpt>
      <trkpt lat="47.8517" lon="6.93998">
        <ele>1171.5</ele>
        <time>2014-06-21T17:23:39Z</time>
      </trkpt>
      <trkpt lat="47.8517" lon="6.93997">
        <ele>1174.39</ele>
        <time>2014-06-21T17:23:45Z</time>
      </trkpt>
      <trkpt lat="47.8517" lon="6.93994">
        <ele>1171.02</ele>
        <time>2014-06-21T17:23:46Z</time>
      </trkpt>
      <trkpt lat="47.8517" lon="6.93988">
        <ele>1173.43</ele>
        <time>2014-06-21T17:23:48Z</time>
      </trkpt>
      <trkpt lat="47.85169" lon="6.93982">
        <ele>1175.35</ele>
        <time>2014-06-21T17:23:50Z</time>
      </trkpt>
      <trkpt lat="47.85166" lon="6.93973">
        <ele>1172.47</ele>
        <time>2014-06-21T17:23:54Z</time>
      </trkpt>
      <trkpt lat="47.85165" lon="6.93965">
        <ele>1176.31</ele>
        <time>2014-06-21T17:23:58Z</time>
      </trkpt>
      <trkpt lat="47.85164" lon="6.93957">
        <ele>1172.95</ele>
        <time>2014-06-21T17:24:01Z</time>
      </trkpt>
      <trkpt lat="47.85164" lon="6.9395">
        <ele>1174.87</ele>
        <time>2014-06-21T17:24:05Z</time>
      </trkpt>
      <trkpt lat="47.85162" lon="6.93941">
        <ele>1171.98</ele>
        <time>2014-06-21T17:24:08Z</time>
      </trkpt>
      <trkpt lat="47.85157" lon="6.93928">
        <ele>1175.35</ele>
        <time>2014-06-21T17:24:15Z</time>
      </trkpt>
      <trkpt lat="47.85157" lon="6.93922">
        <ele>1176.31</ele>
        <time>2014-06-21T17:24:17Z</time>
      </trkpt>
      <trkpt lat="47.85157" lon="6.93914">
        <ele>1172.95</ele>
        <time>2014-06-21T17:24:19Z</time>
      </trkpt>
      <trkpt lat="47.85155" lon="6.93904">
        <ele>1174.39</ele>
        <time>2014-06-21T17:24:21Z</time>
      </trkpt>
      <trkpt lat="47.85154" lon="6.939">
        <ele>1175.35</ele>
        <time>2014-06-21T17:24:23Z</time>
      </trkpt>
      <trkpt lat="47.85145" lon="6.93888">
        <ele>1171.5</ele>
        <time>2014-06-21T17:24:34Z</time>
      </trkpt>
      <trkpt lat="47.85139" lon="6.9388">
        <ele>1174.87</ele>
        <time>2014-06-21T17:24:39Z</time>
      </trkpt>
      <trkpt lat="47.85135" lon="6.93872">
        <ele>1177.75</ele>
        <time>2014-06-21T17:24:43Z</time>
      </trkpt>
      <trkpt lat="47.85137" lon="6.93862">
        <ele>1173.91</ele>
        <time>2014-06-21T17:24:46Z</time>
      </trkpt>
      <trkpt lat="47.85137" lon="6.93856">
        <ele>1177.27</ele>
        <time>2014-06-21T17:24:48Z</time>
      </trkpt>
      <trkpt lat="47.85135" lon="6.93849">
        <ele>1173.43</ele>
        <time>2014-06-21T17:24:54Z</time>
      </trkpt>
      <trkpt lat="47.85134" lon="6.93848">
        <ele>1176.31</ele>
        <time>2014-06-21T17:24:55Z</time>
      </trkpt>
      <trkpt lat="47.85131" lon="6.93846">
        <ele>1180.16</ele>
        <time>2014-06-21T17:24:57Z</time>
      </trkpt>
      <trkpt lat="47.85129" lon="6.93843">
        <ele>1176.79</ele>
        <time>2014-06-21T17:24:59Z</time>
      </trkpt>
      <trkpt lat="47.85125" lon="6.93833">
        <ele>1180.64</ele>
        <time>2014-06-21T17:25:05Z</time>
      </trkpt>
      <trkpt lat="47.85126" lon="6.93831">
        <ele>1181.6</ele>
        <time>2014-06-21T17:25:07Z</time>
      </trkpt>
      <trkpt lat="47.85126" lon="6.93828">
        <ele>1176.31</ele>
        <time>2014-06-21T17:25:09Z</time>
      </trkpt>
      <trkpt lat="47.85124" lon="6.93825">
        <ele>1178.23</ele>
        <time>2014-06-21T17:25:12Z</time>
      </trkpt>
      <trkpt lat="47.85122" lon="6.93823">
        <ele>1180.64</ele>
        <time>2014-06-21T17:25:14Z</time>
      </trkpt>
      <trkpt lat="47.85104" lon="6.93811">
        <ele>1178.23</ele>
        <time>2014-06-21T17:25:28Z</time>
      </trkpt>
      <trkpt lat="47.85096" lon="6.93799">
        <ele>1184</ele>
        <time>2014-06-21T17:25:37Z</time>
      </trkpt>
      <trkpt lat="47.85096" lon="6.93798">
        <ele>1181.12</ele>
        <time>2014-06-21T17:25:38Z</time>
      </trkpt>
      <trkpt lat="47.85091" lon="6.93791">
        <ele>1177.75</ele>
        <time>2014-06-21T17:25:47Z</time>
      </trkpt>
      <trkpt lat="47.8509" lon="6.9379">
        <ele>1174.39</ele>
        <time>2014-06-21T17:25:48Z</time>
      </trkpt>
      <trkpt lat="47.85091" lon="6.93787">
        <ele>1174.39</ele>
        <time>2014-06-21T17:25:49Z</time>
      </trkpt>
      <trkpt lat="47.85092" lon="6.93779">
        <ele>1177.27</ele>
        <time>2014-06-21T17:25:52Z</time>
      </trkpt>
      <trkpt lat="47.85093" lon="6.93777">
        <ele>1177.27</ele>
        <time>2014-06-21T17:25:53Z</time>
      </trkpt>
      <trkpt lat="47.8509" lon="6.93769">
        <ele>1180.64</ele>
        <time>2014-06-21T17:25:57Z</time>
      </trkpt>
      <trkpt lat="47.85088" lon="6.93768">
        <ele>1180.16</ele>
        <time>2014-06-21T17:25:58Z</time>
      </trkpt>
      <trkpt lat="47.85084" lon="6.93763">
        <ele>1183.04</ele>
        <time>2014-06-21T17:26:01Z</time>
      </trkpt>
      <trkpt lat="47.85077" lon="6.93747">
        <ele>1178.23</ele>
        <time>2014-06-21T17:26:14Z</time>
      </trkpt>
      <trkpt lat="47.85077" lon="6.93747">
        <ele>1178.23</ele>
        <time>2014-06-21T17:26:15Z</time>
      </trkpt>
      <trkpt lat="47.85075" lon="6.93738">
        <ele>1173.91</ele>
        <time>2014-06-21T17:26:21Z</time>
      </trkpt>
      <trkpt lat="47.85074" lon="6.93735">
        <ele>1177.75</ele>
        <time>2014-06-21T17:26:23Z</time>
      </trkpt>
      <trkpt lat="47.85067" lon="6.93725">
        <ele>1181.12</ele>
        <time>2014-06-21T17:26:34Z</time>
      </trkpt>
      <trkpt lat="47.85064" lon="6.93718">
        <ele>1177.27</ele>
        <time>2014-06-21T17:26:41Z</time>
      </trkpt>
      <trkpt lat="47.85063" lon="6.93717">
        <ele>1178.71</ele>
        <time>2014-06-21T17:26:42Z</time>
      </trkpt>
      <trkpt lat="47.85063" lon="6.93714">
        <ele>1176.31</ele>
        <time>2014-06-21T17:26:43Z</time>
      </trkpt>
      <trkpt lat="47.85057" lon="6.9369">
        <ele>1177.27</ele>
        <time>2014-06-21T17:26:50Z</time>
      </trkpt>
      <trkpt lat="47.85052" lon="6.93683">
        <ele>1178.23</ele>
        <time>2014-06-21T17:26:54Z</time>
      </trkpt>
      <trkpt lat="47.85049" lon="6.9368">
        <ele>1179.67</ele>
        <time>2014-06-21T17:26:56Z</time>
      </trkpt>
      <trkpt lat="47.85044" lon="6.93667">
        <ele>1179.19</ele>
        <time>2014-06-21T17:27:13Z</time>
      </trkpt>
      <trkpt lat="47.85039" lon="6.93658">
        <ele>1173.43</ele>
        <time>2014-06-21T17:27:17Z</time>
      </trkpt>
      <trkpt lat="47.85038" lon="6.93656">
        <ele>1174.39</ele>
        <time>2014-06-21T17:27:18Z</time>
      </trkpt>
      <trkpt lat="47.85035" lon="6.93653">
        <ele>1173.91</ele>
        <time>2014-06-21T17:27:20Z</time>
      </trkpt>
      <trkpt lat="47.85031" lon="6.93645">
        <ele>1176.79</ele>
        <time>2014-06-21T17:27:24Z</time>
      </trkpt>
      <trkpt lat="47.8503" lon="6.93643">
        <ele>1176.31</ele>
        <time>2014-06-21T17:27:25Z</time>
      </trkpt>
      <trkpt lat="47.85022" lon="6.93622">
        <ele>1174.39</ele>
        <time>2014-06-21T17:27:39Z</time>
      </trkpt>
      <trkpt lat="47.85018" lon="6.93612">
        <ele>1179.19</ele>
        <time>2014-06-21T17:27:46Z</time>
      </trkpt>
      <trkpt lat="47.85017" lon="6.93609">
        <ele>1179.67</ele>
        <time>2014-06-21T17:27:47Z</time>
      </trkpt>
      <trkpt lat="47.85011" lon="6.93599">
        <ele>1179.67</ele>
        <time>2014-06-21T17:27:52Z</time>
      </trkpt>
      <trkpt lat="47.85009" lon="6.93596">
        <ele>1174.87</ele>
        <time>2014-06-21T17:27:54Z</time>
      </trkpt>
      <trkpt lat="47.85004" lon="6.93585">
        <ele>1174.39</ele>
        <time>2014-06-21T17:27:59Z</time>
      </trkpt>
      <trkpt lat="47.85" lon="6.93576">
        <ele>1177.75</ele>
        <time>2014-06-21T17:28:07Z</time>
      </trkpt>
      <trkpt lat="47.84998" lon="6.9357">
        <ele>1174.39</ele>
        <time>2014-06-21T17:28:11Z</time>
      </trkpt>
      <trkpt lat="47.84997" lon="6.93568">
        <ele>1178.23</ele>
        <time>2014-06-21T17:28:12Z</time>
      </trkpt>
      <trkpt lat="47.84996" lon="6.93563">
        <ele>1177.27</ele>
        <time>2014-06-21T17:28:17Z</time>
      </trkpt>
      <trkpt lat="47.84994" lon="6.9356">
        <ele>1180.64</ele>
        <time>2014-06-21T17:28:19Z</time>
      </trkpt>
      <trkpt lat="47.84994" lon="6.93558">
        <ele>1180.16</ele>
        <time>2014-06-21T17:28:20Z</time>
      </trkpt>
      <trkpt lat="47.84993" lon="6.93555">
        <ele>1181.6</ele>
        <time>2014-06-21T17:28:25Z</time>
      </trkpt>
      <trkpt lat="47.84993" lon="6.93553">
        <ele>1177.27</ele>
        <time>2014-06-21T17:28:27Z</time>
      </trkpt>
      <trkpt lat="47.84993" lon="6.93552">
        <ele>1178.23</ele>
        <time>2014-06-21T17:28:28Z</time>
      </trkpt>
      <trkpt lat="47.84996" lon="6.93538">
        <ele>1181.12</ele>
        <time>2014-06-21T17:28:40Z</time>
      </trkpt>
      <trkpt lat="47.84996" lon="6.93538">
        <ele>1181.6</ele>
        <time>2014-06-21T17:28:41Z</time>
      </trkpt>
      <trkpt lat="47.84988" lon="6.93526">
        <ele>1178.23</ele>
        <time>2014-06-21T17:28:49Z</time>
      </trkpt>
      <trkpt lat="47.84984" lon="6.93521">
        <ele>1174.39</ele>
        <time>2014-06-21T17:28:51Z</time>
      </trkpt>
      <trkpt lat="47.8498" lon="6.93516">
        <ele>1170.54</ele>
        <time>2014-06-21T17:28:53Z</time>
      </trkpt>
      <trkpt lat="47.84978" lon="6.93514">
        <ele>1174.87</ele>
        <time>2014-06-21T17:28:54Z</time>
      </trkpt>
      <trkpt lat="47.84976" lon="6.93511">
        <ele>1179.67</ele>
        <time>2014-06-21T17:28:55Z</time>
      </trkpt>
      <trkpt lat="47.84975" lon="6.93509">
        <ele>1177.27</ele>
        <time>2014-06-21T17:28:56Z</time>
      </trkpt>
      <trkpt lat="47.84967" lon="6.93496">
        <ele>1172.95</ele>
        <time>2014-06-21T17:29:02Z</time>
      </trkpt>
      <trkpt lat="47.84957" lon="6.93479">
        <ele>1173.91</ele>
        <time>2014-06-21T17:29:09Z</time>
      </trkpt>
      <trkpt lat="47.84951" lon="6.93464">
        <ele>1176.31</ele>
        <time>2014-06-21T17:29:19Z</time>
      </trkpt>
      <trkpt lat="47.84949" lon="6.93461">
        <ele>1178.71</ele>
        <time>2014-06-21T17:29:21Z</time>
      </trkpt>
      <trkpt lat="47.84943" lon="6.93439">
        <ele>1177.75</ele>
        <time>2014-06-21T17:29:37Z</time>
      </trkpt>
      <trkpt lat="47.8494" lon="6.9343">
        <ele>1176.79</ele>
        <time>2014-06-21T17:29:42Z</time>
      </trkpt>
      <trkpt lat="47.84939" lon="6.93421">
        <ele>1178.71</ele>
        <time>2014-06-21T17:29:46Z</time>
      </trkpt>
      <trkpt lat="47.84938" lon="6.93418">
        <ele>1180.16</ele>
        <time>2014-06-21T17:29:48Z</time>
      </trkpt>
      <trkpt lat="47.84935" lon="6.93414">
        <ele>1176.31</ele>
        <time>2014-06-21T17:29:51Z</time>
      </trkpt>
      <trkpt lat="47.84934" lon="6.93413">
        <ele>1177.75</ele>
        <time>2014-06-21T17:29:52Z</time>
      </trkpt>
      <trkpt lat="47.8493" lon="6.93397">
        <ele>1179.19</ele>
        <time>2014-06-21T17:29:58Z</time>
      </trkpt>
      <trkpt lat="47.84928" lon="6.93393">
        <ele>1183.04</ele>
        <time>2014-06-21T17:30:00Z</time>
      </trkpt>
      <trkpt lat="47.84924" lon="6.93385">
        <ele>1176.79</ele>
        <time>2014-06-21T17:30:03Z</time>
      </trkpt>
      <trkpt lat="47.84921" lon="6.9338">
        <ele>1175.35</ele>
        <time>2014-06-21T17:30:05Z</time>
      </trkpt>
      <trkpt lat="47.84917" lon="6.93373">
        <ele>1179.19</ele>
        <time>2014-06-21T17:30:08Z</time>
      </trkpt>
      <trkpt lat="47.84905" lon="6.93362">
        <ele>1175.83</ele>
        <time>2014-06-21T17:30:15Z</time>
      </trkpt>
      <trkpt lat="47.84904" lon="6.9336">
        <ele>1176.31</ele>
        <time>2014-06-21T17:30:16Z</time>
      </trkpt>
      <trkpt lat="47.849" lon="6.93355">
        <ele>1178.23</ele>
        <time>2014-06-21T17:30:18Z</time>
      </trkpt>
      <trkpt lat="47.84896" lon="6.9335">
        <ele>1182.08</ele>
        <time>2014-06-21T17:30:21Z</time>
      </trkpt>
      <trkpt lat="47.84895" lon="6.93349">
        <ele>1181.6</ele>
        <time>2014-06-21T17:30:22Z</time>
      </trkpt>
      <trkpt lat="47.84892" lon="6.93342">
        <ele>1175.83</ele>
        <time>2014-06-21T17:30:25Z</time>
      </trkpt>
      <trkpt lat="47.84891" lon="6.9334">
        <ele>1176.79</ele>
        <time>2014-06-21T17:30:26Z</time>
      </trkpt>
      <trkpt lat="47.84887" lon="6.93335">
        <ele>1181.12</ele>
        <time>2014-06-21T17:30:29Z</time>
      </trkpt>
      <trkpt lat="47.84886" lon="6.93334">
        <ele>1181.12</ele>
        <time>2014-06-21T17:30:30Z</time>
      </trkpt>
      <trkpt lat="47.84881" lon="6.93327">
        <ele>1177.27</ele>
        <time>2014-06-21T17:30:33Z</time>
      </trkpt>
      <trkpt lat="47.84878" lon="6.93321">
        <ele>1174.87</ele>
        <time>2014-06-21T17:30:36Z</time>
      </trkpt>
      <trkpt lat="47.84874" lon="6.93308">
        <ele>1175.35</ele>
        <time>2014-06-21T17:30:44Z</time>
      </trkpt>
      <trkpt lat="47.84872" lon="6.93299">
        <ele>1178.71</ele>
        <time>2014-06-21T17:30:49Z</time>
      </trkpt>
      <trkpt lat="47.84872" lon="6.93297">
        <ele>1178.71</ele>
        <time>2014-06-21T17:30:50Z</time>
      </trkpt>
      <trkpt lat="47.8487" lon="6.93287">
        <ele>1174.39</ele>
        <time>2014-06-21T17:30:56Z</time>
      </trkpt>
      <trkpt lat="47.8487" lon="6.93284">
        <ele>1171.02</ele>
        <time>2014-06-21T17:30:58Z</time>
      </trkpt>
      <trkpt lat="47.8487" lon="6.93282">
        <ele>1171.5</ele>
        <time>2014-06-21T17:30:59Z</time>
      </trkpt>
      <trkpt lat="47.84866" lon="6.93268">
        <ele>1175.35</ele>
        <time>2014-06-21T17:31:08Z</time>
      </trkpt>
      <trkpt lat="47.84866" lon="6.93266">
        <ele>1175.35</ele>
        <time>2014-06-21T17:31:09Z</time>
      </trkpt>
      <trkpt lat="47.84864" lon="6.93262">
        <ele>1176.79</ele>
        <time>2014-06-21T17:31:11Z</time>
      </trkpt>
      <trkpt lat="47.84862" lon="6.93253">
        <ele>1173.43</ele>
        <time>2014-06-21T17:31:14Z</time>
      </trkpt>
      <trkpt lat="47.84861" lon="6.93252">
        <ele>1173.91</ele>
        <time>2014-06-21T17:31:15Z</time>
      </trkpt>
      <trkpt lat="47.8486" lon="6.9325">
        <ele>1168.62</ele>
        <time>2014-06-21T17:31:16Z</time>
      </trkpt>
      <trkpt lat="47.84859" lon="6.93248">
        <ele>1168.62</ele>
        <time>2014-06-21T17:31:17Z</time>
      </trkpt>
      <trkpt lat="47.84858" lon="6.93242">
        <ele>1173.43</ele>
        <time>2014-06-21T17:31:20Z</time>
      </trkpt>
      <trkpt lat="47.84856" lon="6.9324">
        <ele>1174.87</ele>
        <time>2014-06-21T17:31:21Z</time>
      </trkpt>
      <trkpt lat="47.84851" lon="6.93226">
        <ele>1170.54</ele>
        <time>2014-06-21T17:31:27Z</time>
      </trkpt>
      <trkpt lat="47.84851" lon="6.93224">
        <ele>1167.18</ele>
        <time>2014-06-21T17:31:28Z</time>
      </trkpt>
      <trkpt lat="47.8485" lon="6.93222">
        <ele>1167.18</ele>
        <time>2014-06-21T17:31:29Z</time>
      </trkpt>
      <trkpt lat="47.84847" lon="6.93217">
        <ele>1171.02</ele>
        <time>2014-06-21T17:31:32Z</time>
      </trkpt>
      <trkpt lat="47.84846" lon="6.93215">
        <ele>1174.87</ele>
        <time>2014-06-21T17:31:33Z</time>
      </trkpt>
      <trkpt lat="47.84845" lon="6.93213">
        <ele>1172.95</ele>
        <time>2014-06-21T17:31:34Z</time>
      </trkpt>
      <trkpt lat="47.84844" lon="6.9321">
        <ele>1169.58</ele>
        <time>2014-06-21T17:31:36Z</time>
      </trkpt>
      <trkpt lat="47.84842" lon="6.93208">
        <ele>1165.26</ele>
        <time>2014-06-21T17:31:37Z</time>
      </trkpt>
      <trkpt lat="47.84837" lon="6.93201">
        <ele>1171.98</ele>
        <time>2014-06-21T17:31:40Z</time>
      </trkpt>
      <trkpt lat="47.84832" lon="6.93196">
        <ele>1165.74</ele>
        <time>2014-06-21T17:31:43Z</time>
      </trkpt>
      <trkpt lat="47.84832" lon="6.93195">
        <ele>1168.62</ele>
        <time>2014-06-21T17:31:44Z</time>
      </trkpt>
      <trkpt lat="47.84836" lon="6.93191">
        <ele>1167.18</ele>
        <time>2014-06-21T17:31:48Z</time>
      </trkpt>
      <trkpt lat="47.84866" lon="6.93169">
        <ele>1165.26</ele>
        <time>2014-06-21T17:32:00Z</time>
      </trkpt>
      <trkpt lat="47.84864" lon="6.9316">
        <ele>1161.41</ele>
        <time>2014-06-21T17:32:09Z</time>
      </trkpt>
      <trkpt lat="47.84865" lon="6.93159">
        <ele>1158.05</ele>
        <time>2014-06-21T17:32:10Z</time>
      </trkpt>
      <trkpt lat="47.84866" lon="6.93156">
        <ele>1158.05</ele>
        <time>2014-06-21T17:32:12Z</time>
      </trkpt>
      <trkpt lat="47.84867" lon="6.93155">
        <ele>1162.37</ele>
        <time>2014-06-21T17:32:13Z</time>
      </trkpt>
      <trkpt lat="47.84868" lon="6.93152">
        <ele>1164.29</ele>
        <time>2014-06-21T17:32:15Z</time>
      </trkpt>
      <trkpt lat="47.84869" lon="6.93151">
        <ele>1159.01</ele>
        <time>2014-06-21T17:32:16Z</time>
      </trkpt>
      <trkpt lat="47.84869" lon="6.9315">
        <ele>1154.2</ele>
        <time>2014-06-21T17:32:17Z</time>
      </trkpt>
      <trkpt lat="47.84869" lon="6.93148">
        <ele>1154.68</ele>
        <time>2014-06-21T17:32:18Z</time>
      </trkpt>
      <trkpt lat="47.84869" lon="6.93144">
        <ele>1161.41</ele>
        <time>2014-06-21T17:32:20Z</time>
      </trkpt>
      <trkpt lat="47.84869" lon="6.93142">
        <ele>1160.93</ele>
        <time>2014-06-21T17:32:21Z</time>
      </trkpt>
      <trkpt lat="47.84866" lon="6.93122">
        <ele>1161.89</ele>
        <time>2014-06-21T17:32:32Z</time>
      </trkpt>
      <trkpt lat="47.84864" lon="6.9312">
        <ele>1158.05</ele>
        <time>2014-06-21T17:32:33Z</time>
      </trkpt>
      <trkpt lat="47.84862" lon="6.93117">
        <ele>1157.08</ele>
        <time>2014-06-21T17:32:35Z</time>
      </trkpt>
      <trkpt lat="47.84861" lon="6.93116">
        <ele>1157.08</ele>
        <time>2014-06-21T17:32:36Z</time>
      </trkpt>
      <trkpt lat="47.8486" lon="6.93114">
        <ele>1153.24</ele>
        <time>2014-06-21T17:32:37Z</time>
      </trkpt>
      <trkpt lat="47.84859" lon="6.93113">
        <ele>1157.56</ele>
        <time>2014-06-21T17:32:38Z</time>
      </trkpt>
      <trkpt lat="47.84857" lon="6.93112">
        <ele>1159.49</ele>
        <time>2014-06-21T17:32:39Z</time>
      </trkpt>
      <trkpt lat="47.84855" lon="6.93109">
        <ele>1153.24</ele>
        <time>2014-06-21T17:32:41Z</time>
      </trkpt>
      <trkpt lat="47.84853" lon="6.93107">
        <ele>1153.72</ele>
        <time>2014-06-21T17:32:42Z</time>
      </trkpt>
      <trkpt lat="47.84837" lon="6.93095">
        <ele>1152.76</ele>
        <time>2014-06-21T17:32:50Z</time>
      </trkpt>
      <trkpt lat="47.8483" lon="6.93089">
        <ele>1154.2</ele>
        <time>2014-06-21T17:32:55Z</time>
      </trkpt>
      <trkpt lat="47.84824" lon="6.93071">
        <ele>1149.87</ele>
        <time>2014-06-21T17:33:01Z</time>
      </trkpt>
      <trkpt lat="47.84824" lon="6.93065">
        <ele>1152.76</ele>
        <time>2014-06-21T17:33:04Z</time>
      </trkpt>
      <trkpt lat="47.84824" lon="6.93061">
        <ele>1154.2</ele>
        <time>2014-06-21T17:33:06Z</time>
      </trkpt>
      <trkpt lat="47.84824" lon="6.93058">
        <ele>1152.76</ele>
        <time>2014-06-21T17:33:08Z</time>
      </trkpt>
      <trkpt lat="47.84823" lon="6.93055">
        <ele>1149.39</ele>
        <time>2014-06-21T17:33:10Z</time>
      </trkpt>
      <trkpt lat="47.84822" lon="6.93051">
        <ele>1146.51</ele>
        <time>2014-06-21T17:33:12Z</time>
      </trkpt>
      <trkpt lat="47.84822" lon="6.93049">
        <ele>1146.99</ele>
        <time>2014-06-21T17:33:13Z</time>
      </trkpt>
      <trkpt lat="47.84822" lon="6.93045">
        <ele>1143.14</ele>
        <time>2014-06-21T17:33:15Z</time>
      </trkpt>
      <trkpt lat="47.84822" lon="6.93041">
        <ele>1149.39</ele>
        <time>2014-06-21T17:33:17Z</time>
      </trkpt>
      <trkpt lat="47.84823" lon="6.9304">
        <ele>1149.87</ele>
        <time>2014-06-21T17:33:18Z</time>
      </trkpt>
      <trkpt lat="47.84823" lon="6.93038">
        <ele>1152.28</ele>
        <time>2014-06-21T17:33:19Z</time>
      </trkpt>
      <trkpt lat="47.84823" lon="6.93037">
        <ele>1150.35</ele>
        <time>2014-06-21T17:33:20Z</time>
      </trkpt>
      <trkpt lat="47.84822" lon="6.93035">
        <ele>1148.43</ele>
        <time>2014-06-21T17:33:21Z</time>
      </trkpt>
      <trkpt lat="47.84822" lon="6.93033">
        <ele>1143.63</ele>
        <time>2014-06-21T17:33:22Z</time>
      </trkpt>
      <trkpt lat="47.84822" lon="6.93031">
        <ele>1144.11</ele>
        <time>2014-06-21T17:33:23Z</time>
      </trkpt>
      <trkpt lat="47.8483" lon="6.93022">
        <ele>1141.7</ele>
        <time>2014-06-21T17:33:31Z</time>
      </trkpt>
      <trkpt lat="47.84831" lon="6.93019">
        <ele>1145.55</ele>
        <time>2014-06-21T17:33:33Z</time>
      </trkpt>
      <trkpt lat="47.84831" lon="6.93017">
        <ele>1146.03</ele>
        <time>2014-06-21T17:33:34Z</time>
      </trkpt>
      <trkpt lat="47.84833" lon="6.93013">
        <ele>1148.91</ele>
        <time>2014-06-21T17:33:36Z</time>
      </trkpt>
      <trkpt lat="47.84833" lon="6.93011">
        <ele>1145.07</ele>
        <time>2014-06-21T17:33:37Z</time>
      </trkpt>
      <trkpt lat="47.84833" lon="6.93009">
        <ele>1141.7</ele>
        <time>2014-06-21T17:33:38Z</time>
      </trkpt>
      <trkpt lat="47.84834" lon="6.93005">
        <ele>1140.74</ele>
        <time>2014-06-21T17:33:40Z</time>
      </trkpt>
      <trkpt lat="47.84835" lon="6.93003">
        <ele>1147.47</ele>
        <time>2014-06-21T17:33:41Z</time>
      </trkpt>
      <trkpt lat="47.84836" lon="6.92999">
        <ele>1141.7</ele>
        <time>2014-06-21T17:33:44Z</time>
      </trkpt>
      <trkpt lat="47.84839" lon="6.92996">
        <ele>1146.51</ele>
        <time>2014-06-21T17:33:47Z</time>
      </trkpt>
      <trkpt lat="47.84842" lon="6.92992">
        <ele>1142.18</ele>
        <time>2014-06-21T17:33:50Z</time>
      </trkpt>
      <trkpt lat="47.84842" lon="6.92991">
        <ele>1142.18</ele>
        <time>2014-06-21T17:33:51Z</time>
      </trkpt>
      <trkpt lat="47.84843" lon="6.92986">
        <ele>1140.74</ele>
        <time>2014-06-21T17:33:55Z</time>
      </trkpt>
      <trkpt lat="47.84843" lon="6.92983">
        <ele>1143.14</ele>
        <time>2014-06-21T17:33:57Z</time>
      </trkpt>
      <trkpt lat="47.84843" lon="6.92979">
        <ele>1138.34</ele>
        <time>2014-06-21T17:33:59Z</time>
      </trkpt>
      <trkpt lat="47.84844" lon="6.92975">
        <ele>1134.97</ele>
        <time>2014-06-21T17:34:02Z</time>
      </trkpt>
      <trkpt lat="47.84844" lon="6.9297">
        <ele>1134.49</ele>
        <time>2014-06-21T17:34:06Z</time>
      </trkpt>
      <trkpt lat="47.84844" lon="6.92967">
        <ele>1137.86</ele>
        <time>2014-06-21T17:34:08Z</time>
      </trkpt>
      <trkpt lat="47.84844" lon="6.92963">
        <ele>1130.65</ele>
        <time>2014-06-21T17:34:12Z</time>
      </trkpt>
      <trkpt lat="47.84844" lon="6.92962">
        <ele>1134.01</ele>
        <time>2014-06-21T17:34:13Z</time>
      </trkpt>
      <trkpt lat="47.84844" lon="6.92958">
        <ele>1137.38</ele>
        <time>2014-06-21T17:34:15Z</time>
      </trkpt>
      <trkpt lat="47.84845" lon="6.92951">
        <ele>1134.49</ele>
        <time>2014-06-21T17:34:19Z</time>
      </trkpt>
      <trkpt lat="47.84846" lon="6.92945">
        <ele>1131.13</ele>
        <time>2014-06-21T17:34:22Z</time>
      </trkpt>
      <trkpt lat="47.84847" lon="6.92942">
        <ele>1129.69</ele>
        <time>2014-06-21T17:34:24Z</time>
      </trkpt>
      <trkpt lat="47.84848" lon="6.92936">
        <ele>1129.69</ele>
        <time>2014-06-21T17:34:29Z</time>
      </trkpt>
      <trkpt lat="47.84849" lon="6.92934">
        <ele>1134.97</ele>
        <time>2014-06-21T17:34:30Z</time>
      </trkpt>
      <trkpt lat="47.8485" lon="6.92932">
        <ele>1134.01</ele>
        <time>2014-06-21T17:34:31Z</time>
      </trkpt>
      <trkpt lat="47.84853" lon="6.92926">
        <ele>1132.57</ele>
        <time>2014-06-21T17:34:35Z</time>
      </trkpt>
      <trkpt lat="47.84853" lon="6.92925">
        <ele>1126.32</ele>
        <time>2014-06-21T17:34:36Z</time>
      </trkpt>
      <trkpt lat="47.84852" lon="6.92923">
        <ele>1128.73</ele>
        <time>2014-06-21T17:34:37Z</time>
      </trkpt>
      <trkpt lat="47.84853" lon="6.9292">
        <ele>1125.84</ele>
        <time>2014-06-21T17:34:39Z</time>
      </trkpt>
      <trkpt lat="47.84853" lon="6.92919">
        <ele>1122.48</ele>
        <time>2014-06-21T17:34:40Z</time>
      </trkpt>
      <trkpt lat="47.84853" lon="6.92918">
        <ele>1128.73</ele>
        <time>2014-06-21T17:34:41Z</time>
      </trkpt>
      <trkpt lat="47.84853" lon="6.92916">
        <ele>1128.24</ele>
        <time>2014-06-21T17:34:42Z</time>
      </trkpt>
      <trkpt lat="47.84853" lon="6.92914">
        <ele>1128.24</ele>
        <time>2014-06-21T17:34:44Z</time>
      </trkpt>
      <trkpt lat="47.84852" lon="6.92911">
        <ele>1126.8</ele>
        <time>2014-06-21T17:34:46Z</time>
      </trkpt>
      <trkpt lat="47.84852" lon="6.92909">
        <ele>1124.88</ele>
        <time>2014-06-21T17:34:47Z</time>
      </trkpt>
      <trkpt lat="47.84854" lon="6.92903">
        <ele>1121.52</ele>
        <time>2014-06-21T17:34:51Z</time>
      </trkpt>
      <trkpt lat="47.84856" lon="6.92899">
        <ele>1120.55</ele>
        <time>2014-06-21T17:34:53Z</time>
      </trkpt>
      <trkpt lat="47.84856" lon="6.92898">
        <ele>1126.8</ele>
        <time>2014-06-21T17:34:54Z</time>
      </trkpt>
      <trkpt lat="47.84856" lon="6.92889">
        <ele>1128.73</ele>
        <time>2014-06-21T17:34:59Z</time>
      </trkpt>
      <trkpt lat="47.84855" lon="6.92884">
        <ele>1127.28</ele>
        <time>2014-06-21T17:35:02Z</time>
      </trkpt>
      <trkpt lat="47.84859" lon="6.92875">
        <ele>1124.4</ele>
        <time>2014-06-21T17:35:08Z</time>
      </trkpt>
      <trkpt lat="47.8486" lon="6.92871">
        <ele>1118.15</ele>
        <time>2014-06-21T17:35:10Z</time>
      </trkpt>
      <trkpt lat="47.8486" lon="6.9287">
        <ele>1121.52</ele>
        <time>2014-06-21T17:35:11Z</time>
      </trkpt>
      <trkpt lat="47.8486" lon="6.92868">
        <ele>1113.82</ele>
        <time>2014-06-21T17:35:12Z</time>
      </trkpt>
      <trkpt lat="47.8486" lon="6.92866">
        <ele>1117.67</ele>
        <time>2014-06-21T17:35:13Z</time>
      </trkpt>
      <trkpt lat="47.8486" lon="6.92864">
        <ele>1123.92</ele>
        <time>2014-06-21T17:35:14Z</time>
      </trkpt>
      <trkpt lat="47.84862" lon="6.92862">
        <ele>1124.88</ele>
        <time>2014-06-21T17:35:15Z</time>
      </trkpt>
      <trkpt lat="47.84866" lon="6.92853">
        <ele>1120.55</ele>
        <time>2014-06-21T17:35:21Z</time>
      </trkpt>
      <trkpt lat="47.84867" lon="6.92846">
        <ele>1119.59</ele>
        <time>2014-06-21T17:35:25Z</time>
      </trkpt>
      <trkpt lat="47.84867" lon="6.92845">
        <ele>1116.71</ele>
        <time>2014-06-21T17:35:26Z</time>
      </trkpt>
      <trkpt lat="47.84867" lon="6.92838">
        <ele>1122.48</ele>
        <time>2014-06-21T17:35:30Z</time>
      </trkpt>
      <trkpt lat="47.84868" lon="6.92836">
        <ele>1117.67</ele>
        <time>2014-06-21T17:35:32Z</time>
      </trkpt>
      <trkpt lat="47.84867" lon="6.92833">
        <ele>1114.31</ele>
        <time>2014-06-21T17:35:34Z</time>
      </trkpt>
      <trkpt lat="47.84866" lon="6.9283">
        <ele>1116.23</ele>
        <time>2014-06-21T17:35:36Z</time>
      </trkpt>
      <trkpt lat="47.84866" lon="6.92825">
        <ele>1118.63</ele>
        <time>2014-06-21T17:35:39Z</time>
      </trkpt>
      <trkpt lat="47.84865" lon="6.92822">
        <ele>1112.38</ele>
        <time>2014-06-21T17:35:41Z</time>
      </trkpt>
      <trkpt lat="47.84865" lon="6.92821">
        <ele>1112.38</ele>
        <time>2014-06-21T17:35:42Z</time>
      </trkpt>
      <trkpt lat="47.84865" lon="6.92816">
        <ele>1119.59</ele>
        <time>2014-06-21T17:35:47Z</time>
      </trkpt>
      <trkpt lat="47.84866" lon="6.92803">
        <ele>1114.79</ele>
        <time>2014-06-21T17:35:53Z</time>
      </trkpt>
      <trkpt lat="47.84867" lon="6.92801">
        <ele>1114.31</ele>
        <time>2014-06-21T17:35:54Z</time>
      </trkpt>
      <trkpt lat="47.84865" lon="6.92787">
        <ele>1109.98</ele>
        <time>2014-06-21T17:36:01Z</time>
      </trkpt>
      <trkpt lat="47.84865" lon="6.92783">
        <ele>1108.06</ele>
        <time>2014-06-21T17:36:03Z</time>
      </trkpt>
      <trkpt lat="47.84865" lon="6.92779">
        <ele>1110.94</ele>
        <time>2014-06-21T17:36:05Z</time>
      </trkpt>
      <trkpt lat="47.84862" lon="6.92764">
        <ele>1109.98</ele>
        <time>2014-06-21T17:36:14Z</time>
      </trkpt>
      <trkpt lat="47.8486" lon="6.92753">
        <ele>1104.69</ele>
        <time>2014-06-21T17:36:19Z</time>
      </trkpt>
      <trkpt lat="47.84859" lon="6.92751">
        <ele>1104.69</ele>
        <time>2014-06-21T17:36:20Z</time>
      </trkpt>
      <trkpt lat="47.8486" lon="6.92749">
        <ele>1105.65</ele>
        <time>2014-06-21T17:36:23Z</time>
      </trkpt>
      <trkpt lat="47.84858" lon="6.92741">
        <ele>1106.13</ele>
        <time>2014-06-21T17:36:27Z</time>
      </trkpt>
      <trkpt lat="47.84856" lon="6.92728">
        <ele>1108.06</ele>
        <time>2014-06-21T17:36:37Z</time>
      </trkpt>
      <trkpt lat="47.84855" lon="6.92724">
        <ele>1105.17</ele>
        <time>2014-06-21T17:36:39Z</time>
      </trkpt>
      <trkpt lat="47.84852" lon="6.92718">
        <ele>1107.58</ele>
        <time>2014-06-21T17:36:41Z</time>
      </trkpt>
      <trkpt lat="47.84851" lon="6.92715">
        <ele>1103.25</ele>
        <time>2014-06-21T17:36:42Z</time>
      </trkpt>
      <trkpt lat="47.8485" lon="6.92711">
        <ele>1107.58</ele>
        <time>2014-06-21T17:36:44Z</time>
      </trkpt>
      <trkpt lat="47.84848" lon="6.92704">
        <ele>1103.73</ele>
        <time>2014-06-21T17:36:47Z</time>
      </trkpt>
      <trkpt lat="47.84848" lon="6.92701">
        <ele>1103.25</ele>
        <time>2014-06-21T17:36:49Z</time>
      </trkpt>
      <trkpt lat="47.8485" lon="6.9268">
        <ele>1100.37</ele>
        <time>2014-06-21T17:37:02Z</time>
      </trkpt>
      <trkpt lat="47.84851" lon="6.92676">
        <ele>1104.21</ele>
        <time>2014-06-21T17:37:04Z</time>
      </trkpt>
      <trkpt lat="47.84851" lon="6.92675">
        <ele>1103.73</ele>
        <time>2014-06-21T17:37:05Z</time>
      </trkpt>
      <trkpt lat="47.84852" lon="6.92664">
        <ele>1099.4</ele>
        <time>2014-06-21T17:37:12Z</time>
      </trkpt>
      <trkpt lat="47.84853" lon="6.9266">
        <ele>1099.89</ele>
        <time>2014-06-21T17:37:16Z</time>
      </trkpt>
      <trkpt lat="47.84856" lon="6.92654">
        <ele>1097.96</ele>
        <time>2014-06-21T17:37:20Z</time>
      </trkpt>
      <trkpt lat="47.84857" lon="6.9265">
        <ele>1101.33</ele>
        <time>2014-06-21T17:37:22Z</time>
      </trkpt>
      <trkpt lat="47.84857" lon="6.92648">
        <ele>1102.29</ele>
        <time>2014-06-21T17:37:24Z</time>
      </trkpt>
      <trkpt lat="47.84856" lon="6.9264">
        <ele>1104.69</ele>
        <time>2014-06-21T17:37:28Z</time>
      </trkpt>
      <trkpt lat="47.84858" lon="6.92636">
        <ele>1102.77</ele>
        <time>2014-06-21T17:37:31Z</time>
      </trkpt>
      <trkpt lat="47.84858" lon="6.92631">
        <ele>1098.44</ele>
        <time>2014-06-21T17:37:34Z</time>
      </trkpt>
      <trkpt lat="47.84858" lon="6.9263">
        <ele>1096.52</ele>
        <time>2014-06-21T17:37:36Z</time>
      </trkpt>
      <trkpt lat="47.84863" lon="6.92619">
        <ele>1101.33</ele>
        <time>2014-06-21T17:37:46Z</time>
      </trkpt>
      <trkpt lat="47.84863" lon="6.92604">
        <ele>1102.77</ele>
        <time>2014-06-21T17:37:51Z</time>
      </trkpt>
      <trkpt lat="47.84858" lon="6.92578">
        <ele>1094.6</ele>
        <time>2014-06-21T17:38:08Z</time>
      </trkpt>
      <trkpt lat="47.84859" lon="6.92574">
        <ele>1092.68</ele>
        <time>2014-06-21T17:38:09Z</time>
      </trkpt>
      <trkpt lat="47.84859" lon="6.92571">
        <ele>1097.48</ele>
        <time>2014-06-21T17:38:10Z</time>
      </trkpt>
      <trkpt lat="47.84858" lon="6.92559">
        <ele>1100.85</ele>
        <time>2014-06-21T17:38:13Z</time>
      </trkpt>
      <trkpt lat="47.84858" lon="6.92557">
        <ele>1100.85</ele>
        <time>2014-06-21T17:38:14Z</time>
      </trkpt>
      <trkpt lat="47.84855" lon="6.92551">
        <ele>1096.52</ele>
        <time>2014-06-21T17:38:17Z</time>
      </trkpt>
      <trkpt lat="47.84855" lon="6.92549">
        <ele>1099.89</ele>
        <time>2014-06-21T17:38:18Z</time>
      </trkpt>
      <trkpt lat="47.84847" lon="6.9254">
        <ele>1095.56</ele>
        <time>2014-06-21T17:38:24Z</time>
      </trkpt>
      <trkpt lat="47.84846" lon="6.92539">
        <ele>1095.56</ele>
        <time>2014-06-21T17:38:25Z</time>
      </trkpt>
      <trkpt lat="47.84841" lon="6.92536">
        <ele>1092.68</ele>
        <time>2014-06-21T17:38:27Z</time>
      </trkpt>
      <trkpt lat="47.84835" lon="6.92532">
        <ele>1087.39</ele>
        <time>2014-06-21T17:38:30Z</time>
      </trkpt>
      <trkpt lat="47.84834" lon="6.92531">
        <ele>1087.39</ele>
        <time>2014-06-21T17:38:31Z</time>
      </trkpt>
      <trkpt lat="47.84833" lon="6.92529">
        <ele>1091.23</ele>
        <time>2014-06-21T17:38:32Z</time>
      </trkpt>
      <trkpt lat="47.84824" lon="6.9252">
        <ele>1093.64</ele>
        <time>2014-06-21T17:38:40Z</time>
      </trkpt>
      <trkpt lat="47.8482" lon="6.92519">
        <ele>1090.75</ele>
        <time>2014-06-21T17:38:43Z</time>
      </trkpt>
      <trkpt lat="47.84819" lon="6.92519">
        <ele>1096.52</ele>
        <time>2014-06-21T17:38:44Z</time>
      </trkpt>
      <trkpt lat="47.84818" lon="6.92518">
        <ele>1090.75</ele>
        <time>2014-06-21T17:38:45Z</time>
      </trkpt>
      <trkpt lat="47.84816" lon="6.92516">
        <ele>1089.31</ele>
        <time>2014-06-21T17:38:47Z</time>
      </trkpt>
      <trkpt lat="47.84814" lon="6.92511">
        <ele>1085.95</ele>
        <time>2014-06-21T17:38:52Z</time>
      </trkpt>
      <trkpt lat="47.84814" lon="6.9251">
        <ele>1083.54</ele>
        <time>2014-06-21T17:38:55Z</time>
      </trkpt>
      <trkpt lat="47.84815" lon="6.92509">
        <ele>1086.91</ele>
        <time>2014-06-21T17:38:56Z</time>
      </trkpt>
      <trkpt lat="47.84816" lon="6.92509">
        <ele>1090.27</ele>
        <time>2014-06-21T17:38:57Z</time>
      </trkpt>
      <trkpt lat="47.84821" lon="6.92507">
        <ele>1086.43</ele>
        <time>2014-06-21T17:39:01Z</time>
      </trkpt>
      <trkpt lat="47.84824" lon="6.92507">
        <ele>1089.79</ele>
        <time>2014-06-21T17:39:04Z</time>
      </trkpt>
      <trkpt lat="47.84826" lon="6.92507">
        <ele>1085.95</ele>
        <time>2014-06-21T17:39:06Z</time>
      </trkpt>
      <trkpt lat="47.84828" lon="6.92507">
        <ele>1082.58</ele>
        <time>2014-06-21T17:39:08Z</time>
      </trkpt>
      <trkpt lat="47.84828" lon="6.92507">
        <ele>1083.06</ele>
        <time>2014-06-21T17:39:09Z</time>
      </trkpt>
      <trkpt lat="47.84833" lon="6.92506">
        <ele>1086.43</ele>
        <time>2014-06-21T17:39:16Z</time>
      </trkpt>
      <trkpt lat="47.84833" lon="6.92505">
        <ele>1085.95</ele>
        <time>2014-06-21T17:39:17Z</time>
      </trkpt>
      <trkpt lat="47.84834" lon="6.92504">
        <ele>1080.18</ele>
        <time>2014-06-21T17:39:18Z</time>
      </trkpt>
      <trkpt lat="47.84834" lon="6.92503">
        <ele>1084.5</ele>
        <time>2014-06-21T17:39:19Z</time>
      </trkpt>
      <trkpt lat="47.84833" lon="6.92502">
        <ele>1078.74</ele>
        <time>2014-06-21T17:39:21Z</time>
      </trkpt>
      <trkpt lat="47.84833" lon="6.92502">
        <ele>1079.22</ele>
        <time>2014-06-21T17:39:22Z</time>
      </trkpt>
      <trkpt lat="47.84833" lon="6.92502">
        <ele>1084.02</ele>
        <time>2014-06-21T17:39:24Z</time>
      </trkpt>
      <trkpt lat="47.84833" lon="6.92502">
        <ele>1081.62</ele>
        <time>2014-06-21T17:39:25Z</time>
      </trkpt>
      <trkpt lat="47.84833" lon="6.92501">
        <ele>1077.78</ele>
        <time>2014-06-21T17:39:27Z</time>
      </trkpt>
      <trkpt lat="47.8483" lon="6.92502">
        <ele>1082.58</ele>
        <time>2014-06-21T17:39:30Z</time>
      </trkpt>
      <trkpt lat="47.84828" lon="6.92502">
        <ele>1079.22</ele>
        <time>2014-06-21T17:39:32Z</time>
      </trkpt>
      <trkpt lat="47.84827" lon="6.92503">
        <ele>1075.85</ele>
        <time>2014-06-21T17:39:33Z</time>
      </trkpt>
      <trkpt lat="47.84825" lon="6.92503">
        <ele>1078.26</ele>
        <time>2014-06-21T17:39:34Z</time>
      </trkpt>
      <trkpt lat="47.84819" lon="6.92499">
        <ele>1082.1</ele>
        <time>2014-06-21T17:39:39Z</time>
      </trkpt>
      <trkpt lat="47.84814" lon="6.92494">
        <ele>1073.45</ele>
        <time>2014-06-21T17:39:43Z</time>
      </trkpt>
      <trkpt lat="47.84813" lon="6.92492">
        <ele>1075.37</ele>
        <time>2014-06-21T17:39:44Z</time>
      </trkpt>
      <trkpt lat="47.84812" lon="6.92491">
        <ele>1080.66</ele>
        <time>2014-06-21T17:39:45Z</time>
      </trkpt>
      <trkpt lat="47.84811" lon="6.9249">
        <ele>1077.29</ele>
        <time>2014-06-21T17:39:46Z</time>
      </trkpt>
      <trkpt lat="47.84809" lon="6.92486">
        <ele>1074.89</ele>
        <time>2014-06-21T17:39:48Z</time>
      </trkpt>
      <trkpt lat="47.84807" lon="6.9248">
        <ele>1077.29</ele>
        <time>2014-06-21T17:39:52Z</time>
      </trkpt>
      <trkpt lat="47.84804" lon="6.92473">
        <ele>1070.08</ele>
        <time>2014-06-21T17:39:56Z</time>
      </trkpt>
      <trkpt lat="47.84803" lon="6.92472">
        <ele>1074.41</ele>
        <time>2014-06-21T17:39:57Z</time>
      </trkpt>
      <trkpt lat="47.84818" lon="6.92455">
        <ele>1072.49</ele>
        <time>2014-06-21T17:40:09Z</time>
      </trkpt>
      <trkpt lat="47.84831" lon="6.92453">
        <ele>1071.05</ele>
        <time>2014-06-21T17:40:18Z</time>
      </trkpt>
      <trkpt lat="47.84833" lon="6.92453">
        <ele>1075.37</ele>
        <time>2014-06-21T17:40:19Z</time>
      </trkpt>
      <trkpt lat="47.84836" lon="6.92454">
        <ele>1074.89</ele>
        <time>2014-06-21T17:40:20Z</time>
      </trkpt>
      <trkpt lat="47.84839" lon="6.92455">
        <ele>1070.57</ele>
        <time>2014-06-21T17:40:21Z</time>
      </trkpt>
      <trkpt lat="47.84842" lon="6.92455">
        <ele>1074.89</ele>
        <time>2014-06-21T17:40:22Z</time>
      </trkpt>
      <trkpt lat="47.84859" lon="6.92459">
        <ele>1075.85</ele>
        <time>2014-06-21T17:40:34Z</time>
      </trkpt>
      <trkpt lat="47.84867" lon="6.92466">
        <ele>1074.89</ele>
        <time>2014-06-21T17:40:43Z</time>
      </trkpt>
      <trkpt lat="47.84872" lon="6.92468">
        <ele>1078.74</ele>
        <time>2014-06-21T17:40:47Z</time>
      </trkpt>
      <trkpt lat="47.84875" lon="6.92472">
        <ele>1075.37</ele>
        <time>2014-06-21T17:40:50Z</time>
      </trkpt>
      <trkpt lat="47.84877" lon="6.92473">
        <ele>1079.7</ele>
        <time>2014-06-21T17:40:51Z</time>
      </trkpt>
      <trkpt lat="47.84878" lon="6.92474">
        <ele>1076.33</ele>
        <time>2014-06-21T17:40:52Z</time>
      </trkpt>
      <trkpt lat="47.84879" lon="6.92475">
        <ele>1080.18</ele>
        <time>2014-06-21T17:40:53Z</time>
      </trkpt>
      <trkpt lat="47.84893" lon="6.92476">
        <ele>1081.62</ele>
        <time>2014-06-21T17:41:10Z</time>
      </trkpt>
      <trkpt lat="47.84894" lon="6.92476">
        <ele>1085.47</ele>
        <time>2014-06-21T17:41:13Z</time>
      </trkpt>
      <trkpt lat="47.84897" lon="6.92478">
        <ele>1080.18</ele>
        <time>2014-06-21T17:41:17Z</time>
      </trkpt>
      <trkpt lat="47.84898" lon="6.92478">
        <ele>1085.95</ele>
        <time>2014-06-21T17:41:18Z</time>
      </trkpt>
      <trkpt lat="47.84899" lon="6.92479">
        <ele>1083.06</ele>
        <time>2014-06-21T17:41:20Z</time>
      </trkpt>
      <trkpt lat="47.84902" lon="6.9248">
        <ele>1086.43</ele>
        <time>2014-06-21T17:41:24Z</time>
      </trkpt>
      <trkpt lat="47.84904" lon="6.92477">
        <ele>1082.1</ele>
        <time>2014-06-21T17:41:27Z</time>
      </trkpt>
      <trkpt lat="47.84904" lon="6.92476">
        <ele>1085.95</ele>
        <time>2014-06-21T17:41:28Z</time>
      </trkpt>
      <trkpt lat="47.84904" lon="6.92473">
        <ele>1082.1</ele>
        <time>2014-06-21T17:41:30Z</time>
      </trkpt>
      <trkpt lat="47.84903" lon="6.92473">
        <ele>1087.39</ele>
        <time>2014-06-21T17:41:31Z</time>
      </trkpt>
      <trkpt lat="47.84903" lon="6.92471">
        <ele>1090.27</ele>
        <time>2014-06-21T17:41:33Z</time>
      </trkpt>
      <trkpt lat="47.84903" lon="6.92471">
        <ele>1086.91</ele>
        <time>2014-06-21T17:41:34Z</time>
      </trkpt>
      <trkpt lat="47.84904" lon="6.92467">
        <ele>1090.27</ele>
        <time>2014-06-21T17:41:48Z</time>
      </trkpt>
      <trkpt lat="47.84904" lon="6.92467">
        <ele>1086.91</ele>
        <time>2014-06-21T17:41:49Z</time>
      </trkpt>
      <trkpt lat="47.84908" lon="6.92471">
        <ele>1091.71</ele>
        <time>2014-06-21T17:41:55Z</time>
      </trkpt>
      <trkpt lat="47.84909" lon="6.92472">
        <ele>1087.39</ele>
        <time>2014-06-21T17:41:56Z</time>
      </trkpt>
      <trkpt lat="47.84913" lon="6.92472">
        <ele>1091.71</ele>
        <time>2014-06-21T17:42:01Z</time>
      </trkpt>
      <trkpt lat="47.84914" lon="6.92472">
        <ele>1088.35</ele>
        <time>2014-06-21T17:42:02Z</time>
      </trkpt>
      <trkpt lat="47.84917" lon="6.92472">
        <ele>1093.16</ele>
        <time>2014-06-21T17:42:05Z</time>
      </trkpt>
      <trkpt lat="47.84918" lon="6.92471">
        <ele>1089.31</ele>
        <time>2014-06-21T17:42:06Z</time>
      </trkpt>
      <trkpt lat="47.84921" lon="6.92472">
        <ele>1092.68</ele>
        <time>2014-06-21T17:42:11Z</time>
      </trkpt>
      <trkpt lat="47.84928" lon="6.92471">
        <ele>1096.04</ele>
        <time>2014-06-21T17:42:20Z</time>
      </trkpt>
      <trkpt lat="47.84929" lon="6.92471">
        <ele>1091.23</ele>
        <time>2014-06-21T17:42:21Z</time>
      </trkpt>
      <trkpt lat="47.8493" lon="6.92471">
        <ele>1096.04</ele>
        <time>2014-06-21T17:42:22Z</time>
      </trkpt>
      <trkpt lat="47.84932" lon="6.92473">
        <ele>1090.75</ele>
        <time>2014-06-21T17:42:25Z</time>
      </trkpt>
      <trkpt lat="47.84933" lon="6.92473">
        <ele>1094.12</ele>
        <time>2014-06-21T17:42:26Z</time>
      </trkpt>
      <trkpt lat="47.84938" lon="6.92474">
        <ele>1097.96</ele>
        <time>2014-06-21T17:42:38Z</time>
      </trkpt>
      <trkpt lat="47.8494" lon="6.92474">
        <ele>1097.48</ele>
        <time>2014-06-21T17:42:47Z</time>
      </trkpt>
      <trkpt lat="47.84943" lon="6.92474">
        <ele>1101.33</ele>
        <time>2014-06-21T17:42:51Z</time>
      </trkpt>
      <trkpt lat="47.84943" lon="6.92474">
        <ele>1097.96</ele>
        <time>2014-06-21T17:42:52Z</time>
      </trkpt>
      <trkpt lat="47.84949" lon="6.92475">
        <ele>1097.96</ele>
        <time>2014-06-21T17:43:00Z</time>
      </trkpt>
      <trkpt lat="47.84949" lon="6.92475">
        <ele>1101.33</ele>
        <time>2014-06-21T17:43:01Z</time>
      </trkpt>
      <trkpt lat="47.8495" lon="6.92474">
        <ele>1097</ele>
        <time>2014-06-21T17:43:02Z</time>
      </trkpt>
      <trkpt lat="47.84952" lon="6.92473">
        <ele>1102.29</ele>
        <time>2014-06-21T17:43:04Z</time>
      </trkpt>
      <trkpt lat="47.84952" lon="6.92472">
        <ele>1098.92</ele>
        <time>2014-06-21T17:43:06Z</time>
      </trkpt>
      <trkpt lat="47.84953" lon="6.92472">
        <ele>1100.85</ele>
        <time>2014-06-21T17:43:07Z</time>
      </trkpt>
      <trkpt lat="47.84959" lon="6.9247">
        <ele>1104.69</ele>
        <time>2014-06-21T17:43:14Z</time>
      </trkpt>
      <trkpt lat="47.8496" lon="6.92469">
        <ele>1100.85</ele>
        <time>2014-06-21T17:43:15Z</time>
      </trkpt>
      <trkpt lat="47.84963" lon="6.92466">
        <ele>1104.21</ele>
        <time>2014-06-21T17:43:19Z</time>
      </trkpt>
      <trkpt lat="47.84965" lon="6.92465">
        <ele>1104.21</ele>
        <time>2014-06-21T17:43:24Z</time>
      </trkpt>
      <trkpt lat="47.84965" lon="6.92465">
        <ele>1100.85</ele>
        <time>2014-06-21T17:43:25Z</time>
      </trkpt>
      <trkpt lat="47.84965" lon="6.92465">
        <ele>1106.13</ele>
        <time>2014-06-21T17:43:26Z</time>
      </trkpt>
      <trkpt lat="47.84973" lon="6.9246">
        <ele>1108.06</ele>
        <time>2014-06-21T17:43:38Z</time>
      </trkpt>
      <trkpt lat="47.84974" lon="6.92459">
        <ele>1104.69</ele>
        <time>2014-06-21T17:43:39Z</time>
      </trkpt>
      <trkpt lat="47.84975" lon="6.92457">
        <ele>1109.02</ele>
        <time>2014-06-21T17:43:41Z</time>
      </trkpt>
      <trkpt lat="47.84976" lon="6.92456">
        <ele>1102.29</ele>
        <time>2014-06-21T17:43:42Z</time>
      </trkpt>
      <trkpt lat="47.84976" lon="6.92456">
        <ele>1110.46</ele>
        <time>2014-06-21T17:43:43Z</time>
      </trkpt>
      <trkpt lat="47.84977" lon="6.92454">
        <ele>1107.58</ele>
        <time>2014-06-21T17:43:46Z</time>
      </trkpt>
      <trkpt lat="47.84987" lon="6.92453">
        <ele>1107.58</ele>
        <time>2014-06-21T17:43:57Z</time>
      </trkpt>
      <trkpt lat="47.8499" lon="6.92447">
        <ele>1108.06</ele>
        <time>2014-06-21T17:44:02Z</time>
      </trkpt>
      <trkpt lat="47.84991" lon="6.92443">
        <ele>1111.9</ele>
        <time>2014-06-21T17:44:04Z</time>
      </trkpt>
      <trkpt lat="47.84995" lon="6.92434">
        <ele>1107.58</ele>
        <time>2014-06-21T17:44:11Z</time>
      </trkpt>
      <trkpt lat="47.85002" lon="6.92433">
        <ele>1110.46</ele>
        <time>2014-06-21T17:44:20Z</time>
      </trkpt>
      <trkpt lat="47.85008" lon="6.92435">
        <ele>1113.34</ele>
        <time>2014-06-21T17:44:29Z</time>
      </trkpt>
      <trkpt lat="47.85009" lon="6.92434">
        <ele>1109.98</ele>
        <time>2014-06-21T17:44:31Z</time>
      </trkpt>
      <trkpt lat="47.85009" lon="6.92434">
        <ele>1110.46</ele>
        <time>2014-06-21T17:44:32Z</time>
      </trkpt>
      <trkpt lat="47.85011" lon="6.92434">
        <ele>1113.82</ele>
        <time>2014-06-21T17:44:35Z</time>
      </trkpt>
      <trkpt lat="47.85011" lon="6.92434">
        <ele>1109.02</ele>
        <time>2014-06-21T17:44:38Z</time>
      </trkpt>
      <trkpt lat="47.85011" lon="6.92434">
        <ele>1109.02</ele>
        <time>2014-06-21T17:44:39Z</time>
      </trkpt>
      <trkpt lat="47.8502" lon="6.92433">
        <ele>1112.38</ele>
        <time>2014-06-21T17:44:45Z</time>
      </trkpt>
      <trkpt lat="47.85021" lon="6.92432">
        <ele>1112.38</ele>
        <time>2014-06-21T17:44:46Z</time>
      </trkpt>
      <trkpt lat="47.85024" lon="6.92429">
        <ele>1115.75</ele>
        <time>2014-06-21T17:44:48Z</time>
      </trkpt>
      <trkpt lat="47.85026" lon="6.92426">
        <ele>1114.79</ele>
        <time>2014-06-21T17:44:49Z</time>
      </trkpt>
      <trkpt lat="47.85029" lon="6.92424">
        <ele>1113.34</ele>
        <time>2014-06-21T17:44:51Z</time>
      </trkpt>
      <trkpt lat="47.85031" lon="6.92422">
        <ele>1112.38</ele>
        <time>2014-06-21T17:44:53Z</time>
      </trkpt>
      <trkpt lat="47.85041" lon="6.9242">
        <ele>1114.31</ele>
        <time>2014-06-21T17:45:00Z</time>
      </trkpt>
      <trkpt lat="47.8505" lon="6.92412">
        <ele>1115.75</ele>
        <time>2014-06-21T17:45:07Z</time>
      </trkpt>
      <trkpt lat="47.85054" lon="6.92411">
        <ele>1111.9</ele>
        <time>2014-06-21T17:45:10Z</time>
      </trkpt>
      <trkpt lat="47.85056" lon="6.9241">
        <ele>1116.71</ele>
        <time>2014-06-21T17:45:12Z</time>
      </trkpt>
      <trkpt lat="47.85057" lon="6.92408">
        <ele>1112.86</ele>
        <time>2014-06-21T17:45:14Z</time>
      </trkpt>
      <trkpt lat="47.85062" lon="6.92404">
        <ele>1115.27</ele>
        <time>2014-06-21T17:45:19Z</time>
      </trkpt>
      <trkpt lat="47.85071" lon="6.924">
        <ele>1112.38</ele>
        <time>2014-06-21T17:45:27Z</time>
      </trkpt>
      <trkpt lat="47.85076" lon="6.92397">
        <ele>1117.67</ele>
        <time>2014-06-21T17:45:31Z</time>
      </trkpt>
      <trkpt lat="47.85077" lon="6.92397">
        <ele>1115.27</ele>
        <time>2014-06-21T17:45:32Z</time>
      </trkpt>
      <trkpt lat="47.85079" lon="6.92396">
        <ele>1111.9</ele>
        <time>2014-06-21T17:45:33Z</time>
      </trkpt>
      <trkpt lat="47.85081" lon="6.92395">
        <ele>1113.82</ele>
        <time>2014-06-21T17:45:34Z</time>
      </trkpt>
      <trkpt lat="47.85095" lon="6.92388">
        <ele>1117.67</ele>
        <time>2014-06-21T17:45:45Z</time>
      </trkpt>
      <trkpt lat="47.851" lon="6.92382">
        <ele>1116.71</ele>
        <time>2014-06-21T17:45:50Z</time>
      </trkpt>
      <trkpt lat="47.85102" lon="6.92379">
        <ele>1122.96</ele>
        <time>2014-06-21T17:45:53Z</time>
      </trkpt>
      <trkpt lat="47.85103" lon="6.92378">
        <ele>1115.27</ele>
        <time>2014-06-21T17:45:54Z</time>
      </trkpt>
      <trkpt lat="47.85103" lon="6.92368">
        <ele>1121.03</ele>
        <time>2014-06-21T17:46:01Z</time>
      </trkpt>
      <trkpt lat="47.85104" lon="6.92367">
        <ele>1117.19</ele>
        <time>2014-06-21T17:46:02Z</time>
      </trkpt>
      <trkpt lat="47.85105" lon="6.92365">
        <ele>1118.63</ele>
        <time>2014-06-21T17:46:04Z</time>
      </trkpt>
      <trkpt lat="47.85107" lon="6.9236">
        <ele>1117.67</ele>
        <time>2014-06-21T17:46:07Z</time>
      </trkpt>
      <trkpt lat="47.85109" lon="6.92355">
        <ele>1116.23</ele>
        <time>2014-06-21T17:46:12Z</time>
      </trkpt>
      <trkpt lat="47.8511" lon="6.92355">
        <ele>1116.23</ele>
        <time>2014-06-21T17:46:14Z</time>
      </trkpt>
      <trkpt lat="47.85114" lon="6.92353">
        <ele>1120.07</ele>
        <time>2014-06-21T17:46:18Z</time>
      </trkpt>
      <trkpt lat="47.85115" lon="6.92352">
        <ele>1119.59</ele>
        <time>2014-06-21T17:46:19Z</time>
      </trkpt>
      <trkpt lat="47.85122" lon="6.92341">
        <ele>1116.23</ele>
        <time>2014-06-21T17:46:27Z</time>
      </trkpt>
      <trkpt lat="47.85126" lon="6.92339">
        <ele>1118.15</ele>
        <time>2014-06-21T17:46:30Z</time>
      </trkpt>
      <trkpt lat="47.8513" lon="6.92332">
        <ele>1119.59</ele>
        <time>2014-06-21T17:46:35Z</time>
      </trkpt>
      <trkpt lat="47.85134" lon="6.9233">
        <ele>1116.71</ele>
        <time>2014-06-21T17:46:38Z</time>
      </trkpt>
      <trkpt lat="47.85142" lon="6.92324">
        <ele>1119.11</ele>
        <time>2014-06-21T17:46:44Z</time>
      </trkpt>
      <trkpt lat="47.85145" lon="6.92323">
        <ele>1115.27</ele>
        <time>2014-06-21T17:46:47Z</time>
      </trkpt>
      <trkpt lat="47.85159" lon="6.92312">
        <ele>1118.63</ele>
        <time>2014-06-21T17:46:59Z</time>
      </trkpt>
      <trkpt lat="47.85163" lon="6.9231">
        <ele>1116.23</ele>
        <time>2014-06-21T17:47:03Z</time>
      </trkpt>
      <trkpt lat="47.85166" lon="6.92305">
        <ele>1116.71</ele>
        <time>2014-06-21T17:47:07Z</time>
      </trkpt>
      <trkpt lat="47.85174" lon="6.92303">
        <ele>1116.71</ele>
        <time>2014-06-21T17:47:14Z</time>
      </trkpt>
      <trkpt lat="47.85176" lon="6.92302">
        <ele>1117.67</ele>
        <time>2014-06-21T17:47:16Z</time>
      </trkpt>
      <trkpt lat="47.8518" lon="6.92302">
        <ele>1117.19</ele>
        <time>2014-06-21T17:47:20Z</time>
      </trkpt>
      <trkpt lat="47.85183" lon="6.92303">
        <ele>1120.55</ele>
        <time>2014-06-21T17:47:22Z</time>
      </trkpt>
      <trkpt lat="47.85185" lon="6.92302">
        <ele>1117.67</ele>
        <time>2014-06-21T17:47:23Z</time>
      </trkpt>
      <trkpt lat="47.85193" lon="6.92297">
        <ele>1116.71</ele>
        <time>2014-06-21T17:47:30Z</time>
      </trkpt>
      <trkpt lat="47.85194" lon="6.92297">
        <ele>1120.07</ele>
        <time>2014-06-21T17:47:31Z</time>
      </trkpt>
      <trkpt lat="47.85196" lon="6.92297">
        <ele>1120.07</ele>
        <time>2014-06-21T17:47:32Z</time>
      </trkpt>
      <trkpt lat="47.852" lon="6.92298">
        <ele>1117.19</ele>
        <time>2014-06-21T17:47:34Z</time>
      </trkpt>
      <trkpt lat="47.85201" lon="6.92297">
        <ele>1113.82</ele>
        <time>2014-06-21T17:47:35Z</time>
      </trkpt>
      <trkpt lat="47.85202" lon="6.92296">
        <ele>1115.27</ele>
        <time>2014-06-21T17:47:36Z</time>
      </trkpt>
      <trkpt lat="47.85204" lon="6.92294">
        <ele>1119.11</ele>
        <time>2014-06-21T17:47:41Z</time>
      </trkpt>
      <trkpt lat="47.85209" lon="6.92288">
        <ele>1114.31</ele>
        <time>2014-06-21T17:47:48Z</time>
      </trkpt>
      <trkpt lat="47.85216" lon="6.92285">
        <ele>1117.67</ele>
        <time>2014-06-21T17:47:54Z</time>
      </trkpt>
      <trkpt lat="47.85217" lon="6.92285">
        <ele>1117.67</ele>
        <time>2014-06-21T17:47:55Z</time>
      </trkpt>
      <trkpt lat="47.85221" lon="6.92282">
        <ele>1120.55</ele>
        <time>2014-06-21T17:47:58Z</time>
      </trkpt>
      <trkpt lat="47.85224" lon="6.9228">
        <ele>1116.23</ele>
        <time>2014-06-21T17:48:00Z</time>
      </trkpt>
      <trkpt lat="47.8523" lon="6.92275">
        <ele>1120.55</ele>
        <time>2014-06-21T17:48:04Z</time>
      </trkpt>
      <trkpt lat="47.85231" lon="6.92272">
        <ele>1117.67</ele>
        <time>2014-06-21T17:48:07Z</time>
      </trkpt>
      <trkpt lat="47.8524" lon="6.92264">
        <ele>1124.4</ele>
        <time>2014-06-21T17:48:16Z</time>
      </trkpt>
      <trkpt lat="47.85241" lon="6.92263">
        <ele>1123.92</ele>
        <time>2014-06-21T17:48:17Z</time>
      </trkpt>
      <trkpt lat="47.85243" lon="6.92263">
        <ele>1120.07</ele>
        <time>2014-06-21T17:48:18Z</time>
      </trkpt>
      <trkpt lat="47.85246" lon="6.92262">
        <ele>1119.11</ele>
        <time>2014-06-21T17:48:20Z</time>
      </trkpt>
      <trkpt lat="47.85246" lon="6.92261">
        <ele>1124.4</ele>
        <time>2014-06-21T17:48:21Z</time>
      </trkpt>
      <trkpt lat="47.85248" lon="6.9226">
        <ele>1122.96</ele>
        <time>2014-06-21T17:48:22Z</time>
      </trkpt>
      <trkpt lat="47.85249" lon="6.92258">
        <ele>1121.03</ele>
        <time>2014-06-21T17:48:24Z</time>
      </trkpt>
      <trkpt lat="47.8525" lon="6.92256">
        <ele>1123.92</ele>
        <time>2014-06-21T17:48:27Z</time>
      </trkpt>
      <trkpt lat="47.8525" lon="6.92256">
        <ele>1120.55</ele>
        <time>2014-06-21T17:48:28Z</time>
      </trkpt>
      <trkpt lat="47.85252" lon="6.92254">
        <ele>1123.92</ele>
        <time>2014-06-21T17:48:30Z</time>
      </trkpt>
      <trkpt lat="47.85255" lon="6.92251">
        <ele>1127.76</ele>
        <time>2014-06-21T17:48:37Z</time>
      </trkpt>
      <trkpt lat="47.85254" lon="6.9225">
        <ele>1123.92</ele>
        <time>2014-06-21T17:48:38Z</time>
      </trkpt>
      <trkpt lat="47.85254" lon="6.92245">
        <ele>1127.28</ele>
        <time>2014-06-21T17:48:41Z</time>
      </trkpt>
      <trkpt lat="47.85254" lon="6.92243">
        <ele>1124.88</ele>
        <time>2014-06-21T17:48:42Z</time>
      </trkpt>
      <trkpt lat="47.85254" lon="6.92242">
        <ele>1128.24</ele>
        <time>2014-06-21T17:48:43Z</time>
      </trkpt>
      <trkpt lat="47.85255" lon="6.92239">
        <ele>1122.48</ele>
        <time>2014-06-21T17:48:45Z</time>
      </trkpt>
      <trkpt lat="47.85255" lon="6.92238">
        <ele>1129.21</ele>
        <time>2014-06-21T17:48:46Z</time>
      </trkpt>
      <trkpt lat="47.85255" lon="6.92238">
        <ele>1124.88</ele>
        <time>2014-06-21T17:48:47Z</time>
      </trkpt>
      <trkpt lat="47.85254" lon="6.92234">
        <ele>1129.69</ele>
        <time>2014-06-21T17:48:50Z</time>
      </trkpt>
      <trkpt lat="47.85254" lon="6.92233">
        <ele>1125.36</ele>
        <time>2014-06-21T17:48:51Z</time>
      </trkpt>
      <trkpt lat="47.85254" lon="6.92231">
        <ele>1128.73</ele>
        <time>2014-06-21T17:48:52Z</time>
      </trkpt>
      <trkpt lat="47.85254" lon="6.92226">
        <ele>1126.8</ele>
        <time>2014-06-21T17:48:57Z</time>
      </trkpt>
      <trkpt lat="47.85253" lon="6.92222">
        <ele>1122.96</ele>
        <time>2014-06-21T17:49:00Z</time>
      </trkpt>
      <trkpt lat="47.85251" lon="6.92216">
        <ele>1128.24</ele>
        <time>2014-06-21T17:49:04Z</time>
      </trkpt>
      <trkpt lat="47.85251" lon="6.92215">
        <ele>1127.28</ele>
        <time>2014-06-21T17:49:05Z</time>
      </trkpt>
      <trkpt lat="47.8525" lon="6.92213">
        <ele>1126.32</ele>
        <time>2014-06-21T17:49:07Z</time>
      </trkpt>
      <trkpt lat="47.85248" lon="6.92207">
        <ele>1129.21</ele>
        <time>2014-06-21T17:49:11Z</time>
      </trkpt>
      <trkpt lat="47.85247" lon="6.92195">
        <ele>1124.88</ele>
        <time>2014-06-21T17:49:19Z</time>
      </trkpt>
      <trkpt lat="47.85248" lon="6.92191">
        <ele>1122.96</ele>
        <time>2014-06-21T17:49:22Z</time>
      </trkpt>
      <trkpt lat="47.85248" lon="6.92187">
        <ele>1126.8</ele>
        <time>2014-06-21T17:49:24Z</time>
      </trkpt>
      <trkpt lat="47.85248" lon="6.92185">
        <ele>1125.84</ele>
        <time>2014-06-21T17:49:25Z</time>
      </trkpt>
      <trkpt lat="47.85247" lon="6.92179">
        <ele>1122</ele>
        <time>2014-06-21T17:49:28Z</time>
      </trkpt>
      <trkpt lat="47.85247" lon="6.92176">
        <ele>1118.15</ele>
        <time>2014-06-21T17:49:31Z</time>
      </trkpt>
      <trkpt lat="47.85248" lon="6.92175">
        <ele>1121.52</ele>
        <time>2014-06-21T17:49:32Z</time>
      </trkpt>
      <trkpt lat="47.85248" lon="6.92172">
        <ele>1125.84</ele>
        <time>2014-06-21T17:49:36Z</time>
      </trkpt>
      <trkpt lat="47.85246" lon="6.92169">
        <ele>1122</ele>
        <time>2014-06-21T17:49:38Z</time>
      </trkpt>
      <trkpt lat="47.85246" lon="6.92168">
        <ele>1122.48</ele>
        <time>2014-06-21T17:49:39Z</time>
      </trkpt>
      <trkpt lat="47.85245" lon="6.92166">
        <ele>1118.63</ele>
        <time>2014-06-21T17:49:41Z</time>
      </trkpt>
      <trkpt lat="47.85246" lon="6.92163">
        <ele>1118.15</ele>
        <time>2014-06-21T17:49:43Z</time>
      </trkpt>
      <trkpt lat="47.85246" lon="6.92154">
        <ele>1120.55</ele>
        <time>2014-06-21T17:49:48Z</time>
      </trkpt>
      <trkpt lat="47.85249" lon="6.92144">
        <ele>1116.71</ele>
        <time>2014-06-21T17:49:54Z</time>
      </trkpt>
      <trkpt lat="47.8525" lon="6.92142">
        <ele>1116.71</ele>
        <time>2014-06-21T17:49:55Z</time>
      </trkpt>
      <trkpt lat="47.85258" lon="6.9213">
        <ele>1110.94</ele>
        <time>2014-06-21T17:50:04Z</time>
      </trkpt>
      <trkpt lat="47.85259" lon="6.92127">
        <ele>1117.19</ele>
        <time>2014-06-21T17:50:06Z</time>
      </trkpt>
      <trkpt lat="47.8526" lon="6.92126">
        <ele>1116.23</ele>
        <time>2014-06-21T17:50:07Z</time>
      </trkpt>
      <trkpt lat="47.85261" lon="6.92125">
        <ele>1115.75</ele>
        <time>2014-06-21T17:50:08Z</time>
      </trkpt>
      <trkpt lat="47.85264" lon="6.92121">
        <ele>1108.54</ele>
        <time>2014-06-21T17:50:11Z</time>
      </trkpt>
      <trkpt lat="47.85265" lon="6.92119">
        <ele>1114.31</ele>
        <time>2014-06-21T17:50:12Z</time>
      </trkpt>
      <trkpt lat="47.85266" lon="6.92117">
        <ele>1114.31</ele>
        <time>2014-06-21T17:50:13Z</time>
      </trkpt>
      <trkpt lat="47.85267" lon="6.92113">
        <ele>1112.38</ele>
        <time>2014-06-21T17:50:15Z</time>
      </trkpt>
      <trkpt lat="47.85271" lon="6.92105">
        <ele>1109.98</ele>
        <time>2014-06-21T17:50:20Z</time>
      </trkpt>
      <trkpt lat="47.85274" lon="6.92102">
        <ele>1111.9</ele>
        <time>2014-06-21T17:50:22Z</time>
      </trkpt>
      <trkpt lat="47.85279" lon="6.92096">
        <ele>1109.02</ele>
        <time>2014-06-21T17:50:26Z</time>
      </trkpt>
      <trkpt lat="47.8528" lon="6.92093">
        <ele>1112.86</ele>
        <time>2014-06-21T17:50:28Z</time>
      </trkpt>
      <trkpt lat="47.8528" lon="6.92092">
        <ele>1112.86</ele>
        <time>2014-06-21T17:50:29Z</time>
      </trkpt>
      <trkpt lat="47.85287" lon="6.92076">
        <ele>1110.46</ele>
        <time>2014-06-21T17:50:45Z</time>
      </trkpt>
      <trkpt lat="47.8529" lon="6.92071">
        <ele>1108.54</ele>
        <time>2014-06-21T17:50:48Z</time>
      </trkpt>
      <trkpt lat="47.8529" lon="6.92068">
        <ele>1107.1</ele>
        <time>2014-06-21T17:50:49Z</time>
      </trkpt>
      <trkpt lat="47.85293" lon="6.92054">
        <ele>1104.69</ele>
        <time>2014-06-21T17:50:54Z</time>
      </trkpt>
      <trkpt lat="47.85295" lon="6.92048">
        <ele>1108.06</ele>
        <time>2014-06-21T17:50:57Z</time>
      </trkpt>
      <trkpt lat="47.85296" lon="6.92046">
        <ele>1111.42</ele>
        <time>2014-06-21T17:50:58Z</time>
      </trkpt>
      <trkpt lat="47.85296" lon="6.92045">
        <ele>1107.58</ele>
        <time>2014-06-21T17:50:59Z</time>
      </trkpt>
      <trkpt lat="47.85298" lon="6.92042">
        <ele>1103.25</ele>
        <time>2014-06-21T17:51:02Z</time>
      </trkpt>
      <trkpt lat="47.85299" lon="6.92041">
        <ele>1103.25</ele>
        <time>2014-06-21T17:51:03Z</time>
      </trkpt>
      <trkpt lat="47.85301" lon="6.92041">
        <ele>1106.61</ele>
        <time>2014-06-21T17:51:07Z</time>
      </trkpt>
      <trkpt lat="47.85303" lon="6.9204">
        <ele>1103.25</ele>
        <time>2014-06-21T17:51:09Z</time>
      </trkpt>
      <trkpt lat="47.85305" lon="6.9204">
        <ele>1099.4</ele>
        <time>2014-06-21T17:51:11Z</time>
      </trkpt>
      <trkpt lat="47.85306" lon="6.9204">
        <ele>1098.44</ele>
        <time>2014-06-21T17:51:13Z</time>
      </trkpt>
      <trkpt lat="47.85308" lon="6.92039">
        <ele>1102.29</ele>
        <time>2014-06-21T17:51:15Z</time>
      </trkpt>
      <trkpt lat="47.85309" lon="6.92039">
        <ele>1100.85</ele>
        <time>2014-06-21T17:51:16Z</time>
      </trkpt>
      <trkpt lat="47.8531" lon="6.92036">
        <ele>1102.29</ele>
        <time>2014-06-21T17:51:18Z</time>
      </trkpt>
      <trkpt lat="47.85314" lon="6.92034">
        <ele>1105.17</ele>
        <time>2014-06-21T17:51:20Z</time>
      </trkpt>
      <trkpt lat="47.85315" lon="6.92033">
        <ele>1100.85</ele>
        <time>2014-06-21T17:51:21Z</time>
      </trkpt>
      <trkpt lat="47.85316" lon="6.92032">
        <ele>1100.85</ele>
        <time>2014-06-21T17:51:22Z</time>
      </trkpt>
      <trkpt lat="47.85318" lon="6.92032">
        <ele>1097.96</ele>
        <time>2014-06-21T17:51:24Z</time>
      </trkpt>
      <trkpt lat="47.85325" lon="6.92029">
        <ele>1100.37</ele>
        <time>2014-06-21T17:51:29Z</time>
      </trkpt>
      <trkpt lat="47.85328" lon="6.92027">
        <ele>1096.04</ele>
        <time>2014-06-21T17:51:32Z</time>
      </trkpt>
      <trkpt lat="47.85332" lon="6.92024">
        <ele>1095.56</ele>
        <time>2014-06-21T17:51:36Z</time>
      </trkpt>
      <trkpt lat="47.85333" lon="6.92024">
        <ele>1095.56</ele>
        <time>2014-06-21T17:51:37Z</time>
      </trkpt>
      <trkpt lat="47.85337" lon="6.9202">
        <ele>1098.92</ele>
        <time>2014-06-21T17:51:42Z</time>
      </trkpt>
      <trkpt lat="47.85339" lon="6.92021">
        <ele>1101.33</ele>
        <time>2014-06-21T17:51:44Z</time>
      </trkpt>
      <trkpt lat="47.8534" lon="6.92021">
        <ele>1101.81</ele>
        <time>2014-06-21T17:51:45Z</time>
      </trkpt>
      <trkpt lat="47.85346" lon="6.9202">
        <ele>1095.56</ele>
        <time>2014-06-21T17:51:48Z</time>
      </trkpt>
      <trkpt lat="47.85348" lon="6.92019">
        <ele>1094.6</ele>
        <time>2014-06-21T17:51:49Z</time>
      </trkpt>
      <trkpt lat="47.85358" lon="6.92008">
        <ele>1100.37</ele>
        <time>2014-06-21T17:51:57Z</time>
      </trkpt>
      <trkpt lat="47.85361" lon="6.91999">
        <ele>1101.33</ele>
        <time>2014-06-21T17:52:01Z</time>
      </trkpt>
      <trkpt lat="47.85362" lon="6.91997">
        <ele>1101.33</ele>
        <time>2014-06-21T17:52:02Z</time>
      </trkpt>
      <trkpt lat="47.85367" lon="6.91989">
        <ele>1097.48</ele>
        <time>2014-06-21T17:52:11Z</time>
      </trkpt>
      <trkpt lat="47.85367" lon="6.91988">
        <ele>1101.33</ele>
        <time>2014-06-21T17:52:15Z</time>
      </trkpt>
      <trkpt lat="47.85367" lon="6.91989">
        <ele>1102.29</ele>
        <time>2014-06-21T17:52:17Z</time>
      </trkpt>
      <trkpt lat="47.85367" lon="6.91989">
        <ele>1094.12</ele>
        <time>2014-06-21T17:52:29Z</time>
      </trkpt>
      <trkpt lat="47.85367" lon="6.91989">
        <ele>1099.4</ele>
        <time>2014-06-21T17:52:30Z</time>
      </trkpt>
      <trkpt lat="47.85367" lon="6.91988">
        <ele>1094.12</ele>
        <time>2014-06-21T17:52:38Z</time>
      </trkpt>
      <trkpt lat="47.85368" lon="6.91987">
        <ele>1097.96</ele>
        <time>2014-06-21T17:52:44Z</time>
      </trkpt>
      <trkpt lat="47.85368" lon="6.91987">
        <ele>1095.08</ele>
        <time>2014-06-21T17:52:45Z</time>
      </trkpt>
      <trkpt lat="47.85372" lon="6.91985">
        <ele>1094.12</ele>
        <time>2014-06-21T17:52:50Z</time>
      </trkpt>
      <trkpt lat="47.85383" lon="6.91979">
        <ele>1096.52</ele>
        <time>2014-06-21T17:52:55Z</time>
      </trkpt>
      <trkpt lat="47.85385" lon="6.91977">
        <ele>1092.68</ele>
        <time>2014-06-21T17:52:56Z</time>
      </trkpt>
      <trkpt lat="47.85391" lon="6.91973">
        <ele>1096.52</ele>
        <time>2014-06-21T17:52:59Z</time>
      </trkpt>
      <trkpt lat="47.85397" lon="6.91971">
        <ele>1097.96</ele>
        <time>2014-06-21T17:53:03Z</time>
      </trkpt>
      <trkpt lat="47.85399" lon="6.9197">
        <ele>1097</ele>
        <time>2014-06-21T17:53:04Z</time>
      </trkpt>
      <trkpt lat="47.85402" lon="6.91965">
        <ele>1097.96</ele>
        <time>2014-06-21T17:53:08Z</time>
      </trkpt>
      <trkpt lat="47.85408" lon="6.91962">
        <ele>1097.96</ele>
        <time>2014-06-21T17:53:13Z</time>
      </trkpt>
      <trkpt lat="47.85409" lon="6.91961">
        <ele>1094.6</ele>
        <time>2014-06-21T17:53:21Z</time>
      </trkpt>
      <trkpt lat="47.85409" lon="6.9196">
        <ele>1093.16</ele>
        <time>2014-06-21T17:53:23Z</time>
      </trkpt>
      <trkpt lat="47.85413" lon="6.91956">
        <ele>1096.04</ele>
        <time>2014-06-21T17:53:29Z</time>
      </trkpt>
      <trkpt lat="47.85417" lon="6.9195">
        <ele>1092.68</ele>
        <time>2014-06-21T17:53:34Z</time>
      </trkpt>
      <trkpt lat="47.85422" lon="6.91948">
        <ele>1096.52</ele>
        <time>2014-06-21T17:53:38Z</time>
      </trkpt>
      <trkpt lat="47.85424" lon="6.91945">
        <ele>1091.71</ele>
        <time>2014-06-21T17:53:41Z</time>
      </trkpt>
      <trkpt lat="47.85426" lon="6.91944">
        <ele>1093.16</ele>
        <time>2014-06-21T17:53:42Z</time>
      </trkpt>
      <trkpt lat="47.8543" lon="6.91937">
        <ele>1092.2</ele>
        <time>2014-06-21T17:53:49Z</time>
      </trkpt>
      <trkpt lat="47.85431" lon="6.91936">
        <ele>1091.23</ele>
        <time>2014-06-21T17:53:50Z</time>
      </trkpt>
      <trkpt lat="47.85434" lon="6.9193">
        <ele>1095.08</ele>
        <time>2014-06-21T17:53:54Z</time>
      </trkpt>
      <trkpt lat="47.85446" lon="6.91913">
        <ele>1097.48</ele>
        <time>2014-06-21T17:54:11Z</time>
      </trkpt>
      <trkpt lat="47.85449" lon="6.91907">
        <ele>1092.68</ele>
        <time>2014-06-21T17:54:17Z</time>
      </trkpt>
      <trkpt lat="47.8545" lon="6.91906">
        <ele>1095.56</ele>
        <time>2014-06-21T17:54:18Z</time>
      </trkpt>
      <trkpt lat="47.85451" lon="6.91899">
        <ele>1097</ele>
        <time>2014-06-21T17:54:22Z</time>
      </trkpt>
      <trkpt lat="47.85452" lon="6.91893">
        <ele>1095.56</ele>
        <time>2014-06-21T17:54:25Z</time>
      </trkpt>
      <trkpt lat="47.85453" lon="6.91881">
        <ele>1098.92</ele>
        <time>2014-06-21T17:54:33Z</time>
      </trkpt>
      <trkpt lat="47.85453" lon="6.91875">
        <ele>1096.04</ele>
        <time>2014-06-21T17:54:36Z</time>
      </trkpt>
      <trkpt lat="47.85453" lon="6.91871">
        <ele>1097.48</ele>
        <time>2014-06-21T17:54:38Z</time>
      </trkpt>
      <trkpt lat="47.85454" lon="6.91865">
        <ele>1094.6</ele>
        <time>2014-06-21T17:54:41Z</time>
      </trkpt>
      <trkpt lat="47.85455" lon="6.91855">
        <ele>1098.92</ele>
        <time>2014-06-21T17:54:46Z</time>
      </trkpt>
      <trkpt lat="47.85461" lon="6.91824">
        <ele>1094.12</ele>
        <time>2014-06-21T17:54:58Z</time>
      </trkpt>
      <trkpt lat="47.85462" lon="6.91821">
        <ele>1095.56</ele>
        <time>2014-06-21T17:54:59Z</time>
      </trkpt>
      <trkpt lat="47.85465" lon="6.91815">
        <ele>1098.92</ele>
        <time>2014-06-21T17:55:02Z</time>
      </trkpt>
      <trkpt lat="47.85465" lon="6.91812">
        <ele>1098.44</ele>
        <time>2014-06-21T17:55:03Z</time>
      </trkpt>
      <trkpt lat="47.85464" lon="6.91806">
        <ele>1093.16</ele>
        <time>2014-06-21T17:55:06Z</time>
      </trkpt>
      <trkpt lat="47.85464" lon="6.91803">
        <ele>1099.4</ele>
        <time>2014-06-21T17:55:09Z</time>
      </trkpt>
      <trkpt lat="47.85464" lon="6.91802">
        <ele>1097.48</ele>
        <time>2014-06-21T17:55:10Z</time>
      </trkpt>
      <trkpt lat="47.85466" lon="6.91799">
        <ele>1096.52</ele>
        <time>2014-06-21T17:55:13Z</time>
      </trkpt>
      <trkpt lat="47.8547" lon="6.91795">
        <ele>1093.16</ele>
        <time>2014-06-21T17:55:17Z</time>
      </trkpt>
      <trkpt lat="47.85475" lon="6.91787">
        <ele>1096.52</ele>
        <time>2014-06-21T17:55:23Z</time>
      </trkpt>
      <trkpt lat="47.85478" lon="6.91784">
        <ele>1093.16</ele>
        <time>2014-06-21T17:55:26Z</time>
      </trkpt>
      <trkpt lat="47.85482" lon="6.91774">
        <ele>1095.08</ele>
        <time>2014-06-21T17:55:32Z</time>
      </trkpt>
      <trkpt lat="47.85482" lon="6.91772">
        <ele>1091.71</ele>
        <time>2014-06-21T17:55:34Z</time>
      </trkpt>
      <trkpt lat="47.85482" lon="6.91771">
        <ele>1095.08</ele>
        <time>2014-06-21T17:55:35Z</time>
      </trkpt>
      <trkpt lat="47.85481" lon="6.91762">
        <ele>1091.23</ele>
        <time>2014-06-21T17:55:40Z</time>
      </trkpt>
      <trkpt lat="47.85481" lon="6.9176">
        <ele>1092.68</ele>
        <time>2014-06-21T17:55:41Z</time>
      </trkpt>
      <trkpt lat="47.85481" lon="6.91757">
        <ele>1093.64</ele>
        <time>2014-06-21T17:55:43Z</time>
      </trkpt>
      <trkpt lat="47.85481" lon="6.91754">
        <ele>1094.12</ele>
        <time>2014-06-21T17:55:45Z</time>
      </trkpt>
      <trkpt lat="47.85482" lon="6.9175">
        <ele>1095.56</ele>
        <time>2014-06-21T17:55:47Z</time>
      </trkpt>
      <trkpt lat="47.85483" lon="6.91743">
        <ele>1092.2</ele>
        <time>2014-06-21T17:55:51Z</time>
      </trkpt>
      <trkpt lat="47.85483" lon="6.91742">
        <ele>1092.2</ele>
        <time>2014-06-21T17:55:52Z</time>
      </trkpt>
      <trkpt lat="47.85485" lon="6.91738">
        <ele>1097.96</ele>
        <time>2014-06-21T17:55:57Z</time>
      </trkpt>
      <trkpt lat="47.85486" lon="6.91736">
        <ele>1093.64</ele>
        <time>2014-06-21T17:55:59Z</time>
      </trkpt>
      <trkpt lat="47.85486" lon="6.91735">
        <ele>1097.96</ele>
        <time>2014-06-21T17:56:00Z</time>
      </trkpt>
      <trkpt lat="47.85487" lon="6.91734">
        <ele>1095.08</ele>
        <time>2014-06-21T17:56:01Z</time>
      </trkpt>
    </trkseg>
  </trk>
</gpx>